<?xml version='1.0' encoding='UTF-8'?><gpx version="1.1" creator="JPX - https://github.com/jenetics/jpx" xmlns="http://www.topografix.com/GPX/1/1"><trk><trkseg><trkpt lat="39.169036155467694" lon="8.682747090561591"><ele>127.99999999999999</ele><time>2026-04-06T07:41:55Z</time></trkpt><trkpt lat="39.1689971070042" lon="8.682611662168979"><ele>128.0</ele><time>2026-04-06T07:41:57Z</time></trkpt><trkpt lat="39.16900464988881" lon="8.682701055264848"><ele>128.0</ele><time>2026-04-06T07:42:22Z</time></trkpt><trkpt lat="39.169030640514045" lon="8.682777625204357"><ele>128.0</ele><time>2026-04-06T07:42:28Z</time></trkpt><trkpt lat="39.169084721138894" lon="8.68286812976516"><ele>127.99999999999999</ele><time>2026-04-06T07:42:30Z</time></trkpt><trkpt lat="39.16914519818932" lon="8.682837531136279"><ele>128.0</ele><time>2026-04-06T07:42:38Z</time></trkpt><trkpt lat="39.16919584379761" lon="8.682751694876538"><ele>128.0</ele><time>2026-04-06T07:44:06Z</time></trkpt><trkpt lat="39.16925368103559" lon="8.682650535287754"><ele>128.0</ele><time>2026-04-06T07:44:09Z</time></trkpt><trkpt lat="39.16929957595356" lon="8.682547747438942"><ele>128.0</ele><time>2026-04-06T07:44:11Z</time></trkpt><trkpt lat="39.16934532022791" lon="8.682439845313173"><ele>128.0</ele><time>2026-04-06T07:44:13Z</time></trkpt><trkpt lat="39.16938963037195" lon="8.682338723809748"><ele>128.0</ele><time>2026-04-06T07:44:15Z</time></trkpt><trkpt lat="39.169451579032945" lon="8.68221298808054"><ele>127.99999999999999</ele><time>2026-04-06T07:44:17Z</time></trkpt><trkpt lat="39.16951198205207" lon="8.682067054566424"><ele>128.0</ele><time>2026-04-06T07:44:19Z</time></trkpt><trkpt lat="39.16954425247712" lon="8.681987333320153"><ele>128.0</ele><time>2026-04-06T07:44:20Z</time></trkpt><trkpt lat="39.16957975849199" lon="8.681903392699493"><ele>128.0</ele><time>2026-04-06T07:44:21Z</time></trkpt><trkpt lat="39.16961570375045" lon="8.68182357031191"><ele>127.99999999999999</ele><time>2026-04-06T07:44:22Z</time></trkpt><trkpt lat="39.16965096430851" lon="8.681748813127973"><ele>128.0</ele><time>2026-04-06T07:44:23Z</time></trkpt><trkpt lat="39.1696906643374" lon="8.681672175110576"><ele>128.4</ele><time>2026-04-06T07:44:24Z</time></trkpt><trkpt lat="39.16978796715359" lon="8.681610215883234"><ele>128.8</ele><time>2026-04-06T07:44:26Z</time></trkpt><trkpt lat="39.1698908750977" lon="8.681667736979195"><ele>129.2</ele><time>2026-04-06T07:44:28Z</time></trkpt><trkpt lat="39.169943894016576" lon="8.681721698947651"><ele>129.6</ele><time>2026-04-06T07:44:29Z</time></trkpt><trkpt lat="39.17001508897017" lon="8.681779758395152"><ele>130.0</ele><time>2026-04-06T07:44:31Z</time></trkpt><trkpt lat="39.16997195607963" lon="8.681585933890368"><ele>130.0</ele><time>2026-04-06T07:44:39Z</time></trkpt><trkpt lat="39.16990182716809" lon="8.6815312873547"><ele>130.0</ele><time>2026-04-06T07:44:40Z</time></trkpt><trkpt lat="39.16984139523967" lon="8.681476068835986"><ele>130.0</ele><time>2026-04-06T07:44:41Z</time></trkpt><trkpt lat="39.169782155223494" lon="8.681409328491952"><ele>130.0</ele><time>2026-04-06T07:44:42Z</time></trkpt><trkpt lat="39.16971110378848" lon="8.681332674193508"><ele>130.0</ele><time>2026-04-06T07:44:43Z</time></trkpt><trkpt lat="39.169636264215555" lon="8.681250879760785"><ele>130.0</ele><time>2026-04-06T07:44:44Z</time></trkpt><trkpt lat="39.16955544985032" lon="8.681156015763284"><ele>127.25</ele><time>2026-04-06T07:44:45Z</time></trkpt><trkpt lat="39.16947211020512" lon="8.681062988623212"><ele>124.5</ele><time>2026-04-06T07:44:46Z</time></trkpt><trkpt lat="39.16938258078904" lon="8.680965879685452"><ele>121.75</ele><time>2026-04-06T07:44:47Z</time></trkpt><trkpt lat="39.16929481764356" lon="8.680852998384301"><ele>119.0</ele><time>2026-04-06T07:44:48Z</time></trkpt><trkpt lat="39.1692035965642" lon="8.680719351719732"><ele>119.0</ele><time>2026-04-06T07:44:49Z</time></trkpt><trkpt lat="39.16912141327558" lon="8.6805663270584"><ele>119.0</ele><time>2026-04-06T07:44:50Z</time></trkpt><trkpt lat="39.169047597788925" lon="8.680415346454634"><ele>119.0</ele><time>2026-04-06T07:44:51Z</time></trkpt><trkpt lat="39.16896257665745" lon="8.680259029290145"><ele>119.0</ele><time>2026-04-06T07:44:52Z</time></trkpt><trkpt lat="39.168871791108174" lon="8.680098356531545"><ele>118.66666666666666</ele><time>2026-04-06T07:44:53Z</time></trkpt><trkpt lat="39.16877344827582" lon="8.679934784954972"><ele>118.33333333333334</ele><time>2026-04-06T07:44:54Z</time></trkpt><trkpt lat="39.16867042101497" lon="8.679775623677148"><ele>118.0</ele><time>2026-04-06T07:44:55Z</time></trkpt><trkpt lat="39.16857160155727" lon="8.67962754787568"><ele>118.0</ele><time>2026-04-06T07:44:56Z</time></trkpt><trkpt lat="39.168472028894236" lon="8.679473895693103"><ele>118.0</ele><time>2026-04-06T07:44:57Z</time></trkpt><trkpt lat="39.16837080929041" lon="8.679313909703957"><ele>118.0</ele><time>2026-04-06T07:44:58Z</time></trkpt><trkpt lat="39.16828224058158" lon="8.67913600030305"><ele>118.66666666666667</ele><time>2026-04-06T07:44:59Z</time></trkpt><trkpt lat="39.16816548858877" lon="8.67897795016666"><ele>119.33333333333334</ele><time>2026-04-06T07:45:00Z</time></trkpt><trkpt lat="39.1680656498227" lon="8.678809209060306"><ele>120.0</ele><time>2026-04-06T07:45:01Z</time></trkpt><trkpt lat="39.167966373764564" lon="8.678645048461151"><ele>120.66666666666666</ele><time>2026-04-06T07:45:02Z</time></trkpt><trkpt lat="39.16786080084649" lon="8.67848546304026"><ele>121.33333333333333</ele><time>2026-04-06T07:45:03Z</time></trkpt><trkpt lat="39.16775387534217" lon="8.67833599587349"><ele>122.0</ele><time>2026-04-06T07:45:04Z</time></trkpt><trkpt lat="39.16765941993449" lon="8.678205454924138"><ele>122.0</ele><time>2026-04-06T07:45:05Z</time></trkpt><trkpt lat="39.167575761624825" lon="8.678088809060105"><ele>121.99999999999999</ele><time>2026-04-06T07:45:06Z</time></trkpt><trkpt lat="39.167522138798205" lon="8.677962212659459"><ele>121.99999999999999</ele><time>2026-04-06T07:45:07Z</time></trkpt><trkpt lat="39.16746029324459" lon="8.677855611762089"><ele>122.0</ele><time>2026-04-06T07:45:08Z</time></trkpt><trkpt lat="39.16744415999772" lon="8.67772377913128"><ele>122.0</ele><time>2026-04-06T07:45:09Z</time></trkpt><trkpt lat="39.1674096963011" lon="8.67762824488337"><ele>122.0</ele><time>2026-04-06T07:45:10Z</time></trkpt><trkpt lat="39.167385373239604" lon="8.677495474650103"><ele>121.99999999999999</ele><time>2026-04-06T07:45:12Z</time></trkpt><trkpt lat="39.16737874459813" lon="8.677413129235337"><ele>121.99999999999999</ele><time>2026-04-06T07:45:51Z</time></trkpt><trkpt lat="39.16735810297395" lon="8.67731858765284"><ele>122.0</ele><time>2026-04-06T07:45:53Z</time></trkpt><trkpt lat="39.16732395523759" lon="8.677176710408514"><ele>122.0</ele><time>2026-04-06T07:45:55Z</time></trkpt><trkpt lat="39.167245644643636" lon="8.677044753828717"><ele>121.83333333333333</ele><time>2026-04-06T07:45:57Z</time></trkpt><trkpt lat="39.16720723620269" lon="8.676968072227249"><ele>121.66666666666666</ele><time>2026-04-06T07:45:58Z</time></trkpt><trkpt lat="39.16716590066633" lon="8.676883410336993"><ele>121.5</ele><time>2026-04-06T07:45:59Z</time></trkpt><trkpt lat="39.16713596675988" lon="8.676775823414435"><ele>121.33333333333334</ele><time>2026-04-06T07:46:00Z</time></trkpt><trkpt lat="39.167092680390745" lon="8.676674844841703"><ele>121.16666666666667</ele><time>2026-04-06T07:46:01Z</time></trkpt><trkpt lat="39.16705766188725" lon="8.676568791745698"><ele>121.0</ele><time>2026-04-06T07:46:02Z</time></trkpt><trkpt lat="39.16703216050557" lon="8.676445584837168"><ele>121.0</ele><time>2026-04-06T07:46:03Z</time></trkpt><trkpt lat="39.16700257744082" lon="8.676308341141604"><ele>121.0</ele><time>2026-04-06T07:46:04Z</time></trkpt><trkpt lat="39.16699275238724" lon="8.676159648295283"><ele>121.0</ele><time>2026-04-06T07:46:05Z</time></trkpt><trkpt lat="39.167009945143704" lon="8.676007027304385"><ele>121.0</ele><time>2026-04-06T07:46:05.999Z</time></trkpt><trkpt lat="39.166996444538164" lon="8.675851502287466"><ele>121.0</ele><time>2026-04-06T07:46:06.999Z</time></trkpt><trkpt lat="39.1669998611079" lon="8.67568866625076"><ele>121.0</ele><time>2026-04-06T07:46:07.999Z</time></trkpt><trkpt lat="39.16700170151076" lon="8.675522837232057"><ele>121.0</ele><time>2026-04-06T07:46:08.999Z</time></trkpt><trkpt lat="39.167001730196304" lon="8.675353481001453"><ele>121.0</ele><time>2026-04-06T07:46:09.999Z</time></trkpt><trkpt lat="39.167000623628695" lon="8.675182636658755"><ele>121.33333333333334</ele><time>2026-04-06T07:46:10.999Z</time></trkpt><trkpt lat="39.1669967887389" lon="8.675009044748066"><ele>121.66666666666666</ele><time>2026-04-06T07:46:11.999Z</time></trkpt><trkpt lat="39.16699378116756" lon="8.67483646377042"><ele>122.0</ele><time>2026-04-06T07:46:12.999Z</time></trkpt><trkpt lat="39.166993746088764" lon="8.674494317144948"><ele>122.5</ele><time>2026-04-06T07:46:14.999Z</time></trkpt><trkpt lat="39.1669901519399" lon="8.674330296645037"><ele>123.0</ele><time>2026-04-06T07:46:15.999Z</time></trkpt><trkpt lat="39.166992114054196" lon="8.674146818934684"><ele>123.5</ele><time>2026-04-06T07:46:16.999Z</time></trkpt><trkpt lat="39.16698840968071" lon="8.673953894565349"><ele>124.0</ele><time>2026-04-06T07:46:17.999Z</time></trkpt><trkpt lat="39.167003415679304" lon="8.673754497080573"><ele>124.0</ele><time>2026-04-06T07:46:18.999Z</time></trkpt><trkpt lat="39.16700363225734" lon="8.673563601230851"><ele>124.0</ele><time>2026-04-06T07:46:19.999Z</time></trkpt><trkpt lat="39.1669879007707" lon="8.673370952838027"><ele>124.0</ele><time>2026-04-06T07:46:20.999Z</time></trkpt><trkpt lat="39.16698849329329" lon="8.673173496847326"><ele>124.0</ele><time>2026-04-06T07:46:21.999Z</time></trkpt><trkpt lat="39.166988907385935" lon="8.67297743130974"><ele>124.0</ele><time>2026-04-06T07:46:22.999Z</time></trkpt><trkpt lat="39.16698687132818" lon="8.672777601637195"><ele>124.0</ele><time>2026-04-06T07:46:23.999Z</time></trkpt><trkpt lat="39.16697754268086" lon="8.672580765806883"><ele>124.0</ele><time>2026-04-06T07:46:24.999Z</time></trkpt><trkpt lat="39.166957125710375" lon="8.67238239998492"><ele>124.0</ele><time>2026-04-06T07:46:25.999Z</time></trkpt><trkpt lat="39.166924500909836" lon="8.672182402203106"><ele>124.0</ele><time>2026-04-06T07:46:26.999Z</time></trkpt><trkpt lat="39.166889496676006" lon="8.671982314108726"><ele>125.0</ele><time>2026-04-06T07:46:27.999Z</time></trkpt><trkpt lat="39.16688856353054" lon="8.671773423010864"><ele>126.0</ele><time>2026-04-06T07:46:28.999Z</time></trkpt><trkpt lat="39.166893829083676" lon="8.671561988869675"><ele>127.0</ele><time>2026-04-06T07:46:29.999Z</time></trkpt><trkpt lat="39.16690155654526" lon="8.671349019190943"><ele>127.0</ele><time>2026-04-06T07:46:30.999Z</time></trkpt><trkpt lat="39.16689679683216" lon="8.671135123118988"><ele>127.0</ele><time>2026-04-06T07:46:31.999Z</time></trkpt><trkpt lat="39.16691041861224" lon="8.670917748462074"><ele>127.0</ele><time>2026-04-06T07:46:32.999Z</time></trkpt><trkpt lat="39.16692644401391" lon="8.670695409748475"><ele>127.33333333333334</ele><time>2026-04-06T07:46:33.999Z</time></trkpt><trkpt lat="39.1669423341722" lon="8.670481217043656"><ele>127.66666666666666</ele><time>2026-04-06T07:46:34.999Z</time></trkpt><trkpt lat="39.166960863268166" lon="8.670264359352071"><ele>128.0</ele><time>2026-04-06T07:46:35.999Z</time></trkpt><trkpt lat="39.16698054620585" lon="8.67004818027968"><ele>128.0</ele><time>2026-04-06T07:46:36.999Z</time></trkpt><trkpt lat="39.16699756068865" lon="8.669823129446874"><ele>128.0</ele><time>2026-04-06T07:46:37.999Z</time></trkpt><trkpt lat="39.167011932604936" lon="8.669598179182131"><ele>128.0</ele><time>2026-04-06T07:46:38.999Z</time></trkpt><trkpt lat="39.1670299257756" lon="8.669370956020762"><ele>127.33333333333333</ele><time>2026-04-06T07:46:39.999Z</time></trkpt><trkpt lat="39.167050279048915" lon="8.669144266647523"><ele>126.66666666666666</ele><time>2026-04-06T07:46:40.999Z</time></trkpt><trkpt lat="39.167067407468686" lon="8.668919573456277"><ele>126.0</ele><time>2026-04-06T07:46:41.999Z</time></trkpt><trkpt lat="39.16708193658292" lon="8.668691607218035"><ele>126.0</ele><time>2026-04-06T07:46:42.999Z</time></trkpt><trkpt lat="39.167092432979665" lon="8.668461234618796"><ele>126.0</ele><time>2026-04-06T07:46:43.999Z</time></trkpt><trkpt lat="39.167096083114664" lon="8.66821623249065"><ele>126.0</ele><time>2026-04-06T07:46:44.999Z</time></trkpt><trkpt lat="39.16708363745068" lon="8.667997582370983"><ele>125.66666666666666</ele><time>2026-04-06T07:46:45.999Z</time></trkpt><trkpt lat="39.16706320615395" lon="8.66776157908615"><ele>125.33333333333333</ele><time>2026-04-06T07:46:46.999Z</time></trkpt><trkpt lat="39.16704251692028" lon="8.667526780384668"><ele>125.0</ele><time>2026-04-06T07:46:47.999Z</time></trkpt><trkpt lat="39.167027184129786" lon="8.667289815128626"><ele>125.0</ele><time>2026-04-06T07:46:48.999Z</time></trkpt><trkpt lat="39.16701403212102" lon="8.667049593838726"><ele>125.0</ele><time>2026-04-06T07:46:50Z</time></trkpt><trkpt lat="39.16699828364159" lon="8.66681245837466"><ele>125.0</ele><time>2026-04-06T07:46:51Z</time></trkpt><trkpt lat="39.16697789877497" lon="8.666570558827381"><ele>125.0</ele><time>2026-04-06T07:46:52Z</time></trkpt><trkpt lat="39.166954644191165" lon="8.66633330498271"><ele>125.0</ele><time>2026-04-06T07:46:53Z</time></trkpt><trkpt lat="39.16692256009412" lon="8.666097272764977"><ele>125.0</ele><time>2026-04-06T07:46:54Z</time></trkpt><trkpt lat="39.16687352992105" lon="8.665861293721298"><ele>125.33333333333333</ele><time>2026-04-06T07:46:55Z</time></trkpt><trkpt lat="39.166810248091686" lon="8.66563097682521"><ele>125.66666666666666</ele><time>2026-04-06T07:46:56Z</time></trkpt><trkpt lat="39.16672510843748" lon="8.665405685032235"><ele>126.0</ele><time>2026-04-06T07:46:57Z</time></trkpt><trkpt lat="39.1666373539222" lon="8.665185846882038"><ele>126.33333333333334</ele><time>2026-04-06T07:46:58Z</time></trkpt><trkpt lat="39.16654796712245" lon="8.66496590420642"><ele>126.66666666666667</ele><time>2026-04-06T07:46:59Z</time></trkpt><trkpt lat="39.1664624803755" lon="8.664744289745663"><ele>127.0</ele><time>2026-04-06T07:47:00Z</time></trkpt><trkpt lat="39.166378948426676" lon="8.664526669038095"><ele>126.66666666666667</ele><time>2026-04-06T07:47:01Z</time></trkpt><trkpt lat="39.166295423143" lon="8.664304430499241"><ele>126.33333333333334</ele><time>2026-04-06T07:47:02Z</time></trkpt><trkpt lat="39.16621246431597" lon="8.66408309544911"><ele>126.0</ele><time>2026-04-06T07:47:03Z</time></trkpt><trkpt lat="39.16613420512776" lon="8.66386228972513"><ele>126.0</ele><time>2026-04-06T07:47:04Z</time></trkpt><trkpt lat="39.166057934600985" lon="8.663631861339569"><ele>126.0</ele><time>2026-04-06T07:47:05Z</time></trkpt><trkpt lat="39.16598616367434" lon="8.66340507016224"><ele>126.0</ele><time>2026-04-06T07:47:06Z</time></trkpt><trkpt lat="39.16591438527207" lon="8.663170383494734"><ele>125.33333333333334</ele><time>2026-04-06T07:47:07Z</time></trkpt><trkpt lat="39.16584563904131" lon="8.662946212086894"><ele>124.66666666666667</ele><time>2026-04-06T07:47:08Z</time></trkpt><trkpt lat="39.16577892780619" lon="8.662734535039876"><ele>124.0</ele><time>2026-04-06T07:47:09Z</time></trkpt><trkpt lat="39.165714765806534" lon="8.662532957243632"><ele>123.5</ele><time>2026-04-06T07:47:10Z</time></trkpt><trkpt lat="39.16565367533046" lon="8.662336848990284"><ele>123.0</ele><time>2026-04-06T07:47:11Z</time></trkpt><trkpt lat="39.16560130236053" lon="8.662164884598429"><ele>122.5</ele><time>2026-04-06T07:47:12Z</time></trkpt><trkpt lat="39.16555057168116" lon="8.662004734436096"><ele>122.0</ele><time>2026-04-06T07:47:13Z</time></trkpt><trkpt lat="39.16551983122158" lon="8.661851471511172"><ele>122.0</ele><time>2026-04-06T07:47:14Z</time></trkpt><trkpt lat="39.165479138594556" lon="8.661719616819873"><ele>122.0</ele><time>2026-04-06T07:47:15Z</time></trkpt><trkpt lat="39.16544222991128" lon="8.661600023269798"><ele>122.0</ele><time>2026-04-06T07:47:16Z</time></trkpt><trkpt lat="39.165322786868245" lon="8.661521528494083"><ele>122.0</ele><time>2026-04-06T07:47:17Z</time></trkpt><trkpt lat="39.16524305010294" lon="8.66139123153326"><ele>122.0</ele><time>2026-04-06T07:47:18Z</time></trkpt><trkpt lat="39.16515996544165" lon="8.661272416908604"><ele>122.0</ele><time>2026-04-06T07:47:19Z</time></trkpt><trkpt lat="39.16506828336794" lon="8.661148470445758"><ele>122.0</ele><time>2026-04-06T07:47:20Z</time></trkpt><trkpt lat="39.16496766409476" lon="8.66103038563146"><ele>122.0</ele><time>2026-04-06T07:47:21Z</time></trkpt><trkpt lat="39.16486528445222" lon="8.660912453107116"><ele>121.5</ele><time>2026-04-06T07:47:21.999Z</time></trkpt><trkpt lat="39.16476158770449" lon="8.66079275025764"><ele>121.0</ele><time>2026-04-06T07:47:22.999Z</time></trkpt><trkpt lat="39.16466374866608" lon="8.6606710557375"><ele>120.5</ele><time>2026-04-06T07:47:23.999Z</time></trkpt><trkpt lat="39.16457142982412" lon="8.660552253782074"><ele>120.0</ele><time>2026-04-06T07:47:24.999Z</time></trkpt><trkpt lat="39.16447757634187" lon="8.660457208772888"><ele>120.0</ele><time>2026-04-06T07:47:25.999Z</time></trkpt><trkpt lat="39.16440024813768" lon="8.660367470150241"><ele>120.0</ele><time>2026-04-06T07:47:26.999Z</time></trkpt><trkpt lat="39.164333507579066" lon="8.660273768888725"><ele>120.0</ele><time>2026-04-06T07:47:27.999Z</time></trkpt><trkpt lat="39.16424997243869" lon="8.6602229361474"><ele>120.0</ele><time>2026-04-06T07:47:28.999Z</time></trkpt><trkpt lat="39.16418349702217" lon="8.660182282207412"><ele>120.0</ele><time>2026-04-06T07:47:29.999Z</time></trkpt><trkpt lat="39.164092054835" lon="8.660121479751533"><ele>119.83333333333333</ele><time>2026-04-06T07:47:31.999Z</time></trkpt><trkpt lat="39.16403566604864" lon="8.6600763665044"><ele>119.66666666666666</ele><time>2026-04-06T07:47:33.999Z</time></trkpt><trkpt lat="39.16396799274842" lon="8.660060725316889"><ele>119.5</ele><time>2026-04-06T07:52:21.999Z</time></trkpt><trkpt lat="39.16391397960068" lon="8.659966769301827"><ele>119.33333333333333</ele><time>2026-04-06T07:52:29.999Z</time></trkpt><trkpt lat="39.16384377972492" lon="8.659899406041172"><ele>119.16666666666666</ele><time>2026-04-06T07:52:31.999Z</time></trkpt><trkpt lat="39.16376131772725" lon="8.659817307410874"><ele>119.0</ele><time>2026-04-06T07:52:33.999Z</time></trkpt><trkpt lat="39.16365572370406" lon="8.65973459761906"><ele>118.66666666666666</ele><time>2026-04-06T07:52:35.999Z</time></trkpt><trkpt lat="39.163605729897036" lon="8.659678194820497"><ele>118.33333333333333</ele><time>2026-04-06T07:52:36.999Z</time></trkpt><trkpt lat="39.16355084870558" lon="8.659623525004552"><ele>118.0</ele><time>2026-04-06T07:52:37.999Z</time></trkpt><trkpt lat="39.163500903760664" lon="8.65955849856184"><ele>117.66666666666666</ele><time>2026-04-06T07:52:38.999Z</time></trkpt><trkpt lat="39.16342794707156" lon="8.659542354548325"><ele>117.33333333333333</ele><time>2026-04-06T07:52:39.999Z</time></trkpt><trkpt lat="39.1633639632816" lon="8.65951052559913"><ele>117.0</ele><time>2026-04-06T07:52:40.999Z</time></trkpt><trkpt lat="39.16324669170314" lon="8.65945626319152"><ele>116.71428571428572</ele><time>2026-04-06T07:52:42.998Z</time></trkpt><trkpt lat="39.16318245213029" lon="8.659436479433413"><ele>116.42857142857144</ele><time>2026-04-06T07:52:43.998Z</time></trkpt><trkpt lat="39.163119091147195" lon="8.659412842017542"><ele>116.14285714285714</ele><time>2026-04-06T07:52:44.998Z</time></trkpt><trkpt lat="39.16305858326823" lon="8.65938107721384"><ele>115.85714285714286</ele><time>2026-04-06T07:52:45.998Z</time></trkpt><trkpt lat="39.16299489408941" lon="8.65934386032417"><ele>115.57142857142857</ele><time>2026-04-06T07:52:46.998Z</time></trkpt><trkpt lat="39.16292944724748" lon="8.659304358659252"><ele>115.28571428571428</ele><time>2026-04-06T07:52:47.998Z</time></trkpt><trkpt lat="39.162865007806914" lon="8.659262844253387"><ele>114.99999999999999</ele><time>2026-04-06T07:52:48.998Z</time></trkpt><trkpt lat="39.16279970131991" lon="8.659232546415067"><ele>115.0</ele><time>2026-04-06T07:52:49.998Z</time></trkpt><trkpt lat="39.16274943600629" lon="8.659177446772155"><ele>115.0</ele><time>2026-04-06T07:52:50.998Z</time></trkpt><trkpt lat="39.16265873979644" lon="8.659081021408927"><ele>115.0</ele><time>2026-04-06T07:52:52.998Z</time></trkpt><trkpt lat="39.162573952412224" lon="8.658970383849633"><ele>115.0</ele><time>2026-04-06T07:52:54.999Z</time></trkpt><trkpt lat="39.16254269471709" lon="8.658889284813874"><ele>115.0</ele><time>2026-04-06T07:52:55.999Z</time></trkpt><trkpt lat="39.1625094836856" lon="8.658799707375053"><ele>115.00000000000001</ele><time>2026-04-06T07:52:56.999Z</time></trkpt><trkpt lat="39.16245729455059" lon="8.658722610662268"><ele>115.0</ele><time>2026-04-06T07:52:57.999Z</time></trkpt><trkpt lat="39.16240169979194" lon="8.658639677164661"><ele>115.0</ele><time>2026-04-06T07:52:58.999Z</time></trkpt><trkpt lat="39.16235435008316" lon="8.65854938487441"><ele>115.0</ele><time>2026-04-06T07:52:59.999Z</time></trkpt><trkpt lat="39.16229238468362" lon="8.658477443493156"><ele>115.00000000000001</ele><time>2026-04-06T07:53:00.999Z</time></trkpt><trkpt lat="39.162222926725356" lon="8.658423267657339"><ele>115.0</ele><time>2026-04-06T07:53:01.999Z</time></trkpt><trkpt lat="39.16218007993603" lon="8.658342488147962"><ele>114.33333333333334</ele><time>2026-04-06T07:53:02.999Z</time></trkpt><trkpt lat="39.16212424732147" lon="8.658281645961244"><ele>113.66666666666667</ele><time>2026-04-06T07:53:03.999Z</time></trkpt><trkpt lat="39.1620655038436" lon="8.658227942656506"><ele>113.0</ele><time>2026-04-06T07:53:04.999Z</time></trkpt><trkpt lat="39.16199663780124" lon="8.658174216713933"><ele>112.33333333333334</ele><time>2026-04-06T07:53:05.999Z</time></trkpt><trkpt lat="39.16191785669808" lon="8.658122298409182"><ele>111.66666666666667</ele><time>2026-04-06T07:53:06.999Z</time></trkpt><trkpt lat="39.16183950520774" lon="8.658078464564333"><ele>111.0</ele><time>2026-04-06T07:53:07.999Z</time></trkpt><trkpt lat="39.161750060013674" lon="8.658054778755927"><ele>111.0</ele><time>2026-04-06T07:53:08.999Z</time></trkpt><trkpt lat="39.16165870339101" lon="8.658065328100328"><ele>111.0</ele><time>2026-04-06T07:53:09.999Z</time></trkpt><trkpt lat="39.161566317549415" lon="8.658038624619795"><ele>111.0</ele><time>2026-04-06T07:53:10.999Z</time></trkpt><trkpt lat="39.161486173176684" lon="8.658028257350047"><ele>111.0</ele><time>2026-04-06T07:53:11.999Z</time></trkpt><trkpt lat="39.16137712365923" lon="8.658013214342528"><ele>111.0</ele><time>2026-04-06T07:53:13.999Z</time></trkpt><trkpt lat="39.161312330462636" lon="8.657981288190209"><ele>111.0</ele><time>2026-04-06T07:53:15.999Z</time></trkpt><trkpt lat="39.16132391052079" lon="8.657803205524441"><ele>111.0</ele><time>2026-04-06T07:53:17.999Z</time></trkpt><trkpt lat="39.16131728968666" lon="8.657719152789287"><ele>111.0</ele><time>2026-04-06T07:53:18.999Z</time></trkpt><trkpt lat="39.1613037646486" lon="8.657586763950501"><ele>111.0</ele><time>2026-04-06T07:53:20.999Z</time></trkpt><trkpt lat="39.16136077859578" lon="8.65749244023924"><ele>111.0</ele><time>2026-04-06T07:53:22.999Z</time></trkpt><trkpt lat="39.161453495677385" lon="8.657402112608251"><ele>111.0</ele><time>2026-04-06T07:53:24.999Z</time></trkpt><trkpt lat="39.16150716908411" lon="8.657331287388674"><ele>110.6</ele><time>2026-04-06T07:53:25.999Z</time></trkpt><trkpt lat="39.16155908057405" lon="8.657241051708896"><ele>110.19999999999999</ele><time>2026-04-06T07:53:26.999Z</time></trkpt><trkpt lat="39.161609100588755" lon="8.657142761248904"><ele>109.80000000000001</ele><time>2026-04-06T07:53:27.999Z</time></trkpt><trkpt lat="39.1616495872434" lon="8.657026764173532"><ele>109.4</ele><time>2026-04-06T07:53:28.999Z</time></trkpt><trkpt lat="39.1616843163922" lon="8.656911492460807"><ele>109.0</ele><time>2026-04-06T07:53:29.999Z</time></trkpt><trkpt lat="39.16172071546434" lon="8.656782913353423"><ele>109.0</ele><time>2026-04-06T07:53:30.999Z</time></trkpt><trkpt lat="39.16175502199389" lon="8.656645156983796"><ele>109.0</ele><time>2026-04-06T07:53:31.999Z</time></trkpt><trkpt lat="39.16177461964448" lon="8.656492333349197"><ele>109.0</ele><time>2026-04-06T07:53:32.999Z</time></trkpt><trkpt lat="39.1617809159707" lon="8.65633213765204"><ele>109.0</ele><time>2026-04-06T07:53:33.999Z</time></trkpt><trkpt lat="39.161786797878754" lon="8.656173389526177"><ele>109.5</ele><time>2026-04-06T07:53:34.999Z</time></trkpt><trkpt lat="39.16178923298321" lon="8.656018091961057"><ele>110.0</ele><time>2026-04-06T07:53:35.999Z</time></trkpt><trkpt lat="39.16178042155267" lon="8.655860016990804"><ele>110.5</ele><time>2026-04-06T07:53:36.999Z</time></trkpt><trkpt lat="39.16176141753281" lon="8.65570379178076"><ele>111.0</ele><time>2026-04-06T07:53:37.999Z</time></trkpt><trkpt lat="39.161734097669715" lon="8.655558048951994"><ele>111.0</ele><time>2026-04-06T07:53:38.999Z</time></trkpt><trkpt lat="39.161709314512535" lon="8.655433784582867"><ele>111.0</ele><time>2026-04-06T07:53:39.999Z</time></trkpt><trkpt lat="39.16168921268382" lon="8.655342425949721"><ele>111.0</ele><time>2026-04-06T07:53:40.999Z</time></trkpt><trkpt lat="39.161703441159204" lon="8.655207404618501"><ele>111.0</ele><time>2026-04-06T07:53:42.999Z</time></trkpt><trkpt lat="39.16183061800417" lon="8.655128309668383"><ele>111.0</ele><time>2026-04-06T07:53:44.999Z</time></trkpt><trkpt lat="39.16191151217276" lon="8.65506155128467"><ele>111.4</ele><time>2026-04-06T07:53:45.999Z</time></trkpt><trkpt lat="39.162010599214476" lon="8.654999687547361"><ele>111.8</ele><time>2026-04-06T07:53:46.999Z</time></trkpt><trkpt lat="39.16211802921305" lon="8.654930176433167"><ele>112.20000000000002</ele><time>2026-04-06T07:53:47.999Z</time></trkpt><trkpt lat="39.162199374347345" lon="8.654867118220002"><ele>112.60000000000001</ele><time>2026-04-06T07:53:48.999Z</time></trkpt><trkpt lat="39.162261590463466" lon="8.654818110174979"><ele>113.0</ele><time>2026-04-06T07:53:49.999Z</time></trkpt><trkpt lat="39.16232560762142" lon="8.654761714256306"><ele>113.0</ele><time>2026-04-06T07:53:51.999Z</time></trkpt><trkpt lat="39.16232498408782" lon="8.654588018226216"><ele>113.00000000000001</ele><time>2026-04-06T07:53:59.999Z</time></trkpt><trkpt lat="39.16227923984387" lon="8.654478070625832"><ele>113.00000000000001</ele><time>2026-04-06T07:54:00.999Z</time></trkpt><trkpt lat="39.16221452123873" lon="8.654381755791377"><ele>113.0</ele><time>2026-04-06T07:54:01.999Z</time></trkpt><trkpt lat="39.162162008503714" lon="8.654259739686339"><ele>113.0</ele><time>2026-04-06T07:54:02.999Z</time></trkpt><trkpt lat="39.16210299184451" lon="8.654118500015311"><ele>113.0</ele><time>2026-04-06T07:54:03.999Z</time></trkpt><trkpt lat="39.16204286841668" lon="8.65396399663385"><ele>113.0</ele><time>2026-04-06T07:54:04.999Z</time></trkpt><trkpt lat="39.16198789877425" lon="8.65380194655445"><ele>113.0</ele><time>2026-04-06T07:54:05.999Z</time></trkpt><trkpt lat="39.161935797603995" lon="8.653622758973798"><ele>113.0</ele><time>2026-04-06T07:54:06.999Z</time></trkpt><trkpt lat="39.16188027407025" lon="8.653417478291908"><ele>113.33333333333333</ele><time>2026-04-06T07:54:07.999Z</time></trkpt><trkpt lat="39.16181773673877" lon="8.653200344729628"><ele>113.66666666666666</ele><time>2026-04-06T07:54:08.999Z</time></trkpt><trkpt lat="39.16175983426388" lon="8.653000333896376"><ele>114.0</ele><time>2026-04-06T07:54:09.999Z</time></trkpt><trkpt lat="39.16169972020218" lon="8.652791486861027"><ele>113.66666666666666</ele><time>2026-04-06T07:54:10.999Z</time></trkpt><trkpt lat="39.161641293611936" lon="8.652577238193821"><ele>113.33333333333333</ele><time>2026-04-06T07:54:11.999Z</time></trkpt><trkpt lat="39.16158243150326" lon="8.652358766061532"><ele>113.0</ele><time>2026-04-06T07:54:12.999Z</time></trkpt><trkpt lat="39.161523529241514" lon="8.652144091418954"><ele>111.66666666666666</ele><time>2026-04-06T07:54:13.999Z</time></trkpt><trkpt lat="39.16146298391988" lon="8.651924746839951"><ele>110.33333333333334</ele><time>2026-04-06T07:54:14.999Z</time></trkpt><trkpt lat="39.1614027335347" lon="8.65169852739426"><ele>109.0</ele><time>2026-04-06T07:54:15.999Z</time></trkpt><trkpt lat="39.161338686386195" lon="8.651463466351485"><ele>109.0</ele><time>2026-04-06T07:54:16.999Z</time></trkpt><trkpt lat="39.16127489119021" lon="8.65122989698545"><ele>109.0</ele><time>2026-04-06T07:54:17.999Z</time></trkpt><trkpt lat="39.161204289358515" lon="8.650981571569602"><ele>109.0</ele><time>2026-04-06T07:54:18.999Z</time></trkpt><trkpt lat="39.16112880571948" lon="8.650719039159258"><ele>107.66666666666667</ele><time>2026-04-06T07:54:19.999Z</time></trkpt><trkpt lat="39.16105230405095" lon="8.650449311157391"><ele>106.33333333333334</ele><time>2026-04-06T07:54:20.999Z</time></trkpt><trkpt lat="39.16097959191863" lon="8.650188478023058"><ele>105.0</ele><time>2026-04-06T07:54:21.999Z</time></trkpt><trkpt lat="39.16090744769184" lon="8.649927828922994"><ele>105.0</ele><time>2026-04-06T07:54:22.999Z</time></trkpt><trkpt lat="39.160835636933555" lon="8.649664755209633"><ele>105.0</ele><time>2026-04-06T07:54:23.999Z</time></trkpt><trkpt lat="39.16076405939801" lon="8.649398753814472"><ele>105.0</ele><time>2026-04-06T07:54:24.999Z</time></trkpt><trkpt lat="39.16069279033982" lon="8.64913402594277"><ele>105.0</ele><time>2026-04-06T07:54:25.999Z</time></trkpt><trkpt lat="39.16062573496867" lon="8.648865671466565"><ele>105.0</ele><time>2026-04-06T07:54:26.999Z</time></trkpt><trkpt lat="39.16057157588592" lon="8.648593726573084"><ele>105.0</ele><time>2026-04-06T07:54:27.999Z</time></trkpt><trkpt lat="39.16053126025769" lon="8.648320106736453"><ele>105.0</ele><time>2026-04-06T07:54:28.999Z</time></trkpt><trkpt lat="39.160494878779446" lon="8.648042244419964"><ele>105.0</ele><time>2026-04-06T07:54:29.999Z</time></trkpt><trkpt lat="39.16045949582388" lon="8.64776612299985"><ele>105.0</ele><time>2026-04-06T07:54:30.999Z</time></trkpt><trkpt lat="39.16042010178948" lon="8.647489178491544"><ele>105.66666666666666</ele><time>2026-04-06T07:54:31.999Z</time></trkpt><trkpt lat="39.16037440933084" lon="8.647214705739032"><ele>106.33333333333333</ele><time>2026-04-06T07:54:32.999Z</time></trkpt><trkpt lat="39.16030812458998" lon="8.646951042399959"><ele>107.0</ele><time>2026-04-06T07:54:33.999Z</time></trkpt><trkpt lat="39.16022617618452" lon="8.646696367842791"><ele>107.66666666666666</ele><time>2026-04-06T07:54:34.999Z</time></trkpt><trkpt lat="39.160143001384725" lon="8.646467145085646"><ele>108.33333333333334</ele><time>2026-04-06T07:54:35.999Z</time></trkpt><trkpt lat="39.16007305077384" lon="8.64625285472827"><ele>109.0</ele><time>2026-04-06T07:54:36.999Z</time></trkpt><trkpt lat="39.160013115041096" lon="8.64605387193345"><ele>109.33333333333334</ele><time>2026-04-06T07:54:37.999Z</time></trkpt><trkpt lat="39.159969451248905" lon="8.645865009965707"><ele>109.66666666666666</ele><time>2026-04-06T07:54:38.999Z</time></trkpt><trkpt lat="39.15994954062296" lon="8.64567136920586"><ele>110.0</ele><time>2026-04-06T07:54:39.999Z</time></trkpt><trkpt lat="39.1599962841163" lon="8.645489602563739"><ele>108.66666666666666</ele><time>2026-04-06T07:54:40.999Z</time></trkpt><trkpt lat="39.16003276660892" lon="8.645292715447773"><ele>107.33333333333334</ele><time>2026-04-06T07:54:41.999Z</time></trkpt><trkpt lat="39.16014329652944" lon="8.645117155816383"><ele>106.0</ele><time>2026-04-06T07:54:42.999Z</time></trkpt><trkpt lat="39.16022530278404" lon="8.644905606163274"><ele>106.0</ele><time>2026-04-06T07:54:43.999Z</time></trkpt><trkpt lat="39.160324198840605" lon="8.64469860960963"><ele>106.0</ele><time>2026-04-06T07:54:44.999Z</time></trkpt><trkpt lat="39.160422558563766" lon="8.644480533830908"><ele>106.0</ele><time>2026-04-06T07:54:45.999Z</time></trkpt><trkpt lat="39.160518774584695" lon="8.644265685881301"><ele>106.0</ele><time>2026-04-06T07:54:46.999Z</time></trkpt><trkpt lat="39.16061906634008" lon="8.644053580215349"><ele>106.0</ele><time>2026-04-06T07:54:47.999Z</time></trkpt><trkpt lat="39.1607187305066" lon="8.643833843892686"><ele>106.0</ele><time>2026-04-06T07:54:48.998Z</time></trkpt><trkpt lat="39.16082022690686" lon="8.643611742953668"><ele>106.0</ele><time>2026-04-06T07:54:49.998Z</time></trkpt><trkpt lat="39.160922776407666" lon="8.643388442693418"><ele>106.0</ele><time>2026-04-06T07:54:50.998Z</time></trkpt><trkpt lat="39.16101532682223" lon="8.643188153472021"><ele>106.0</ele><time>2026-04-06T07:54:51.998Z</time></trkpt><trkpt lat="39.16110010387241" lon="8.642999486896692"><ele>106.0</ele><time>2026-04-06T07:54:52.998Z</time></trkpt><trkpt lat="39.16116898141305" lon="8.64281689075452"><ele>106.0</ele><time>2026-04-06T07:54:53.998Z</time></trkpt><trkpt lat="39.161212068938156" lon="8.642638543116549"><ele>106.0</ele><time>2026-04-06T07:54:54.998Z</time></trkpt><trkpt lat="39.16122991063306" lon="8.642450475051179"><ele>106.0</ele><time>2026-04-06T07:54:55.998Z</time></trkpt><trkpt lat="39.16123201149758" lon="8.642267260711757"><ele>105.8</ele><time>2026-04-06T07:54:56.998Z</time></trkpt><trkpt lat="39.16122939122966" lon="8.642099873617504"><ele>105.6</ele><time>2026-04-06T07:54:57.998Z</time></trkpt><trkpt lat="39.16123004403789" lon="8.641954278740771"><ele>105.4</ele><time>2026-04-06T07:54:58.998Z</time></trkpt><trkpt lat="39.16123131674833" lon="8.64182374304582"><ele>105.2</ele><time>2026-04-06T07:54:59.998Z</time></trkpt><trkpt lat="39.161229912589576" lon="8.641705680810796"><ele>105.0</ele><time>2026-04-06T07:55:00.998Z</time></trkpt><trkpt lat="39.161226249776576" lon="8.641572117820305"><ele>104.75</ele><time>2026-04-06T07:55:01.998Z</time></trkpt><trkpt lat="39.16122756322976" lon="8.641426355374682"><ele>104.5</ele><time>2026-04-06T07:55:02.998Z</time></trkpt><trkpt lat="39.16123032507192" lon="8.641265459363092"><ele>104.25</ele><time>2026-04-06T07:55:03.998Z</time></trkpt><trkpt lat="39.16122974634716" lon="8.641084229127774"><ele>104.0</ele><time>2026-04-06T07:55:04.998Z</time></trkpt><trkpt lat="39.16122708484506" lon="8.640882691149313"><ele>104.0</ele><time>2026-04-06T07:55:05.998Z</time></trkpt><trkpt lat="39.16122720346804" lon="8.64066340636367"><ele>104.0</ele><time>2026-04-06T07:55:06.998Z</time></trkpt><trkpt lat="39.16122158133965" lon="8.640451332716086"><ele>104.0</ele><time>2026-04-06T07:55:07.998Z</time></trkpt><trkpt lat="39.16119025769487" lon="8.640240987725788"><ele>103.33333333333333</ele><time>2026-04-06T07:55:08.998Z</time></trkpt><trkpt lat="39.16112497588408" lon="8.640016497498234"><ele>102.66666666666666</ele><time>2026-04-06T07:55:09.999Z</time></trkpt><trkpt lat="39.161034054248624" lon="8.63978390872607"><ele>102.0</ele><time>2026-04-06T07:55:10.999Z</time></trkpt><trkpt lat="39.160935630796786" lon="8.639556249300403"><ele>100.66666666666666</ele><time>2026-04-06T07:55:11.999Z</time></trkpt><trkpt lat="39.160842463001806" lon="8.639325228595746"><ele>99.33333333333333</ele><time>2026-04-06T07:55:12.999Z</time></trkpt><trkpt lat="39.16075546260877" lon="8.639095240637003"><ele>98.0</ele><time>2026-04-06T07:55:13.999Z</time></trkpt><trkpt lat="39.16066358597571" lon="8.638856703258341"><ele>97.33333333333333</ele><time>2026-04-06T07:55:14.999Z</time></trkpt><trkpt lat="39.16056883697872" lon="8.638614202795068"><ele>96.66666666666666</ele><time>2026-04-06T07:55:15.999Z</time></trkpt><trkpt lat="39.16047395078631" lon="8.638373172121074"><ele>96.0</ele><time>2026-04-06T07:55:16.999Z</time></trkpt><trkpt lat="39.1603754996778" lon="8.63812755864624"><ele>96.0</ele><time>2026-04-06T07:55:17.999Z</time></trkpt><trkpt lat="39.160276423572235" lon="8.637880129357194"><ele>96.0</ele><time>2026-04-06T07:55:18.999Z</time></trkpt><trkpt lat="39.16017721071183" lon="8.637628044515342"><ele>96.0</ele><time>2026-04-06T07:55:19.999Z</time></trkpt><trkpt lat="39.160074733504295" lon="8.637375031914512"><ele>95.66666666666667</ele><time>2026-04-06T07:55:20.999Z</time></trkpt><trkpt lat="39.15996597125676" lon="8.637124729963869"><ele>95.33333333333334</ele><time>2026-04-06T07:55:21.999Z</time></trkpt><trkpt lat="39.159848743813704" lon="8.636885552399741"><ele>95.0</ele><time>2026-04-06T07:55:22.999Z</time></trkpt><trkpt lat="39.159720776745985" lon="8.636657081984918"><ele>95.0</ele><time>2026-04-06T07:55:23.999Z</time></trkpt><trkpt lat="39.15960041411774" lon="8.636455411016799"><ele>95.0</ele><time>2026-04-06T07:55:24.999Z</time></trkpt><trkpt lat="39.15949803175694" lon="8.636275727044575"><ele>95.0</ele><time>2026-04-06T07:55:25.999Z</time></trkpt><trkpt lat="39.15940685585054" lon="8.636110587979454"><ele>94.0</ele><time>2026-04-06T07:55:26.999Z</time></trkpt><trkpt lat="39.15935341625229" lon="8.635937901734891"><ele>93.0</ele><time>2026-04-06T07:55:27.999Z</time></trkpt><trkpt lat="39.15932977434169" lon="8.635759390239121"><ele>92.0</ele><time>2026-04-06T07:55:28.999Z</time></trkpt><trkpt lat="39.15934220717271" lon="8.635561434308476"><ele>91.0</ele><time>2026-04-06T07:55:29.999Z</time></trkpt><trkpt lat="39.15945213017788" lon="8.635132746298842"><ele>91.0</ele><time>2026-04-06T07:55:31.999Z</time></trkpt><trkpt lat="39.15950386747549" lon="8.6349070835794"><ele>91.0</ele><time>2026-04-06T07:55:32.999Z</time></trkpt><trkpt lat="39.15956090746383" lon="8.634665997353434"><ele>91.0</ele><time>2026-04-06T07:55:33.999Z</time></trkpt><trkpt lat="39.15962261048046" lon="8.634419429737854"><ele>91.0</ele><time>2026-04-06T07:55:34.999Z</time></trkpt><trkpt lat="39.15968582266962" lon="8.634165885348846"><ele>91.0</ele><time>2026-04-06T07:55:35.999Z</time></trkpt><trkpt lat="39.15974775621905" lon="8.633910686641192"><ele>91.0</ele><time>2026-04-06T07:55:36.999Z</time></trkpt><trkpt lat="39.159808761438356" lon="8.63366665578554"><ele>92.0</ele><time>2026-04-06T07:55:37.999Z</time></trkpt><trkpt lat="39.15987524670355" lon="8.633413785506484"><ele>93.0</ele><time>2026-04-06T07:55:38.999Z</time></trkpt><trkpt lat="39.15993860236242" lon="8.633156143698038"><ele>94.0</ele><time>2026-04-06T07:55:39.999Z</time></trkpt><trkpt lat="39.160002995783294" lon="8.632894373807527"><ele>94.66666666666666</ele><time>2026-04-06T07:55:40.999Z</time></trkpt><trkpt lat="39.16006801181851" lon="8.63262649932119"><ele>95.33333333333333</ele><time>2026-04-06T07:55:41.999Z</time></trkpt><trkpt lat="39.16013545174898" lon="8.632354702685305"><ele>96.0</ele><time>2026-04-06T07:55:42.999Z</time></trkpt><trkpt lat="39.16020486780655" lon="8.632080105475604"><ele>96.5</ele><time>2026-04-06T07:55:43.999Z</time></trkpt><trkpt lat="39.16027484524046" lon="8.631805881301839"><ele>97.0</ele><time>2026-04-06T07:55:44.999Z</time></trkpt><trkpt lat="39.16034324193537" lon="8.631521361892514"><ele>97.0</ele><time>2026-04-06T07:55:45.999Z</time></trkpt><trkpt lat="39.160410440305476" lon="8.631239624594388"><ele>97.0</ele><time>2026-04-06T07:55:46.999Z</time></trkpt><trkpt lat="39.160480123667845" lon="8.630955135690833"><ele>97.0</ele><time>2026-04-06T07:55:47.999Z</time></trkpt><trkpt lat="39.160551405972" lon="8.630664298289158"><ele>97.0</ele><time>2026-04-06T07:55:48.999Z</time></trkpt><trkpt lat="39.16062322402815" lon="8.630379602106617"><ele>96.0</ele><time>2026-04-06T07:55:49.999Z</time></trkpt><trkpt lat="39.16069387588287" lon="8.630084851241472"><ele>95.0</ele><time>2026-04-06T07:55:50.999Z</time></trkpt><trkpt lat="39.16076485702461" lon="8.629792977685883"><ele>97.0</ele><time>2026-04-06T07:55:51.999Z</time></trkpt><trkpt lat="39.160835138877765" lon="8.629503746951372"><ele>99.0</ele><time>2026-04-06T07:55:52.999Z</time></trkpt><trkpt lat="39.160909189034534" lon="8.629219074663855"><ele>99.0</ele><time>2026-04-06T07:55:53.999Z</time></trkpt><trkpt lat="39.160980984448145" lon="8.628926540262581"><ele>99.0</ele><time>2026-04-06T07:55:54.999Z</time></trkpt><trkpt lat="39.161053748899526" lon="8.628637766243695"><ele>99.0</ele><time>2026-04-06T07:55:55.999Z</time></trkpt><trkpt lat="39.16112608023175" lon="8.628342994095286"><ele>99.0</ele><time>2026-04-06T07:55:56.999Z</time></trkpt><trkpt lat="39.16119936654166" lon="8.628052772729825"><ele>98.5</ele><time>2026-04-06T07:55:57.999Z</time></trkpt><trkpt lat="39.161271050426585" lon="8.627759380560432"><ele>98.0</ele><time>2026-04-06T07:55:58.999Z</time></trkpt><trkpt lat="39.16134420334198" lon="8.627465365874704"><ele>98.0</ele><time>2026-04-06T07:55:59.999Z</time></trkpt><trkpt lat="39.16141681350495" lon="8.62717113698024"><ele>98.0</ele><time>2026-04-06T07:56:00.999Z</time></trkpt><trkpt lat="39.16149082566569" lon="8.6268765863265"><ele>98.0</ele><time>2026-04-06T07:56:01.999Z</time></trkpt><trkpt lat="39.16156546079041" lon="8.626575135399294"><ele>98.0</ele><time>2026-04-06T07:56:02.999Z</time></trkpt><trkpt lat="39.16164281182987" lon="8.626273692727139"><ele>96.0</ele><time>2026-04-06T07:56:03.999Z</time></trkpt><trkpt lat="39.161720196656205" lon="8.62596688826693"><ele>94.0</ele><time>2026-04-06T07:56:04.999Z</time></trkpt><trkpt lat="39.16179709516603" lon="8.625662832082456"><ele>94.0</ele><time>2026-04-06T07:56:05.999Z</time></trkpt><trkpt lat="39.161870107741" lon="8.625360821800696"><ele>94.0</ele><time>2026-04-06T07:56:06.999Z</time></trkpt><trkpt lat="39.161945636403864" lon="8.625062439996237"><ele>93.0</ele><time>2026-04-06T07:56:07.999Z</time></trkpt><trkpt lat="39.16201845296565" lon="8.624762142882851"><ele>92.0</ele><time>2026-04-06T07:56:08.999Z</time></trkpt><trkpt lat="39.16209075030872" lon="8.624467964748042"><ele>90.5</ele><time>2026-04-06T07:56:09.999Z</time></trkpt><trkpt lat="39.162162322160434" lon="8.624176430594416"><ele>89.0</ele><time>2026-04-06T07:56:10.999Z</time></trkpt><trkpt lat="39.162234777540974" lon="8.62388832291398"><ele>89.0</ele><time>2026-04-06T07:56:11.999Z</time></trkpt><trkpt lat="39.162304691360696" lon="8.623609634226"><ele>89.0</ele><time>2026-04-06T07:56:12.999Z</time></trkpt><trkpt lat="39.16237538342017" lon="8.623330608430674"><ele>90.66666666666667</ele><time>2026-04-06T07:56:13.999Z</time></trkpt><trkpt lat="39.16244483841206" lon="8.623054227993666"><ele>92.33333333333333</ele><time>2026-04-06T07:56:14.999Z</time></trkpt><trkpt lat="39.16251242078594" lon="8.622789853848362"><ele>94.0</ele><time>2026-04-06T07:56:15.999Z</time></trkpt><trkpt lat="39.16256901083709" lon="8.622538898630122"><ele>94.0</ele><time>2026-04-06T07:56:16.999Z</time></trkpt><trkpt lat="39.16259916923905" lon="8.62228183313823"><ele>94.0</ele><time>2026-04-06T07:56:17.999Z</time></trkpt><trkpt lat="39.16259218191985" lon="8.622005043488802"><ele>94.0</ele><time>2026-04-06T07:56:18.999Z</time></trkpt><trkpt lat="39.16255054488561" lon="8.621737440458812"><ele>93.0</ele><time>2026-04-06T07:56:19.999Z</time></trkpt><trkpt lat="39.162500148746496" lon="8.621456484438266"><ele>92.0</ele><time>2026-04-06T07:56:20.999Z</time></trkpt><trkpt lat="39.162456424318364" lon="8.62117363115576"><ele>91.0</ele><time>2026-04-06T07:56:21.999Z</time></trkpt><trkpt lat="39.16242206083191" lon="8.620891584692691"><ele>90.33333333333333</ele><time>2026-04-06T07:56:22.999Z</time></trkpt><trkpt lat="39.16239942383636" lon="8.620614172857213"><ele>89.66666666666667</ele><time>2026-04-06T07:56:23.999Z</time></trkpt><trkpt lat="39.162398517952504" lon="8.620337420072875"><ele>89.0</ele><time>2026-04-06T07:56:24.999Z</time></trkpt><trkpt lat="39.1624274413832" lon="8.620057676381741"><ele>89.0</ele><time>2026-04-06T07:56:25.999Z</time></trkpt><trkpt lat="39.16247817230189" lon="8.619784455149626"><ele>89.0</ele><time>2026-04-06T07:56:26.999Z</time></trkpt><trkpt lat="39.162530975044305" lon="8.619513082438415"><ele>89.0</ele><time>2026-04-06T07:56:27.999Z</time></trkpt><trkpt lat="39.16257895370086" lon="8.619231924102024"><ele>88.33333333333334</ele><time>2026-04-06T07:56:28.999Z</time></trkpt><trkpt lat="39.162628608872886" lon="8.618955761418198"><ele>87.66666666666667</ele><time>2026-04-06T07:56:29.999Z</time></trkpt><trkpt lat="39.16267786200168" lon="8.618688271372342"><ele>87.0</ele><time>2026-04-06T07:56:30.999Z</time></trkpt><trkpt lat="39.162720910884154" lon="8.618449693395297"><ele>87.0</ele><time>2026-04-06T07:56:31.999Z</time></trkpt><trkpt lat="39.16276188554813" lon="8.61824068729901"><ele>87.0</ele><time>2026-04-06T07:56:32.999Z</time></trkpt><trkpt lat="39.1628036868726" lon="8.618055396896203"><ele>87.0</ele><time>2026-04-06T07:56:33.999Z</time></trkpt><trkpt lat="39.162852939830756" lon="8.61790515902105"><ele>87.0</ele><time>2026-04-06T07:56:34.999Z</time></trkpt><trkpt lat="39.162912262793895" lon="8.617790703674949"><ele>87.39999999999999</ele><time>2026-04-06T07:56:35.999Z</time></trkpt><trkpt lat="39.16297138120119" lon="8.617697850538715"><ele>87.8</ele><time>2026-04-06T07:56:36.999Z</time></trkpt><trkpt lat="39.162995917883585" lon="8.617601628993132"><ele>88.2</ele><time>2026-04-06T07:56:37.999Z</time></trkpt><trkpt lat="39.16297650895915" lon="8.617480685126177"><ele>88.6</ele><time>2026-04-06T07:56:38.999Z</time></trkpt><trkpt lat="39.162935590003904" lon="8.617341628252928"><ele>89.0</ele><time>2026-04-06T07:56:39.999Z</time></trkpt><trkpt lat="39.16292568867974" lon="8.617176216032684"><ele>89.0</ele><time>2026-04-06T07:56:40.999Z</time></trkpt><trkpt lat="39.1629589811495" lon="8.617001892450439"><ele>89.0</ele><time>2026-04-06T07:56:41.999Z</time></trkpt><trkpt lat="39.16300009964807" lon="8.616809118977459"><ele>89.0</ele><time>2026-04-06T07:56:42.999Z</time></trkpt><trkpt lat="39.163034955735505" lon="8.616616331301778"><ele>89.0</ele><time>2026-04-06T07:56:43.999Z</time></trkpt><trkpt lat="39.16306635492435" lon="8.616428427482017"><ele>89.0</ele><time>2026-04-06T07:56:44.999Z</time></trkpt><trkpt lat="39.16310187777291" lon="8.616226387240376"><ele>89.0</ele><time>2026-04-06T07:56:45.999Z</time></trkpt><trkpt lat="39.16314115378781" lon="8.616009052514643"><ele>89.0</ele><time>2026-04-06T07:56:46.999Z</time></trkpt><trkpt lat="39.163181726982955" lon="8.615778142073511"><ele>89.33333333333334</ele><time>2026-04-06T07:56:47.999Z</time></trkpt><trkpt lat="39.16322238465414" lon="8.615536857438487"><ele>89.66666666666667</ele><time>2026-04-06T07:56:48.999Z</time></trkpt><trkpt lat="39.16326386686096" lon="8.615310810313336"><ele>90.0</ele><time>2026-04-06T07:56:49.999Z</time></trkpt><trkpt lat="39.16330290078733" lon="8.61508538993118"><ele>90.33333333333333</ele><time>2026-04-06T07:56:50.999Z</time></trkpt><trkpt lat="39.163343179293335" lon="8.614852234627678"><ele>90.66666666666666</ele><time>2026-04-06T07:56:51.999Z</time></trkpt><trkpt lat="39.16338367045026" lon="8.614613788117637"><ele>91.0</ele><time>2026-04-06T07:56:52.999Z</time></trkpt><trkpt lat="39.16342802137122" lon="8.614371757992267"><ele>91.33333333333333</ele><time>2026-04-06T07:56:53.999Z</time></trkpt><trkpt lat="39.163470306043344" lon="8.614139930442763"><ele>91.66666666666667</ele><time>2026-04-06T07:56:54.999Z</time></trkpt><trkpt lat="39.163495598639464" lon="8.613917858840155"><ele>92.0</ele><time>2026-04-06T07:56:55.999Z</time></trkpt><trkpt lat="39.16349015467978" lon="8.613687321017709"><ele>93.0</ele><time>2026-04-06T07:56:56.999Z</time></trkpt><trkpt lat="39.16345415484731" lon="8.613451821239863"><ele>94.0</ele><time>2026-04-06T07:56:57.999Z</time></trkpt><trkpt lat="39.16340549793595" lon="8.613210559771808"><ele>95.0</ele><time>2026-04-06T07:56:58.999Z</time></trkpt><trkpt lat="39.1633482549653" lon="8.61297248576818"><ele>95.0</ele><time>2026-04-06T07:56:59.999Z</time></trkpt><trkpt lat="39.16328410733635" lon="8.612748988772754"><ele>95.0</ele><time>2026-04-06T07:57:00.999Z</time></trkpt><trkpt lat="39.16323060666721" lon="8.612533158453077"><ele>95.0</ele><time>2026-04-06T07:57:01.999Z</time></trkpt><trkpt lat="39.16317779879934" lon="8.612306031547591"><ele>96.66666666666667</ele><time>2026-04-06T07:57:02.999Z</time></trkpt><trkpt lat="39.163125228575794" lon="8.612092674277838"><ele>98.33333333333334</ele><time>2026-04-06T07:57:03.999Z</time></trkpt><trkpt lat="39.16307291245061" lon="8.611882235800334"><ele>100.0</ele><time>2026-04-06T07:57:04.999Z</time></trkpt><trkpt lat="39.16301854529804" lon="8.611683316600784"><ele>100.0</ele><time>2026-04-06T07:57:05.999Z</time></trkpt><trkpt lat="39.16294813320256" lon="8.611488289108705"><ele>100.0</ele><time>2026-04-06T07:57:06.999Z</time></trkpt><trkpt lat="39.16286293362381" lon="8.611310327630491"><ele>100.0</ele><time>2026-04-06T07:57:07.999Z</time></trkpt><trkpt lat="39.1627638272303" lon="8.61114477230214"><ele>99.33333333333334</ele><time>2026-04-06T07:57:08.999Z</time></trkpt><trkpt lat="39.162659653354424" lon="8.610971484219979"><ele>98.66666666666666</ele><time>2026-04-06T07:57:09.999Z</time></trkpt><trkpt lat="39.16254940828358" lon="8.61080154512689"><ele>98.0</ele><time>2026-04-06T07:57:10.999Z</time></trkpt><trkpt lat="39.162438669897405" lon="8.610637684438933"><ele>98.0</ele><time>2026-04-06T07:57:11.999Z</time></trkpt><trkpt lat="39.16234106665439" lon="8.610491127604988"><ele>98.0</ele><time>2026-04-06T07:57:12.999Z</time></trkpt><trkpt lat="39.16225762905529" lon="8.610363009505292"><ele>98.0</ele><time>2026-04-06T07:57:13.999Z</time></trkpt><trkpt lat="39.16218886444588" lon="8.610258905336433"><ele>98.0</ele><time>2026-04-06T07:57:14.999Z</time></trkpt><trkpt lat="39.16212958678157" lon="8.610170547770974"><ele>98.0</ele><time>2026-04-06T07:57:15.999Z</time></trkpt><trkpt lat="39.16207270448904" lon="8.610083195393287"><ele>98.0</ele><time>2026-04-06T07:57:16.999Z</time></trkpt><trkpt lat="39.16201533643569" lon="8.609990692516906"><ele>98.0</ele><time>2026-04-06T07:57:17.999Z</time></trkpt><trkpt lat="39.161946139940596" lon="8.60988382391869"><ele>98.0</ele><time>2026-04-06T07:57:18.999Z</time></trkpt><trkpt lat="39.16187300371537" lon="8.609770207159805"><ele>98.0</ele><time>2026-04-06T07:57:19.999Z</time></trkpt><trkpt lat="39.16181926944904" lon="8.609646000653525"><ele>98.0</ele><time>2026-04-06T07:57:20.999Z</time></trkpt><trkpt lat="39.16179889507963" lon="8.609504363592762"><ele>98.0</ele><time>2026-04-06T07:57:21.999Z</time></trkpt><trkpt lat="39.161819270948136" lon="8.609346776624259"><ele>98.0</ele><time>2026-04-06T07:57:22.999Z</time></trkpt><trkpt lat="39.161888488545294" lon="8.609200587787525"><ele>98.0</ele><time>2026-04-06T07:57:23.999Z</time></trkpt><trkpt lat="39.16195592955544" lon="8.60904734061046"><ele>99.0</ele><time>2026-04-06T07:57:24.999Z</time></trkpt><trkpt lat="39.16205596043282" lon="8.608889299411475"><ele>100.0</ele><time>2026-04-06T07:57:25.999Z</time></trkpt><trkpt lat="39.16215139249966" lon="8.608718591144662"><ele>101.0</ele><time>2026-04-06T07:57:26.999Z</time></trkpt><trkpt lat="39.16222959127385" lon="8.608565936410113"><ele>101.19999999999999</ele><time>2026-04-06T07:57:27.999Z</time></trkpt><trkpt lat="39.162297798252816" lon="8.608435013855305"><ele>101.39999999999999</ele><time>2026-04-06T07:57:28.999Z</time></trkpt><trkpt lat="39.16235824057074" lon="8.608325149468433"><ele>101.6</ele><time>2026-04-06T07:57:29.999Z</time></trkpt><trkpt lat="39.16241234398894" lon="8.608224983747153"><ele>101.8</ele><time>2026-04-06T07:57:30.999Z</time></trkpt><trkpt lat="39.162464927152136" lon="8.608125079590511"><ele>102.0</ele><time>2026-04-06T07:57:31.999Z</time></trkpt><trkpt lat="39.162528870697315" lon="8.608008371289174"><ele>102.25</ele><time>2026-04-06T07:57:32.999Z</time></trkpt><trkpt lat="39.1625996232442" lon="8.607874637873042"><ele>102.5</ele><time>2026-04-06T07:57:33.999Z</time></trkpt><trkpt lat="39.162682068783695" lon="8.607727162669642"><ele>102.75</ele><time>2026-04-06T07:57:34.999Z</time></trkpt><trkpt lat="39.16278515266196" lon="8.607590638736232"><ele>103.0</ele><time>2026-04-06T07:57:35.999Z</time></trkpt><trkpt lat="39.16288054195486" lon="8.607431663837739"><ele>103.0</ele><time>2026-04-06T07:57:36.999Z</time></trkpt><trkpt lat="39.162975735967834" lon="8.607307618730498"><ele>103.0</ele><time>2026-04-06T07:57:37.999Z</time></trkpt><trkpt lat="39.16307663464765" lon="8.607200800441337"><ele>103.0</ele><time>2026-04-06T07:57:38.999Z</time></trkpt><trkpt lat="39.16318138340152" lon="8.607075896980714"><ele>103.0</ele><time>2026-04-06T07:57:39.999Z</time></trkpt><trkpt lat="39.163294628983394" lon="8.606933252711165"><ele>103.66666666666667</ele><time>2026-04-06T07:57:40.999Z</time></trkpt><trkpt lat="39.16342428959273" lon="8.606774559418417"><ele>104.33333333333334</ele><time>2026-04-06T07:57:41.999Z</time></trkpt><trkpt lat="39.16355694218274" lon="8.606611199465874"><ele>105.0</ele><time>2026-04-06T07:57:42.999Z</time></trkpt><trkpt lat="39.16369103639833" lon="8.606437518119801"><ele>105.0</ele><time>2026-04-06T07:57:43.999Z</time></trkpt><trkpt lat="39.16381716347856" lon="8.60625994518"><ele>105.0</ele><time>2026-04-06T07:57:45Z</time></trkpt><trkpt lat="39.16393529779176" lon="8.606055828247582"><ele>105.0</ele><time>2026-04-06T07:57:46Z</time></trkpt><trkpt lat="39.164045360095486" lon="8.605829018477287"><ele>106.0</ele><time>2026-04-06T07:57:47Z</time></trkpt><trkpt lat="39.16416225928455" lon="8.605594065930852"><ele>107.0</ele><time>2026-04-06T07:57:48Z</time></trkpt><trkpt lat="39.1642858409119" lon="8.605362442062459"><ele>108.0</ele><time>2026-04-06T07:57:49Z</time></trkpt><trkpt lat="39.16440802548886" lon="8.605122267010477"><ele>108.66666666666666</ele><time>2026-04-06T07:57:50Z</time></trkpt><trkpt lat="39.164525290667854" lon="8.604892722258654"><ele>109.33333333333333</ele><time>2026-04-06T07:57:51Z</time></trkpt><trkpt lat="39.16464362344887" lon="8.604667803916804"><ele>110.0</ele><time>2026-04-06T07:57:52Z</time></trkpt><trkpt lat="39.164780612927615" lon="8.60446537081845"><ele>111.66666666666666</ele><time>2026-04-06T07:57:53Z</time></trkpt><trkpt lat="39.16492462107117" lon="8.604282990214472"><ele>113.33333333333334</ele><time>2026-04-06T07:57:54Z</time></trkpt><trkpt lat="39.165097307611624" lon="8.60413680104977"><ele>115.0</ele><time>2026-04-06T07:57:55Z</time></trkpt><trkpt lat="39.16527561184079" lon="8.603974965131616"><ele>115.0</ele><time>2026-04-06T07:57:56Z</time></trkpt><trkpt lat="39.16546305068315" lon="8.603842438543932"><ele>115.0</ele><time>2026-04-06T07:57:57Z</time></trkpt><trkpt lat="39.16564875317471" lon="8.6037024495315"><ele>115.0</ele><time>2026-04-06T07:57:58Z</time></trkpt><trkpt lat="39.165835340114896" lon="8.603556648112237"><ele>116.66666666666667</ele><time>2026-04-06T07:57:59Z</time></trkpt><trkpt lat="39.16602288353338" lon="8.603411160142626"><ele>118.33333333333334</ele><time>2026-04-06T07:58:00Z</time></trkpt><trkpt lat="39.166210659832835" lon="8.603264142779114"><ele>120.0</ele><time>2026-04-06T07:58:01Z</time></trkpt><trkpt lat="39.16639063157542" lon="8.60311491623812"><ele>121.0</ele><time>2026-04-06T07:58:02Z</time></trkpt><trkpt lat="39.16656317655154" lon="8.602951614071317"><ele>122.0</ele><time>2026-04-06T07:58:03Z</time></trkpt><trkpt lat="39.16673107068304" lon="8.60278438840241"><ele>123.0</ele><time>2026-04-06T07:58:04Z</time></trkpt><trkpt lat="39.166895034061604" lon="8.602627076621598"><ele>123.66666666666666</ele><time>2026-04-06T07:58:05Z</time></trkpt><trkpt lat="39.167043423575215" lon="8.602487607290314"><ele>124.33333333333333</ele><time>2026-04-06T07:58:06Z</time></trkpt><trkpt lat="39.16717233800271" lon="8.602358281259026"><ele>125.0</ele><time>2026-04-06T07:58:07Z</time></trkpt><trkpt lat="39.16727524616305" lon="8.60221858016478"><ele>125.0</ele><time>2026-04-06T07:58:08Z</time></trkpt><trkpt lat="39.1673414613784" lon="8.602051825762958"><ele>125.0</ele><time>2026-04-06T07:58:09Z</time></trkpt><trkpt lat="39.167377051956365" lon="8.601853269600289"><ele>125.0</ele><time>2026-04-06T07:58:10Z</time></trkpt><trkpt lat="39.16737318849415" lon="8.601639151480647"><ele>126.0</ele><time>2026-04-06T07:58:11Z</time></trkpt><trkpt lat="39.1673299322355" lon="8.60142141216706"><ele>127.0</ele><time>2026-04-06T07:58:12Z</time></trkpt><trkpt lat="39.16725768910402" lon="8.601203370496298"><ele>128.0</ele><time>2026-04-06T07:58:13Z</time></trkpt><trkpt lat="39.16717692741088" lon="8.60097864087621"><ele>130.0</ele><time>2026-04-06T07:58:14Z</time></trkpt><trkpt lat="39.167094230975515" lon="8.600755397599825"><ele>132.0</ele><time>2026-04-06T07:58:15Z</time></trkpt><trkpt lat="39.16699558590574" lon="8.60053462513753"><ele>134.0</ele><time>2026-04-06T07:58:16Z</time></trkpt><trkpt lat="39.16688187641285" lon="8.600325623031651"><ele>135.33333333333331</ele><time>2026-04-06T07:58:17Z</time></trkpt><trkpt lat="39.16675978043758" lon="8.60012160728533"><ele>136.66666666666666</ele><time>2026-04-06T07:58:18Z</time></trkpt><trkpt lat="39.16663828471473" lon="8.599919110313214"><ele>138.0</ele><time>2026-04-06T07:58:19Z</time></trkpt><trkpt lat="39.166525686274184" lon="8.599722483153421"><ele>138.0</ele><time>2026-04-06T07:58:20Z</time></trkpt><trkpt lat="39.16641106212933" lon="8.599524555478727"><ele>138.0</ele><time>2026-04-06T07:58:21Z</time></trkpt><trkpt lat="39.16629368604979" lon="8.599335886170804"><ele>138.0</ele><time>2026-04-06T07:58:22Z</time></trkpt><trkpt lat="39.16616301268961" lon="8.599155757491594"><ele>141.33333333333334</ele><time>2026-04-06T07:58:23Z</time></trkpt><trkpt lat="39.16602395379687" lon="8.598990647353117"><ele>144.66666666666669</ele><time>2026-04-06T07:58:24Z</time></trkpt><trkpt lat="39.165882931991156" lon="8.59883213260626"><ele>148.0</ele><time>2026-04-06T07:58:25Z</time></trkpt><trkpt lat="39.16574161152013" lon="8.598675662639824"><ele>146.66666666666669</ele><time>2026-04-06T07:58:26Z</time></trkpt><trkpt lat="39.16560893680683" lon="8.598510371971967"><ele>145.33333333333334</ele><time>2026-04-06T07:58:27Z</time></trkpt><trkpt lat="39.16548627700192" lon="8.598338181093975"><ele>144.0</ele><time>2026-04-06T07:58:28Z</time></trkpt><trkpt lat="39.16537278265724" lon="8.598155735405806"><ele>144.0</ele><time>2026-04-06T07:58:29Z</time></trkpt><trkpt lat="39.16526504396275" lon="8.597965150129632"><ele>144.0</ele><time>2026-04-06T07:58:30Z</time></trkpt><trkpt lat="39.165174119112294" lon="8.597765625914768"><ele>144.0</ele><time>2026-04-06T07:58:31Z</time></trkpt><trkpt lat="39.16512158013875" lon="8.597561277074208"><ele>147.33333333333334</ele><time>2026-04-06T07:58:32Z</time></trkpt><trkpt lat="39.16505243231868" lon="8.597382329817988"><ele>150.66666666666669</ele><time>2026-04-06T07:58:33Z</time></trkpt><trkpt lat="39.16499707533081" lon="8.597187797795655"><ele>154.0</ele><time>2026-04-06T07:58:34Z</time></trkpt><trkpt lat="39.16493245520974" lon="8.596996734372604"><ele>152.33333333333334</ele><time>2026-04-06T07:58:35Z</time></trkpt><trkpt lat="39.164844079341506" lon="8.596809651904843"><ele>150.66666666666666</ele><time>2026-04-06T07:58:36Z</time></trkpt><trkpt lat="39.164741295142655" lon="8.596640005840964"><ele>149.0</ele><time>2026-04-06T07:58:37Z</time></trkpt><trkpt lat="39.16465578710407" lon="8.59645549226103"><ele>149.0</ele><time>2026-04-06T07:58:38Z</time></trkpt><trkpt lat="39.164592625245106" lon="8.596265562808272"><ele>149.0</ele><time>2026-04-06T07:58:39Z</time></trkpt><trkpt lat="39.164587998371054" lon="8.596067160029657"><ele>149.0</ele><time>2026-04-06T07:58:40Z</time></trkpt><trkpt lat="39.16460218519667" lon="8.595851173140074"><ele>149.33333333333331</ele><time>2026-04-06T07:58:41Z</time></trkpt><trkpt lat="39.16462117601103" lon="8.595607670486524"><ele>149.66666666666666</ele><time>2026-04-06T07:58:42Z</time></trkpt><trkpt lat="39.1646380807708" lon="8.595342678897701"><ele>150.0</ele><time>2026-04-06T07:58:43Z</time></trkpt><trkpt lat="39.164657219877824" lon="8.595063255937713"><ele>152.5</ele><time>2026-04-06T07:58:44Z</time></trkpt><trkpt lat="39.164689968666885" lon="8.594768934706194"><ele>155.0</ele><time>2026-04-06T07:58:45Z</time></trkpt><trkpt lat="39.16473345648425" lon="8.59446133641876"><ele>158.66666666666666</ele><time>2026-04-06T07:58:46Z</time></trkpt><trkpt lat="39.16476492167342" lon="8.594168692599641"><ele>162.33333333333334</ele><time>2026-04-06T07:58:47Z</time></trkpt><trkpt lat="39.16481878690534" lon="8.593924255628005"><ele>166.0</ele><time>2026-04-06T07:58:48Z</time></trkpt><trkpt lat="39.164890431740716" lon="8.593742612628509"><ele>170.0</ele><time>2026-04-06T07:58:49Z</time></trkpt><trkpt lat="39.164920491105555" lon="8.59357304193407"><ele>174.0</ele><time>2026-04-06T07:58:50Z</time></trkpt><trkpt lat="39.16493395144154" lon="8.593435442063944"><ele>178.0</ele><time>2026-04-06T07:58:51Z</time></trkpt><trkpt lat="39.16489524472778" lon="8.593305176548109"><ele>182.0</ele><time>2026-04-06T07:58:52Z</time></trkpt><trkpt lat="39.164813408628966" lon="8.593188679644545"><ele>182.25</ele><time>2026-04-06T07:58:53Z</time></trkpt><trkpt lat="39.16469867847483" lon="8.593102124498182"><ele>182.5</ele><time>2026-04-06T07:58:54Z</time></trkpt><trkpt lat="39.16456292088907" lon="8.593065061216596"><ele>182.75</ele><time>2026-04-06T07:58:55Z</time></trkpt><trkpt lat="39.16441631725882" lon="8.59308470105089"><ele>183.0</ele><time>2026-04-06T07:58:56Z</time></trkpt><trkpt lat="39.16426804055676" lon="8.59315436829964"><ele>183.0</ele><time>2026-04-06T07:58:57Z</time></trkpt><trkpt lat="39.16411836004705" lon="8.593245962687549"><ele>183.0</ele><time>2026-04-06T07:58:58Z</time></trkpt><trkpt lat="39.16397436764139" lon="8.59335406436427"><ele>183.0</ele><time>2026-04-06T07:58:59Z</time></trkpt><trkpt lat="39.16385244374758" lon="8.593455743706052"><ele>183.75</ele><time>2026-04-06T07:59:00Z</time></trkpt><trkpt lat="39.163743970507674" lon="8.593520096446298"><ele>184.5</ele><time>2026-04-06T07:59:01Z</time></trkpt><trkpt lat="39.1636353863842" lon="8.593519723833904"><ele>185.25</ele><time>2026-04-06T07:59:02Z</time></trkpt><trkpt lat="39.16351684389257" lon="8.593458904137742"><ele>186.0</ele><time>2026-04-06T07:59:03Z</time></trkpt><trkpt lat="39.16340535966075" lon="8.593352406158644"><ele>186.0</ele><time>2026-04-06T07:59:04Z</time></trkpt><trkpt lat="39.16332077384403" lon="8.593192466766684"><ele>186.0</ele><time>2026-04-06T07:59:05Z</time></trkpt><trkpt lat="39.163209571921826" lon="8.593044551630074"><ele>186.0</ele><time>2026-04-06T07:59:06Z</time></trkpt><trkpt lat="39.1630994338625" lon="8.59287499958918"><ele>187.0</ele><time>2026-04-06T07:59:07Z</time></trkpt><trkpt lat="39.16298356611429" lon="8.592712969528174"><ele>188.0</ele><time>2026-04-06T07:59:08Z</time></trkpt><trkpt lat="39.16286422178567" lon="8.592568482412801"><ele>189.0</ele><time>2026-04-06T07:59:09Z</time></trkpt><trkpt lat="39.16272268120173" lon="8.592455682487303"><ele>189.0</ele><time>2026-04-06T07:59:10Z</time></trkpt><trkpt lat="39.16256121735375" lon="8.592369174522641"><ele>189.0</ele><time>2026-04-06T07:59:11Z</time></trkpt><trkpt lat="39.162414098046455" lon="8.592287591120309"><ele>189.0</ele><time>2026-04-06T07:59:12Z</time></trkpt><trkpt lat="39.1623173238293" lon="8.592161704149957"><ele>187.0</ele><time>2026-04-06T07:59:13Z</time></trkpt><trkpt lat="39.162236742993855" lon="8.592031469949614"><ele>185.0</ele><time>2026-04-06T07:59:14Z</time></trkpt><trkpt lat="39.16220113225477" lon="8.591884140828228"><ele>183.0</ele><time>2026-04-06T07:59:15Z</time></trkpt><trkpt lat="39.16218355729548" lon="8.591720480254356"><ele>181.0</ele><time>2026-04-06T07:59:16Z</time></trkpt><trkpt lat="39.16221116295985" lon="8.591555342899575"><ele>181.0</ele><time>2026-04-06T07:59:17Z</time></trkpt><trkpt lat="39.16227971483681" lon="8.591410827002187"><ele>181.0</ele><time>2026-04-06T07:59:18Z</time></trkpt><trkpt lat="39.16233122522246" lon="8.591264676131487"><ele>181.0</ele><time>2026-04-06T07:59:19Z</time></trkpt><trkpt lat="39.162345917490406" lon="8.59111177729013"><ele>181.0</ele><time>2026-04-06T07:59:20Z</time></trkpt><trkpt lat="39.162322317654116" lon="8.590939101113047"><ele>185.0</ele><time>2026-04-06T07:59:21Z</time></trkpt><trkpt lat="39.162257909197756" lon="8.590759314300387"><ele>189.0</ele><time>2026-04-06T07:59:22Z</time></trkpt><trkpt lat="39.162168114738655" lon="8.590582590779103"><ele>193.0</ele><time>2026-04-06T07:59:23Z</time></trkpt><trkpt lat="39.16207732201028" lon="8.590397913867"><ele>198.33333333333331</ele><time>2026-04-06T07:59:24Z</time></trkpt><trkpt lat="39.16197961723666" lon="8.590234009101351"><ele>203.66666666666669</ele><time>2026-04-06T07:59:25Z</time></trkpt><trkpt lat="39.16185837396878" lon="8.590127982109893"><ele>209.0</ele><time>2026-04-06T07:59:26Z</time></trkpt><trkpt lat="39.161709961601005" lon="8.590055088504917"><ele>209.0</ele><time>2026-04-06T07:59:27Z</time></trkpt><trkpt lat="39.16155381684332" lon="8.589982045457294"><ele>209.0</ele><time>2026-04-06T07:59:28Z</time></trkpt><trkpt lat="39.16144040921726" lon="8.589824869319392"><ele>209.0</ele><time>2026-04-06T07:59:29Z</time></trkpt><trkpt lat="39.161320482437475" lon="8.589648776211865"><ele>208.33333333333334</ele><time>2026-04-06T07:59:30Z</time></trkpt><trkpt lat="39.16118159110367" lon="8.589471480724923"><ele>207.66666666666669</ele><time>2026-04-06T07:59:31Z</time></trkpt><trkpt lat="39.16106878230709" lon="8.589294223028014"><ele>207.0</ele><time>2026-04-06T07:59:32Z</time></trkpt><trkpt lat="39.16098432097339" lon="8.589143333892704"><ele>207.0</ele><time>2026-04-06T07:59:33Z</time></trkpt><trkpt lat="39.16095953233802" lon="8.58897836599863"><ele>207.0</ele><time>2026-04-06T07:59:34Z</time></trkpt><trkpt lat="39.16097280162672" lon="8.58880072277906"><ele>207.0</ele><time>2026-04-06T07:59:35Z</time></trkpt><trkpt lat="39.16098911507833" lon="8.588587732294927"><ele>207.0</ele><time>2026-04-06T07:59:36Z</time></trkpt><trkpt lat="39.16100109994219" lon="8.588363247425258"><ele>207.0</ele><time>2026-04-06T07:59:37Z</time></trkpt><trkpt lat="39.16101787494704" lon="8.588131254519471"><ele>207.0</ele><time>2026-04-06T07:59:38Z</time></trkpt><trkpt lat="39.16102875393721" lon="8.58788513406785"><ele>207.0</ele><time>2026-04-06T07:59:39Z</time></trkpt><trkpt lat="39.16106310951715" lon="8.587648709019966"><ele>207.0</ele><time>2026-04-06T07:59:40Z</time></trkpt><trkpt lat="39.161068583779475" lon="8.58744723946708"><ele>207.0</ele><time>2026-04-06T07:59:41Z</time></trkpt><trkpt lat="39.16113363701279" lon="8.587295205136012"><ele>207.0</ele><time>2026-04-06T07:59:42Z</time></trkpt><trkpt lat="39.161210263449625" lon="8.587158535315357"><ele>207.0</ele><time>2026-04-06T07:59:43Z</time></trkpt><trkpt lat="39.161329015199" lon="8.587049368940036"><ele>203.66666666666669</ele><time>2026-04-06T07:59:44Z</time></trkpt><trkpt lat="39.161460729218476" lon="8.586912588499874"><ele>200.33333333333334</ele><time>2026-04-06T07:59:45Z</time></trkpt><trkpt lat="39.16161080457608" lon="8.586795570959092"><ele>197.0</ele><time>2026-04-06T07:59:46Z</time></trkpt><trkpt lat="39.16176084577702" lon="8.586642833369742"><ele>206.33333333333334</ele><time>2026-04-06T07:59:47Z</time></trkpt><trkpt lat="39.161906987150566" lon="8.586476775311503"><ele>215.66666666666669</ele><time>2026-04-06T07:59:48Z</time></trkpt><trkpt lat="39.16206282930406" lon="8.58637464680957"><ele>225.0</ele><time>2026-04-06T07:59:49Z</time></trkpt><trkpt lat="39.16221631827782" lon="8.586312835775997"><ele>231.33333333333331</ele><time>2026-04-06T07:59:50Z</time></trkpt><trkpt lat="39.1623891463952" lon="8.58628907969556"><ele>237.66666666666666</ele><time>2026-04-06T07:59:51Z</time></trkpt><trkpt lat="39.16257846127615" lon="8.586265475452675"><ele>244.0</ele><time>2026-04-06T07:59:52Z</time></trkpt><trkpt lat="39.16277693277253" lon="8.58627824831736"><ele>244.0</ele><time>2026-04-06T07:59:53Z</time></trkpt><trkpt lat="39.1629651749125" lon="8.586304711724862"><ele>244.0</ele><time>2026-04-06T07:59:54Z</time></trkpt><trkpt lat="39.163145197732334" lon="8.586402399653835"><ele>244.0</ele><time>2026-04-06T07:59:55Z</time></trkpt><trkpt lat="39.16332279011675" lon="8.586499452890154"><ele>243.33333333333331</ele><time>2026-04-06T07:59:56Z</time></trkpt><trkpt lat="39.16350269144028" lon="8.586574995971938"><ele>242.66666666666669</ele><time>2026-04-06T07:59:57Z</time></trkpt><trkpt lat="39.16368599955309" lon="8.586641685616023"><ele>242.0</ele><time>2026-04-06T07:59:58Z</time></trkpt><trkpt lat="39.16388176393599" lon="8.58666055324245"><ele>241.33333333333334</ele><time>2026-04-06T07:59:59Z</time></trkpt><trkpt lat="39.16408499508926" lon="8.586652753079385"><ele>240.66666666666669</ele><time>2026-04-06T08:00:00Z</time></trkpt><trkpt lat="39.16427791988179" lon="8.586630972573136"><ele>240.0</ele><time>2026-04-06T08:00:01Z</time></trkpt><trkpt lat="39.16444940617173" lon="8.586601290046392"><ele>240.0</ele><time>2026-04-06T08:00:02Z</time></trkpt><trkpt lat="39.16459878783208" lon="8.586545093427716"><ele>240.0</ele><time>2026-04-06T08:00:03Z</time></trkpt><trkpt lat="39.164738302761734" lon="8.586434606541117"><ele>240.0</ele><time>2026-04-06T08:00:04Z</time></trkpt><trkpt lat="39.16486950682213" lon="8.586275506637184"><ele>240.66666666666669</ele><time>2026-04-06T08:00:05Z</time></trkpt><trkpt lat="39.16498723704925" lon="8.586092068358107"><ele>241.33333333333334</ele><time>2026-04-06T08:00:06Z</time></trkpt><trkpt lat="39.16511603920884" lon="8.585947027981371"><ele>242.0</ele><time>2026-04-06T08:00:07Z</time></trkpt><trkpt lat="39.16524830948843" lon="8.585842413021934"><ele>242.0</ele><time>2026-04-06T08:00:08Z</time></trkpt><trkpt lat="39.16540616718069" lon="8.585786632560986"><ele>242.0</ele><time>2026-04-06T08:00:09Z</time></trkpt><trkpt lat="39.165587243377814" lon="8.58576642943396"><ele>242.0</ele><time>2026-04-06T08:00:10Z</time></trkpt><trkpt lat="39.165779247854886" lon="8.585753144227555"><ele>245.0</ele><time>2026-04-06T08:00:11Z</time></trkpt><trkpt lat="39.165980740956094" lon="8.585722620460501"><ele>248.0</ele><time>2026-04-06T08:00:12Z</time></trkpt><trkpt lat="39.16618682250352" lon="8.585706406662755"><ele>251.0</ele><time>2026-04-06T08:00:13Z</time></trkpt><trkpt lat="39.1663948402501" lon="8.585685831151174"><ele>251.33333333333334</ele><time>2026-04-06T08:00:14Z</time></trkpt><trkpt lat="39.166594882006464" lon="8.585673235743329"><ele>251.66666666666669</ele><time>2026-04-06T08:00:15Z</time></trkpt><trkpt lat="39.166789775824896" lon="8.585663876772397"><ele>252.0</ele><time>2026-04-06T08:00:16Z</time></trkpt><trkpt lat="39.16698019008498" lon="8.585651066782296"><ele>252.0</ele><time>2026-04-06T08:00:17Z</time></trkpt><trkpt lat="39.16716760356728" lon="8.585632527955156"><ele>252.0</ele><time>2026-04-06T08:00:18Z</time></trkpt><trkpt lat="39.167353684291896" lon="8.585616594348723"><ele>252.0</ele><time>2026-04-06T08:00:19Z</time></trkpt><trkpt lat="39.167545349421054" lon="8.58560257757668"><ele>252.0</ele><time>2026-04-06T08:00:20Z</time></trkpt><trkpt lat="39.16772366709572" lon="8.585582007212132"><ele>252.0</ele><time>2026-04-06T08:00:21Z</time></trkpt><trkpt lat="39.1678890601439" lon="8.585551239731865"><ele>252.0</ele><time>2026-04-06T08:00:22Z</time></trkpt><trkpt lat="39.16804988429789" lon="8.585538520581066"><ele>252.0</ele><time>2026-04-06T08:00:23Z</time></trkpt><trkpt lat="39.168208488852514" lon="8.585506500283385"><ele>252.0</ele><time>2026-04-06T08:00:24Z</time></trkpt><trkpt lat="39.16835696902936" lon="8.58534424287642"><ele>252.0</ele><time>2026-04-06T08:00:25Z</time></trkpt><trkpt lat="39.168509676274816" lon="8.585226757765238"><ele>252.0</ele><time>2026-04-06T08:00:26Z</time></trkpt><trkpt lat="39.16865589817248" lon="8.585076918691689"><ele>252.0</ele><time>2026-04-06T08:00:27Z</time></trkpt><trkpt lat="39.16879409762479" lon="8.584899223337395"><ele>252.0</ele><time>2026-04-06T08:00:28Z</time></trkpt><trkpt lat="39.1689335631763" lon="8.584701085888597"><ele>250.66666666666669</ele><time>2026-04-06T08:00:29Z</time></trkpt><trkpt lat="39.16909032847818" lon="8.584512119534615"><ele>249.33333333333334</ele><time>2026-04-06T08:00:30Z</time></trkpt><trkpt lat="39.169250781698665" lon="8.584320324536357"><ele>248.0</ele><time>2026-04-06T08:00:31Z</time></trkpt><trkpt lat="39.169399591200886" lon="8.584137289072265"><ele>248.0</ele><time>2026-04-06T08:00:32Z</time></trkpt><trkpt lat="39.16955171043765" lon="8.58395056866345"><ele>248.0</ele><time>2026-04-06T08:00:33Z</time></trkpt><trkpt lat="39.169682530878816" lon="8.583775257659209"><ele>248.0</ele><time>2026-04-06T08:00:34Z</time></trkpt><trkpt lat="39.16979993254635" lon="8.58359814465685"><ele>246.66666666666669</ele><time>2026-04-06T08:00:35Z</time></trkpt><trkpt lat="39.169888984912866" lon="8.583394740000983"><ele>245.33333333333331</ele><time>2026-04-06T08:00:36Z</time></trkpt><trkpt lat="39.16995208643679" lon="8.583162003702057"><ele>244.0</ele><time>2026-04-06T08:00:37Z</time></trkpt><trkpt lat="39.16998395504363" lon="8.58289692199103"><ele>244.33333333333331</ele><time>2026-04-06T08:00:38Z</time></trkpt><trkpt lat="39.17000961442304" lon="8.582616719056029"><ele>244.66666666666669</ele><time>2026-04-06T08:00:39Z</time></trkpt><trkpt lat="39.170047689164875" lon="8.582335421199632"><ele>245.0</ele><time>2026-04-06T08:00:40Z</time></trkpt><trkpt lat="39.17009124432792" lon="8.582049010546484"><ele>244.0</ele><time>2026-04-06T08:00:41Z</time></trkpt><trkpt lat="39.170142869902676" lon="8.58175418425921"><ele>243.0</ele><time>2026-04-06T08:00:42Z</time></trkpt><trkpt lat="39.17019134456579" lon="8.581457429866656"><ele>244.0</ele><time>2026-04-06T08:00:43Z</time></trkpt><trkpt lat="39.17023453926291" lon="8.581158230661586"><ele>245.0</ele><time>2026-04-06T08:00:44Z</time></trkpt><trkpt lat="39.17027947231683" lon="8.580862416062082"><ele>245.0</ele><time>2026-04-06T08:00:45Z</time></trkpt><trkpt lat="39.170326716686674" lon="8.580566471744868"><ele>245.0</ele><time>2026-04-06T08:00:46Z</time></trkpt><trkpt lat="39.17037045993664" lon="8.580293238306732"><ele>246.66666666666669</ele><time>2026-04-06T08:00:47Z</time></trkpt><trkpt lat="39.1704242025649" lon="8.580051632168642"><ele>248.33333333333331</ele><time>2026-04-06T08:00:48Z</time></trkpt><trkpt lat="39.17048476351626" lon="8.5798450438565"><ele>250.0</ele><time>2026-04-06T08:00:49Z</time></trkpt><trkpt lat="39.17056242264823" lon="8.57966793020134"><ele>250.0</ele><time>2026-04-06T08:00:50Z</time></trkpt><trkpt lat="39.17067546671035" lon="8.579521453036564"><ele>250.0</ele><time>2026-04-06T08:00:51Z</time></trkpt><trkpt lat="39.170799416528325" lon="8.579434659757574"><ele>250.0</ele><time>2026-04-06T08:00:52Z</time></trkpt><trkpt lat="39.17094352740226" lon="8.579363249096687"><ele>249.66666666666666</ele><time>2026-04-06T08:00:53Z</time></trkpt><trkpt lat="39.17111062188766" lon="8.579307379670771"><ele>249.33333333333331</ele><time>2026-04-06T08:00:54Z</time></trkpt><trkpt lat="39.171284189694745" lon="8.579228401638394"><ele>249.0</ele><time>2026-04-06T08:00:55Z</time></trkpt><trkpt lat="39.171457176269065" lon="8.57916525516467"><ele>248.0</ele><time>2026-04-06T08:00:56Z</time></trkpt><trkpt lat="39.171605481764594" lon="8.579084727610931"><ele>247.0</ele><time>2026-04-06T08:00:57Z</time></trkpt><trkpt lat="39.17172955786736" lon="8.578975875643792"><ele>246.0</ele><time>2026-04-06T08:00:58Z</time></trkpt><trkpt lat="39.17182962660362" lon="8.57883375950222"><ele>246.33333333333331</ele><time>2026-04-06T08:00:59Z</time></trkpt><trkpt lat="39.17190972520135" lon="8.578653301632981"><ele>246.66666666666666</ele><time>2026-04-06T08:01:00Z</time></trkpt><trkpt lat="39.17195762422804" lon="8.578451838515422"><ele>247.0</ele><time>2026-04-06T08:01:01Z</time></trkpt><trkpt lat="39.171971847153635" lon="8.578232078249826"><ele>247.0</ele><time>2026-04-06T08:01:02.001Z</time></trkpt><trkpt lat="39.17194889051643" lon="8.577996645810062"><ele>247.0</ele><time>2026-04-06T08:01:03.001Z</time></trkpt><trkpt lat="39.171891723152925" lon="8.577752778564562"><ele>247.0</ele><time>2026-04-06T08:01:04.001Z</time></trkpt><trkpt lat="39.17181048933067" lon="8.577498187207398"><ele>244.5</ele><time>2026-04-06T08:01:05.001Z</time></trkpt><trkpt lat="39.17172655062691" lon="8.577229911741746"><ele>242.0</ele><time>2026-04-06T08:01:06.001Z</time></trkpt><trkpt lat="39.17164807352224" lon="8.57695089743992"><ele>242.0</ele><time>2026-04-06T08:01:07Z</time></trkpt><trkpt lat="39.171572303195596" lon="8.576676062732949"><ele>242.0</ele><time>2026-04-06T08:01:08Z</time></trkpt><trkpt lat="39.17148065584658" lon="8.576406080813356"><ele>238.5</ele><time>2026-04-06T08:01:09Z</time></trkpt><trkpt lat="39.17137035872116" lon="8.576134072853804"><ele>235.0</ele><time>2026-04-06T08:01:10Z</time></trkpt><trkpt lat="39.17126488306923" lon="8.575854376249014"><ele>235.0</ele><time>2026-04-06T08:01:11Z</time></trkpt><trkpt lat="39.171191062238385" lon="8.57555109672195"><ele>235.0</ele><time>2026-04-06T08:01:12Z</time></trkpt><trkpt lat="39.171123224442354" lon="8.575267207317298"><ele>232.0</ele><time>2026-04-06T08:01:13Z</time></trkpt><trkpt lat="39.171039580339254" lon="8.575005614851934"><ele>229.0</ele><time>2026-04-06T08:01:14Z</time></trkpt><trkpt lat="39.17095131284358" lon="8.574756046936793"><ele>226.0</ele><time>2026-04-06T08:01:15Z</time></trkpt><trkpt lat="39.17084963737134" lon="8.574536861843532"><ele>223.66666666666666</ele><time>2026-04-06T08:01:16Z</time></trkpt><trkpt lat="39.17074735637299" lon="8.574352591030545"><ele>221.33333333333331</ele><time>2026-04-06T08:01:17Z</time></trkpt><trkpt lat="39.17063820857589" lon="8.574198585429285"><ele>219.0</ele><time>2026-04-06T08:01:18Z</time></trkpt><trkpt lat="39.17051185299576" lon="8.574073051116526"><ele>219.0</ele><time>2026-04-06T08:01:19Z</time></trkpt><trkpt lat="39.1703438234143" lon="8.573989565853635"><ele>219.0</ele><time>2026-04-06T08:01:20Z</time></trkpt><trkpt lat="39.17015041427664" lon="8.57395438728851"><ele>219.0</ele><time>2026-04-06T08:01:21Z</time></trkpt><trkpt lat="39.169942176511036" lon="8.57393253737852"><ele>218.66666666666669</ele><time>2026-04-06T08:01:22Z</time></trkpt><trkpt lat="39.16972576556668" lon="8.573900948574636"><ele>218.33333333333334</ele><time>2026-04-06T08:01:23Z</time></trkpt><trkpt lat="39.169502314850476" lon="8.573854739307942"><ele>218.0</ele><time>2026-04-06T08:01:24Z</time></trkpt><trkpt lat="39.1692759865481" lon="8.57379610337145"><ele>218.0</ele><time>2026-04-06T08:01:25Z</time></trkpt><trkpt lat="39.16906349342474" lon="8.57374208536372"><ele>218.0</ele><time>2026-04-06T08:01:26Z</time></trkpt><trkpt lat="39.1688450883694" lon="8.573696069251183"><ele>218.0</ele><time>2026-04-06T08:01:27Z</time></trkpt><trkpt lat="39.168625387176725" lon="8.573667064735194"><ele>216.0</ele><time>2026-04-06T08:01:28Z</time></trkpt><trkpt lat="39.16840190300008" lon="8.573674221267117"><ele>214.0</ele><time>2026-04-06T08:01:29Z</time></trkpt><trkpt lat="39.16817969318919" lon="8.573711929341027"><ele>212.0</ele><time>2026-04-06T08:01:30Z</time></trkpt><trkpt lat="39.16795497275531" lon="8.573760680610361"><ele>212.0</ele><time>2026-04-06T08:01:31Z</time></trkpt><trkpt lat="39.16772330143888" lon="8.57379845867418"><ele>212.0</ele><time>2026-04-06T08:01:32Z</time></trkpt><trkpt lat="39.1674958361699" lon="8.57383028527699"><ele>209.5</ele><time>2026-04-06T08:01:33Z</time></trkpt><trkpt lat="39.16726949599022" lon="8.573885079040986"><ele>207.0</ele><time>2026-04-06T08:01:34Z</time></trkpt><trkpt lat="39.16704890606581" lon="8.573957410698245"><ele>207.0</ele><time>2026-04-06T08:01:35Z</time></trkpt><trkpt lat="39.16683580083249" lon="8.574049713297494"><ele>207.0</ele><time>2026-04-06T08:01:36Z</time></trkpt><trkpt lat="39.16663970482045" lon="8.57412729244215"><ele>207.0</ele><time>2026-04-06T08:01:37Z</time></trkpt><trkpt lat="39.16645536100285" lon="8.574185872228199"><ele>205.66666666666669</ele><time>2026-04-06T08:01:38Z</time></trkpt><trkpt lat="39.16627478464148" lon="8.574211140437548"><ele>204.33333333333334</ele><time>2026-04-06T08:01:39Z</time></trkpt><trkpt lat="39.16609403284715" lon="8.574165707621791"><ele>203.0</ele><time>2026-04-06T08:01:40Z</time></trkpt><trkpt lat="39.16590835081355" lon="8.574085749759632"><ele>203.0</ele><time>2026-04-06T08:01:41Z</time></trkpt><trkpt lat="39.165705899148605" lon="8.574009206860756"><ele>203.0</ele><time>2026-04-06T08:01:42Z</time></trkpt><trkpt lat="39.16550050930892" lon="8.573904845281314"><ele>203.0</ele><time>2026-04-06T08:01:43Z</time></trkpt><trkpt lat="39.1652867592301" lon="8.573801038109261"><ele>203.5</ele><time>2026-04-06T08:01:44Z</time></trkpt><trkpt lat="39.16506690107138" lon="8.573694194193884"><ele>204.0</ele><time>2026-04-06T08:01:45Z</time></trkpt><trkpt lat="39.164841898418686" lon="8.573589704333825"><ele>201.5</ele><time>2026-04-06T08:01:46Z</time></trkpt><trkpt lat="39.16461405475631" lon="8.573484652589583"><ele>199.0</ele><time>2026-04-06T08:01:47Z</time></trkpt><trkpt lat="39.16439130591147" lon="8.573376273512055"><ele>199.0</ele><time>2026-04-06T08:01:48Z</time></trkpt><trkpt lat="39.16417387703934" lon="8.573247066712641"><ele>199.0</ele><time>2026-04-06T08:01:49Z</time></trkpt><trkpt lat="39.1639686916851" lon="8.57308421869196"><ele>201.0</ele><time>2026-04-06T08:01:50Z</time></trkpt><trkpt lat="39.1637746907977" lon="8.572892506884013"><ele>203.0</ele><time>2026-04-06T08:01:51Z</time></trkpt><trkpt lat="39.163582642192935" lon="8.57268167065831"><ele>201.5</ele><time>2026-04-06T08:01:52Z</time></trkpt><trkpt lat="39.16338960605658" lon="8.57247313702981"><ele>200.0</ele><time>2026-04-06T08:01:53Z</time></trkpt><trkpt lat="39.16318799449999" lon="8.572267783881598"><ele>200.0</ele><time>2026-04-06T08:01:54Z</time></trkpt><trkpt lat="39.162982569728364" lon="8.572062152188236"><ele>200.0</ele><time>2026-04-06T08:01:55Z</time></trkpt><trkpt lat="39.162780191467554" lon="8.571854051321775"><ele>196.5</ele><time>2026-04-06T08:01:56Z</time></trkpt><trkpt lat="39.16257224937188" lon="8.571641247318286"><ele>193.0</ele><time>2026-04-06T08:01:57Z</time></trkpt><trkpt lat="39.162361581306726" lon="8.571430210654812"><ele>193.0</ele><time>2026-04-06T08:01:58Z</time></trkpt><trkpt lat="39.162160453856686" lon="8.571232648494824"><ele>193.0</ele><time>2026-04-06T08:01:59Z</time></trkpt><trkpt lat="39.16197400835753" lon="8.571045715584129"><ele>188.66666666666666</ele><time>2026-04-06T08:02:00Z</time></trkpt><trkpt lat="39.161798477647984" lon="8.570864739119017"><ele>184.33333333333331</ele><time>2026-04-06T08:02:01Z</time></trkpt><trkpt lat="39.161630837183175" lon="8.570692685795171"><ele>180.0</ele><time>2026-04-06T08:02:02Z</time></trkpt><trkpt lat="39.161475903917335" lon="8.570519589435815"><ele>176.66666666666666</ele><time>2026-04-06T08:02:03Z</time></trkpt><trkpt lat="39.16134428522181" lon="8.570333013038045"><ele>173.33333333333331</ele><time>2026-04-06T08:02:04Z</time></trkpt><trkpt lat="39.16123992491523" lon="8.570134710347286"><ele>170.0</ele><time>2026-04-06T08:02:05Z</time></trkpt><trkpt lat="39.161155663195565" lon="8.569924838735925"><ele>170.0</ele><time>2026-04-06T08:02:06Z</time></trkpt><trkpt lat="39.161080574770416" lon="8.569685692105073"><ele>170.0</ele><time>2026-04-06T08:02:07Z</time></trkpt><trkpt lat="39.16102288272979" lon="8.569427125662026"><ele>170.0</ele><time>2026-04-06T08:02:08Z</time></trkpt><trkpt lat="39.16096418961406" lon="8.569147068895086"><ele>167.0</ele><time>2026-04-06T08:02:09Z</time></trkpt><trkpt lat="39.1608958605119" lon="8.568858602981901"><ele>164.0</ele><time>2026-04-06T08:02:10Z</time></trkpt><trkpt lat="39.16081716415716" lon="8.56855274062392"><ele>162.0</ele><time>2026-04-06T08:02:11Z</time></trkpt><trkpt lat="39.16073377948109" lon="8.568236704151158"><ele>160.0</ele><time>2026-04-06T08:02:12Z</time></trkpt><trkpt lat="39.16065114802358" lon="8.567911520656368"><ele>157.5</ele><time>2026-04-06T08:02:13Z</time></trkpt><trkpt lat="39.1605672874324" lon="8.5675793539889"><ele>155.0</ele><time>2026-04-06T08:02:14Z</time></trkpt><trkpt lat="39.160479640157824" lon="8.567233792040643"><ele>150.0</ele><time>2026-04-06T08:02:15Z</time></trkpt><trkpt lat="39.16038991041271" lon="8.566882314978859"><ele>145.0</ele><time>2026-04-06T08:02:16Z</time></trkpt><trkpt lat="39.160305927139866" lon="8.566549965893818"><ele>145.0</ele><time>2026-04-06T08:02:17Z</time></trkpt><trkpt lat="39.16022812335478" lon="8.56623628249883"><ele>145.0</ele><time>2026-04-06T08:02:18Z</time></trkpt><trkpt lat="39.16015215129717" lon="8.565937317190384"><ele>143.5</ele><time>2026-04-06T08:02:19Z</time></trkpt><trkpt lat="39.16007467086978" lon="8.565631942982188"><ele>142.0</ele><time>2026-04-06T08:02:20Z</time></trkpt><trkpt lat="39.15999875701507" lon="8.565328396674365"><ele>141.0</ele><time>2026-04-06T08:02:21Z</time></trkpt><trkpt lat="39.15992378477746" lon="8.565026857613356"><ele>140.0</ele><time>2026-04-06T08:02:22Z</time></trkpt><trkpt lat="39.15984849068165" lon="8.564723316948665"><ele>143.5</ele><time>2026-04-06T08:02:23Z</time></trkpt><trkpt lat="39.15977504137136" lon="8.564433206079316"><ele>147.0</ele><time>2026-04-06T08:02:24Z</time></trkpt><trkpt lat="39.15970590655049" lon="8.564162413853051"><ele>147.0</ele><time>2026-04-06T08:02:25Z</time></trkpt><trkpt lat="39.1596293139032" lon="8.563909486542116"><ele>147.0</ele><time>2026-04-06T08:02:26Z</time></trkpt><trkpt lat="39.15952935803033" lon="8.563689079685846"><ele>147.0</ele><time>2026-04-06T08:02:27Z</time></trkpt><trkpt lat="39.15939808060227" lon="8.563489475893258"><ele>143.0</ele><time>2026-04-06T08:02:28Z</time></trkpt><trkpt lat="39.159259474448966" lon="8.563314797514435"><ele>139.0</ele><time>2026-04-06T08:02:29Z</time></trkpt><trkpt lat="39.15913713047993" lon="8.563162725572125"><ele>135.0</ele><time>2026-04-06T08:02:30Z</time></trkpt><trkpt lat="39.15903825244044" lon="8.563026155132595"><ele>138.0</ele><time>2026-04-06T08:02:31Z</time></trkpt><trkpt lat="39.15895583649651" lon="8.562895644045529"><ele>141.0</ele><time>2026-04-06T08:02:32Z</time></trkpt><trkpt lat="39.15888750912613" lon="8.562757647008292"><ele>144.0</ele><time>2026-04-06T08:02:33Z</time></trkpt><trkpt lat="39.15884342458846" lon="8.56260926081554"><ele>147.0</ele><time>2026-04-06T08:02:34Z</time></trkpt><trkpt lat="39.15881862813413" lon="8.562446150988757"><ele>147.0</ele><time>2026-04-06T08:02:35Z</time></trkpt><trkpt lat="39.15880902568718" lon="8.562269747207809"><ele>147.0</ele><time>2026-04-06T08:02:36Z</time></trkpt><trkpt lat="39.15881352485891" lon="8.562105631250276"><ele>147.0</ele><time>2026-04-06T08:02:37Z</time></trkpt><trkpt lat="39.15881981473873" lon="8.561951056611647"><ele>147.0</ele><time>2026-04-06T08:02:38Z</time></trkpt><trkpt lat="39.15882810004818" lon="8.561798579745515"><ele>147.25</ele><time>2026-04-06T08:02:39Z</time></trkpt><trkpt lat="39.15883129022514" lon="8.561634507089316"><ele>147.5</ele><time>2026-04-06T08:02:40Z</time></trkpt><trkpt lat="39.15882902930759" lon="8.561478343476953"><ele>147.75</ele><time>2026-04-06T08:02:41Z</time></trkpt><trkpt lat="39.158815651054674" lon="8.561316748139852"><ele>148.0</ele><time>2026-04-06T08:02:42Z</time></trkpt><trkpt lat="39.15877745087608" lon="8.561151711105474"><ele>144.33333333333334</ele><time>2026-04-06T08:02:43Z</time></trkpt><trkpt lat="39.158714542767626" lon="8.560974531127899"><ele>140.66666666666666</ele><time>2026-04-06T08:02:44Z</time></trkpt><trkpt lat="39.15862533831067" lon="8.5607682687966"><ele>137.0</ele><time>2026-04-06T08:02:45Z</time></trkpt><trkpt lat="39.15853490863339" lon="8.56053125470859"><ele>133.0</ele><time>2026-04-06T08:02:46Z</time></trkpt><trkpt lat="39.15842784651506" lon="8.560271924290772"><ele>129.0</ele><time>2026-04-06T08:02:47Z</time></trkpt><trkpt lat="39.158314965667564" lon="8.56002546790884"><ele>129.0</ele><time>2026-04-06T08:02:48Z</time></trkpt><trkpt lat="39.158215952426914" lon="8.5597887139059"><ele>129.0</ele><time>2026-04-06T08:02:49Z</time></trkpt><trkpt lat="39.158114665517985" lon="8.559571490346366"><ele>129.0</ele><time>2026-04-06T08:02:50.001Z</time></trkpt><trkpt lat="39.15802340055647" lon="8.559359811403015"><ele>129.66666666666666</ele><time>2026-04-06T08:02:51.001Z</time></trkpt><trkpt lat="39.15793889605414" lon="8.559138257122328"><ele>130.33333333333331</ele><time>2026-04-06T08:02:52.001Z</time></trkpt><trkpt lat="39.15786156133651" lon="8.55891474642179"><ele>131.0</ele><time>2026-04-06T08:02:53.001Z</time></trkpt><trkpt lat="39.157801218363055" lon="8.558703176296222"><ele>130.0</ele><time>2026-04-06T08:02:54.001Z</time></trkpt><trkpt lat="39.157770271212094" lon="8.558509092175393"><ele>129.0</ele><time>2026-04-06T08:02:55.001Z</time></trkpt><trkpt lat="39.15777843224538" lon="8.558329187443302"><ele>128.0</ele><time>2026-04-06T08:02:56.001Z</time></trkpt><trkpt lat="39.15786361648391" lon="8.55815982166227"><ele>128.0</ele><time>2026-04-06T08:02:57.001Z</time></trkpt><trkpt lat="39.157878177255036" lon="8.557963593577442"><ele>128.0</ele><time>2026-04-06T08:02:58.001Z</time></trkpt><trkpt lat="39.157935721909055" lon="8.557811351952363"><ele>128.0</ele><time>2026-04-06T08:02:59.001Z</time></trkpt><trkpt lat="39.15797112992901" lon="8.557564819904437"><ele>127.66666666666666</ele><time>2026-04-06T08:03:00.001Z</time></trkpt><trkpt lat="39.15803710639061" lon="8.55733304840745"><ele>127.33333333333334</ele><time>2026-04-06T08:03:01.001Z</time></trkpt><trkpt lat="39.15806807798765" lon="8.557080714249686"><ele>127.0</ele><time>2026-04-06T08:03:02.001Z</time></trkpt><trkpt lat="39.1581079329261" lon="8.556824629711308"><ele>127.66666666666667</ele><time>2026-04-06T08:03:03.001Z</time></trkpt><trkpt lat="39.15815038019608" lon="8.5565596258585"><ele>128.33333333333334</ele><time>2026-04-06T08:03:04.001Z</time></trkpt><trkpt lat="39.15818931466396" lon="8.556315730861256"><ele>129.0</ele><time>2026-04-06T08:03:05.001Z</time></trkpt><trkpt lat="39.15823121348011" lon="8.556069554984782"><ele>126.66666666666666</ele><time>2026-04-06T08:03:06.001Z</time></trkpt><trkpt lat="39.1582699337385" lon="8.555820065991687"><ele>124.33333333333333</ele><time>2026-04-06T08:03:07.001Z</time></trkpt><trkpt lat="39.158300502474226" lon="8.555567022378055"><ele>122.0</ele><time>2026-04-06T08:03:08.001Z</time></trkpt><trkpt lat="39.158355830890045" lon="8.555313432096938"><ele>121.33333333333333</ele><time>2026-04-06T08:03:09.001Z</time></trkpt><trkpt lat="39.158391484587604" lon="8.555061586233753"><ele>120.66666666666666</ele><time>2026-04-06T08:03:10.001Z</time></trkpt><trkpt lat="39.15841033319399" lon="8.554813374995001"><ele>120.0</ele><time>2026-04-06T08:03:11.001Z</time></trkpt><trkpt lat="39.15842385689305" lon="8.554563107477836"><ele>119.0</ele><time>2026-04-06T08:03:12.001Z</time></trkpt><trkpt lat="39.1584043594466" lon="8.554316917977062"><ele>118.0</ele><time>2026-04-06T08:03:13.001Z</time></trkpt><trkpt lat="39.15836655630078" lon="8.554074381170903"><ele>117.0</ele><time>2026-04-06T08:03:14.001Z</time></trkpt><trkpt lat="39.15832486242428" lon="8.553833882991357"><ele>116.33333333333334</ele><time>2026-04-06T08:03:15.001Z</time></trkpt><trkpt lat="39.15828642732053" lon="8.553609136316206"><ele>115.66666666666667</ele><time>2026-04-06T08:03:16.001Z</time></trkpt><trkpt lat="39.15825422747423" lon="8.553396579251386"><ele>115.0</ele><time>2026-04-06T08:03:17.001Z</time></trkpt><trkpt lat="39.158236826098545" lon="8.553205982492553"><ele>115.0</ele><time>2026-04-06T08:03:18.001Z</time></trkpt><trkpt lat="39.158265469123066" lon="8.55303014254313"><ele>115.0</ele><time>2026-04-06T08:03:19.001Z</time></trkpt><trkpt lat="39.158305760323444" lon="8.552859318877806"><ele>115.0</ele><time>2026-04-06T08:03:20.001Z</time></trkpt><trkpt lat="39.1583668821903" lon="8.552704472178373"><ele>115.0</ele><time>2026-04-06T08:03:21.001Z</time></trkpt><trkpt lat="39.15847217094931" lon="8.552580550760924"><ele>114.75</ele><time>2026-04-06T08:03:22.001Z</time></trkpt><trkpt lat="39.15858788659112" lon="8.552476096246963"><ele>114.5</ele><time>2026-04-06T08:03:23.001Z</time></trkpt><trkpt lat="39.158706946621365" lon="8.552369801913315"><ele>114.25</ele><time>2026-04-06T08:03:24.001Z</time></trkpt><trkpt lat="39.15882436969134" lon="8.552246502853707"><ele>114.0</ele><time>2026-04-06T08:03:25.001Z</time></trkpt><trkpt lat="39.15893622719039" lon="8.552137011947108"><ele>114.0</ele><time>2026-04-06T08:03:26.001Z</time></trkpt><trkpt lat="39.15903014203443" lon="8.552015374332314"><ele>114.0</ele><time>2026-04-06T08:03:27.001Z</time></trkpt><trkpt lat="39.159098461529986" lon="8.551877502583345"><ele>114.0</ele><time>2026-04-06T08:03:28.001Z</time></trkpt><trkpt lat="39.15914676805853" lon="8.55171600690707"><ele>114.0</ele><time>2026-04-06T08:03:29.001Z</time></trkpt><trkpt lat="39.15916929216676" lon="8.55153640430963"><ele>114.0</ele><time>2026-04-06T08:03:30.001Z</time></trkpt><trkpt lat="39.159162835069296" lon="8.551346393575436"><ele>114.0</ele><time>2026-04-06T08:03:31Z</time></trkpt><trkpt lat="39.15912947092408" lon="8.551156726112497"><ele>114.0</ele><time>2026-04-06T08:03:32Z</time></trkpt><trkpt lat="39.1590862971579" lon="8.550965282158744"><ele>113.66666666666666</ele><time>2026-04-06T08:03:33Z</time></trkpt><trkpt lat="39.15904083073687" lon="8.55077282961665"><ele>113.33333333333333</ele><time>2026-04-06T08:03:34Z</time></trkpt><trkpt lat="39.158996430997746" lon="8.550573985465398"><ele>113.0</ele><time>2026-04-06T08:03:35Z</time></trkpt><trkpt lat="39.15897358176701" lon="8.550369025559107"><ele>111.33333333333333</ele><time>2026-04-06T08:03:36Z</time></trkpt><trkpt lat="39.15891922357835" lon="8.550169686196883"><ele>109.66666666666666</ele><time>2026-04-06T08:03:37Z</time></trkpt><trkpt lat="39.15889283001934" lon="8.549966721023793"><ele>108.0</ele><time>2026-04-06T08:03:38Z</time></trkpt><trkpt lat="39.15888240708782" lon="8.54975848838029"><ele>108.0</ele><time>2026-04-06T08:03:39Z</time></trkpt><trkpt lat="39.15892050976274" lon="8.549560923168185"><ele>108.0</ele><time>2026-04-06T08:03:40Z</time></trkpt><trkpt lat="39.15896028334647" lon="8.549363788791652"><ele>108.0</ele><time>2026-04-06T08:03:41Z</time></trkpt><trkpt lat="39.15900891978186" lon="8.549158209772807"><ele>108.33333333333334</ele><time>2026-04-06T08:03:42Z</time></trkpt><trkpt lat="39.15904663422031" lon="8.548946559693738"><ele>108.66666666666667</ele><time>2026-04-06T08:03:43Z</time></trkpt><trkpt lat="39.15909617190697" lon="8.548738033947354"><ele>109.0</ele><time>2026-04-06T08:03:44Z</time></trkpt><trkpt lat="39.159137227529186" lon="8.548529385860327"><ele>109.0</ele><time>2026-04-06T08:03:45Z</time></trkpt><trkpt lat="39.159155464628924" lon="8.548323827816597"><ele>109.0</ele><time>2026-04-06T08:03:46Z</time></trkpt><trkpt lat="39.15914733145909" lon="8.548122913589632"><ele>109.0</ele><time>2026-04-06T08:03:47Z</time></trkpt><trkpt lat="39.15910636127906" lon="8.547923158382229"><ele>108.0</ele><time>2026-04-06T08:03:48Z</time></trkpt><trkpt lat="39.15903796661177" lon="8.54772633930216"><ele>107.0</ele><time>2026-04-06T08:03:49Z</time></trkpt><trkpt lat="39.15894579995387" lon="8.54753879613152"><ele>106.0</ele><time>2026-04-06T08:03:50Z</time></trkpt><trkpt lat="39.15884594503804" lon="8.547349936849038"><ele>106.0</ele><time>2026-04-06T08:03:51Z</time></trkpt><trkpt lat="39.158745083362305" lon="8.5471581447586"><ele>106.0</ele><time>2026-04-06T08:03:52Z</time></trkpt><trkpt lat="39.15864952584092" lon="8.546957251277489"><ele>106.0</ele><time>2026-04-06T08:03:53Z</time></trkpt><trkpt lat="39.15856751885111" lon="8.546736740356211"><ele>105.66666666666667</ele><time>2026-04-06T08:03:54Z</time></trkpt><trkpt lat="39.15850329608137" lon="8.546507333717754"><ele>105.33333333333334</ele><time>2026-04-06T08:03:55Z</time></trkpt><trkpt lat="39.158473994625126" lon="8.54625759643237"><ele>105.0</ele><time>2026-04-06T08:03:56Z</time></trkpt><trkpt lat="39.15842193678252" lon="8.546019550452542"><ele>104.66666666666666</ele><time>2026-04-06T08:03:57Z</time></trkpt><trkpt lat="39.15839392912543" lon="8.545778013970084"><ele>104.33333333333333</ele><time>2026-04-06T08:03:58Z</time></trkpt><trkpt lat="39.15837102201036" lon="8.545537642062541"><ele>104.0</ele><time>2026-04-06T08:03:59Z</time></trkpt><trkpt lat="39.1583530579591" lon="8.545300960223912"><ele>104.0</ele><time>2026-04-06T08:04:00Z</time></trkpt><trkpt lat="39.15834379109047" lon="8.545065254110774"><ele>104.0</ele><time>2026-04-06T08:04:01Z</time></trkpt><trkpt lat="39.1583388816114" lon="8.544828756290155"><ele>104.0</ele><time>2026-04-06T08:04:02Z</time></trkpt><trkpt lat="39.15834173679634" lon="8.544598521136965"><ele>103.0</ele><time>2026-04-06T08:04:03Z</time></trkpt><trkpt lat="39.158348705071816" lon="8.54436619943497"><ele>102.0</ele><time>2026-04-06T08:04:04Z</time></trkpt><trkpt lat="39.158354463965374" lon="8.544141522882642"><ele>101.0</ele><time>2026-04-06T08:04:05Z</time></trkpt><trkpt lat="39.15834589841703" lon="8.543927682822934"><ele>101.0</ele><time>2026-04-06T08:04:06Z</time></trkpt><trkpt lat="39.158311695795874" lon="8.543720504313745"><ele>101.0</ele><time>2026-04-06T08:04:07Z</time></trkpt><trkpt lat="39.158244706448556" lon="8.543518970420342"><ele>101.0</ele><time>2026-04-06T08:04:08Z</time></trkpt><trkpt lat="39.158145344989855" lon="8.543331908042301"><ele>99.33333333333333</ele><time>2026-04-06T08:04:09Z</time></trkpt><trkpt lat="39.15801976266013" lon="8.543162550977856"><ele>97.66666666666666</ele><time>2026-04-06T08:04:10Z</time></trkpt><trkpt lat="39.15788421008979" lon="8.543010596014838"><ele>96.0</ele><time>2026-04-06T08:04:11Z</time></trkpt><trkpt lat="39.157744556754345" lon="8.54285805756532"><ele>95.66666666666667</ele><time>2026-04-06T08:04:12Z</time></trkpt><trkpt lat="39.15760333730148" lon="8.542699302639623"><ele>95.33333333333334</ele><time>2026-04-06T08:04:13Z</time></trkpt><trkpt lat="39.15746449663871" lon="8.542536788781636"><ele>95.0</ele><time>2026-04-06T08:04:14Z</time></trkpt><trkpt lat="39.15732423933073" lon="8.542371948975656"><ele>95.0</ele><time>2026-04-06T08:04:15Z</time></trkpt><trkpt lat="39.15718743424587" lon="8.54221400348796"><ele>95.0</ele><time>2026-04-06T08:04:16Z</time></trkpt><trkpt lat="39.15706197631777" lon="8.54206577586063"><ele>95.0</ele><time>2026-04-06T08:04:17Z</time></trkpt><trkpt lat="39.15694345579082" lon="8.541926677045257"><ele>94.75</ele><time>2026-04-06T08:04:18Z</time></trkpt><trkpt lat="39.15683412900429" lon="8.541794441097975"><ele>94.5</ele><time>2026-04-06T08:04:19Z</time></trkpt><trkpt lat="39.15674731179349" lon="8.54167388429379"><ele>94.25</ele><time>2026-04-06T08:04:20Z</time></trkpt><trkpt lat="39.15667871765351" lon="8.541563371888632"><ele>94.0</ele><time>2026-04-06T08:04:21Z</time></trkpt><trkpt lat="39.15662885885869" lon="8.54146865800926"><ele>94.0</ele><time>2026-04-06T08:04:22Z</time></trkpt><trkpt lat="39.15658875841607" lon="8.541387687963509"><ele>94.0</ele><time>2026-04-06T08:04:23Z</time></trkpt><trkpt lat="39.1565500142003" lon="8.541302420810098"><ele>94.0</ele><time>2026-04-06T08:04:24Z</time></trkpt><trkpt lat="39.156517162133774" lon="8.541198926213474"><ele>94.0</ele><time>2026-04-06T08:04:25Z</time></trkpt><trkpt lat="39.156480038985045" lon="8.541065392460007"><ele>94.0</ele><time>2026-04-06T08:04:26Z</time></trkpt><trkpt lat="39.15646229238481" lon="8.540908204446925"><ele>93.6</ele><time>2026-04-06T08:04:27Z</time></trkpt><trkpt lat="39.15646742893554" lon="8.540767957698355"><ele>93.2</ele><time>2026-04-06T08:04:28Z</time></trkpt><trkpt lat="39.1564845114423" lon="8.540648144893925"><ele>92.8</ele><time>2026-04-06T08:04:29.001Z</time></trkpt><trkpt lat="39.15651797043671" lon="8.540542438062346"><ele>92.39999999999999</ele><time>2026-04-06T08:04:30.001Z</time></trkpt><trkpt lat="39.156592420237416" lon="8.540451705201791"><ele>92.0</ele><time>2026-04-06T08:04:31.001Z</time></trkpt><trkpt lat="39.156646247980554" lon="8.540335756326327"><ele>91.6</ele><time>2026-04-06T08:04:32.001Z</time></trkpt><trkpt lat="39.1566746160656" lon="8.540229156400027"><ele>91.19999999999999</ele><time>2026-04-06T08:04:33.001Z</time></trkpt><trkpt lat="39.15670722558078" lon="8.540156615032313"><ele>90.8</ele><time>2026-04-06T08:04:34.001Z</time></trkpt><trkpt lat="39.15683506054011" lon="8.540146927359288"><ele>90.4</ele><time>2026-04-06T08:04:35.001Z</time></trkpt><trkpt lat="39.15695093471579" lon="8.540130294995027"><ele>90.0</ele><time>2026-04-06T08:04:36.001Z</time></trkpt><trkpt lat="39.15707907370047" lon="8.540090617858846"><ele>90.0</ele><time>2026-04-06T08:04:37.001Z</time></trkpt><trkpt lat="39.15718734201064" lon="8.540057808813586"><ele>90.0</ele><time>2026-04-06T08:04:38.001Z</time></trkpt><trkpt lat="39.15727083602446" lon="8.540036582005168"><ele>90.0</ele><time>2026-04-06T08:04:39.001Z</time></trkpt><trkpt lat="39.15733907853186" lon="8.539994610416963"><ele>90.0</ele><time>2026-04-06T08:04:40.001Z</time></trkpt><trkpt lat="39.15737863435878" lon="8.539926123043951"><ele>90.0</ele><time>2026-04-06T08:04:41.001Z</time></trkpt><trkpt lat="39.157415148778114" lon="8.539732980002443"><ele>89.83333333333333</ele><time>2026-04-06T08:04:43.001Z</time></trkpt><trkpt lat="39.15741043987364" lon="8.53962640883601"><ele>89.66666666666667</ele><time>2026-04-06T08:04:44.001Z</time></trkpt><trkpt lat="39.157401372619105" lon="8.539516435314583"><ele>89.5</ele><time>2026-04-06T08:04:45.001Z</time></trkpt><trkpt lat="39.157391112708844" lon="8.53941173334147"><ele>89.33333333333334</ele><time>2026-04-06T08:04:46.001Z</time></trkpt><trkpt lat="39.15738818828398" lon="8.539303502593295"><ele>89.16666666666667</ele><time>2026-04-06T08:04:47.001Z</time></trkpt><trkpt lat="39.15738380666907" lon="8.539203852429603"><ele>89.0</ele><time>2026-04-06T08:04:48.001Z</time></trkpt><trkpt lat="39.15736832389847" lon="8.539093412158927"><ele>89.0</ele><time>2026-04-06T08:04:49.001Z</time></trkpt><trkpt lat="39.15736072656287" lon="8.538967953249843"><ele>89.0</ele><time>2026-04-06T08:04:50.001Z</time></trkpt><trkpt lat="39.15735812580527" lon="8.538823695156452"><ele>89.0</ele><time>2026-04-06T08:04:51.001Z</time></trkpt><trkpt lat="39.15735856276588" lon="8.538672103636456"><ele>89.0</ele><time>2026-04-06T08:04:52.001Z</time></trkpt><trkpt lat="39.157357713452534" lon="8.538528086047533"><ele>89.0</ele><time>2026-04-06T08:04:53.001Z</time></trkpt><trkpt lat="39.157351990922955" lon="8.538387859512824"><ele>88.6</ele><time>2026-04-06T08:04:54.001Z</time></trkpt><trkpt lat="39.15735528445528" lon="8.538253798712852"><ele>88.2</ele><time>2026-04-06T08:04:55.001Z</time></trkpt><trkpt lat="39.15735384135767" lon="8.538119169785494"><ele>87.8</ele><time>2026-04-06T08:04:56.001Z</time></trkpt><trkpt lat="39.15732701665997" lon="8.53798020084345"><ele>87.39999999999999</ele><time>2026-04-06T08:04:57.001Z</time></trkpt><trkpt lat="39.157303124847424" lon="8.537825651788589"><ele>87.0</ele><time>2026-04-06T08:04:58.001Z</time></trkpt><trkpt lat="39.15726393662422" lon="8.537671191241255"><ele>87.0</ele><time>2026-04-06T08:04:59.001Z</time></trkpt><trkpt lat="39.15722304855276" lon="8.537512171344924"><ele>87.0</ele><time>2026-04-06T08:05:00.001Z</time></trkpt><trkpt lat="39.157179369282524" lon="8.537347394099012"><ele>87.0</ele><time>2026-04-06T08:05:01.001Z</time></trkpt><trkpt lat="39.157136198570896" lon="8.537184535325146"><ele>87.0</ele><time>2026-04-06T08:05:02.001Z</time></trkpt><trkpt lat="39.15709160503943" lon="8.537022059088645"><ele>87.0</ele><time>2026-04-06T08:05:03.001Z</time></trkpt><trkpt lat="39.157035316943904" lon="8.536869551567076"><ele>87.0</ele><time>2026-04-06T08:05:04.001Z</time></trkpt><trkpt lat="39.15699009365276" lon="8.536710136099336"><ele>87.0</ele><time>2026-04-06T08:05:05.001Z</time></trkpt><trkpt lat="39.156942036474874" lon="8.53654678207076"><ele>87.0</ele><time>2026-04-06T08:05:06.001Z</time></trkpt><trkpt lat="39.15689884633934" lon="8.53638338660307"><ele>87.0</ele><time>2026-04-06T08:05:07.001Z</time></trkpt><trkpt lat="39.15685711439616" lon="8.536224688226815"><ele>87.0</ele><time>2026-04-06T08:05:08.001Z</time></trkpt><trkpt lat="39.1568139151279" lon="8.536066537982483"><ele>87.0</ele><time>2026-04-06T08:05:09.001Z</time></trkpt><trkpt lat="39.156770671562406" lon="8.535912729399614"><ele>87.0</ele><time>2026-04-06T08:05:10.001Z</time></trkpt><trkpt lat="39.15672878125584" lon="8.53575808894505"><ele>87.0</ele><time>2026-04-06T08:05:11.001Z</time></trkpt><trkpt lat="39.156689209792674" lon="8.535602143653659"><ele>87.0</ele><time>2026-04-06T08:05:12.001Z</time></trkpt><trkpt lat="39.1566515291471" lon="8.535442854705613"><ele>87.0</ele><time>2026-04-06T08:05:13.001Z</time></trkpt><trkpt lat="39.15660978039879" lon="8.535277405398137"><ele>87.0</ele><time>2026-04-06T08:05:14.002Z</time></trkpt><trkpt lat="39.1565624404557" lon="8.535112380619463"><ele>84.66666666666667</ele><time>2026-04-06T08:05:15.002Z</time></trkpt><trkpt lat="39.156511630605266" lon="8.534919973913897"><ele>82.33333333333334</ele><time>2026-04-06T08:05:16.002Z</time></trkpt><trkpt lat="39.15646441528274" lon="8.534732739556055"><ele>80.0</ele><time>2026-04-06T08:05:17.002Z</time></trkpt><trkpt lat="39.15641681616508" lon="8.534536277202587"><ele>79.66666666666667</ele><time>2026-04-06T08:05:18.002Z</time></trkpt><trkpt lat="39.15636531943703" lon="8.534339288361535"><ele>79.33333333333333</ele><time>2026-04-06T08:05:19.002Z</time></trkpt><trkpt lat="39.15631056211087" lon="8.534140764747526"><ele>79.0</ele><time>2026-04-06T08:05:20.002Z</time></trkpt><trkpt lat="39.156258140307635" lon="8.533941814096407"><ele>79.0</ele><time>2026-04-06T08:05:21.002Z</time></trkpt><trkpt lat="39.15621293801717" lon="8.533748141627873"><ele>79.0</ele><time>2026-04-06T08:05:22.002Z</time></trkpt><trkpt lat="39.15616749300426" lon="8.533569208881051"><ele>79.0</ele><time>2026-04-06T08:05:23.002Z</time></trkpt><trkpt lat="39.15611836835438" lon="8.533396329097984"><ele>79.0</ele><time>2026-04-06T08:05:24.002Z</time></trkpt><trkpt lat="39.15607109393777" lon="8.533224601575482"><ele>79.25</ele><time>2026-04-06T08:05:25.002Z</time></trkpt><trkpt lat="39.156025809677054" lon="8.533057872170748"><ele>79.5</ele><time>2026-04-06T08:05:26.002Z</time></trkpt><trkpt lat="39.155979232130406" lon="8.53289239483047"><ele>79.75</ele><time>2026-04-06T08:05:27.002Z</time></trkpt><trkpt lat="39.155933012037714" lon="8.53272863779721"><ele>80.0</ele><time>2026-04-06T08:05:28.001Z</time></trkpt><trkpt lat="39.15588875130533" lon="8.532562990661734"><ele>79.5</ele><time>2026-04-06T08:05:29.001Z</time></trkpt><trkpt lat="39.15585302353735" lon="8.532404449654923"><ele>79.0</ele><time>2026-04-06T08:05:30.001Z</time></trkpt><trkpt lat="39.15582342181295" lon="8.532247642431642"><ele>78.5</ele><time>2026-04-06T08:05:31.001Z</time></trkpt><trkpt lat="39.15578649907517" lon="8.532097890687732"><ele>78.0</ele><time>2026-04-06T08:05:32.001Z</time></trkpt><trkpt lat="39.15574361042827" lon="8.531951441132597"><ele>77.5</ele><time>2026-04-06T08:05:33.001Z</time></trkpt><trkpt lat="39.15570111419475" lon="8.53179995297855"><ele>77.0</ele><time>2026-04-06T08:05:34.001Z</time></trkpt><trkpt lat="39.155655715241885" lon="8.53164331351349"><ele>76.5</ele><time>2026-04-06T08:05:35.001Z</time></trkpt><trkpt lat="39.155610977873486" lon="8.531483846094122"><ele>76.0</ele><time>2026-04-06T08:05:36.001Z</time></trkpt><trkpt lat="39.15556717685219" lon="8.531316770692715"><ele>76.25</ele><time>2026-04-06T08:05:37.001Z</time></trkpt><trkpt lat="39.155521107985265" lon="8.531150686258597"><ele>76.5</ele><time>2026-04-06T08:05:38.001Z</time></trkpt><trkpt lat="39.15548050761893" lon="8.531001003521249"><ele>76.75</ele><time>2026-04-06T08:05:39.001Z</time></trkpt><trkpt lat="39.155442028862694" lon="8.530861111308392"><ele>77.0</ele><time>2026-04-06T08:05:40.001Z</time></trkpt><trkpt lat="39.155420964966424" lon="8.530713406554057"><ele>77.0</ele><time>2026-04-06T08:05:41.001Z</time></trkpt><trkpt lat="39.15536967063707" lon="8.53058106051484"><ele>77.0</ele><time>2026-04-06T08:05:42.001Z</time></trkpt><trkpt lat="39.15535342086185" lon="8.530444693537175"><ele>77.0</ele><time>2026-04-06T08:05:43.001Z</time></trkpt><trkpt lat="39.15531117838269" lon="8.530323608405642"><ele>77.0</ele><time>2026-04-06T08:05:44.001Z</time></trkpt><trkpt lat="39.15530068669233" lon="8.530196455774197"><ele>77.0</ele><time>2026-04-06T08:05:45.001Z</time></trkpt><trkpt lat="39.15528181212064" lon="8.53008169837483"><ele>77.0</ele><time>2026-04-06T08:05:46.001Z</time></trkpt><trkpt lat="39.15525037520771" lon="8.52997825660173"><ele>77.0</ele><time>2026-04-06T08:05:47.001Z</time></trkpt><trkpt lat="39.15523220163008" lon="8.52985890599463"><ele>77.0</ele><time>2026-04-06T08:05:48.001Z</time></trkpt><trkpt lat="39.155232852433926" lon="8.52972150561754"><ele>77.0</ele><time>2026-04-06T08:05:49.001Z</time></trkpt><trkpt lat="39.155221244882554" lon="8.529570916112451"><ele>77.0</ele><time>2026-04-06T08:05:50.001Z</time></trkpt><trkpt lat="39.15519690163258" lon="8.529415526434535"><ele>77.0</ele><time>2026-04-06T08:05:51.001Z</time></trkpt><trkpt lat="39.15519082602985" lon="8.52926655057985"><ele>77.0</ele><time>2026-04-06T08:05:52.001Z</time></trkpt><trkpt lat="39.15518022002508" lon="8.529126165174944"><ele>77.0</ele><time>2026-04-06T08:05:53.001Z</time></trkpt><trkpt lat="39.15517205616531" lon="8.528975116771559"><ele>77.0</ele><time>2026-04-06T08:05:54.001Z</time></trkpt><trkpt lat="39.15516416829164" lon="8.528824345976878"><ele>76.75</ele><time>2026-04-06T08:05:55.001Z</time></trkpt><trkpt lat="39.155152033295956" lon="8.52866455884215"><ele>76.5</ele><time>2026-04-06T08:05:56.001Z</time></trkpt><trkpt lat="39.15514031962993" lon="8.528500287028399"><ele>76.25</ele><time>2026-04-06T08:05:57.001Z</time></trkpt><trkpt lat="39.155128067935244" lon="8.528337841374523"><ele>76.0</ele><time>2026-04-06T08:05:58.001Z</time></trkpt><trkpt lat="39.15511734985177" lon="8.528175157720474"><ele>76.0</ele><time>2026-04-06T08:05:59.001Z</time></trkpt><trkpt lat="39.1551058810438" lon="8.528011951457314"><ele>76.0</ele><time>2026-04-06T08:06:00.001Z</time></trkpt><trkpt lat="39.15509524457028" lon="8.527852005299685"><ele>76.0</ele><time>2026-04-06T08:06:01.001Z</time></trkpt><trkpt lat="39.15508668310189" lon="8.527697014249703"><ele>76.0</ele><time>2026-04-06T08:06:02.001Z</time></trkpt><trkpt lat="39.15507854181328" lon="8.527550616425906"><ele>76.0</ele><time>2026-04-06T08:06:03.001Z</time></trkpt><trkpt lat="39.155073367597716" lon="8.527414508740044"><ele>76.0</ele><time>2026-04-06T08:06:04.001Z</time></trkpt><trkpt lat="39.155068568053764" lon="8.52728414650122"><ele>76.0</ele><time>2026-04-06T08:06:05.001Z</time></trkpt><trkpt lat="39.15506432476495" lon="8.527131898198476"><ele>76.0</ele><time>2026-04-06T08:06:06.001Z</time></trkpt><trkpt lat="39.15508962646823" lon="8.526969815124968"><ele>76.0</ele><time>2026-04-06T08:06:07.001Z</time></trkpt><trkpt lat="39.155116012462884" lon="8.52679984275546"><ele>76.0</ele><time>2026-04-06T08:06:08.001Z</time></trkpt><trkpt lat="39.155151419959644" lon="8.526613125335484"><ele>76.0</ele><time>2026-04-06T08:06:09.001Z</time></trkpt><trkpt lat="39.155207348532095" lon="8.526386926584221"><ele>74.66666666666666</ele><time>2026-04-06T08:06:10.001Z</time></trkpt><trkpt lat="39.15527330966475" lon="8.526128373296295"><ele>73.33333333333333</ele><time>2026-04-06T08:06:11.001Z</time></trkpt><trkpt lat="39.15533136628807" lon="8.52585445860012"><ele>72.0</ele><time>2026-04-06T08:06:12.001Z</time></trkpt><trkpt lat="39.15539758014529" lon="8.525607494377873"><ele>71.66666666666667</ele><time>2026-04-06T08:06:13.001Z</time></trkpt><trkpt lat="39.155451322085874" lon="8.525376756710804"><ele>71.33333333333334</ele><time>2026-04-06T08:06:14.001Z</time></trkpt><trkpt lat="39.155502226196" lon="8.525162823641162"><ele>71.0</ele><time>2026-04-06T08:06:15.001Z</time></trkpt><trkpt lat="39.155551405809135" lon="8.524963551349405"><ele>71.0</ele><time>2026-04-06T08:06:16.001Z</time></trkpt><trkpt lat="39.15559235100901" lon="8.524770321623585"><ele>71.0</ele><time>2026-04-06T08:06:17.001Z</time></trkpt><trkpt lat="39.155616336441476" lon="8.524578824208879"><ele>71.0</ele><time>2026-04-06T08:06:18.001Z</time></trkpt><trkpt lat="39.15561120167117" lon="8.524391953657492"><ele>71.0</ele><time>2026-04-06T08:06:19.001Z</time></trkpt><trkpt lat="39.15559194352516" lon="8.524203253891413"><ele>71.0</ele><time>2026-04-06T08:06:20.001Z</time></trkpt><trkpt lat="39.15555109946092" lon="8.52401626099814"><ele>71.0</ele><time>2026-04-06T08:06:21.001Z</time></trkpt><trkpt lat="39.15550850758611" lon="8.523824901401468"><ele>70.75</ele><time>2026-04-06T08:06:22.001Z</time></trkpt><trkpt lat="39.15547043549222" lon="8.523634556655738"><ele>70.5</ele><time>2026-04-06T08:06:23.001Z</time></trkpt><trkpt lat="39.15543499986151" lon="8.523444801819451"><ele>70.25</ele><time>2026-04-06T08:06:24.001Z</time></trkpt><trkpt lat="39.155400964794595" lon="8.523263289616478"><ele>70.0</ele><time>2026-04-06T08:06:25.001Z</time></trkpt><trkpt lat="39.1553667469278" lon="8.523091674019353"><ele>70.0</ele><time>2026-04-06T08:06:26.001Z</time></trkpt><trkpt lat="39.15533520465937" lon="8.522934306477064"><ele>70.0</ele><time>2026-04-06T08:06:27.001Z</time></trkpt><trkpt lat="39.155306351626095" lon="8.522782300196893"><ele>70.0</ele><time>2026-04-06T08:06:28.001Z</time></trkpt><trkpt lat="39.15527719158745" lon="8.52263100871885"><ele>70.0</ele><time>2026-04-06T08:06:29.001Z</time></trkpt><trkpt lat="39.15524772069585" lon="8.522471459480625"><ele>70.0</ele><time>2026-04-06T08:06:30.001Z</time></trkpt><trkpt lat="39.15521679919267" lon="8.52231308037259"><ele>70.0</ele><time>2026-04-06T08:06:31.001Z</time></trkpt><trkpt lat="39.15518384732248" lon="8.522151514232593"><ele>70.0</ele><time>2026-04-06T08:06:32.001Z</time></trkpt><trkpt lat="39.15514975848086" lon="8.52198580363963"><ele>70.0</ele><time>2026-04-06T08:06:33.001Z</time></trkpt><trkpt lat="39.15511908556917" lon="8.521829583919729"><ele>69.75</ele><time>2026-04-06T08:06:34.001Z</time></trkpt><trkpt lat="39.15508744589456" lon="8.52166973967224"><ele>69.5</ele><time>2026-04-06T08:06:35.001Z</time></trkpt><trkpt lat="39.15505571727594" lon="8.521510139266399"><ele>69.25</ele><time>2026-04-06T08:06:36.001Z</time></trkpt><trkpt lat="39.15502802221988" lon="8.521358514545888"><ele>69.0</ele><time>2026-04-06T08:06:37.001Z</time></trkpt><trkpt lat="39.15499839226132" lon="8.521206589686418"><ele>69.0</ele><time>2026-04-06T08:06:38.001Z</time></trkpt><trkpt lat="39.154972197276386" lon="8.521059414667304"><ele>69.0</ele><time>2026-04-06T08:06:39.001Z</time></trkpt><trkpt lat="39.15494525650034" lon="8.520901966280174"><ele>69.0</ele><time>2026-04-06T08:06:40.001Z</time></trkpt><trkpt lat="39.154913942068376" lon="8.52073751086885"><ele>69.0</ele><time>2026-04-06T08:06:41.001Z</time></trkpt><trkpt lat="39.15487811684186" lon="8.5205691533281"><ele>68.25</ele><time>2026-04-06T08:06:42.001Z</time></trkpt><trkpt lat="39.15484481443003" lon="8.520395386175466"><ele>67.5</ele><time>2026-04-06T08:06:43.001Z</time></trkpt><trkpt lat="39.15481281934317" lon="8.52023988918898"><ele>66.75</ele><time>2026-04-06T08:06:44.001Z</time></trkpt><trkpt lat="39.1547822896191" lon="8.520098330911765"><ele>66.0</ele><time>2026-04-06T08:06:45.001Z</time></trkpt><trkpt lat="39.15475425636457" lon="8.519964565000933"><ele>66.0</ele><time>2026-04-06T08:06:46.001Z</time></trkpt><trkpt lat="39.154727992166116" lon="8.519835589999325"><ele>66.0</ele><time>2026-04-06T08:06:47.001Z</time></trkpt><trkpt lat="39.15471801268181" lon="8.519695595033127"><ele>66.0</ele><time>2026-04-06T08:06:48.001Z</time></trkpt><trkpt lat="39.15469193089766" lon="8.519558013621207"><ele>66.0</ele><time>2026-04-06T08:06:49.001Z</time></trkpt><trkpt lat="39.154667219387356" lon="8.519427660428345"><ele>66.0</ele><time>2026-04-06T08:06:50.001Z</time></trkpt><trkpt lat="39.15464244238602" lon="8.519298243382172"><ele>66.2</ele><time>2026-04-06T08:06:51.001Z</time></trkpt><trkpt lat="39.154617051933336" lon="8.519165436926894"><ele>66.39999999999999</ele><time>2026-04-06T08:06:52.001Z</time></trkpt><trkpt lat="39.15459122042228" lon="8.51903029862898"><ele>66.6</ele><time>2026-04-06T08:06:53.001Z</time></trkpt><trkpt lat="39.15455032477062" lon="8.518898699200047"><ele>66.8</ele><time>2026-04-06T08:06:54.001Z</time></trkpt><trkpt lat="39.15452349194966" lon="8.518759711318962"><ele>67.0</ele><time>2026-04-06T08:06:55.001Z</time></trkpt><trkpt lat="39.154509136812756" lon="8.518604179932796"><ele>67.5</ele><time>2026-04-06T08:06:56.001Z</time></trkpt><trkpt lat="39.15447899802672" lon="8.518449627511744"><ele>68.0</ele><time>2026-04-06T08:06:57.001Z</time></trkpt><trkpt lat="39.154448174971115" lon="8.518291566156181"><ele>68.5</ele><time>2026-04-06T08:06:58.001Z</time></trkpt><trkpt lat="39.154401170274824" lon="8.518136490292697"><ele>69.0</ele><time>2026-04-06T08:06:59.001Z</time></trkpt><trkpt lat="39.15438682452729" lon="8.51797695963458"><ele>69.0</ele><time>2026-04-06T08:07:00.001Z</time></trkpt><trkpt lat="39.15435838429356" lon="8.517830402538914"><ele>69.0</ele><time>2026-04-06T08:07:01.001Z</time></trkpt><trkpt lat="39.15433131555157" lon="8.517690343623185"><ele>69.0</ele><time>2026-04-06T08:07:02.001Z</time></trkpt><trkpt lat="39.154304638276344" lon="8.51755231024451"><ele>69.0</ele><time>2026-04-06T08:07:03.001Z</time></trkpt><trkpt lat="39.154276498842115" lon="8.517406711367213"><ele>69.0</ele><time>2026-04-06T08:07:04.001Z</time></trkpt><trkpt lat="39.15424827527592" lon="8.517260677172935"><ele>69.0</ele><time>2026-04-06T08:07:05.001Z</time></trkpt><trkpt lat="39.15422146873117" lon="8.51712197491678"><ele>69.0</ele><time>2026-04-06T08:07:06.001Z</time></trkpt><trkpt lat="39.154196588145865" lon="8.516995356326097"><ele>69.0</ele><time>2026-04-06T08:07:07.001Z</time></trkpt><trkpt lat="39.15417315026636" lon="8.51687508819048"><ele>69.0</ele><time>2026-04-06T08:07:08.001Z</time></trkpt><trkpt lat="39.154156196786516" lon="8.516786966863116"><ele>69.0</ele><time>2026-04-06T08:07:09.001Z</time></trkpt><trkpt lat="39.15412533427691" lon="8.516714735415242"><ele>69.0</ele><time>2026-04-06T08:07:10.001Z</time></trkpt><trkpt lat="39.15412241603124" lon="8.516611380175707"><ele>69.0</ele><time>2026-04-06T08:07:12.001Z</time></trkpt><trkpt lat="39.15409140556376" lon="8.516502076291617"><ele>69.0</ele><time>2026-04-06T08:07:15.001Z</time></trkpt><trkpt lat="39.15395770105151" lon="8.516467500942456"><ele>69.0</ele><time>2026-04-06T08:07:17.001Z</time></trkpt><trkpt lat="39.153912051626214" lon="8.516408739187069"><ele>69.0</ele><time>2026-04-06T08:07:19.001Z</time></trkpt><trkpt lat="39.153875771254064" lon="8.516314163676602"><ele>68.66666666666667</ele><time>2026-04-06T08:07:22.001Z</time></trkpt><trkpt lat="39.15382217120811" lon="8.516250216521806"><ele>68.33333333333333</ele><time>2026-04-06T08:13:40Z</time></trkpt><trkpt lat="39.15392166805418" lon="8.51618618273865"><ele>68.0</ele><time>2026-04-06T08:13:42.001Z</time></trkpt><trkpt lat="39.15396411018062" lon="8.516114201803529"><ele>67.66666666666666</ele><time>2026-04-06T08:14:05.001Z</time></trkpt><trkpt lat="39.154004375436635" lon="8.51599994840852"><ele>67.33333333333333</ele><time>2026-04-06T08:14:07.001Z</time></trkpt><trkpt lat="39.153982944656775" lon="8.515913011670518"><ele>67.0</ele><time>2026-04-06T08:14:08.001Z</time></trkpt><trkpt lat="39.15395853184183" lon="8.515792714108967"><ele>67.0</ele><time>2026-04-06T08:14:09.001Z</time></trkpt><trkpt lat="39.15393784417784" lon="8.515673771739374"><ele>67.0</ele><time>2026-04-06T08:14:10.001Z</time></trkpt><trkpt lat="39.15391285354806" lon="8.515546648193858"><ele>67.0</ele><time>2026-04-06T08:14:11Z</time></trkpt><trkpt lat="39.15388312861362" lon="8.515412390750113"><ele>67.0</ele><time>2026-04-06T08:14:12Z</time></trkpt><trkpt lat="39.15385350407128" lon="8.515280580404264"><ele>67.0</ele><time>2026-04-06T08:14:13Z</time></trkpt><trkpt lat="39.153815659932896" lon="8.515131078422701"><ele>67.5</ele><time>2026-04-06T08:14:14Z</time></trkpt><trkpt lat="39.153769468262716" lon="8.514986079587901"><ele>68.0</ele><time>2026-04-06T08:14:15Z</time></trkpt><trkpt lat="39.153705735745866" lon="8.514838340104026"><ele>68.5</ele><time>2026-04-06T08:14:16Z</time></trkpt><trkpt lat="39.153627211257145" lon="8.514695999425973"><ele>69.0</ele><time>2026-04-06T08:14:17Z</time></trkpt><trkpt lat="39.15353941290584" lon="8.514545748246228"><ele>69.0</ele><time>2026-04-06T08:14:18Z</time></trkpt><trkpt lat="39.15345222378719" lon="8.514398706001678"><ele>69.0</ele><time>2026-04-06T08:14:19Z</time></trkpt><trkpt lat="39.153379109946634" lon="8.514230793777191"><ele>69.0</ele><time>2026-04-06T08:14:20Z</time></trkpt><trkpt lat="39.15328857096983" lon="8.514067584469052"><ele>69.0</ele><time>2026-04-06T08:14:21Z</time></trkpt><trkpt lat="39.153197197682154" lon="8.513902872175708"><ele>66.5</ele><time>2026-04-06T08:14:22Z</time></trkpt><trkpt lat="39.153107123460785" lon="8.51374060924269"><ele>64.0</ele><time>2026-04-06T08:14:23Z</time></trkpt><trkpt lat="39.15291982985478" lon="8.513424203048064"><ele>64.0</ele><time>2026-04-06T08:14:25Z</time></trkpt><trkpt lat="39.15282828304395" lon="8.513264998073943"><ele>64.0</ele><time>2026-04-06T08:14:26Z</time></trkpt><trkpt lat="39.15273625746443" lon="8.51310499803763"><ele>64.0</ele><time>2026-04-06T08:14:27Z</time></trkpt><trkpt lat="39.15264705255037" lon="8.512938664245523"><ele>63.75</ele><time>2026-04-06T08:14:28Z</time></trkpt><trkpt lat="39.152560555154444" lon="8.512779976021328"><ele>63.5</ele><time>2026-04-06T08:14:29Z</time></trkpt><trkpt lat="39.152473577462864" lon="8.512622095118088"><ele>63.25</ele><time>2026-04-06T08:14:30Z</time></trkpt><trkpt lat="39.15239010939677" lon="8.512477861303728"><ele>63.0</ele><time>2026-04-06T08:14:31Z</time></trkpt><trkpt lat="39.15230940993652" lon="8.512346383860823"><ele>63.0</ele><time>2026-04-06T08:14:32Z</time></trkpt><trkpt lat="39.15223483069417" lon="8.512212735117286"><ele>63.0</ele><time>2026-04-06T08:14:33Z</time></trkpt><trkpt lat="39.152164788084356" lon="8.51207596437841"><ele>63.0</ele><time>2026-04-06T08:14:34Z</time></trkpt><trkpt lat="39.15208596869113" lon="8.511936518958796"><ele>63.0</ele><time>2026-04-06T08:14:35Z</time></trkpt><trkpt lat="39.15200648324983" lon="8.511795462454137"><ele>63.0</ele><time>2026-04-06T08:14:36Z</time></trkpt><trkpt lat="39.15192618903521" lon="8.51165634993995"><ele>63.0</ele><time>2026-04-06T08:14:37Z</time></trkpt><trkpt lat="39.15185170580779" lon="8.511523278385416"><ele>63.0</ele><time>2026-04-06T08:14:38Z</time></trkpt><trkpt lat="39.15179295622837" lon="8.511406387486206"><ele>63.0</ele><time>2026-04-06T08:14:39Z</time></trkpt><trkpt lat="39.15175382519337" lon="8.511302965426443"><ele>62.833333333333336</ele><time>2026-04-06T08:14:40Z</time></trkpt><trkpt lat="39.15173919787895" lon="8.511195294451293"><ele>62.66666666666667</ele><time>2026-04-06T08:14:41Z</time></trkpt><trkpt lat="39.151754951073386" lon="8.511092135079785"><ele>62.5</ele><time>2026-04-06T08:14:42Z</time></trkpt><trkpt lat="39.15178871300253" lon="8.511001607257615"><ele>62.333333333333336</ele><time>2026-04-06T08:14:43Z</time></trkpt><trkpt lat="39.151840187125984" lon="8.5109254085239"><ele>62.16666666666667</ele><time>2026-04-06T08:14:44Z</time></trkpt><trkpt lat="39.15191070138809" lon="8.510871120284145"><ele>62.0</ele><time>2026-04-06T08:14:45Z</time></trkpt><trkpt lat="39.15198140068337" lon="8.510826913065344"><ele>62.0</ele><time>2026-04-06T08:14:46Z</time></trkpt><trkpt lat="39.15207665068897" lon="8.510838724720493"><ele>62.0</ele><time>2026-04-06T08:14:47Z</time></trkpt><trkpt lat="39.15217361855444" lon="8.510814813247741"><ele>62.0</ele><time>2026-04-06T08:14:48Z</time></trkpt><trkpt lat="39.15228375709966" lon="8.510783852907707"><ele>62.0</ele><time>2026-04-06T08:14:49Z</time></trkpt><trkpt lat="39.15240118995284" lon="8.510754080556367"><ele>62.0</ele><time>2026-04-06T08:14:50Z</time></trkpt><trkpt lat="39.15252131778118" lon="8.510725805235777"><ele>61.5</ele><time>2026-04-06T08:14:51Z</time></trkpt><trkpt lat="39.15264575628018" lon="8.510699104027319"><ele>61.0</ele><time>2026-04-06T08:14:52Z</time></trkpt><trkpt lat="39.152779901954496" lon="8.510675711983486"><ele>60.5</ele><time>2026-04-06T08:14:53Z</time></trkpt><trkpt lat="39.152903084101126" lon="8.510654832091674"><ele>60.0</ele><time>2026-04-06T08:14:54Z</time></trkpt><trkpt lat="39.15302599944738" lon="8.510631258580702"><ele>60.0</ele><time>2026-04-06T08:14:55Z</time></trkpt><trkpt lat="39.153143183186664" lon="8.510606003496207"><ele>60.0</ele><time>2026-04-06T08:14:56Z</time></trkpt><trkpt lat="39.15325814468671" lon="8.510583798167314"><ele>60.0</ele><time>2026-04-06T08:14:57Z</time></trkpt><trkpt lat="39.15336984878404" lon="8.51056179544249"><ele>60.0</ele><time>2026-04-06T08:14:58Z</time></trkpt><trkpt lat="39.15347200286155" lon="8.510544766779162"><ele>60.4</ele><time>2026-04-06T08:14:59Z</time></trkpt><trkpt lat="39.15356333556994" lon="8.51053403220419"><ele>60.8</ele><time>2026-04-06T08:15:00Z</time></trkpt><trkpt lat="39.15364956433522" lon="8.510547076844539"><ele>61.2</ele><time>2026-04-06T08:15:01Z</time></trkpt><trkpt lat="39.153729196631936" lon="8.510606407601287"><ele>61.6</ele><time>2026-04-06T08:15:02Z</time></trkpt><trkpt lat="39.15379602700508" lon="8.510685683452643"><ele>62.0</ele><time>2026-04-06T08:15:03Z</time></trkpt><trkpt lat="39.153879163198944" lon="8.51075561823809"><ele>62.0</ele><time>2026-04-06T08:15:04Z</time></trkpt><trkpt lat="39.15396143304489" lon="8.510793152488196"><ele>62.0</ele><time>2026-04-06T08:15:05Z</time></trkpt><trkpt lat="39.15405567568051" lon="8.510799656279598"><ele>62.0</ele><time>2026-04-06T08:15:06Z</time></trkpt><trkpt lat="39.15421470251849" lon="8.510694631108995"><ele>62.0</ele><time>2026-04-06T08:15:08Z</time></trkpt><trkpt lat="39.154275924554724" lon="8.510594633148106"><ele>61.8</ele><time>2026-04-06T08:15:09Z</time></trkpt><trkpt lat="39.15432601062389" lon="8.510475890718466"><ele>61.6</ele><time>2026-04-06T08:15:10Z</time></trkpt><trkpt lat="39.15439223374387" lon="8.510374829216238"><ele>61.39999999999999</ele><time>2026-04-06T08:15:11Z</time></trkpt><trkpt lat="39.15448763814888" lon="8.510316677797457"><ele>61.199999999999996</ele><time>2026-04-06T08:15:12Z</time></trkpt><trkpt lat="39.154616124936275" lon="8.510312943696297"><ele>61.0</ele><time>2026-04-06T08:15:13Z</time></trkpt><trkpt lat="39.15476291087636" lon="8.510275808942943"><ele>61.0</ele><time>2026-04-06T08:15:14Z</time></trkpt><trkpt lat="39.15492795989232" lon="8.510255382245559"><ele>61.0</ele><time>2026-04-06T08:15:15Z</time></trkpt><trkpt lat="39.15509902659246" lon="8.510221446224849"><ele>61.0</ele><time>2026-04-06T08:15:16Z</time></trkpt><trkpt lat="39.15525866258311" lon="8.510190607043977"><ele>61.0</ele><time>2026-04-06T08:15:17Z</time></trkpt><trkpt lat="39.155422002900856" lon="8.51015864800559"><ele>61.0</ele><time>2026-04-06T08:15:18Z</time></trkpt><trkpt lat="39.15559603944472" lon="8.510122677414978"><ele>61.0</ele><time>2026-04-06T08:15:19Z</time></trkpt><trkpt lat="39.15577993875695" lon="8.510082535253092"><ele>61.0</ele><time>2026-04-06T08:15:20Z</time></trkpt><trkpt lat="39.155968383593255" lon="8.510040570152805"><ele>61.0</ele><time>2026-04-06T08:15:21Z</time></trkpt><trkpt lat="39.15615585488175" lon="8.510004560563408"><ele>61.0</ele><time>2026-04-06T08:15:22Z</time></trkpt><trkpt lat="39.15633859712597" lon="8.509972015551398"><ele>61.0</ele><time>2026-04-06T08:15:23Z</time></trkpt><trkpt lat="39.156524895002754" lon="8.50993890251441"><ele>61.0</ele><time>2026-04-06T08:15:24Z</time></trkpt><trkpt lat="39.15672072497884" lon="8.509899695729688"><ele>61.0</ele><time>2026-04-06T08:15:25Z</time></trkpt><trkpt lat="39.15692598192539" lon="8.50985303206269"><ele>62.666666666666664</ele><time>2026-04-06T08:15:26Z</time></trkpt><trkpt lat="39.157129275828616" lon="8.509813338081859"><ele>64.33333333333333</ele><time>2026-04-06T08:15:27Z</time></trkpt><trkpt lat="39.15732493413082" lon="8.509774487638717"><ele>66.0</ele><time>2026-04-06T08:15:28Z</time></trkpt><trkpt lat="39.15751994821161" lon="8.509735482231324"><ele>68.66666666666667</ele><time>2026-04-06T08:15:29Z</time></trkpt><trkpt lat="39.15771211873705" lon="8.509692166674744"><ele>71.33333333333334</ele><time>2026-04-06T08:15:30Z</time></trkpt><trkpt lat="39.15790478547744" lon="8.509652883101932"><ele>74.0</ele><time>2026-04-06T08:15:31Z</time></trkpt><trkpt lat="39.15809810953582" lon="8.509616236344765"><ele>74.33333333333334</ele><time>2026-04-06T08:15:32Z</time></trkpt><trkpt lat="39.15828916952741" lon="8.509575420524905"><ele>74.66666666666667</ele><time>2026-04-06T08:15:33Z</time></trkpt><trkpt lat="39.15848258451373" lon="8.509536521467009"><ele>75.0</ele><time>2026-04-06T08:15:34Z</time></trkpt><trkpt lat="39.15867066903427" lon="8.509500643684847"><ele>74.33333333333333</ele><time>2026-04-06T08:15:35Z</time></trkpt><trkpt lat="39.15886316839102" lon="8.509463371640619"><ele>73.66666666666666</ele><time>2026-04-06T08:15:36Z</time></trkpt><trkpt lat="39.15905149707524" lon="8.509428601570848"><ele>73.0</ele><time>2026-04-06T08:15:37Z</time></trkpt><trkpt lat="39.15924133603353" lon="8.509392307314032"><ele>73.0</ele><time>2026-04-06T08:15:38Z</time></trkpt><trkpt lat="39.15943019059622" lon="8.509354664376195"><ele>73.0</ele><time>2026-04-06T08:15:39Z</time></trkpt><trkpt lat="39.159616776071374" lon="8.509318191340967"><ele>73.0</ele><time>2026-04-06T08:15:40Z</time></trkpt><trkpt lat="39.159806229447504" lon="8.509280092450517"><ele>73.0</ele><time>2026-04-06T08:15:41Z</time></trkpt><trkpt lat="39.15999167027662" lon="8.509244608832528"><ele>73.0</ele><time>2026-04-06T08:15:42Z</time></trkpt><trkpt lat="39.16017744392604" lon="8.509207279759496"><ele>73.0</ele><time>2026-04-06T08:15:43Z</time></trkpt><trkpt lat="39.16036108084361" lon="8.509171034512672"><ele>73.0</ele><time>2026-04-06T08:15:44Z</time></trkpt><trkpt lat="39.16054488567139" lon="8.509137163063066"><ele>73.0</ele><time>2026-04-06T08:15:45Z</time></trkpt><trkpt lat="39.16073240444111" lon="8.509100726566215"><ele>73.0</ele><time>2026-04-06T08:15:46Z</time></trkpt><trkpt lat="39.160914736357405" lon="8.509066506678641"><ele>73.0</ele><time>2026-04-06T08:15:47Z</time></trkpt><trkpt lat="39.16109678496965" lon="8.509029305926113"><ele>73.0</ele><time>2026-04-06T08:15:48Z</time></trkpt><trkpt lat="39.16127764175911" lon="8.508992301180955"><ele>73.0</ele><time>2026-04-06T08:15:49Z</time></trkpt><trkpt lat="39.1614549305453" lon="8.508956807047642"><ele>73.66666666666666</ele><time>2026-04-06T08:15:50Z</time></trkpt><trkpt lat="39.161635274874854" lon="8.508918597798646"><ele>74.33333333333333</ele><time>2026-04-06T08:15:51Z</time></trkpt><trkpt lat="39.161815484265325" lon="8.508884261564337"><ele>75.0</ele><time>2026-04-06T08:15:52Z</time></trkpt><trkpt lat="39.16199498125274" lon="8.508849799409125"><ele>75.0</ele><time>2026-04-06T08:15:53Z</time></trkpt><trkpt lat="39.16217606050427" lon="8.508815844586898"><ele>75.0</ele><time>2026-04-06T08:15:54Z</time></trkpt><trkpt lat="39.16235729698412" lon="8.508779665797743"><ele>75.0</ele><time>2026-04-06T08:15:55Z</time></trkpt><trkpt lat="39.16254004660494" lon="8.508741527724204"><ele>74.0</ele><time>2026-04-06T08:15:56Z</time></trkpt><trkpt lat="39.16272161676684" lon="8.508702536633749"><ele>73.0</ele><time>2026-04-06T08:15:57Z</time></trkpt><trkpt lat="39.162904017913" lon="8.508659190158916"><ele>72.0</ele><time>2026-04-06T08:15:58Z</time></trkpt><trkpt lat="39.16308697704703" lon="8.508611955124985"><ele>72.33333333333333</ele><time>2026-04-06T08:15:59Z</time></trkpt><trkpt lat="39.1632678084547" lon="8.508560453224256"><ele>72.66666666666666</ele><time>2026-04-06T08:16:00Z</time></trkpt><trkpt lat="39.16345127655823" lon="8.50850327742175"><ele>73.0</ele><time>2026-04-06T08:16:01Z</time></trkpt><trkpt lat="39.16363635911281" lon="8.508441983092519"><ele>73.0</ele><time>2026-04-06T08:16:02Z</time></trkpt><trkpt lat="39.16381896260549" lon="8.508376793458837"><ele>73.0</ele><time>2026-04-06T08:16:03Z</time></trkpt><trkpt lat="39.16399987052229" lon="8.508299870060286"><ele>73.0</ele><time>2026-04-06T08:16:04Z</time></trkpt><trkpt lat="39.1641798404202" lon="8.508215486385085"><ele>73.0</ele><time>2026-04-06T08:16:05Z</time></trkpt><trkpt lat="39.16435719125739" lon="8.50813314076241"><ele>73.0</ele><time>2026-04-06T08:16:06Z</time></trkpt><trkpt lat="39.164527330721384" lon="8.508074356387235"><ele>73.0</ele><time>2026-04-06T08:16:07Z</time></trkpt><trkpt lat="39.16467817779713" lon="8.507999938586359"><ele>73.0</ele><time>2026-04-06T08:16:08Z</time></trkpt><trkpt lat="39.164820754656326" lon="8.507924081442754"><ele>73.0</ele><time>2026-04-06T08:16:09Z</time></trkpt><trkpt lat="39.16495444625792" lon="8.507852133706338"><ele>73.0</ele><time>2026-04-06T08:16:10Z</time></trkpt><trkpt lat="39.165073996935924" lon="8.507789329913667"><ele>73.0</ele><time>2026-04-06T08:16:11Z</time></trkpt><trkpt lat="39.16517549491565" lon="8.507736204021827"><ele>72.57142857142857</ele><time>2026-04-06T08:16:12Z</time></trkpt><trkpt lat="39.165251781754286" lon="8.507693236524325"><ele>72.14285714285714</ele><time>2026-04-06T08:16:13Z</time></trkpt><trkpt lat="39.16531717133367" lon="8.507693792363526"><ele>71.71428571428572</ele><time>2026-04-06T08:16:14Z</time></trkpt><trkpt lat="39.16538553637957" lon="8.507722574001699"><ele>71.28571428571428</ele><time>2026-04-06T08:16:20Z</time></trkpt><trkpt lat="39.16546256160514" lon="8.507756041835425"><ele>70.85714285714286</ele><time>2026-04-06T08:16:22Z</time></trkpt><trkpt lat="39.16552207814639" lon="8.507798948430272"><ele>70.42857142857143</ele><time>2026-04-06T08:16:23Z</time></trkpt><trkpt lat="39.16559000878901" lon="8.507826239490607"><ele>70.0</ele><time>2026-04-06T08:16:24Z</time></trkpt><trkpt lat="39.165661860338574" lon="8.507831672815376"><ele>69.8</ele><time>2026-04-06T08:16:25Z</time></trkpt><trkpt lat="39.16574272569562" lon="8.507808846059522"><ele>69.6</ele><time>2026-04-06T08:16:26Z</time></trkpt><trkpt lat="39.1658200381183" lon="8.50775166616899"><ele>69.4</ele><time>2026-04-06T08:16:27Z</time></trkpt><trkpt lat="39.1658858404299" lon="8.507658380680528"><ele>69.2</ele><time>2026-04-06T08:16:28Z</time></trkpt><trkpt lat="39.16593971058086" lon="8.507543629457682"><ele>69.0</ele><time>2026-04-06T08:16:29Z</time></trkpt><trkpt lat="39.16597526778929" lon="8.507421970682216"><ele>69.0</ele><time>2026-04-06T08:16:30Z</time></trkpt><trkpt lat="39.16601399441355" lon="8.50730068411257"><ele>69.0</ele><time>2026-04-06T08:16:31Z</time></trkpt><trkpt lat="39.166243681642044" lon="8.5071422633082"><ele>69.0</ele><time>2026-04-06T08:16:33Z</time></trkpt><trkpt lat="39.16638156261354" lon="8.507073351651949"><ele>68.66666666666667</ele><time>2026-04-06T08:16:34Z</time></trkpt><trkpt lat="39.16653745632974" lon="8.506993489178548"><ele>68.33333333333334</ele><time>2026-04-06T08:16:35Z</time></trkpt><trkpt lat="39.16669529602839" lon="8.506911342972685"><ele>68.0</ele><time>2026-04-06T08:16:36Z</time></trkpt><trkpt lat="39.16684954695069" lon="8.50683018332131"><ele>68.0</ele><time>2026-04-06T08:16:37Z</time></trkpt><trkpt lat="39.16701376775863" lon="8.506742494091233"><ele>68.0</ele><time>2026-04-06T08:16:38Z</time></trkpt><trkpt lat="39.16719231962899" lon="8.506644923851017"><ele>68.0</ele><time>2026-04-06T08:16:39Z</time></trkpt><trkpt lat="39.16736650676684" lon="8.506552038067955"><ele>68.33333333333334</ele><time>2026-04-06T08:16:40Z</time></trkpt><trkpt lat="39.16754363538858" lon="8.506458252292154"><ele>68.66666666666667</ele><time>2026-04-06T08:16:41Z</time></trkpt><trkpt lat="39.167724932562294" lon="8.506360378347477"><ele>69.0</ele><time>2026-04-06T08:16:42Z</time></trkpt><trkpt lat="39.16791220665337" lon="8.50626042879476"><ele>69.33333333333333</ele><time>2026-04-06T08:16:43Z</time></trkpt><trkpt lat="39.16809741136964" lon="8.506161654932107"><ele>69.66666666666666</ele><time>2026-04-06T08:16:44Z</time></trkpt><trkpt lat="39.16827428210336" lon="8.506066118340957"><ele>70.0</ele><time>2026-04-06T08:16:45Z</time></trkpt><trkpt lat="39.1684518047746" lon="8.505969788852424"><ele>71.0</ele><time>2026-04-06T08:16:46Z</time></trkpt><trkpt lat="39.168632876421334" lon="8.505873503362375"><ele>72.0</ele><time>2026-04-06T08:16:47Z</time></trkpt><trkpt lat="39.16881694994396" lon="8.505776830148479"><ele>73.0</ele><time>2026-04-06T08:16:48Z</time></trkpt><trkpt lat="39.169001015220125" lon="8.505676944388489"><ele>72.66666666666666</ele><time>2026-04-06T08:16:49Z</time></trkpt><trkpt lat="39.16918469995989" lon="8.50557620874831"><ele>72.33333333333333</ele><time>2026-04-06T08:16:50Z</time></trkpt><trkpt lat="39.1693703674337" lon="8.505474715097398"><ele>72.0</ele><time>2026-04-06T08:16:51Z</time></trkpt><trkpt lat="39.16955659921076" lon="8.50537479811886"><ele>71.66666666666667</ele><time>2026-04-06T08:16:52Z</time></trkpt><trkpt lat="39.16974178334844" lon="8.505271783367458"><ele>71.33333333333334</ele><time>2026-04-06T08:16:53Z</time></trkpt><trkpt lat="39.16992702427993" lon="8.505173221526249"><ele>71.0</ele><time>2026-04-06T08:16:54Z</time></trkpt><trkpt lat="39.17011164595717" lon="8.505076923339729"><ele>70.66666666666667</ele><time>2026-04-06T08:16:55Z</time></trkpt><trkpt lat="39.17029678390063" lon="8.50497854588687"><ele>70.33333333333333</ele><time>2026-04-06T08:16:56Z</time></trkpt><trkpt lat="39.17048159034166" lon="8.504884209831175"><ele>70.0</ele><time>2026-04-06T08:16:57Z</time></trkpt><trkpt lat="39.17067074095079" lon="8.504783340627661"><ele>70.0</ele><time>2026-04-06T08:16:58Z</time></trkpt><trkpt lat="39.170862344232944" lon="8.504680733501754"><ele>70.0</ele><time>2026-04-06T08:16:59Z</time></trkpt><trkpt lat="39.171056939820446" lon="8.504575515434583"><ele>70.0</ele><time>2026-04-06T08:17:00Z</time></trkpt><trkpt lat="39.17124948713918" lon="8.504471387413048"><ele>69.66666666666666</ele><time>2026-04-06T08:17:01Z</time></trkpt><trkpt lat="39.17144483925154" lon="8.504364985446895"><ele>69.33333333333333</ele><time>2026-04-06T08:17:02Z</time></trkpt><trkpt lat="39.17164152709105" lon="8.504257516584296"><ele>69.0</ele><time>2026-04-06T08:17:03Z</time></trkpt><trkpt lat="39.171836034052944" lon="8.504152752500675"><ele>69.66666666666667</ele><time>2026-04-06T08:17:04Z</time></trkpt><trkpt lat="39.17203630139912" lon="8.504045752901458"><ele>70.33333333333334</ele><time>2026-04-06T08:17:05Z</time></trkpt><trkpt lat="39.17224048203191" lon="8.503939418860414"><ele>71.0</ele><time>2026-04-06T08:17:06Z</time></trkpt><trkpt lat="39.17243620087444" lon="8.503834607363784"><ele>71.33333333333334</ele><time>2026-04-06T08:17:07Z</time></trkpt><trkpt lat="39.17263015497508" lon="8.503732103894228"><ele>71.66666666666667</ele><time>2026-04-06T08:17:08Z</time></trkpt><trkpt lat="39.17281926703718" lon="8.503629378154535"><ele>72.0</ele><time>2026-04-06T08:17:09Z</time></trkpt><trkpt lat="39.173008424346484" lon="8.503529125622224"><ele>73.0</ele><time>2026-04-06T08:17:10Z</time></trkpt><trkpt lat="39.17319668491954" lon="8.503427683022142"><ele>74.0</ele><time>2026-04-06T08:17:11Z</time></trkpt><trkpt lat="39.17338279663834" lon="8.503328007974945"><ele>75.0</ele><time>2026-04-06T08:17:12Z</time></trkpt><trkpt lat="39.17356930174618" lon="8.503227532742969"><ele>75.0</ele><time>2026-04-06T08:17:13Z</time></trkpt><trkpt lat="39.17375563497795" lon="8.503127526282825"><ele>75.0</ele><time>2026-04-06T08:17:14Z</time></trkpt><trkpt lat="39.173943891115506" lon="8.503023774897397"><ele>75.0</ele><time>2026-04-06T08:17:15Z</time></trkpt><trkpt lat="39.174132965333015" lon="8.502923211211508"><ele>75.0</ele><time>2026-04-06T08:17:16Z</time></trkpt><trkpt lat="39.174321207610134" lon="8.502822047869191"><ele>75.0</ele><time>2026-04-06T08:17:17Z</time></trkpt><trkpt lat="39.174512034395576" lon="8.502722357143922"><ele>75.0</ele><time>2026-04-06T08:17:18Z</time></trkpt><trkpt lat="39.17469769019566" lon="8.50262116429726"><ele>75.0</ele><time>2026-04-06T08:17:19Z</time></trkpt><trkpt lat="39.17487068567861" lon="8.50252973786539"><ele>75.0</ele><time>2026-04-06T08:17:20Z</time></trkpt><trkpt lat="39.17503350440626" lon="8.502443247708998"><ele>75.0</ele><time>2026-04-06T08:17:21Z</time></trkpt><trkpt lat="39.17519465212169" lon="8.50235969569167"><ele>75.0</ele><time>2026-04-06T08:17:22Z</time></trkpt><trkpt lat="39.17535599947948" lon="8.502277175363703"><ele>75.0</ele><time>2026-04-06T08:17:23Z</time></trkpt><trkpt lat="39.175505835752844" lon="8.502198398800266"><ele>75.0</ele><time>2026-04-06T08:17:24Z</time></trkpt><trkpt lat="39.17564417618834" lon="8.502127795125737"><ele>76.0</ele><time>2026-04-06T08:17:25Z</time></trkpt><trkpt lat="39.175772358788564" lon="8.502063173420858"><ele>77.0</ele><time>2026-04-06T08:17:26Z</time></trkpt><trkpt lat="39.175890636392595" lon="8.502005541127362"><ele>78.0</ele><time>2026-04-06T08:17:27Z</time></trkpt><trkpt lat="39.1760011795172" lon="8.501952725222116"><ele>79.0</ele><time>2026-04-06T08:17:28Z</time></trkpt><trkpt lat="39.176099310742224" lon="8.501903583076276"><ele>79.0</ele><time>2026-04-06T08:17:29Z</time></trkpt><trkpt lat="39.176190810502426" lon="8.50185907903912"><ele>79.0</ele><time>2026-04-06T08:17:30Z</time></trkpt><trkpt lat="39.17627651403352" lon="8.501823343766251"><ele>79.0</ele><time>2026-04-06T08:17:31Z</time></trkpt><trkpt lat="39.17637229637742" lon="8.501803481726759"><ele>79.0</ele><time>2026-04-06T08:17:32Z</time></trkpt><trkpt lat="39.1764793453651" lon="8.50179997718657"><ele>79.0</ele><time>2026-04-06T08:17:33Z</time></trkpt><trkpt lat="39.17656954460962" lon="8.501778793375093"><ele>78.75</ele><time>2026-04-06T08:17:34Z</time></trkpt><trkpt lat="39.17671887810024" lon="8.501618763569063"><ele>78.5</ele><time>2026-04-06T08:17:36Z</time></trkpt><trkpt lat="39.176788630974066" lon="8.501514849657317"><ele>78.25</ele><time>2026-04-06T08:17:36.999Z</time></trkpt><trkpt lat="39.17688486647025" lon="8.501431604237293"><ele>78.0</ele><time>2026-04-06T08:17:37.999Z</time></trkpt><trkpt lat="39.17700164287549" lon="8.501394118935199"><ele>78.0</ele><time>2026-04-06T08:17:38.999Z</time></trkpt><trkpt lat="39.177113436395985" lon="8.501318301080108"><ele>78.0</ele><time>2026-04-06T08:17:39.999Z</time></trkpt><trkpt lat="39.17723733286025" lon="8.501258803049453"><ele>78.0</ele><time>2026-04-06T08:17:40.999Z</time></trkpt><trkpt lat="39.177363933818434" lon="8.501190640620665"><ele>78.0</ele><time>2026-04-06T08:17:41.999Z</time></trkpt><trkpt lat="39.17750377090818" lon="8.501116225688445"><ele>79.0</ele><time>2026-04-06T08:17:42.999Z</time></trkpt><trkpt lat="39.17764913373456" lon="8.501040760477578"><ele>80.0</ele><time>2026-04-06T08:17:43.999Z</time></trkpt><trkpt lat="39.17780536988295" lon="8.50095852858962"><ele>81.0</ele><time>2026-04-06T08:17:44.999Z</time></trkpt><trkpt lat="39.177954662553866" lon="8.500878233509477"><ele>81.0</ele><time>2026-04-06T08:17:45.999Z</time></trkpt><trkpt lat="39.17810694827361" lon="8.500797445005912"><ele>81.0</ele><time>2026-04-06T08:17:46.999Z</time></trkpt><trkpt lat="39.17826122404189" lon="8.50071479700525"><ele>81.0</ele><time>2026-04-06T08:17:47.999Z</time></trkpt><trkpt lat="39.178421296158845" lon="8.500630469755462"><ele>82.0</ele><time>2026-04-06T08:17:48.999Z</time></trkpt><trkpt lat="39.178582149642175" lon="8.50054597532183"><ele>83.0</ele><time>2026-04-06T08:17:49.999Z</time></trkpt><trkpt lat="39.17874335494896" lon="8.500459480337817"><ele>84.0</ele><time>2026-04-06T08:17:50.999Z</time></trkpt><trkpt lat="39.17890662770148" lon="8.500371197445961"><ele>85.0</ele><time>2026-04-06T08:17:51.999Z</time></trkpt><trkpt lat="39.1790744004436" lon="8.500280157114997"><ele>86.0</ele><time>2026-04-06T08:17:52.999Z</time></trkpt><trkpt lat="39.17923883381436" lon="8.500194287048954"><ele>87.0</ele><time>2026-04-06T08:17:53.999Z</time></trkpt><trkpt lat="39.17940369321698" lon="8.50010703958662"><ele>87.0</ele><time>2026-04-06T08:17:54.999Z</time></trkpt><trkpt lat="39.17956437415677" lon="8.50001783863271"><ele>87.0</ele><time>2026-04-06T08:17:55.999Z</time></trkpt><trkpt lat="39.17972331402178" lon="8.499931260916416"><ele>87.0</ele><time>2026-04-06T08:17:56.999Z</time></trkpt><trkpt lat="39.17987895393114" lon="8.49984743444455"><ele>87.33333333333333</ele><time>2026-04-06T08:17:57.999Z</time></trkpt><trkpt lat="39.18003558689001" lon="8.499763034097565"><ele>87.66666666666666</ele><time>2026-04-06T08:17:58.999Z</time></trkpt><trkpt lat="39.180192630260656" lon="8.499680162699311"><ele>88.0</ele><time>2026-04-06T08:17:59.999Z</time></trkpt><trkpt lat="39.18034531348584" lon="8.499596970407637"><ele>89.0</ele><time>2026-04-06T08:18:00.999Z</time></trkpt><trkpt lat="39.18050180839206" lon="8.499512663945083"><ele>90.0</ele><time>2026-04-06T08:18:01.999Z</time></trkpt><trkpt lat="39.18066006244125" lon="8.499428599828889"><ele>91.0</ele><time>2026-04-06T08:18:02.999Z</time></trkpt><trkpt lat="39.18082006158531" lon="8.499343158154542"><ele>92.0</ele><time>2026-04-06T08:18:03.999Z</time></trkpt><trkpt lat="39.18098015757347" lon="8.499257130437572"><ele>93.0</ele><time>2026-04-06T08:18:04.999Z</time></trkpt><trkpt lat="39.181140291177954" lon="8.499172331443736"><ele>94.0</ele><time>2026-04-06T08:18:05.999Z</time></trkpt><trkpt lat="39.18129298562612" lon="8.4990915037376"><ele>94.0</ele><time>2026-04-06T08:18:06.999Z</time></trkpt><trkpt lat="39.18144632775764" lon="8.499029339400488"><ele>94.0</ele><time>2026-04-06T08:18:07.999Z</time></trkpt><trkpt lat="39.181588645442666" lon="8.498928515501644"><ele>94.0</ele><time>2026-04-06T08:18:08.999Z</time></trkpt><trkpt lat="39.18174428503188" lon="8.498842070933362"><ele>93.33333333333333</ele><time>2026-04-06T08:18:09.999Z</time></trkpt><trkpt lat="39.18190431500616" lon="8.498743695991278"><ele>92.66666666666667</ele><time>2026-04-06T08:18:10.999Z</time></trkpt><trkpt lat="39.18205487726995" lon="8.498640022628276"><ele>92.0</ele><time>2026-04-06T08:18:11.999Z</time></trkpt><trkpt lat="39.18220609464864" lon="8.498527150579045"><ele>93.33333333333334</ele><time>2026-04-06T08:18:12.999Z</time></trkpt><trkpt lat="39.18235515160216" lon="8.498407814883317"><ele>94.66666666666667</ele><time>2026-04-06T08:18:13.999Z</time></trkpt><trkpt lat="39.18250513196524" lon="8.498283685906681"><ele>96.0</ele><time>2026-04-06T08:18:14.999Z</time></trkpt><trkpt lat="39.18265224496748" lon="8.49815776396199"><ele>96.0</ele><time>2026-04-06T08:18:15.999Z</time></trkpt><trkpt lat="39.1827992114274" lon="8.498028804741207"><ele>96.0</ele><time>2026-04-06T08:18:16.999Z</time></trkpt><trkpt lat="39.18295166319134" lon="8.49791965028695"><ele>96.0</ele><time>2026-04-06T08:18:17.999Z</time></trkpt><trkpt lat="39.18309454775399" lon="8.497791237102003"><ele>95.66666666666667</ele><time>2026-04-06T08:18:19Z</time></trkpt><trkpt lat="39.183235888367534" lon="8.49766421179371"><ele>95.33333333333334</ele><time>2026-04-06T08:18:20Z</time></trkpt><trkpt lat="39.18337337652451" lon="8.497539804224042"><ele>95.0</ele><time>2026-04-06T08:18:21Z</time></trkpt><trkpt lat="39.18350685845579" lon="8.497419142575586"><ele>95.0</ele><time>2026-04-06T08:18:22Z</time></trkpt><trkpt lat="39.183630172300525" lon="8.497283798847791"><ele>95.0</ele><time>2026-04-06T08:18:23Z</time></trkpt><trkpt lat="39.18376131376421" lon="8.497163353437006"><ele>95.0</ele><time>2026-04-06T08:18:24Z</time></trkpt><trkpt lat="39.18389531461973" lon="8.497042278563649"><ele>94.33333333333334</ele><time>2026-04-06T08:18:25Z</time></trkpt><trkpt lat="39.18402939714001" lon="8.496924364493816"><ele>93.66666666666667</ele><time>2026-04-06T08:18:26Z</time></trkpt><trkpt lat="39.18416137993477" lon="8.496808181227617"><ele>93.0</ele><time>2026-04-06T08:18:27Z</time></trkpt><trkpt lat="39.18428972625537" lon="8.496697474793208"><ele>93.0</ele><time>2026-04-06T08:18:28Z</time></trkpt><trkpt lat="39.18442301549512" lon="8.496579664737672"><ele>93.0</ele><time>2026-04-06T08:18:29Z</time></trkpt><trkpt lat="39.184557539147534" lon="8.49645762616727"><ele>93.0</ele><time>2026-04-06T08:18:30Z</time></trkpt><trkpt lat="39.18469192160814" lon="8.49632800965433"><ele>93.0</ele><time>2026-04-06T08:18:31Z</time></trkpt><trkpt lat="39.184833219270224" lon="8.496197306269941"><ele>93.0</ele><time>2026-04-06T08:18:32Z</time></trkpt><trkpt lat="39.184979271916575" lon="8.496068171105103"><ele>93.0</ele><time>2026-04-06T08:18:33Z</time></trkpt><trkpt lat="39.18512865325849" lon="8.49593214482859"><ele>93.0</ele><time>2026-04-06T08:18:34Z</time></trkpt><trkpt lat="39.1852791688968" lon="8.495796869310507"><ele>93.0</ele><time>2026-04-06T08:18:35Z</time></trkpt><trkpt lat="39.185426889672435" lon="8.495658780525629"><ele>93.0</ele><time>2026-04-06T08:18:36Z</time></trkpt><trkpt lat="39.185567585178404" lon="8.495519467309315"><ele>92.33333333333333</ele><time>2026-04-06T08:18:37Z</time></trkpt><trkpt lat="39.18569734769323" lon="8.49538501623428"><ele>91.66666666666666</ele><time>2026-04-06T08:18:38Z</time></trkpt><trkpt lat="39.185819834299515" lon="8.495251088984547"><ele>91.0</ele><time>2026-04-06T08:18:39Z</time></trkpt><trkpt lat="39.18593563600619" lon="8.495116661187012"><ele>91.0</ele><time>2026-04-06T08:18:40Z</time></trkpt><trkpt lat="39.186048602413315" lon="8.494976145247815"><ele>91.0</ele><time>2026-04-06T08:18:41Z</time></trkpt><trkpt lat="39.18616554636913" lon="8.494827419391038"><ele>91.0</ele><time>2026-04-06T08:18:42Z</time></trkpt><trkpt lat="39.18628782293084" lon="8.494674285483109"><ele>90.0</ele><time>2026-04-06T08:18:43Z</time></trkpt><trkpt lat="39.186408461346254" lon="8.49451933919754"><ele>89.0</ele><time>2026-04-06T08:18:43.999Z</time></trkpt><trkpt lat="39.18653131511996" lon="8.494357048258067"><ele>88.0</ele><time>2026-04-06T08:18:44.999Z</time></trkpt><trkpt lat="39.18665191718268" lon="8.494193127597315"><ele>88.0</ele><time>2026-04-06T08:18:45.999Z</time></trkpt><trkpt lat="39.1867714375864" lon="8.494033794933577"><ele>88.0</ele><time>2026-04-06T08:18:46.999Z</time></trkpt><trkpt lat="39.18688894111055" lon="8.49387175535847"><ele>88.0</ele><time>2026-04-06T08:18:47.999Z</time></trkpt><trkpt lat="39.18700637524472" lon="8.493710336896951"><ele>87.66666666666666</ele><time>2026-04-06T08:18:48.999Z</time></trkpt><trkpt lat="39.18712347074502" lon="8.493548930029903"><ele>87.33333333333333</ele><time>2026-04-06T08:18:49.999Z</time></trkpt><trkpt lat="39.18723786096975" lon="8.493389229732001"><ele>87.0</ele><time>2026-04-06T08:18:50.999Z</time></trkpt><trkpt lat="39.18734883584221" lon="8.493224568936224"><ele>87.0</ele><time>2026-04-06T08:18:51.999Z</time></trkpt><trkpt lat="39.187456501473356" lon="8.493056556798964"><ele>87.0</ele><time>2026-04-06T08:18:52.999Z</time></trkpt><trkpt lat="39.1875571681783" lon="8.492892269501699"><ele>87.0</ele><time>2026-04-06T08:18:53.999Z</time></trkpt><trkpt lat="39.18765743994164" lon="8.49272438563909"><ele>88.0</ele><time>2026-04-06T08:18:54.999Z</time></trkpt><trkpt lat="39.18775389429365" lon="8.492552894450261"><ele>89.0</ele><time>2026-04-06T08:18:55.999Z</time></trkpt><trkpt lat="39.18784065940628" lon="8.492378621786596"><ele>90.0</ele><time>2026-04-06T08:18:56.999Z</time></trkpt><trkpt lat="39.187936765750216" lon="8.492197476328846"><ele>90.66666666666667</ele><time>2026-04-06T08:18:57.999Z</time></trkpt><trkpt lat="39.18802598723647" lon="8.492011810691771"><ele>91.33333333333334</ele><time>2026-04-06T08:18:58.999Z</time></trkpt><trkpt lat="39.188111238617395" lon="8.49181778009674"><ele>92.0</ele><time>2026-04-06T08:18:59.999Z</time></trkpt><trkpt lat="39.188194429442746" lon="8.491620321537845"><ele>88.66666666666667</ele><time>2026-04-06T08:19:00.999Z</time></trkpt><trkpt lat="39.188272818160144" lon="8.491413054360473"><ele>85.33333333333333</ele><time>2026-04-06T08:19:01.999Z</time></trkpt><trkpt lat="39.18834522589509" lon="8.49120725467295"><ele>82.0</ele><time>2026-04-06T08:19:02.999Z</time></trkpt><trkpt lat="39.188414803569344" lon="8.490994059028111"><ele>82.0</ele><time>2026-04-06T08:19:03.999Z</time></trkpt><trkpt lat="39.188485060840904" lon="8.49077655038518"><ele>82.0</ele><time>2026-04-06T08:19:04.999Z</time></trkpt><trkpt lat="39.18855936580642" lon="8.490561288676467"><ele>82.0</ele><time>2026-04-06T08:19:05.999Z</time></trkpt><trkpt lat="39.188636417307755" lon="8.490340872448856"><ele>82.66666666666666</ele><time>2026-04-06T08:19:06.999Z</time></trkpt><trkpt lat="39.18871535798419" lon="8.490124784012151"><ele>83.33333333333333</ele><time>2026-04-06T08:19:07.999Z</time></trkpt><trkpt lat="39.1887985760659" lon="8.489909344990028"><ele>84.0</ele><time>2026-04-06T08:19:08.999Z</time></trkpt><trkpt lat="39.18888248591086" lon="8.489690941506492"><ele>84.0</ele><time>2026-04-06T08:19:09.999Z</time></trkpt><trkpt lat="39.188971084843175" lon="8.489487860442582"><ele>84.0</ele><time>2026-04-06T08:19:10.999Z</time></trkpt><trkpt lat="39.18905758189662" lon="8.489298449467354"><ele>84.0</ele><time>2026-04-06T08:19:11.999Z</time></trkpt><trkpt lat="39.189142596073964" lon="8.48912713343678"><ele>83.0</ele><time>2026-04-06T08:19:12.999Z</time></trkpt><trkpt lat="39.189226351206464" lon="8.48896110908472"><ele>82.0</ele><time>2026-04-06T08:19:13.999Z</time></trkpt><trkpt lat="39.189301978297856" lon="8.488827541986305"><ele>81.0</ele><time>2026-04-06T08:19:14.999Z</time></trkpt><trkpt lat="39.18937799882701" lon="8.48872482591007"><ele>80.0</ele><time>2026-04-06T08:19:15.999Z</time></trkpt><trkpt lat="39.189460138107066" lon="8.488635933669498"><ele>80.0</ele><time>2026-04-06T08:19:16.999Z</time></trkpt><trkpt lat="39.18952908954078" lon="8.48852427000978"><ele>80.0</ele><time>2026-04-06T08:19:17.999Z</time></trkpt><trkpt lat="39.18960454904695" lon="8.48821680101541"><ele>80.0</ele><time>2026-04-06T08:19:19.999Z</time></trkpt><trkpt lat="39.189684839813964" lon="8.488075739754999"><ele>78.66666666666667</ele><time>2026-04-06T08:19:20.999Z</time></trkpt><trkpt lat="39.18977555815321" lon="8.487920509692948"><ele>77.33333333333333</ele><time>2026-04-06T08:19:21.999Z</time></trkpt><trkpt lat="39.18986412677535" lon="8.487737816900065"><ele>76.0</ele><time>2026-04-06T08:19:22.999Z</time></trkpt><trkpt lat="39.189969961748446" lon="8.487558208354312"><ele>76.0</ele><time>2026-04-06T08:19:23.999Z</time></trkpt><trkpt lat="39.190089728597776" lon="8.487386165922231"><ele>76.0</ele><time>2026-04-06T08:19:24.999Z</time></trkpt><trkpt lat="39.19018205611343" lon="8.48719161449734"><ele>76.0</ele><time>2026-04-06T08:19:25.999Z</time></trkpt><trkpt lat="39.19029141619031" lon="8.487003201094277"><ele>75.0</ele><time>2026-04-06T08:19:26.999Z</time></trkpt><trkpt lat="39.190405119780785" lon="8.486803370079011"><ele>74.0</ele><time>2026-04-06T08:19:27.999Z</time></trkpt><trkpt lat="39.19051958269728" lon="8.486599799688916"><ele>73.0</ele><time>2026-04-06T08:19:28.999Z</time></trkpt><trkpt lat="39.19063717192374" lon="8.486389455300142"><ele>71.66666666666666</ele><time>2026-04-06T08:19:29.999Z</time></trkpt><trkpt lat="39.19075820953956" lon="8.486176253795351"><ele>70.33333333333333</ele><time>2026-04-06T08:19:30.999Z</time></trkpt><trkpt lat="39.19087339993652" lon="8.485974892144547"><ele>69.0</ele><time>2026-04-06T08:19:31.999Z</time></trkpt><trkpt lat="39.190989346915536" lon="8.485771573010071"><ele>69.0</ele><time>2026-04-06T08:19:32.999Z</time></trkpt><trkpt lat="39.19110591988068" lon="8.485568539047087"><ele>69.0</ele><time>2026-04-06T08:19:33.999Z</time></trkpt><trkpt lat="39.19122495741545" lon="8.48536268639604"><ele>69.0</ele><time>2026-04-06T08:19:34.999Z</time></trkpt><trkpt lat="39.19134121597242" lon="8.485158626001027"><ele>68.33333333333333</ele><time>2026-04-06T08:19:35.999Z</time></trkpt><trkpt lat="39.191459380062156" lon="8.484947985773372"><ele>67.66666666666666</ele><time>2026-04-06T08:19:36.999Z</time></trkpt><trkpt lat="39.19157829281651" lon="8.484734373897432"><ele>67.0</ele><time>2026-04-06T08:19:37.999Z</time></trkpt><trkpt lat="39.19170086527076" lon="8.484521017657997"><ele>64.33333333333333</ele><time>2026-04-06T08:19:38.999Z</time></trkpt><trkpt lat="39.19182263238253" lon="8.484305587214305"><ele>61.66666666666667</ele><time>2026-04-06T08:19:39.999Z</time></trkpt><trkpt lat="39.191946740383244" lon="8.484085446161684"><ele>59.0</ele><time>2026-04-06T08:19:40.999Z</time></trkpt><trkpt lat="39.19206964365502" lon="8.48386407260803"><ele>57.0</ele><time>2026-04-06T08:19:41.999Z</time></trkpt><trkpt lat="39.192193662339946" lon="8.483643720800874"><ele>55.0</ele><time>2026-04-06T08:19:42.999Z</time></trkpt><trkpt lat="39.19231882055266" lon="8.483421016985309"><ele>53.0</ele><time>2026-04-06T08:19:43.999Z</time></trkpt><trkpt lat="39.19244482493655" lon="8.483199272502747"><ele>52.333333333333336</ele><time>2026-04-06T08:19:44.999Z</time></trkpt><trkpt lat="39.19257269465299" lon="8.482979042941803"><ele>51.66666666666667</ele><time>2026-04-06T08:19:45.999Z</time></trkpt><trkpt lat="39.192698245593554" lon="8.482757860923304"><ele>51.0</ele><time>2026-04-06T08:19:46.999Z</time></trkpt><trkpt lat="39.19282683919931" lon="8.482527941506872"><ele>49.333333333333336</ele><time>2026-04-06T08:19:47.999Z</time></trkpt><trkpt lat="39.19295807518975" lon="8.482293864573512"><ele>47.66666666666667</ele><time>2026-04-06T08:19:48.999Z</time></trkpt><trkpt lat="39.19308908564381" lon="8.482062988761289"><ele>46.0</ele><time>2026-04-06T08:19:49.999Z</time></trkpt><trkpt lat="39.19321887053284" lon="8.481831924327418"><ele>45.333333333333336</ele><time>2026-04-06T08:19:50.999Z</time></trkpt><trkpt lat="39.19334340148269" lon="8.481610638612146"><ele>44.666666666666664</ele><time>2026-04-06T08:19:51.999Z</time></trkpt><trkpt lat="39.193466375345444" lon="8.481390366028718"><ele>44.0</ele><time>2026-04-06T08:19:52.999Z</time></trkpt><trkpt lat="39.1935858523901" lon="8.481177374993477"><ele>44.0</ele><time>2026-04-06T08:19:53.999Z</time></trkpt><trkpt lat="39.193705741648664" lon="8.480966401735882"><ele>44.0</ele><time>2026-04-06T08:19:54.999Z</time></trkpt><trkpt lat="39.19383019245048" lon="8.480747448360175"><ele>44.0</ele><time>2026-04-06T08:19:55.999Z</time></trkpt><trkpt lat="39.193956324517686" lon="8.480525346738737"><ele>44.33333333333333</ele><time>2026-04-06T08:19:56.999Z</time></trkpt><trkpt lat="39.194086673855075" lon="8.48029457270208"><ele>44.666666666666664</ele><time>2026-04-06T08:19:57.999Z</time></trkpt><trkpt lat="39.19421862693853" lon="8.480061453353924"><ele>45.0</ele><time>2026-04-06T08:19:58.999Z</time></trkpt><trkpt lat="39.1943541736575" lon="8.479826678155659"><ele>46.0</ele><time>2026-04-06T08:19:59.999Z</time></trkpt><trkpt lat="39.19449269767479" lon="8.47959323655234"><ele>47.0</ele><time>2026-04-06T08:20:00.999Z</time></trkpt><trkpt lat="39.19463375890786" lon="8.4793640315202"><ele>47.0</ele><time>2026-04-06T08:20:01.999Z</time></trkpt><trkpt lat="39.19477905821651" lon="8.479141191946782"><ele>47.0</ele><time>2026-04-06T08:20:02.999Z</time></trkpt><trkpt lat="39.19493135733811" lon="8.47892455469443"><ele>46.5</ele><time>2026-04-06T08:20:03.999Z</time></trkpt><trkpt lat="39.19508981456646" lon="8.47871923993964"><ele>46.0</ele><time>2026-04-06T08:20:04.999Z</time></trkpt><trkpt lat="39.19525734969346" lon="8.478520548085902"><ele>46.0</ele><time>2026-04-06T08:20:05.999Z</time></trkpt><trkpt lat="39.19542638261314" lon="8.478331858345776"><ele>46.0</ele><time>2026-04-06T08:20:06.999Z</time></trkpt><trkpt lat="39.195600363647785" lon="8.478151408491637"><ele>46.0</ele><time>2026-04-06T08:20:07.999Z</time></trkpt><trkpt lat="39.19577743103522" lon="8.477980666239404"><ele>47.333333333333336</ele><time>2026-04-06T08:20:08.999Z</time></trkpt><trkpt lat="39.19595887958236" lon="8.47781463506274"><ele>48.66666666666667</ele><time>2026-04-06T08:20:09.999Z</time></trkpt><trkpt lat="39.196140445297296" lon="8.477661664843403"><ele>50.0</ele><time>2026-04-06T08:20:10.999Z</time></trkpt><trkpt lat="39.1963297183465" lon="8.477513455876881"><ele>50.333333333333336</ele><time>2026-04-06T08:20:11.999Z</time></trkpt><trkpt lat="39.19651864490435" lon="8.477376640941273"><ele>50.66666666666667</ele><time>2026-04-06T08:20:12.999Z</time></trkpt><trkpt lat="39.196712163940326" lon="8.477246981039059"><ele>51.0</ele><time>2026-04-06T08:20:13.999Z</time></trkpt><trkpt lat="39.19691052436707" lon="8.477124425762081"><ele>51.33333333333333</ele><time>2026-04-06T08:20:14.999Z</time></trkpt><trkpt lat="39.1971081970902" lon="8.477021092652883"><ele>51.666666666666664</ele><time>2026-04-06T08:20:15.999Z</time></trkpt><trkpt lat="39.19729089519987" lon="8.476930239133496"><ele>52.0</ele><time>2026-04-06T08:20:16.999Z</time></trkpt><trkpt lat="39.19746596552998" lon="8.476852187930527"><ele>52.0</ele><time>2026-04-06T08:20:17.999Z</time></trkpt><trkpt lat="39.19764820011572" lon="8.476775595981971"><ele>52.0</ele><time>2026-04-06T08:20:18.999Z</time></trkpt><trkpt lat="39.19783105377527" lon="8.476709569262637"><ele>52.0</ele><time>2026-04-06T08:20:19.999Z</time></trkpt><trkpt lat="39.198013937845815" lon="8.476648262296846"><ele>52.666666666666664</ele><time>2026-04-06T08:20:20.999Z</time></trkpt><trkpt lat="39.19818444426831" lon="8.476601220845703"><ele>53.33333333333333</ele><time>2026-04-06T08:20:21.999Z</time></trkpt><trkpt lat="39.19833972589064" lon="8.476562928297804"><ele>54.0</ele><time>2026-04-06T08:20:22.999Z</time></trkpt><trkpt lat="39.198472105597794" lon="8.476544024203168"><ele>54.0</ele><time>2026-04-06T08:20:23.999Z</time></trkpt><trkpt lat="39.1985918470154" lon="8.47652686045752"><ele>54.00000000000001</ele><time>2026-04-06T08:20:24.999Z</time></trkpt><trkpt lat="39.19869901796379" lon="8.476530324733092"><ele>54.00000000000001</ele><time>2026-04-06T08:20:25.999Z</time></trkpt><trkpt lat="39.19879965155242" lon="8.476560944186751"><ele>54.0</ele><time>2026-04-06T08:20:26.999Z</time></trkpt><trkpt lat="39.19890568089118" lon="8.476576241101885"><ele>54.0</ele><time>2026-04-06T08:20:27.999Z</time></trkpt><trkpt lat="39.19900499025765" lon="8.476533232164694"><ele>54.25</ele><time>2026-04-06T08:20:28.999Z</time></trkpt><trkpt lat="39.19910373967028" lon="8.47644336594998"><ele>54.5</ele><time>2026-04-06T08:20:29.999Z</time></trkpt><trkpt lat="39.19921735907971" lon="8.47635919791353"><ele>54.75</ele><time>2026-04-06T08:20:30.999Z</time></trkpt><trkpt lat="39.19936325588431" lon="8.476304758202046"><ele>55.0</ele><time>2026-04-06T08:20:31.999Z</time></trkpt><trkpt lat="39.19953514371832" lon="8.476262126072674"><ele>55.33333333333333</ele><time>2026-04-06T08:20:32.999Z</time></trkpt><trkpt lat="39.19972448344552" lon="8.476209604557395"><ele>55.66666666666667</ele><time>2026-04-06T08:20:33.999Z</time></trkpt><trkpt lat="39.199937856788914" lon="8.476161161475959"><ele>56.0</ele><time>2026-04-06T08:20:34.999Z</time></trkpt><trkpt lat="39.20016634553565" lon="8.476126275183823"><ele>56.0</ele><time>2026-04-06T08:20:35.999Z</time></trkpt><trkpt lat="39.20041224303815" lon="8.476078294649339"><ele>56.0</ele><time>2026-04-06T08:20:36.999Z</time></trkpt><trkpt lat="39.2006450660724" lon="8.476020694574629"><ele>57.5</ele><time>2026-04-06T08:20:37.999Z</time></trkpt><trkpt lat="39.20087196038939" lon="8.47596947952013"><ele>59.0</ele><time>2026-04-06T08:20:38.999Z</time></trkpt><trkpt lat="39.20109770556101" lon="8.475916061395848"><ele>59.0</ele><time>2026-04-06T08:20:39.999Z</time></trkpt><trkpt lat="39.20131299842121" lon="8.475865703996318"><ele>59.0</ele><time>2026-04-06T08:20:40.999Z</time></trkpt><trkpt lat="39.20152370009286" lon="8.475814794661334"><ele>59.0</ele><time>2026-04-06T08:20:41.999Z</time></trkpt><trkpt lat="39.201733183505894" lon="8.475759947053524"><ele>60.333333333333336</ele><time>2026-04-06T08:20:42.999Z</time></trkpt><trkpt lat="39.2019375469259" lon="8.475703028202608"><ele>61.66666666666667</ele><time>2026-04-06T08:20:43.999Z</time></trkpt><trkpt lat="39.20214484322395" lon="8.475643265759468"><ele>63.0</ele><time>2026-04-06T08:20:44.999Z</time></trkpt><trkpt lat="39.202346879999425" lon="8.475574135510445"><ele>63.0</ele><time>2026-04-06T08:20:45.999Z</time></trkpt><trkpt lat="39.20254630839345" lon="8.475501863315728"><ele>63.0</ele><time>2026-04-06T08:20:46.999Z</time></trkpt><trkpt lat="39.202746373302524" lon="8.475422458489335"><ele>63.0</ele><time>2026-04-06T08:20:47.999Z</time></trkpt><trkpt lat="39.20294530059219" lon="8.475339021314255"><ele>63.33333333333333</ele><time>2026-04-06T08:20:48.999Z</time></trkpt><trkpt lat="39.20314262904756" lon="8.475254883876326"><ele>63.666666666666664</ele><time>2026-04-06T08:20:49.999Z</time></trkpt><trkpt lat="39.20334026123297" lon="8.475166770091949"><ele>64.0</ele><time>2026-04-06T08:20:50.999Z</time></trkpt><trkpt lat="39.20353792597698" lon="8.475074194359543"><ele>64.0</ele><time>2026-04-06T08:20:51.999Z</time></trkpt><trkpt lat="39.203738903708164" lon="8.47498323955694"><ele>64.0</ele><time>2026-04-06T08:20:52.999Z</time></trkpt><trkpt lat="39.20394143045833" lon="8.474889155238126"><ele>64.0</ele><time>2026-04-06T08:20:53.999Z</time></trkpt><trkpt lat="39.204147231001244" lon="8.474797685770488"><ele>64.0</ele><time>2026-04-06T08:20:54.999Z</time></trkpt><trkpt lat="39.2043549186487" lon="8.474701785383722"><ele>64.0</ele><time>2026-04-06T08:20:55.999Z</time></trkpt><trkpt lat="39.204563356176315" lon="8.474607305701909"><ele>64.0</ele><time>2026-04-06T08:20:56.999Z</time></trkpt><trkpt lat="39.20477375650109" lon="8.474512832100517"><ele>65.33333333333333</ele><time>2026-04-06T08:20:57.999Z</time></trkpt><trkpt lat="39.20498340937946" lon="8.474417132387641"><ele>66.66666666666667</ele><time>2026-04-06T08:20:58.999Z</time></trkpt><trkpt lat="39.20519556651031" lon="8.47431993770345"><ele>68.0</ele><time>2026-04-06T08:20:59.999Z</time></trkpt><trkpt lat="39.20540597352641" lon="8.474223558148756"><ele>68.0</ele><time>2026-04-06T08:21:00.999Z</time></trkpt><trkpt lat="39.20561469437786" lon="8.474128076393859"><ele>68.0</ele><time>2026-04-06T08:21:01.999Z</time></trkpt><trkpt lat="39.20582003193053" lon="8.474030263878097"><ele>68.0</ele><time>2026-04-06T08:21:02.999Z</time></trkpt><trkpt lat="39.206024848425045" lon="8.47393431435276"><ele>69.0</ele><time>2026-04-06T08:21:03.999Z</time></trkpt><trkpt lat="39.20623165046152" lon="8.47383971943281"><ele>70.0</ele><time>2026-04-06T08:21:04.999Z</time></trkpt><trkpt lat="39.20643306542292" lon="8.473748274589788"><ele>71.0</ele><time>2026-04-06T08:21:05.999Z</time></trkpt><trkpt lat="39.20663454475341" lon="8.47365597135018"><ele>72.33333333333334</ele><time>2026-04-06T08:21:06.999Z</time></trkpt><trkpt lat="39.206835954056174" lon="8.473562814515345"><ele>73.66666666666667</ele><time>2026-04-06T08:21:07.999Z</time></trkpt><trkpt lat="39.20703665155286" lon="8.473467683525097"><ele>75.0</ele><time>2026-04-06T08:21:08.999Z</time></trkpt><trkpt lat="39.20723696555875" lon="8.473377147102884"><ele>75.66666666666667</ele><time>2026-04-06T08:21:09.999Z</time></trkpt><trkpt lat="39.20744001082194" lon="8.473286523904894"><ele>76.33333333333334</ele><time>2026-04-06T08:21:10.999Z</time></trkpt><trkpt lat="39.20763959458997" lon="8.47319727270481"><ele>77.0</ele><time>2026-04-06T08:21:11.999Z</time></trkpt><trkpt lat="39.207840164110664" lon="8.473107779074029"><ele>77.0</ele><time>2026-04-06T08:21:12.999Z</time></trkpt><trkpt lat="39.208042303259084" lon="8.473014301733786"><ele>77.0</ele><time>2026-04-06T08:21:13.999Z</time></trkpt><trkpt lat="39.20824257257524" lon="8.47292134753545"><ele>77.0</ele><time>2026-04-06T08:21:14.999Z</time></trkpt><trkpt lat="39.208443474731226" lon="8.47283118986757"><ele>77.33333333333334</ele><time>2026-04-06T08:21:15.999Z</time></trkpt><trkpt lat="39.2086427250313" lon="8.472739175292334"><ele>77.66666666666667</ele><time>2026-04-06T08:21:16.999Z</time></trkpt><trkpt lat="39.20884227427737" lon="8.472647050329755"><ele>78.0</ele><time>2026-04-06T08:21:17.999Z</time></trkpt><trkpt lat="39.209041742331806" lon="8.472555574937248"><ele>78.66666666666667</ele><time>2026-04-06T08:21:18.999Z</time></trkpt><trkpt lat="39.2092410884135" lon="8.472464345507019"><ele>79.33333333333334</ele><time>2026-04-06T08:21:19.999Z</time></trkpt><trkpt lat="39.20943928839576" lon="8.472374539756775"><ele>80.0</ele><time>2026-04-06T08:21:20.999Z</time></trkpt><trkpt lat="39.20963776894288" lon="8.472284510323421"><ele>80.33333333333334</ele><time>2026-04-06T08:21:21.999Z</time></trkpt><trkpt lat="39.209839165357586" lon="8.472194126599733"><ele>80.66666666666667</ele><time>2026-04-06T08:21:22.999Z</time></trkpt><trkpt lat="39.21003838995969" lon="8.472103136109975"><ele>81.0</ele><time>2026-04-06T08:21:23.999Z</time></trkpt><trkpt lat="39.21023540480482" lon="8.472014736289976"><ele>81.0</ele><time>2026-04-06T08:21:24.999Z</time></trkpt><trkpt lat="39.21041724955948" lon="8.471934550966873"><ele>81.0</ele><time>2026-04-06T08:21:25.999Z</time></trkpt><trkpt lat="39.21058512073016" lon="8.471860239663226"><ele>81.0</ele><time>2026-04-06T08:21:26.999Z</time></trkpt><trkpt lat="39.21074062749112" lon="8.471788811844005"><ele>81.5</ele><time>2026-04-06T08:21:27.999Z</time></trkpt><trkpt lat="39.210883620183395" lon="8.471722005099826"><ele>82.0</ele><time>2026-04-06T08:21:28.999Z</time></trkpt><trkpt lat="39.21102037838327" lon="8.471657141519957"><ele>82.5</ele><time>2026-04-06T08:21:29.999Z</time></trkpt><trkpt lat="39.21114653939204" lon="8.47159658474229"><ele>83.0</ele><time>2026-04-06T08:21:30.999Z</time></trkpt><trkpt lat="39.211269586924814" lon="8.471541494022329"><ele>83.0</ele><time>2026-04-06T08:21:31.999Z</time></trkpt><trkpt lat="39.2113842232725" lon="8.471489099464137"><ele>83.0</ele><time>2026-04-06T08:21:32.999Z</time></trkpt><trkpt lat="39.21149055805694" lon="8.471437383116701"><ele>83.0</ele><time>2026-04-06T08:21:33.999Z</time></trkpt><trkpt lat="39.21158756879007" lon="8.471392207111576"><ele>83.0</ele><time>2026-04-06T08:21:34.999Z</time></trkpt><trkpt lat="39.211680133394175" lon="8.471351120233196"><ele>83.0</ele><time>2026-04-06T08:21:35.999Z</time></trkpt><trkpt lat="39.21176493399455" lon="8.471312270887617"><ele>83.33333333333334</ele><time>2026-04-06T08:21:36.999Z</time></trkpt><trkpt lat="39.21183764493966" lon="8.47128077640878"><ele>83.66666666666667</ele><time>2026-04-06T08:21:37.999Z</time></trkpt><trkpt lat="39.21190798099561" lon="8.47125031347225"><ele>84.0</ele><time>2026-04-06T08:21:38.999Z</time></trkpt><trkpt lat="39.21197013887175" lon="8.471222731570741"><ele>84.33333333333333</ele><time>2026-04-06T08:21:39.999Z</time></trkpt><trkpt lat="39.21206245841606" lon="8.471178908081026"><ele>84.66666666666666</ele><time>2026-04-06T08:21:41.999Z</time></trkpt><trkpt lat="39.212128537328425" lon="8.471149659486214"><ele>85.0</ele><time>2026-04-06T08:21:43.999Z</time></trkpt><trkpt lat="39.212214941150016" lon="8.471111323384822"><ele>85.0</ele><time>2026-04-06T08:21:53.999Z</time></trkpt><trkpt lat="39.212319589554674" lon="8.471058946083478"><ele>85.0</ele><time>2026-04-06T08:21:55.999Z</time></trkpt><trkpt lat="39.212390497716385" lon="8.471026061044517"><ele>85.0</ele><time>2026-04-06T08:21:56.999Z</time></trkpt><trkpt lat="39.212461448079395" lon="8.470996283017923"><ele>85.0</ele><time>2026-04-06T08:21:57.999Z</time></trkpt><trkpt lat="39.21254251776424" lon="8.47096115957232"><ele>85.0</ele><time>2026-04-06T08:21:58.999Z</time></trkpt><trkpt lat="39.21263150448135" lon="8.470922653059368"><ele>85.0</ele><time>2026-04-06T08:21:59.999Z</time></trkpt><trkpt lat="39.21273185662019" lon="8.470878629227434"><ele>85.75</ele><time>2026-04-06T08:22:00.999Z</time></trkpt><trkpt lat="39.21284514886026" lon="8.470825313844689"><ele>86.5</ele><time>2026-04-06T08:22:01.999Z</time></trkpt><trkpt lat="39.21295328148552" lon="8.470774883374206"><ele>87.25</ele><time>2026-04-06T08:22:02.999Z</time></trkpt><trkpt lat="39.21306579439269" lon="8.470725189224133"><ele>88.0</ele><time>2026-04-06T08:22:03.999Z</time></trkpt><trkpt lat="39.21318735457593" lon="8.470671175110532"><ele>89.0</ele><time>2026-04-06T08:22:04.999Z</time></trkpt><trkpt lat="39.213318299805" lon="8.47061225124976"><ele>90.0</ele><time>2026-04-06T08:22:05.999Z</time></trkpt><trkpt lat="39.21346024109108" lon="8.470546029740147"><ele>91.0</ele><time>2026-04-06T08:22:06.999Z</time></trkpt><trkpt lat="39.21361144123923" lon="8.47047554832696"><ele>90.66666666666666</ele><time>2026-04-06T08:22:07.999Z</time></trkpt><trkpt lat="39.21377100025896" lon="8.47040433635102"><ele>90.33333333333333</ele><time>2026-04-06T08:22:08.999Z</time></trkpt><trkpt lat="39.21393150344656" lon="8.470334086894487"><ele>90.0</ele><time>2026-04-06T08:22:09.999Z</time></trkpt><trkpt lat="39.2140927071639" lon="8.470262012117315"><ele>90.66666666666667</ele><time>2026-04-06T08:22:10.999Z</time></trkpt><trkpt lat="39.21426083865148" lon="8.47018597752738"><ele>91.33333333333334</ele><time>2026-04-06T08:22:11.999Z</time></trkpt><trkpt lat="39.21443820557092" lon="8.470105806148444"><ele>92.0</ele><time>2026-04-06T08:22:12.999Z</time></trkpt><trkpt lat="39.21462362249062" lon="8.470018901864131"><ele>92.0</ele><time>2026-04-06T08:22:13.999Z</time></trkpt><trkpt lat="39.21481353979576" lon="8.469926658185786"><ele>92.0</ele><time>2026-04-06T08:22:14.999Z</time></trkpt><trkpt lat="39.21499268756578" lon="8.469843690642993"><ele>92.0</ele><time>2026-04-06T08:22:15.999Z</time></trkpt><trkpt lat="39.21517234372071" lon="8.469761850406368"><ele>92.33333333333334</ele><time>2026-04-06T08:22:16.999Z</time></trkpt><trkpt lat="39.21535561157686" lon="8.469678891451146"><ele>92.66666666666667</ele><time>2026-04-06T08:22:17.999Z</time></trkpt><trkpt lat="39.21553804266653" lon="8.46959558326578"><ele>93.0</ele><time>2026-04-06T08:22:18.999Z</time></trkpt><trkpt lat="39.21572176449142" lon="8.469511819215153"><ele>94.0</ele><time>2026-04-06T08:22:19.999Z</time></trkpt><trkpt lat="39.215910454185604" lon="8.469424674262033"><ele>95.0</ele><time>2026-04-06T08:22:20.999Z</time></trkpt><trkpt lat="39.21609829642591" lon="8.469337093825986"><ele>96.0</ele><time>2026-04-06T08:22:21.999Z</time></trkpt><trkpt lat="39.216286502507984" lon="8.469250306042257"><ele>96.0</ele><time>2026-04-06T08:22:22.999Z</time></trkpt><trkpt lat="39.21647646842624" lon="8.469163488360927"><ele>96.0</ele><time>2026-04-06T08:22:23.999Z</time></trkpt><trkpt lat="39.21666545464775" lon="8.469073535874763"><ele>96.0</ele><time>2026-04-06T08:22:24.999Z</time></trkpt><trkpt lat="39.21685659135993" lon="8.468984114228997"><ele>97.33333333333334</ele><time>2026-04-06T08:22:25.999Z</time></trkpt><trkpt lat="39.21705544535114" lon="8.468896255107467"><ele>98.66666666666667</ele><time>2026-04-06T08:22:26.999Z</time></trkpt><trkpt lat="39.21725895562304" lon="8.468807662752305"><ele>100.0</ele><time>2026-04-06T08:22:27.999Z</time></trkpt><trkpt lat="39.217449745507096" lon="8.46872318511885"><ele>100.33333333333334</ele><time>2026-04-06T08:22:28.999Z</time></trkpt><trkpt lat="39.21763232275805" lon="8.46864007017344"><ele>100.66666666666666</ele><time>2026-04-06T08:22:29.999Z</time></trkpt><trkpt lat="39.217816172968064" lon="8.468556732167455"><ele>101.0</ele><time>2026-04-06T08:22:30.999Z</time></trkpt><trkpt lat="39.21800172328113" lon="8.468474546827732"><ele>101.66666666666666</ele><time>2026-04-06T08:22:31.999Z</time></trkpt><trkpt lat="39.218192637793614" lon="8.468389986141101"><ele>102.33333333333334</ele><time>2026-04-06T08:22:32.999Z</time></trkpt><trkpt lat="39.218389085475465" lon="8.468300599698232"><ele>103.0</ele><time>2026-04-06T08:22:33.999Z</time></trkpt><trkpt lat="39.21858198919362" lon="8.468211076391185"><ele>103.0</ele><time>2026-04-06T08:22:34.999Z</time></trkpt><trkpt lat="39.218772468886485" lon="8.468123978638713"><ele>103.0</ele><time>2026-04-06T08:22:35.999Z</time></trkpt><trkpt lat="39.218954111766905" lon="8.468042026171089"><ele>103.0</ele><time>2026-04-06T08:22:37Z</time></trkpt><trkpt lat="39.21913239903905" lon="8.467962375818814"><ele>102.66666666666667</ele><time>2026-04-06T08:22:38Z</time></trkpt><trkpt lat="39.21931138260134" lon="8.467878217129364"><ele>102.33333333333334</ele><time>2026-04-06T08:22:39Z</time></trkpt><trkpt lat="39.21948995698385" lon="8.467793753697904"><ele>102.0</ele><time>2026-04-06T08:22:40Z</time></trkpt><trkpt lat="39.2196693914515" lon="8.467708340220751"><ele>102.66666666666666</ele><time>2026-04-06T08:22:41Z</time></trkpt><trkpt lat="39.21984827393479" lon="8.467625192727438"><ele>103.33333333333333</ele><time>2026-04-06T08:22:42Z</time></trkpt><trkpt lat="39.22001460147349" lon="8.467547847608232"><ele>104.0</ele><time>2026-04-06T08:22:43Z</time></trkpt><trkpt lat="39.22017062266294" lon="8.467474887632784"><ele>104.0</ele><time>2026-04-06T08:22:44Z</time></trkpt><trkpt lat="39.2203245482333" lon="8.467403125148962"><ele>104.0</ele><time>2026-04-06T08:22:45Z</time></trkpt><trkpt lat="39.22048087245851" lon="8.46733296903738"><ele>104.0</ele><time>2026-04-06T08:22:46Z</time></trkpt><trkpt lat="39.22064126628012" lon="8.46726034391714"><ele>104.66666666666666</ele><time>2026-04-06T08:22:47Z</time></trkpt><trkpt lat="39.22080670396817" lon="8.46718508608711"><ele>105.33333333333334</ele><time>2026-04-06T08:22:48Z</time></trkpt><trkpt lat="39.220973381852104" lon="8.46710859967716"><ele>106.0</ele><time>2026-04-06T08:22:49Z</time></trkpt><trkpt lat="39.2211438768039" lon="8.467032299147613"><ele>106.0</ele><time>2026-04-06T08:22:50Z</time></trkpt><trkpt lat="39.22131007004939" lon="8.46695706986927"><ele>106.0</ele><time>2026-04-06T08:22:51Z</time></trkpt><trkpt lat="39.22146882051419" lon="8.466887943875777"><ele>106.0</ele><time>2026-04-06T08:22:52Z</time></trkpt><trkpt lat="39.2216277982524" lon="8.46681731859737"><ele>106.66666666666667</ele><time>2026-04-06T08:22:53Z</time></trkpt><trkpt lat="39.221788186124684" lon="8.46675017900886"><ele>107.33333333333334</ele><time>2026-04-06T08:22:54Z</time></trkpt><trkpt lat="39.22194542145954" lon="8.466690912699116"><ele>108.0</ele><time>2026-04-06T08:22:55Z</time></trkpt><trkpt lat="39.222097858209025" lon="8.466638981236434"><ele>108.0</ele><time>2026-04-06T08:22:56Z</time></trkpt><trkpt lat="39.22223987555088" lon="8.466594745141544"><ele>108.0</ele><time>2026-04-06T08:22:57Z</time></trkpt><trkpt lat="39.22238498375443" lon="8.466550284534144"><ele>108.0</ele><time>2026-04-06T08:22:58Z</time></trkpt><trkpt lat="39.222532544514756" lon="8.466503996387035"><ele>108.0</ele><time>2026-04-06T08:22:59Z</time></trkpt><trkpt lat="39.22267182321356" lon="8.466462806933627"><ele>109.5</ele><time>2026-04-06T08:23:00Z</time></trkpt><trkpt lat="39.22280578340105" lon="8.466427321348853"><ele>111.0</ele><time>2026-04-06T08:23:01Z</time></trkpt><trkpt lat="39.22294290558044" lon="8.466390918660938"><ele>112.5</ele><time>2026-04-06T08:23:02Z</time></trkpt><trkpt lat="39.22308363640485" lon="8.466360334430977"><ele>114.0</ele><time>2026-04-06T08:23:03Z</time></trkpt><trkpt lat="39.2232318112218" lon="8.466328683070648"><ele>113.66666666666666</ele><time>2026-04-06T08:23:04Z</time></trkpt><trkpt lat="39.22339101616334" lon="8.466293416476118"><ele>113.33333333333333</ele><time>2026-04-06T08:23:05Z</time></trkpt><trkpt lat="39.223558283423394" lon="8.466256792278585"><ele>113.0</ele><time>2026-04-06T08:23:06Z</time></trkpt><trkpt lat="39.22373648510295" lon="8.46621677035361"><ele>113.0</ele><time>2026-04-06T08:23:07Z</time></trkpt><trkpt lat="39.22391945387707" lon="8.466175375214368"><ele>113.0</ele><time>2026-04-06T08:23:08Z</time></trkpt><trkpt lat="39.22409344623871" lon="8.466133933010086"><ele>113.0</ele><time>2026-04-06T08:23:09Z</time></trkpt><trkpt lat="39.224268615423114" lon="8.466094992501688"><ele>113.33333333333333</ele><time>2026-04-06T08:23:10Z</time></trkpt><trkpt lat="39.22444610843108" lon="8.466058258144166"><ele>113.66666666666666</ele><time>2026-04-06T08:23:11Z</time></trkpt><trkpt lat="39.22461782789459" lon="8.466020815145358"><ele>114.0</ele><time>2026-04-06T08:23:12Z</time></trkpt><trkpt lat="39.2247805115717" lon="8.465982749182041"><ele>114.66666666666666</ele><time>2026-04-06T08:23:13Z</time></trkpt><trkpt lat="39.224932958592085" lon="8.465945884254428"><ele>115.33333333333333</ele><time>2026-04-06T08:23:14Z</time></trkpt><trkpt lat="39.22508098640489" lon="8.46591156273476"><ele>116.0</ele><time>2026-04-06T08:23:15Z</time></trkpt><trkpt lat="39.2252279290973" lon="8.465877031766142"><ele>116.0</ele><time>2026-04-06T08:23:16Z</time></trkpt><trkpt lat="39.22537753361837" lon="8.465839980823723"><ele>116.0</ele><time>2026-04-06T08:23:16.999Z</time></trkpt><trkpt lat="39.22553169203143" lon="8.465801951357234"><ele>116.0</ele><time>2026-04-06T08:23:17.999Z</time></trkpt><trkpt lat="39.2256890651798" lon="8.46576716087892"><ele>116.66666666666666</ele><time>2026-04-06T08:23:18.999Z</time></trkpt><trkpt lat="39.22585665302526" lon="8.465730856040341"><ele>117.33333333333334</ele><time>2026-04-06T08:23:19.999Z</time></trkpt><trkpt lat="39.22603138877386" lon="8.465693293369174"><ele>118.0</ele><time>2026-04-06T08:23:20.999Z</time></trkpt><trkpt lat="39.22620989320571" lon="8.46565445027547"><ele>118.0</ele><time>2026-04-06T08:23:21.999Z</time></trkpt><trkpt lat="39.226381674172764" lon="8.465617459265616"><ele>118.0</ele><time>2026-04-06T08:23:22.999Z</time></trkpt><trkpt lat="39.22654047224926" lon="8.465581769530093"><ele>118.0</ele><time>2026-04-06T08:23:23.999Z</time></trkpt><trkpt lat="39.22668857851729" lon="8.465553654233952"><ele>119.33333333333334</ele><time>2026-04-06T08:23:24.999Z</time></trkpt><trkpt lat="39.226837537193965" lon="8.465524025759871"><ele>120.66666666666666</ele><time>2026-04-06T08:23:25.999Z</time></trkpt><trkpt lat="39.22698570951769" lon="8.465490942483408"><ele>122.0</ele><time>2026-04-06T08:23:26.999Z</time></trkpt><trkpt lat="39.227138937846654" lon="8.465453634806835"><ele>121.33333333333333</ele><time>2026-04-06T08:23:27.999Z</time></trkpt><trkpt lat="39.22729873364134" lon="8.465418121499726"><ele>120.66666666666666</ele><time>2026-04-06T08:23:28.999Z</time></trkpt><trkpt lat="39.227463812027295" lon="8.465380316263468"><ele>120.0</ele><time>2026-04-06T08:23:29.999Z</time></trkpt><trkpt lat="39.2276373048157" lon="8.465344793800309"><ele>120.0</ele><time>2026-04-06T08:23:30.999Z</time></trkpt><trkpt lat="39.22781485767522" lon="8.465309377204733"><ele>120.0</ele><time>2026-04-06T08:23:31.999Z</time></trkpt><trkpt lat="39.22799317955625" lon="8.465268194532683"><ele>120.0</ele><time>2026-04-06T08:23:32.999Z</time></trkpt><trkpt lat="39.22816337789683" lon="8.465230706508763"><ele>120.66666666666666</ele><time>2026-04-06T08:23:33.999Z</time></trkpt><trkpt lat="39.22832862262099" lon="8.465194316035118"><ele>121.33333333333333</ele><time>2026-04-06T08:23:34.999Z</time></trkpt><trkpt lat="39.228493584889605" lon="8.465160264040263"><ele>122.0</ele><time>2026-04-06T08:23:35.999Z</time></trkpt><trkpt lat="39.22865758627155" lon="8.465126191845155"><ele>122.0</ele><time>2026-04-06T08:23:36.999Z</time></trkpt><trkpt lat="39.22881643376549" lon="8.465093057245427"><ele>122.0</ele><time>2026-04-06T08:23:37.999Z</time></trkpt><trkpt lat="39.22897793974043" lon="8.465056734899482"><ele>122.0</ele><time>2026-04-06T08:23:38.999Z</time></trkpt><trkpt lat="39.2291367759874" lon="8.465018876963565"><ele>122.25</ele><time>2026-04-06T08:23:39.999Z</time></trkpt><trkpt lat="39.22928430788259" lon="8.4649861839369"><ele>122.5</ele><time>2026-04-06T08:23:40.999Z</time></trkpt><trkpt lat="39.22942140863468" lon="8.464957305856725"><ele>122.75</ele><time>2026-04-06T08:23:41.999Z</time></trkpt><trkpt lat="39.229551649039294" lon="8.46492951133717"><ele>123.0</ele><time>2026-04-06T08:23:42.999Z</time></trkpt><trkpt lat="39.229679005373505" lon="8.464901601562058"><ele>122.75</ele><time>2026-04-06T08:23:43.999Z</time></trkpt><trkpt lat="39.22981249431099" lon="8.464875498285547"><ele>122.5</ele><time>2026-04-06T08:23:44.999Z</time></trkpt><trkpt lat="39.22995039355149" lon="8.464843905331842"><ele>122.25</ele><time>2026-04-06T08:23:45.999Z</time></trkpt><trkpt lat="39.23008836904699" lon="8.464808655948254"><ele>122.0</ele><time>2026-04-06T08:23:46.999Z</time></trkpt><trkpt lat="39.23022454235705" lon="8.464766952393397"><ele>122.0</ele><time>2026-04-06T08:23:47.999Z</time></trkpt><trkpt lat="39.23035908687974" lon="8.464718695496249"><ele>122.0</ele><time>2026-04-06T08:23:48.999Z</time></trkpt><trkpt lat="39.2304966606728" lon="8.464666604973566"><ele>122.0</ele><time>2026-04-06T08:23:49.999Z</time></trkpt><trkpt lat="39.23063234302456" lon="8.46460698866364"><ele>122.0</ele><time>2026-04-06T08:23:50.999Z</time></trkpt><trkpt lat="39.230767263091174" lon="8.46453848780559"><ele>122.25</ele><time>2026-04-06T08:23:51.999Z</time></trkpt><trkpt lat="39.23089262076161" lon="8.464467846863167"><ele>122.5</ele><time>2026-04-06T08:23:52.999Z</time></trkpt><trkpt lat="39.23101227182765" lon="8.464394884272851"><ele>122.75</ele><time>2026-04-06T08:23:53.999Z</time></trkpt><trkpt lat="39.23112182248895" lon="8.464324395918451"><ele>123.0</ele><time>2026-04-06T08:23:54.999Z</time></trkpt><trkpt lat="39.2312262078961" lon="8.464257108082082"><ele>123.0</ele><time>2026-04-06T08:23:55.999Z</time></trkpt><trkpt lat="39.231322460700675" lon="8.46419074874965"><ele>123.00000000000001</ele><time>2026-04-06T08:23:56.999Z</time></trkpt><trkpt lat="39.231414804744716" lon="8.464129312642624"><ele>123.00000000000001</ele><time>2026-04-06T08:23:57.999Z</time></trkpt><trkpt lat="39.23150384702544" lon="8.464070094022727"><ele>123.0</ele><time>2026-04-06T08:23:58.999Z</time></trkpt><trkpt lat="39.23159115347265" lon="8.464018538464765"><ele>123.0</ele><time>2026-04-06T08:23:59.999Z</time></trkpt><trkpt lat="39.23167396669216" lon="8.463997353028942"><ele>122.80000000000001</ele><time>2026-04-06T08:24:00.999Z</time></trkpt><trkpt lat="39.23175933587571" lon="8.463972058304382"><ele>122.60000000000001</ele><time>2026-04-06T08:24:01.999Z</time></trkpt><trkpt lat="39.23184112360828" lon="8.463923451982161"><ele>122.39999999999999</ele><time>2026-04-06T08:24:02.999Z</time></trkpt><trkpt lat="39.23191119883578" lon="8.463833877794267"><ele>122.19999999999999</ele><time>2026-04-06T08:24:03.999Z</time></trkpt><trkpt lat="39.2319507583284" lon="8.463729587578252"><ele>122.0</ele><time>2026-04-06T08:24:04.999Z</time></trkpt><trkpt lat="39.231998819516704" lon="8.463607635470266"><ele>122.0</ele><time>2026-04-06T08:24:05.999Z</time></trkpt><trkpt lat="39.232084632824915" lon="8.463498557069506"><ele>122.0</ele><time>2026-04-06T08:24:06.999Z</time></trkpt><trkpt lat="39.23219839371437" lon="8.463372012763658"><ele>122.0</ele><time>2026-04-06T08:24:07.999Z</time></trkpt><trkpt lat="39.2323169074072" lon="8.463232499566244"><ele>122.0</ele><time>2026-04-06T08:24:08.999Z</time></trkpt><trkpt lat="39.2324196374667" lon="8.463098425435572"><ele>120.66666666666666</ele><time>2026-04-06T08:24:09.999Z</time></trkpt><trkpt lat="39.23252437872198" lon="8.462951606703497"><ele>119.33333333333334</ele><time>2026-04-06T08:24:10.999Z</time></trkpt><trkpt lat="39.232629857126554" lon="8.462801486621995"><ele>118.0</ele><time>2026-04-06T08:24:11.999Z</time></trkpt><trkpt lat="39.23273711571814" lon="8.462649102468632"><ele>118.0</ele><time>2026-04-06T08:24:12.999Z</time></trkpt><trkpt lat="39.23284087985872" lon="8.462500717375159"><ele>118.0</ele><time>2026-04-06T08:24:13.999Z</time></trkpt><trkpt lat="39.232950096865764" lon="8.462346247130736"><ele>118.0</ele><time>2026-04-06T08:24:14.999Z</time></trkpt><trkpt lat="39.23306323454962" lon="8.462184388796414"><ele>115.33333333333334</ele><time>2026-04-06T08:24:15.999Z</time></trkpt><trkpt lat="39.23317226389994" lon="8.462026424331748"><ele>112.66666666666666</ele><time>2026-04-06T08:24:16.999Z</time></trkpt><trkpt lat="39.23328550683696" lon="8.461865121011655"><ele>110.0</ele><time>2026-04-06T08:24:17.999Z</time></trkpt><trkpt lat="39.233397833946896" lon="8.461708756171733"><ele>110.0</ele><time>2026-04-06T08:24:18.999Z</time></trkpt><trkpt lat="39.23350358365607" lon="8.461560493159878"><ele>110.0</ele><time>2026-04-06T08:24:19.999Z</time></trkpt><trkpt lat="39.233609556353976" lon="8.461415199289043"><ele>110.0</ele><time>2026-04-06T08:24:20.999Z</time></trkpt><trkpt lat="39.23371561735057" lon="8.461275091368067"><ele>110.0</ele><time>2026-04-06T08:24:21.999Z</time></trkpt><trkpt lat="39.233813798588606" lon="8.46115664909234"><ele>110.0</ele><time>2026-04-06T08:24:22.999Z</time></trkpt><trkpt lat="39.23391736395831" lon="8.461049861633269"><ele>110.0</ele><time>2026-04-06T08:24:23.999Z</time></trkpt><trkpt lat="39.234084663528996" lon="8.460913992972273"><ele>108.33333333333333</ele><time>2026-04-06T08:24:24.999Z</time></trkpt><trkpt lat="39.234218975231485" lon="8.460810735517015"><ele>106.66666666666666</ele><time>2026-04-06T08:24:25.999Z</time></trkpt><trkpt lat="39.23435612374132" lon="8.460715097625895"><ele>105.0</ele><time>2026-04-06T08:24:26.999Z</time></trkpt><trkpt lat="39.234494987431724" lon="8.460633641984828"><ele>105.0</ele><time>2026-04-06T08:24:27.999Z</time></trkpt><trkpt lat="39.23463537607121" lon="8.460565565302938"><ele>105.0</ele><time>2026-04-06T08:24:28.999Z</time></trkpt><trkpt lat="39.23479001043704" lon="8.46050635163575"><ele>105.0</ele><time>2026-04-06T08:24:29.999Z</time></trkpt><trkpt lat="39.23497257156344" lon="8.460447978560957"><ele>104.5</ele><time>2026-04-06T08:24:30.999Z</time></trkpt><trkpt lat="39.23518444784183" lon="8.460389051923293"><ele>104.0</ele><time>2026-04-06T08:24:31.999Z</time></trkpt><trkpt lat="39.23541516054547" lon="8.460322769551098"><ele>101.5</ele><time>2026-04-06T08:24:32.999Z</time></trkpt><trkpt lat="39.23566249871039" lon="8.460251710811493"><ele>99.0</ele><time>2026-04-06T08:24:33.999Z</time></trkpt><trkpt lat="39.235923157978625" lon="8.460176824991876"><ele>99.0</ele><time>2026-04-06T08:24:34.999Z</time></trkpt><trkpt lat="39.23619054321217" lon="8.460100007989217"><ele>99.0</ele><time>2026-04-06T08:24:35.999Z</time></trkpt><trkpt lat="39.23644932120039" lon="8.460003824885804"><ele>98.0</ele><time>2026-04-06T08:24:36.999Z</time></trkpt><trkpt lat="39.23671365522035" lon="8.459930375180448"><ele>97.0</ele><time>2026-04-06T08:24:37.999Z</time></trkpt><trkpt lat="39.23698344256102" lon="8.459859370309305"><ele>97.0</ele><time>2026-04-06T08:24:38.999Z</time></trkpt><trkpt lat="39.23724987012987" lon="8.459781640506977"><ele>97.0</ele><time>2026-04-06T08:24:39.999Z</time></trkpt><trkpt lat="39.237522080137104" lon="8.45970686276047"><ele>96.0</ele><time>2026-04-06T08:24:40.999Z</time></trkpt><trkpt lat="39.23779233947146" lon="8.459632577426623"><ele>95.0</ele><time>2026-04-06T08:24:41.999Z</time></trkpt><trkpt lat="39.23806251774924" lon="8.45955491655921"><ele>93.5</ele><time>2026-04-06T08:24:42.999Z</time></trkpt><trkpt lat="39.23831993217033" lon="8.45948021640328"><ele>92.0</ele><time>2026-04-06T08:24:43.999Z</time></trkpt><trkpt lat="39.23855863895117" lon="8.459410617635129"><ele>92.0</ele><time>2026-04-06T08:24:44.999Z</time></trkpt><trkpt lat="39.23878662744641" lon="8.459344184452807"><ele>92.0</ele><time>2026-04-06T08:24:45.999Z</time></trkpt><trkpt lat="39.239013965900824" lon="8.459277492645002"><ele>90.5</ele><time>2026-04-06T08:24:46.999Z</time></trkpt><trkpt lat="39.23923850972942" lon="8.459210775605358"><ele>89.0</ele><time>2026-04-06T08:24:47.999Z</time></trkpt><trkpt lat="39.23946264562465" lon="8.459141448395055"><ele>89.0</ele><time>2026-04-06T08:24:48.999Z</time></trkpt><trkpt lat="39.23968800014933" lon="8.459075714096342"><ele>89.0</ele><time>2026-04-06T08:24:49.999Z</time></trkpt><trkpt lat="39.239910044557114" lon="8.459010890056877"><ele>88.0</ele><time>2026-04-06T08:24:50.999Z</time></trkpt><trkpt lat="39.24013533494149" lon="8.458946746770351"><ele>87.0</ele><time>2026-04-06T08:24:51.999Z</time></trkpt><trkpt lat="39.2403615611604" lon="8.458880509858945"><ele>87.0</ele><time>2026-04-06T08:24:52.999Z</time></trkpt><trkpt lat="39.24058973585299" lon="8.458816596819416"><ele>87.0</ele><time>2026-04-06T08:24:53.999Z</time></trkpt><trkpt lat="39.24081115433599" lon="8.458751633608383"><ele>85.33333333333333</ele><time>2026-04-06T08:24:54.999Z</time></trkpt><trkpt lat="39.241020133251524" lon="8.458697531953138"><ele>83.66666666666666</ele><time>2026-04-06T08:24:55.999Z</time></trkpt><trkpt lat="39.24121224574583" lon="8.45863706519897"><ele>82.0</ele><time>2026-04-06T08:24:56.999Z</time></trkpt><trkpt lat="39.241397513118926" lon="8.458588487698695"><ele>82.0</ele><time>2026-04-06T08:24:57.999Z</time></trkpt><trkpt lat="39.24157012701204" lon="8.458544146985039"><ele>82.0</ele><time>2026-04-06T08:24:58.999Z</time></trkpt><trkpt lat="39.24172003095702" lon="8.45850532128013"><ele>82.0</ele><time>2026-04-06T08:24:59.999Z</time></trkpt><trkpt lat="39.241855032520164" lon="8.458475164097054"><ele>82.0</ele><time>2026-04-06T08:25:00.999Z</time></trkpt><trkpt lat="39.2419735879517" lon="8.458468980548568"><ele>82.0</ele><time>2026-04-06T08:25:01.999Z</time></trkpt><trkpt lat="39.24208338271159" lon="8.458490839714688"><ele>82.0</ele><time>2026-04-06T08:25:02.999Z</time></trkpt><trkpt lat="39.242183965342356" lon="8.458500039280283"><ele>82.0</ele><time>2026-04-06T08:25:03.999Z</time></trkpt><trkpt lat="39.24228275332222" lon="8.458454088145828"><ele>82.0</ele><time>2026-04-06T08:25:04.999Z</time></trkpt><trkpt lat="39.24238619978352" lon="8.45835292981088"><ele>81.33333333333333</ele><time>2026-04-06T08:25:05.999Z</time></trkpt><trkpt lat="39.242503641854384" lon="8.458258909201092"><ele>80.66666666666667</ele><time>2026-04-06T08:25:06.999Z</time></trkpt><trkpt lat="39.24265377782238" lon="8.45821010596158"><ele>80.0</ele><time>2026-04-06T08:25:07.999Z</time></trkpt><trkpt lat="39.242825745729256" lon="8.458172316726793"><ele>80.0</ele><time>2026-04-06T08:25:08.999Z</time></trkpt><trkpt lat="39.243003850836494" lon="8.458127159655769"><ele>80.0</ele><time>2026-04-06T08:25:09.999Z</time></trkpt><trkpt lat="39.24317510380796" lon="8.458076937176799"><ele>80.0</ele><time>2026-04-06T08:25:10.999Z</time></trkpt><trkpt lat="39.24335719224425" lon="8.458020991020726"><ele>79.0</ele><time>2026-04-06T08:25:11.999Z</time></trkpt><trkpt lat="39.2435538778538" lon="8.45796196400942"><ele>78.0</ele><time>2026-04-06T08:25:12.999Z</time></trkpt><trkpt lat="39.24375617489512" lon="8.457900817340962"><ele>77.0</ele><time>2026-04-06T08:25:13.999Z</time></trkpt><trkpt lat="39.24395913242578" lon="8.45784072207456"><ele>75.66666666666667</ele><time>2026-04-06T08:25:14.999Z</time></trkpt><trkpt lat="39.24416553139308" lon="8.457783175364352"><ele>74.33333333333333</ele><time>2026-04-06T08:25:15.999Z</time></trkpt><trkpt lat="39.24437466592066" lon="8.457723687251269"><ele>73.0</ele><time>2026-04-06T08:25:16.999Z</time></trkpt><trkpt lat="39.24459199621657" lon="8.457661522777439"><ele>71.0</ele><time>2026-04-06T08:25:17.999Z</time></trkpt><trkpt lat="39.2448133899651" lon="8.45759711966146"><ele>69.0</ele><time>2026-04-06T08:25:18.999Z</time></trkpt><trkpt lat="39.24503980780646" lon="8.457536862780955"><ele>69.0</ele><time>2026-04-06T08:25:19.999Z</time></trkpt><trkpt lat="39.24526969668513" lon="8.457480162117383"><ele>69.0</ele><time>2026-04-06T08:25:20.999Z</time></trkpt><trkpt lat="39.24550139200873" lon="8.457425867573445"><ele>67.5</ele><time>2026-04-06T08:25:21.999Z</time></trkpt><trkpt lat="39.24573602202324" lon="8.457377971859431"><ele>66.0</ele><time>2026-04-06T08:25:22.999Z</time></trkpt><trkpt lat="39.24596993969105" lon="8.457338530353836"><ele>66.0</ele><time>2026-04-06T08:25:23.999Z</time></trkpt><trkpt lat="39.24620770025822" lon="8.457305517160336"><ele>66.0</ele><time>2026-04-06T08:25:24.999Z</time></trkpt><trkpt lat="39.24644836415659" lon="8.457276127333728"><ele>67.0</ele><time>2026-04-06T08:25:25.999Z</time></trkpt><trkpt lat="39.246685134498776" lon="8.457249227877178"><ele>68.0</ele><time>2026-04-06T08:25:26.999Z</time></trkpt><trkpt lat="39.24690771479316" lon="8.457221263932968"><ele>68.0</ele><time>2026-04-06T08:25:27.999Z</time></trkpt><trkpt lat="39.247113825887205" lon="8.457194325706775"><ele>68.0</ele><time>2026-04-06T08:25:28.999Z</time></trkpt><trkpt lat="39.247307337313124" lon="8.457171459397527"><ele>68.0</ele><time>2026-04-06T08:25:29.999Z</time></trkpt><trkpt lat="39.24749298214443" lon="8.457149515149673"><ele>67.0</ele><time>2026-04-06T08:25:30.999Z</time></trkpt><trkpt lat="39.24766942701998" lon="8.457124363901475"><ele>66.0</ele><time>2026-04-06T08:25:31.999Z</time></trkpt><trkpt lat="39.247846344011016" lon="8.457145773365655"><ele>65.0</ele><time>2026-04-06T08:25:32.999Z</time></trkpt><trkpt lat="39.24803062183161" lon="8.457159643784097"><ele>64.33333333333334</ele><time>2026-04-06T08:25:33.999Z</time></trkpt><trkpt lat="39.24822557046362" lon="8.457181835035524"><ele>63.66666666666667</ele><time>2026-04-06T08:25:34.999Z</time></trkpt><trkpt lat="39.248421610149" lon="8.457243272258069"><ele>63.0</ele><time>2026-04-06T08:25:35.999Z</time></trkpt><trkpt lat="39.2486186509306" lon="8.45732171117367"><ele>63.0</ele><time>2026-04-06T08:25:36.999Z</time></trkpt><trkpt lat="39.24881673040051" lon="8.45741745302834"><ele>63.0</ele><time>2026-04-06T08:25:37.999Z</time></trkpt><trkpt lat="39.249008684504496" lon="8.457513979784176"><ele>63.0</ele><time>2026-04-06T08:25:38.999Z</time></trkpt><trkpt lat="39.24919834230545" lon="8.457603298599084"><ele>62.33333333333333</ele><time>2026-04-06T08:25:39.999Z</time></trkpt><trkpt lat="39.249392317056106" lon="8.457689378242083"><ele>61.666666666666664</ele><time>2026-04-06T08:25:40.999Z</time></trkpt><trkpt lat="39.24958539779925" lon="8.457781115810555"><ele>61.0</ele><time>2026-04-06T08:25:41.999Z</time></trkpt><trkpt lat="39.24978258315802" lon="8.457877563225505"><ele>59.666666666666664</ele><time>2026-04-06T08:25:42.999Z</time></trkpt><trkpt lat="39.24997804066716" lon="8.45797260426832"><ele>58.33333333333333</ele><time>2026-04-06T08:25:43.999Z</time></trkpt><trkpt lat="39.25017621661155" lon="8.458065214533212"><ele>57.0</ele><time>2026-04-06T08:25:44.999Z</time></trkpt><trkpt lat="39.250374431531036" lon="8.458157580617794"><ele>57.0</ele><time>2026-04-06T08:25:45.999Z</time></trkpt><trkpt lat="39.25057370357041" lon="8.458252487410727"><ele>57.0</ele><time>2026-04-06T08:25:46.999Z</time></trkpt><trkpt lat="39.25077629208536" lon="8.458347573678331"><ele>57.0</ele><time>2026-04-06T08:25:47.999Z</time></trkpt><trkpt lat="39.25098227670479" lon="8.45844443507503"><ele>57.0</ele><time>2026-04-06T08:25:48.999Z</time></trkpt><trkpt lat="39.251189837537225" lon="8.458539372233208"><ele>57.0</ele><time>2026-04-06T08:25:49.999Z</time></trkpt><trkpt lat="39.25139713132269" lon="8.458634992893911"><ele>57.0</ele><time>2026-04-06T08:25:50.999Z</time></trkpt><trkpt lat="39.25160539204226" lon="8.458731907317445"><ele>55.33333333333333</ele><time>2026-04-06T08:25:51.999Z</time></trkpt><trkpt lat="39.25181538216476" lon="8.458829246012721"><ele>53.666666666666664</ele><time>2026-04-06T08:25:52.999Z</time></trkpt><trkpt lat="39.2520269677034" lon="8.458917689113784"><ele>52.0</ele><time>2026-04-06T08:25:53.999Z</time></trkpt><trkpt lat="39.25224432342614" lon="8.458978681208437"><ele>51.0</ele><time>2026-04-06T08:25:54.999Z</time></trkpt><trkpt lat="39.2524700392164" lon="8.459012690264666"><ele>50.0</ele><time>2026-04-06T08:25:55.999Z</time></trkpt><trkpt lat="39.252692278731644" lon="8.459023798919736"><ele>50.0</ele><time>2026-04-06T08:25:56.999Z</time></trkpt><trkpt lat="39.25291637175591" lon="8.45901663700008"><ele>50.0</ele><time>2026-04-06T08:25:57.999Z</time></trkpt><trkpt lat="39.25314509752281" lon="8.458997506974004"><ele>49.66666666666667</ele><time>2026-04-06T08:25:58.999Z</time></trkpt><trkpt lat="39.25336561892951" lon="8.458966651994476"><ele>49.33333333333333</ele><time>2026-04-06T08:25:59.999Z</time></trkpt><trkpt lat="39.253586468798154" lon="8.45893227080569"><ele>49.0</ele><time>2026-04-06T08:26:00.999Z</time></trkpt><trkpt lat="39.253809835373055" lon="8.45889710122261"><ele>47.666666666666664</ele><time>2026-04-06T08:26:01.999Z</time></trkpt><trkpt lat="39.25403297139117" lon="8.458862816294603"><ele>46.33333333333333</ele><time>2026-04-06T08:26:02.999Z</time></trkpt><trkpt lat="39.254253837358874" lon="8.458828864046746"><ele>45.0</ele><time>2026-04-06T08:26:03.999Z</time></trkpt><trkpt lat="39.254474661529464" lon="8.458793719976995"><ele>45.666666666666664</ele><time>2026-04-06T08:26:04.999Z</time></trkpt><trkpt lat="39.25468727932716" lon="8.458759677646531"><ele>46.33333333333333</ele><time>2026-04-06T08:26:05.999Z</time></trkpt><trkpt lat="39.25488694807468" lon="8.458732558515928"><ele>47.0</ele><time>2026-04-06T08:26:06.999Z</time></trkpt><trkpt lat="39.255075935919706" lon="8.458721248302458"><ele>47.0</ele><time>2026-04-06T08:26:07.999Z</time></trkpt><trkpt lat="39.25526859471228" lon="8.45872389686839"><ele>47.0</ele><time>2026-04-06T08:26:08.999Z</time></trkpt><trkpt lat="39.25546566306639" lon="8.458742968707565"><ele>47.0</ele><time>2026-04-06T08:26:09.999Z</time></trkpt><trkpt lat="39.2556671007532" lon="8.45878137513303"><ele>45.666666666666664</ele><time>2026-04-06T08:26:10.999Z</time></trkpt><trkpt lat="39.25587075941899" lon="8.45884217707251"><ele>44.333333333333336</ele><time>2026-04-06T08:26:11.999Z</time></trkpt><trkpt lat="39.256072107993305" lon="8.458922964816791"><ele>43.0</ele><time>2026-04-06T08:26:12.999Z</time></trkpt><trkpt lat="39.25627027750781" lon="8.459025048590592"><ele>43.333333333333336</ele><time>2026-04-06T08:26:13.999Z</time></trkpt><trkpt lat="39.25646508201952" lon="8.459144218553664"><ele>43.666666666666664</ele><time>2026-04-06T08:26:14.999Z</time></trkpt><trkpt lat="39.256656597387035" lon="8.459273333175307"><ele>44.0</ele><time>2026-04-06T08:26:15.999Z</time></trkpt><trkpt lat="39.25684972301735" lon="8.459404925254491"><ele>44.0</ele><time>2026-04-06T08:26:16.999Z</time></trkpt><trkpt lat="39.25703238827264" lon="8.459527022346386"><ele>44.0</ele><time>2026-04-06T08:26:17.999Z</time></trkpt><trkpt lat="39.25720599847959" lon="8.459640554044254"><ele>44.0</ele><time>2026-04-06T08:26:18.999Z</time></trkpt><trkpt lat="39.25737167937773" lon="8.459747812000995"><ele>42.0</ele><time>2026-04-06T08:26:19.999Z</time></trkpt><trkpt lat="39.25753146048931" lon="8.459850558998063"><ele>40.0</ele><time>2026-04-06T08:26:20.999Z</time></trkpt><trkpt lat="39.257685476506786" lon="8.459948485621844"><ele>38.0</ele><time>2026-04-06T08:26:21.999Z</time></trkpt><trkpt lat="39.25782707425777" lon="8.460042045759206"><ele>38.0</ele><time>2026-04-06T08:26:22.999Z</time></trkpt><trkpt lat="39.25795131907644" lon="8.460124117987935"><ele>38.0</ele><time>2026-04-06T08:26:23.999Z</time></trkpt><trkpt lat="39.25805413968947" lon="8.460192668091505"><ele>38.0</ele><time>2026-04-06T08:26:24.999Z</time></trkpt><trkpt lat="39.25813281863818" lon="8.460263554041521"><ele>38.0</ele><time>2026-04-06T08:26:25.999Z</time></trkpt><trkpt lat="39.25818586866689" lon="8.460358889560345"><ele>38.0</ele><time>2026-04-06T08:26:26.999Z</time></trkpt><trkpt lat="39.25822156730986" lon="8.460471692368788"><ele>37.8</ele><time>2026-04-06T08:26:27.999Z</time></trkpt><trkpt lat="39.258270751288954" lon="8.46055988671005"><ele>37.599999999999994</ele><time>2026-04-06T08:26:28.999Z</time></trkpt><trkpt lat="39.258423894305274" lon="8.460608201015837"><ele>37.400000000000006</ele><time>2026-04-06T08:26:31Z</time></trkpt><trkpt lat="39.25851268416041" lon="8.460575574095104"><ele>37.2</ele><time>2026-04-06T08:26:32Z</time></trkpt><trkpt lat="39.25860873516023" lon="8.460512772836566"><ele>37.0</ele><time>2026-04-06T08:26:33Z</time></trkpt><trkpt lat="39.25871997241627" lon="8.460469637935718"><ele>37.0</ele><time>2026-04-06T08:26:34Z</time></trkpt><trkpt lat="39.25885159933411" lon="8.460469727924114"><ele>37.0</ele><time>2026-04-06T08:26:35Z</time></trkpt><trkpt lat="39.25900031218548" lon="8.460496352128022"><ele>37.0</ele><time>2026-04-06T08:26:36Z</time></trkpt><trkpt lat="39.25915193431125" lon="8.460516803115269"><ele>37.0</ele><time>2026-04-06T08:26:37Z</time></trkpt><trkpt lat="39.259303351408555" lon="8.460523244991315"><ele>36.0</ele><time>2026-04-06T08:26:38Z</time></trkpt><trkpt lat="39.259471410164856" lon="8.460507219629543"><ele>35.0</ele><time>2026-04-06T08:26:39Z</time></trkpt><trkpt lat="39.25965210770979" lon="8.460476466391281"><ele>34.0</ele><time>2026-04-06T08:26:40Z</time></trkpt><trkpt lat="39.2598250973384" lon="8.46044450386679"><ele>36.333333333333336</ele><time>2026-04-06T08:26:41Z</time></trkpt><trkpt lat="39.26000267401587" lon="8.460413159991077"><ele>38.666666666666664</ele><time>2026-04-06T08:26:42Z</time></trkpt><trkpt lat="39.260186284026254" lon="8.460377644598857"><ele>41.0</ele><time>2026-04-06T08:26:43Z</time></trkpt><trkpt lat="39.26037341568596" lon="8.460340928161491"><ele>41.0</ele><time>2026-04-06T08:26:44Z</time></trkpt><trkpt lat="39.26056510436789" lon="8.460306160652868"><ele>41.0</ele><time>2026-04-06T08:26:45Z</time></trkpt><trkpt lat="39.260753626008196" lon="8.46027196784198"><ele>41.0</ele><time>2026-04-06T08:26:46Z</time></trkpt><trkpt lat="39.260928706215864" lon="8.46023925417639"><ele>39.0</ele><time>2026-04-06T08:26:47Z</time></trkpt><trkpt lat="39.261090567060236" lon="8.46020786931617"><ele>37.0</ele><time>2026-04-06T08:26:48Z</time></trkpt><trkpt lat="39.26124636742901" lon="8.460176339687644"><ele>35.0</ele><time>2026-04-06T08:26:49Z</time></trkpt><trkpt lat="39.26139017016839" lon="8.46014880003179"><ele>34.0</ele><time>2026-04-06T08:26:50Z</time></trkpt><trkpt lat="39.261528668451994" lon="8.460122590980852"><ele>33.0</ele><time>2026-04-06T08:26:51Z</time></trkpt><trkpt lat="39.26166474949094" lon="8.460106347349024"><ele>32.0</ele><time>2026-04-06T08:26:52Z</time></trkpt><trkpt lat="39.261809921392604" lon="8.460091892547803"><ele>31.0</ele><time>2026-04-06T08:26:53Z</time></trkpt><trkpt lat="39.26196643519389" lon="8.460060646717631"><ele>31.0</ele><time>2026-04-06T08:26:54Z</time></trkpt><trkpt lat="39.262137779168505" lon="8.460024477790194"><ele>31.0</ele><time>2026-04-06T08:26:55Z</time></trkpt><trkpt lat="39.26231601016236" lon="8.459991511323663"><ele>31.0</ele><time>2026-04-06T08:26:56Z</time></trkpt><trkpt lat="39.262506419718065" lon="8.459953843808435"><ele>30.0</ele><time>2026-04-06T08:26:57Z</time></trkpt><trkpt lat="39.26270295980638" lon="8.45991151108738"><ele>29.0</ele><time>2026-04-06T08:26:58Z</time></trkpt><trkpt lat="39.26290258849863" lon="8.459871084942504"><ele>28.0</ele><time>2026-04-06T08:26:59Z</time></trkpt><trkpt lat="39.2631053972351" lon="8.459841266780847"><ele>27.666666666666668</ele><time>2026-04-06T08:27:00Z</time></trkpt><trkpt lat="39.263311473947766" lon="8.459819774840161"><ele>27.333333333333336</ele><time>2026-04-06T08:27:01Z</time></trkpt><trkpt lat="39.26352077911072" lon="8.45981836051855"><ele>27.0</ele><time>2026-04-06T08:27:02Z</time></trkpt><trkpt lat="39.26373497938647" lon="8.459849741029686"><ele>27.0</ele><time>2026-04-06T08:27:03Z</time></trkpt><trkpt lat="39.263942144862646" lon="8.459905230505258"><ele>27.0</ele><time>2026-04-06T08:27:04Z</time></trkpt><trkpt lat="39.264150365607286" lon="8.459976884950466"><ele>27.0</ele><time>2026-04-06T08:27:05Z</time></trkpt><trkpt lat="39.264354443538984" lon="8.460067654569219"><ele>26.0</ele><time>2026-04-06T08:27:06Z</time></trkpt><trkpt lat="39.26455044317328" lon="8.460181094271782"><ele>25.0</ele><time>2026-04-06T08:27:07Z</time></trkpt><trkpt lat="39.264740904853696" lon="8.46031226991724"><ele>24.0</ele><time>2026-04-06T08:27:08Z</time></trkpt><trkpt lat="39.26493121060789" lon="8.460462650576146"><ele>23.0</ele><time>2026-04-06T08:27:09Z</time></trkpt><trkpt lat="39.265121009566556" lon="8.460619132534172"><ele>22.0</ele><time>2026-04-06T08:27:10Z</time></trkpt><trkpt lat="39.265302453784884" lon="8.460767359995717"><ele>21.0</ele><time>2026-04-06T08:27:11Z</time></trkpt><trkpt lat="39.26547109283105" lon="8.460903169762872"><ele>21.0</ele><time>2026-04-06T08:27:12Z</time></trkpt><trkpt lat="39.265633852255085" lon="8.461027214313447"><ele>21.0</ele><time>2026-04-06T08:27:13Z</time></trkpt><trkpt lat="39.26578914018419" lon="8.461151727077038"><ele>21.0</ele><time>2026-04-06T08:27:14Z</time></trkpt><trkpt lat="39.26593667109251" lon="8.461273622756014"><ele>22.0</ele><time>2026-04-06T08:27:15Z</time></trkpt><trkpt lat="39.26607263819132" lon="8.46139158312738"><ele>23.0</ele><time>2026-04-06T08:27:16Z</time></trkpt><trkpt lat="39.26619672846506" lon="8.461504194117012"><ele>24.0</ele><time>2026-04-06T08:27:17Z</time></trkpt><trkpt lat="39.26631382970325" lon="8.461619806789745"><ele>24.0</ele><time>2026-04-06T08:27:18Z</time></trkpt><trkpt lat="39.26642058988679" lon="8.461738379518074"><ele>24.0</ele><time>2026-04-06T08:27:19Z</time></trkpt><trkpt lat="39.266530088945366" lon="8.461864539185596"><ele>24.0</ele><time>2026-04-06T08:27:20Z</time></trkpt><trkpt lat="39.266638479394395" lon="8.461989225778018"><ele>24.0</ele><time>2026-04-06T08:27:21Z</time></trkpt><trkpt lat="39.266738491115994" lon="8.462104730306544"><ele>24.5</ele><time>2026-04-06T08:27:22Z</time></trkpt><trkpt lat="39.26683037566737" lon="8.462208731923784"><ele>25.0</ele><time>2026-04-06T08:27:23Z</time></trkpt><trkpt lat="39.26691854204465" lon="8.462310978022343"><ele>25.5</ele><time>2026-04-06T08:27:24Z</time></trkpt><trkpt lat="39.2670095949781" lon="8.462416374355707"><ele>26.0</ele><time>2026-04-06T08:27:25Z</time></trkpt><trkpt lat="39.26710259624463" lon="8.462523727115506"><ele>26.0</ele><time>2026-04-06T08:27:26Z</time></trkpt><trkpt lat="39.26720123136051" lon="8.462638240496473"><ele>26.0</ele><time>2026-04-06T08:27:27Z</time></trkpt><trkpt lat="39.2673040223687" lon="8.462756474729098"><ele>26.0</ele><time>2026-04-06T08:27:28Z</time></trkpt><trkpt lat="39.26740352103762" lon="8.46286995799313"><ele>26.0</ele><time>2026-04-06T08:27:29Z</time></trkpt><trkpt lat="39.26749485363372" lon="8.462974897068133"><ele>26.0</ele><time>2026-04-06T08:27:30Z</time></trkpt><trkpt lat="39.26758864523344" lon="8.463083675893092"><ele>26.0</ele><time>2026-04-06T08:27:31Z</time></trkpt><trkpt lat="39.26768453690296" lon="8.463194271371716"><ele>26.0</ele><time>2026-04-06T08:27:32Z</time></trkpt><trkpt lat="39.26777999117932" lon="8.463303678359118"><ele>26.0</ele><time>2026-04-06T08:27:33Z</time></trkpt><trkpt lat="39.26787510315196" lon="8.463411238933167"><ele>26.0</ele><time>2026-04-06T08:27:34Z</time></trkpt><trkpt lat="39.267969062084816" lon="8.463520995095624"><ele>26.0</ele><time>2026-04-06T08:27:35Z</time></trkpt><trkpt lat="39.26805557341037" lon="8.46362312102998"><ele>26.0</ele><time>2026-04-06T08:27:36Z</time></trkpt><trkpt lat="39.268135496080895" lon="8.46371289275938"><ele>26.0</ele><time>2026-04-06T08:27:37Z</time></trkpt><trkpt lat="39.26821796467373" lon="8.463804260880282"><ele>25.200000000000003</ele><time>2026-04-06T08:27:38Z</time></trkpt><trkpt lat="39.268301790257695" lon="8.463902474232006"><ele>24.400000000000002</ele><time>2026-04-06T08:27:39Z</time></trkpt><trkpt lat="39.268380602865015" lon="8.4639996291178"><ele>23.6</ele><time>2026-04-06T08:27:40Z</time></trkpt><trkpt lat="39.26845795346354" lon="8.464095534781967"><ele>22.8</ele><time>2026-04-06T08:27:41Z</time></trkpt><trkpt lat="39.26854489882389" lon="8.464194272870484"><ele>22.0</ele><time>2026-04-06T08:27:42Z</time></trkpt><trkpt lat="39.26864111012095" lon="8.464303011687374"><ele>22.0</ele><time>2026-04-06T08:27:43Z</time></trkpt><trkpt lat="39.26875020294126" lon="8.464430345321272"><ele>22.0</ele><time>2026-04-06T08:27:44Z</time></trkpt><trkpt lat="39.268872067512476" lon="8.46457175961506"><ele>22.0</ele><time>2026-04-06T08:27:45Z</time></trkpt><trkpt lat="39.269003189649816" lon="8.46472324714098"><ele>22.666666666666664</ele><time>2026-04-06T08:27:46Z</time></trkpt><trkpt lat="39.26914140792906" lon="8.464883648884845"><ele>23.333333333333332</ele><time>2026-04-06T08:27:47Z</time></trkpt><trkpt lat="39.26928856572543" lon="8.465052210043938"><ele>24.0</ele><time>2026-04-06T08:27:48Z</time></trkpt><trkpt lat="39.26944146169751" lon="8.465226924286062"><ele>24.0</ele><time>2026-04-06T08:27:49Z</time></trkpt><trkpt lat="39.26960375256987" lon="8.465411907004983"><ele>24.0</ele><time>2026-04-06T08:27:50Z</time></trkpt><trkpt lat="39.2697605886876" lon="8.465586334390034"><ele>24.0</ele><time>2026-04-06T08:27:51Z</time></trkpt><trkpt lat="39.26990627432723" lon="8.465750680932548"><ele>25.333333333333336</ele><time>2026-04-06T08:27:52Z</time></trkpt><trkpt lat="39.27004842219027" lon="8.4659144608346"><ele>26.666666666666668</ele><time>2026-04-06T08:27:53Z</time></trkpt><trkpt lat="39.27017679540572" lon="8.46606438546203"><ele>28.0</ele><time>2026-04-06T08:27:54Z</time></trkpt><trkpt lat="39.27030067667431" lon="8.466207732939646"><ele>28.333333333333336</ele><time>2026-04-06T08:27:55Z</time></trkpt><trkpt lat="39.270433908386565" lon="8.466355374332176"><ele>28.666666666666664</ele><time>2026-04-06T08:27:56Z</time></trkpt><trkpt lat="39.27057229974381" lon="8.466499565580921"><ele>29.0</ele><time>2026-04-06T08:27:57Z</time></trkpt><trkpt lat="39.270710675586784" lon="8.466630945788475"><ele>29.0</ele><time>2026-04-06T08:27:58Z</time></trkpt><trkpt lat="39.270835140758635" lon="8.466734304792343"><ele>29.0</ele><time>2026-04-06T08:27:59Z</time></trkpt><trkpt lat="39.27094599356681" lon="8.46681373336344"><ele>29.0</ele><time>2026-04-06T08:28:00Z</time></trkpt><trkpt lat="39.271048838124955" lon="8.46688441402669"><ele>29.0</ele><time>2026-04-06T08:28:01Z</time></trkpt><trkpt lat="39.27114679883423" lon="8.466952625700225"><ele>29.0</ele><time>2026-04-06T08:28:02Z</time></trkpt><trkpt lat="39.27124247065541" lon="8.467011940070224"><ele>29.0</ele><time>2026-04-06T08:28:03Z</time></trkpt><trkpt lat="39.27133521737744" lon="8.46706573478956"><ele>29.0</ele><time>2026-04-06T08:28:04Z</time></trkpt><trkpt lat="39.27142236779807" lon="8.46711283012146"><ele>29.0</ele><time>2026-04-06T08:28:05Z</time></trkpt><trkpt lat="39.27150996681527" lon="8.467156746621002"><ele>29.0</ele><time>2026-04-06T08:28:06Z</time></trkpt><trkpt lat="39.271595386213534" lon="8.467195108774854"><ele>28.6</ele><time>2026-04-06T08:28:07Z</time></trkpt><trkpt lat="39.27167103557928" lon="8.46722848768321"><ele>28.2</ele><time>2026-04-06T08:28:08Z</time></trkpt><trkpt lat="39.271736799921925" lon="8.467253471007497"><ele>27.800000000000004</ele><time>2026-04-06T08:28:09Z</time></trkpt><trkpt lat="39.27183388141915" lon="8.467292982101359"><ele>27.400000000000002</ele><time>2026-04-06T08:28:11Z</time></trkpt><trkpt lat="39.27189980738566" lon="8.467344030274601"><ele>27.0</ele><time>2026-04-06T08:28:13Z</time></trkpt><trkpt lat="39.27197947550569" lon="8.467469438086482"><ele>27.0</ele><time>2026-04-06T08:28:15Z</time></trkpt><trkpt lat="39.27203245084475" lon="8.467550860195823"><ele>27.000000000000004</ele><time>2026-04-06T08:28:16Z</time></trkpt><trkpt lat="39.27211338482809" lon="8.4675928311656"><ele>27.000000000000004</ele><time>2026-04-06T08:28:17Z</time></trkpt><trkpt lat="39.272206111908936" lon="8.467608525916175"><ele>27.0</ele><time>2026-04-06T08:28:18Z</time></trkpt><trkpt lat="39.272311298773076" lon="8.467602086406606"><ele>27.0</ele><time>2026-04-06T08:28:19Z</time></trkpt><trkpt lat="39.272417643307996" lon="8.46758429551148"><ele>26.75</ele><time>2026-04-06T08:28:20Z</time></trkpt><trkpt lat="39.27253754180597" lon="8.46756646106469"><ele>26.5</ele><time>2026-04-06T08:28:21Z</time></trkpt><trkpt lat="39.27268445490147" lon="8.467553989697372"><ele>26.25</ele><time>2026-04-06T08:28:22Z</time></trkpt><trkpt lat="39.2728511618814" lon="8.467558173133524"><ele>26.0</ele><time>2026-04-06T08:28:23Z</time></trkpt><trkpt lat="39.27301712921888" lon="8.46757830084927"><ele>26.0</ele><time>2026-04-06T08:28:24Z</time></trkpt><trkpt lat="39.27319853106875" lon="8.46760682197765"><ele>26.0</ele><time>2026-04-06T08:28:25Z</time></trkpt><trkpt lat="39.273383478236035" lon="8.467636900842624"><ele>26.0</ele><time>2026-04-06T08:28:26Z</time></trkpt><trkpt lat="39.27357862806125" lon="8.467673280986887"><ele>26.0</ele><time>2026-04-06T08:28:27Z</time></trkpt><trkpt lat="39.27377066453985" lon="8.46771560470465"><ele>26.0</ele><time>2026-04-06T08:28:28Z</time></trkpt><trkpt lat="39.27395820477405" lon="8.467755928995478"><ele>26.0</ele><time>2026-04-06T08:28:29Z</time></trkpt><trkpt lat="39.27415034553146" lon="8.467787277797857"><ele>24.666666666666664</ele><time>2026-04-06T08:28:30Z</time></trkpt><trkpt lat="39.27435863339207" lon="8.467824787165947"><ele>23.333333333333332</ele><time>2026-04-06T08:28:31Z</time></trkpt><trkpt lat="39.27457717646552" lon="8.467864120981666"><ele>22.0</ele><time>2026-04-06T08:28:32Z</time></trkpt><trkpt lat="39.2747944098762" lon="8.467905107122428"><ele>21.666666666666664</ele><time>2026-04-06T08:28:33Z</time></trkpt><trkpt lat="39.27499548597779" lon="8.467942286194452"><ele>21.333333333333332</ele><time>2026-04-06T08:28:34Z</time></trkpt><trkpt lat="39.27518797561959" lon="8.467977856408742"><ele>21.0</ele><time>2026-04-06T08:28:35Z</time></trkpt><trkpt lat="39.27537779760868" lon="8.468012938216345"><ele>21.0</ele><time>2026-04-06T08:28:36Z</time></trkpt><trkpt lat="39.27556051374105" lon="8.468049602647454"><ele>21.0</ele><time>2026-04-06T08:28:37Z</time></trkpt><trkpt lat="39.275735979112305" lon="8.468089316964916"><ele>21.0</ele><time>2026-04-06T08:28:38Z</time></trkpt><trkpt lat="39.27590598759717" lon="8.468133242636883"><ele>20.666666666666668</ele><time>2026-04-06T08:28:39Z</time></trkpt><trkpt lat="39.27606431761313" lon="8.468170034213996"><ele>20.333333333333336</ele><time>2026-04-06T08:28:40Z</time></trkpt><trkpt lat="39.27621350141348" lon="8.468202451651173"><ele>20.0</ele><time>2026-04-06T08:28:41Z</time></trkpt><trkpt lat="39.276353627356116" lon="8.4682340806411"><ele>19.8</ele><time>2026-04-06T08:28:42Z</time></trkpt><trkpt lat="39.276480897252284" lon="8.468264495787338"><ele>19.6</ele><time>2026-04-06T08:28:43Z</time></trkpt><trkpt lat="39.27659346734559" lon="8.468294667296796"><ele>19.4</ele><time>2026-04-06T08:28:44Z</time></trkpt><trkpt lat="39.276688254056396" lon="8.468336363888813"><ele>19.2</ele><time>2026-04-06T08:28:45Z</time></trkpt><trkpt lat="39.27676468934577" lon="8.46840447741781"><ele>19.0</ele><time>2026-04-06T08:28:46Z</time></trkpt><trkpt lat="39.27683196194193" lon="8.468504580123778"><ele>19.0</ele><time>2026-04-06T08:28:47Z</time></trkpt><trkpt lat="39.27688729225102" lon="8.468636147562842"><ele>19.0</ele><time>2026-04-06T08:28:48Z</time></trkpt><trkpt lat="39.27694447946514" lon="8.468759354083327"><ele>19.0</ele><time>2026-04-06T08:28:49Z</time></trkpt><trkpt lat="39.27701105687317" lon="8.468843447604163"><ele>19.0</ele><time>2026-04-06T08:28:50Z</time></trkpt><trkpt lat="39.277092207804465" lon="8.468887138686199"><ele>19.0</ele><time>2026-04-06T08:28:51Z</time></trkpt><trkpt lat="39.277192746177754" lon="8.468889691965934"><ele>19.5</ele><time>2026-04-06T08:28:52Z</time></trkpt><trkpt lat="39.277297084767596" lon="8.468845370072685"><ele>20.0</ele><time>2026-04-06T08:28:53Z</time></trkpt><trkpt lat="39.277388389223496" lon="8.46876369580317"><ele>20.5</ele><time>2026-04-06T08:28:54Z</time></trkpt><trkpt lat="39.27746292465861" lon="8.468642658709458"><ele>21.0</ele><time>2026-04-06T08:28:55Z</time></trkpt><trkpt lat="39.27751705309019" lon="8.468497728074597"><ele>21.0</ele><time>2026-04-06T08:28:56Z</time></trkpt><trkpt lat="39.277544884644314" lon="8.468346562866746"><ele>21.0</ele><time>2026-04-06T08:28:57Z</time></trkpt><trkpt lat="39.27754223780625" lon="8.468186735115777"><ele>21.0</ele><time>2026-04-06T08:28:58Z</time></trkpt><trkpt lat="39.277508114878344" lon="8.468024963752958"><ele>21.0</ele><time>2026-04-06T08:28:59Z</time></trkpt><trkpt lat="39.27745418688317" lon="8.467855298958296"><ele>20.5</ele><time>2026-04-06T08:29:00Z</time></trkpt><trkpt lat="39.277405660629405" lon="8.467690703460821"><ele>20.0</ele><time>2026-04-06T08:29:01Z</time></trkpt><trkpt lat="39.27740145526482" lon="8.46752848343815"><ele>19.5</ele><time>2026-04-06T08:29:02Z</time></trkpt><trkpt lat="39.27739303170297" lon="8.467364505024092"><ele>19.0</ele><time>2026-04-06T08:29:03Z</time></trkpt><trkpt lat="39.277404774926254" lon="8.467197011067674"><ele>19.0</ele><time>2026-04-06T08:29:04Z</time></trkpt><trkpt lat="39.27746810150278" lon="8.467050029104286"><ele>19.0</ele><time>2026-04-06T08:29:05Z</time></trkpt><trkpt lat="39.27755503082781" lon="8.466915931734587"><ele>19.0</ele><time>2026-04-06T08:29:06Z</time></trkpt><trkpt lat="39.27767591386534" lon="8.466813799086793"><ele>19.0</ele><time>2026-04-06T08:29:07Z</time></trkpt><trkpt lat="39.27780109998269" lon="8.466681475145165"><ele>19.0</ele><time>2026-04-06T08:29:08Z</time></trkpt><trkpt lat="39.27795144386148" lon="8.466552637591738"><ele>19.0</ele><time>2026-04-06T08:29:09Z</time></trkpt><trkpt lat="39.27810693383224" lon="8.466399393844261"><ele>19.0</ele><time>2026-04-06T08:29:10Z</time></trkpt><trkpt lat="39.27825709733826" lon="8.466253690611039"><ele>18.0</ele><time>2026-04-06T08:29:11Z</time></trkpt><trkpt lat="39.27841262950953" lon="8.466106395789812"><ele>17.0</ele><time>2026-04-06T08:29:12Z</time></trkpt><trkpt lat="39.278563666541764" lon="8.465955338587277"><ele>16.0</ele><time>2026-04-06T08:29:13Z</time></trkpt><trkpt lat="39.27870278343219" lon="8.465775973777895"><ele>16.0</ele><time>2026-04-06T08:29:14Z</time></trkpt><trkpt lat="39.27882588042534" lon="8.465565109287683"><ele>16.0</ele><time>2026-04-06T08:29:15Z</time></trkpt><trkpt lat="39.27893450680251" lon="8.465336142591408"><ele>16.0</ele><time>2026-04-06T08:29:16Z</time></trkpt><trkpt lat="39.279024181491444" lon="8.465104700776982"><ele>16.0</ele><time>2026-04-06T08:29:17Z</time></trkpt><trkpt lat="39.27909440701825" lon="8.464869634675356"><ele>16.0</ele><time>2026-04-06T08:29:18Z</time></trkpt><trkpt lat="39.279148878044566" lon="8.464627506968457"><ele>16.0</ele><time>2026-04-06T08:29:19Z</time></trkpt><trkpt lat="39.279186501942256" lon="8.464379924172027"><ele>15.666666666666666</ele><time>2026-04-06T08:29:20Z</time></trkpt><trkpt lat="39.27920206564184" lon="8.464127817601671"><ele>15.333333333333332</ele><time>2026-04-06T08:29:21Z</time></trkpt><trkpt lat="39.27920082424526" lon="8.463875078701353"><ele>15.0</ele><time>2026-04-06T08:29:22Z</time></trkpt><trkpt lat="39.27919787239804" lon="8.463620135365902"><ele>15.0</ele><time>2026-04-06T08:29:23Z</time></trkpt><trkpt lat="39.27922526547192" lon="8.463368540829242"><ele>15.0</ele><time>2026-04-06T08:29:24Z</time></trkpt><trkpt lat="39.27925953489637" lon="8.46312104774244"><ele>15.0</ele><time>2026-04-06T08:29:25Z</time></trkpt><trkpt lat="39.279309985200726" lon="8.462878698537448"><ele>15.0</ele><time>2026-04-06T08:29:26Z</time></trkpt><trkpt lat="39.27935962863822" lon="8.462634139426195"><ele>15.0</ele><time>2026-04-06T08:29:27Z</time></trkpt><trkpt lat="39.27944589516896" lon="8.462404549694087"><ele>15.0</ele><time>2026-04-06T08:29:28Z</time></trkpt><trkpt lat="39.27954755063985" lon="8.462183277068819"><ele>14.666666666666668</ele><time>2026-04-06T08:29:29Z</time></trkpt><trkpt lat="39.279659941007935" lon="8.461971100537376"><ele>14.333333333333334</ele><time>2026-04-06T08:29:30Z</time></trkpt><trkpt lat="39.27978296587734" lon="8.461767303294975"><ele>14.0</ele><time>2026-04-06T08:29:31Z</time></trkpt><trkpt lat="39.27991284830205" lon="8.461561119928065"><ele>14.0</ele><time>2026-04-06T08:29:32Z</time></trkpt><trkpt lat="39.28004469257648" lon="8.46135348224624"><ele>14.0</ele><time>2026-04-06T08:29:33Z</time></trkpt><trkpt lat="39.28017613868953" lon="8.461140764953317"><ele>14.0</ele><time>2026-04-06T08:29:34Z</time></trkpt><trkpt lat="39.28030514092906" lon="8.460926092327862"><ele>13.666666666666668</ele><time>2026-04-06T08:29:35Z</time></trkpt><trkpt lat="39.28044991838881" lon="8.46072649821528"><ele>13.333333333333332</ele><time>2026-04-06T08:29:36Z</time></trkpt><trkpt lat="39.28058717758797" lon="8.460519061460472"><ele>13.0</ele><time>2026-04-06T08:29:37Z</time></trkpt><trkpt lat="39.280735132691845" lon="8.46032403892708"><ele>13.666666666666666</ele><time>2026-04-06T08:29:38Z</time></trkpt><trkpt lat="39.28089738472922" lon="8.460151460681619"><ele>14.333333333333332</ele><time>2026-04-06T08:29:39Z</time></trkpt><trkpt lat="39.281077234748274" lon="8.459995326057678"><ele>15.0</ele><time>2026-04-06T08:29:40Z</time></trkpt><trkpt lat="39.28125953292438" lon="8.459860760500565"><ele>15.0</ele><time>2026-04-06T08:29:41Z</time></trkpt><trkpt lat="39.28141748137151" lon="8.459714085940261"><ele>15.0</ele><time>2026-04-06T08:29:42Z</time></trkpt><trkpt lat="39.28156156539339" lon="8.459570038862594"><ele>15.0</ele><time>2026-04-06T08:29:43Z</time></trkpt><trkpt lat="39.2816906743024" lon="8.459393172130365"><ele>14.0</ele><time>2026-04-06T08:29:44Z</time></trkpt><trkpt lat="39.281802753372475" lon="8.459190618643206"><ele>13.0</ele><time>2026-04-06T08:29:45Z</time></trkpt><trkpt lat="39.28189714075202" lon="8.458971302718068"><ele>12.0</ele><time>2026-04-06T08:29:46Z</time></trkpt><trkpt lat="39.28197054867205" lon="8.458738840855467"><ele>12.0</ele><time>2026-04-06T08:29:47Z</time></trkpt><trkpt lat="39.28201615240471" lon="8.458491105089703"><ele>12.0</ele><time>2026-04-06T08:29:48Z</time></trkpt><trkpt lat="39.28204400356189" lon="8.458231669390528"><ele>12.0</ele><time>2026-04-06T08:29:49Z</time></trkpt><trkpt lat="39.28206174459552" lon="8.457970256552448"><ele>12.666666666666668</ele><time>2026-04-06T08:29:50Z</time></trkpt><trkpt lat="39.28206989436862" lon="8.457703692241811"><ele>13.333333333333334</ele><time>2026-04-06T08:29:51Z</time></trkpt><trkpt lat="39.28207132141094" lon="8.457439571374442"><ele>14.0</ele><time>2026-04-06T08:29:52Z</time></trkpt><trkpt lat="39.282077887689645" lon="8.45717252430146"><ele>14.666666666666668</ele><time>2026-04-06T08:29:53Z</time></trkpt><trkpt lat="39.28208547521758" lon="8.456906480852636"><ele>15.333333333333332</ele><time>2026-04-06T08:29:54.001Z</time></trkpt><trkpt lat="39.28208577995749" lon="8.456654278968498"><ele>16.0</ele><time>2026-04-06T08:29:55.001Z</time></trkpt><trkpt lat="39.282066173986564" lon="8.456417942253864"><ele>16.0</ele><time>2026-04-06T08:29:56.001Z</time></trkpt><trkpt lat="39.282021416513295" lon="8.456180204745776"><ele>16.0</ele><time>2026-04-06T08:29:57.001Z</time></trkpt><trkpt lat="39.28195919835272" lon="8.455939653479147"><ele>16.0</ele><time>2026-04-06T08:29:58.001Z</time></trkpt><trkpt lat="39.28188035342361" lon="8.455689486012503"><ele>16.666666666666664</ele><time>2026-04-06T08:29:59.001Z</time></trkpt><trkpt lat="39.28179959133907" lon="8.455439578625779"><ele>17.333333333333332</ele><time>2026-04-06T08:30:00.001Z</time></trkpt><trkpt lat="39.28172227958112" lon="8.455181994986363"><ele>18.0</ele><time>2026-04-06T08:30:01.001Z</time></trkpt><trkpt lat="39.28165563305698" lon="8.454943701539433"><ele>18.0</ele><time>2026-04-06T08:30:02.001Z</time></trkpt><trkpt lat="39.2816014256606" lon="8.45472157997318"><ele>18.0</ele><time>2026-04-06T08:30:03.001Z</time></trkpt><trkpt lat="39.281566180951344" lon="8.454508935407244"><ele>18.0</ele><time>2026-04-06T08:30:04.001Z</time></trkpt><trkpt lat="39.2815695928395" lon="8.454281984315054"><ele>18.333333333333332</ele><time>2026-04-06T08:30:05.001Z</time></trkpt><trkpt lat="39.28158103303535" lon="8.45404769120462"><ele>18.666666666666664</ele><time>2026-04-06T08:30:06.001Z</time></trkpt><trkpt lat="39.28161567073285" lon="8.453803834452346"><ele>19.0</ele><time>2026-04-06T08:30:07.001Z</time></trkpt><trkpt lat="39.281648430052556" lon="8.453542652539582"><ele>18.0</ele><time>2026-04-06T08:30:08.001Z</time></trkpt><trkpt lat="39.28170978615584" lon="8.453281045015439"><ele>17.0</ele><time>2026-04-06T08:30:09.001Z</time></trkpt><trkpt lat="39.28176952866304" lon="8.453007386988164"><ele>16.0</ele><time>2026-04-06T08:30:10.001Z</time></trkpt><trkpt lat="39.281825247395965" lon="8.452727901650297"><ele>15.5</ele><time>2026-04-06T08:30:11.001Z</time></trkpt><trkpt lat="39.281881988358926" lon="8.452442518472663"><ele>15.0</ele><time>2026-04-06T08:30:12.001Z</time></trkpt><trkpt lat="39.28194335302773" lon="8.452156869426892"><ele>14.333333333333332</ele><time>2026-04-06T08:30:13.001Z</time></trkpt><trkpt lat="39.28199958515969" lon="8.451883081653632"><ele>13.666666666666666</ele><time>2026-04-06T08:30:14.001Z</time></trkpt><trkpt lat="39.282053261438044" lon="8.451636972417656"><ele>13.0</ele><time>2026-04-06T08:30:15.001Z</time></trkpt><trkpt lat="39.28210347461999" lon="8.45140685284845"><ele>13.0</ele><time>2026-04-06T08:30:16.001Z</time></trkpt><trkpt lat="39.28215240027889" lon="8.45119008222023"><ele>13.0</ele><time>2026-04-06T08:30:17.001Z</time></trkpt><trkpt lat="39.28220986400021" lon="8.450972692274487"><ele>13.0</ele><time>2026-04-06T08:30:18.001Z</time></trkpt><trkpt lat="39.28227454533502" lon="8.450755505304597"><ele>13.0</ele><time>2026-04-06T08:30:19.001Z</time></trkpt><trkpt lat="39.282352592831046" lon="8.450528439749656"><ele>13.0</ele><time>2026-04-06T08:30:20.001Z</time></trkpt><trkpt lat="39.28243232813179" lon="8.450297886102547"><ele>13.0</ele><time>2026-04-06T08:30:21.001Z</time></trkpt><trkpt lat="39.2825088874167" lon="8.450059927754117"><ele>13.0</ele><time>2026-04-06T08:30:22.001Z</time></trkpt><trkpt lat="39.282585117968154" lon="8.449814071345864"><ele>13.0</ele><time>2026-04-06T08:30:23.001Z</time></trkpt><trkpt lat="39.28266137644699" lon="8.44956836583043"><ele>13.0</ele><time>2026-04-06T08:30:24.001Z</time></trkpt><trkpt lat="39.28274268839472" lon="8.449317751244852"><ele>12.0</ele><time>2026-04-06T08:30:25.001Z</time></trkpt><trkpt lat="39.282828470616295" lon="8.449059768132281"><ele>11.0</ele><time>2026-04-06T08:30:26.001Z</time></trkpt><trkpt lat="39.28291508986326" lon="8.448802625535647"><ele>10.0</ele><time>2026-04-06T08:30:27.001Z</time></trkpt><trkpt lat="39.28300405246079" lon="8.44854052067308"><ele>10.0</ele><time>2026-04-06T08:30:28.001Z</time></trkpt><trkpt lat="39.28309997217755" lon="8.448276182659587"><ele>10.0</ele><time>2026-04-06T08:30:29.001Z</time></trkpt><trkpt lat="39.28320464256748" lon="8.448012418710059"><ele>9.5</ele><time>2026-04-06T08:30:30.001Z</time></trkpt><trkpt lat="39.28333007734051" lon="8.447753780718996"><ele>9.0</ele><time>2026-04-06T08:30:31.001Z</time></trkpt><trkpt lat="39.28342912234735" lon="8.447473377240554"><ele>9.0</ele><time>2026-04-06T08:30:32.001Z</time></trkpt><trkpt lat="39.283540893453164" lon="8.447206612931986"><ele>9.0</ele><time>2026-04-06T08:30:33.001Z</time></trkpt><trkpt lat="39.2836551488371" lon="8.446932518192723"><ele>9.5</ele><time>2026-04-06T08:30:34.001Z</time></trkpt><trkpt lat="39.28376688410794" lon="8.446663621329463"><ele>10.0</ele><time>2026-04-06T08:30:35.001Z</time></trkpt><trkpt lat="39.28387649990917" lon="8.44639681733614"><ele>11.0</ele><time>2026-04-06T08:30:36.001Z</time></trkpt><trkpt lat="39.28398660322339" lon="8.44612861031075"><ele>12.0</ele><time>2026-04-06T08:30:37.001Z</time></trkpt><trkpt lat="39.28409412297694" lon="8.445864949598947"><ele>12.0</ele><time>2026-04-06T08:30:38.001Z</time></trkpt><trkpt lat="39.28420113881229" lon="8.445609143122354"><ele>12.0</ele><time>2026-04-06T08:30:39.001Z</time></trkpt><trkpt lat="39.28430038674088" lon="8.44537373303999"><ele>12.0</ele><time>2026-04-06T08:30:40.001Z</time></trkpt><trkpt lat="39.28438869255143" lon="8.445157185573628"><ele>11.666666666666666</ele><time>2026-04-06T08:30:41.001Z</time></trkpt><trkpt lat="39.28447219766429" lon="8.444948772465146"><ele>11.333333333333332</ele><time>2026-04-06T08:30:42.001Z</time></trkpt><trkpt lat="39.28455677964895" lon="8.444741211571284"><ele>11.0</ele><time>2026-04-06T08:30:43.001Z</time></trkpt><trkpt lat="39.284642655158294" lon="8.44453800624499"><ele>10.666666666666666</ele><time>2026-04-06T08:30:44.001Z</time></trkpt><trkpt lat="39.284729727308644" lon="8.444333972100205"><ele>10.333333333333334</ele><time>2026-04-06T08:30:45.001Z</time></trkpt><trkpt lat="39.284819263494555" lon="8.444129341762551"><ele>10.0</ele><time>2026-04-06T08:30:46.001Z</time></trkpt><trkpt lat="39.28492147081486" lon="8.44392331401368"><ele>11.333333333333334</ele><time>2026-04-06T08:30:47.001Z</time></trkpt><trkpt lat="39.285033837004484" lon="8.443720251801844"><ele>12.666666666666668</ele><time>2026-04-06T08:30:48.001Z</time></trkpt><trkpt lat="39.285148559278454" lon="8.443521532758089"><ele>14.0</ele><time>2026-04-06T08:30:49.001Z</time></trkpt><trkpt lat="39.285254528577546" lon="8.44334080162524"><ele>14.0</ele><time>2026-04-06T08:30:50.001Z</time></trkpt><trkpt lat="39.285353959117074" lon="8.443166252119148"><ele>14.0</ele><time>2026-04-06T08:30:51.001Z</time></trkpt><trkpt lat="39.28545580741757" lon="8.44298820006665"><ele>14.0</ele><time>2026-04-06T08:30:52.001Z</time></trkpt><trkpt lat="39.28555950650013" lon="8.442808543774714"><ele>14.333333333333334</ele><time>2026-04-06T08:30:53.001Z</time></trkpt><trkpt lat="39.28566957520241" lon="8.4426269815001"><ele>14.666666666666668</ele><time>2026-04-06T08:30:54.001Z</time></trkpt><trkpt lat="39.28578687459944" lon="8.44244543487598"><ele>15.0</ele><time>2026-04-06T08:30:55.001Z</time></trkpt><trkpt lat="39.28591805222082" lon="8.442272378847454"><ele>13.666666666666666</ele><time>2026-04-06T08:30:56.001Z</time></trkpt><trkpt lat="39.28606685514691" lon="8.442129395454977"><ele>12.333333333333332</ele><time>2026-04-06T08:30:57.001Z</time></trkpt><trkpt lat="39.286199635813176" lon="8.441975487600224"><ele>11.0</ele><time>2026-04-06T08:30:58.001Z</time></trkpt><trkpt lat="39.28634346789456" lon="8.441829502939491"><ele>12.0</ele><time>2026-04-06T08:30:59.001Z</time></trkpt><trkpt lat="39.28648726376965" lon="8.441678910203422"><ele>13.0</ele><time>2026-04-06T08:31:00.001Z</time></trkpt><trkpt lat="39.28663250366199" lon="8.44152922263128"><ele>14.0</ele><time>2026-04-06T08:31:01.001Z</time></trkpt><trkpt lat="39.28677598299532" lon="8.441382832667427"><ele>13.0</ele><time>2026-04-06T08:31:02.001Z</time></trkpt><trkpt lat="39.28690661231863" lon="8.441246740702653"><ele>12.0</ele><time>2026-04-06T08:31:03.001Z</time></trkpt><trkpt lat="39.28703760559999" lon="8.44110811221796"><ele>11.0</ele><time>2026-04-06T08:31:04.001Z</time></trkpt><trkpt lat="39.28716928508162" lon="8.440969983587149"><ele>12.0</ele><time>2026-04-06T08:31:05.001Z</time></trkpt><trkpt lat="39.287300780435736" lon="8.440835311767318"><ele>13.0</ele><time>2026-04-06T08:31:06.001Z</time></trkpt><trkpt lat="39.28742153611887" lon="8.440709166142604"><ele>14.0</ele><time>2026-04-06T08:31:07.001Z</time></trkpt><trkpt lat="39.28754657047058" lon="8.440581665753571"><ele>12.666666666666668</ele><time>2026-04-06T08:31:08.001Z</time></trkpt><trkpt lat="39.287668159060495" lon="8.440452328944247"><ele>11.333333333333334</ele><time>2026-04-06T08:31:09.001Z</time></trkpt><trkpt lat="39.28778713422318" lon="8.440328669774782"><ele>10.0</ele><time>2026-04-06T08:31:10.001Z</time></trkpt><trkpt lat="39.28790940032338" lon="8.440203924133998"><ele>10.0</ele><time>2026-04-06T08:31:11.001Z</time></trkpt><trkpt lat="39.28803179668019" lon="8.440080631910654"><ele>10.0</ele><time>2026-04-06T08:31:12.001Z</time></trkpt><trkpt lat="39.288159352295274" lon="8.439962780115955"><ele>10.0</ele><time>2026-04-06T08:31:13.001Z</time></trkpt><trkpt lat="39.28829582350674" lon="8.439845327375568"><ele>9.333333333333334</ele><time>2026-04-06T08:31:14.001Z</time></trkpt><trkpt lat="39.28843749377361" lon="8.439718431551471"><ele>8.666666666666666</ele><time>2026-04-06T08:31:15.001Z</time></trkpt><trkpt lat="39.28856169437083" lon="8.439588537543106"><ele>8.0</ele><time>2026-04-06T08:31:16.001Z</time></trkpt><trkpt lat="39.28867682208146" lon="8.439467897818437"><ele>8.0</ele><time>2026-04-06T08:31:17.001Z</time></trkpt><trkpt lat="39.28879280395203" lon="8.439348272689951"><ele>8.0</ele><time>2026-04-06T08:31:18.001Z</time></trkpt><trkpt lat="39.288915648795644" lon="8.439231289199299"><ele>8.0</ele><time>2026-04-06T08:31:19.001Z</time></trkpt><trkpt lat="39.289057668596286" lon="8.439114240049536"><ele>9.333333333333332</ele><time>2026-04-06T08:31:20.001Z</time></trkpt><trkpt lat="39.28922564920227" lon="8.438995971670177"><ele>10.666666666666666</ele><time>2026-04-06T08:31:21.001Z</time></trkpt><trkpt lat="39.289414167230014" lon="8.438915299998191"><ele>12.0</ele><time>2026-04-06T08:31:22.001Z</time></trkpt><trkpt lat="39.28963271962257" lon="8.438831144640853"><ele>11.5</ele><time>2026-04-06T08:31:23.001Z</time></trkpt><trkpt lat="39.28986589264841" lon="8.438755724271958"><ele>11.0</ele><time>2026-04-06T08:31:24.001Z</time></trkpt><trkpt lat="39.29009931604639" lon="8.438688118332559"><ele>11.0</ele><time>2026-04-06T08:31:25.001Z</time></trkpt><trkpt lat="39.290315878067375" lon="8.438606140135281"><ele>11.0</ele><time>2026-04-06T08:31:26.001Z</time></trkpt><trkpt lat="39.29051492190605" lon="8.4385782893374"><ele>11.0</ele><time>2026-04-06T08:31:27.001Z</time></trkpt><trkpt lat="39.290709187633624" lon="8.43857279338876"><ele>13.333333333333332</ele><time>2026-04-06T08:31:28.001Z</time></trkpt><trkpt lat="39.29091268783004" lon="8.438580795315078"><ele>15.666666666666666</ele><time>2026-04-06T08:31:29.001Z</time></trkpt><trkpt lat="39.29109870805713" lon="8.43857828948615"><ele>18.0</ele><time>2026-04-06T08:31:30.001Z</time></trkpt><trkpt lat="39.29126362281243" lon="8.438571050585947"><ele>18.0</ele><time>2026-04-06T08:31:31.001Z</time></trkpt><trkpt lat="39.29141366631864" lon="8.438548291503496"><ele>18.0</ele><time>2026-04-06T08:31:32.001Z</time></trkpt><trkpt lat="39.291561332424976" lon="8.438481823141222"><ele>18.0</ele><time>2026-04-06T08:31:33.001Z</time></trkpt><trkpt lat="39.29171155260683" lon="8.43836437325238"><ele>21.0</ele><time>2026-04-06T08:31:34.001Z</time></trkpt><trkpt lat="39.29186116639752" lon="8.438241478227601"><ele>24.0</ele><time>2026-04-06T08:31:35.001Z</time></trkpt><trkpt lat="39.292007917899355" lon="8.438127812018688"><ele>27.0</ele><time>2026-04-06T08:31:36.001Z</time></trkpt><trkpt lat="39.2921467367607" lon="8.438022275992271"><ele>27.0</ele><time>2026-04-06T08:31:37.001Z</time></trkpt><trkpt lat="39.29227241182669" lon="8.437904577776406"><ele>27.0</ele><time>2026-04-06T08:31:38.001Z</time></trkpt><trkpt lat="39.292385753356264" lon="8.43776127691759"><ele>27.0</ele><time>2026-04-06T08:31:39.001Z</time></trkpt><trkpt lat="39.29250290418618" lon="8.437630658260083"><ele>27.0</ele><time>2026-04-06T08:31:40.001Z</time></trkpt><trkpt lat="39.29261464306034" lon="8.437520331822027"><ele>27.0</ele><time>2026-04-06T08:31:41.001Z</time></trkpt><trkpt lat="39.29273721627177" lon="8.437448596384057"><ele>27.0</ele><time>2026-04-06T08:31:42.001Z</time></trkpt><trkpt lat="39.29287952539481" lon="8.43741024993977"><ele>27.0</ele><time>2026-04-06T08:31:43.001Z</time></trkpt><trkpt lat="39.293032571096745" lon="8.437408927846592"><ele>30.666666666666664</ele><time>2026-04-06T08:31:44.001Z</time></trkpt><trkpt lat="39.29319346824189" lon="8.437409903541008"><ele>34.33333333333333</ele><time>2026-04-06T08:31:45.001Z</time></trkpt><trkpt lat="39.29336428893046" lon="8.437413538901488"><ele>38.0</ele><time>2026-04-06T08:31:46.001Z</time></trkpt><trkpt lat="39.293532184039805" lon="8.4374447535214"><ele>38.0</ele><time>2026-04-06T08:31:47.001Z</time></trkpt><trkpt lat="39.29368886583944" lon="8.43748716412969"><ele>38.0</ele><time>2026-04-06T08:31:48.001Z</time></trkpt><trkpt lat="39.293828115592525" lon="8.437489397656888"><ele>38.0</ele><time>2026-04-06T08:31:49.001Z</time></trkpt><trkpt lat="39.293957144832476" lon="8.43743497112328"><ele>38.0</ele><time>2026-04-06T08:31:50.001Z</time></trkpt><trkpt lat="39.29406566911272" lon="8.437342607927496"><ele>35.5</ele><time>2026-04-06T08:31:51.001Z</time></trkpt><trkpt lat="39.29416094614359" lon="8.437223286893431"><ele>33.0</ele><time>2026-04-06T08:31:52.001Z</time></trkpt><trkpt lat="39.29427501343782" lon="8.437125498677034"><ele>30.5</ele><time>2026-04-06T08:31:53.001Z</time></trkpt><trkpt lat="39.294376621924606" lon="8.436997770575612"><ele>28.0</ele><time>2026-04-06T08:31:54.001Z</time></trkpt><trkpt lat="39.29450384360243" lon="8.436900494752898"><ele>28.0</ele><time>2026-04-06T08:31:55.001Z</time></trkpt><trkpt lat="39.29464684126294" lon="8.436823602596279"><ele>28.0</ele><time>2026-04-06T08:31:56.001Z</time></trkpt><trkpt lat="39.294807539872245" lon="8.436779021001605"><ele>28.0</ele><time>2026-04-06T08:31:57.001Z</time></trkpt><trkpt lat="39.29496035141207" lon="8.43666936985871"><ele>34.333333333333336</ele><time>2026-04-06T08:31:58.001Z</time></trkpt><trkpt lat="39.295113433202864" lon="8.436566721606908"><ele>40.666666666666664</ele><time>2026-04-06T08:31:59.001Z</time></trkpt><trkpt lat="39.295260855978064" lon="8.43647159757272"><ele>47.0</ele><time>2026-04-06T08:32:00.001Z</time></trkpt><trkpt lat="39.2954206662769" lon="8.436408757386744"><ele>47.0</ele><time>2026-04-06T08:32:01.001Z</time></trkpt><trkpt lat="39.29558030785913" lon="8.436332717138527"><ele>47.0</ele><time>2026-04-06T08:32:02.001Z</time></trkpt><trkpt lat="39.29575632367947" lon="8.436249471501185"><ele>47.0</ele><time>2026-04-06T08:32:04.001Z</time></trkpt><trkpt lat="39.29589808426722" lon="8.43616240807608"><ele>43.666666666666664</ele><time>2026-04-06T08:32:05.001Z</time></trkpt><trkpt lat="39.29604978940495" lon="8.436091392052823"><ele>40.333333333333336</ele><time>2026-04-06T08:32:06.001Z</time></trkpt><trkpt lat="39.296213740549014" lon="8.436036936869048"><ele>37.0</ele><time>2026-04-06T08:32:07.001Z</time></trkpt><trkpt lat="39.29637439909007" lon="8.435975863337548"><ele>44.0</ele><time>2026-04-06T08:32:08.001Z</time></trkpt><trkpt lat="39.29653465736676" lon="8.435925961096688"><ele>51.0</ele><time>2026-04-06T08:32:09.001Z</time></trkpt><trkpt lat="39.296705059725774" lon="8.435884246092792"><ele>58.0</ele><time>2026-04-06T08:32:10.001Z</time></trkpt><trkpt lat="39.29687919194009" lon="8.435848672362248"><ele>58.0</ele><time>2026-04-06T08:32:11.001Z</time></trkpt><trkpt lat="39.29705126729003" lon="8.435801100800782"><ele>58.0</ele><time>2026-04-06T08:32:12.001Z</time></trkpt><trkpt lat="39.29723067962484" lon="8.435777886357373"><ele>58.0</ele><time>2026-04-06T08:32:13.001Z</time></trkpt><trkpt lat="39.29740999432703" lon="8.435743039263306"><ele>60.666666666666664</ele><time>2026-04-06T08:32:14.001Z</time></trkpt><trkpt lat="39.29758687439932" lon="8.43570746355314"><ele>63.33333333333333</ele><time>2026-04-06T08:32:15.001Z</time></trkpt><trkpt lat="39.29776414960867" lon="8.435669225644048"><ele>66.0</ele><time>2026-04-06T08:32:16.001Z</time></trkpt><trkpt lat="39.29794459807424" lon="8.435657794686891"><ele>70.0</ele><time>2026-04-06T08:32:17.001Z</time></trkpt><trkpt lat="39.29810873341067" lon="8.435626549017863"><ele>74.0</ele><time>2026-04-06T08:32:18.001Z</time></trkpt><trkpt lat="39.29827821975446" lon="8.435593589139803"><ele>78.0</ele><time>2026-04-06T08:32:19.001Z</time></trkpt><trkpt lat="39.29845228935967" lon="8.435547509226868"><ele>78.0</ele><time>2026-04-06T08:32:20.001Z</time></trkpt><trkpt lat="39.29861817899682" lon="8.435533667868953"><ele>78.0</ele><time>2026-04-06T08:32:21.001Z</time></trkpt><trkpt lat="39.29877754665464" lon="8.43556107076542"><ele>78.0</ele><time>2026-04-06T08:32:22.001Z</time></trkpt><trkpt lat="39.298935174629634" lon="8.435585430412736"><ele>77.0</ele><time>2026-04-06T08:32:23.001Z</time></trkpt><trkpt lat="39.299064520275124" lon="8.435587198906212"><ele>76.0</ele><time>2026-04-06T08:32:24.001Z</time></trkpt><trkpt lat="39.29915063238989" lon="8.435631061100967"><ele>75.0</ele><time>2026-04-06T08:32:25.001Z</time></trkpt><trkpt lat="39.299226958535" lon="8.435711044919351"><ele>74.0</ele><time>2026-04-06T08:32:26.001Z</time></trkpt><trkpt lat="39.299271547288825" lon="8.435851573703754"><ele>73.0</ele><time>2026-04-06T08:32:27.001Z</time></trkpt><trkpt lat="39.29935546047614" lon="8.435985337647644"><ele>73.0</ele><time>2026-04-06T08:32:28.001Z</time></trkpt><trkpt lat="39.29945521249857" lon="8.436104377058347"><ele>73.0</ele><time>2026-04-06T08:32:29.001Z</time></trkpt><trkpt lat="39.29958958431084" lon="8.436191127494773"><ele>73.0</ele><time>2026-04-06T08:32:30.001Z</time></trkpt><trkpt lat="39.29972234587678" lon="8.436260320328346"><ele>73.0</ele><time>2026-04-06T08:32:31.001Z</time></trkpt><trkpt lat="39.29983753525482" lon="8.436319310250386"><ele>71.8</ele><time>2026-04-06T08:32:32.001Z</time></trkpt><trkpt lat="39.29993312971727" lon="8.436361826658718"><ele>70.6</ele><time>2026-04-06T08:32:33.001Z</time></trkpt><trkpt lat="39.30001648484192" lon="8.436366004035683"><ele>69.4</ele><time>2026-04-06T08:32:34.001Z</time></trkpt><trkpt lat="39.30010205584531" lon="8.436353969279763"><ele>68.2</ele><time>2026-04-06T08:32:35.001Z</time></trkpt><trkpt lat="39.30017196114944" lon="8.436239361650108"><ele>67.0</ele><time>2026-04-06T08:32:36.001Z</time></trkpt><trkpt lat="39.3001766966807" lon="8.436086606246246"><ele>67.0</ele><time>2026-04-06T08:32:37.001Z</time></trkpt><trkpt lat="39.300184553145584" lon="8.435966365937604"><ele>67.0</ele><time>2026-04-06T08:32:38.001Z</time></trkpt><trkpt lat="39.300224554540534" lon="8.435884067546738"><ele>67.0</ele><time>2026-04-06T08:32:39.001Z</time></trkpt><trkpt lat="39.30031450347864" lon="8.435855376569805"><ele>67.0</ele><time>2026-04-06T08:32:40.001Z</time></trkpt><trkpt lat="39.300411989186095" lon="8.435826796690687"><ele>67.0</ele><time>2026-04-06T08:32:41.001Z</time></trkpt><trkpt lat="39.30051828206763" lon="8.435808601294745"><ele>69.5</ele><time>2026-04-06T08:32:42.001Z</time></trkpt><trkpt lat="39.3006380891878" lon="8.435786230174312"><ele>72.0</ele><time>2026-04-06T08:32:43.001Z</time></trkpt><trkpt lat="39.30077250359048" lon="8.435806126534853"><ele>74.5</ele><time>2026-04-06T08:32:44.001Z</time></trkpt><trkpt lat="39.300897210939205" lon="8.435865246440034"><ele>77.0</ele><time>2026-04-06T08:32:45.001Z</time></trkpt><trkpt lat="39.301022105675365" lon="8.435881468693264"><ele>77.0</ele><time>2026-04-06T08:32:46.001Z</time></trkpt><trkpt lat="39.301131253246844" lon="8.435916956238046"><ele>77.0</ele><time>2026-04-06T08:32:47.001Z</time></trkpt><trkpt lat="39.30122879939419" lon="8.435946991181735"><ele>77.0</ele><time>2026-04-06T08:32:48.001Z</time></trkpt><trkpt lat="39.30131459992393" lon="8.435973225308436"><ele>77.0</ele><time>2026-04-06T08:32:49.001Z</time></trkpt><trkpt lat="39.30139670303821" lon="8.436001945800754"><ele>77.0</ele><time>2026-04-06T08:32:50.001Z</time></trkpt><trkpt lat="39.30146837881021" lon="8.436038265210689"><ele>75.66666666666667</ele><time>2026-04-06T08:32:51.001Z</time></trkpt><trkpt lat="39.301538661901574" lon="8.436086422089994"><ele>74.33333333333334</ele><time>2026-04-06T08:32:52.001Z</time></trkpt><trkpt lat="39.30160314137506" lon="8.436151307161683"><ele>73.0</ele><time>2026-04-06T08:32:53.001Z</time></trkpt><trkpt lat="39.30166036136281" lon="8.436225220506671"><ele>71.66666666666667</ele><time>2026-04-06T08:32:54.001Z</time></trkpt><trkpt lat="39.301722339451025" lon="8.436302733436277"><ele>70.33333333333333</ele><time>2026-04-06T08:32:55.001Z</time></trkpt><trkpt lat="39.30179398320593" lon="8.436380459743656"><ele>69.0</ele><time>2026-04-06T08:32:56.001Z</time></trkpt><trkpt lat="39.30186575612796" lon="8.436463054622129"><ele>76.0</ele><time>2026-04-06T08:32:57.001Z</time></trkpt><trkpt lat="39.301939134286044" lon="8.436556831929346"><ele>83.0</ele><time>2026-04-06T08:32:58.001Z</time></trkpt><trkpt lat="39.30201899306032" lon="8.436663985969481"><ele>90.0</ele><time>2026-04-06T08:32:59.001Z</time></trkpt><trkpt lat="39.302095889219096" lon="8.43676203118699"><ele>97.0</ele><time>2026-04-06T08:33:00.001Z</time></trkpt><trkpt lat="39.302171008184295" lon="8.436854889211306"><ele>104.0</ele><time>2026-04-06T08:33:01.001Z</time></trkpt><trkpt lat="39.30223425114759" lon="8.43693543085099"><ele>101.28571428571428</ele><time>2026-04-06T08:33:02.001Z</time></trkpt><trkpt lat="39.3022862020589" lon="8.437004411211234"><ele>98.57142857142858</ele><time>2026-04-06T08:33:03.001Z</time></trkpt><trkpt lat="39.30233841214831" lon="8.437058246598891"><ele>95.85714285714286</ele><time>2026-04-06T08:33:04.001Z</time></trkpt><trkpt lat="39.30240375694037" lon="8.437083072818528"><ele>93.14285714285714</ele><time>2026-04-06T08:33:05.001Z</time></trkpt><trkpt lat="39.30247529942646" lon="8.437069529970046"><ele>90.42857142857142</ele><time>2026-04-06T08:33:06.001Z</time></trkpt><trkpt lat="39.302535678567146" lon="8.437026738322654"><ele>87.71428571428572</ele><time>2026-04-06T08:33:07.001Z</time></trkpt><trkpt lat="39.30259486413328" lon="8.436957474597797"><ele>85.0</ele><time>2026-04-06T08:33:08.001Z</time></trkpt><trkpt lat="39.30265991219401" lon="8.436874218222174"><ele>85.0</ele><time>2026-04-06T08:33:09.001Z</time></trkpt><trkpt lat="39.30273683098452" lon="8.436776880336307"><ele>85.0</ele><time>2026-04-06T08:33:10.001Z</time></trkpt><trkpt lat="39.30281357620656" lon="8.436682513861474"><ele>85.0</ele><time>2026-04-06T08:33:11.001Z</time></trkpt><trkpt lat="39.302896325963445" lon="8.43663611300996"><ele>85.0</ele><time>2026-04-06T08:33:12.001Z</time></trkpt><trkpt lat="39.30297306546413" lon="8.436583534848788"><ele>85.0</ele><time>2026-04-06T08:33:13.001Z</time></trkpt><trkpt lat="39.303068485607845" lon="8.436616181485782"><ele>88.0</ele><time>2026-04-06T08:33:14.001Z</time></trkpt><trkpt lat="39.3031672849868" lon="8.436609509637721"><ele>91.0</ele><time>2026-04-06T08:33:15.001Z</time></trkpt><trkpt lat="39.303261665234395" lon="8.436630010879869"><ele>94.0</ele><time>2026-04-06T08:33:16.001Z</time></trkpt><trkpt lat="39.3033485074532" lon="8.436626488998705"><ele>97.0</ele><time>2026-04-06T08:33:17.001Z</time></trkpt><trkpt lat="39.303426364724395" lon="8.43659430082801"><ele>100.0</ele><time>2026-04-06T08:33:18.001Z</time></trkpt><trkpt lat="39.303509723898024" lon="8.436532310590897"><ele>100.0</ele><time>2026-04-06T08:33:19.001Z</time></trkpt><trkpt lat="39.3036199902104" lon="8.436492827890993"><ele>100.0</ele><time>2026-04-06T08:33:20.001Z</time></trkpt><trkpt lat="39.303731004392766" lon="8.436454372547928"><ele>100.0</ele><time>2026-04-06T08:33:21.001Z</time></trkpt><trkpt lat="39.30382799448481" lon="8.43640189907035"><ele>100.0</ele><time>2026-04-06T08:33:22.001Z</time></trkpt><trkpt lat="39.30393752805078" lon="8.436364104289527"><ele>100.0</ele><time>2026-04-06T08:33:23.001Z</time></trkpt><trkpt lat="39.3040535615372" lon="8.436325183420264"><ele>93.5</ele><time>2026-04-06T08:33:24.001Z</time></trkpt><trkpt lat="39.30416994222445" lon="8.436284024099965"><ele>87.0</ele><time>2026-04-06T08:33:25.001Z</time></trkpt><trkpt lat="39.30428424242805" lon="8.436242672974183"><ele>80.5</ele><time>2026-04-06T08:33:26.001Z</time></trkpt><trkpt lat="39.3043980220939" lon="8.436203537363856"><ele>74.0</ele><time>2026-04-06T08:33:27.001Z</time></trkpt><trkpt lat="39.304510687818826" lon="8.436166781268872"><ele>74.0</ele><time>2026-04-06T08:33:28.001Z</time></trkpt><trkpt lat="39.304613978650394" lon="8.436133222063525"><ele>74.0</ele><time>2026-04-06T08:33:29.001Z</time></trkpt><trkpt lat="39.304698691184655" lon="8.436101749665253"><ele>74.0</ele><time>2026-04-06T08:33:30.001Z</time></trkpt><trkpt lat="39.3047691295593" lon="8.436077800582543"><ele>74.0</ele><time>2026-04-06T08:33:31.001Z</time></trkpt><trkpt lat="39.30484318991695" lon="8.436055873654352"><ele>74.0</ele><time>2026-04-06T08:33:32.001Z</time></trkpt><trkpt lat="39.304919517846955" lon="8.436036596245815"><ele>74.0</ele><time>2026-04-06T08:33:33.001Z</time></trkpt><trkpt lat="39.30499753286295" lon="8.436034155613635"><ele>77.66666666666667</ele><time>2026-04-06T08:33:34.001Z</time></trkpt><trkpt lat="39.305060651916804" lon="8.435961355914932"><ele>81.33333333333334</ele><time>2026-04-06T08:33:35.001Z</time></trkpt><trkpt lat="39.305121380535354" lon="8.435884629173707"><ele>85.0</ele><time>2026-04-06T08:33:36.001Z</time></trkpt><trkpt lat="39.30517894097309" lon="8.435803578015443"><ele>88.66666666666667</ele><time>2026-04-06T08:33:37.001Z</time></trkpt><trkpt lat="39.30524746344565" lon="8.435737158763342"><ele>92.33333333333333</ele><time>2026-04-06T08:33:38.001Z</time></trkpt><trkpt lat="39.305331526147704" lon="8.43568564396206"><ele>96.0</ele><time>2026-04-06T08:33:39.001Z</time></trkpt><trkpt lat="39.305422525825506" lon="8.435638339921566"><ele>96.0</ele><time>2026-04-06T08:33:40.001Z</time></trkpt><trkpt lat="39.305522680266" lon="8.435608334780774"><ele>96.0</ele><time>2026-04-06T08:33:41.001Z</time></trkpt><trkpt lat="39.30561181252475" lon="8.435539300545155"><ele>96.0</ele><time>2026-04-06T08:33:42.001Z</time></trkpt><trkpt lat="39.30569666019114" lon="8.435491019871474"><ele>96.0</ele><time>2026-04-06T08:33:43.001Z</time></trkpt><trkpt lat="39.30577528989786" lon="8.435471356567822"><ele>96.0</ele><time>2026-04-06T08:33:44Z</time></trkpt><trkpt lat="39.30585204912796" lon="8.435440071873874"><ele>93.33333333333333</ele><time>2026-04-06T08:33:45Z</time></trkpt><trkpt lat="39.30593684097531" lon="8.43542508443366"><ele>90.66666666666667</ele><time>2026-04-06T08:33:46Z</time></trkpt><trkpt lat="39.30601447408969" lon="8.435401616344132"><ele>88.0</ele><time>2026-04-06T08:33:47Z</time></trkpt><trkpt lat="39.306088808454135" lon="8.435414622725762"><ele>85.33333333333334</ele><time>2026-04-06T08:33:48Z</time></trkpt><trkpt lat="39.30616337994495" lon="8.435442191207512"><ele>82.66666666666667</ele><time>2026-04-06T08:33:49Z</time></trkpt><trkpt lat="39.306235733893104" lon="8.43549406907718"><ele>80.0</ele><time>2026-04-06T08:33:50Z</time></trkpt><trkpt lat="39.30629876920375" lon="8.43554907751868"><ele>83.8</ele><time>2026-04-06T08:33:51Z</time></trkpt><trkpt lat="39.30634916794034" lon="8.435599362867645"><ele>87.6</ele><time>2026-04-06T08:33:52Z</time></trkpt><trkpt lat="39.30643196604805" lon="8.435677948810664"><ele>91.4</ele><time>2026-04-06T08:33:54Z</time></trkpt><trkpt lat="39.30652399997304" lon="8.435770066618772"><ele>95.2</ele><time>2026-04-06T08:33:56Z</time></trkpt><trkpt lat="39.306608993551635" lon="8.435850460349307"><ele>99.0</ele><time>2026-04-06T08:33:58Z</time></trkpt><trkpt lat="39.30669251647156" lon="8.435909102468951"><ele>99.0</ele><time>2026-04-06T08:34:00Z</time></trkpt><trkpt lat="39.30675568711598" lon="8.435976029856308"><ele>99.0</ele><time>2026-04-06T08:34:02Z</time></trkpt><trkpt lat="39.30678934110753" lon="8.43611116106011"><ele>99.0</ele><time>2026-04-06T08:34:05Z</time></trkpt><trkpt lat="39.306750680273026" lon="8.43624000954091"><ele>99.0</ele><time>2026-04-06T08:34:07Z</time></trkpt><trkpt lat="39.30672385254739" lon="8.43632146350146"><ele>99.0</ele><time>2026-04-06T08:34:08Z</time></trkpt><trkpt lat="39.30670365684245" lon="8.436416503950415"><ele>99.0</ele><time>2026-04-06T08:34:09Z</time></trkpt><trkpt lat="39.306682264813084" lon="8.436519462106899"><ele>101.83333333333333</ele><time>2026-04-06T08:34:10Z</time></trkpt><trkpt lat="39.30672392922394" lon="8.436617313491718"><ele>104.66666666666666</ele><time>2026-04-06T08:34:11Z</time></trkpt><trkpt lat="39.30676902800921" lon="8.436713248672344"><ele>107.5</ele><time>2026-04-06T08:34:12Z</time></trkpt><trkpt lat="39.30681518308364" lon="8.43681369706365"><ele>110.33333333333333</ele><time>2026-04-06T08:34:13Z</time></trkpt><trkpt lat="39.306858886676466" lon="8.43692145022909"><ele>113.16666666666666</ele><time>2026-04-06T08:34:14Z</time></trkpt><trkpt lat="39.30689150848025" lon="8.43702653585678"><ele>116.0</ele><time>2026-04-06T08:34:15Z</time></trkpt><trkpt lat="39.30691143316397" lon="8.437119267604574"><ele>114.66666666666666</ele><time>2026-04-06T08:34:16Z</time></trkpt><trkpt lat="39.30691675552472" lon="8.4372204093618"><ele>113.33333333333333</ele><time>2026-04-06T08:34:17Z</time></trkpt><trkpt lat="39.30690321971921" lon="8.437303391172764"><ele>112.0</ele><time>2026-04-06T08:34:18Z</time></trkpt><trkpt lat="39.306833557357386" lon="8.437419650882156"><ele>110.66666666666666</ele><time>2026-04-06T08:34:20Z</time></trkpt><trkpt lat="39.30677121970572" lon="8.437441971312762"><ele>109.33333333333333</ele><time>2026-04-06T08:34:21Z</time></trkpt><trkpt lat="39.306679355388795" lon="8.437475310850134"><ele>108.0</ele><time>2026-04-06T08:34:22Z</time></trkpt><trkpt lat="39.306560429926975" lon="8.437500741424726"><ele>120.33333333333334</ele><time>2026-04-06T08:34:23Z</time></trkpt><trkpt lat="39.306409223729865" lon="8.437551339265768"><ele>132.66666666666669</ele><time>2026-04-06T08:34:24Z</time></trkpt><trkpt lat="39.306264216453705" lon="8.437661891839559"><ele>145.0</ele><time>2026-04-06T08:34:25Z</time></trkpt><trkpt lat="39.306128857193315" lon="8.437761009259445"><ele>145.0</ele><time>2026-04-06T08:34:26Z</time></trkpt><trkpt lat="39.30603288773475" lon="8.43787031462052"><ele>145.0</ele><time>2026-04-06T08:34:27Z</time></trkpt><trkpt lat="39.30596799153341" lon="8.43800828090401"><ele>145.0</ele><time>2026-04-06T08:34:28Z</time></trkpt><trkpt lat="39.30592099080884" lon="8.438166079814522"><ele>145.0</ele><time>2026-04-06T08:34:29Z</time></trkpt><trkpt lat="39.30589234834657" lon="8.43832218484209"><ele>142.25</ele><time>2026-04-06T08:34:30Z</time></trkpt><trkpt lat="39.30589024891616" lon="8.438493316245857"><ele>139.5</ele><time>2026-04-06T08:34:31Z</time></trkpt><trkpt lat="39.30589066267446" lon="8.4386860852079"><ele>136.75</ele><time>2026-04-06T08:34:32Z</time></trkpt><trkpt lat="39.305956250363096" lon="8.43885339004675"><ele>134.0</ele><time>2026-04-06T08:34:33Z</time></trkpt><trkpt lat="39.30603310478214" lon="8.438981519549024"><ele>134.0</ele><time>2026-04-06T08:34:34Z</time></trkpt><trkpt lat="39.30611801129116" lon="8.4390875863506"><ele>134.0</ele><time>2026-04-06T08:34:35Z</time></trkpt><trkpt lat="39.30617735791089" lon="8.439191329101353"><ele>134.0</ele><time>2026-04-06T08:34:36Z</time></trkpt><trkpt lat="39.30616634634752" lon="8.439315568660625"><ele>134.0</ele><time>2026-04-06T08:34:37Z</time></trkpt><trkpt lat="39.306179342725095" lon="8.43944807955125"><ele>134.0</ele><time>2026-04-06T08:34:38Z</time></trkpt><trkpt lat="39.30618672996566" lon="8.439622045285297"><ele>136.25</ele><time>2026-04-06T08:34:39Z</time></trkpt><trkpt lat="39.306143946408824" lon="8.439802376882012"><ele>138.5</ele><time>2026-04-06T08:34:40.001Z</time></trkpt><trkpt lat="39.306117506622186" lon="8.439994242349126"><ele>140.75</ele><time>2026-04-06T08:34:41.001Z</time></trkpt><trkpt lat="39.30614069655188" lon="8.440158327187264"><ele>143.0</ele><time>2026-04-06T08:34:42.001Z</time></trkpt><trkpt lat="39.306182805869554" lon="8.44030420820828"><ele>143.0</ele><time>2026-04-06T08:34:43.001Z</time></trkpt><trkpt lat="39.30625147061566" lon="8.440442110671531"><ele>143.0</ele><time>2026-04-06T08:34:44.001Z</time></trkpt><trkpt lat="39.30631176951906" lon="8.440555087681016"><ele>143.0</ele><time>2026-04-06T08:34:45.001Z</time></trkpt><trkpt lat="39.30637090311365" lon="8.440638026313431"><ele>143.0</ele><time>2026-04-06T08:34:46.001Z</time></trkpt><trkpt lat="39.30644078067465" lon="8.44068091894894"><ele>143.0</ele><time>2026-04-06T08:34:47.001Z</time></trkpt><trkpt lat="39.306517613298816" lon="8.440684257977823"><ele>140.20000000000002</ele><time>2026-04-06T08:34:48.001Z</time></trkpt><trkpt lat="39.30658198336366" lon="8.440647239447692"><ele>137.4</ele><time>2026-04-06T08:34:49.001Z</time></trkpt><trkpt lat="39.30663830601424" lon="8.440584585964965"><ele>134.60000000000002</ele><time>2026-04-06T08:34:50.001Z</time></trkpt><trkpt lat="39.30667149812775" lon="8.440491511771267"><ele>131.8</ele><time>2026-04-06T08:34:51.001Z</time></trkpt><trkpt lat="39.30667323430211" lon="8.440367452278887"><ele>129.0</ele><time>2026-04-06T08:34:52.001Z</time></trkpt><trkpt lat="39.306684022262594" lon="8.44020010433653"><ele>127.33333333333334</ele><time>2026-04-06T08:34:53.001Z</time></trkpt><trkpt lat="39.30670136461762" lon="8.439994969033314"><ele>125.66666666666667</ele><time>2026-04-06T08:34:54.001Z</time></trkpt><trkpt lat="39.30671624237728" lon="8.439769414055393"><ele>124.0</ele><time>2026-04-06T08:34:55.001Z</time></trkpt><trkpt lat="39.30674048968883" lon="8.439575693609244"><ele>122.4</ele><time>2026-04-06T08:34:56.001Z</time></trkpt><trkpt lat="39.30677089479819" lon="8.439432298661574"><ele>120.80000000000001</ele><time>2026-04-06T08:34:57.001Z</time></trkpt><trkpt lat="39.30683056935529" lon="8.43933661564617"><ele>119.19999999999999</ele><time>2026-04-06T08:34:58.001Z</time></trkpt><trkpt lat="39.30691299071195" lon="8.439286795334414"><ele>117.6</ele><time>2026-04-06T08:34:59.001Z</time></trkpt><trkpt lat="39.306994691938264" lon="8.439306282905335"><ele>116.0</ele><time>2026-04-06T08:35:00.001Z</time></trkpt><trkpt lat="39.30705107147054" lon="8.43937057813226"><ele>116.0</ele><time>2026-04-06T08:35:01.001Z</time></trkpt><trkpt lat="39.30713989537962" lon="8.43942872915308"><ele>116.0</ele><time>2026-04-06T08:35:02.001Z</time></trkpt><trkpt lat="39.30725504185935" lon="8.439483381198555"><ele>116.0</ele><time>2026-04-06T08:35:03.001Z</time></trkpt><trkpt lat="39.30738035586459" lon="8.43955806926812"><ele>116.0</ele><time>2026-04-06T08:35:04.001Z</time></trkpt><trkpt lat="39.3075151708531" lon="8.439643395420983"><ele>122.33333333333333</ele><time>2026-04-06T08:35:05.001Z</time></trkpt><trkpt lat="39.30769042104758" lon="8.439682817251583"><ele>128.66666666666666</ele><time>2026-04-06T08:35:06.001Z</time></trkpt><trkpt lat="39.30787631255023" lon="8.439709882611938"><ele>135.0</ele><time>2026-04-06T08:35:07.001Z</time></trkpt><trkpt lat="39.30806460740102" lon="8.439739145724133"><ele>134.75</ele><time>2026-04-06T08:35:08.001Z</time></trkpt><trkpt lat="39.30821463157096" lon="8.439761447856286"><ele>134.5</ele><time>2026-04-06T08:35:09.001Z</time></trkpt><trkpt lat="39.30832920424437" lon="8.439768624648389"><ele>134.25</ele><time>2026-04-06T08:35:10.001Z</time></trkpt><trkpt lat="39.30843232823868" lon="8.439719281641924"><ele>134.0</ele><time>2026-04-06T08:35:11.001Z</time></trkpt><trkpt lat="39.30852668982213" lon="8.439663407355459"><ele>132.0</ele><time>2026-04-06T08:35:12.001Z</time></trkpt><trkpt lat="39.30860044994157" lon="8.439532245829072"><ele>130.0</ele><time>2026-04-06T08:35:13Z</time></trkpt><trkpt lat="39.308633668345784" lon="8.439369477780481"><ele>128.0</ele><time>2026-04-06T08:35:14Z</time></trkpt><trkpt lat="39.30859981640856" lon="8.43918814310668"><ele>126.0</ele><time>2026-04-06T08:35:15Z</time></trkpt><trkpt lat="39.308553225040406" lon="8.439005253383382"><ele>126.0</ele><time>2026-04-06T08:35:16Z</time></trkpt><trkpt lat="39.30849141842771" lon="8.438815262804823"><ele>126.0</ele><time>2026-04-06T08:35:17Z</time></trkpt><trkpt lat="39.308426264891786" lon="8.438636313876643"><ele>126.0</ele><time>2026-04-06T08:35:18Z</time></trkpt><trkpt lat="39.30836288514611" lon="8.438459792255045"><ele>126.25</ele><time>2026-04-06T08:35:19Z</time></trkpt><trkpt lat="39.30832748161593" lon="8.438288164818141"><ele>126.5</ele><time>2026-04-06T08:35:20Z</time></trkpt><trkpt lat="39.30832593055079" lon="8.438135737112365"><ele>126.75</ele><time>2026-04-06T08:35:21Z</time></trkpt><trkpt lat="39.30836200273239" lon="8.437985800109498"><ele>127.0</ele><time>2026-04-06T08:35:22Z</time></trkpt><trkpt lat="39.308421352798874" lon="8.437834366946044"><ele>125.25</ele><time>2026-04-06T08:35:23Z</time></trkpt><trkpt lat="39.30848897445891" lon="8.437683451311177"><ele>123.5</ele><time>2026-04-06T08:35:24Z</time></trkpt><trkpt lat="39.30855766719262" lon="8.437520378813186"><ele>121.75</ele><time>2026-04-06T08:35:25Z</time></trkpt><trkpt lat="39.30862573567351" lon="8.43736088973803"><ele>120.0</ele><time>2026-04-06T08:35:26Z</time></trkpt><trkpt lat="39.3086928910441" lon="8.43723286152059"><ele>118.4</ele><time>2026-04-06T08:35:27Z</time></trkpt><trkpt lat="39.30876902985428" lon="8.437135698570403"><ele>116.8</ele><time>2026-04-06T08:35:28Z</time></trkpt><trkpt lat="39.308864273703065" lon="8.437091007894583"><ele>115.19999999999999</ele><time>2026-04-06T08:35:29Z</time></trkpt><trkpt lat="39.30897822813061" lon="8.437123644523288"><ele>113.6</ele><time>2026-04-06T08:35:30Z</time></trkpt><trkpt lat="39.30909881092729" lon="8.437145398522938"><ele>112.0</ele><time>2026-04-06T08:35:31Z</time></trkpt><trkpt lat="39.30921380519333" lon="8.437151385848823"><ele>118.0</ele><time>2026-04-06T08:35:32Z</time></trkpt><trkpt lat="39.309316139254555" lon="8.437177995218537"><ele>123.99999999999999</ele><time>2026-04-06T08:35:33Z</time></trkpt><trkpt lat="39.30941713354394" lon="8.43720089916756"><ele>130.0</ele><time>2026-04-06T08:35:34Z</time></trkpt><trkpt lat="39.309518028425416" lon="8.437222714522639"><ele>136.0</ele><time>2026-04-06T08:35:35Z</time></trkpt><trkpt lat="39.30961880893049" lon="8.437244956857517"><ele>142.0</ele><time>2026-04-06T08:35:36Z</time></trkpt><trkpt lat="39.30972517373665" lon="8.437264958659409"><ele>143.5</ele><time>2026-04-06T08:35:37Z</time></trkpt><trkpt lat="39.309833139909706" lon="8.437299123169751"><ele>145.0</ele><time>2026-04-06T08:35:38Z</time></trkpt><trkpt lat="39.30994804171746" lon="8.437287687369809"><ele>146.5</ele><time>2026-04-06T08:35:39Z</time></trkpt><trkpt lat="39.31005793227751" lon="8.4372295024764"><ele>148.0</ele><time>2026-04-06T08:35:40Z</time></trkpt><trkpt lat="39.31017101135288" lon="8.437188597210422"><ele>148.0</ele><time>2026-04-06T08:35:41Z</time></trkpt><trkpt lat="39.31028712520349" lon="8.437161795280572"><ele>148.0</ele><time>2026-04-06T08:35:42Z</time></trkpt><trkpt lat="39.310408518048575" lon="8.437158357704421"><ele>148.0</ele><time>2026-04-06T08:35:43Z</time></trkpt><trkpt lat="39.310531516410535" lon="8.437154339759196"><ele>148.0</ele><time>2026-04-06T08:35:44Z</time></trkpt><trkpt lat="39.31064777418814" lon="8.437138122135885"><ele>145.6</ele><time>2026-04-06T08:35:45Z</time></trkpt><trkpt lat="39.310753572531105" lon="8.437099887532915"><ele>143.20000000000002</ele><time>2026-04-06T08:35:46Z</time></trkpt><trkpt lat="39.31085188668703" lon="8.437056877119558"><ele>140.8</ele><time>2026-04-06T08:35:47Z</time></trkpt><trkpt lat="39.31094920161223" lon="8.43703375029673"><ele>138.4</ele><time>2026-04-06T08:35:48Z</time></trkpt><trkpt lat="39.31104154847764" lon="8.437047424857944"><ele>136.0</ele><time>2026-04-06T08:35:49Z</time></trkpt><trkpt lat="39.311112148745885" lon="8.43709951194137"><ele>138.2</ele><time>2026-04-06T08:35:50Z</time></trkpt><trkpt lat="39.31118684136821" lon="8.437181179516374"><ele>140.39999999999998</ele><time>2026-04-06T08:35:51Z</time></trkpt><trkpt lat="39.31126674049002" lon="8.437269077648297"><ele>142.6</ele><time>2026-04-06T08:35:52Z</time></trkpt><trkpt lat="39.31135212944406" lon="8.437343478458375"><ele>144.79999999999998</ele><time>2026-04-06T08:35:53Z</time></trkpt><trkpt lat="39.311441330904124" lon="8.437394969802945"><ele>147.0</ele><time>2026-04-06T08:35:54Z</time></trkpt><trkpt lat="39.31154247042708" lon="8.437422003450928"><ele>147.0</ele><time>2026-04-06T08:35:55Z</time></trkpt><trkpt lat="39.31164889926724" lon="8.437431302313161"><ele>147.0</ele><time>2026-04-06T08:35:56Z</time></trkpt><trkpt lat="39.31175119411388" lon="8.437418395225794"><ele>147.0</ele><time>2026-04-06T08:35:57Z</time></trkpt><trkpt lat="39.311842861308186" lon="8.437377270246008"><ele>147.0</ele><time>2026-04-06T08:35:58Z</time></trkpt><trkpt lat="39.3119183900817" lon="8.437303185076786"><ele>147.0</ele><time>2026-04-06T08:35:59Z</time></trkpt><trkpt lat="39.311981754130386" lon="8.437197375156762"><ele>146.4</ele><time>2026-04-06T08:36:00Z</time></trkpt><trkpt lat="39.31203075708781" lon="8.437073318608144"><ele>145.79999999999998</ele><time>2026-04-06T08:36:01Z</time></trkpt><trkpt lat="39.312084817765935" lon="8.436948993595232"><ele>145.2</ele><time>2026-04-06T08:36:02Z</time></trkpt><trkpt lat="39.3121553994035" lon="8.436849031694116"><ele>144.6</ele><time>2026-04-06T08:36:03Z</time></trkpt><trkpt lat="39.31224246879111" lon="8.436772807422248"><ele>144.0</ele><time>2026-04-06T08:36:04Z</time></trkpt><trkpt lat="39.312337398040725" lon="8.436725994106276"><ele>144.0</ele><time>2026-04-06T08:36:05Z</time></trkpt><trkpt lat="39.3124322757104" lon="8.436714168801425"><ele>144.0</ele><time>2026-04-06T08:36:06Z</time></trkpt><trkpt lat="39.312524441431464" lon="8.436727531998509"><ele>144.0</ele><time>2026-04-06T08:36:07Z</time></trkpt><trkpt lat="39.312616052735194" lon="8.436759971543198"><ele>144.0</ele><time>2026-04-06T08:36:08Z</time></trkpt><trkpt lat="39.31270535731453" lon="8.436796178548375"><ele>144.0</ele><time>2026-04-06T08:36:09Z</time></trkpt><trkpt lat="39.31279828996921" lon="8.436815912275152"><ele>144.0</ele><time>2026-04-06T08:36:10Z</time></trkpt><trkpt lat="39.312894037465995" lon="8.43679441625163"><ele>144.0</ele><time>2026-04-06T08:36:11Z</time></trkpt><trkpt lat="39.312982116028245" lon="8.436729662244764"><ele>144.0</ele><time>2026-04-06T08:36:12Z</time></trkpt><trkpt lat="39.313066902562085" lon="8.436676886436945"><ele>144.0</ele><time>2026-04-06T08:36:13Z</time></trkpt><trkpt lat="39.31314765747212" lon="8.436608991067656"><ele>144.0</ele><time>2026-04-06T08:36:14Z</time></trkpt><trkpt lat="39.31322605236711" lon="8.436541708395602"><ele>145.2</ele><time>2026-04-06T08:36:15Z</time></trkpt><trkpt lat="39.31331077080769" lon="8.436486354971523"><ele>146.4</ele><time>2026-04-06T08:36:16Z</time></trkpt><trkpt lat="39.31340106184248" lon="8.436453602688866"><ele>147.6</ele><time>2026-04-06T08:36:17Z</time></trkpt><trkpt lat="39.31349687117978" lon="8.436448756282653"><ele>148.8</ele><time>2026-04-06T08:36:18Z</time></trkpt><trkpt lat="39.31359214911769" lon="8.436447126749105"><ele>150.0</ele><time>2026-04-06T08:36:19Z</time></trkpt><trkpt lat="39.31368671330037" lon="8.436457426614943"><ele>150.0</ele><time>2026-04-06T08:36:20Z</time></trkpt><trkpt lat="39.313771550031866" lon="8.43648967006423"><ele>150.0</ele><time>2026-04-06T08:36:21Z</time></trkpt><trkpt lat="39.31384984965813" lon="8.436540662363665"><ele>150.0</ele><time>2026-04-06T08:36:22Z</time></trkpt><trkpt lat="39.31392480839315" lon="8.436603494428997"><ele>150.0</ele><time>2026-04-06T08:36:23Z</time></trkpt><trkpt lat="39.314000082119556" lon="8.436658113383908"><ele>150.0</ele><time>2026-04-06T08:36:24Z</time></trkpt><trkpt lat="39.31408437794674" lon="8.436694875196626"><ele>150.0</ele><time>2026-04-06T08:36:25Z</time></trkpt><trkpt lat="39.31416609732034" lon="8.436744673296866"><ele>150.83333333333334</ele><time>2026-04-06T08:36:26Z</time></trkpt><trkpt lat="39.31424711652726" lon="8.436771103715781"><ele>151.66666666666666</ele><time>2026-04-06T08:36:27Z</time></trkpt><trkpt lat="39.314331774798625" lon="8.436790446878492"><ele>152.5</ele><time>2026-04-06T08:36:28Z</time></trkpt><trkpt lat="39.314416728868636" lon="8.43679317196119"><ele>153.33333333333331</ele><time>2026-04-06T08:36:29Z</time></trkpt><trkpt lat="39.31450365916468" lon="8.436764800293009"><ele>154.16666666666666</ele><time>2026-04-06T08:36:30Z</time></trkpt><trkpt lat="39.31457795311554" lon="8.436695309293185"><ele>155.0</ele><time>2026-04-06T08:36:31Z</time></trkpt><trkpt lat="39.31461378763049" lon="8.436576044057446"><ele>155.0</ele><time>2026-04-06T08:36:32Z</time></trkpt><trkpt lat="39.314671031949395" lon="8.436489739733494"><ele>155.0</ele><time>2026-04-06T08:36:33Z</time></trkpt><trkpt lat="39.3147219776491" lon="8.436406955034478"><ele>155.0</ele><time>2026-04-06T08:36:34Z</time></trkpt><trkpt lat="39.31476949042386" lon="8.436318031989261"><ele>155.0</ele><time>2026-04-06T08:36:35Z</time></trkpt><trkpt lat="39.314850190757326" lon="8.436269258211437"><ele>155.0</ele><time>2026-04-06T08:36:36Z</time></trkpt><trkpt lat="39.31494513499659" lon="8.43626891836961"><ele>155.0</ele><time>2026-04-06T08:36:37Z</time></trkpt><trkpt lat="39.31503463369516" lon="8.436232944897846"><ele>154.5</ele><time>2026-04-06T08:36:38Z</time></trkpt><trkpt lat="39.31513114792873" lon="8.436217124953313"><ele>154.0</ele><time>2026-04-06T08:36:39Z</time></trkpt><trkpt lat="39.31522338963485" lon="8.436196151397438"><ele>153.5</ele><time>2026-04-06T08:36:40Z</time></trkpt><trkpt lat="39.315309068413065" lon="8.43617221067021"><ele>153.0</ele><time>2026-04-06T08:36:41Z</time></trkpt><trkpt lat="39.315389831725604" lon="8.43615247425016"><ele>152.5</ele><time>2026-04-06T08:36:42Z</time></trkpt><trkpt lat="39.3154659449613" lon="8.436139972056075"><ele>152.0</ele><time>2026-04-06T08:36:43Z</time></trkpt><trkpt lat="39.31554469758849" lon="8.436125961757375"><ele>152.83333333333331</ele><time>2026-04-06T08:36:44Z</time></trkpt><trkpt lat="39.315622615189945" lon="8.43611545332375"><ele>153.66666666666666</ele><time>2026-04-06T08:36:45Z</time></trkpt><trkpt lat="39.31570430293869" lon="8.436117528650538"><ele>154.5</ele><time>2026-04-06T08:36:46.001Z</time></trkpt><trkpt lat="39.31578406208259" lon="8.436139929290858"><ele>155.33333333333334</ele><time>2026-04-06T08:36:47.001Z</time></trkpt><trkpt lat="39.31585246605898" lon="8.43619737030676"><ele>156.16666666666669</ele><time>2026-04-06T08:36:48.001Z</time></trkpt><trkpt lat="39.315893525674475" lon="8.436305051127365"><ele>157.0</ele><time>2026-04-06T08:36:49.001Z</time></trkpt><trkpt lat="39.315921502408194" lon="8.436410725691191"><ele>157.0</ele><time>2026-04-06T08:36:50.001Z</time></trkpt><trkpt lat="39.31592906516012" lon="8.436527636716747"><ele>157.0</ele><time>2026-04-06T08:36:51.001Z</time></trkpt><trkpt lat="39.31591720894527" lon="8.436655555296344"><ele>157.0</ele><time>2026-04-06T08:36:52.001Z</time></trkpt><trkpt lat="39.31588957141306" lon="8.436778453088476"><ele>157.0</ele><time>2026-04-06T08:36:53.001Z</time></trkpt><trkpt lat="39.31585125947309" lon="8.436874440875174"><ele>157.0</ele><time>2026-04-06T08:36:54.001Z</time></trkpt><trkpt lat="39.31582360769431" lon="8.436975343613913"><ele>157.0</ele><time>2026-04-06T08:36:55.001Z</time></trkpt><trkpt lat="39.31581823739211" lon="8.437080090922514"><ele>157.0</ele><time>2026-04-06T08:36:56.001Z</time></trkpt><trkpt lat="39.31584401870912" lon="8.437184093584353"><ele>157.0</ele><time>2026-04-06T08:36:57.001Z</time></trkpt><trkpt lat="39.315897338363605" lon="8.437274878898833"><ele>157.0</ele><time>2026-04-06T08:36:58.001Z</time></trkpt><trkpt lat="39.315962385724895" lon="8.43734762076428"><ele>157.0</ele><time>2026-04-06T08:36:59.001Z</time></trkpt><trkpt lat="39.31601680322897" lon="8.43741117075931"><ele>157.0</ele><time>2026-04-06T08:37:00.001Z</time></trkpt><trkpt lat="39.31608260154082" lon="8.437476497963367"><ele>157.33333333333334</ele><time>2026-04-06T08:37:01.001Z</time></trkpt><trkpt lat="39.31615990244436" lon="8.43753080923956"><ele>157.66666666666669</ele><time>2026-04-06T08:37:02.001Z</time></trkpt><trkpt lat="39.31623745797952" lon="8.437580070946451"><ele>158.0</ele><time>2026-04-06T08:37:03.001Z</time></trkpt><trkpt lat="39.316309959472996" lon="8.437618499181434"><ele>158.33333333333334</ele><time>2026-04-06T08:37:04.001Z</time></trkpt><trkpt lat="39.316379641852535" lon="8.437648524552687"><ele>158.66666666666666</ele><time>2026-04-06T08:37:05Z</time></trkpt><trkpt lat="39.31649105599251" lon="8.437716717749286"><ele>159.0</ele><time>2026-04-06T08:37:06Z</time></trkpt><trkpt lat="39.31657821778353" lon="8.437761686318337"><ele>159.0</ele><time>2026-04-06T08:37:07Z</time></trkpt><trkpt lat="39.31666431011491" lon="8.437800969801787"><ele>159.0</ele><time>2026-04-06T08:37:08Z</time></trkpt><trkpt lat="39.31674781750524" lon="8.437827091374889"><ele>159.0</ele><time>2026-04-06T08:37:09Z</time></trkpt><trkpt lat="39.31682142702128" lon="8.437818579165848"><ele>159.0</ele><time>2026-04-06T08:37:10Z</time></trkpt><trkpt lat="39.316899875735906" lon="8.43776799360934"><ele>159.0</ele><time>2026-04-06T08:37:11Z</time></trkpt><trkpt lat="39.316952179925565" lon="8.43767287640635"><ele>159.0</ele><time>2026-04-06T08:37:12Z</time></trkpt><trkpt lat="39.31697052221734" lon="8.437548907392419"><ele>159.0</ele><time>2026-04-06T08:37:13Z</time></trkpt><trkpt lat="39.31698056048832" lon="8.43744031387636"><ele>159.0</ele><time>2026-04-06T08:37:14Z</time></trkpt><trkpt lat="39.316985949515" lon="8.437343517881509"><ele>159.0</ele><time>2026-04-06T08:37:15Z</time></trkpt><trkpt lat="39.316991481754414" lon="8.437248790649134"><ele>159.0</ele><time>2026-04-06T08:37:16Z</time></trkpt><trkpt lat="39.31701243602632" lon="8.43715889638445"><ele>159.0</ele><time>2026-04-06T08:37:17Z</time></trkpt><trkpt lat="39.317037785303285" lon="8.437065176713906"><ele>159.0</ele><time>2026-04-06T08:37:18Z</time></trkpt><trkpt lat="39.31706109220853" lon="8.436971068938838"><ele>159.83333333333334</ele><time>2026-04-06T08:37:19Z</time></trkpt><trkpt lat="39.31708196692355" lon="8.43687888574278"><ele>160.66666666666666</ele><time>2026-04-06T08:37:20Z</time></trkpt><trkpt lat="39.31710275448501" lon="8.436784993519609"><ele>161.5</ele><time>2026-04-06T08:37:21Z</time></trkpt><trkpt lat="39.31712095707801" lon="8.436684768584934"><ele>162.33333333333331</ele><time>2026-04-06T08:37:22Z</time></trkpt><trkpt lat="39.31717343598181" lon="8.436590498508304"><ele>163.16666666666666</ele><time>2026-04-06T08:37:23Z</time></trkpt><trkpt lat="39.31721325715672" lon="8.43649326607663"><ele>164.0</ele><time>2026-04-06T08:37:24Z</time></trkpt><trkpt lat="39.31725385650082" lon="8.436387498597933"><ele>164.0</ele><time>2026-04-06T08:37:25Z</time></trkpt><trkpt lat="39.317330762708984" lon="8.436316157999675"><ele>164.0</ele><time>2026-04-06T08:37:26Z</time></trkpt><trkpt lat="39.31739593448835" lon="8.436261424961861"><ele>164.0</ele><time>2026-04-06T08:37:27Z</time></trkpt><trkpt lat="39.317458860942324" lon="8.436222491915654"><ele>164.0</ele><time>2026-04-06T08:37:28Z</time></trkpt><trkpt lat="39.31753719724087" lon="8.436248789531687"><ele>164.0</ele><time>2026-04-06T08:37:29Z</time></trkpt><trkpt lat="39.31760842333105" lon="8.436259543535671"><ele>164.0</ele><time>2026-04-06T08:37:30Z</time></trkpt><trkpt lat="39.3177303804107" lon="8.436305591056222"><ele>164.0</ele><time>2026-04-06T08:37:32Z</time></trkpt><trkpt lat="39.317799791158286" lon="8.436321963417832"><ele>164.0</ele><time>2026-04-06T08:37:33Z</time></trkpt><trkpt lat="39.31787261842052" lon="8.436336243418804"><ele>164.0</ele><time>2026-04-06T08:37:34Z</time></trkpt><trkpt lat="39.31796105564959" lon="8.436316024050354"><ele>164.0</ele><time>2026-04-06T08:37:35Z</time></trkpt><trkpt lat="39.318063367592295" lon="8.436279320856706"><ele>164.0</ele><time>2026-04-06T08:37:36Z</time></trkpt><trkpt lat="39.31815853438313" lon="8.436243169247689"><ele>164.0</ele><time>2026-04-06T08:37:37Z</time></trkpt><trkpt lat="39.31824562880414" lon="8.436184197344158"><ele>161.6</ele><time>2026-04-06T08:37:38Z</time></trkpt><trkpt lat="39.31832151239153" lon="8.436119194736184"><ele>159.2</ele><time>2026-04-06T08:37:39Z</time></trkpt><trkpt lat="39.3184115369021" lon="8.43610583507057"><ele>156.79999999999998</ele><time>2026-04-06T08:37:40Z</time></trkpt><trkpt lat="39.31850285925627" lon="8.436117417704308"><ele>154.39999999999998</ele><time>2026-04-06T08:37:41Z</time></trkpt><trkpt lat="39.31859767401193" lon="8.43613827353347"><ele>152.0</ele><time>2026-04-06T08:37:42Z</time></trkpt><trkpt lat="39.318694326027085" lon="8.436151320665601"><ele>152.0</ele><time>2026-04-06T08:37:43Z</time></trkpt><trkpt lat="39.31879881252155" lon="8.436161096603309"><ele>152.0</ele><time>2026-04-06T08:37:44Z</time></trkpt><trkpt lat="39.31890894865708" lon="8.43617459403158"><ele>152.0</ele><time>2026-04-06T08:37:45Z</time></trkpt><trkpt lat="39.31902033220058" lon="8.436195833920523"><ele>152.0</ele><time>2026-04-06T08:37:46Z</time></trkpt><trkpt lat="39.31913145909067" lon="8.43621959949128"><ele>152.0</ele><time>2026-04-06T08:37:47Z</time></trkpt><trkpt lat="39.31923082644635" lon="8.436230928345308"><ele>152.0</ele><time>2026-04-06T08:37:48Z</time></trkpt><trkpt lat="39.31931795043025" lon="8.436244484337651"><ele>152.0</ele><time>2026-04-06T08:37:49Z</time></trkpt><trkpt lat="39.3194032765263" lon="8.436263066636611"><ele>152.0</ele><time>2026-04-06T08:37:50Z</time></trkpt><trkpt lat="39.31948969024506" lon="8.436274877693046"><ele>152.0</ele><time>2026-04-06T08:37:51Z</time></trkpt><trkpt lat="39.31956603770017" lon="8.436271977006028"><ele>152.0</ele><time>2026-04-06T08:37:52Z</time></trkpt><trkpt lat="39.31964387100797" lon="8.43624218274607"><ele>152.0</ele><time>2026-04-06T08:37:53Z</time></trkpt><trkpt lat="39.319710495857635" lon="8.43617989852959"><ele>154.2</ele><time>2026-04-06T08:37:54Z</time></trkpt><trkpt lat="39.31976965497015" lon="8.43609851167451"><ele>156.39999999999998</ele><time>2026-04-06T08:37:55Z</time></trkpt><trkpt lat="39.31981867739574" lon="8.435999830258938"><ele>158.60000000000002</ele><time>2026-04-06T08:37:56Z</time></trkpt><trkpt lat="39.31985619329067" lon="8.435894591151172"><ele>160.8</ele><time>2026-04-06T08:37:57Z</time></trkpt><trkpt lat="39.319881195964605" lon="8.435776816910309"><ele>163.0</ele><time>2026-04-06T08:37:58Z</time></trkpt><trkpt lat="39.31991696063438" lon="8.435670529539369"><ele>163.0</ele><time>2026-04-06T08:37:59Z</time></trkpt><trkpt lat="39.319976222792874" lon="8.435600533783667"><ele>163.0</ele><time>2026-04-06T08:38:00Z</time></trkpt><trkpt lat="39.320046965617614" lon="8.43558285633425"><ele>163.0</ele><time>2026-04-06T08:38:01Z</time></trkpt><trkpt lat="39.320120369547695" lon="8.435603565024822"><ele>163.0</ele><time>2026-04-06T08:38:02Z</time></trkpt><trkpt lat="39.32019338640912" lon="8.435645281793171"><ele>163.0</ele><time>2026-04-06T08:38:03Z</time></trkpt><trkpt lat="39.32027003738896" lon="8.43568538260564"><ele>163.0</ele><time>2026-04-06T08:38:04Z</time></trkpt><trkpt lat="39.320356844111494" lon="8.435725787765225"><ele>163.0</ele><time>2026-04-06T08:38:05Z</time></trkpt><trkpt lat="39.32045140387068" lon="8.435772891509375"><ele>163.0</ele><time>2026-04-06T08:38:06Z</time></trkpt><trkpt lat="39.32054359542732" lon="8.435837935587486"><ele>163.0</ele><time>2026-04-06T08:38:07Z</time></trkpt><trkpt lat="39.32061975336418" lon="8.435927125618532"><ele>163.0</ele><time>2026-04-06T08:38:08Z</time></trkpt><trkpt lat="39.320679508506494" lon="8.43603359128221"><ele>163.0</ele><time>2026-04-06T08:38:09Z</time></trkpt><trkpt lat="39.32074542504041" lon="8.436107870812869"><ele>163.8</ele><time>2026-04-06T08:38:10Z</time></trkpt><trkpt lat="39.32083553203483" lon="8.43612397849885"><ele>164.60000000000002</ele><time>2026-04-06T08:38:11Z</time></trkpt><trkpt lat="39.32093989639707" lon="8.436096512955814"><ele>165.39999999999998</ele><time>2026-04-06T08:38:12Z</time></trkpt><trkpt lat="39.32104084988364" lon="8.436041649214499"><ele>166.2</ele><time>2026-04-06T08:38:13Z</time></trkpt><trkpt lat="39.321140085010114" lon="8.43597978352367"><ele>167.0</ele><time>2026-04-06T08:38:14Z</time></trkpt><trkpt lat="39.32123948169775" lon="8.435936679596182"><ele>167.0</ele><time>2026-04-06T08:38:15Z</time></trkpt><trkpt lat="39.32134309618266" lon="8.43592430515803"><ele>167.0</ele><time>2026-04-06T08:38:16Z</time></trkpt><trkpt lat="39.321451142755706" lon="8.435937253652309"><ele>167.0</ele><time>2026-04-06T08:38:17Z</time></trkpt><trkpt lat="39.32156290997531" lon="8.435958853219212"><ele>167.0</ele><time>2026-04-06T08:38:18Z</time></trkpt><trkpt lat="39.32167107612158" lon="8.435976214981215"><ele>167.0</ele><time>2026-04-06T08:38:19Z</time></trkpt><trkpt lat="39.3217808349725" lon="8.435991465682914"><ele>167.2</ele><time>2026-04-06T08:38:20Z</time></trkpt><trkpt lat="39.32188518506884" lon="8.436006405843793"><ele>167.39999999999998</ele><time>2026-04-06T08:38:21Z</time></trkpt><trkpt lat="39.32198745304353" lon="8.436020356599498"><ele>167.60000000000002</ele><time>2026-04-06T08:38:22Z</time></trkpt><trkpt lat="39.32208877751677" lon="8.436032181062947"><ele>167.8</ele><time>2026-04-06T08:38:23Z</time></trkpt><trkpt lat="39.3221879187236" lon="8.436039083481784"><ele>168.0</ele><time>2026-04-06T08:38:24Z</time></trkpt><trkpt lat="39.322284535392974" lon="8.436027649134973"><ele>168.4</ele><time>2026-04-06T08:38:25Z</time></trkpt><trkpt lat="39.32237837124207" lon="8.435985339511685"><ele>168.8</ele><time>2026-04-06T08:38:26Z</time></trkpt><trkpt lat="39.322472539502826" lon="8.435946053028571"><ele>169.2</ele><time>2026-04-06T08:38:27Z</time></trkpt><trkpt lat="39.322566114208655" lon="8.435886907537743"><ele>169.6</ele><time>2026-04-06T08:38:28Z</time></trkpt><trkpt lat="39.32266115615313" lon="8.435839360048728"><ele>170.0</ele><time>2026-04-06T08:38:29Z</time></trkpt><trkpt lat="39.3227530641779" lon="8.435801220867114"><ele>170.0</ele><time>2026-04-06T08:38:30Z</time></trkpt><trkpt lat="39.322842754619955" lon="8.43581961275175"><ele>170.0</ele><time>2026-04-06T08:38:31Z</time></trkpt><trkpt lat="39.322925752796216" lon="8.435872631603226"><ele>170.0</ele><time>2026-04-06T08:38:32Z</time></trkpt><trkpt lat="39.323005128830665" lon="8.43594419768545"><ele>170.0</ele><time>2026-04-06T08:38:33Z</time></trkpt><trkpt lat="39.32308774727339" lon="8.436022532506243"><ele>170.0</ele><time>2026-04-06T08:38:34Z</time></trkpt><trkpt lat="39.323168914413365" lon="8.436109236341633"><ele>169.4</ele><time>2026-04-06T08:38:35Z</time></trkpt><trkpt lat="39.323242577054216" lon="8.436212703071854"><ele>168.8</ele><time>2026-04-06T08:38:36Z</time></trkpt><trkpt lat="39.323299536699146" lon="8.43633826397858"><ele>168.2</ele><time>2026-04-06T08:38:37Z</time></trkpt><trkpt lat="39.32334739625725" lon="8.436456521078108"><ele>167.6</ele><time>2026-04-06T08:38:38Z</time></trkpt><trkpt lat="39.32340287963226" lon="8.436541059460671"><ele>167.0</ele><time>2026-04-06T08:38:39Z</time></trkpt><trkpt lat="39.323480280203285" lon="8.436601119191952"><ele>170.6</ele><time>2026-04-06T08:38:40Z</time></trkpt><trkpt lat="39.323576947369254" lon="8.43662120503582"><ele>174.2</ele><time>2026-04-06T08:38:41Z</time></trkpt><trkpt lat="39.32368103971596" lon="8.436603823200599"><ele>177.8</ele><time>2026-04-06T08:38:42Z</time></trkpt><trkpt lat="39.32377959655798" lon="8.436564452841226"><ele>181.4</ele><time>2026-04-06T08:38:43Z</time></trkpt><trkpt lat="39.323858858404236" lon="8.436492609389154"><ele>185.0</ele><time>2026-04-06T08:38:44Z</time></trkpt><trkpt lat="39.32390990664737" lon="8.43638510460609"><ele>185.2</ele><time>2026-04-06T08:38:45Z</time></trkpt><trkpt lat="39.32393555564338" lon="8.43626199128299"><ele>185.4</ele><time>2026-04-06T08:38:46Z</time></trkpt><trkpt lat="39.323941716219906" lon="8.436137162145046"><ele>185.60000000000002</ele><time>2026-04-06T08:38:47Z</time></trkpt><trkpt lat="39.32393706211129" lon="8.436015606154486"><ele>185.8</ele><time>2026-04-06T08:38:48Z</time></trkpt><trkpt lat="39.323926485408826" lon="8.435896686600183"><ele>186.0</ele><time>2026-04-06T08:38:49Z</time></trkpt><trkpt lat="39.32391744334439" lon="8.435776131046193"><ele>186.0</ele><time>2026-04-06T08:38:50Z</time></trkpt><trkpt lat="39.3239439543479" lon="8.435658626982162"><ele>186.0</ele><time>2026-04-06T08:38:51Z</time></trkpt><trkpt lat="39.3239493901609" lon="8.43553451838551"><ele>186.0</ele><time>2026-04-06T08:38:52Z</time></trkpt><trkpt lat="39.32397930567971" lon="8.435421445249666"><ele>186.0</ele><time>2026-04-06T08:38:53Z</time></trkpt><trkpt lat="39.32400804769902" lon="8.43531887302512"><ele>186.0</ele><time>2026-04-06T08:38:54Z</time></trkpt><trkpt lat="39.324030654558925" lon="8.435221525586723"><ele>186.0</ele><time>2026-04-06T08:38:55Z</time></trkpt><trkpt lat="39.32405230303282" lon="8.435127070014588"><ele>183.66666666666666</ele><time>2026-04-06T08:38:56Z</time></trkpt><trkpt lat="39.32407840749165" lon="8.435026139033566"><ele>181.33333333333334</ele><time>2026-04-06T08:38:57Z</time></trkpt><trkpt lat="39.32411626834685" lon="8.434924216060766"><ele>179.0</ele><time>2026-04-06T08:38:58Z</time></trkpt><trkpt lat="39.324171383727595" lon="8.434831233731002"><ele>176.66666666666669</ele><time>2026-04-06T08:38:59Z</time></trkpt><trkpt lat="39.32424345766179" lon="8.43475694431523"><ele>174.33333333333334</ele><time>2026-04-06T08:39:00Z</time></trkpt><trkpt lat="39.324326283694624" lon="8.434696130534439"><ele>172.0</ele><time>2026-04-06T08:39:01Z</time></trkpt><trkpt lat="39.324404874797075" lon="8.434635371504696"><ele>170.0</ele><time>2026-04-06T08:39:02Z</time></trkpt><trkpt lat="39.32447457503744" lon="8.434560272774702"><ele>168.0</ele><time>2026-04-06T08:39:03Z</time></trkpt><trkpt lat="39.32452640207054" lon="8.434475299010701"><ele>166.0</ele><time>2026-04-06T08:39:04Z</time></trkpt><trkpt lat="39.32456710706182" lon="8.434374979089744"><ele>164.0</ele><time>2026-04-06T08:39:05Z</time></trkpt><trkpt lat="39.324615529067856" lon="8.434280881560758"><ele>162.0</ele><time>2026-04-06T08:39:06Z</time></trkpt><trkpt lat="39.324639402734945" lon="8.434163143271778"><ele>160.0</ele><time>2026-04-06T08:39:07Z</time></trkpt><trkpt lat="39.32466127425245" lon="8.434050008677328"><ele>160.0</ele><time>2026-04-06T08:39:08Z</time></trkpt><trkpt lat="39.32468259910386" lon="8.433939399292115"><ele>160.0</ele><time>2026-04-06T08:39:09Z</time></trkpt><trkpt lat="39.32469928371959" lon="8.43383162761165"><ele>160.0</ele><time>2026-04-06T08:39:10Z</time></trkpt><trkpt lat="39.32474823031402" lon="8.43374577726677"><ele>160.0</ele><time>2026-04-06T08:39:11Z</time></trkpt><trkpt lat="39.32481904769011" lon="8.433694091806792"><ele>160.0</ele><time>2026-04-06T08:39:12Z</time></trkpt><trkpt lat="39.324901018136295" lon="8.433688905025763"><ele>160.0</ele><time>2026-04-06T08:39:13Z</time></trkpt><trkpt lat="39.32498613250591" lon="8.433713913163656"><ele>158.8</ele><time>2026-04-06T08:39:14Z</time></trkpt><trkpt lat="39.32507758851941" lon="8.433719862528118"><ele>157.6</ele><time>2026-04-06T08:39:15Z</time></trkpt><trkpt lat="39.32517813650503" lon="8.433696225250856"><ele>156.4</ele><time>2026-04-06T08:39:16Z</time></trkpt><trkpt lat="39.32527280902434" lon="8.43363182570621"><ele>155.2</ele><time>2026-04-06T08:39:17Z</time></trkpt><trkpt lat="39.3253479674843" lon="8.433536443872601"><ele>154.0</ele><time>2026-04-06T08:39:18Z</time></trkpt><trkpt lat="39.32541054445031" lon="8.433431404390891"><ele>154.0</ele><time>2026-04-06T08:39:19Z</time></trkpt><trkpt lat="39.32548292722004" lon="8.433349287663505"><ele>154.0</ele><time>2026-04-06T08:39:20Z</time></trkpt><trkpt lat="39.325570554189206" lon="8.433317695703547"><ele>154.0</ele><time>2026-04-06T08:39:21Z</time></trkpt><trkpt lat="39.325664095871204" lon="8.43332512776349"><ele>154.0</ele><time>2026-04-06T08:39:22Z</time></trkpt><trkpt lat="39.3257592302882" lon="8.433346538243953"><ele>154.0</ele><time>2026-04-06T08:39:23Z</time></trkpt><trkpt lat="39.325852779632" lon="8.43336089536582"><ele>155.0</ele><time>2026-04-06T08:39:24Z</time></trkpt><trkpt lat="39.32594767865327" lon="8.433363800554336"><ele>156.0</ele><time>2026-04-06T08:39:25Z</time></trkpt><trkpt lat="39.326043161169956" lon="8.433355400764434"><ele>157.0</ele><time>2026-04-06T08:39:26Z</time></trkpt><trkpt lat="39.32613849042818" lon="8.433342467984867"><ele>158.0</ele><time>2026-04-06T08:39:27Z</time></trkpt><trkpt lat="39.32623231703252" lon="8.433332502584083"><ele>159.0</ele><time>2026-04-06T08:39:28Z</time></trkpt><trkpt lat="39.326324966082225" lon="8.433335071915407"><ele>158.8</ele><time>2026-04-06T08:39:29Z</time></trkpt><trkpt lat="39.326417022808194" lon="8.433351701851029"><ele>158.60000000000002</ele><time>2026-04-06T08:39:30Z</time></trkpt><trkpt lat="39.326507281379556" lon="8.433372985801148"><ele>158.4</ele><time>2026-04-06T08:39:31Z</time></trkpt><trkpt lat="39.32659578669197" lon="8.433387568040294"><ele>158.20000000000002</ele><time>2026-04-06T08:39:32Z</time></trkpt><trkpt lat="39.326685789719996" lon="8.433381326557658"><ele>158.0</ele><time>2026-04-06T08:39:33Z</time></trkpt><trkpt lat="39.32677485095887" lon="8.433354157745296"><ele>158.0</ele><time>2026-04-06T08:39:34Z</time></trkpt><trkpt lat="39.32686080949659" lon="8.433305336717856"><ele>158.0</ele><time>2026-04-06T08:39:35Z</time></trkpt><trkpt lat="39.32694652742337" lon="8.43326216070309"><ele>158.0</ele><time>2026-04-06T08:39:36Z</time></trkpt><trkpt lat="39.32703911512041" lon="8.433252690292298"><ele>158.0</ele><time>2026-04-06T08:39:37Z</time></trkpt><trkpt lat="39.327130660607445" lon="8.43327474069307"><ele>158.0</ele><time>2026-04-06T08:39:38Z</time></trkpt><trkpt lat="39.327219283382945" lon="8.433302838927355"><ele>157.16666666666666</ele><time>2026-04-06T08:39:39Z</time></trkpt><trkpt lat="39.32730618251641" lon="8.433330955201253"><ele>156.33333333333331</ele><time>2026-04-06T08:39:40Z</time></trkpt><trkpt lat="39.32739203318175" lon="8.433353206126853"><ele>155.5</ele><time>2026-04-06T08:39:41Z</time></trkpt><trkpt lat="39.32747349909021" lon="8.433362313096161"><ele>154.66666666666666</ele><time>2026-04-06T08:39:42Z</time></trkpt><trkpt lat="39.32755774187503" lon="8.43336652628679"><ele>153.83333333333334</ele><time>2026-04-06T08:39:43Z</time></trkpt><trkpt lat="39.3276492715102" lon="8.433366717318048"><ele>153.0</ele><time>2026-04-06T08:39:44Z</time></trkpt><trkpt lat="39.32772999437579" lon="8.433363654348588"><ele>153.0</ele><time>2026-04-06T08:39:45Z</time></trkpt><trkpt lat="39.327800203444845" lon="8.433364957964468"><ele>153.0</ele><time>2026-04-06T08:39:46Z</time></trkpt><trkpt lat="39.32786984136024" lon="8.433365568670762"><ele>153.0</ele><time>2026-04-06T08:39:47Z</time></trkpt><trkpt lat="39.327951418464394" lon="8.433364212425335"><ele>153.0</ele><time>2026-04-06T08:39:48Z</time></trkpt><trkpt lat="39.32801745433526" lon="8.433363020641508"><ele>153.0</ele><time>2026-04-06T08:39:49Z</time></trkpt><trkpt lat="39.328102423393965" lon="8.43336632320557"><ele>153.0</ele><time>2026-04-06T08:39:51Z</time></trkpt><trkpt lat="39.3281745496922" lon="8.433363418377672"><ele>153.0</ele><time>2026-04-06T08:39:54Z</time></trkpt><trkpt lat="39.32821533567189" lon="8.433265518007907"><ele>153.16666666666666</ele><time>2026-04-06T08:43:11Z</time></trkpt><trkpt lat="39.32828371251808" lon="8.43326978193577"><ele>153.33333333333334</ele><time>2026-04-06T08:48:06.999Z</time></trkpt><trkpt lat="39.32834878184613" lon="8.43329730394845"><ele>153.5</ele><time>2026-04-06T08:48:09.999Z</time></trkpt><trkpt lat="39.3284247614711" lon="8.433318018106926"><ele>153.66666666666669</ele><time>2026-04-06T08:48:12.999Z</time></trkpt><trkpt lat="39.32852892537435" lon="8.433328077801919"><ele>153.83333333333334</ele><time>2026-04-06T08:48:14.999Z</time></trkpt><trkpt lat="39.32863626315133" lon="8.433295146167103"><ele>154.0</ele><time>2026-04-06T08:48:16.999Z</time></trkpt><trkpt lat="39.328696196780804" lon="8.433248818894441"><ele>154.0</ele><time>2026-04-06T08:48:17.999Z</time></trkpt><trkpt lat="39.32876177509064" lon="8.433176948507585"><ele>154.0</ele><time>2026-04-06T08:48:18.999Z</time></trkpt><trkpt lat="39.32883490266814" lon="8.433107297167684"><ele>154.0</ele><time>2026-04-06T08:48:19.999Z</time></trkpt><trkpt lat="39.32888514943412" lon="8.433009742451933"><ele>154.0</ele><time>2026-04-06T08:48:20.999Z</time></trkpt><trkpt lat="39.32895201071103" lon="8.432922528190485"><ele>154.0</ele><time>2026-04-06T08:48:21.999Z</time></trkpt><trkpt lat="39.32903395653634" lon="8.43281827117806"><ele>151.0</ele><time>2026-04-06T08:48:22.999Z</time></trkpt><trkpt lat="39.32911990733233" lon="8.432730451530075"><ele>148.0</ele><time>2026-04-06T08:48:23.999Z</time></trkpt><trkpt lat="39.32920930506024" lon="8.43267085740449"><ele>145.0</ele><time>2026-04-06T08:48:24.999Z</time></trkpt><trkpt lat="39.32930408414459" lon="8.432640337665495"><ele>142.0</ele><time>2026-04-06T08:48:25.999Z</time></trkpt><trkpt lat="39.32940241728652" lon="8.43264067279634"><ele>139.0</ele><time>2026-04-06T08:48:26.999Z</time></trkpt><trkpt lat="39.329510823133624" lon="8.432669971686142"><ele>139.0</ele><time>2026-04-06T08:48:27.999Z</time></trkpt><trkpt lat="39.32961101012109" lon="8.432720908041793"><ele>139.0</ele><time>2026-04-06T08:48:28.999Z</time></trkpt><trkpt lat="39.32969000720349" lon="8.432788565108448"><ele>139.0</ele><time>2026-04-06T08:48:29.999Z</time></trkpt><trkpt lat="39.32973605263" lon="8.432884049520135"><ele>139.0</ele><time>2026-04-06T08:48:30.999Z</time></trkpt><trkpt lat="39.32973629883528" lon="8.432990703754381"><ele>139.0</ele><time>2026-04-06T08:48:31.999Z</time></trkpt><trkpt lat="39.329706884150546" lon="8.433096153683918"><ele>138.8</ele><time>2026-04-06T08:48:32.999Z</time></trkpt><trkpt lat="39.329694465394816" lon="8.433209549588053"><ele>138.60000000000002</ele><time>2026-04-06T08:48:33.999Z</time></trkpt><trkpt lat="39.329731076133335" lon="8.43329638592258"><ele>138.4</ele><time>2026-04-06T08:48:34.999Z</time></trkpt><trkpt lat="39.32979850396918" lon="8.433378788042834"><ele>138.20000000000002</ele><time>2026-04-06T08:48:35.999Z</time></trkpt><trkpt lat="39.329897750746454" lon="8.433444742137592"><ele>138.0</ele><time>2026-04-06T08:48:36.999Z</time></trkpt><trkpt lat="39.330025226130594" lon="8.433511408019681"><ele>138.0</ele><time>2026-04-06T08:48:37.999Z</time></trkpt><trkpt lat="39.33016162860388" lon="8.433597585510569"><ele>138.0</ele><time>2026-04-06T08:48:38.999Z</time></trkpt><trkpt lat="39.3302864841958" lon="8.433667251773924"><ele>138.0</ele><time>2026-04-06T08:48:39.999Z</time></trkpt><trkpt lat="39.3303919498129" lon="8.433729755669352"><ele>138.0</ele><time>2026-04-06T08:48:40.999Z</time></trkpt><trkpt lat="39.330476291707555" lon="8.433793561286874"><ele>136.0</ele><time>2026-04-06T08:48:41.999Z</time></trkpt><trkpt lat="39.330537748306966" lon="8.433882980636291"><ele>134.0</ele><time>2026-04-06T08:48:42.999Z</time></trkpt><trkpt lat="39.33057707168869" lon="8.43400231483043"><ele>132.0</ele><time>2026-04-06T08:48:43.999Z</time></trkpt><trkpt lat="39.330607004253" lon="8.434125016588531"><ele>130.0</ele><time>2026-04-06T08:48:44.999Z</time></trkpt><trkpt lat="39.33064100744371" lon="8.434235088187725"><ele>128.0</ele><time>2026-04-06T08:48:45.999Z</time></trkpt><trkpt lat="39.330689322134845" lon="8.434327594452315"><ele>127.99999999999999</ele><time>2026-04-06T08:48:46.999Z</time></trkpt><trkpt lat="39.33074953221238" lon="8.434402196176245"><ele>128.0</ele><time>2026-04-06T08:48:47.999Z</time></trkpt><trkpt lat="39.33081195762728" lon="8.434463239414326"><ele>128.0</ele><time>2026-04-06T08:48:48.999Z</time></trkpt><trkpt lat="39.33087445275582" lon="8.43451434634804"><ele>128.0</ele><time>2026-04-06T08:48:49.999Z</time></trkpt><trkpt lat="39.330937806943474" lon="8.43455755490984"><ele>127.99999999999999</ele><time>2026-04-06T08:48:50.999Z</time></trkpt><trkpt lat="39.33100279963022" lon="8.434598918038265"><ele>128.0</ele><time>2026-04-06T08:48:51.999Z</time></trkpt><trkpt lat="39.331081720078146" lon="8.434663796529586"><ele>130.0</ele><time>2026-04-06T08:48:52.999Z</time></trkpt><trkpt lat="39.331181680776155" lon="8.43473278184645"><ele>132.0</ele><time>2026-04-06T08:48:53.999Z</time></trkpt><trkpt lat="39.33129747196333" lon="8.43479699035326"><ele>134.0</ele><time>2026-04-06T08:48:54.999Z</time></trkpt><trkpt lat="39.33139931734517" lon="8.434898374884254"><ele>136.0</ele><time>2026-04-06T08:48:55.999Z</time></trkpt><trkpt lat="39.331494417320506" lon="8.434985563222897"><ele>136.0</ele><time>2026-04-06T08:48:56.999Z</time></trkpt><trkpt lat="39.33160238558443" lon="8.435044082455084"><ele>136.0</ele><time>2026-04-06T08:48:57.999Z</time></trkpt><trkpt lat="39.33170637963683" lon="8.435076252393788"><ele>136.0</ele><time>2026-04-06T08:48:58.999Z</time></trkpt><trkpt lat="39.33177834835955" lon="8.435121900020219"><ele>136.0</ele><time>2026-04-06T08:48:59.999Z</time></trkpt><trkpt lat="39.33182157729117" lon="8.435194649297749"><ele>136.0</ele><time>2026-04-06T08:49:00.999Z</time></trkpt><trkpt lat="39.33183383097966" lon="8.43528720263682"><ele>136.0</ele><time>2026-04-06T08:49:01.999Z</time></trkpt><trkpt lat="39.33181719476198" lon="8.435393876643268"><ele>139.6</ele><time>2026-04-06T08:49:02.999Z</time></trkpt><trkpt lat="39.33178936424808" lon="8.435512848237616"><ele>143.2</ele><time>2026-04-06T08:49:03.999Z</time></trkpt><trkpt lat="39.331758865757614" lon="8.435644605866067"><ele>146.8</ele><time>2026-04-06T08:49:04.999Z</time></trkpt><trkpt lat="39.33172015365626" lon="8.435787398381704"><ele>150.4</ele><time>2026-04-06T08:49:05.999Z</time></trkpt><trkpt lat="39.331677740556714" lon="8.435940085123946"><ele>154.0</ele><time>2026-04-06T08:49:06.999Z</time></trkpt><trkpt lat="39.331634462671666" lon="8.436101095371841"><ele>154.0</ele><time>2026-04-06T08:49:07.999Z</time></trkpt><trkpt lat="39.33158909470336" lon="8.436268330719573"><ele>154.0</ele><time>2026-04-06T08:49:08.999Z</time></trkpt><trkpt lat="39.33153920675408" lon="8.436444245942951"><ele>154.0</ele><time>2026-04-06T08:49:09.999Z</time></trkpt><trkpt lat="39.33149064723797" lon="8.436635433184534"><ele>154.0</ele><time>2026-04-06T08:49:10.999Z</time></trkpt><trkpt lat="39.331443179676455" lon="8.436836609797846"><ele>160.0</ele><time>2026-04-06T08:49:11.999Z</time></trkpt><trkpt lat="39.33139949747401" lon="8.437055613555186"><ele>166.0</ele><time>2026-04-06T08:49:12.999Z</time></trkpt><trkpt lat="39.33137305919581" lon="8.437296109499018"><ele>172.0</ele><time>2026-04-06T08:49:13.999Z</time></trkpt><trkpt lat="39.331361102182285" lon="8.437516509729534"><ele>180.0</ele><time>2026-04-06T08:49:14.999Z</time></trkpt><trkpt lat="39.3313595219105" lon="8.4377419367605"><ele>188.0</ele><time>2026-04-06T08:49:15.999Z</time></trkpt><trkpt lat="39.33138076143068" lon="8.437972873568036"><ele>196.0</ele><time>2026-04-06T08:49:16.999Z</time></trkpt><trkpt lat="39.331418287339396" lon="8.438208625873962"><ele>196.0</ele><time>2026-04-06T08:49:17.999Z</time></trkpt><trkpt lat="39.33143180367367" lon="8.438459008403957"><ele>196.0</ele><time>2026-04-06T08:49:18.999Z</time></trkpt><trkpt lat="39.331516934225334" lon="8.438703227974694"><ele>196.0</ele><time>2026-04-06T08:49:19.999Z</time></trkpt><trkpt lat="39.33157734779669" lon="8.438932777714818"><ele>194.5</ele><time>2026-04-06T08:49:20.999Z</time></trkpt><trkpt lat="39.331643745806474" lon="8.439119180913414"><ele>193.0</ele><time>2026-04-06T08:49:21.999Z</time></trkpt><trkpt lat="39.33171532153782" lon="8.439283636490353"><ele>191.5</ele><time>2026-04-06T08:49:22.999Z</time></trkpt><trkpt lat="39.331790631128875" lon="8.43944211727985"><ele>190.0</ele><time>2026-04-06T08:49:23.999Z</time></trkpt><trkpt lat="39.33187179742801" lon="8.439590463996234"><ele>191.25</ele><time>2026-04-06T08:49:24.999Z</time></trkpt><trkpt lat="39.33196794850599" lon="8.439732544905427"><ele>192.5</ele><time>2026-04-06T08:49:25.999Z</time></trkpt><trkpt lat="39.33206040563061" lon="8.439854864260786"><ele>193.75</ele><time>2026-04-06T08:49:26.999Z</time></trkpt><trkpt lat="39.33212566124534" lon="8.43996951440567"><ele>195.0</ele><time>2026-04-06T08:49:27.999Z</time></trkpt><trkpt lat="39.3321594003043" lon="8.440097343317417"><ele>195.0</ele><time>2026-04-06T08:49:28.999Z</time></trkpt><trkpt lat="39.33215793093762" lon="8.440235019873164"><ele>195.0</ele><time>2026-04-06T08:49:29.999Z</time></trkpt><trkpt lat="39.33211925180185" lon="8.44035950815244"><ele>195.0</ele><time>2026-04-06T08:49:30.999Z</time></trkpt><trkpt lat="39.33205501167172" lon="8.440487565420828"><ele>195.0</ele><time>2026-04-06T08:49:31.999Z</time></trkpt><trkpt lat="39.33197661723247" lon="8.44061975788218"><ele>199.5</ele><time>2026-04-06T08:49:32.999Z</time></trkpt><trkpt lat="39.33192546562516" lon="8.440769349440645"><ele>204.0</ele><time>2026-04-06T08:49:33.999Z</time></trkpt><trkpt lat="39.331922638218664" lon="8.440931307456305"><ele>208.5</ele><time>2026-04-06T08:49:34.999Z</time></trkpt><trkpt lat="39.33195701048021" lon="8.441097396796392"><ele>213.0</ele><time>2026-04-06T08:49:35.999Z</time></trkpt><trkpt lat="39.33202408834299" lon="8.441255567504298"><ele>218.0</ele><time>2026-04-06T08:49:36.999Z</time></trkpt><trkpt lat="39.332109214997566" lon="8.441406660862222"><ele>223.0</ele><time>2026-04-06T08:49:37.999Z</time></trkpt><trkpt lat="39.33216434597766" lon="8.44158438513475"><ele>228.0</ele><time>2026-04-06T08:49:38.999Z</time></trkpt><trkpt lat="39.33219988048207" lon="8.441776598488804"><ele>233.0</ele><time>2026-04-06T08:49:39.999Z</time></trkpt><trkpt lat="39.332210540622505" lon="8.441973072180588"><ele>236.66666666666669</ele><time>2026-04-06T08:49:40.999Z</time></trkpt><trkpt lat="39.33219749892948" lon="8.442156723504922"><ele>240.33333333333331</ele><time>2026-04-06T08:49:41.999Z</time></trkpt><trkpt lat="39.332166529891715" lon="8.442350191485696"><ele>244.0</ele><time>2026-04-06T08:49:42.999Z</time></trkpt><trkpt lat="39.332122249139935" lon="8.442552166883766"><ele>244.0</ele><time>2026-04-06T08:49:43.999Z</time></trkpt><trkpt lat="39.332077849864525" lon="8.44276441037297"><ele>244.0</ele><time>2026-04-06T08:49:44.999Z</time></trkpt><trkpt lat="39.33203370782608" lon="8.442969416034837"><ele>244.0</ele><time>2026-04-06T08:49:45.999Z</time></trkpt><trkpt lat="39.33200006199225" lon="8.44312236106261"><ele>244.33333333333331</ele><time>2026-04-06T08:49:46.999Z</time></trkpt><trkpt lat="39.33198355401164" lon="8.443231194706042"><ele>244.66666666666666</ele><time>2026-04-06T08:49:47.999Z</time></trkpt><trkpt lat="39.331993136181175" lon="8.443324591174104"><ele>245.0</ele><time>2026-04-06T08:49:48.999Z</time></trkpt><trkpt lat="39.332030486201845" lon="8.443410304506752"><ele>245.33333333333331</ele><time>2026-04-06T08:49:49.999Z</time></trkpt><trkpt lat="39.332091688631124" lon="8.443473495981946"><ele>245.66666666666666</ele><time>2026-04-06T08:49:50.999Z</time></trkpt><trkpt lat="39.33218124626945" lon="8.44343210988742"><ele>246.0</ele><time>2026-04-06T08:49:51.999Z</time></trkpt><trkpt lat="39.332252037507075" lon="8.443374344884027"><ele>244.5</ele><time>2026-04-06T08:49:52.999Z</time></trkpt><trkpt lat="39.33231176097557" lon="8.44328523478077"><ele>243.0</ele><time>2026-04-06T08:49:53.999Z</time></trkpt><trkpt lat="39.33236491561782" lon="8.443162699649282"><ele>241.5</ele><time>2026-04-06T08:49:54.999Z</time></trkpt><trkpt lat="39.33242342958003" lon="8.443020178786304"><ele>240.0</ele><time>2026-04-06T08:49:55.999Z</time></trkpt><trkpt lat="39.3324880882375" lon="8.442869540431191"><ele>234.0</ele><time>2026-04-06T08:49:56.999Z</time></trkpt><trkpt lat="39.33254674441099" lon="8.442744763037496"><ele>228.0</ele><time>2026-04-06T08:49:57.999Z</time></trkpt><trkpt lat="39.33260092872719" lon="8.44261379356109"><ele>222.0</ele><time>2026-04-06T08:49:58.999Z</time></trkpt><trkpt lat="39.33265617663701" lon="8.442475716239711"><ele>216.0</ele><time>2026-04-06T08:49:59.999Z</time></trkpt><trkpt lat="39.33271298742435" lon="8.442352339647256"><ele>216.0</ele><time>2026-04-06T08:50:00.999Z</time></trkpt><trkpt lat="39.33278665709504" lon="8.442259763812794"><ele>216.00000000000003</ele><time>2026-04-06T08:50:01.999Z</time></trkpt><trkpt lat="39.332868896747044" lon="8.442231628611674"><ele>216.00000000000003</ele><time>2026-04-06T08:50:02.999Z</time></trkpt><trkpt lat="39.332965560458575" lon="8.442247664840597"><ele>216.0</ele><time>2026-04-06T08:50:03.999Z</time></trkpt><trkpt lat="39.33305999642426" lon="8.442295871199812"><ele>216.0</ele><time>2026-04-06T08:50:04.999Z</time></trkpt><trkpt lat="39.33315750437477" lon="8.442304853975772"><ele>220.0</ele><time>2026-04-06T08:50:05.999Z</time></trkpt><trkpt lat="39.33323842538035" lon="8.442250680190579"><ele>224.00000000000003</ele><time>2026-04-06T08:50:06.999Z</time></trkpt><trkpt lat="39.33330250537358" lon="8.442156243874454"><ele>228.00000000000003</ele><time>2026-04-06T08:50:07.999Z</time></trkpt><trkpt lat="39.333335809702085" lon="8.442037077318481"><ele>232.0</ele><time>2026-04-06T08:50:08.999Z</time></trkpt><trkpt lat="39.33333077472701" lon="8.441905159222403"><ele>236.0</ele><time>2026-04-06T08:50:09.999Z</time></trkpt><trkpt lat="39.333288258306446" lon="8.44177489738405"><ele>236.0</ele><time>2026-04-06T08:50:10.999Z</time></trkpt><trkpt lat="39.33323444743607" lon="8.44164587702735"><ele>236.00000000000003</ele><time>2026-04-06T08:50:11.999Z</time></trkpt><trkpt lat="39.33318823266962" lon="8.441511990420892"><ele>236.00000000000003</ele><time>2026-04-06T08:50:12.999Z</time></trkpt><trkpt lat="39.33316107480255" lon="8.441389743910186"><ele>236.0</ele><time>2026-04-06T08:50:13.999Z</time></trkpt><trkpt lat="39.333168817792064" lon="8.441256363513183"><ele>236.0</ele><time>2026-04-06T08:50:14.999Z</time></trkpt><trkpt lat="39.33320239644923" lon="8.441144944341907"><ele>234.0</ele><time>2026-04-06T08:50:15.999Z</time></trkpt><trkpt lat="39.33327025847102" lon="8.441140222207016"><ele>232.00000000000003</ele><time>2026-04-06T08:50:16.999Z</time></trkpt><trkpt lat="39.333348630702446" lon="8.441119288166451"><ele>230.00000000000003</ele><time>2026-04-06T08:50:17.999Z</time></trkpt><trkpt lat="39.333445047640026" lon="8.441099905405379"><ele>228.0</ele><time>2026-04-06T08:50:18.999Z</time></trkpt><trkpt lat="39.33355253829702" lon="8.441067256625315"><ele>226.0</ele><time>2026-04-06T08:50:19.999Z</time></trkpt><trkpt lat="39.33367825270905" lon="8.441031102534048"><ele>226.0</ele><time>2026-04-06T08:50:20.999Z</time></trkpt><trkpt lat="39.333812382357216" lon="8.440979521832626"><ele>226.0</ele><time>2026-04-06T08:50:21.999Z</time></trkpt><trkpt lat="39.333953172325025" lon="8.440918972380924"><ele>226.0</ele><time>2026-04-06T08:50:22.999Z</time></trkpt><trkpt lat="39.33410857946695" lon="8.440874929198994"><ele>226.0</ele><time>2026-04-06T08:50:23.999Z</time></trkpt><trkpt lat="39.334278801429754" lon="8.440809668522045"><ele>232.75</ele><time>2026-04-06T08:50:24.999Z</time></trkpt><trkpt lat="39.33444153978591" lon="8.440736151478365"><ele>239.5</ele><time>2026-04-06T08:50:25.999Z</time></trkpt><trkpt lat="39.33457192514434" lon="8.440689458553694"><ele>246.25</ele><time>2026-04-06T08:50:26.999Z</time></trkpt><trkpt lat="39.334682075542986" lon="8.440651539980145"><ele>253.0</ele><time>2026-04-06T08:50:27.999Z</time></trkpt><trkpt lat="39.334769475339435" lon="8.440586301363055"><ele>258.0</ele><time>2026-04-06T08:50:28.999Z</time></trkpt><trkpt lat="39.33483776870021" lon="8.440473472548495"><ele>263.0</ele><time>2026-04-06T08:50:29.999Z</time></trkpt><trkpt lat="39.33486545065674" lon="8.440330803754321"><ele>268.0</ele><time>2026-04-06T08:50:30.999Z</time></trkpt><trkpt lat="39.33485055740317" lon="8.440179243128773"><ele>273.0</ele><time>2026-04-06T08:50:31.999Z</time></trkpt><trkpt lat="39.334822669819765" lon="8.440062657972236"><ele>278.0</ele><time>2026-04-06T08:50:32.999Z</time></trkpt><trkpt lat="39.33486917960343" lon="8.439979235669158"><ele>278.0</ele><time>2026-04-06T08:50:33.999Z</time></trkpt><trkpt lat="39.334963152265395" lon="8.439919997487834"><ele>278.0</ele><time>2026-04-06T08:50:34.999Z</time></trkpt><trkpt lat="39.335071411587954" lon="8.439917692083728"><ele>278.0</ele><time>2026-04-06T08:50:35.999Z</time></trkpt><trkpt lat="39.335183741474225" lon="8.439960821223798"><ele>278.0</ele><time>2026-04-06T08:50:36.999Z</time></trkpt><trkpt lat="39.335305097694" lon="8.440022231256673"><ele>278.0</ele><time>2026-04-06T08:50:37.999Z</time></trkpt><trkpt lat="39.335434393693454" lon="8.440079658021276"><ele>278.0</ele><time>2026-04-06T08:50:38.999Z</time></trkpt><trkpt lat="39.33557057095416" lon="8.440138538734029"><ele>278.0</ele><time>2026-04-06T08:50:39.999Z</time></trkpt><trkpt lat="39.33567065988507" lon="8.440192980832654"><ele>278.0</ele><time>2026-04-06T08:50:40.999Z</time></trkpt><trkpt lat="39.33572664362937" lon="8.44028194337599"><ele>282.5</ele><time>2026-04-06T08:50:41.999Z</time></trkpt><trkpt lat="39.33575032698924" lon="8.440413807611874"><ele>287.0</ele><time>2026-04-06T08:50:42.999Z</time></trkpt><trkpt lat="39.33573040464608" lon="8.440558029800414"><ele>291.5</ele><time>2026-04-06T08:50:43.999Z</time></trkpt><trkpt lat="39.3356763792253" lon="8.440689687995306"><ele>296.0</ele><time>2026-04-06T08:50:44.999Z</time></trkpt><trkpt lat="39.335584097172365" lon="8.440791892410232"><ele>292.6</ele><time>2026-04-06T08:50:45.999Z</time></trkpt><trkpt lat="39.33547057868164" lon="8.440846758751007"><ele>289.20000000000005</ele><time>2026-04-06T08:50:46.999Z</time></trkpt><trkpt lat="39.33535438365152" lon="8.440872438097262"><ele>285.79999999999995</ele><time>2026-04-06T08:50:47.999Z</time></trkpt><trkpt lat="39.335264341896" lon="8.440898848925757"><ele>282.4</ele><time>2026-04-06T08:50:48.999Z</time></trkpt><trkpt lat="39.33522196826475" lon="8.440967984312925"><ele>279.0</ele><time>2026-04-06T08:50:49.999Z</time></trkpt><trkpt lat="39.33522148639244" lon="8.44105963566629"><ele>279.0</ele><time>2026-04-06T08:50:50.999Z</time></trkpt><trkpt lat="39.33532097250707" lon="8.441163906560814"><ele>279.0</ele><time>2026-04-06T08:50:52.999Z</time></trkpt><trkpt lat="39.33540010083601" lon="8.441161061334837"><ele>279.0</ele><time>2026-04-06T08:50:53.999Z</time></trkpt><trkpt lat="39.33548735895088" lon="8.441116484837291"><ele>279.0</ele><time>2026-04-06T08:50:54.999Z</time></trkpt><trkpt lat="39.335572541703634" lon="8.441046241730465"><ele>279.0</ele><time>2026-04-06T08:50:55.999Z</time></trkpt><trkpt lat="39.33566917483035" lon="8.440972102037184"><ele>284.5</ele><time>2026-04-06T08:50:56.999Z</time></trkpt><trkpt lat="39.33577839414918" lon="8.440892788418935"><ele>290.0</ele><time>2026-04-06T08:50:57.999Z</time></trkpt><trkpt lat="39.3358993859003" lon="8.44081686767022"><ele>295.5</ele><time>2026-04-06T08:50:58.999Z</time></trkpt><trkpt lat="39.3360293958029" lon="8.440738472275283"><ele>301.0</ele><time>2026-04-06T08:50:59.999Z</time></trkpt><trkpt lat="39.33615969962248" lon="8.440645891718175"><ele>301.0</ele><time>2026-04-06T08:51:00.999Z</time></trkpt><trkpt lat="39.33628529135821" lon="8.440527692740197"><ele>301.0</ele><time>2026-04-06T08:51:01.999Z</time></trkpt><trkpt lat="39.336384305681165" lon="8.440370538823096"><ele>301.0</ele><time>2026-04-06T08:51:02.999Z</time></trkpt><trkpt lat="39.336446551589276" lon="8.440195987555239"><ele>305.25</ele><time>2026-04-06T08:51:03.999Z</time></trkpt><trkpt lat="39.3364940589856" lon="8.440035214178286"><ele>309.5</ele><time>2026-04-06T08:51:04.999Z</time></trkpt><trkpt lat="39.336564774453876" lon="8.439926418079523"><ele>313.75</ele><time>2026-04-06T08:51:05.999Z</time></trkpt><trkpt lat="39.33666449281702" lon="8.439859876829772"><ele>318.0</ele><time>2026-04-06T08:51:06.999Z</time></trkpt><trkpt lat="39.33678165471331" lon="8.439850007457208"><ele>318.0</ele><time>2026-04-06T08:51:07.999Z</time></trkpt><trkpt lat="39.33690260372428" lon="8.439874260446324"><ele>318.0</ele><time>2026-04-06T08:51:08.999Z</time></trkpt><trkpt lat="39.33702915463061" lon="8.439939227834548"><ele>318.0</ele><time>2026-04-06T08:51:09.999Z</time></trkpt><trkpt lat="39.33716755474274" lon="8.440004486170238"><ele>318.0</ele><time>2026-04-06T08:51:10.999Z</time></trkpt><trkpt lat="39.33732392650847" lon="8.440071444676354"><ele>323.6666666666667</ele><time>2026-04-06T08:51:11.999Z</time></trkpt><trkpt lat="39.3374790841048" lon="8.440135488964076"><ele>329.33333333333337</ele><time>2026-04-06T08:51:12.999Z</time></trkpt><trkpt lat="39.3376181010114" lon="8.440181062994153"><ele>335.0</ele><time>2026-04-06T08:51:13.999Z</time></trkpt><trkpt lat="39.33776671838324" lon="8.440203415996718"><ele>335.0</ele><time>2026-04-06T08:51:14.999Z</time></trkpt><trkpt lat="39.3379275347475" lon="8.440191503086137"><ele>335.0</ele><time>2026-04-06T08:51:15.999Z</time></trkpt><trkpt lat="39.33810091730057" lon="8.440165746962622"><ele>335.0</ele><time>2026-04-06T08:51:16.999Z</time></trkpt><trkpt lat="39.33827925902619" lon="8.440138128939683"><ele>338.6666666666667</ele><time>2026-04-06T08:51:17.999Z</time></trkpt><trkpt lat="39.3384642680734" lon="8.440117464610388"><ele>342.3333333333333</ele><time>2026-04-06T08:51:18.999Z</time></trkpt><trkpt lat="39.33865199186328" lon="8.440100822650843"><ele>346.0</ele><time>2026-04-06T08:51:19.999Z</time></trkpt><trkpt lat="39.33884631962239" lon="8.440074130663104"><ele>349.3333333333333</ele><time>2026-04-06T08:51:20.999Z</time></trkpt><trkpt lat="39.339048519318176" lon="8.440051997552255"><ele>352.6666666666667</ele><time>2026-04-06T08:51:21.999Z</time></trkpt><trkpt lat="39.33925892034667" lon="8.440030852155822"><ele>356.0</ele><time>2026-04-06T08:51:22.999Z</time></trkpt><trkpt lat="39.33947642762368" lon="8.440005705280075"><ele>356.0</ele><time>2026-04-06T08:51:23.999Z</time></trkpt><trkpt lat="39.33970033082331" lon="8.43998228370468"><ele>356.0</ele><time>2026-04-06T08:51:24.999Z</time></trkpt><trkpt lat="39.33993389739421" lon="8.43995155893461"><ele>360.5</ele><time>2026-04-06T08:51:25.999Z</time></trkpt><trkpt lat="39.34017674357764" lon="8.439908384638382"><ele>365.0</ele><time>2026-04-06T08:51:26.999Z</time></trkpt><trkpt lat="39.340398110865515" lon="8.439860952083682"><ele>370.0</ele><time>2026-04-06T08:51:27.999Z</time></trkpt><trkpt lat="39.3406227660728" lon="8.439806158967242"><ele>375.0</ele><time>2026-04-06T08:51:28.999Z</time></trkpt><trkpt lat="39.34085005968569" lon="8.439748278100618"><ele>375.0</ele><time>2026-04-06T08:51:29.999Z</time></trkpt><trkpt lat="39.34108441915512" lon="8.43970117963033"><ele>375.0</ele><time>2026-04-06T08:51:30.999Z</time></trkpt><trkpt lat="39.34132332373769" lon="8.439667127671854"><ele>381.0</ele><time>2026-04-06T08:51:31.999Z</time></trkpt><trkpt lat="39.341558148579786" lon="8.439647474863245"><ele>387.0</ele><time>2026-04-06T08:51:32.999Z</time></trkpt><trkpt lat="39.34175821656514" lon="8.43963143108509"><ele>393.0</ele><time>2026-04-06T08:51:33.999Z</time></trkpt><trkpt lat="39.34193517421922" lon="8.439611357931762"><ele>397.0</ele><time>2026-04-06T08:51:34.999Z</time></trkpt><trkpt lat="39.342095803893734" lon="8.43958389761586"><ele>401.0</ele><time>2026-04-06T08:51:35.999Z</time></trkpt><trkpt lat="39.34223857062897" lon="8.439542868473133"><ele>405.0</ele><time>2026-04-06T08:51:36.999Z</time></trkpt><trkpt lat="39.3423779409926" lon="8.439485321600255"><ele>406.75</ele><time>2026-04-06T08:51:37.999Z</time></trkpt><trkpt lat="39.342514858479646" lon="8.4394227170267"><ele>408.5</ele><time>2026-04-06T08:51:38.999Z</time></trkpt><trkpt lat="39.34262776510788" lon="8.439371218321883"><ele>410.25</ele><time>2026-04-06T08:51:39.999Z</time></trkpt><trkpt lat="39.34272998694199" lon="8.439325838290872"><ele>412.0</ele><time>2026-04-06T08:51:40.999Z</time></trkpt><trkpt lat="39.34282313031435" lon="8.439291637112431"><ele>412.0</ele><time>2026-04-06T08:51:41.999Z</time></trkpt><trkpt lat="39.34290321854215" lon="8.439254507578214"><ele>412.0</ele><time>2026-04-06T08:51:42.999Z</time></trkpt><trkpt lat="39.34300472139914" lon="8.439212615682369"><ele>412.0</ele><time>2026-04-06T08:51:43.999Z</time></trkpt><trkpt lat="39.343105396180356" lon="8.439173014657433"><ele>412.0</ele><time>2026-04-06T08:51:44.999Z</time></trkpt><trkpt lat="39.343191363771204" lon="8.439146843174031"><ele>412.0</ele><time>2026-04-06T08:51:45.999Z</time></trkpt><trkpt lat="39.34327637126699" lon="8.439135684770372"><ele>414.40000000000003</ele><time>2026-04-06T08:51:46.999Z</time></trkpt><trkpt lat="39.3433752593269" lon="8.439132454313947"><ele>416.8</ele><time>2026-04-06T08:51:47.999Z</time></trkpt><trkpt lat="39.343488679685386" lon="8.439133443938875"><ele>419.2</ele><time>2026-04-06T08:51:48.999Z</time></trkpt><trkpt lat="39.34359455009489" lon="8.439138897446766"><ele>421.6</ele><time>2026-04-06T08:51:49.999Z</time></trkpt><trkpt lat="39.34368921482251" lon="8.439137733314732"><ele>424.0</ele><time>2026-04-06T08:51:50.999Z</time></trkpt><trkpt lat="39.34378333038247" lon="8.439131750981101"><ele>425.4</ele><time>2026-04-06T08:51:51.999Z</time></trkpt><trkpt lat="39.34388157254233" lon="8.439121630912688"><ele>426.79999999999995</ele><time>2026-04-06T08:51:52.999Z</time></trkpt><trkpt lat="39.34398076673478" lon="8.43910633575555"><ele>428.20000000000005</ele><time>2026-04-06T08:51:53.999Z</time></trkpt><trkpt lat="39.34407065574634" lon="8.439092941755023"><ele>429.6</ele><time>2026-04-06T08:51:54.999Z</time></trkpt><trkpt lat="39.34416240139494" lon="8.4390752743669"><ele>431.0</ele><time>2026-04-06T08:51:55.999Z</time></trkpt><trkpt lat="39.34425591101034" lon="8.439055910572588"><ele>431.0</ele><time>2026-04-06T08:51:56.999Z</time></trkpt><trkpt lat="39.34433890288908" lon="8.439038930962846"><ele>431.0</ele><time>2026-04-06T08:51:57.999Z</time></trkpt><trkpt lat="39.34443158474608" lon="8.439026093076395"><ele>431.0</ele><time>2026-04-06T08:51:58.999Z</time></trkpt><trkpt lat="39.34452065455863" lon="8.4390212462522"><ele>431.0</ele><time>2026-04-06T08:51:59.999Z</time></trkpt><trkpt lat="39.34461761321531" lon="8.439023053150164"><ele>431.0</ele><time>2026-04-06T08:52:00.999Z</time></trkpt><trkpt lat="39.34472655483031" lon="8.439012126190718"><ele>428.0</ele><time>2026-04-06T08:52:01.999Z</time></trkpt><trkpt lat="39.34487565396634" lon="8.438997750165537"><ele>425.0</ele><time>2026-04-06T08:52:02.999Z</time></trkpt><trkpt lat="39.3450495038548" lon="8.439003818540993"><ele>422.0</ele><time>2026-04-06T08:52:03.999Z</time></trkpt><trkpt lat="39.34523311384925" lon="8.439000500629474"><ele>422.0</ele><time>2026-04-06T08:52:04.999Z</time></trkpt><trkpt lat="39.34541580864539" lon="8.438987031068276"><ele>422.0</ele><time>2026-04-06T08:52:05.999Z</time></trkpt><trkpt lat="39.34561904614267" lon="8.438953889989616"><ele>422.0</ele><time>2026-04-06T08:52:06.999Z</time></trkpt><trkpt lat="39.34583847455066" lon="8.43891378040084"><ele>418.66666666666663</ele><time>2026-04-06T08:52:07.999Z</time></trkpt><trkpt lat="39.346051155847185" lon="8.438878994344353"><ele>415.33333333333337</ele><time>2026-04-06T08:52:08.999Z</time></trkpt><trkpt lat="39.34625433362033" lon="8.438848589049746"><ele>412.0</ele><time>2026-04-06T08:52:09.999Z</time></trkpt><trkpt lat="39.346447331711055" lon="8.43882099735485"><ele>409.33333333333337</ele><time>2026-04-06T08:52:10.999Z</time></trkpt><trkpt lat="39.34662641971595" lon="8.438790411782966"><ele>406.66666666666663</ele><time>2026-04-06T08:52:11.999Z</time></trkpt><trkpt lat="39.34680699502725" lon="8.438727121409798"><ele>404.0</ele><time>2026-04-06T08:52:12.999Z</time></trkpt><trkpt lat="39.34699267170237" lon="8.4386136931887"><ele>404.0</ele><time>2026-04-06T08:52:13.999Z</time></trkpt><trkpt lat="39.347201640448844" lon="8.43846997114533"><ele>404.0</ele><time>2026-04-06T08:52:14.999Z</time></trkpt><trkpt lat="39.34743569561204" lon="8.438343919992063"><ele>393.0</ele><time>2026-04-06T08:52:15.999Z</time></trkpt><trkpt lat="39.34767606116879" lon="8.438242019141056"><ele>382.0</ele><time>2026-04-06T08:52:16.999Z</time></trkpt><trkpt lat="39.34792901743895" lon="8.438141225854995"><ele>382.0</ele><time>2026-04-06T08:52:17.999Z</time></trkpt><trkpt lat="39.34818857647295" lon="8.43803517855144"><ele>382.0</ele><time>2026-04-06T08:52:18.999Z</time></trkpt><trkpt lat="39.34843647167452" lon="8.437931206439877"><ele>382.0</ele><time>2026-04-06T08:52:19.999Z</time></trkpt><trkpt lat="39.34867181560572" lon="8.437829988065598"><ele>382.0</ele><time>2026-04-06T08:52:20.999Z</time></trkpt><trkpt lat="39.34889649066491" lon="8.437731462661581"><ele>373.66666666666663</ele><time>2026-04-06T08:52:21.999Z</time></trkpt><trkpt lat="39.349102557193774" lon="8.437643184169824"><ele>365.3333333333333</ele><time>2026-04-06T08:52:22.999Z</time></trkpt><trkpt lat="39.349286338236645" lon="8.437567328624542"><ele>357.0</ele><time>2026-04-06T08:52:23.999Z</time></trkpt><trkpt lat="39.349450046235944" lon="8.437505866136433"><ele>357.0</ele><time>2026-04-06T08:52:24.999Z</time></trkpt><trkpt lat="39.34960498834899" lon="8.437479336688387"><ele>357.0</ele><time>2026-04-06T08:52:25.999Z</time></trkpt><trkpt lat="39.34976672920457" lon="8.437500731614401"><ele>357.0</ele><time>2026-04-06T08:52:26.999Z</time></trkpt><trkpt lat="39.34993606194236" lon="8.437571663082885"><ele>356.3333333333333</ele><time>2026-04-06T08:52:27.999Z</time></trkpt><trkpt lat="39.350107886531106" lon="8.437682072393871"><ele>355.66666666666663</ele><time>2026-04-06T08:52:28.999Z</time></trkpt><trkpt lat="39.35030111244802" lon="8.437794268374915"><ele>355.0</ele><time>2026-04-06T08:52:29.999Z</time></trkpt><trkpt lat="39.35051328778648" lon="8.437899619625815"><ele>344.0</ele><time>2026-04-06T08:52:30.999Z</time></trkpt><trkpt lat="39.35072732840501" lon="8.438011506803896"><ele>333.0</ele><time>2026-04-06T08:52:31.999Z</time></trkpt><trkpt lat="39.35093455993148" lon="8.438132224015678"><ele>333.0</ele><time>2026-04-06T08:52:32.999Z</time></trkpt><trkpt lat="39.35114738469042" lon="8.438252677126428"><ele>333.0</ele><time>2026-04-06T08:52:33.999Z</time></trkpt><trkpt lat="39.35136182724204" lon="8.438360845395392"><ele>335.0</ele><time>2026-04-06T08:52:34.999Z</time></trkpt><trkpt lat="39.351588238766816" lon="8.438464385940454"><ele>337.0</ele><time>2026-04-06T08:52:35.999Z</time></trkpt><trkpt lat="39.35181443196762" lon="8.43855473787512"><ele>337.0</ele><time>2026-04-06T08:52:36.999Z</time></trkpt><trkpt lat="39.35205564859485" lon="8.438630278183705"><ele>337.0</ele><time>2026-04-06T08:52:37.999Z</time></trkpt><trkpt lat="39.3523025812088" lon="8.438709196576722"><ele>329.5</ele><time>2026-04-06T08:52:38.999Z</time></trkpt><trkpt lat="39.35254458272064" lon="8.438826720454914"><ele>322.0</ele><time>2026-04-06T08:52:39.999Z</time></trkpt><trkpt lat="39.35277597184799" lon="8.43898139798227"><ele>322.0</ele><time>2026-04-06T08:52:40.999Z</time></trkpt><trkpt lat="39.353007160853174" lon="8.439165177384908"><ele>322.0</ele><time>2026-04-06T08:52:41.999Z</time></trkpt><trkpt lat="39.35323243195867" lon="8.4393558564975"><ele>320.0</ele><time>2026-04-06T08:52:42.999Z</time></trkpt><trkpt lat="39.353463057556645" lon="8.439532085560836"><ele>318.0</ele><time>2026-04-06T08:52:43.999Z</time></trkpt><trkpt lat="39.35369748291229" lon="8.439701792085435"><ele>312.5</ele><time>2026-04-06T08:52:44.999Z</time></trkpt><trkpt lat="39.35392227562114" lon="8.439867951337275"><ele>307.0</ele><time>2026-04-06T08:52:45.999Z</time></trkpt><trkpt lat="39.354130110075374" lon="8.440023719611563"><ele>307.0</ele><time>2026-04-06T08:52:46.999Z</time></trkpt><trkpt lat="39.354328521453155" lon="8.440170522080816"><ele>307.0</ele><time>2026-04-06T08:52:47.999Z</time></trkpt><trkpt lat="39.354516630320155" lon="8.440312822227082"><ele>307.0</ele><time>2026-04-06T08:52:48.999Z</time></trkpt><trkpt lat="39.35470013375367" lon="8.440448080914308"><ele>306.3333333333333</ele><time>2026-04-06T08:52:49.999Z</time></trkpt><trkpt lat="39.354894362294225" lon="8.440578474167651"><ele>305.6666666666667</ele><time>2026-04-06T08:52:50.999Z</time></trkpt><trkpt lat="39.35508591551096" lon="8.440686693858463"><ele>305.0</ele><time>2026-04-06T08:52:51.999Z</time></trkpt><trkpt lat="39.35526672461247" lon="8.440773271366375"><ele>305.0</ele><time>2026-04-06T08:52:52.999Z</time></trkpt><trkpt lat="39.35544232097851" lon="8.440845116234334"><ele>305.0</ele><time>2026-04-06T08:52:53.999Z</time></trkpt><trkpt lat="39.355613462518676" lon="8.440890915219146"><ele>305.0</ele><time>2026-04-06T08:52:54.999Z</time></trkpt><trkpt lat="39.35578791418632" lon="8.440890137287633"><ele>303.0</ele><time>2026-04-06T08:52:55.999Z</time></trkpt><trkpt lat="39.355960085642" lon="8.440837269467567"><ele>301.0</ele><time>2026-04-06T08:52:56.999Z</time></trkpt><trkpt lat="39.356130514947736" lon="8.440740310539494"><ele>299.0</ele><time>2026-04-06T08:52:57.999Z</time></trkpt><trkpt lat="39.356300671682305" lon="8.44061388121423"><ele>298.33333333333337</ele><time>2026-04-06T08:52:58.999Z</time></trkpt><trkpt lat="39.35647626409224" lon="8.440481253815891"><ele>297.6666666666667</ele><time>2026-04-06T08:52:59.999Z</time></trkpt><trkpt lat="39.3566676168011" lon="8.440367551321625"><ele>297.0</ele><time>2026-04-06T08:53:00.999Z</time></trkpt><trkpt lat="39.35687556142744" lon="8.440286229554241"><ele>301.3333333333333</ele><time>2026-04-06T08:53:01.999Z</time></trkpt><trkpt lat="39.35708574460268" lon="8.440227272646608"><ele>305.66666666666663</ele><time>2026-04-06T08:53:02.999Z</time></trkpt><trkpt lat="39.357283812117494" lon="8.44019186266859"><ele>310.0</ele><time>2026-04-06T08:53:03.999Z</time></trkpt><trkpt lat="39.35747868711314" lon="8.440181059755643"><ele>311.3333333333333</ele><time>2026-04-06T08:53:04.999Z</time></trkpt><trkpt lat="39.35767346406211" lon="8.44020234339149"><ele>312.6666666666667</ele><time>2026-04-06T08:53:05.999Z</time></trkpt><trkpt lat="39.35786961642702" lon="8.440240933039748"><ele>314.0</ele><time>2026-04-06T08:53:06.999Z</time></trkpt><trkpt lat="39.35806073969375" lon="8.44028605149527"><ele>316.33333333333337</ele><time>2026-04-06T08:53:07.999Z</time></trkpt><trkpt lat="39.35823636180967" lon="8.440331545246572"><ele>318.6666666666667</ele><time>2026-04-06T08:53:08.999Z</time></trkpt><trkpt lat="39.35840025333265" lon="8.440403487191794"><ele>321.0</ele><time>2026-04-06T08:53:09.999Z</time></trkpt><trkpt lat="39.3585418103564" lon="8.44051817420319"><ele>312.6666666666667</ele><time>2026-04-06T08:53:10.999Z</time></trkpt><trkpt lat="39.35867204811475" lon="8.440625830549488"><ele>304.33333333333337</ele><time>2026-04-06T08:53:11.999Z</time></trkpt><trkpt lat="39.358819714311736" lon="8.44066875851085"><ele>296.0</ele><time>2026-04-06T08:53:12.999Z</time></trkpt><trkpt lat="39.358989933035346" lon="8.440657321373303"><ele>295.33333333333337</ele><time>2026-04-06T08:53:13.999Z</time></trkpt><trkpt lat="39.35917965141931" lon="8.44064504039373"><ele>294.6666666666667</ele><time>2026-04-06T08:53:14.999Z</time></trkpt><trkpt lat="39.359375235341204" lon="8.440649590520474"><ele>294.0</ele><time>2026-04-06T08:53:15.999Z</time></trkpt><trkpt lat="39.35957674646284" lon="8.440658056261832"><ele>292.6666666666667</ele><time>2026-04-06T08:53:16.999Z</time></trkpt><trkpt lat="39.35978647844345" lon="8.44066045227313"><ele>291.33333333333337</ele><time>2026-04-06T08:53:17.999Z</time></trkpt><trkpt lat="39.35999935146096" lon="8.440647681135276"><ele>290.0</ele><time>2026-04-06T08:53:18.999Z</time></trkpt><trkpt lat="39.36021737710781" lon="8.440624367649955"><ele>290.0</ele><time>2026-04-06T08:53:19.999Z</time></trkpt><trkpt lat="39.36041377366978" lon="8.440566183014322"><ele>290.0</ele><time>2026-04-06T08:53:20.999Z</time></trkpt><trkpt lat="39.36061569543064" lon="8.440507057798067"><ele>290.0</ele><time>2026-04-06T08:53:21.999Z</time></trkpt><trkpt lat="39.360810964732416" lon="8.440430987915882"><ele>288.33333333333337</ele><time>2026-04-06T08:53:23Z</time></trkpt><trkpt lat="39.36100670959463" lon="8.44034270644349"><ele>286.6666666666667</ele><time>2026-04-06T08:53:24Z</time></trkpt><trkpt lat="39.36120042423527" lon="8.440243228654714"><ele>285.0</ele><time>2026-04-06T08:53:25Z</time></trkpt><trkpt lat="39.36138629999541" lon="8.440142514809692"><ele>285.0</ele><time>2026-04-06T08:53:26Z</time></trkpt><trkpt lat="39.36156068836286" lon="8.440040815096099"><ele>285.0</ele><time>2026-04-06T08:53:27Z</time></trkpt><trkpt lat="39.36172507132829" lon="8.439922719305077"><ele>285.0</ele><time>2026-04-06T08:53:28Z</time></trkpt><trkpt lat="39.36188382834452" lon="8.439776728042052"><ele>282.6666666666667</ele><time>2026-04-06T08:53:29Z</time></trkpt><trkpt lat="39.36203606937512" lon="8.439601961191409"><ele>280.33333333333337</ele><time>2026-04-06T08:53:30Z</time></trkpt><trkpt lat="39.36217835429018" lon="8.43940718331544"><ele>278.0</ele><time>2026-04-06T08:53:31Z</time></trkpt><trkpt lat="39.36231346164445" lon="8.439198032874627"><ele>278.0</ele><time>2026-04-06T08:53:32Z</time></trkpt><trkpt lat="39.36243406487223" lon="8.439008279535473"><ele>278.0</ele><time>2026-04-06T08:53:33Z</time></trkpt><trkpt lat="39.362544676817215" lon="8.438860915925066"><ele>278.0</ele><time>2026-04-06T08:53:34Z</time></trkpt><trkpt lat="39.36266369119658" lon="8.438758053491771"><ele>279.0</ele><time>2026-04-06T08:53:35Z</time></trkpt><trkpt lat="39.36278239861319" lon="8.43870714429735"><ele>280.0</ele><time>2026-04-06T08:53:36Z</time></trkpt><trkpt lat="39.36293808157686" lon="8.438716275958846"><ele>281.0</ele><time>2026-04-06T08:53:37Z</time></trkpt><trkpt lat="39.36309489843405" lon="8.438751818501387"><ele>282.0</ele><time>2026-04-06T08:53:38Z</time></trkpt><trkpt lat="39.3632337828618" lon="8.43877407236947"><ele>278.5</ele><time>2026-04-06T08:53:39Z</time></trkpt><trkpt lat="39.3633602585374" lon="8.438747595050192"><ele>275.0</ele><time>2026-04-06T08:53:40Z</time></trkpt><trkpt lat="39.3634750086557" lon="8.438675438052785"><ele>271.5</ele><time>2026-04-06T08:53:41Z</time></trkpt><trkpt lat="39.36356090846391" lon="8.43854434008272"><ele>268.0</ele><time>2026-04-06T08:53:42Z</time></trkpt><trkpt lat="39.363650590893585" lon="8.438410075502224"><ele>268.0</ele><time>2026-04-06T08:53:43Z</time></trkpt><trkpt lat="39.36368962554636" lon="8.438244154590418"><ele>268.0</ele><time>2026-04-06T08:53:44Z</time></trkpt><trkpt lat="39.36368803167086" lon="8.438068421730025"><ele>268.0</ele><time>2026-04-06T08:53:45Z</time></trkpt><trkpt lat="39.36366036082092" lon="8.437889962497366"><ele>268.0</ele><time>2026-04-06T08:53:46Z</time></trkpt><trkpt lat="39.363607808720744" lon="8.437703952508661"><ele>269.0</ele><time>2026-04-06T08:53:47Z</time></trkpt><trkpt lat="39.36354969128489" lon="8.437507433576105"><ele>270.0</ele><time>2026-04-06T08:53:48Z</time></trkpt><trkpt lat="39.36350878397818" lon="8.437316664273007"><ele>271.0</ele><time>2026-04-06T08:53:49Z</time></trkpt><trkpt lat="39.363501557873676" lon="8.437128805264026"><ele>271.0</ele><time>2026-04-06T08:53:50Z</time></trkpt><trkpt lat="39.36353776759621" lon="8.436930300102865"><ele>271.0</ele><time>2026-04-06T08:53:51Z</time></trkpt><trkpt lat="39.36358244608221" lon="8.436708948944752"><ele>271.0</ele><time>2026-04-06T08:53:52Z</time></trkpt><trkpt lat="39.36360349355949" lon="8.436469175577608"><ele>269.0</ele><time>2026-04-06T08:53:53Z</time></trkpt><trkpt lat="39.363591903638856" lon="8.436231283244473"><ele>267.0</ele><time>2026-04-06T08:53:54Z</time></trkpt><trkpt lat="39.36355801176584" lon="8.43599777924129"><ele>265.0</ele><time>2026-04-06T08:53:55Z</time></trkpt><trkpt lat="39.363516209280505" lon="8.43575850847993"><ele>265.0</ele><time>2026-04-06T08:53:56Z</time></trkpt><trkpt lat="39.363476579023185" lon="8.435517228263121"><ele>265.0</ele><time>2026-04-06T08:53:57Z</time></trkpt><trkpt lat="39.36344613097092" lon="8.435288421329277"><ele>265.0</ele><time>2026-04-06T08:53:58Z</time></trkpt><trkpt lat="39.363436340914156" lon="8.435057315240481"><ele>263.0</ele><time>2026-04-06T08:53:59Z</time></trkpt><trkpt lat="39.363452451547154" lon="8.434819686355063"><ele>261.0</ele><time>2026-04-06T08:54:00Z</time></trkpt><trkpt lat="39.363490236565255" lon="8.434565789845243"><ele>259.0</ele><time>2026-04-06T08:54:01Z</time></trkpt><trkpt lat="39.363536955191165" lon="8.434298680112992"><ele>257.3333333333333</ele><time>2026-04-06T08:54:02Z</time></trkpt><trkpt lat="39.363566544369974" lon="8.434043290164704"><ele>255.66666666666669</ele><time>2026-04-06T08:54:03Z</time></trkpt><trkpt lat="39.36357360116198" lon="8.433784300102833"><ele>254.0</ele><time>2026-04-06T08:54:04Z</time></trkpt><trkpt lat="39.36357137834178" lon="8.433516705448064"><ele>253.0</ele><time>2026-04-06T08:54:05Z</time></trkpt><trkpt lat="39.36356843975216" lon="8.433266542135904"><ele>252.0</ele><time>2026-04-06T08:54:06Z</time></trkpt><trkpt lat="39.36356469521861" lon="8.4330252538713"><ele>251.0</ele><time>2026-04-06T08:54:07Z</time></trkpt><trkpt lat="39.363561544157164" lon="8.432782477203382"><ele>249.0</ele><time>2026-04-06T08:54:08Z</time></trkpt><trkpt lat="39.36355972153353" lon="8.432545644248728"><ele>247.0</ele><time>2026-04-06T08:54:09Z</time></trkpt><trkpt lat="39.36357105918874" lon="8.432323843406884"><ele>245.0</ele><time>2026-04-06T08:54:10Z</time></trkpt><trkpt lat="39.36361278719605" lon="8.432112177987207"><ele>243.0</ele><time>2026-04-06T08:54:11Z</time></trkpt><trkpt lat="39.36369005431863" lon="8.431895391750313"><ele>241.0</ele><time>2026-04-06T08:54:12Z</time></trkpt><trkpt lat="39.36377973178374" lon="8.431674647728588"><ele>239.0</ele><time>2026-04-06T08:54:13Z</time></trkpt><trkpt lat="39.363855857493526" lon="8.431443662591898"><ele>242.33333333333334</ele><time>2026-04-06T08:54:14Z</time></trkpt><trkpt lat="39.36390015363596" lon="8.431203490916475"><ele>245.66666666666669</ele><time>2026-04-06T08:54:15Z</time></trkpt><trkpt lat="39.36390943506738" lon="8.430949737004365"><ele>249.0</ele><time>2026-04-06T08:54:16Z</time></trkpt><trkpt lat="39.3638888330574" lon="8.430698153198147"><ele>248.66666666666669</ele><time>2026-04-06T08:54:17Z</time></trkpt><trkpt lat="39.363850306725126" lon="8.43046803788444"><ele>248.33333333333334</ele><time>2026-04-06T08:54:18Z</time></trkpt><trkpt lat="39.36382333379689" lon="8.43026090304413"><ele>248.0</ele><time>2026-04-06T08:54:19Z</time></trkpt><trkpt lat="39.36382708676514" lon="8.430070855499457"><ele>246.33333333333334</ele><time>2026-04-06T08:54:20Z</time></trkpt><trkpt lat="39.3638727816202" lon="8.429899436928581"><ele>244.66666666666669</ele><time>2026-04-06T08:54:21Z</time></trkpt><trkpt lat="39.363963468312434" lon="8.429744655224951"><ele>243.0</ele><time>2026-04-06T08:54:22Z</time></trkpt><trkpt lat="39.3640844273454" lon="8.429595768912964"><ele>241.25</ele><time>2026-04-06T08:54:23Z</time></trkpt><trkpt lat="39.364199154381204" lon="8.429444628489136"><ele>239.5</ele><time>2026-04-06T08:54:24Z</time></trkpt><trkpt lat="39.364274099475175" lon="8.429300656822312"><ele>237.75</ele><time>2026-04-06T08:54:25Z</time></trkpt><trkpt lat="39.36431032957492" lon="8.429137111072"><ele>236.0</ele><time>2026-04-06T08:54:26Z</time></trkpt><trkpt lat="39.36430302803213" lon="8.428952856862319"><ele>234.5</ele><time>2026-04-06T08:54:27Z</time></trkpt><trkpt lat="39.364252732755865" lon="8.428764071470791"><ele>233.0</ele><time>2026-04-06T08:54:28Z</time></trkpt><trkpt lat="39.36417443514152" lon="8.428596823625748"><ele>231.5</ele><time>2026-04-06T08:54:29Z</time></trkpt><trkpt lat="39.364108787310784" lon="8.428455819395213"><ele>230.0</ele><time>2026-04-06T08:54:30Z</time></trkpt><trkpt lat="39.36409455781911" lon="8.42830726594567"><ele>230.0</ele><time>2026-04-06T08:54:31Z</time></trkpt><trkpt lat="39.36413422815341" lon="8.428149480014905"><ele>230.0</ele><time>2026-04-06T08:54:32Z</time></trkpt><trkpt lat="39.364221208562945" lon="8.427996280660473"><ele>230.0</ele><time>2026-04-06T08:54:33Z</time></trkpt><trkpt lat="39.3643275567891" lon="8.427858687928115"><ele>230.0</ele><time>2026-04-06T08:54:34Z</time></trkpt><trkpt lat="39.364407484040576" lon="8.427714940237763"><ele>229.75</ele><time>2026-04-06T08:54:35Z</time></trkpt><trkpt lat="39.36443884591772" lon="8.427554535994467"><ele>229.5</ele><time>2026-04-06T08:54:36Z</time></trkpt><trkpt lat="39.36441629469107" lon="8.427390493567975"><ele>229.25</ele><time>2026-04-06T08:54:37Z</time></trkpt><trkpt lat="39.36434959186928" lon="8.427232495235467"><ele>229.0</ele><time>2026-04-06T08:54:38Z</time></trkpt><trkpt lat="39.36428533270201" lon="8.427071164042186"><ele>229.0</ele><time>2026-04-06T08:54:39Z</time></trkpt><trkpt lat="39.36429436799786" lon="8.426890927690637"><ele>229.0</ele><time>2026-04-06T08:54:40Z</time></trkpt><trkpt lat="39.36434561791635" lon="8.426709479175635"><ele>229.0</ele><time>2026-04-06T08:54:41Z</time></trkpt><trkpt lat="39.36443228968507" lon="8.426552707067778"><ele>229.0</ele><time>2026-04-06T08:54:42Z</time></trkpt><trkpt lat="39.364537335185474" lon="8.42640739592152"><ele>228.0</ele><time>2026-04-06T08:54:43Z</time></trkpt><trkpt lat="39.36465094984586" lon="8.426253196237186"><ele>227.0</ele><time>2026-04-06T08:54:44Z</time></trkpt><trkpt lat="39.36476532007894" lon="8.426098798432177"><ele>226.0</ele><time>2026-04-06T08:54:45Z</time></trkpt><trkpt lat="39.364865860764766" lon="8.425943558222631"><ele>226.0</ele><time>2026-04-06T08:54:46Z</time></trkpt><trkpt lat="39.36493046361142" lon="8.42577805092383"><ele>226.0</ele><time>2026-04-06T08:54:47Z</time></trkpt><trkpt lat="39.364965977326634" lon="8.425590946090365"><ele>226.0</ele><time>2026-04-06T08:54:48Z</time></trkpt><trkpt lat="39.36497832270795" lon="8.425394349156164"><ele>226.0</ele><time>2026-04-06T08:54:49Z</time></trkpt><trkpt lat="39.36497746088081" lon="8.425194519996639"><ele>225.5</ele><time>2026-04-06T08:54:50Z</time></trkpt><trkpt lat="39.36497238522668" lon="8.425013469083321"><ele>225.0</ele><time>2026-04-06T08:54:51Z</time></trkpt><trkpt lat="39.364973631715245" lon="8.424844193906221"><ele>224.5</ele><time>2026-04-06T08:54:52Z</time></trkpt><trkpt lat="39.36497220591627" lon="8.424690561347408"><ele>224.0</ele><time>2026-04-06T08:54:53Z</time></trkpt><trkpt lat="39.36495385662594" lon="8.42454169722554"><ele>224.0</ele><time>2026-04-06T08:54:54.001Z</time></trkpt><trkpt lat="39.36491087584638" lon="8.424415267445324"><ele>223.99999999999997</ele><time>2026-04-06T08:54:55.001Z</time></trkpt><trkpt lat="39.36485630163818" lon="8.424302937292635"><ele>223.99999999999997</ele><time>2026-04-06T08:54:56.001Z</time></trkpt><trkpt lat="39.36479152041577" lon="8.424198884413705"><ele>224.0</ele><time>2026-04-06T08:54:57.001Z</time></trkpt><trkpt lat="39.364722498225206" lon="8.42410943498689"><ele>224.0</ele><time>2026-04-06T08:54:58.001Z</time></trkpt><trkpt lat="39.364661836867306" lon="8.424031942053308"><ele>224.83333333333334</ele><time>2026-04-06T08:54:59.001Z</time></trkpt><trkpt lat="39.36462769411122" lon="8.423953329398621"><ele>225.66666666666669</ele><time>2026-04-06T08:55:00.001Z</time></trkpt><trkpt lat="39.36461496790492" lon="8.423864873302465"><ele>226.5</ele><time>2026-04-06T08:55:01.001Z</time></trkpt><trkpt lat="39.364624033040045" lon="8.423751375536899"><ele>227.33333333333331</ele><time>2026-04-06T08:55:02.001Z</time></trkpt><trkpt lat="39.36465019301604" lon="8.423622239047843"><ele>228.16666666666666</ele><time>2026-04-06T08:55:03.001Z</time></trkpt><trkpt lat="39.36465694985706" lon="8.423492012211396"><ele>229.0</ele><time>2026-04-06T08:55:04.001Z</time></trkpt><trkpt lat="39.36464206811701" lon="8.423368768574251"><ele>226.0</ele><time>2026-04-06T08:55:05.001Z</time></trkpt><trkpt lat="39.36461923144994" lon="8.423252170837713"><ele>222.99999999999997</ele><time>2026-04-06T08:55:06.001Z</time></trkpt><trkpt lat="39.364592338109006" lon="8.423141838525217"><ele>219.99999999999997</ele><time>2026-04-06T08:55:07.001Z</time></trkpt><trkpt lat="39.36456300731244" lon="8.423030816343468"><ele>217.0</ele><time>2026-04-06T08:55:08.001Z</time></trkpt><trkpt lat="39.36453723587581" lon="8.42291216762458"><ele>214.0</ele><time>2026-04-06T08:55:09.001Z</time></trkpt><trkpt lat="39.364521953819256" lon="8.422776557730543"><ele>211.79999999999998</ele><time>2026-04-06T08:55:10.001Z</time></trkpt><trkpt lat="39.3645201947458" lon="8.422623683939637"><ele>209.59999999999997</ele><time>2026-04-06T08:55:11.001Z</time></trkpt><trkpt lat="39.364526077222955" lon="8.422479685332872"><ele>207.4</ele><time>2026-04-06T08:55:12.001Z</time></trkpt><trkpt lat="39.36453160830349" lon="8.422338739926536"><ele>205.2</ele><time>2026-04-06T08:55:13.001Z</time></trkpt><trkpt lat="39.36452839734984" lon="8.422197454641735"><ele>203.0</ele><time>2026-04-06T08:55:14.001Z</time></trkpt><trkpt lat="39.3645128024265" lon="8.422047672503865"><ele>200.75</ele><time>2026-04-06T08:55:15.001Z</time></trkpt><trkpt lat="39.364488040286105" lon="8.421890675064288"><ele>198.5</ele><time>2026-04-06T08:55:16.001Z</time></trkpt><trkpt lat="39.364454302853474" lon="8.421737632820335"><ele>196.25</ele><time>2026-04-06T08:55:17.001Z</time></trkpt><trkpt lat="39.36439188611404" lon="8.421559065670962"><ele>194.0</ele><time>2026-04-06T08:55:18.001Z</time></trkpt><trkpt lat="39.36430602228103" lon="8.421333176732846"><ele>193.0</ele><time>2026-04-06T08:55:19.001Z</time></trkpt><trkpt lat="39.36420397964874" lon="8.421100330239737"><ele>192.0</ele><time>2026-04-06T08:55:20.001Z</time></trkpt><trkpt lat="39.364106733853994" lon="8.420906071974898"><ele>191.0</ele><time>2026-04-06T08:55:21.001Z</time></trkpt><trkpt lat="39.36402599394247" lon="8.42074167240959"><ele>191.0</ele><time>2026-04-06T08:55:22.001Z</time></trkpt><trkpt lat="39.36395911001432" lon="8.420595426516734"><ele>191.0</ele><time>2026-04-06T08:55:23.001Z</time></trkpt><trkpt lat="39.36391662904099" lon="8.420473458505906"><ele>191.0</ele><time>2026-04-06T08:55:24.001Z</time></trkpt><trkpt lat="39.36389778707979" lon="8.420363308660793"><ele>191.0</ele><time>2026-04-06T08:55:25.001Z</time></trkpt><trkpt lat="39.36389740493929" lon="8.42025591471457"><ele>191.0</ele><time>2026-04-06T08:55:26.001Z</time></trkpt><trkpt lat="39.36391289824595" lon="8.420144343733575"><ele>188.8</ele><time>2026-04-06T08:55:27.001Z</time></trkpt><trkpt lat="39.36395135033632" lon="8.420021195698572"><ele>186.60000000000002</ele><time>2026-04-06T08:55:28.001Z</time></trkpt><trkpt lat="39.36399125816232" lon="8.419914420096575"><ele>184.4</ele><time>2026-04-06T08:55:29.001Z</time></trkpt><trkpt lat="39.36402542866388" lon="8.419814616107725"><ele>182.2</ele><time>2026-04-06T08:55:30.001Z</time></trkpt><trkpt lat="39.36405913237214" lon="8.419712527082165"><ele>180.0</ele><time>2026-04-06T08:55:31.001Z</time></trkpt><trkpt lat="39.36408450198575" lon="8.419600143909948"><ele>179.6</ele><time>2026-04-06T08:55:32.001Z</time></trkpt><trkpt lat="39.36409724016073" lon="8.419479005038921"><ele>179.2</ele><time>2026-04-06T08:55:33.001Z</time></trkpt><trkpt lat="39.364087289829186" lon="8.419349558906648"><ele>178.8</ele><time>2026-04-06T08:55:34.001Z</time></trkpt><trkpt lat="39.36405795108653" lon="8.41923497445061"><ele>178.4</ele><time>2026-04-06T08:55:35.001Z</time></trkpt><trkpt lat="39.36401231434732" lon="8.419130072601677"><ele>178.0</ele><time>2026-04-06T08:55:36.001Z</time></trkpt><trkpt lat="39.363940970621684" lon="8.419033622243635"><ele>176.25</ele><time>2026-04-06T08:55:37.001Z</time></trkpt><trkpt lat="39.36384764156599" lon="8.418944158029255"><ele>174.5</ele><time>2026-04-06T08:55:38.001Z</time></trkpt><trkpt lat="39.36374803663244" lon="8.418869118114502"><ele>172.75</ele><time>2026-04-06T08:55:39.001Z</time></trkpt><trkpt lat="39.36365642710162" lon="8.418792388531804"><ele>171.0</ele><time>2026-04-06T08:55:40.001Z</time></trkpt><trkpt lat="39.36356381963256" lon="8.418697931158722"><ele>170.0</ele><time>2026-04-06T08:55:41.001Z</time></trkpt><trkpt lat="39.3634698310501" lon="8.418601720756898"><ele>169.0</ele><time>2026-04-06T08:55:42.001Z</time></trkpt><trkpt lat="39.36338258975822" lon="8.418485988410211"><ele>168.0</ele><time>2026-04-06T08:55:43.001Z</time></trkpt><trkpt lat="39.363303660995506" lon="8.418362356866856"><ele>167.0</ele><time>2026-04-06T08:55:44.001Z</time></trkpt><trkpt lat="39.36323437902929" lon="8.41824364099792"><ele>167.0</ele><time>2026-04-06T08:55:45.001Z</time></trkpt><trkpt lat="39.36317384675364" lon="8.41812862326227"><ele>167.0</ele><time>2026-04-06T08:55:46.001Z</time></trkpt><trkpt lat="39.36311214767836" lon="8.418022905088435"><ele>167.0</ele><time>2026-04-06T08:55:47.001Z</time></trkpt><trkpt lat="39.36303827862362" lon="8.417936211865928"><ele>167.0</ele><time>2026-04-06T08:55:48.001Z</time></trkpt><trkpt lat="39.36295018825161" lon="8.417880197091367"><ele>167.0</ele><time>2026-04-06T08:55:49.001Z</time></trkpt><trkpt lat="39.3628509712187" lon="8.417845378841948"><ele>166.75</ele><time>2026-04-06T08:55:50.001Z</time></trkpt><trkpt lat="39.3627440947465" lon="8.41781069138637"><ele>166.5</ele><time>2026-04-06T08:55:51.001Z</time></trkpt><trkpt lat="39.362642803748535" lon="8.417759581517274"><ele>166.25</ele><time>2026-04-06T08:55:52.001Z</time></trkpt><trkpt lat="39.362543413124115" lon="8.41768778741541"><ele>166.0</ele><time>2026-04-06T08:55:53.001Z</time></trkpt><trkpt lat="39.36244291183061" lon="8.4175976327126"><ele>166.0</ele><time>2026-04-06T08:55:54.001Z</time></trkpt><trkpt lat="39.36233769239987" lon="8.417495520086776"><ele>166.0</ele><time>2026-04-06T08:55:55.001Z</time></trkpt><trkpt lat="39.36222248429527" lon="8.417385968491661"><ele>166.0</ele><time>2026-04-06T08:55:56.001Z</time></trkpt><trkpt lat="39.362098819061835" lon="8.417273466181477"><ele>166.0</ele><time>2026-04-06T08:55:57.001Z</time></trkpt><trkpt lat="39.361973486452" lon="8.417161670891685"><ele>163.0</ele><time>2026-04-06T08:55:58.001Z</time></trkpt><trkpt lat="39.36183444942064" lon="8.417019921692189"><ele>160.0</ele><time>2026-04-06T08:56:00.001Z</time></trkpt><trkpt lat="39.36173053181463" lon="8.416922021610715"><ele>157.0</ele><time>2026-04-06T08:56:01.001Z</time></trkpt><trkpt lat="39.361618250483204" lon="8.416798185520014"><ele>157.0</ele><time>2026-04-06T08:56:02.001Z</time></trkpt><trkpt lat="39.361512314158745" lon="8.416651051077572"><ele>157.0</ele><time>2026-04-06T08:56:03.001Z</time></trkpt><trkpt lat="39.36141515806212" lon="8.416501448101366"><ele>157.0</ele><time>2026-04-06T08:56:04.001Z</time></trkpt><trkpt lat="39.36130727780447" lon="8.416333238238371"><ele>153.0</ele><time>2026-04-06T08:56:05.001Z</time></trkpt><trkpt lat="39.36117838797365" lon="8.416111865029253"><ele>149.0</ele><time>2026-04-06T08:56:06.001Z</time></trkpt><trkpt lat="39.3610390722609" lon="8.415859213191888"><ele>149.0</ele><time>2026-04-06T08:56:07.001Z</time></trkpt><trkpt lat="39.360897023907654" lon="8.415617927880119"><ele>149.0</ele><time>2026-04-06T08:56:08.001Z</time></trkpt><trkpt lat="39.36073241161381" lon="8.415369097319234"><ele>148.0</ele><time>2026-04-06T08:56:09.001Z</time></trkpt><trkpt lat="39.360575898218926" lon="8.415137754370734"><ele>147.0</ele><time>2026-04-06T08:56:10.001Z</time></trkpt><trkpt lat="39.36043995139251" lon="8.414920216506154"><ele>147.0</ele><time>2026-04-06T08:56:11.001Z</time></trkpt><trkpt lat="39.36033274704106" lon="8.414711236682368"><ele>147.0</ele><time>2026-04-06T08:56:12.001Z</time></trkpt><trkpt lat="39.36024873007467" lon="8.414472761843882"><ele>147.0</ele><time>2026-04-06T08:56:13.001Z</time></trkpt><trkpt lat="39.36017589687069" lon="8.414188889943691"><ele>144.0</ele><time>2026-04-06T08:56:14.001Z</time></trkpt><trkpt lat="39.36010895541923" lon="8.413910384018992"><ele>141.0</ele><time>2026-04-06T08:56:15.001Z</time></trkpt><trkpt lat="39.36002701244906" lon="8.413629311297033"><ele>140.66666666666666</ele><time>2026-04-06T08:56:16.001Z</time></trkpt><trkpt lat="39.359933427105794" lon="8.413348847212378"><ele>140.33333333333331</ele><time>2026-04-06T08:56:17.001Z</time></trkpt><trkpt lat="39.3598459284227" lon="8.413097226171708"><ele>140.0</ele><time>2026-04-06T08:56:18.001Z</time></trkpt><trkpt lat="39.35977508275534" lon="8.412851728793697"><ele>140.0</ele><time>2026-04-06T08:56:19.001Z</time></trkpt><trkpt lat="39.35973821193449" lon="8.412596715079035"><ele>140.0</ele><time>2026-04-06T08:56:20.001Z</time></trkpt><trkpt lat="39.35972288435663" lon="8.412303696392053"><ele>140.0</ele><time>2026-04-06T08:56:21.001Z</time></trkpt><trkpt lat="39.35971900454976" lon="8.411993707623003"><ele>140.0</ele><time>2026-04-06T08:56:22.001Z</time></trkpt><trkpt lat="39.35971907335657" lon="8.411664481048597"><ele>140.0</ele><time>2026-04-06T08:56:23.001Z</time></trkpt><trkpt lat="39.359720560308624" lon="8.411345394964362"><ele>139.5</ele><time>2026-04-06T08:56:24.001Z</time></trkpt><trkpt lat="39.35970229129788" lon="8.411037113360024"><ele>139.0</ele><time>2026-04-06T08:56:25.001Z</time></trkpt><trkpt lat="39.35965407306785" lon="8.410727968279748"><ele>131.5</ele><time>2026-04-06T08:56:26.001Z</time></trkpt><trkpt lat="39.359589117547124" lon="8.410426926029666"><ele>124.0</ele><time>2026-04-06T08:56:27.001Z</time></trkpt><trkpt lat="39.35952712680174" lon="8.410153778450459"><ele>124.0</ele><time>2026-04-06T08:56:28.001Z</time></trkpt><trkpt lat="39.35947267311774" lon="8.409908165842296"><ele>124.0</ele><time>2026-04-06T08:56:29.001Z</time></trkpt><trkpt lat="39.35942617716496" lon="8.409689964321855"><ele>124.0</ele><time>2026-04-06T08:56:30.001Z</time></trkpt><trkpt lat="39.35940982994255" lon="8.409479065780658"><ele>121.66666666666667</ele><time>2026-04-06T08:56:31.001Z</time></trkpt><trkpt lat="39.35944323917768" lon="8.409274223995785"><ele>119.33333333333334</ele><time>2026-04-06T08:56:32.001Z</time></trkpt><trkpt lat="39.35951315071901" lon="8.409060199942893"><ele>117.0</ele><time>2026-04-06T08:56:33.001Z</time></trkpt><trkpt lat="39.359609130211716" lon="8.408830510480312"><ele>117.0</ele><time>2026-04-06T08:56:34.001Z</time></trkpt><trkpt lat="39.35971226886595" lon="8.408586692367491"><ele>117.0</ele><time>2026-04-06T08:56:35.001Z</time></trkpt><trkpt lat="39.35981207850127" lon="8.408357471570694"><ele>117.0</ele><time>2026-04-06T08:56:36.001Z</time></trkpt><trkpt lat="39.35988892175141" lon="8.408138150287597"><ele>114.0</ele><time>2026-04-06T08:56:37.001Z</time></trkpt><trkpt lat="39.359924085293585" lon="8.407905908964121"><ele>111.0</ele><time>2026-04-06T08:56:38.001Z</time></trkpt><trkpt lat="39.359923025306614" lon="8.40765977725059"><ele>108.0</ele><time>2026-04-06T08:56:39.001Z</time></trkpt><trkpt lat="39.35990878246461" lon="8.407424793031797"><ele>108.0</ele><time>2026-04-06T08:56:40.001Z</time></trkpt><trkpt lat="39.35990935433574" lon="8.407230845483387"><ele>108.0</ele><time>2026-04-06T08:56:41.001Z</time></trkpt><trkpt lat="39.359963136202644" lon="8.40704587911464"><ele>108.0</ele><time>2026-04-06T08:56:42.001Z</time></trkpt><trkpt lat="39.3600603566939" lon="8.406869391132489"><ele>108.0</ele><time>2026-04-06T08:56:43.001Z</time></trkpt><trkpt lat="39.3601857428441" lon="8.406695400985313"><ele>108.0</ele><time>2026-04-06T08:56:44.001Z</time></trkpt><trkpt lat="39.36030920994808" lon="8.406495768894382"><ele>108.0</ele><time>2026-04-06T08:56:45.001Z</time></trkpt><trkpt lat="39.36041545983681" lon="8.406271889023175"><ele>108.0</ele><time>2026-04-06T08:56:46.001Z</time></trkpt><trkpt lat="39.360517189105686" lon="8.406033180360499"><ele>108.0</ele><time>2026-04-06T08:56:47.001Z</time></trkpt><trkpt lat="39.360610188322546" lon="8.405790124478557"><ele>108.0</ele><time>2026-04-06T08:56:48.001Z</time></trkpt><trkpt lat="39.36069325875714" lon="8.405557538171804"><ele>102.66666666666667</ele><time>2026-04-06T08:56:49.001Z</time></trkpt><trkpt lat="39.36075600272235" lon="8.405337144326047"><ele>97.33333333333334</ele><time>2026-04-06T08:56:50.001Z</time></trkpt><trkpt lat="39.360803934731535" lon="8.405134072778175"><ele>92.0</ele><time>2026-04-06T08:56:51.001Z</time></trkpt><trkpt lat="39.36086571654728" lon="8.404961533276932"><ele>92.0</ele><time>2026-04-06T08:56:52.001Z</time></trkpt><trkpt lat="39.36096653901155" lon="8.40482313887891"><ele>92.0</ele><time>2026-04-06T08:56:53.001Z</time></trkpt><trkpt lat="39.36111605937082" lon="8.404723484644492"><ele>92.0</ele><time>2026-04-06T08:56:54.001Z</time></trkpt><trkpt lat="39.36129719103523" lon="8.404640045904374"><ele>92.0</ele><time>2026-04-06T08:56:55.001Z</time></trkpt><trkpt lat="39.361475229224716" lon="8.40451493962125"><ele>92.0</ele><time>2026-04-06T08:56:56.001Z</time></trkpt><trkpt lat="39.36165525759013" lon="8.404362266830244"><ele>92.0</ele><time>2026-04-06T08:56:57.001Z</time></trkpt><trkpt lat="39.36184647948509" lon="8.404205096597321"><ele>92.0</ele><time>2026-04-06T08:56:58.001Z</time></trkpt><trkpt lat="39.36204486936054" lon="8.404046824566915"><ele>92.0</ele><time>2026-04-06T08:56:59.001Z</time></trkpt><trkpt lat="39.36224703961625" lon="8.403871532537291"><ele>88.5</ele><time>2026-04-06T08:57:00.001Z</time></trkpt><trkpt lat="39.362447568728804" lon="8.40369614670681"><ele>85.0</ele><time>2026-04-06T08:57:01.001Z</time></trkpt><trkpt lat="39.36262923251368" lon="8.403538102898425"><ele>85.0</ele><time>2026-04-06T08:57:02.001Z</time></trkpt><trkpt lat="39.362781433285825" lon="8.403393977934332"><ele>85.0</ele><time>2026-04-06T08:57:03.001Z</time></trkpt><trkpt lat="39.36291265715305" lon="8.403275165075172"><ele>85.0</ele><time>2026-04-06T08:57:04.001Z</time></trkpt><trkpt lat="39.36300207769689" lon="8.403146706437873"><ele>83.66666666666666</ele><time>2026-04-06T08:57:05.001Z</time></trkpt><trkpt lat="39.363065394774374" lon="8.402974299537128"><ele>82.33333333333333</ele><time>2026-04-06T08:57:06.001Z</time></trkpt><trkpt lat="39.36309876342672" lon="8.402773701098148"><ele>81.0</ele><time>2026-04-06T08:57:07.001Z</time></trkpt><trkpt lat="39.363133872006784" lon="8.402590571564675"><ele>81.0</ele><time>2026-04-06T08:57:08.001Z</time></trkpt><trkpt lat="39.363212300528765" lon="8.402462849505042"><ele>81.0</ele><time>2026-04-06T08:57:09.001Z</time></trkpt><trkpt lat="39.36333928083945" lon="8.402376636955177"><ele>81.0</ele><time>2026-04-06T08:57:10.001Z</time></trkpt><trkpt lat="39.363490185919844" lon="8.40233325727816"><ele>81.0</ele><time>2026-04-06T08:57:11.001Z</time></trkpt><trkpt lat="39.363635645642255" lon="8.402276577156005"><ele>81.0</ele><time>2026-04-06T08:57:12.001Z</time></trkpt><trkpt lat="39.363743413246794" lon="8.402167264966856"><ele>81.0</ele><time>2026-04-06T08:57:13.001Z</time></trkpt><trkpt lat="39.36381941483828" lon="8.402010226242968"><ele>81.0</ele><time>2026-04-06T08:57:14.001Z</time></trkpt><trkpt lat="39.36386449807583" lon="8.401823396355887"><ele>81.0</ele><time>2026-04-06T08:57:15.001Z</time></trkpt><trkpt lat="39.363871013472995" lon="8.401641203014018"><ele>80.0</ele><time>2026-04-06T08:57:16.001Z</time></trkpt><trkpt lat="39.36385907080904" lon="8.40147380212252"><ele>79.0</ele><time>2026-04-06T08:57:17.001Z</time></trkpt><trkpt lat="39.363875732699064" lon="8.401335945786762"><ele>78.0</ele><time>2026-04-06T08:57:18.001Z</time></trkpt><trkpt lat="39.363943856958265" lon="8.401244570818314"><ele>77.0</ele><time>2026-04-06T08:57:19.001Z</time></trkpt><trkpt lat="39.36405147628999" lon="8.40120216610575"><ele>76.0</ele><time>2026-04-06T08:57:20.001Z</time></trkpt><trkpt lat="39.36418004032835" lon="8.40122147241508"><ele>76.0</ele><time>2026-04-06T08:57:21.001Z</time></trkpt><trkpt lat="39.364319527771855" lon="8.40128214160257"><ele>76.0</ele><time>2026-04-06T08:57:22.001Z</time></trkpt><trkpt lat="39.3644469032891" lon="8.401349391041478"><ele>76.0</ele><time>2026-04-06T08:57:23.001Z</time></trkpt><trkpt lat="39.36456687050187" lon="8.401354619906362"><ele>76.0</ele><time>2026-04-06T08:57:24.001Z</time></trkpt><trkpt lat="39.364685038490286" lon="8.40128268438565"><ele>73.0</ele><time>2026-04-06T08:57:25.001Z</time></trkpt><trkpt lat="39.36479190739036" lon="8.401159936439418"><ele>70.0</ele><time>2026-04-06T08:57:26.001Z</time></trkpt><trkpt lat="39.36487249328913" lon="8.401001280915343"><ele>67.0</ele><time>2026-04-06T08:57:27.001Z</time></trkpt><trkpt lat="39.364906654272126" lon="8.400816318339608"><ele>64.0</ele><time>2026-04-06T08:57:28.001Z</time></trkpt><trkpt lat="39.36490315613118" lon="8.400621247162157"><ele>61.75</ele><time>2026-04-06T08:57:29.001Z</time></trkpt><trkpt lat="39.36489175537833" lon="8.400436914784688"><ele>59.5</ele><time>2026-04-06T08:57:30.001Z</time></trkpt><trkpt lat="39.36492670894666" lon="8.400276351314192"><ele>57.25</ele><time>2026-04-06T08:57:31.001Z</time></trkpt><trkpt lat="39.36500991136816" lon="8.40014635230293"><ele>55.0</ele><time>2026-04-06T08:57:32.001Z</time></trkpt><trkpt lat="39.36511934360497" lon="8.400055137352197"><ele>55.0</ele><time>2026-04-06T08:57:33.001Z</time></trkpt><trkpt lat="39.36525467167219" lon="8.399990317304997"><ele>55.0</ele><time>2026-04-06T08:57:34.001Z</time></trkpt><trkpt lat="39.365413322644926" lon="8.399958035758177"><ele>55.0</ele><time>2026-04-06T08:57:35.001Z</time></trkpt><trkpt lat="39.36558082696963" lon="8.399929153973725"><ele>53.33333333333333</ele><time>2026-04-06T08:57:36.001Z</time></trkpt><trkpt lat="39.365760365480185" lon="8.399884041278296"><ele>51.66666666666667</ele><time>2026-04-06T08:57:37.001Z</time></trkpt><trkpt lat="39.3659379895244" lon="8.399816354343358"><ele>50.0</ele><time>2026-04-06T08:57:38.001Z</time></trkpt><trkpt lat="39.366112644588085" lon="8.3997495500807"><ele>50.0</ele><time>2026-04-06T08:57:39.001Z</time></trkpt><trkpt lat="39.36626667183163" lon="8.399689273221487"><ele>50.0</ele><time>2026-04-06T08:57:40.001Z</time></trkpt><trkpt lat="39.36641199478222" lon="8.399628062450812"><ele>50.0</ele><time>2026-04-06T08:57:41.001Z</time></trkpt><trkpt lat="39.36653417497069" lon="8.39956316577247"><ele>50.0</ele><time>2026-04-06T08:57:42.001Z</time></trkpt><trkpt lat="39.36664235605958" lon="8.399474944036054"><ele>49.0</ele><time>2026-04-06T08:57:43.001Z</time></trkpt><trkpt lat="39.366740493835685" lon="8.399364874207228"><ele>48.0</ele><time>2026-04-06T08:57:44.001Z</time></trkpt><trkpt lat="39.366827592047414" lon="8.399236557437751"><ele>47.0</ele><time>2026-04-06T08:57:45.001Z</time></trkpt><trkpt lat="39.36688676162615" lon="8.399064452452315"><ele>46.0</ele><time>2026-04-06T08:57:46.001Z</time></trkpt><trkpt lat="39.36693563533896" lon="8.398849225161529"><ele>44.0</ele><time>2026-04-06T08:57:47.001Z</time></trkpt><trkpt lat="39.36699116805157" lon="8.398601014289621"><ele>42.0</ele><time>2026-04-06T08:57:48.001Z</time></trkpt><trkpt lat="39.367059531300754" lon="8.398327683243764"><ele>40.0</ele><time>2026-04-06T08:57:49.001Z</time></trkpt><trkpt lat="39.36712858266019" lon="8.398070704826239"><ele>39.333333333333336</ele><time>2026-04-06T08:57:50.001Z</time></trkpt><trkpt lat="39.3671919904796" lon="8.39782303891673"><ele>38.666666666666664</ele><time>2026-04-06T08:57:51.001Z</time></trkpt><trkpt lat="39.36725395432668" lon="8.397578392735968"><ele>38.0</ele><time>2026-04-06T08:57:52.001Z</time></trkpt><trkpt lat="39.36731416556164" lon="8.39734444959671"><ele>41.666666666666664</ele><time>2026-04-06T08:57:53.001Z</time></trkpt><trkpt lat="39.367366589035775" lon="8.397123143635902"><ele>45.33333333333333</ele><time>2026-04-06T08:57:54.001Z</time></trkpt><trkpt lat="39.36741621015541" lon="8.396897473838411"><ele>49.0</ele><time>2026-04-06T08:57:55.001Z</time></trkpt><trkpt lat="39.367473360281764" lon="8.396665303943774"><ele>49.0</ele><time>2026-04-06T08:57:56.001Z</time></trkpt><trkpt lat="39.367535065827866" lon="8.396428718418422"><ele>49.0</ele><time>2026-04-06T08:57:57.001Z</time></trkpt><trkpt lat="39.36758932936636" lon="8.396191163592011"><ele>49.0</ele><time>2026-04-06T08:57:58.001Z</time></trkpt><trkpt lat="39.36763872472391" lon="8.395974861841408"><ele>45.666666666666664</ele><time>2026-04-06T08:57:59.001Z</time></trkpt><trkpt lat="39.3676953379193" lon="8.395774710890354"><ele>42.33333333333333</ele><time>2026-04-06T08:58:00.001Z</time></trkpt><trkpt lat="39.36777339859364" lon="8.395581527157749"><ele>39.0</ele><time>2026-04-06T08:58:01.001Z</time></trkpt><trkpt lat="39.367872592107716" lon="8.395398049485596"><ele>40.0</ele><time>2026-04-06T08:58:02.001Z</time></trkpt><trkpt lat="39.367988973458445" lon="8.395229634469342"><ele>41.0</ele><time>2026-04-06T08:58:03.001Z</time></trkpt><trkpt lat="39.368121558377425" lon="8.395073264057013"><ele>42.0</ele><time>2026-04-06T08:58:04.001Z</time></trkpt><trkpt lat="39.368278349426845" lon="8.394926998368483"><ele>42.0</ele><time>2026-04-06T08:58:05.001Z</time></trkpt><trkpt lat="39.36844640173097" lon="8.394798904889612"><ele>42.0</ele><time>2026-04-06T08:58:06.001Z</time></trkpt><trkpt lat="39.36860647856408" lon="8.394689733221792"><ele>42.0</ele><time>2026-04-06T08:58:07.001Z</time></trkpt><trkpt lat="39.368755202388094" lon="8.394612884445369"><ele>38.666666666666664</ele><time>2026-04-06T08:58:08.001Z</time></trkpt><trkpt lat="39.36891017238125" lon="8.394573238541504"><ele>35.33333333333333</ele><time>2026-04-06T08:58:09.001Z</time></trkpt><trkpt lat="39.36907681388191" lon="8.394585072699995"><ele>32.0</ele><time>2026-04-06T08:58:10.001Z</time></trkpt><trkpt lat="39.36924271679274" lon="8.394626323308962"><ele>32.0</ele><time>2026-04-06T08:58:11.001Z</time></trkpt><trkpt lat="39.36939361487576" lon="8.394644014970295"><ele>32.0</ele><time>2026-04-06T08:58:12.001Z</time></trkpt><trkpt lat="39.36954092569368" lon="8.39461227786273"><ele>32.0</ele><time>2026-04-06T08:58:13.001Z</time></trkpt><trkpt lat="39.369689606519856" lon="8.394523315967893"><ele>36.666666666666664</ele><time>2026-04-06T08:58:14.001Z</time></trkpt><trkpt lat="39.3698299100737" lon="8.394393279244428"><ele>41.333333333333336</ele><time>2026-04-06T08:58:15.001Z</time></trkpt><trkpt lat="39.369953505682766" lon="8.39423491250637"><ele>46.0</ele><time>2026-04-06T08:58:16.001Z</time></trkpt><trkpt lat="39.37006839803067" lon="8.394051791341367"><ele>46.0</ele><time>2026-04-06T08:58:17.001Z</time></trkpt><trkpt lat="39.370160880186695" lon="8.393849813312137"><ele>46.0</ele><time>2026-04-06T08:58:18.001Z</time></trkpt><trkpt lat="39.3702210482325" lon="8.393640504066752"><ele>46.0</ele><time>2026-04-06T08:58:19.001Z</time></trkpt><trkpt lat="39.370245251743995" lon="8.393447457889373"><ele>46.8</ele><time>2026-04-06T08:58:20.001Z</time></trkpt><trkpt lat="39.3702646139501" lon="8.39327834837649"><ele>47.599999999999994</ele><time>2026-04-06T08:58:21.001Z</time></trkpt><trkpt lat="39.370309849796094" lon="8.393146594227316"><ele>48.4</ele><time>2026-04-06T08:58:22.001Z</time></trkpt><trkpt lat="39.370379987978794" lon="8.393081764685945"><ele>49.2</ele><time>2026-04-06T08:58:23.001Z</time></trkpt><trkpt lat="39.37047791603699" lon="8.393063880227546"><ele>50.0</ele><time>2026-04-06T08:58:24.001Z</time></trkpt><trkpt lat="39.370578577749654" lon="8.393100550316529"><ele>50.0</ele><time>2026-04-06T08:58:25.001Z</time></trkpt><trkpt lat="39.37066927605215" lon="8.393188661456465"><ele>50.0</ele><time>2026-04-06T08:58:26.001Z</time></trkpt><trkpt lat="39.370749436435254" lon="8.393301597196302"><ele>50.0</ele><time>2026-04-06T08:58:27.001Z</time></trkpt><trkpt lat="39.37085529707219" lon="8.393418777380406"><ele>50.0</ele><time>2026-04-06T08:58:28.001Z</time></trkpt><trkpt lat="39.370965222809524" lon="8.393539623972687"><ele>50.0</ele><time>2026-04-06T08:58:29.001Z</time></trkpt><trkpt lat="39.37107468575416" lon="8.39367012560583"><ele>50.0</ele><time>2026-04-06T08:58:30.001Z</time></trkpt><trkpt lat="39.37121588244726" lon="8.393778651668912"><ele>50.0</ele><time>2026-04-06T08:58:31.001Z</time></trkpt><trkpt lat="39.37137201602489" lon="8.393819660683846"><ele>52.0</ele><time>2026-04-06T08:58:32.001Z</time></trkpt><trkpt lat="39.37151901479461" lon="8.393804521060769"><ele>54.0</ele><time>2026-04-06T08:58:33.001Z</time></trkpt><trkpt lat="39.37169198564304" lon="8.3938037730754"><ele>56.0</ele><time>2026-04-06T08:58:34.001Z</time></trkpt><trkpt lat="39.37189427754364" lon="8.393900778955937"><ele>59.25</ele><time>2026-04-06T08:58:35.001Z</time></trkpt><trkpt lat="39.372055831081795" lon="8.393951894081207"><ele>62.5</ele><time>2026-04-06T08:58:36.001Z</time></trkpt><trkpt lat="39.3721657727247" lon="8.39399685845101"><ele>65.75</ele><time>2026-04-06T08:58:37.001Z</time></trkpt><trkpt lat="39.37226479080704" lon="8.39407447013249"><ele>69.0</ele><time>2026-04-06T08:58:38.001Z</time></trkpt><trkpt lat="39.372309122109804" lon="8.394165401336357"><ele>69.0</ele><time>2026-04-06T08:58:39.001Z</time></trkpt><trkpt lat="39.372325216733" lon="8.394295923319309"><ele>69.0</ele><time>2026-04-06T08:58:40.001Z</time></trkpt><trkpt lat="39.37231695790532" lon="8.394454771082561"><ele>69.0</ele><time>2026-04-06T08:58:41.001Z</time></trkpt><trkpt lat="39.372301350743385" lon="8.394679733965601"><ele>69.0</ele><time>2026-04-06T08:58:42.001Z</time></trkpt><trkpt lat="39.372287456265035" lon="8.394900470492463"><ele>72.66666666666667</ele><time>2026-04-06T08:58:43.001Z</time></trkpt><trkpt lat="39.37228349029495" lon="8.39513193429564"><ele>76.33333333333334</ele><time>2026-04-06T08:58:44.001Z</time></trkpt><trkpt lat="39.37227908658724" lon="8.395401920768256"><ele>80.0</ele><time>2026-04-06T08:58:45.001Z</time></trkpt><trkpt lat="39.372265996948954" lon="8.39562965042552"><ele>82.75</ele><time>2026-04-06T08:58:46.001Z</time></trkpt><trkpt lat="39.37225120783432" lon="8.395851741653239"><ele>85.5</ele><time>2026-04-06T08:58:47.001Z</time></trkpt><trkpt lat="39.37221876837619" lon="8.396055558031524"><ele>88.25</ele><time>2026-04-06T08:58:48.001Z</time></trkpt><trkpt lat="39.372162964444904" lon="8.396183570274607"><ele>91.0</ele><time>2026-04-06T08:58:49.001Z</time></trkpt><trkpt lat="39.3721102796882" lon="8.396275453759865"><ele>91.0</ele><time>2026-04-06T08:58:50.001Z</time></trkpt><trkpt lat="39.372122625441804" lon="8.396372090491354"><ele>91.0</ele><time>2026-04-06T08:58:51.001Z</time></trkpt><trkpt lat="39.372238960226625" lon="8.396484353186784"><ele>91.0</ele><time>2026-04-06T08:58:53.001Z</time></trkpt><trkpt lat="39.37233506608205" lon="8.39645788040735"><ele>91.0</ele><time>2026-04-06T08:58:54.001Z</time></trkpt><trkpt lat="39.37241590175719" lon="8.396375564715818"><ele>91.0</ele><time>2026-04-06T08:58:55.001Z</time></trkpt><trkpt lat="39.37247172304676" lon="8.396247539132876"><ele>91.0</ele><time>2026-04-06T08:58:56.001Z</time></trkpt><trkpt lat="39.372507401632106" lon="8.396080746544046"><ele>91.0</ele><time>2026-04-06T08:58:57.001Z</time></trkpt><trkpt lat="39.37254874907988" lon="8.395879165791843"><ele>91.0</ele><time>2026-04-06T08:58:58.001Z</time></trkpt><trkpt lat="39.37260936593775" lon="8.395696177513186"><ele>91.0</ele><time>2026-04-06T08:58:59.001Z</time></trkpt><trkpt lat="39.37268256154156" lon="8.395505710782219"><ele>87.33333333333333</ele><time>2026-04-06T08:59:00.001Z</time></trkpt><trkpt lat="39.372765483472804" lon="8.395302188380652"><ele>83.66666666666667</ele><time>2026-04-06T08:59:01.001Z</time></trkpt><trkpt lat="39.372855477936824" lon="8.39510138838962"><ele>80.0</ele><time>2026-04-06T08:59:02.001Z</time></trkpt><trkpt lat="39.372939453357624" lon="8.394927210999823"><ele>84.33333333333334</ele><time>2026-04-06T08:59:03.001Z</time></trkpt><trkpt lat="39.37303468237849" lon="8.394760215035038"><ele>88.66666666666667</ele><time>2026-04-06T08:59:04.001Z</time></trkpt><trkpt lat="39.37310820591022" lon="8.394576756131105"><ele>93.0</ele><time>2026-04-06T08:59:05.001Z</time></trkpt><trkpt lat="39.37318984910227" lon="8.394399578690441"><ele>93.0</ele><time>2026-04-06T08:59:06.001Z</time></trkpt><trkpt lat="39.373275952962615" lon="8.394220046531185"><ele>93.0</ele><time>2026-04-06T08:59:07.001Z</time></trkpt><trkpt lat="39.37337509604619" lon="8.39404727321542"><ele>93.0</ele><time>2026-04-06T08:59:08.001Z</time></trkpt><trkpt lat="39.37349563100355" lon="8.39388424481384"><ele>93.33333333333333</ele><time>2026-04-06T08:59:09.001Z</time></trkpt><trkpt lat="39.37363009147918" lon="8.39372037672032"><ele>93.66666666666666</ele><time>2026-04-06T08:59:10.001Z</time></trkpt><trkpt lat="39.37374675686438" lon="8.393571484930971"><ele>94.0</ele><time>2026-04-06T08:59:11.001Z</time></trkpt><trkpt lat="39.37384541281935" lon="8.393445082719795"><ele>97.0</ele><time>2026-04-06T08:59:12.001Z</time></trkpt><trkpt lat="39.37395205338478" lon="8.393338762015778"><ele>100.0</ele><time>2026-04-06T08:59:13.001Z</time></trkpt><trkpt lat="39.37408603917957" lon="8.393270901939726"><ele>103.0</ele><time>2026-04-06T08:59:14.001Z</time></trkpt><trkpt lat="39.37423567186044" lon="8.393254898707086"><ele>106.0</ele><time>2026-04-06T08:59:15.001Z</time></trkpt><trkpt lat="39.37438903020096" lon="8.39328122760431"><ele>106.0</ele><time>2026-04-06T08:59:16.001Z</time></trkpt><trkpt lat="39.374541893653195" lon="8.39334802686914"><ele>106.0</ele><time>2026-04-06T08:59:17.001Z</time></trkpt><trkpt lat="39.374698936966425" lon="8.39344740534261"><ele>106.0</ele><time>2026-04-06T08:59:18.001Z</time></trkpt><trkpt lat="39.374869778120726" lon="8.393561401149025"><ele>107.33333333333334</ele><time>2026-04-06T08:59:19.001Z</time></trkpt><trkpt lat="39.375044180712784" lon="8.39368347254198"><ele>108.66666666666666</ele><time>2026-04-06T08:59:20.001Z</time></trkpt><trkpt lat="39.37521715066445" lon="8.393822829108649"><ele>110.0</ele><time>2026-04-06T08:59:21.001Z</time></trkpt><trkpt lat="39.3753827879172" lon="8.393977548269916"><ele>110.33333333333333</ele><time>2026-04-06T08:59:22.001Z</time></trkpt><trkpt lat="39.37554061574129" lon="8.394132141291525"><ele>110.66666666666666</ele><time>2026-04-06T08:59:23.001Z</time></trkpt><trkpt lat="39.375699096065766" lon="8.394282289326359"><ele>111.0</ele><time>2026-04-06T08:59:24.001Z</time></trkpt><trkpt lat="39.37585631076072" lon="8.394429581092904"><ele>111.0</ele><time>2026-04-06T08:59:25.001Z</time></trkpt><trkpt lat="39.376015587699044" lon="8.394581513504258"><ele>111.0</ele><time>2026-04-06T08:59:26.001Z</time></trkpt><trkpt lat="39.376172559449365" lon="8.394731135400413"><ele>111.0</ele><time>2026-04-06T08:59:27.001Z</time></trkpt><trkpt lat="39.37632895347698" lon="8.394870228336266"><ele>112.0</ele><time>2026-04-06T08:59:28.001Z</time></trkpt><trkpt lat="39.37648542181155" lon="8.395003948545638"><ele>113.0</ele><time>2026-04-06T08:59:29.001Z</time></trkpt><trkpt lat="39.3766347376756" lon="8.395131331734042"><ele>114.0</ele><time>2026-04-06T08:59:30.001Z</time></trkpt><trkpt lat="39.37678614195218" lon="8.395239621783945"><ele>114.0</ele><time>2026-04-06T08:59:31.001Z</time></trkpt><trkpt lat="39.376952646436315" lon="8.39531408861542"><ele>114.0</ele><time>2026-04-06T08:59:32.001Z</time></trkpt><trkpt lat="39.377136942489194" lon="8.395363822604777"><ele>114.0</ele><time>2026-04-06T08:59:33.001Z</time></trkpt><trkpt lat="39.37732800219583" lon="8.395399673293829"><ele>114.66666666666666</ele><time>2026-04-06T08:59:34.001Z</time></trkpt><trkpt lat="39.37752274028491" lon="8.395432541025752"><ele>115.33333333333333</ele><time>2026-04-06T08:59:35.001Z</time></trkpt><trkpt lat="39.37772118471322" lon="8.395475871385994"><ele>116.0</ele><time>2026-04-06T08:59:36.001Z</time></trkpt><trkpt lat="39.37792533140687" lon="8.395534029127488"><ele>119.0</ele><time>2026-04-06T08:59:37.001Z</time></trkpt><trkpt lat="39.378127781756994" lon="8.39559998463642"><ele>122.0</ele><time>2026-04-06T08:59:38.001Z</time></trkpt><trkpt lat="39.37831091800491" lon="8.395660815392786"><ele>125.0</ele><time>2026-04-06T08:59:39.001Z</time></trkpt><trkpt lat="39.37848054329971" lon="8.39571042919816"><ele>125.0</ele><time>2026-04-06T08:59:40.001Z</time></trkpt><trkpt lat="39.37864308845909" lon="8.395739181668747"><ele>125.0</ele><time>2026-04-06T08:59:41.001Z</time></trkpt><trkpt lat="39.37880104750583" lon="8.39573131722963"><ele>125.0</ele><time>2026-04-06T08:59:42.001Z</time></trkpt><trkpt lat="39.37894948612674" lon="8.395665257311087"><ele>124.33333333333333</ele><time>2026-04-06T08:59:43.001Z</time></trkpt><trkpt lat="39.3790721334849" lon="8.395547476215459"><ele>123.66666666666666</ele><time>2026-04-06T08:59:44.001Z</time></trkpt><trkpt lat="39.379173654642706" lon="8.395384976415205"><ele>123.0</ele><time>2026-04-06T08:59:45.001Z</time></trkpt><trkpt lat="39.37926291391524" lon="8.395205763340744"><ele>123.0</ele><time>2026-04-06T08:59:46.001Z</time></trkpt><trkpt lat="39.379388240689885" lon="8.395067864758232"><ele>123.0</ele><time>2026-04-06T08:59:47.001Z</time></trkpt><trkpt lat="39.37953665345908" lon="8.394965540656308"><ele>123.0</ele><time>2026-04-06T08:59:48.001Z</time></trkpt><trkpt lat="39.37970776919753" lon="8.394888799340341"><ele>126.66666666666666</ele><time>2026-04-06T08:59:49.001Z</time></trkpt><trkpt lat="39.37987611827624" lon="8.394799008413893"><ele>130.33333333333331</ele><time>2026-04-06T08:59:50.001Z</time></trkpt><trkpt lat="39.38002850987358" lon="8.39473425644321"><ele>134.0</ele><time>2026-04-06T08:59:51.001Z</time></trkpt><trkpt lat="39.38017555256812" lon="8.39470317188324"><ele>133.25</ele><time>2026-04-06T08:59:52.001Z</time></trkpt><trkpt lat="39.380316010103144" lon="8.39464680984556"><ele>132.5</ele><time>2026-04-06T08:59:53.001Z</time></trkpt><trkpt lat="39.3804653461083" lon="8.394623447251018"><ele>131.75</ele><time>2026-04-06T08:59:54.001Z</time></trkpt><trkpt lat="39.38060854725151" lon="8.394609682950042"><ele>131.0</ele><time>2026-04-06T08:59:55.001Z</time></trkpt><trkpt lat="39.38075400757891" lon="8.394596009352297"><ele>131.0</ele><time>2026-04-06T08:59:56.001Z</time></trkpt><trkpt lat="39.380904061355466" lon="8.394573632659071"><ele>131.0</ele><time>2026-04-06T08:59:57.001Z</time></trkpt><trkpt lat="39.38105686523152" lon="8.394524995500797"><ele>131.0</ele><time>2026-04-06T08:59:58.001Z</time></trkpt><trkpt lat="39.38119570764185" lon="8.394425913909723"><ele>131.0</ele><time>2026-04-06T08:59:59.001Z</time></trkpt><trkpt lat="39.381329154059195" lon="8.39429336890236"><ele>131.0</ele><time>2026-04-06T09:00:00.001Z</time></trkpt><trkpt lat="39.381445765095044" lon="8.39417913471687"><ele>131.0</ele><time>2026-04-06T09:00:01.001Z</time></trkpt><trkpt lat="39.38156892821345" lon="8.394104492985662"><ele>131.0</ele><time>2026-04-06T09:00:02.001Z</time></trkpt><trkpt lat="39.38167695996912" lon="8.394003674486541"><ele>131.0</ele><time>2026-04-06T09:00:03.001Z</time></trkpt><trkpt lat="39.38181231106894" lon="8.393948273487325"><ele>131.0</ele><time>2026-04-06T09:00:04.001Z</time></trkpt><trkpt lat="39.381944743542356" lon="8.393863135308676"><ele>131.0</ele><time>2026-04-06T09:00:05.001Z</time></trkpt><trkpt lat="39.38208806495872" lon="8.393802818348997"><ele>132.0</ele><time>2026-04-06T09:00:06.001Z</time></trkpt><trkpt lat="39.382234182990764" lon="8.393747908908464"><ele>133.0</ele><time>2026-04-06T09:00:07.001Z</time></trkpt><trkpt lat="39.382376126519986" lon="8.393707534948714"><ele>134.0</ele><time>2026-04-06T09:00:08.001Z</time></trkpt><trkpt lat="39.382515838609045" lon="8.393692389799243"><ele>135.0</ele><time>2026-04-06T09:00:09.001Z</time></trkpt><trkpt lat="39.38266239321373" lon="8.393701482270217"><ele>135.0</ele><time>2026-04-06T09:00:10.001Z</time></trkpt><trkpt lat="39.38281032984822" lon="8.393730447280069"><ele>135.0</ele><time>2026-04-06T09:00:11.001Z</time></trkpt><trkpt lat="39.382951920536655" lon="8.393770384831296"><ele>135.0</ele><time>2026-04-06T09:00:12.001Z</time></trkpt><trkpt lat="39.383081582208" lon="8.393815112425328"><ele>135.0</ele><time>2026-04-06T09:00:13.001Z</time></trkpt><trkpt lat="39.3832101587028" lon="8.39385913698116"><ele>137.0</ele><time>2026-04-06T09:00:14.001Z</time></trkpt><trkpt lat="39.38334107990094" lon="8.39390501292347"><ele>139.0</ele><time>2026-04-06T09:00:15.001Z</time></trkpt><trkpt lat="39.383467237100504" lon="8.393948051488096"><ele>141.0</ele><time>2026-04-06T09:00:16.001Z</time></trkpt><trkpt lat="39.38359932822435" lon="8.393990721834289"><ele>143.0</ele><time>2026-04-06T09:00:17.001Z</time></trkpt><trkpt lat="39.38373950908433" lon="8.394044057146807"><ele>142.66666666666666</ele><time>2026-04-06T09:00:18.001Z</time></trkpt><trkpt lat="39.383884818664086" lon="8.394101026228084"><ele>142.33333333333334</ele><time>2026-04-06T09:00:19.001Z</time></trkpt><trkpt lat="39.38403297607161" lon="8.394147001150998"><ele>142.0</ele><time>2026-04-06T09:00:20.001Z</time></trkpt><trkpt lat="39.38418666577152" lon="8.39419023081791"><ele>142.0</ele><time>2026-04-06T09:00:21.001Z</time></trkpt><trkpt lat="39.38433150996005" lon="8.394232353162174"><ele>142.0</ele><time>2026-04-06T09:00:22.001Z</time></trkpt><trkpt lat="39.384473249139475" lon="8.394269000740584"><ele>142.0</ele><time>2026-04-06T09:00:23.001Z</time></trkpt><trkpt lat="39.38461475281198" lon="8.394293267167647"><ele>142.0</ele><time>2026-04-06T09:00:24.001Z</time></trkpt><trkpt lat="39.38475150191124" lon="8.394305320898841"><ele>141.75</ele><time>2026-04-06T09:00:25.001Z</time></trkpt><trkpt lat="39.38489293381959" lon="8.39431301997878"><ele>141.5</ele><time>2026-04-06T09:00:26.001Z</time></trkpt><trkpt lat="39.38503582373391" lon="8.394318124718044"><ele>141.25</ele><time>2026-04-06T09:00:27.001Z</time></trkpt><trkpt lat="39.38518461300315" lon="8.394323610357183"><ele>141.0</ele><time>2026-04-06T09:00:28.001Z</time></trkpt><trkpt lat="39.385334755585205" lon="8.39433063460815"><ele>141.0</ele><time>2026-04-06T09:00:29.001Z</time></trkpt><trkpt lat="39.38548787785132" lon="8.394361867446959"><ele>141.0</ele><time>2026-04-06T09:00:30.001Z</time></trkpt><trkpt lat="39.38566114921745" lon="8.394431598503925"><ele>141.0</ele><time>2026-04-06T09:00:31.001Z</time></trkpt><trkpt lat="39.38582721228213" lon="8.394554395531769"><ele>140.0</ele><time>2026-04-06T09:00:32.001Z</time></trkpt><trkpt lat="39.386033798436834" lon="8.394663139045445"><ele>139.0</ele><time>2026-04-06T09:00:33.001Z</time></trkpt><trkpt lat="39.386272762899885" lon="8.394740001163367"><ele>138.5</ele><time>2026-04-06T09:00:34.001Z</time></trkpt><trkpt lat="39.38652984661637" lon="8.394793964102083"><ele>138.0</ele><time>2026-04-06T09:00:35.001Z</time></trkpt><trkpt lat="39.38677169121583" lon="8.394873714822948"><ele>138.0</ele><time>2026-04-06T09:00:36.001Z</time></trkpt><trkpt lat="39.38701165494277" lon="8.39495145732739"><ele>138.0</ele><time>2026-04-06T09:00:37.001Z</time></trkpt><trkpt lat="39.3872477459577" lon="8.395027397336028"><ele>137.0</ele><time>2026-04-06T09:00:38.001Z</time></trkpt><trkpt lat="39.3874610498492" lon="8.395095002208727"><ele>136.0</ele><time>2026-04-06T09:00:39.001Z</time></trkpt><trkpt lat="39.38766140991099" lon="8.39515876593454"><ele>135.0</ele><time>2026-04-06T09:00:40.001Z</time></trkpt><trkpt lat="39.387858618853855" lon="8.39521828522144"><ele>136.0</ele><time>2026-04-06T09:00:41.001Z</time></trkpt><trkpt lat="39.388058851224635" lon="8.395263293936003"><ele>137.0</ele><time>2026-04-06T09:00:42.001Z</time></trkpt><trkpt lat="39.38827026680645" lon="8.39527859517825"><ele>138.0</ele><time>2026-04-06T09:00:43.001Z</time></trkpt><trkpt lat="39.38849429348116" lon="8.39526249176423"><ele>138.0</ele><time>2026-04-06T09:00:44.001Z</time></trkpt><trkpt lat="39.388728654625545" lon="8.395229405283185"><ele>138.0</ele><time>2026-04-06T09:00:45.001Z</time></trkpt><trkpt lat="39.38897168282441" lon="8.39519330300966"><ele>138.5</ele><time>2026-04-06T09:00:46.001Z</time></trkpt><trkpt lat="39.38921841992371" lon="8.39516266229374"><ele>139.0</ele><time>2026-04-06T09:00:47.001Z</time></trkpt><trkpt lat="39.389456412969096" lon="8.395141520160196"><ele>140.5</ele><time>2026-04-06T09:00:48.001Z</time></trkpt><trkpt lat="39.38968458283484" lon="8.395116719221436"><ele>142.0</ele><time>2026-04-06T09:00:49.001Z</time></trkpt><trkpt lat="39.38991315463195" lon="8.395087852134557"><ele>142.0</ele><time>2026-04-06T09:00:50.001Z</time></trkpt><trkpt lat="39.39014280446639" lon="8.395060245565086"><ele>142.0</ele><time>2026-04-06T09:00:51.001Z</time></trkpt><trkpt lat="39.39036574015842" lon="8.395035340990889"><ele>141.66666666666669</ele><time>2026-04-06T09:00:52.001Z</time></trkpt><trkpt lat="39.390584915381126" lon="8.395011342754142"><ele>141.33333333333334</ele><time>2026-04-06T09:00:53.001Z</time></trkpt><trkpt lat="39.39080221381163" lon="8.394989220960877"><ele>141.0</ele><time>2026-04-06T09:00:54.001Z</time></trkpt><trkpt lat="39.3910145489883" lon="8.394968979625917"><ele>141.0</ele><time>2026-04-06T09:00:55.001Z</time></trkpt><trkpt lat="39.391224870213684" lon="8.394944823229325"><ele>141.0</ele><time>2026-04-06T09:00:56.001Z</time></trkpt><trkpt lat="39.39143150772353" lon="8.39491467504922"><ele>141.0</ele><time>2026-04-06T09:00:57.001Z</time></trkpt><trkpt lat="39.39163979032748" lon="8.394884973597575"><ele>142.33333333333334</ele><time>2026-04-06T09:00:58.001Z</time></trkpt><trkpt lat="39.39185006777741" lon="8.394861168054481"><ele>143.66666666666669</ele><time>2026-04-06T09:00:59.001Z</time></trkpt><trkpt lat="39.392061530110475" lon="8.394841772339687"><ele>145.0</ele><time>2026-04-06T09:01:00.001Z</time></trkpt><trkpt lat="39.3922728086972" lon="8.394823251261677"><ele>145.66666666666669</ele><time>2026-04-06T09:01:01.001Z</time></trkpt><trkpt lat="39.392485345383086" lon="8.39480395797579"><ele>146.33333333333334</ele><time>2026-04-06T09:01:02.001Z</time></trkpt><trkpt lat="39.39269717005533" lon="8.39479278955362"><ele>147.0</ele><time>2026-04-06T09:01:03.001Z</time></trkpt><trkpt lat="39.39291120250512" lon="8.39478792761967"><ele>147.0</ele><time>2026-04-06T09:01:04.001Z</time></trkpt><trkpt lat="39.39312524133782" lon="8.394788524521266"><ele>147.0</ele><time>2026-04-06T09:01:05.001Z</time></trkpt><trkpt lat="39.39332834506394" lon="8.39479000829762"><ele>147.0</ele><time>2026-04-06T09:01:06.001Z</time></trkpt><trkpt lat="39.393515030665256" lon="8.3947888695632"><ele>147.0</ele><time>2026-04-06T09:01:07.001Z</time></trkpt><trkpt lat="39.39368716483427" lon="8.394789167933576"><ele>147.0</ele><time>2026-04-06T09:01:08.001Z</time></trkpt><trkpt lat="39.393857026449666" lon="8.394810249919777"><ele>147.0</ele><time>2026-04-06T09:01:09.001Z</time></trkpt><trkpt lat="39.394032884682304" lon="8.394869420013729"><ele>145.66666666666666</ele><time>2026-04-06T09:01:10.001Z</time></trkpt><trkpt lat="39.3942002864673" lon="8.39494076895342"><ele>144.33333333333331</ele><time>2026-04-06T09:01:11.001Z</time></trkpt><trkpt lat="39.39437090264955" lon="8.394969470465009"><ele>143.0</ele><time>2026-04-06T09:01:12.001Z</time></trkpt><trkpt lat="39.39452076633651" lon="8.3952465074455"><ele>142.33333333333331</ele><time>2026-04-06T09:01:13.001Z</time></trkpt><trkpt lat="39.39467217746809" lon="8.395401597404135"><ele>141.66666666666666</ele><time>2026-04-06T09:01:14.001Z</time></trkpt><trkpt lat="39.39481228878713" lon="8.395538044683017"><ele>141.0</ele><time>2026-04-06T09:01:15.001Z</time></trkpt><trkpt lat="39.39494457264789" lon="8.395653723087044"><ele>144.33333333333334</ele><time>2026-04-06T09:01:16.001Z</time></trkpt><trkpt lat="39.39507230369227" lon="8.395762385474072"><ele>147.66666666666669</ele><time>2026-04-06T09:01:17.001Z</time></trkpt><trkpt lat="39.39520262728276" lon="8.395881010353307"><ele>151.0</ele><time>2026-04-06T09:01:18.001Z</time></trkpt><trkpt lat="39.39533395736171" lon="8.396006667180464"><ele>151.0</ele><time>2026-04-06T09:01:19.001Z</time></trkpt><trkpt lat="39.39546191296245" lon="8.396140957531482"><ele>151.0</ele><time>2026-04-06T09:01:20.001Z</time></trkpt><trkpt lat="39.395576759678725" lon="8.396288845648362"><ele>151.0</ele><time>2026-04-06T09:01:21.001Z</time></trkpt><trkpt lat="39.39566885329548" lon="8.39644941450806"><ele>151.0</ele><time>2026-04-06T09:01:22.001Z</time></trkpt><trkpt lat="39.395739277889824" lon="8.396607248147578"><ele>151.0</ele><time>2026-04-06T09:01:23.001Z</time></trkpt><trkpt lat="39.395796671585785" lon="8.39675434081866"><ele>151.0</ele><time>2026-04-06T09:01:24.001Z</time></trkpt><trkpt lat="39.39584274584709" lon="8.396894884554577"><ele>151.0</ele><time>2026-04-06T09:01:25.001Z</time></trkpt><trkpt lat="39.395877788278575" lon="8.397035674446764"><ele>151.8</ele><time>2026-04-06T09:01:26.001Z</time></trkpt><trkpt lat="39.39590156359712" lon="8.39717371496834"><ele>152.6</ele><time>2026-04-06T09:01:27.001Z</time></trkpt><trkpt lat="39.3959180362189" lon="8.397311910735917"><ele>153.4</ele><time>2026-04-06T09:01:28.001Z</time></trkpt><trkpt lat="39.39592650986726" lon="8.39744686641943"><ele>154.2</ele><time>2026-04-06T09:01:29.001Z</time></trkpt><trkpt lat="39.39592186981665" lon="8.397586294678517"><ele>155.0</ele><time>2026-04-06T09:01:30.001Z</time></trkpt><trkpt lat="39.395910082313584" lon="8.397726386783127"><ele>155.0</ele><time>2026-04-06T09:01:31.001Z</time></trkpt><trkpt lat="39.3958858910298" lon="8.397877042189318"><ele>155.0</ele><time>2026-04-06T09:01:32.001Z</time></trkpt><trkpt lat="39.39585040250064" lon="8.398028321817916"><ele>155.0</ele><time>2026-04-06T09:01:33.001Z</time></trkpt><trkpt lat="39.395813243658004" lon="8.398181147950213"><ele>155.0</ele><time>2026-04-06T09:01:34.001Z</time></trkpt><trkpt lat="39.395770876249564" lon="8.398330871508385"><ele>154.2</ele><time>2026-04-06T09:01:35.001Z</time></trkpt><trkpt lat="39.395726454016774" lon="8.398466157423009"><ele>153.4</ele><time>2026-04-06T09:01:36.001Z</time></trkpt><trkpt lat="39.39568108252517" lon="8.398587292468855"><ele>152.6</ele><time>2026-04-06T09:01:37.001Z</time></trkpt><trkpt lat="39.39563091700365" lon="8.398701773586204"><ele>151.8</ele><time>2026-04-06T09:01:38.001Z</time></trkpt><trkpt lat="39.39557395804854" lon="8.39881343974173"><ele>151.0</ele><time>2026-04-06T09:01:39.001Z</time></trkpt><trkpt lat="39.39551579242357" lon="8.398918694237086"><ele>154.6</ele><time>2026-04-06T09:01:40.001Z</time></trkpt><trkpt lat="39.39545200930988" lon="8.399028017082362"><ele>158.2</ele><time>2026-04-06T09:01:41.001Z</time></trkpt><trkpt lat="39.39537826739215" lon="8.399131525337665"><ele>161.79999999999998</ele><time>2026-04-06T09:01:42.001Z</time></trkpt><trkpt lat="39.39529676497519" lon="8.399234479839704"><ele>165.39999999999998</ele><time>2026-04-06T09:01:43.001Z</time></trkpt><trkpt lat="39.39521144870597" lon="8.399338486136422"><ele>169.0</ele><time>2026-04-06T09:01:44.001Z</time></trkpt><trkpt lat="39.39512532237363" lon="8.39944432292632"><ele>169.0</ele><time>2026-04-06T09:01:45.001Z</time></trkpt><trkpt lat="39.3950328387742" lon="8.399545314354723"><ele>169.0</ele><time>2026-04-06T09:01:46.001Z</time></trkpt><trkpt lat="39.39493883492189" lon="8.399645456866189"><ele>169.0</ele><time>2026-04-06T09:01:47.001Z</time></trkpt><trkpt lat="39.39484470158947" lon="8.399750817958086"><ele>169.0</ele><time>2026-04-06T09:01:48.001Z</time></trkpt><trkpt lat="39.39474480600502" lon="8.399855500900804"><ele>171.25</ele><time>2026-04-06T09:01:49.001Z</time></trkpt><trkpt lat="39.39463931442102" lon="8.399968552779367"><ele>173.5</ele><time>2026-04-06T09:01:50.001Z</time></trkpt><trkpt lat="39.39452850591526" lon="8.400091224641727"><ele>175.75</ele><time>2026-04-06T09:01:51.001Z</time></trkpt><trkpt lat="39.394416756074925" lon="8.40022168800861"><ele>178.0</ele><time>2026-04-06T09:01:52.001Z</time></trkpt><trkpt lat="39.39430234234544" lon="8.400351944293776"><ele>178.0</ele><time>2026-04-06T09:01:53Z</time></trkpt><trkpt lat="39.394194121821364" lon="8.40047498621707"><ele>178.0</ele><time>2026-04-06T09:01:54Z</time></trkpt><trkpt lat="39.394095159179045" lon="8.400591374760612"><ele>178.0</ele><time>2026-04-06T09:01:55Z</time></trkpt><trkpt lat="39.394001829091394" lon="8.400699853198839"><ele>178.0</ele><time>2026-04-06T09:01:56Z</time></trkpt><trkpt lat="39.3939147544076" lon="8.4008006418929"><ele>177.25</ele><time>2026-04-06T09:01:57Z</time></trkpt><trkpt lat="39.393831234422116" lon="8.400897148240709"><ele>176.5</ele><time>2026-04-06T09:01:58.001Z</time></trkpt><trkpt lat="39.393742514177305" lon="8.400982770354773"><ele>175.75</ele><time>2026-04-06T09:01:59.001Z</time></trkpt><trkpt lat="39.39364462547003" lon="8.401063892491527"><ele>175.0</ele><time>2026-04-06T09:02:00.001Z</time></trkpt><trkpt lat="39.39354106720543" lon="8.401141556439283"><ele>175.0</ele><time>2026-04-06T09:02:01.001Z</time></trkpt><trkpt lat="39.39343110484355" lon="8.401217544305384"><ele>175.0</ele><time>2026-04-06T09:02:02.001Z</time></trkpt><trkpt lat="39.39331273980665" lon="8.401279334962053"><ele>175.0</ele><time>2026-04-06T09:02:03.001Z</time></trkpt><trkpt lat="39.39318069567598" lon="8.401322216799652"><ele>175.0</ele><time>2026-04-06T09:02:04.001Z</time></trkpt><trkpt lat="39.39304365026322" lon="8.401358023523938"><ele>170.33333333333334</ele><time>2026-04-06T09:02:05.001Z</time></trkpt><trkpt lat="39.392901438755054" lon="8.401410808862472"><ele>165.66666666666666</ele><time>2026-04-06T09:02:06.001Z</time></trkpt><trkpt lat="39.39276740088264" lon="8.401498648458237"><ele>161.0</ele><time>2026-04-06T09:02:07.001Z</time></trkpt><trkpt lat="39.39263685411929" lon="8.401620087197879"><ele>161.0</ele><time>2026-04-06T09:02:08.001Z</time></trkpt><trkpt lat="39.39251773701911" lon="8.401763171288364"><ele>161.0</ele><time>2026-04-06T09:02:09.001Z</time></trkpt><trkpt lat="39.392410509213015" lon="8.401893738825303"><ele>161.0</ele><time>2026-04-06T09:02:10.001Z</time></trkpt><trkpt lat="39.392300548311475" lon="8.402001973337548"><ele>161.0</ele><time>2026-04-06T09:02:11.001Z</time></trkpt><trkpt lat="39.39218750296793" lon="8.402095087086332"><ele>159.25</ele><time>2026-04-06T09:02:12.001Z</time></trkpt><trkpt lat="39.392073168990954" lon="8.402168735198254"><ele>157.5</ele><time>2026-04-06T09:02:13.001Z</time></trkpt><trkpt lat="39.39195536862274" lon="8.402235474654384"><ele>155.75</ele><time>2026-04-06T09:02:14.001Z</time></trkpt><trkpt lat="39.3918322617278" lon="8.402306835355171"><ele>154.0</ele><time>2026-04-06T09:02:15.001Z</time></trkpt><trkpt lat="39.39171547658728" lon="8.402394629394449"><ele>154.0</ele><time>2026-04-06T09:02:16.001Z</time></trkpt><trkpt lat="39.39161207369932" lon="8.402509905420555"><ele>154.0</ele><time>2026-04-06T09:02:17.001Z</time></trkpt><trkpt lat="39.39153216589953" lon="8.402638662428645"><ele>154.0</ele><time>2026-04-06T09:02:18.001Z</time></trkpt><trkpt lat="39.391461206076436" lon="8.402763925385775"><ele>154.0</ele><time>2026-04-06T09:02:19.001Z</time></trkpt><trkpt lat="39.39140884670986" lon="8.402886148816773"><ele>155.0</ele><time>2026-04-06T09:02:20.001Z</time></trkpt><trkpt lat="39.39135781578395" lon="8.402997734073166"><ele>156.0</ele><time>2026-04-06T09:02:21.001Z</time></trkpt><trkpt lat="39.391292953907204" lon="8.40310305804975"><ele>157.0</ele><time>2026-04-06T09:02:22.001Z</time></trkpt><trkpt lat="39.39121433802966" lon="8.403208974635225"><ele>158.0</ele><time>2026-04-06T09:02:23.001Z</time></trkpt><trkpt lat="39.39112512057998" lon="8.403303054138222"><ele>159.0</ele><time>2026-04-06T09:02:24.001Z</time></trkpt><trkpt lat="39.39101878054425" lon="8.403379164857764"><ele>159.0</ele><time>2026-04-06T09:02:25.001Z</time></trkpt><trkpt lat="39.390896303383265" lon="8.403448288874124"><ele>159.0</ele><time>2026-04-06T09:02:26.001Z</time></trkpt><trkpt lat="39.3907541319123" lon="8.403518966841299"><ele>159.0</ele><time>2026-04-06T09:02:27Z</time></trkpt><trkpt lat="39.39058494994999" lon="8.403580004388102"><ele>156.33333333333334</ele><time>2026-04-06T09:02:28Z</time></trkpt><trkpt lat="39.39040438170284" lon="8.403693654577472"><ele>153.66666666666669</ele><time>2026-04-06T09:02:29Z</time></trkpt><trkpt lat="39.39022642511146" lon="8.403856330756295"><ele>151.0</ele><time>2026-04-06T09:02:30Z</time></trkpt><trkpt lat="39.3900359107862" lon="8.404015243428956"><ele>151.0</ele><time>2026-04-06T09:02:31Z</time></trkpt><trkpt lat="39.38986305151509" lon="8.404145065071875"><ele>151.0</ele><time>2026-04-06T09:02:32Z</time></trkpt><trkpt lat="39.38969363931987" lon="8.404254630506363"><ele>151.0</ele><time>2026-04-06T09:02:33Z</time></trkpt><trkpt lat="39.38952991866387" lon="8.404350357151154"><ele>158.0</ele><time>2026-04-06T09:02:34Z</time></trkpt><trkpt lat="39.38936561885638" lon="8.404441337036406"><ele>165.0</ele><time>2026-04-06T09:02:35Z</time></trkpt><trkpt lat="39.3892008501452" lon="8.404521969961555"><ele>172.0</ele><time>2026-04-06T09:02:36Z</time></trkpt><trkpt lat="39.38903510056724" lon="8.404580590890534"><ele>172.0</ele><time>2026-04-06T09:02:37Z</time></trkpt><trkpt lat="39.388866792613214" lon="8.404614859274162"><ele>172.0</ele><time>2026-04-06T09:02:38Z</time></trkpt><trkpt lat="39.388688161620514" lon="8.404633755679404"><ele>172.0</ele><time>2026-04-06T09:02:39Z</time></trkpt><trkpt lat="39.38850744422076" lon="8.404643926264077"><ele>174.33333333333334</ele><time>2026-04-06T09:02:40Z</time></trkpt><trkpt lat="39.38832937577548" lon="8.404649927159946"><ele>176.66666666666666</ele><time>2026-04-06T09:02:41Z</time></trkpt><trkpt lat="39.38814886918583" lon="8.40466225086814"><ele>179.0</ele><time>2026-04-06T09:02:42Z</time></trkpt><trkpt lat="39.38796710586998" lon="8.404685961278211"><ele>169.0</ele><time>2026-04-06T09:02:43Z</time></trkpt><trkpt lat="39.387780174413706" lon="8.404722870117983"><ele>159.0</ele><time>2026-04-06T09:02:44Z</time></trkpt><trkpt lat="39.38759410690959" lon="8.40476972811875"><ele>149.0</ele><time>2026-04-06T09:02:45Z</time></trkpt><trkpt lat="39.38740916915113" lon="8.404826121244207"><ele>149.0</ele><time>2026-04-06T09:02:46Z</time></trkpt><trkpt lat="39.38723473044214" lon="8.404876157474666"><ele>149.0</ele><time>2026-04-06T09:02:47Z</time></trkpt><trkpt lat="39.38706626967945" lon="8.404922059277263"><ele>149.0</ele><time>2026-04-06T09:02:48Z</time></trkpt><trkpt lat="39.38690256634491" lon="8.404975090518697"><ele>151.33333333333331</ele><time>2026-04-06T09:02:49Z</time></trkpt><trkpt lat="39.38675488943245" lon="8.405053458925721"><ele>153.66666666666666</ele><time>2026-04-06T09:02:50Z</time></trkpt><trkpt lat="39.386621827674915" lon="8.405158739256127"><ele>156.0</ele><time>2026-04-06T09:02:51Z</time></trkpt><trkpt lat="39.38649084157061" lon="8.405295374642204"><ele>156.0</ele><time>2026-04-06T09:02:52Z</time></trkpt><trkpt lat="39.386367029782654" lon="8.405458276607284"><ele>156.0</ele><time>2026-04-06T09:02:53Z</time></trkpt><trkpt lat="39.38625391614794" lon="8.405627643330545"><ele>156.0</ele><time>2026-04-06T09:02:54Z</time></trkpt><trkpt lat="39.38614427798526" lon="8.405791127350007"><ele>155.0</ele><time>2026-04-06T09:02:55Z</time></trkpt><trkpt lat="39.38603715105242" lon="8.40594486804144"><ele>154.0</ele><time>2026-04-06T09:02:56Z</time></trkpt><trkpt lat="39.385933743889034" lon="8.406087765578524"><ele>153.0</ele><time>2026-04-06T09:02:57Z</time></trkpt><trkpt lat="39.38584303772773" lon="8.406218328640472"><ele>152.0</ele><time>2026-04-06T09:02:58Z</time></trkpt><trkpt lat="39.385782758132336" lon="8.406342397241778"><ele>148.6</ele><time>2026-04-06T09:02:59Z</time></trkpt><trkpt lat="39.3857378857339" lon="8.406471982311757"><ele>145.2</ele><time>2026-04-06T09:03:00Z</time></trkpt><trkpt lat="39.385742624709984" lon="8.406609234680099"><ele>141.8</ele><time>2026-04-06T09:03:01Z</time></trkpt><trkpt lat="39.38579100006461" lon="8.406744994770643"><ele>138.4</ele><time>2026-04-06T09:03:02Z</time></trkpt><trkpt lat="39.385866302429164" lon="8.406837557739628"><ele>135.0</ele><time>2026-04-06T09:03:03Z</time></trkpt><trkpt lat="39.38598059828777" lon="8.406882933885889"><ele>135.0</ele><time>2026-04-06T09:03:04Z</time></trkpt><trkpt lat="39.386105030110635" lon="8.406853647928507"><ele>135.0</ele><time>2026-04-06T09:03:05Z</time></trkpt><trkpt lat="39.38623737706164" lon="8.406806273829224"><ele>135.0</ele><time>2026-04-06T09:03:06Z</time></trkpt><trkpt lat="39.38638660890293" lon="8.406737232839854"><ele>135.0</ele><time>2026-04-06T09:03:07Z</time></trkpt><trkpt lat="39.386559895965064" lon="8.406669925768355"><ele>130.66666666666666</ele><time>2026-04-06T09:03:08Z</time></trkpt><trkpt lat="39.386731007441554" lon="8.406604387440877"><ele>126.33333333333333</ele><time>2026-04-06T09:03:09Z</time></trkpt><trkpt lat="39.386898547983314" lon="8.406537689754472"><ele>122.0</ele><time>2026-04-06T09:03:10Z</time></trkpt><trkpt lat="39.387069090575444" lon="8.406466280220343"><ele>118.66666666666666</ele><time>2026-04-06T09:03:11Z</time></trkpt><trkpt lat="39.38723609519273" lon="8.406410332617337"><ele>115.33333333333334</ele><time>2026-04-06T09:03:12Z</time></trkpt><trkpt lat="39.38740290781893" lon="8.406384829183425"><ele>112.0</ele><time>2026-04-06T09:03:13Z</time></trkpt><trkpt lat="39.38756766270514" lon="8.406392696289622"><ele>112.0</ele><time>2026-04-06T09:03:14Z</time></trkpt><trkpt lat="39.38772930596535" lon="8.40642213504373"><ele>112.0</ele><time>2026-04-06T09:03:15Z</time></trkpt><trkpt lat="39.38789206291831" lon="8.4064584920708"><ele>112.0</ele><time>2026-04-06T09:03:16Z</time></trkpt><trkpt lat="39.388055688073045" lon="8.406486176074235"><ele>109.0</ele><time>2026-04-06T09:03:17Z</time></trkpt><trkpt lat="39.38821323730138" lon="8.40649010524448"><ele>106.0</ele><time>2026-04-06T09:03:18Z</time></trkpt><trkpt lat="39.388364660962324" lon="8.406455102872725"><ele>103.0</ele><time>2026-04-06T09:03:19Z</time></trkpt><trkpt lat="39.38850582876772" lon="8.406382105358057"><ele>103.33333333333334</ele><time>2026-04-06T09:03:20Z</time></trkpt><trkpt lat="39.38864421544124" lon="8.406284441268513"><ele>103.66666666666666</ele><time>2026-04-06T09:03:21Z</time></trkpt><trkpt lat="39.38878828612442" lon="8.406177506398633"><ele>104.0</ele><time>2026-04-06T09:03:22Z</time></trkpt><trkpt lat="39.38894363957413" lon="8.40609318723807"><ele>104.0</ele><time>2026-04-06T09:03:23Z</time></trkpt><trkpt lat="39.389108973874336" lon="8.406037711313552"><ele>104.0</ele><time>2026-04-06T09:03:24Z</time></trkpt><trkpt lat="39.38926897033482" lon="8.405998756362305"><ele>104.0</ele><time>2026-04-06T09:03:25Z</time></trkpt><trkpt lat="39.38942338455083" lon="8.405964624873077"><ele>104.0</ele><time>2026-04-06T09:03:26Z</time></trkpt><trkpt lat="39.389559009826556" lon="8.40594133868618"><ele>104.0</ele><time>2026-04-06T09:03:27Z</time></trkpt><trkpt lat="39.38968843824763" lon="8.405950469448332"><ele>104.0</ele><time>2026-04-06T09:03:28Z</time></trkpt><trkpt lat="39.389804645041295" lon="8.405997065240658"><ele>104.0</ele><time>2026-04-06T09:03:29Z</time></trkpt><trkpt lat="39.38990800719177" lon="8.406050605016945"><ele>101.0</ele><time>2026-04-06T09:03:30Z</time></trkpt><trkpt lat="39.39000595929074" lon="8.406065458424079"><ele>98.0</ele><time>2026-04-06T09:03:31Z</time></trkpt><trkpt lat="39.390102056385665" lon="8.406031440121678"><ele>95.0</ele><time>2026-04-06T09:03:32Z</time></trkpt><trkpt lat="39.39018978070994" lon="8.405974302750932"><ele>92.0</ele><time>2026-04-06T09:03:33Z</time></trkpt><trkpt lat="39.390280307876516" lon="8.40591383206962"><ele>89.0</ele><time>2026-04-06T09:03:34Z</time></trkpt><trkpt lat="39.39037774561775" lon="8.405844699953636"><ele>89.0</ele><time>2026-04-06T09:03:35Z</time></trkpt><trkpt lat="39.39047485586239" lon="8.405767235098212"><ele>89.0</ele><time>2026-04-06T09:03:36Z</time></trkpt><trkpt lat="39.39057078301294" lon="8.405691004694253"><ele>89.0</ele><time>2026-04-06T09:03:37Z</time></trkpt><trkpt lat="39.39066693569608" lon="8.405612062964092"><ele>89.0</ele><time>2026-04-06T09:03:38Z</time></trkpt><trkpt lat="39.390767759734274" lon="8.405531388437913"><ele>87.75</ele><time>2026-04-06T09:03:39Z</time></trkpt><trkpt lat="39.39086713740221" lon="8.405452548277593"><ele>86.5</ele><time>2026-04-06T09:03:40Z</time></trkpt><trkpt lat="39.39097239828331" lon="8.405368123339425"><ele>85.25</ele><time>2026-04-06T09:03:41Z</time></trkpt><trkpt lat="39.39107447615318" lon="8.405294073760995"><ele>84.0</ele><time>2026-04-06T09:03:42Z</time></trkpt><trkpt lat="39.39117357521248" lon="8.40523356506796"><ele>84.0</ele><time>2026-04-06T09:03:43Z</time></trkpt><trkpt lat="39.39127262471867" lon="8.405196661264444"><ele>84.0</ele><time>2026-04-06T09:03:44Z</time></trkpt><trkpt lat="39.391381961078075" lon="8.405174859637363"><ele>84.0</ele><time>2026-04-06T09:03:45Z</time></trkpt><trkpt lat="39.39148751130599" lon="8.40517345811544"><ele>84.0</ele><time>2026-04-06T09:03:46Z</time></trkpt><trkpt lat="39.39159308055284" lon="8.405197424095412"><ele>84.0</ele><time>2026-04-06T09:03:47Z</time></trkpt><trkpt lat="39.391698273204604" lon="8.405233271794911"><ele>79.75</ele><time>2026-04-06T09:03:48Z</time></trkpt><trkpt lat="39.39181612473959" lon="8.405244572005914"><ele>75.5</ele><time>2026-04-06T09:03:49Z</time></trkpt><trkpt lat="39.39192829671791" lon="8.405216032303668"><ele>71.25</ele><time>2026-04-06T09:03:50Z</time></trkpt><trkpt lat="39.39202978988517" lon="8.405170289499504"><ele>67.0</ele><time>2026-04-06T09:03:51Z</time></trkpt><trkpt lat="39.39213944874445" lon="8.40511326821174"><ele>66.75</ele><time>2026-04-06T09:03:52Z</time></trkpt><trkpt lat="39.3922622224706" lon="8.40505612032138"><ele>66.5</ele><time>2026-04-06T09:03:53Z</time></trkpt><trkpt lat="39.39239346265235" lon="8.405000347744906"><ele>66.25</ele><time>2026-04-06T09:03:54Z</time></trkpt><trkpt lat="39.392533376950844" lon="8.404946056367894"><ele>66.0</ele><time>2026-04-06T09:03:55Z</time></trkpt><trkpt lat="39.39268436310564" lon="8.404892845220704"><ele>66.0</ele><time>2026-04-06T09:03:56Z</time></trkpt><trkpt lat="39.392848035757524" lon="8.40482434360601"><ele>66.0</ele><time>2026-04-06T09:03:57Z</time></trkpt><trkpt lat="39.39300592473597" lon="8.404747211452904"><ele>66.0</ele><time>2026-04-06T09:03:58Z</time></trkpt><trkpt lat="39.393169235496075" lon="8.404661085019942"><ele>62.33333333333333</ele><time>2026-04-06T09:03:59Z</time></trkpt><trkpt lat="39.39333779318674" lon="8.40455456996245"><ele>58.666666666666664</ele><time>2026-04-06T09:04:00Z</time></trkpt><trkpt lat="39.3934887312455" lon="8.404433708319733"><ele>55.0</ele><time>2026-04-06T09:04:01Z</time></trkpt><trkpt lat="39.393633898869034" lon="8.404293701309964"><ele>55.0</ele><time>2026-04-06T09:04:02Z</time></trkpt><trkpt lat="39.3937635078056" lon="8.404152894369195"><ele>55.0</ele><time>2026-04-06T09:04:03Z</time></trkpt><trkpt lat="39.393883298419134" lon="8.404024857055196"><ele>55.0</ele><time>2026-04-06T09:04:04.001Z</time></trkpt><trkpt lat="39.39400755849151" lon="8.403928510503826"><ele>57.5</ele><time>2026-04-06T09:04:05.001Z</time></trkpt><trkpt lat="39.39414769504821" lon="8.403910903434857"><ele>60.0</ele><time>2026-04-06T09:04:06.001Z</time></trkpt><trkpt lat="39.39427755428048" lon="8.403904396825531"><ele>62.5</ele><time>2026-04-06T09:04:07.001Z</time></trkpt><trkpt lat="39.39442385311198" lon="8.40392020282218"><ele>65.0</ele><time>2026-04-06T09:04:08.001Z</time></trkpt><trkpt lat="39.39457357322661" lon="8.403991162730886"><ele>68.0</ele><time>2026-04-06T09:04:09.001Z</time></trkpt><trkpt lat="39.39472033514129" lon="8.404073615094443"><ele>71.0</ele><time>2026-04-06T09:04:10.001Z</time></trkpt><trkpt lat="39.39488191037701" lon="8.404123144051475"><ele>74.0</ele><time>2026-04-06T09:04:11.001Z</time></trkpt><trkpt lat="39.395045622843035" lon="8.404125147160963"><ele>74.0</ele><time>2026-04-06T09:04:12.001Z</time></trkpt><trkpt lat="39.39520575910726" lon="8.404104718874564"><ele>74.0</ele><time>2026-04-06T09:04:13.001Z</time></trkpt><trkpt lat="39.39536012475907" lon="8.404056198247494"><ele>74.0</ele><time>2026-04-06T09:04:14.001Z</time></trkpt><trkpt lat="39.39549474567488" lon="8.403965549624743"><ele>72.33333333333334</ele><time>2026-04-06T09:04:15.001Z</time></trkpt><trkpt lat="39.39562539392767" lon="8.403854623631881"><ele>70.66666666666667</ele><time>2026-04-06T09:04:16.001Z</time></trkpt><trkpt lat="39.39575863996441" lon="8.403748598184782"><ele>69.0</ele><time>2026-04-06T09:04:17Z</time></trkpt><trkpt lat="39.39588019383843" lon="8.403659137860963"><ele>69.0</ele><time>2026-04-06T09:04:18Z</time></trkpt><trkpt lat="39.39599217347509" lon="8.403585006931609"><ele>69.0</ele><time>2026-04-06T09:04:19Z</time></trkpt><trkpt lat="39.396108144583245" lon="8.403532147919368"><ele>69.0</ele><time>2026-04-06T09:04:20Z</time></trkpt><trkpt lat="39.396228433851306" lon="8.403502322593848"><ele>69.0</ele><time>2026-04-06T09:04:21Z</time></trkpt><trkpt lat="39.3963529771166" lon="8.403485493063187"><ele>70.0</ele><time>2026-04-06T09:04:22Z</time></trkpt><trkpt lat="39.39648500700334" lon="8.403480049925406"><ele>71.0</ele><time>2026-04-06T09:04:23Z</time></trkpt><trkpt lat="39.39662105693242" lon="8.403480246751919"><ele>72.0</ele><time>2026-04-06T09:04:24Z</time></trkpt><trkpt lat="39.39675095586601" lon="8.403484991536223"><ele>73.0</ele><time>2026-04-06T09:04:25Z</time></trkpt><trkpt lat="39.39687660184474" lon="8.403482386044397"><ele>73.0</ele><time>2026-04-06T09:04:26Z</time></trkpt><trkpt lat="39.39701113567791" lon="8.403472887280728"><ele>73.0</ele><time>2026-04-06T09:04:27Z</time></trkpt><trkpt lat="39.39714908693645" lon="8.403449828919978"><ele>73.0</ele><time>2026-04-06T09:04:28Z</time></trkpt><trkpt lat="39.397286772871674" lon="8.403411852352983"><ele>73.0</ele><time>2026-04-06T09:04:29Z</time></trkpt><trkpt lat="39.397424943364186" lon="8.40336693653414"><ele>72.0</ele><time>2026-04-06T09:04:30Z</time></trkpt><trkpt lat="39.397560987625404" lon="8.403319923212866"><ele>71.0</ele><time>2026-04-06T09:04:31Z</time></trkpt><trkpt lat="39.39769442324207" lon="8.403272198842066"><ele>70.0</ele><time>2026-04-06T09:04:32Z</time></trkpt><trkpt lat="39.39782460821606" lon="8.403229618694708"><ele>69.0</ele><time>2026-04-06T09:04:33Z</time></trkpt><trkpt lat="39.397953871946385" lon="8.403194365489618"><ele>69.25</ele><time>2026-04-06T09:04:34Z</time></trkpt><trkpt lat="39.398083386723265" lon="8.403163583807157"><ele>69.5</ele><time>2026-04-06T09:04:35Z</time></trkpt><trkpt lat="39.39821287062624" lon="8.40313167700055"><ele>69.75</ele><time>2026-04-06T09:04:36Z</time></trkpt><trkpt lat="39.39833837882694" lon="8.403083705159233"><ele>70.0</ele><time>2026-04-06T09:04:37Z</time></trkpt><trkpt lat="39.398467296054555" lon="8.403028810880086"><ele>66.0</ele><time>2026-04-06T09:04:38Z</time></trkpt><trkpt lat="39.3985955362621" lon="8.40296856088565"><ele>62.0</ele><time>2026-04-06T09:04:39Z</time></trkpt><trkpt lat="39.39872449054558" lon="8.402907342407634"><ele>58.0</ele><time>2026-04-06T09:04:40Z</time></trkpt><trkpt lat="39.39885452400858" lon="8.402850576774737"><ele>54.0</ele><time>2026-04-06T09:04:41Z</time></trkpt><trkpt lat="39.398983830921125" lon="8.402802679072098"><ele>54.0</ele><time>2026-04-06T09:04:42Z</time></trkpt><trkpt lat="39.3991131329141" lon="8.402761746640902"><ele>54.0</ele><time>2026-04-06T09:04:43Z</time></trkpt><trkpt lat="39.399248465230905" lon="8.402715982169793"><ele>54.0</ele><time>2026-04-06T09:04:44Z</time></trkpt><trkpt lat="39.399383967345585" lon="8.402665543547291"><ele>54.0</ele><time>2026-04-06T09:04:45Z</time></trkpt><trkpt lat="39.39951316516334" lon="8.402599241062198"><ele>54.0</ele><time>2026-04-06T09:04:46Z</time></trkpt><trkpt lat="39.39963167267379" lon="8.40251978340577"><ele>54.0</ele><time>2026-04-06T09:04:47Z</time></trkpt><trkpt lat="39.39974402328681" lon="8.402435053188146"><ele>54.0</ele><time>2026-04-06T09:04:48Z</time></trkpt><trkpt lat="39.39985423121079" lon="8.402357836487594"><ele>54.0</ele><time>2026-04-06T09:04:49Z</time></trkpt><trkpt lat="39.399977719429714" lon="8.402312410011735"><ele>56.400000000000006</ele><time>2026-04-06T09:04:50Z</time></trkpt><trkpt lat="39.400080597657436" lon="8.402240062241791"><ele>58.800000000000004</ele><time>2026-04-06T09:04:51Z</time></trkpt><trkpt lat="39.40018618205572" lon="8.402197321034357"><ele>61.199999999999996</ele><time>2026-04-06T09:04:52Z</time></trkpt><trkpt lat="39.40029007543856" lon="8.402154632909701"><ele>63.599999999999994</ele><time>2026-04-06T09:04:53Z</time></trkpt><trkpt lat="39.400392289648224" lon="8.402115914055122"><ele>66.0</ele><time>2026-04-06T09:04:54Z</time></trkpt><trkpt lat="39.400495954480064" lon="8.402094551400651"><ele>64.8</ele><time>2026-04-06T09:04:55Z</time></trkpt><trkpt lat="39.40059318123247" lon="8.402116830545825"><ele>63.599999999999994</ele><time>2026-04-06T09:04:56Z</time></trkpt><trkpt lat="39.40067765938627" lon="8.40217916331766"><ele>62.4</ele><time>2026-04-06T09:04:57Z</time></trkpt><trkpt lat="39.40075873406852" lon="8.402261451489679"><ele>61.2</ele><time>2026-04-06T09:04:58Z</time></trkpt><trkpt lat="39.4008433478555" lon="8.40235038456333"><ele>60.0</ele><time>2026-04-06T09:04:59Z</time></trkpt><trkpt lat="39.40092694643193" lon="8.402431106728248"><ele>60.0</ele><time>2026-04-06T09:05:00Z</time></trkpt><trkpt lat="39.40101348721423" lon="8.40250653042619"><ele>60.0</ele><time>2026-04-06T09:05:01Z</time></trkpt><trkpt lat="39.401110190579395" lon="8.40256780909229"><ele>60.0</ele><time>2026-04-06T09:05:02Z</time></trkpt><trkpt lat="39.40121715262957" lon="8.402606560179374"><ele>60.0</ele><time>2026-04-06T09:05:03Z</time></trkpt><trkpt lat="39.4013276824843" lon="8.402627161716746"><ele>60.0</ele><time>2026-04-06T09:05:04Z</time></trkpt><trkpt lat="39.401441284571604" lon="8.4026424056651"><ele>55.25</ele><time>2026-04-06T09:05:05Z</time></trkpt><trkpt lat="39.4015585324868" lon="8.402659737842905"><ele>50.5</ele><time>2026-04-06T09:05:06Z</time></trkpt><trkpt lat="39.401674180432174" lon="8.402682124068185"><ele>45.75</ele><time>2026-04-06T09:05:07Z</time></trkpt><trkpt lat="39.40178733362294" lon="8.402705668985641"><ele>41.0</ele><time>2026-04-06T09:05:08Z</time></trkpt><trkpt lat="39.401897357569325" lon="8.402726301012473"><ele>41.0</ele><time>2026-04-06T09:05:09Z</time></trkpt><trkpt lat="39.40200585526766" lon="8.402747156455975"><ele>41.0</ele><time>2026-04-06T09:05:10Z</time></trkpt><trkpt lat="39.40211284816021" lon="8.402766848122036"><ele>41.0</ele><time>2026-04-06T09:05:11Z</time></trkpt><trkpt lat="39.402217241009076" lon="8.402787058643879"><ele>41.0</ele><time>2026-04-06T09:05:12Z</time></trkpt><trkpt lat="39.402321539646444" lon="8.402807521030281"><ele>41.0</ele><time>2026-04-06T09:05:13Z</time></trkpt><trkpt lat="39.4024228662508" lon="8.402835453425507"><ele>38.199999999999996</ele><time>2026-04-06T09:05:14Z</time></trkpt><trkpt lat="39.40251801372409" lon="8.402878875114267"><ele>35.4</ele><time>2026-04-06T09:05:15Z</time></trkpt><trkpt lat="39.40260263296145" lon="8.402944535674598"><ele>32.6</ele><time>2026-04-06T09:05:16Z</time></trkpt><trkpt lat="39.40267607721355" lon="8.403031786031269"><ele>29.8</ele><time>2026-04-06T09:05:17Z</time></trkpt><trkpt lat="39.40274496554635" lon="8.403135842832322"><ele>27.0</ele><time>2026-04-06T09:05:18Z</time></trkpt><trkpt lat="39.40281155945939" lon="8.403245574359532"><ele>29.0</ele><time>2026-04-06T09:05:19Z</time></trkpt><trkpt lat="39.40284244833143" lon="8.403362236542574"><ele>31.000000000000004</ele><time>2026-04-06T09:05:20Z</time></trkpt><trkpt lat="39.402877089966935" lon="8.403451875661311"><ele>33.0</ele><time>2026-04-06T09:05:21Z</time></trkpt><trkpt lat="39.40293785929808" lon="8.403561246380272"><ele>35.0</ele><time>2026-04-06T09:05:23Z</time></trkpt><trkpt lat="39.40297065733895" lon="8.403665297791589"><ele>37.0</ele><time>2026-04-06T09:05:25Z</time></trkpt><trkpt lat="39.403017186567396" lon="8.403760729140187"><ele>42.2</ele><time>2026-04-06T09:05:27Z</time></trkpt><trkpt lat="39.40307402840199" lon="8.403860348730438"><ele>47.400000000000006</ele><time>2026-04-06T09:05:29Z</time></trkpt><trkpt lat="39.40315693854033" lon="8.403984724619646"><ele>52.599999999999994</ele><time>2026-04-06T09:05:31Z</time></trkpt><trkpt lat="39.40322470857836" lon="8.404047354249752"><ele>57.8</ele><time>2026-04-06T09:05:32Z</time></trkpt><trkpt lat="39.40329824782503" lon="8.404092806822508"><ele>63.0</ele><time>2026-04-06T09:05:33Z</time></trkpt><trkpt lat="39.40337211278247" lon="8.40413097128581"><ele>63.0</ele><time>2026-04-06T09:05:34Z</time></trkpt><trkpt lat="39.403442795184056" lon="8.404180836169788"><ele>63.0</ele><time>2026-04-06T09:05:35Z</time></trkpt><trkpt lat="39.403522253940174" lon="8.40422865976941"><ele>63.0</ele><time>2026-04-06T09:05:36Z</time></trkpt><trkpt lat="39.40360604948121" lon="8.404278604232662"><ele>63.0</ele><time>2026-04-06T09:05:37Z</time></trkpt><trkpt lat="39.40369505858456" lon="8.404334796434753"><ele>63.0</ele><time>2026-04-06T09:05:38Z</time></trkpt><trkpt lat="39.40378925616593" lon="8.404395938505802"><ele>61.0</ele><time>2026-04-06T09:05:39Z</time></trkpt><trkpt lat="39.40388681440546" lon="8.40445924263953"><ele>59.0</ele><time>2026-04-06T09:05:40Z</time></trkpt><trkpt lat="39.40398355557947" lon="8.404515397890092"><ele>57.0</ele><time>2026-04-06T09:05:41Z</time></trkpt><trkpt lat="39.40408521954935" lon="8.404566722109934"><ele>55.0</ele><time>2026-04-06T09:05:42Z</time></trkpt><trkpt lat="39.40419462919949" lon="8.404614252891715"><ele>53.0</ele><time>2026-04-06T09:05:43Z</time></trkpt><trkpt lat="39.40430657473122" lon="8.404662650283663"><ele>58.25</ele><time>2026-04-06T09:05:44Z</time></trkpt><trkpt lat="39.40443273541316" lon="8.40471450313621"><ele>63.5</ele><time>2026-04-06T09:05:45Z</time></trkpt><trkpt lat="39.4045655483816" lon="8.404769599943391"><ele>68.75</ele><time>2026-04-06T09:05:46Z</time></trkpt><trkpt lat="39.404697081945436" lon="8.404820195318056"><ele>74.0</ele><time>2026-04-06T09:05:47Z</time></trkpt><trkpt lat="39.40481625197491" lon="8.404859542197379"><ele>74.0</ele><time>2026-04-06T09:05:48Z</time></trkpt><trkpt lat="39.404940888665855" lon="8.404876456860823"><ele>74.0</ele><time>2026-04-06T09:05:49Z</time></trkpt><trkpt lat="39.40507752024949" lon="8.40487510744284"><ele>74.0</ele><time>2026-04-06T09:05:50Z</time></trkpt><trkpt lat="39.40520971512702" lon="8.404867074718398"><ele>74.0</ele><time>2026-04-06T09:05:51Z</time></trkpt><trkpt lat="39.40532002122907" lon="8.404861732320843"><ele>74.0</ele><time>2026-04-06T09:05:52Z</time></trkpt><trkpt lat="39.405424811838714" lon="8.404858474884724"><ele>74.0</ele><time>2026-04-06T09:05:53Z</time></trkpt><trkpt lat="39.405565442543946" lon="8.404862143813203"><ele>74.0</ele><time>2026-04-06T09:05:54Z</time></trkpt><trkpt lat="39.40567450824912" lon="8.404854785660474"><ele>74.0</ele><time>2026-04-06T09:05:55Z</time></trkpt><trkpt lat="39.4057774910546" lon="8.40484047043937"><ele>75.80000000000001</ele><time>2026-04-06T09:05:56Z</time></trkpt><trkpt lat="39.40587776084457" lon="8.404796065323874"><ele>77.60000000000001</ele><time>2026-04-06T09:05:57Z</time></trkpt><trkpt lat="39.40597693813889" lon="8.404761666691119"><ele>79.4</ele><time>2026-04-06T09:05:58Z</time></trkpt><trkpt lat="39.40607355306489" lon="8.404738489986611"><ele>81.2</ele><time>2026-04-06T09:05:59Z</time></trkpt><trkpt lat="39.40616734295069" lon="8.404707362784233"><ele>83.0</ele><time>2026-04-06T09:06:00Z</time></trkpt><trkpt lat="39.40627377444101" lon="8.40469563632513"><ele>81.0</ele><time>2026-04-06T09:06:01Z</time></trkpt><trkpt lat="39.406383807307755" lon="8.404738775027793"><ele>79.0</ele><time>2026-04-06T09:06:02Z</time></trkpt><trkpt lat="39.40650246791042" lon="8.404804353382222"><ele>77.0</ele><time>2026-04-06T09:06:03Z</time></trkpt><trkpt lat="39.40663555583594" lon="8.404872279984444"><ele>75.0</ele><time>2026-04-06T09:06:04Z</time></trkpt><trkpt lat="39.40677055073215" lon="8.404954413834545"><ele>75.0</ele><time>2026-04-06T09:06:05Z</time></trkpt><trkpt lat="39.40691318552454" lon="8.405038601462703"><ele>75.0</ele><time>2026-04-06T09:06:06Z</time></trkpt><trkpt lat="39.407066221584955" lon="8.405126814041713"><ele>75.0</ele><time>2026-04-06T09:06:07Z</time></trkpt><trkpt lat="39.40722145879443" lon="8.405215703798348"><ele>71.33333333333333</ele><time>2026-04-06T09:06:08Z</time></trkpt><trkpt lat="39.40736532898564" lon="8.405295842015736"><ele>67.66666666666666</ele><time>2026-04-06T09:06:09Z</time></trkpt><trkpt lat="39.40750053071438" lon="8.405370672418446"><ele>64.0</ele><time>2026-04-06T09:06:10Z</time></trkpt><trkpt lat="39.407645290681245" lon="8.405452624101814"><ele>67.66666666666666</ele><time>2026-04-06T09:06:11Z</time></trkpt><trkpt lat="39.40779286074242" lon="8.405545265718748"><ele>71.33333333333333</ele><time>2026-04-06T09:06:12Z</time></trkpt><trkpt lat="39.407945843354305" lon="8.405643787228334"><ele>75.0</ele><time>2026-04-06T09:06:13Z</time></trkpt><trkpt lat="39.408100966165186" lon="8.405735391888847"><ele>75.0</ele><time>2026-04-06T09:06:14Z</time></trkpt><trkpt lat="39.4082507089124" lon="8.40582484261022"><ele>75.0</ele><time>2026-04-06T09:06:15Z</time></trkpt><trkpt lat="39.40838956767071" lon="8.405899044684102"><ele>75.0</ele><time>2026-04-06T09:06:16Z</time></trkpt><trkpt lat="39.408533433985596" lon="8.405982672075135"><ele>75.0</ele><time>2026-04-06T09:06:17Z</time></trkpt><trkpt lat="39.40868052120262" lon="8.406059492769321"><ele>75.0</ele><time>2026-04-06T09:06:18Z</time></trkpt><trkpt lat="39.408835846765975" lon="8.406119516852254"><ele>75.0</ele><time>2026-04-06T09:06:19Z</time></trkpt><trkpt lat="39.40900507364729" lon="8.406151802288436"><ele>72.33333333333333</ele><time>2026-04-06T09:06:20Z</time></trkpt><trkpt lat="39.40918427386183" lon="8.406161515721124"><ele>69.66666666666666</ele><time>2026-04-06T09:06:21Z</time></trkpt><trkpt lat="39.409373517082834" lon="8.406154826145062"><ele>67.0</ele><time>2026-04-06T09:06:22Z</time></trkpt><trkpt lat="39.409566352526795" lon="8.406144954540357"><ele>67.33333333333333</ele><time>2026-04-06T09:06:23Z</time></trkpt><trkpt lat="39.40975964453589" lon="8.40613954725376"><ele>67.66666666666667</ele><time>2026-04-06T09:06:24Z</time></trkpt><trkpt lat="39.40994464170526" lon="8.406135574116645"><ele>68.0</ele><time>2026-04-06T09:06:25Z</time></trkpt><trkpt lat="39.41012596179037" lon="8.406131456141388"><ele>68.0</ele><time>2026-04-06T09:06:26Z</time></trkpt><trkpt lat="39.410305067206124" lon="8.406131882701414"><ele>68.0</ele><time>2026-04-06T09:06:27Z</time></trkpt><trkpt lat="39.410473131906954" lon="8.406143759948877"><ele>68.0</ele><time>2026-04-06T09:06:28Z</time></trkpt><trkpt lat="39.41062863146547" lon="8.406180591502787"><ele>66.66666666666667</ele><time>2026-04-06T09:06:29Z</time></trkpt><trkpt lat="39.410778312176994" lon="8.406248279539458"><ele>65.33333333333333</ele><time>2026-04-06T09:06:30Z</time></trkpt><trkpt lat="39.41091835481848" lon="8.406333305690033"><ele>64.0</ele><time>2026-04-06T09:06:31Z</time></trkpt><trkpt lat="39.41104944757367" lon="8.406411322536522"><ele>63.5</ele><time>2026-04-06T09:06:32Z</time></trkpt><trkpt lat="39.41118329612469" lon="8.406478887076451"><ele>63.0</ele><time>2026-04-06T09:06:33Z</time></trkpt><trkpt lat="39.4113230623058" lon="8.406547624448223"><ele>62.5</ele><time>2026-04-06T09:06:34Z</time></trkpt><trkpt lat="39.41146707520469" lon="8.406622108251806"><ele>62.0</ele><time>2026-04-06T09:06:35Z</time></trkpt><trkpt lat="39.411613629256564" lon="8.406699789312192"><ele>62.0</ele><time>2026-04-06T09:06:36Z</time></trkpt><trkpt lat="39.41175332885336" lon="8.40677991827919"><ele>62.0</ele><time>2026-04-06T09:06:37Z</time></trkpt><trkpt lat="39.41188311923086" lon="8.406874703650823"><ele>62.0</ele><time>2026-04-06T09:06:38Z</time></trkpt><trkpt lat="39.412007286455385" lon="8.406999950230313"><ele>62.0</ele><time>2026-04-06T09:06:39Z</time></trkpt><trkpt lat="39.412120113492335" lon="8.40715638401414"><ele>62.0</ele><time>2026-04-06T09:06:40Z</time></trkpt><trkpt lat="39.41223741031244" lon="8.407340859444586"><ele>62.0</ele><time>2026-04-06T09:06:41Z</time></trkpt><trkpt lat="39.41235335199556" lon="8.407514185384231"><ele>60.333333333333336</ele><time>2026-04-06T09:06:42Z</time></trkpt><trkpt lat="39.412471597611045" lon="8.407671653118843"><ele>58.66666666666667</ele><time>2026-04-06T09:06:43Z</time></trkpt><trkpt lat="39.41258382019576" lon="8.407821115386128"><ele>57.0</ele><time>2026-04-06T09:06:44Z</time></trkpt><trkpt lat="39.412681243345254" lon="8.407979048008007"><ele>58.66666666666667</ele><time>2026-04-06T09:06:45Z</time></trkpt><trkpt lat="39.41274841166968" lon="8.408156122038237"><ele>60.333333333333336</ele><time>2026-04-06T09:06:46Z</time></trkpt><trkpt lat="39.41278657454901" lon="8.408346956346985"><ele>62.0</ele><time>2026-04-06T09:06:47Z</time></trkpt><trkpt lat="39.4128123089286" lon="8.40855911984468"><ele>62.0</ele><time>2026-04-06T09:06:48Z</time></trkpt><trkpt lat="39.41282786308504" lon="8.4087716361068"><ele>62.0</ele><time>2026-04-06T09:06:49Z</time></trkpt><trkpt lat="39.412838609473766" lon="8.40898234871366"><ele>62.0</ele><time>2026-04-06T09:06:50Z</time></trkpt><trkpt lat="39.41285107440083" lon="8.409171362410694"><ele>62.75</ele><time>2026-04-06T09:06:51Z</time></trkpt><trkpt lat="39.41288024941227" lon="8.409334456460945"><ele>63.5</ele><time>2026-04-06T09:06:52Z</time></trkpt><trkpt lat="39.412947050684586" lon="8.409474902527542"><ele>64.25</ele><time>2026-04-06T09:06:53Z</time></trkpt><trkpt lat="39.41305238860581" lon="8.409575101188466"><ele>65.0</ele><time>2026-04-06T09:06:54Z</time></trkpt><trkpt lat="39.41318989394225" lon="8.409647376713567"><ele>63.0</ele><time>2026-04-06T09:06:55Z</time></trkpt><trkpt lat="39.41334354968534" lon="8.409697985314091"><ele>61.0</ele><time>2026-04-06T09:06:56Z</time></trkpt><trkpt lat="39.413499388206475" lon="8.409749151598644"><ele>59.0</ele><time>2026-04-06T09:06:57Z</time></trkpt><trkpt lat="39.41365440264864" lon="8.409805698493036"><ele>59.0</ele><time>2026-04-06T09:06:58Z</time></trkpt><trkpt lat="39.41380289431167" lon="8.409860823390645"><ele>59.0</ele><time>2026-04-06T09:06:59Z</time></trkpt><trkpt lat="39.413932244615935" lon="8.409917924503683"><ele>59.0</ele><time>2026-04-06T09:07:00Z</time></trkpt><trkpt lat="39.41405056925372" lon="8.409997786299126"><ele>59.0</ele><time>2026-04-06T09:07:01Z</time></trkpt><trkpt lat="39.41414227399097" lon="8.41011208654229"><ele>59.0</ele><time>2026-04-06T09:07:02Z</time></trkpt><trkpt lat="39.4142096641448" lon="8.410255309425386"><ele>59.0</ele><time>2026-04-06T09:07:03Z</time></trkpt><trkpt lat="39.41426439420478" lon="8.4104120973161"><ele>59.0</ele><time>2026-04-06T09:07:04Z</time></trkpt><trkpt lat="39.41431447328957" lon="8.410556078727332"><ele>59.0</ele><time>2026-04-06T09:07:05Z</time></trkpt><trkpt lat="39.41437986777293" lon="8.410681973046291"><ele>59.0</ele><time>2026-04-06T09:07:06Z</time></trkpt><trkpt lat="39.4144689628115" lon="8.410779369076446"><ele>59.0</ele><time>2026-04-06T09:07:07Z</time></trkpt><trkpt lat="39.41457410442772" lon="8.410840834423125"><ele>59.0</ele><time>2026-04-06T09:07:08Z</time></trkpt><trkpt lat="39.41468785160527" lon="8.410868145965448"><ele>59.0</ele><time>2026-04-06T09:07:09Z</time></trkpt><trkpt lat="39.41480462317934" lon="8.4108769916581"><ele>55.75</ele><time>2026-04-06T09:07:10Z</time></trkpt><trkpt lat="39.41492158075854" lon="8.410884986405524"><ele>52.5</ele><time>2026-04-06T09:07:11Z</time></trkpt><trkpt lat="39.41503950177773" lon="8.410901090910727"><ele>49.25</ele><time>2026-04-06T09:07:12Z</time></trkpt><trkpt lat="39.415154167005944" lon="8.41092352241045"><ele>46.0</ele><time>2026-04-06T09:07:13Z</time></trkpt><trkpt lat="39.415265656675786" lon="8.410944523915981"><ele>46.0</ele><time>2026-04-06T09:07:14Z</time></trkpt><trkpt lat="39.41537393382925" lon="8.41095992525087"><ele>46.0</ele><time>2026-04-06T09:07:15Z</time></trkpt><trkpt lat="39.41547868733112" lon="8.410976586457327"><ele>46.0</ele><time>2026-04-06T09:07:16Z</time></trkpt><trkpt lat="39.41557751703372" lon="8.411000068154031"><ele>46.0</ele><time>2026-04-06T09:07:17Z</time></trkpt><trkpt lat="39.4156742969585" lon="8.411025165576625"><ele>46.0</ele><time>2026-04-06T09:07:18Z</time></trkpt><trkpt lat="39.41577700278823" lon="8.411055363731194"><ele>44.199999999999996</ele><time>2026-04-06T09:07:19Z</time></trkpt><trkpt lat="39.41588058203574" lon="8.411091313798414"><ele>42.4</ele><time>2026-04-06T09:07:20Z</time></trkpt><trkpt lat="39.41598819316073" lon="8.411127118145892"><ele>40.6</ele><time>2026-04-06T09:07:21Z</time></trkpt><trkpt lat="39.41609666780626" lon="8.411162552346356"><ele>38.8</ele><time>2026-04-06T09:07:22Z</time></trkpt><trkpt lat="39.416205956317164" lon="8.41119508697303"><ele>37.0</ele><time>2026-04-06T09:07:23Z</time></trkpt><trkpt lat="39.416316038468224" lon="8.411230941674427"><ele>37.4</ele><time>2026-04-06T09:07:24Z</time></trkpt><trkpt lat="39.41642593313035" lon="8.411268450830189"><ele>37.800000000000004</ele><time>2026-04-06T09:07:25Z</time></trkpt><trkpt lat="39.41653292270945" lon="8.411302719021068"><ele>38.2</ele><time>2026-04-06T09:07:26Z</time></trkpt><trkpt lat="39.41663529279325" lon="8.411332740377224"><ele>38.6</ele><time>2026-04-06T09:07:27Z</time></trkpt><trkpt lat="39.41673394888819" lon="8.411360759981129"><ele>39.0</ele><time>2026-04-06T09:07:28Z</time></trkpt><trkpt lat="39.41682136031388" lon="8.411387724336217"><ele>39.0</ele><time>2026-04-06T09:07:29Z</time></trkpt><trkpt lat="39.416901963810474" lon="8.411430694301398"><ele>39.0</ele><time>2026-04-06T09:07:30Z</time></trkpt><trkpt lat="39.41699057335575" lon="8.411462037706427"><ele>39.0</ele><time>2026-04-06T09:07:31Z</time></trkpt><trkpt lat="39.4170982990378" lon="8.411480534762568"><ele>39.0</ele><time>2026-04-06T09:07:32Z</time></trkpt><trkpt lat="39.4172094389374" lon="8.411546736946283"><ele>39.0</ele><time>2026-04-06T09:07:33Z</time></trkpt><trkpt lat="39.41732842704407" lon="8.41159456455322"><ele>36.5</ele><time>2026-04-06T09:07:34Z</time></trkpt><trkpt lat="39.41744086980517" lon="8.41163651218634"><ele>34.0</ele><time>2026-04-06T09:07:35Z</time></trkpt><trkpt lat="39.41754802736854" lon="8.411680213775329"><ele>31.5</ele><time>2026-04-06T09:07:36Z</time></trkpt><trkpt lat="39.41765458327163" lon="8.411722337029255"><ele>29.0</ele><time>2026-04-06T09:07:37Z</time></trkpt><trkpt lat="39.41775977844257" lon="8.411767476699296"><ele>29.0</ele><time>2026-04-06T09:07:38Z</time></trkpt><trkpt lat="39.41786227541326" lon="8.411809895131903"><ele>29.0</ele><time>2026-04-06T09:07:39Z</time></trkpt><trkpt lat="39.41796285850295" lon="8.411849818316801"><ele>29.0</ele><time>2026-04-06T09:07:40Z</time></trkpt><trkpt lat="39.4180648319071" lon="8.411885928261908"><ele>29.0</ele><time>2026-04-06T09:07:41Z</time></trkpt><trkpt lat="39.41817273144889" lon="8.411917370058504"><ele>29.0</ele><time>2026-04-06T09:07:42Z</time></trkpt><trkpt lat="39.41828735984055" lon="8.411944979128403"><ele>26.0</ele><time>2026-04-06T09:07:43Z</time></trkpt><trkpt lat="39.41840719558907" lon="8.411973822978517"><ele>23.0</ele><time>2026-04-06T09:07:44Z</time></trkpt><trkpt lat="39.41852405027289" lon="8.412002882153496"><ele>20.0</ele><time>2026-04-06T09:07:45Z</time></trkpt><trkpt lat="39.41863960668232" lon="8.412029340318911"><ele>17.0</ele><time>2026-04-06T09:07:46Z</time></trkpt><trkpt lat="39.41874855201105" lon="8.412053828682541"><ele>15.8</ele><time>2026-04-06T09:07:47Z</time></trkpt><trkpt lat="39.41885283760148" lon="8.412082507183092"><ele>14.6</ele><time>2026-04-06T09:07:48Z</time></trkpt><trkpt lat="39.4189555816328" lon="8.412109543324178"><ele>13.4</ele><time>2026-04-06T09:07:49Z</time></trkpt><trkpt lat="39.41905932865112" lon="8.412132567241141"><ele>12.200000000000001</ele><time>2026-04-06T09:07:50Z</time></trkpt><trkpt lat="39.41916405982453" lon="8.41215529399162"><ele>11.0</ele><time>2026-04-06T09:07:51Z</time></trkpt><trkpt lat="39.41926834652461" lon="8.412176630241378"><ele>11.0</ele><time>2026-04-06T09:07:52Z</time></trkpt><trkpt lat="39.419369038605005" lon="8.412199640319983"><ele>11.0</ele><time>2026-04-06T09:07:53Z</time></trkpt><trkpt lat="39.4194645471173" lon="8.412224590045446"><ele>11.0</ele><time>2026-04-06T09:07:54Z</time></trkpt><trkpt lat="39.41956211237193" lon="8.412247597963058"><ele>11.0</ele><time>2026-04-06T09:07:55Z</time></trkpt><trkpt lat="39.419662300194986" lon="8.412273863077722"><ele>11.0</ele><time>2026-04-06T09:07:56Z</time></trkpt><trkpt lat="39.41976543945757" lon="8.412297974984936"><ele>10.4</ele><time>2026-04-06T09:07:57Z</time></trkpt><trkpt lat="39.41987126379619" lon="8.4123224168873"><ele>9.8</ele><time>2026-04-06T09:07:58Z</time></trkpt><trkpt lat="39.41997718747475" lon="8.412349528312424"><ele>9.200000000000001</ele><time>2026-04-06T09:07:59Z</time></trkpt><trkpt lat="39.42008817499883" lon="8.412379585097508"><ele>8.600000000000001</ele><time>2026-04-06T09:08:00Z</time></trkpt><trkpt lat="39.42020166583311" lon="8.412409496628461"><ele>8.0</ele><time>2026-04-06T09:08:01Z</time></trkpt><trkpt lat="39.42031680142611" lon="8.412438538912804"><ele>8.0</ele><time>2026-04-06T09:08:02Z</time></trkpt><trkpt lat="39.420434688786536" lon="8.412466091826316"><ele>8.0</ele><time>2026-04-06T09:08:03Z</time></trkpt><trkpt lat="39.42055100816473" lon="8.41248594718616"><ele>8.0</ele><time>2026-04-06T09:08:04Z</time></trkpt><trkpt lat="39.4206699745781" lon="8.412505095336485"><ele>8.0</ele><time>2026-04-06T09:08:05Z</time></trkpt><trkpt lat="39.42078921106968" lon="8.4125262133386"><ele>8.75</ele><time>2026-04-06T09:08:06Z</time></trkpt><trkpt lat="39.42091265700058" lon="8.412548552132217"><ele>9.5</ele><time>2026-04-06T09:08:07Z</time></trkpt><trkpt lat="39.421033743031245" lon="8.412574075374541"><ele>10.25</ele><time>2026-04-06T09:08:08Z</time></trkpt><trkpt lat="39.42115694776663" lon="8.412598605223668"><ele>11.0</ele><time>2026-04-06T09:08:09Z</time></trkpt><trkpt lat="39.42128157060324" lon="8.412622436906828"><ele>11.5</ele><time>2026-04-06T09:08:10Z</time></trkpt><trkpt lat="39.4214085204567" lon="8.412636808503516"><ele>12.0</ele><time>2026-04-06T09:08:11Z</time></trkpt><trkpt lat="39.42153661065721" lon="8.412640753548054"><ele>12.5</ele><time>2026-04-06T09:08:12Z</time></trkpt><trkpt lat="39.42166289017315" lon="8.412636310977264"><ele>13.0</ele><time>2026-04-06T09:08:13Z</time></trkpt><trkpt lat="39.42178136346781" lon="8.41263716445472"><ele>13.0</ele><time>2026-04-06T09:08:14Z</time></trkpt><trkpt lat="39.421896236632776" lon="8.412643031199615"><ele>13.0</ele><time>2026-04-06T09:08:15Z</time></trkpt><trkpt lat="39.422005613920156" lon="8.412655060988666"><ele>13.0</ele><time>2026-04-06T09:08:16Z</time></trkpt><trkpt lat="39.4221075779054" lon="8.412668639727551"><ele>13.0</ele><time>2026-04-06T09:08:17Z</time></trkpt><trkpt lat="39.42220504455747" lon="8.41268104283036"><ele>13.0</ele><time>2026-04-06T09:08:18Z</time></trkpt><trkpt lat="39.422296035848454" lon="8.412692953672659"><ele>12.600000000000001</ele><time>2026-04-06T09:08:19Z</time></trkpt><trkpt lat="39.42238503779983" lon="8.412705955477643"><ele>12.200000000000001</ele><time>2026-04-06T09:08:20Z</time></trkpt><trkpt lat="39.42247607812303" lon="8.412718889715277"><ele>11.8</ele><time>2026-04-06T09:08:21Z</time></trkpt><trkpt lat="39.42256668277676" lon="8.412730173085238"><ele>11.4</ele><time>2026-04-06T09:08:22Z</time></trkpt><trkpt lat="39.422663036170874" lon="8.412743761426476"><ele>11.0</ele><time>2026-04-06T09:08:23Z</time></trkpt><trkpt lat="39.42275890750703" lon="8.412758850578571"><ele>11.0</ele><time>2026-04-06T09:08:24Z</time></trkpt><trkpt lat="39.422856554947245" lon="8.412776895418515"><ele>11.0</ele><time>2026-04-06T09:08:25Z</time></trkpt><trkpt lat="39.42295431160253" lon="8.412793996323773"><ele>11.0</ele><time>2026-04-06T09:08:26Z</time></trkpt><trkpt lat="39.42304805116286" lon="8.412810574454063"><ele>11.0</ele><time>2026-04-06T09:08:27Z</time></trkpt><trkpt lat="39.423146162139446" lon="8.412831054341753"><ele>11.0</ele><time>2026-04-06T09:08:28Z</time></trkpt><trkpt lat="39.42324580154461" lon="8.412854290626212"><ele>10.4</ele><time>2026-04-06T09:08:29Z</time></trkpt><trkpt lat="39.42334732706677" lon="8.412878403293718"><ele>9.8</ele><time>2026-04-06T09:08:30Z</time></trkpt><trkpt lat="39.42345575078847" lon="8.412903794416714"><ele>9.200000000000001</ele><time>2026-04-06T09:08:31Z</time></trkpt><trkpt lat="39.423569442194946" lon="8.41292723872546"><ele>8.600000000000001</ele><time>2026-04-06T09:08:32Z</time></trkpt><trkpt lat="39.42368701837346" lon="8.412948082540957"><ele>8.0</ele><time>2026-04-06T09:08:33Z</time></trkpt><trkpt lat="39.423808212048804" lon="8.412966367502026"><ele>8.5</ele><time>2026-04-06T09:08:34Z</time></trkpt><trkpt lat="39.42393113190179" lon="8.412985749334597"><ele>9.0</ele><time>2026-04-06T09:08:35Z</time></trkpt><trkpt lat="39.424054449446245" lon="8.41300453414064"><ele>9.5</ele><time>2026-04-06T09:08:36Z</time></trkpt><trkpt lat="39.424181399485924" lon="8.413024121731578"><ele>10.0</ele><time>2026-04-06T09:08:37Z</time></trkpt><trkpt lat="39.42430837373503" lon="8.413042729920432"><ele>10.0</ele><time>2026-04-06T09:08:38Z</time></trkpt><trkpt lat="39.42443836368975" lon="8.413062118139495"><ele>10.0</ele><time>2026-04-06T09:08:39Z</time></trkpt><trkpt lat="39.42457598960342" lon="8.413080753774485"><ele>10.0</ele><time>2026-04-06T09:08:40Z</time></trkpt><trkpt lat="39.42471720158607" lon="8.413098362088817"><ele>10.0</ele><time>2026-04-06T09:08:41Z</time></trkpt><trkpt lat="39.42486284652454" lon="8.413117275089313"><ele>9.75</ele><time>2026-04-06T09:08:42Z</time></trkpt><trkpt lat="39.425008325448196" lon="8.413136663709817"><ele>9.5</ele><time>2026-04-06T09:08:43Z</time></trkpt><trkpt lat="39.42514674638894" lon="8.413158865987496"><ele>9.25</ele><time>2026-04-06T09:08:44Z</time></trkpt><trkpt lat="39.42528905937548" lon="8.413178161391022"><ele>9.0</ele><time>2026-04-06T09:08:45Z</time></trkpt><trkpt lat="39.42543591452907" lon="8.413196064231007"><ele>8.333333333333334</ele><time>2026-04-06T09:08:46Z</time></trkpt><trkpt lat="39.425584917517284" lon="8.41321406874245"><ele>7.666666666666667</ele><time>2026-04-06T09:08:47Z</time></trkpt><trkpt lat="39.42573543669581" lon="8.413231592745706"><ele>7.0</ele><time>2026-04-06T09:08:48Z</time></trkpt><trkpt lat="39.425887676932355" lon="8.413248778262778"><ele>7.0</ele><time>2026-04-06T09:08:49Z</time></trkpt><trkpt lat="39.42604189094927" lon="8.413263531796446"><ele>7.0</ele><time>2026-04-06T09:08:50Z</time></trkpt><trkpt lat="39.42619714246333" lon="8.413276843061197"><ele>7.0</ele><time>2026-04-06T09:08:51Z</time></trkpt><trkpt lat="39.426355782031536" lon="8.413289812862152"><ele>7.0</ele><time>2026-04-06T09:08:52Z</time></trkpt><trkpt lat="39.42651867258392" lon="8.41330270683519"><ele>7.0</ele><time>2026-04-06T09:08:53Z</time></trkpt><trkpt lat="39.42669563772802" lon="8.413319838399715"><ele>7.0</ele><time>2026-04-06T09:08:54Z</time></trkpt><trkpt lat="39.426826215326564" lon="8.413321689487965"><ele>7.0</ele><time>2026-04-06T09:08:55Z</time></trkpt><trkpt lat="39.42698249674326" lon="8.413327606742774"><ele>7.0</ele><time>2026-04-06T09:08:56Z</time></trkpt><trkpt lat="39.42714024043889" lon="8.413332135401172"><ele>7.0</ele><time>2026-04-06T09:08:57Z</time></trkpt><trkpt lat="39.427292593093306" lon="8.413328806008721"><ele>7.5</ele><time>2026-04-06T09:08:58Z</time></trkpt><trkpt lat="39.42744001756643" lon="8.413327585552794"><ele>8.0</ele><time>2026-04-06T09:08:59Z</time></trkpt><trkpt lat="39.42758547195278" lon="8.413320783219593"><ele>8.5</ele><time>2026-04-06T09:09:00Z</time></trkpt><trkpt lat="39.4277395329772" lon="8.413317087848148"><ele>9.0</ele><time>2026-04-06T09:09:01Z</time></trkpt><trkpt lat="39.42789312369547" lon="8.413322270903777"><ele>9.25</ele><time>2026-04-06T09:09:02Z</time></trkpt><trkpt lat="39.42804174669569" lon="8.413324018266161"><ele>9.5</ele><time>2026-04-06T09:09:03Z</time></trkpt><trkpt lat="39.42818286245127" lon="8.413326843451891"><ele>9.75</ele><time>2026-04-06T09:09:04Z</time></trkpt><trkpt lat="39.42832664933334" lon="8.41333593417487"><ele>10.0</ele><time>2026-04-06T09:09:05Z</time></trkpt><trkpt lat="39.42847410899686" lon="8.413347638589995"><ele>10.0</ele><time>2026-04-06T09:09:06Z</time></trkpt><trkpt lat="39.428627022394565" lon="8.413359272122888"><ele>10.0</ele><time>2026-04-06T09:09:07Z</time></trkpt><trkpt lat="39.428780277790466" lon="8.413365445428328"><ele>10.0</ele><time>2026-04-06T09:09:08Z</time></trkpt><trkpt lat="39.428935562694065" lon="8.413374276333384"><ele>10.0</ele><time>2026-04-06T09:09:09Z</time></trkpt><trkpt lat="39.42908985711512" lon="8.413387777485514"><ele>10.0</ele><time>2026-04-06T09:09:10Z</time></trkpt><trkpt lat="39.429243304029264" lon="8.41339527208514"><ele>10.0</ele><time>2026-04-06T09:09:11Z</time></trkpt><trkpt lat="39.42940334615224" lon="8.413404360798516"><ele>10.0</ele><time>2026-04-06T09:09:12Z</time></trkpt><trkpt lat="39.42956202277607" lon="8.413411204841195"><ele>10.0</ele><time>2026-04-06T09:09:13Z</time></trkpt><trkpt lat="39.42971803882503" lon="8.413420539195675"><ele>10.0</ele><time>2026-04-06T09:09:14Z</time></trkpt><trkpt lat="39.429873254120075" lon="8.413432890619559"><ele>10.0</ele><time>2026-04-06T09:09:15Z</time></trkpt><trkpt lat="39.430032556615025" lon="8.413446294085551"><ele>10.0</ele><time>2026-04-06T09:09:16Z</time></trkpt><trkpt lat="39.43019414595928" lon="8.413457763171328"><ele>10.0</ele><time>2026-04-06T09:09:17Z</time></trkpt><trkpt lat="39.43035698999269" lon="8.413461762836342"><ele>10.0</ele><time>2026-04-06T09:09:18Z</time></trkpt><trkpt lat="39.43052170004739" lon="8.413477369941372"><ele>10.0</ele><time>2026-04-06T09:09:19Z</time></trkpt><trkpt lat="39.43068566580803" lon="8.413487575079609"><ele>10.0</ele><time>2026-04-06T09:09:20Z</time></trkpt><trkpt lat="39.43084976570156" lon="8.413498595172829"><ele>10.0</ele><time>2026-04-06T09:09:21Z</time></trkpt><trkpt lat="39.431013506539976" lon="8.413512958735785"><ele>10.0</ele><time>2026-04-06T09:09:22Z</time></trkpt><trkpt lat="39.43117895073232" lon="8.41352682733399"><ele>10.0</ele><time>2026-04-06T09:09:23Z</time></trkpt><trkpt lat="39.431338539737546" lon="8.41353516354039"><ele>9.0</ele><time>2026-04-06T09:09:24Z</time></trkpt><trkpt lat="39.43149581717861" lon="8.41354648778122"><ele>8.0</ele><time>2026-04-06T09:09:25Z</time></trkpt><trkpt lat="39.431652113480276" lon="8.413556809478608"><ele>7.0</ele><time>2026-04-06T09:09:26Z</time></trkpt><trkpt lat="39.43180652570828" lon="8.413562534135059"><ele>7.0</ele><time>2026-04-06T09:09:27Z</time></trkpt><trkpt lat="39.4319614541494" lon="8.413578408407181"><ele>7.0</ele><time>2026-04-06T09:09:28Z</time></trkpt><trkpt lat="39.43211454280864" lon="8.413589842747498"><ele>7.0</ele><time>2026-04-06T09:09:29Z</time></trkpt><trkpt lat="39.43226737079364" lon="8.41359927085655"><ele>6.666666666666667</ele><time>2026-04-06T09:09:30Z</time></trkpt><trkpt lat="39.432420529157405" lon="8.413607421156533"><ele>6.333333333333334</ele><time>2026-04-06T09:09:31Z</time></trkpt><trkpt lat="39.43258100206656" lon="8.413615373977976"><ele>6.0</ele><time>2026-04-06T09:09:32Z</time></trkpt><trkpt lat="39.43273713185944" lon="8.413625584602697"><ele>6.0</ele><time>2026-04-06T09:09:33Z</time></trkpt><trkpt lat="39.432897024941504" lon="8.413641044451303"><ele>6.0</ele><time>2026-04-06T09:09:34Z</time></trkpt><trkpt lat="39.43305816190538" lon="8.413653849397399"><ele>6.0</ele><time>2026-04-06T09:09:35Z</time></trkpt><trkpt lat="39.433219883512315" lon="8.41366004184436"><ele>6.0</ele><time>2026-04-06T09:09:36Z</time></trkpt><trkpt lat="39.433379852119046" lon="8.413665686481052"><ele>6.0</ele><time>2026-04-06T09:09:37Z</time></trkpt><trkpt lat="39.43354600920012" lon="8.413675591794096"><ele>6.0</ele><time>2026-04-06T09:09:38Z</time></trkpt><trkpt lat="39.43370968984952" lon="8.413683063756583"><ele>5.0</ele><time>2026-04-06T09:09:39Z</time></trkpt><trkpt lat="39.433875009330585" lon="8.41369049598718"><ele>4.0</ele><time>2026-04-06T09:09:40Z</time></trkpt><trkpt lat="39.43403860729769" lon="8.413693947512362"><ele>3.0</ele><time>2026-04-06T09:09:41Z</time></trkpt><trkpt lat="39.43420384667296" lon="8.413695718513184"><ele>3.0</ele><time>2026-04-06T09:09:42Z</time></trkpt><trkpt lat="39.43437227655838" lon="8.413701224617233"><ele>3.0</ele><time>2026-04-06T09:09:43Z</time></trkpt><trkpt lat="39.43453639008383" lon="8.413705436897555"><ele>3.0</ele><time>2026-04-06T09:09:44Z</time></trkpt><trkpt lat="39.43470330176952" lon="8.413713247065447"><ele>2.6666666666666665</ele><time>2026-04-06T09:09:45Z</time></trkpt><trkpt lat="39.434869788385974" lon="8.41372219268348"><ele>2.333333333333333</ele><time>2026-04-06T09:09:46Z</time></trkpt><trkpt lat="39.435032177617245" lon="8.413731174601907"><ele>2.0</ele><time>2026-04-06T09:09:47Z</time></trkpt><trkpt lat="39.43519941089122" lon="8.413746535536367"><ele>2.0</ele><time>2026-04-06T09:09:48Z</time></trkpt><trkpt lat="39.4353624119713" lon="8.413756784296087"><ele>2.0</ele><time>2026-04-06T09:09:49Z</time></trkpt><trkpt lat="39.43552884940926" lon="8.413766337238474"><ele>2.0</ele><time>2026-04-06T09:09:50Z</time></trkpt><trkpt lat="39.43569211856264" lon="8.413773969755646"><ele>2.0</ele><time>2026-04-06T09:09:51Z</time></trkpt><trkpt lat="39.435855758097524" lon="8.413781652004563"><ele>2.0</ele><time>2026-04-06T09:09:52Z</time></trkpt><trkpt lat="39.43601770979041" lon="8.413789519559975"><ele>2.0</ele><time>2026-04-06T09:09:53Z</time></trkpt><trkpt lat="39.43616677949264" lon="8.413799230481622"><ele>2.5</ele><time>2026-04-06T09:09:54Z</time></trkpt><trkpt lat="39.43630905681409" lon="8.413813971184108"><ele>3.0</ele><time>2026-04-06T09:09:55Z</time></trkpt><trkpt lat="39.43644134516732" lon="8.413824153515145"><ele>3.5</ele><time>2026-04-06T09:09:56Z</time></trkpt><trkpt lat="39.43655731368726" lon="8.413836202832726"><ele>4.0</ele><time>2026-04-06T09:09:57Z</time></trkpt><trkpt lat="39.436669515578544" lon="8.413860333149437"><ele>5.2</ele><time>2026-04-06T09:09:58Z</time></trkpt><trkpt lat="39.436771840194055" lon="8.413908579656367"><ele>6.4</ele><time>2026-04-06T09:09:59Z</time></trkpt><trkpt lat="39.43686209794135" lon="8.41398634727371"><ele>7.6</ele><time>2026-04-06T09:10:00Z</time></trkpt><trkpt lat="39.43693312184662" lon="8.414095780626495"><ele>8.8</ele><time>2026-04-06T09:10:01Z</time></trkpt><trkpt lat="39.43698509243142" lon="8.414227784347583"><ele>10.0</ele><time>2026-04-06T09:10:02Z</time></trkpt><trkpt lat="39.437009323767356" lon="8.414377301211115"><ele>10.0</ele><time>2026-04-06T09:10:03Z</time></trkpt><trkpt lat="39.437010894998274" lon="8.414541198511257"><ele>10.0</ele><time>2026-04-06T09:10:04Z</time></trkpt><trkpt lat="39.43699227685806" lon="8.414722113958403"><ele>10.0</ele><time>2026-04-06T09:10:05Z</time></trkpt><trkpt lat="39.436967180529685" lon="8.41492003502876"><ele>10.0</ele><time>2026-04-06T09:10:06Z</time></trkpt><trkpt lat="39.43694240817175" lon="8.415133395728157"><ele>10.0</ele><time>2026-04-06T09:10:07Z</time></trkpt><trkpt lat="39.43692004098109" lon="8.41537385400109"><ele>10.0</ele><time>2026-04-06T09:10:08Z</time></trkpt><trkpt lat="39.436898278157784" lon="8.41561070965643"><ele>10.0</ele><time>2026-04-06T09:10:09Z</time></trkpt><trkpt lat="39.43688361163448" lon="8.415807591828903"><ele>10.25</ele><time>2026-04-06T09:10:10Z</time></trkpt><trkpt lat="39.43688190796261" lon="8.415993214781924"><ele>10.5</ele><time>2026-04-06T09:10:11Z</time></trkpt><trkpt lat="39.43689838958905" lon="8.416190463450334"><ele>10.75</ele><time>2026-04-06T09:10:12Z</time></trkpt><trkpt lat="39.43695302928183" lon="8.41635617239662"><ele>11.0</ele><time>2026-04-06T09:10:13Z</time></trkpt><trkpt lat="39.43703124233733" lon="8.416509182831103"><ele>11.0</ele><time>2026-04-06T09:10:14Z</time></trkpt><trkpt lat="39.437128173409334" lon="8.416653052082694"><ele>11.0</ele><time>2026-04-06T09:10:15Z</time></trkpt><trkpt lat="39.437224075630596" lon="8.416790822641621"><ele>11.0</ele><time>2026-04-06T09:10:16Z</time></trkpt><trkpt lat="39.437324951964214" lon="8.41690530501295"><ele>11.0</ele><time>2026-04-06T09:10:17Z</time></trkpt><trkpt lat="39.43743949565923" lon="8.416983299664624"><ele>9.5</ele><time>2026-04-06T09:10:18Z</time></trkpt><trkpt lat="39.43757489393514" lon="8.417020286652798"><ele>8.0</ele><time>2026-04-06T09:10:19Z</time></trkpt><trkpt lat="39.43771796132047" lon="8.417007305629529"><ele>6.5</ele><time>2026-04-06T09:10:20Z</time></trkpt><trkpt lat="39.43785922693367" lon="8.41695445744719"><ele>5.0</ele><time>2026-04-06T09:10:21Z</time></trkpt><trkpt lat="39.43799775683818" lon="8.416861132866801"><ele>5.0</ele><time>2026-04-06T09:10:22Z</time></trkpt><trkpt lat="39.43814115324123" lon="8.416737426971677"><ele>5.0</ele><time>2026-04-06T09:10:23Z</time></trkpt><trkpt lat="39.43829997565487" lon="8.41664956272628"><ele>5.0</ele><time>2026-04-06T09:10:24Z</time></trkpt><trkpt lat="39.438435284568655" lon="8.416560124087558"><ele>5.0</ele><time>2026-04-06T09:10:25Z</time></trkpt><trkpt lat="39.43855564553497" lon="8.41648394415286"><ele>5.0</ele><time>2026-04-06T09:10:26Z</time></trkpt><trkpt lat="39.43867500141745" lon="8.416478658303026"><ele>5.0</ele><time>2026-04-06T09:10:27Z</time></trkpt><trkpt lat="39.438775956911854" lon="8.416559475598476"><ele>5.0</ele><time>2026-04-06T09:10:28Z</time></trkpt><trkpt lat="39.43888463694413" lon="8.41663446709637"><ele>4.5</ele><time>2026-04-06T09:10:29Z</time></trkpt><trkpt lat="39.43898271531178" lon="8.41676036809385"><ele>4.0</ele><time>2026-04-06T09:10:30Z</time></trkpt><trkpt lat="39.43907692304852" lon="8.416901410191334"><ele>3.5</ele><time>2026-04-06T09:10:31Z</time></trkpt><trkpt lat="39.439156416544016" lon="8.417062466699436"><ele>3.0</ele><time>2026-04-06T09:10:32Z</time></trkpt><trkpt lat="39.439209323471395" lon="8.417250086386682"><ele>4.333333333333334</ele><time>2026-04-06T09:10:33Z</time></trkpt><trkpt lat="39.43923365108664" lon="8.41746186932868"><ele>5.666666666666667</ele><time>2026-04-06T09:10:34Z</time></trkpt><trkpt lat="39.43924607605863" lon="8.417702121706046"><ele>7.0</ele><time>2026-04-06T09:10:35Z</time></trkpt><trkpt lat="39.439264158615515" lon="8.41796155735644"><ele>7.0</ele><time>2026-04-06T09:10:36Z</time></trkpt><trkpt lat="39.43929361891149" lon="8.418225825949627"><ele>7.0</ele><time>2026-04-06T09:10:37Z</time></trkpt><trkpt lat="39.43932441822652" lon="8.418466286878868"><ele>7.0</ele><time>2026-04-06T09:10:38Z</time></trkpt><trkpt lat="39.43937149215907" lon="8.41870008214658"><ele>7.333333333333334</ele><time>2026-04-06T09:10:39Z</time></trkpt><trkpt lat="39.43945227912364" lon="8.418926815641898"><ele>7.666666666666666</ele><time>2026-04-06T09:10:40Z</time></trkpt><trkpt lat="39.439562622745726" lon="8.419145599531213"><ele>8.0</ele><time>2026-04-06T09:10:41Z</time></trkpt><trkpt lat="39.439680502278506" lon="8.419372140482697"><ele>7.0</ele><time>2026-04-06T09:10:42Z</time></trkpt><trkpt lat="39.43978448005834" lon="8.41958402585996"><ele>6.0</ele><time>2026-04-06T09:10:43Z</time></trkpt><trkpt lat="39.439874355350966" lon="8.419784309995116"><ele>5.0</ele><time>2026-04-06T09:10:44Z</time></trkpt><trkpt lat="39.43994538062201" lon="8.419984582851306"><ele>5.0</ele><time>2026-04-06T09:10:45Z</time></trkpt><trkpt lat="39.439986561034644" lon="8.420193596600445"><ele>5.0</ele><time>2026-04-06T09:10:46Z</time></trkpt><trkpt lat="39.440006056644805" lon="8.420425607822812"><ele>5.0</ele><time>2026-04-06T09:10:47Z</time></trkpt><trkpt lat="39.44001365719561" lon="8.42066692504369"><ele>5.666666666666667</ele><time>2026-04-06T09:10:48Z</time></trkpt><trkpt lat="39.44002126416753" lon="8.420917863946427"><ele>6.333333333333334</ele><time>2026-04-06T09:10:49Z</time></trkpt><trkpt lat="39.44003159916793" lon="8.421175737900596"><ele>7.0</ele><time>2026-04-06T09:10:50Z</time></trkpt><trkpt lat="39.440046505025826" lon="8.421436044948063"><ele>7.666666666666667</ele><time>2026-04-06T09:10:51Z</time></trkpt><trkpt lat="39.44006189931929" lon="8.421691671760192"><ele>8.333333333333334</ele><time>2026-04-06T09:10:52Z</time></trkpt><trkpt lat="39.440085785267286" lon="8.421939503574688"><ele>9.0</ele><time>2026-04-06T09:10:53Z</time></trkpt><trkpt lat="39.4401392348614" lon="8.422186481694048"><ele>9.666666666666666</ele><time>2026-04-06T09:10:54Z</time></trkpt><trkpt lat="39.440223804753764" lon="8.422425391349519"><ele>10.333333333333332</ele><time>2026-04-06T09:10:55Z</time></trkpt><trkpt lat="39.440332050052156" lon="8.422668623289509"><ele>11.0</ele><time>2026-04-06T09:10:56Z</time></trkpt><trkpt lat="39.44045745223689" lon="8.422908483014815"><ele>10.0</ele><time>2026-04-06T09:10:57Z</time></trkpt><trkpt lat="39.44057774037482" lon="8.423120123197075"><ele>9.0</ele><time>2026-04-06T09:10:58Z</time></trkpt><trkpt lat="39.44069023647262" lon="8.42332366852931"><ele>8.0</ele><time>2026-04-06T09:10:59Z</time></trkpt><trkpt lat="39.440802559831035" lon="8.423538127587753"><ele>8.0</ele><time>2026-04-06T09:11:00Z</time></trkpt><trkpt lat="39.440915915645675" lon="8.423752964124198"><ele>8.0</ele><time>2026-04-06T09:11:01Z</time></trkpt><trkpt lat="39.441033475764726" lon="8.423966831816736"><ele>8.0</ele><time>2026-04-06T09:11:02Z</time></trkpt><trkpt lat="39.44115317028882" lon="8.42418204981687"><ele>8.0</ele><time>2026-04-06T09:11:03Z</time></trkpt><trkpt lat="39.44127355767658" lon="8.424399096565628"><ele>8.0</ele><time>2026-04-06T09:11:04Z</time></trkpt><trkpt lat="39.44139720888099" lon="8.424619301639638"><ele>8.0</ele><time>2026-04-06T09:11:05Z</time></trkpt><trkpt lat="39.44152151234348" lon="8.424835587295107"><ele>7.333333333333333</ele><time>2026-04-06T09:11:06Z</time></trkpt><trkpt lat="39.44164368736697" lon="8.425038524926487"><ele>6.666666666666666</ele><time>2026-04-06T09:11:07Z</time></trkpt><trkpt lat="39.441759080563834" lon="8.425220044967258"><ele>6.0</ele><time>2026-04-06T09:11:08Z</time></trkpt><trkpt lat="39.44187331379871" lon="8.425395772236794"><ele>6.0</ele><time>2026-04-06T09:11:09Z</time></trkpt><trkpt lat="39.441983989027506" lon="8.425569146598153"><ele>6.0</ele><time>2026-04-06T09:11:10Z</time></trkpt><trkpt lat="39.442080051032036" lon="8.425735297611645"><ele>6.0</ele><time>2026-04-06T09:11:11Z</time></trkpt><trkpt lat="39.442155777782425" lon="8.425911767186623"><ele>6.0</ele><time>2026-04-06T09:11:12Z</time></trkpt><trkpt lat="39.44220547165624" lon="8.42611201761221"><ele>6.0</ele><time>2026-04-06T09:11:13Z</time></trkpt><trkpt lat="39.44223073679127" lon="8.426325383359107"><ele>6.0</ele><time>2026-04-06T09:11:14Z</time></trkpt><trkpt lat="39.442241836010126" lon="8.426528480013518"><ele>6.25</ele><time>2026-04-06T09:11:15Z</time></trkpt><trkpt lat="39.442255243349145" lon="8.426712461592738"><ele>6.5</ele><time>2026-04-06T09:11:16Z</time></trkpt><trkpt lat="39.442271823333954" lon="8.426892481443263"><ele>6.75</ele><time>2026-04-06T09:11:17Z</time></trkpt><trkpt lat="39.442293587485736" lon="8.427084156208544"><ele>7.0</ele><time>2026-04-06T09:11:18Z</time></trkpt><trkpt lat="39.44231351658921" lon="8.427285938324884"><ele>7.0</ele><time>2026-04-06T09:11:19Z</time></trkpt><trkpt lat="39.44233279961887" lon="8.427483338578005"><ele>7.0</ele><time>2026-04-06T09:11:20Z</time></trkpt><trkpt lat="39.442355523580595" lon="8.427683058767414"><ele>7.0</ele><time>2026-04-06T09:11:21Z</time></trkpt><trkpt lat="39.442383144942426" lon="8.42789701407625"><ele>7.333333333333334</ele><time>2026-04-06T09:11:22Z</time></trkpt><trkpt lat="39.44239278648177" lon="8.428139855264094"><ele>7.666666666666666</ele><time>2026-04-06T09:11:23Z</time></trkpt><trkpt lat="39.44241689933994" lon="8.428395265668556"><ele>8.0</ele><time>2026-04-06T09:11:24Z</time></trkpt><trkpt lat="39.44244303234655" lon="8.42867207422728"><ele>9.0</ele><time>2026-04-06T09:11:25Z</time></trkpt><trkpt lat="39.4424813519942" lon="8.428958200828799"><ele>10.0</ele><time>2026-04-06T09:11:26Z</time></trkpt><trkpt lat="39.4424992526093" lon="8.429251727994128"><ele>10.0</ele><time>2026-04-06T09:11:27Z</time></trkpt><trkpt lat="39.442525913397326" lon="8.429570716542461"><ele>10.0</ele><time>2026-04-06T09:11:28Z</time></trkpt><trkpt lat="39.44255646968277" lon="8.429890620105029"><ele>10.0</ele><time>2026-04-06T09:11:29Z</time></trkpt><trkpt lat="39.44258910644651" lon="8.430220763693395"><ele>10.0</ele><time>2026-04-06T09:11:30Z</time></trkpt><trkpt lat="39.44261952609489" lon="8.430525890314374"><ele>12.0</ele><time>2026-04-06T09:11:31Z</time></trkpt><trkpt lat="39.442646865537235" lon="8.430831283255152"><ele>14.0</ele><time>2026-04-06T09:11:32Z</time></trkpt><trkpt lat="39.4426763155404" lon="8.43114250385151"><ele>14.5</ele><time>2026-04-06T09:11:33Z</time></trkpt><trkpt lat="39.44270608812825" lon="8.431446461796957"><ele>15.0</ele><time>2026-04-06T09:11:34Z</time></trkpt><trkpt lat="39.44273566398809" lon="8.43174410634099"><ele>15.0</ele><time>2026-04-06T09:11:35Z</time></trkpt><trkpt lat="39.442765175727246" lon="8.432039385392596"><ele>15.0</ele><time>2026-04-06T09:11:36Z</time></trkpt><trkpt lat="39.442792929311025" lon="8.432331198450722"><ele>16.333333333333332</ele><time>2026-04-06T09:11:37Z</time></trkpt><trkpt lat="39.44281971311097" lon="8.432609549819498"><ele>17.666666666666664</ele><time>2026-04-06T09:11:38Z</time></trkpt><trkpt lat="39.44284409670373" lon="8.432865955766761"><ele>19.0</ele><time>2026-04-06T09:11:39Z</time></trkpt><trkpt lat="39.442867487726055" lon="8.433115695954305"><ele>19.333333333333332</ele><time>2026-04-06T09:11:40Z</time></trkpt><trkpt lat="39.44289357273778" lon="8.433358203446325"><ele>19.666666666666668</ele><time>2026-04-06T09:11:41Z</time></trkpt><trkpt lat="39.44292896390549" lon="8.433588502969016"><ele>20.0</ele><time>2026-04-06T09:11:42Z</time></trkpt><trkpt lat="39.44298739784623" lon="8.433818377672596"><ele>17.666666666666668</ele><time>2026-04-06T09:11:43Z</time></trkpt><trkpt lat="39.44307506346012" lon="8.434037001698417"><ele>15.333333333333332</ele><time>2026-04-06T09:11:44Z</time></trkpt><trkpt lat="39.44318667361384" lon="8.434258958383184"><ele>13.0</ele><time>2026-04-06T09:11:45Z</time></trkpt><trkpt lat="39.443302600669" lon="8.434490337731624"><ele>13.0</ele><time>2026-04-06T09:11:46Z</time></trkpt><trkpt lat="39.44341338103047" lon="8.434734914787123"><ele>13.0</ele><time>2026-04-06T09:11:47Z</time></trkpt><trkpt lat="39.44352772120394" lon="8.434992065423042"><ele>13.0</ele><time>2026-04-06T09:11:48Z</time></trkpt><trkpt lat="39.443645113266136" lon="8.435245052522585"><ele>14.666666666666666</ele><time>2026-04-06T09:11:49Z</time></trkpt><trkpt lat="39.44375511629933" lon="8.435479196314432"><ele>16.333333333333332</ele><time>2026-04-06T09:11:50Z</time></trkpt><trkpt lat="39.44385579889088" lon="8.43569193028371"><ele>18.0</ele><time>2026-04-06T09:11:51Z</time></trkpt><trkpt lat="39.443939513377266" lon="8.435889801831859"><ele>16.333333333333332</ele><time>2026-04-06T09:11:52Z</time></trkpt><trkpt lat="39.44399950892805" lon="8.436094715607362"><ele>14.666666666666666</ele><time>2026-04-06T09:11:53Z</time></trkpt><trkpt lat="39.444026102852945" lon="8.436317045305522"><ele>13.0</ele><time>2026-04-06T09:11:54Z</time></trkpt><trkpt lat="39.44403265124768" lon="8.4365610645441"><ele>13.0</ele><time>2026-04-06T09:11:55Z</time></trkpt><trkpt lat="39.44404470905618" lon="8.436813929257113"><ele>13.0</ele><time>2026-04-06T09:11:56Z</time></trkpt><trkpt lat="39.4440712745449" lon="8.43708213847396"><ele>13.0</ele><time>2026-04-06T09:11:57Z</time></trkpt><trkpt lat="39.44409787900649" lon="8.437358960823845"><ele>12.0</ele><time>2026-04-06T09:11:58Z</time></trkpt><trkpt lat="39.44412263833479" lon="8.43764648358824"><ele>11.0</ele><time>2026-04-06T09:11:59Z</time></trkpt><trkpt lat="39.44414752916148" lon="8.437940487923152"><ele>10.5</ele><time>2026-04-06T09:12:00Z</time></trkpt><trkpt lat="39.4441734047027" lon="8.43824114056504"><ele>10.0</ele><time>2026-04-06T09:12:01Z</time></trkpt><trkpt lat="39.44419895524738" lon="8.438545792109105"><ele>10.666666666666668</ele><time>2026-04-06T09:12:02Z</time></trkpt><trkpt lat="39.44422339056038" lon="8.438842168770593"><ele>11.333333333333334</ele><time>2026-04-06T09:12:03Z</time></trkpt><trkpt lat="39.44424442466246" lon="8.439109526972992"><ele>12.0</ele><time>2026-04-06T09:12:04Z</time></trkpt><trkpt lat="39.44426900001742" lon="8.439336431417432"><ele>12.0</ele><time>2026-04-06T09:12:05Z</time></trkpt><trkpt lat="39.44430070169248" lon="8.439544068411646"><ele>12.0</ele><time>2026-04-06T09:12:06Z</time></trkpt><trkpt lat="39.44433499803191" lon="8.439751556153686"><ele>12.0</ele><time>2026-04-06T09:12:07Z</time></trkpt><trkpt lat="39.44437061082447" lon="8.439976082645138"><ele>13.333333333333332</ele><time>2026-04-06T09:12:08Z</time></trkpt><trkpt lat="39.44440871379406" lon="8.440210876140439"><ele>14.666666666666666</ele><time>2026-04-06T09:12:09Z</time></trkpt><trkpt lat="39.44444626549447" lon="8.440454378995444"><ele>16.0</ele><time>2026-04-06T09:12:10Z</time></trkpt><trkpt lat="39.44448361823615" lon="8.440705594290074"><ele>18.333333333333332</ele><time>2026-04-06T09:12:11Z</time></trkpt><trkpt lat="39.44452284790233" lon="8.44096384122513"><ele>20.666666666666668</ele><time>2026-04-06T09:12:12Z</time></trkpt><trkpt lat="39.44456423287743" lon="8.441219205223254"><ele>23.0</ele><time>2026-04-06T09:12:13Z</time></trkpt><trkpt lat="39.444596565181854" lon="8.441440847607208"><ele>23.75</ele><time>2026-04-06T09:12:14Z</time></trkpt><trkpt lat="39.444597544161866" lon="8.441627753592176"><ele>24.5</ele><time>2026-04-06T09:12:15Z</time></trkpt><trkpt lat="39.44455753262407" lon="8.441785295820788"><ele>25.25</ele><time>2026-04-06T09:12:16Z</time></trkpt><trkpt lat="39.44448022272814" lon="8.441937439313111"><ele>26.0</ele><time>2026-04-06T09:12:17Z</time></trkpt><trkpt lat="39.4443852554798" lon="8.442095823367254"><ele>23.0</ele><time>2026-04-06T09:12:18Z</time></trkpt><trkpt lat="39.44428873926723" lon="8.44227358860823"><ele>20.0</ele><time>2026-04-06T09:12:19Z</time></trkpt><trkpt lat="39.44418732087287" lon="8.442471075646829"><ele>17.0</ele><time>2026-04-06T09:12:20Z</time></trkpt><trkpt lat="39.44408363290905" lon="8.442679386954653"><ele>17.0</ele><time>2026-04-06T09:12:21Z</time></trkpt><trkpt lat="39.443988974521844" lon="8.442869166203074"><ele>17.0</ele><time>2026-04-06T09:12:22Z</time></trkpt><trkpt lat="39.44390159702065" lon="8.44304027730262"><ele>17.0</ele><time>2026-04-06T09:12:22.999Z</time></trkpt><trkpt lat="39.44383053497054" lon="8.44320228863618"><ele>17.0</ele><time>2026-04-06T09:12:23.999Z</time></trkpt><trkpt lat="39.44379292641389" lon="8.443369097788645"><ele>17.0</ele><time>2026-04-06T09:12:24.999Z</time></trkpt><trkpt lat="39.44379366419553" lon="8.443540304004276"><ele>17.0</ele><time>2026-04-06T09:12:25.999Z</time></trkpt><trkpt lat="39.443829228394605" lon="8.443709374683253"><ele>17.0</ele><time>2026-04-06T09:12:27Z</time></trkpt><trkpt lat="39.443888049137385" lon="8.443874208477194"><ele>16.0</ele><time>2026-04-06T09:12:28Z</time></trkpt><trkpt lat="39.443969854707305" lon="8.444037600841444"><ele>15.0</ele><time>2026-04-06T09:12:29Z</time></trkpt><trkpt lat="39.444072966019355" lon="8.44420754919888"><ele>14.0</ele><time>2026-04-06T09:12:30Z</time></trkpt><trkpt lat="39.44418906733544" lon="8.444390497004493"><ele>14.0</ele><time>2026-04-06T09:12:31Z</time></trkpt><trkpt lat="39.44431293724907" lon="8.44458307780092"><ele>14.0</ele><time>2026-04-06T09:12:32Z</time></trkpt><trkpt lat="39.44444423403906" lon="8.444786319211623"><ele>14.0</ele><time>2026-04-06T09:12:33Z</time></trkpt><trkpt lat="39.44456778908125" lon="8.444991789397678"><ele>14.0</ele><time>2026-04-06T09:12:34Z</time></trkpt><trkpt lat="39.444692335472624" lon="8.44518611964856"><ele>14.0</ele><time>2026-04-06T09:12:35Z</time></trkpt><trkpt lat="39.44483732070193" lon="8.445362619606486"><ele>14.0</ele><time>2026-04-06T09:12:36Z</time></trkpt><trkpt lat="39.44500240604423" lon="8.445526306801739"><ele>16.666666666666668</ele><time>2026-04-06T09:12:37Z</time></trkpt><trkpt lat="39.445158410845906" lon="8.445677706621769"><ele>19.333333333333332</ele><time>2026-04-06T09:12:38Z</time></trkpt><trkpt lat="39.44529956320454" lon="8.445824631571671"><ele>22.0</ele><time>2026-04-06T09:12:39Z</time></trkpt><trkpt lat="39.44543272112072" lon="8.445966525278411"><ele>21.333333333333332</ele><time>2026-04-06T09:12:40Z</time></trkpt><trkpt lat="39.445557068354724" lon="8.446105076185976"><ele>20.666666666666668</ele><time>2026-04-06T09:12:41Z</time></trkpt><trkpt lat="39.44567063311018" lon="8.446249901480464"><ele>20.0</ele><time>2026-04-06T09:12:42Z</time></trkpt><trkpt lat="39.44577939206702" lon="8.446414330264886"><ele>20.0</ele><time>2026-04-06T09:12:43Z</time></trkpt><trkpt lat="39.44588863881347" lon="8.446589975525828"><ele>20.0</ele><time>2026-04-06T09:12:44Z</time></trkpt><trkpt lat="39.44600527835459" lon="8.446763610600854"><ele>20.0</ele><time>2026-04-06T09:12:45Z</time></trkpt><trkpt lat="39.446137656158456" lon="8.446927344566207"><ele>20.0</ele><time>2026-04-06T09:12:46Z</time></trkpt><trkpt lat="39.4462749046774" lon="8.447070624602453"><ele>20.0</ele><time>2026-04-06T09:12:47Z</time></trkpt><trkpt lat="39.44640263614118" lon="8.447202336042437"><ele>20.0</ele><time>2026-04-06T09:12:48Z</time></trkpt><trkpt lat="39.44651992956138" lon="8.447325496597651"><ele>19.25</ele><time>2026-04-06T09:12:49Z</time></trkpt><trkpt lat="39.4466225582362" lon="8.447438320694742"><ele>18.5</ele><time>2026-04-06T09:12:50Z</time></trkpt><trkpt lat="39.446711868033276" lon="8.447533603428452"><ele>17.75</ele><time>2026-04-06T09:12:51Z</time></trkpt><trkpt lat="39.4467987283235" lon="8.447615122958327"><ele>17.0</ele><time>2026-04-06T09:12:52Z</time></trkpt><trkpt lat="39.44688869034521" lon="8.447696526916056"><ele>17.0</ele><time>2026-04-06T09:12:53Z</time></trkpt><trkpt lat="39.44700049837131" lon="8.447771703561978"><ele>17.0</ele><time>2026-04-06T09:12:54Z</time></trkpt><trkpt lat="39.44715398770364" lon="8.44782724250213"><ele>17.0</ele><time>2026-04-06T09:12:55Z</time></trkpt><trkpt lat="39.44731184087097" lon="8.44788557143941"><ele>17.0</ele><time>2026-04-06T09:12:56Z</time></trkpt><trkpt lat="39.447477809119384" lon="8.447949389827883"><ele>17.333333333333336</ele><time>2026-04-06T09:12:57Z</time></trkpt><trkpt lat="39.44765810003208" lon="8.448023448299146"><ele>17.666666666666668</ele><time>2026-04-06T09:12:58Z</time></trkpt><trkpt lat="39.44784752422667" lon="8.44809997881409"><ele>18.0</ele><time>2026-04-06T09:12:59Z</time></trkpt><trkpt lat="39.44804827926111" lon="8.448174121570625"><ele>18.0</ele><time>2026-04-06T09:13:00Z</time></trkpt><trkpt lat="39.44826322814195" lon="8.448248515511265"><ele>18.0</ele><time>2026-04-06T09:13:01Z</time></trkpt><trkpt lat="39.44847290155108" lon="8.448326190350482"><ele>18.0</ele><time>2026-04-06T09:13:02Z</time></trkpt><trkpt lat="39.448664837932924" lon="8.448398328823398"><ele>17.333333333333332</ele><time>2026-04-06T09:13:03Z</time></trkpt><trkpt lat="39.448844647762016" lon="8.448467494218308"><ele>16.666666666666664</ele><time>2026-04-06T09:13:04Z</time></trkpt><trkpt lat="39.44901383792555" lon="8.448533583609866"><ele>16.0</ele><time>2026-04-06T09:13:05Z</time></trkpt><trkpt lat="39.44916949393619" lon="8.448612983897295"><ele>16.0</ele><time>2026-04-06T09:13:06Z</time></trkpt><trkpt lat="39.44930207420456" lon="8.448727844687935"><ele>16.0</ele><time>2026-04-06T09:13:07Z</time></trkpt><trkpt lat="39.449419856629724" lon="8.448877245329095"><ele>16.0</ele><time>2026-04-06T09:13:08Z</time></trkpt><trkpt lat="39.44953464726796" lon="8.449046845132775"><ele>16.333333333333332</ele><time>2026-04-06T09:13:09Z</time></trkpt><trkpt lat="39.449655626486425" lon="8.449226389657872"><ele>16.666666666666668</ele><time>2026-04-06T09:13:10Z</time></trkpt><trkpt lat="39.449771454092954" lon="8.449395919601171"><ele>17.0</ele><time>2026-04-06T09:13:11Z</time></trkpt><trkpt lat="39.44986854358125" lon="8.449548475595801"><ele>17.75</ele><time>2026-04-06T09:13:12Z</time></trkpt><trkpt lat="39.44994033519375" lon="8.449698046260675"><ele>18.5</ele><time>2026-04-06T09:13:13Z</time></trkpt><trkpt lat="39.44997613612511" lon="8.449859315248222"><ele>19.25</ele><time>2026-04-06T09:13:14Z</time></trkpt><trkpt lat="39.449979144802356" lon="8.450035778214062"><ele>20.0</ele><time>2026-04-06T09:13:15Z</time></trkpt><trkpt lat="39.44993704726023" lon="8.450218462831854"><ele>20.0</ele><time>2026-04-06T09:13:16Z</time></trkpt><trkpt lat="39.44987209915713" lon="8.4504092341478"><ele>20.0</ele><time>2026-04-06T09:13:17Z</time></trkpt><trkpt lat="39.44981158007114" lon="8.450611374617793"><ele>20.0</ele><time>2026-04-06T09:13:18Z</time></trkpt><trkpt lat="39.44975091307281" lon="8.450826609399453"><ele>19.666666666666668</ele><time>2026-04-06T09:13:19Z</time></trkpt><trkpt lat="39.44968256102286" lon="8.451047809730627"><ele>19.333333333333332</ele><time>2026-04-06T09:13:20Z</time></trkpt><trkpt lat="39.44961220960302" lon="8.451257328262146"><ele>19.0</ele><time>2026-04-06T09:13:21Z</time></trkpt><trkpt lat="39.44955415340572" lon="8.451451150313737"><ele>23.0</ele><time>2026-04-06T09:13:22Z</time></trkpt><trkpt lat="39.449516895802205" lon="8.45164604397243"><ele>27.0</ele><time>2026-04-06T09:13:23Z</time></trkpt><trkpt lat="39.449507111007605" lon="8.451865402870085"><ele>31.0</ele><time>2026-04-06T09:13:24Z</time></trkpt><trkpt lat="39.4495239282591" lon="8.452108620958166"><ele>32.333333333333336</ele><time>2026-04-06T09:13:25Z</time></trkpt><trkpt lat="39.44955001109346" lon="8.452371975097101"><ele>33.666666666666664</ele><time>2026-04-06T09:13:26Z</time></trkpt><trkpt lat="39.44957140611131" lon="8.452654855472513"><ele>35.0</ele><time>2026-04-06T09:13:27Z</time></trkpt><trkpt lat="39.4495904200204" lon="8.452936530168222"><ele>36.666666666666664</ele><time>2026-04-06T09:13:28Z</time></trkpt><trkpt lat="39.449608149511576" lon="8.45319613072669"><ele>38.333333333333336</ele><time>2026-04-06T09:13:29Z</time></trkpt><trkpt lat="39.449628025437086" lon="8.453464285340074"><ele>40.0</ele><time>2026-04-06T09:13:30Z</time></trkpt><trkpt lat="39.44964592577401" lon="8.453728117433839"><ele>34.0</ele><time>2026-04-06T09:13:31Z</time></trkpt><trkpt lat="39.449664142737426" lon="8.453974386339352"><ele>28.0</ele><time>2026-04-06T09:13:32Z</time></trkpt><trkpt lat="39.449673420787285" lon="8.454211251972765"><ele>22.0</ele><time>2026-04-06T09:13:33Z</time></trkpt><trkpt lat="39.449655075926636" lon="8.454456500168893"><ele>31.0</ele><time>2026-04-06T09:13:34Z</time></trkpt><trkpt lat="39.44962120233674" lon="8.45470519009315"><ele>40.0</ele><time>2026-04-06T09:13:35Z</time></trkpt><trkpt lat="39.449588517922486" lon="8.45495839014371"><ele>49.0</ele><time>2026-04-06T09:13:36Z</time></trkpt><trkpt lat="39.449563044021865" lon="8.45520180736152"><ele>49.0</ele><time>2026-04-06T09:13:37Z</time></trkpt><trkpt lat="39.44953762265046" lon="8.455427234339878"><ele>49.0</ele><time>2026-04-06T09:13:38Z</time></trkpt><trkpt lat="39.449497134951606" lon="8.455634561089827"><ele>49.0</ele><time>2026-04-06T09:13:39Z</time></trkpt><trkpt lat="39.44943270583818" lon="8.45582951229923"><ele>46.0</ele><time>2026-04-06T09:13:40Z</time></trkpt><trkpt lat="39.44933920331864" lon="8.456023127797556"><ele>43.0</ele><time>2026-04-06T09:13:41Z</time></trkpt><trkpt lat="39.449224253864564" lon="8.456208940148924"><ele>40.0</ele><time>2026-04-06T09:13:42Z</time></trkpt><trkpt lat="39.44910251294066" lon="8.456404450031503"><ele>36.0</ele><time>2026-04-06T09:13:43Z</time></trkpt><trkpt lat="39.44898189703082" lon="8.456608767938615"><ele>32.0</ele><time>2026-04-06T09:13:44Z</time></trkpt><trkpt lat="39.44885991707212" lon="8.456817647557747"><ele>28.0</ele><time>2026-04-06T09:13:45Z</time></trkpt><trkpt lat="39.448736009514924" lon="8.45703053782846"><ele>29.666666666666668</ele><time>2026-04-06T09:13:46Z</time></trkpt><trkpt lat="39.448614507390666" lon="8.457244853429927"><ele>31.333333333333336</ele><time>2026-04-06T09:13:47Z</time></trkpt><trkpt lat="39.44850430757088" lon="8.457468257895375"><ele>33.0</ele><time>2026-04-06T09:13:48Z</time></trkpt><trkpt lat="39.448415890887155" lon="8.457707646676651"><ele>31.666666666666664</ele><time>2026-04-06T09:13:49Z</time></trkpt><trkpt lat="39.44835138161716" lon="8.45796955800667"><ele>30.333333333333332</ele><time>2026-04-06T09:13:50Z</time></trkpt><trkpt lat="39.44831044512288" lon="8.45824154459702"><ele>29.0</ele><time>2026-04-06T09:13:51Z</time></trkpt><trkpt lat="39.44827042871195" lon="8.458515612586185"><ele>29.0</ele><time>2026-04-06T09:13:52Z</time></trkpt><trkpt lat="39.4482112704674" lon="8.458781714928715"><ele>29.0</ele><time>2026-04-06T09:13:53Z</time></trkpt><trkpt lat="39.448129896743346" lon="8.459029419654469"><ele>29.0</ele><time>2026-04-06T09:13:54Z</time></trkpt><trkpt lat="39.44802738149992" lon="8.45925964307447"><ele>31.666666666666664</ele><time>2026-04-06T09:13:55Z</time></trkpt><trkpt lat="39.44791966549033" lon="8.459483845060607"><ele>34.333333333333336</ele><time>2026-04-06T09:13:56Z</time></trkpt><trkpt lat="39.44781961210327" lon="8.459713479909922"><ele>37.0</ele><time>2026-04-06T09:13:57Z</time></trkpt><trkpt lat="39.44773208439813" lon="8.459945265087953"><ele>37.0</ele><time>2026-04-06T09:13:58Z</time></trkpt><trkpt lat="39.44765232921358" lon="8.460177701446339"><ele>37.0</ele><time>2026-04-06T09:13:59Z</time></trkpt><trkpt lat="39.44757772911949" lon="8.4604123541817"><ele>37.0</ele><time>2026-04-06T09:14:00Z</time></trkpt><trkpt lat="39.447501819348844" lon="8.460651117864396"><ele>34.0</ele><time>2026-04-06T09:14:01Z</time></trkpt><trkpt lat="39.4474246363234" lon="8.460894764700637"><ele>31.0</ele><time>2026-04-06T09:14:02Z</time></trkpt><trkpt lat="39.44734593373733" lon="8.461133127759616"><ele>28.0</ele><time>2026-04-06T09:14:03Z</time></trkpt><trkpt lat="39.44726679810706" lon="8.461368513841968"><ele>27.333333333333336</ele><time>2026-04-06T09:14:04Z</time></trkpt><trkpt lat="39.44718858632944" lon="8.46160808296343"><ele>26.666666666666664</ele><time>2026-04-06T09:14:05Z</time></trkpt><trkpt lat="39.44711558804287" lon="8.461840109952185"><ele>26.0</ele><time>2026-04-06T09:14:06Z</time></trkpt><trkpt lat="39.4470467675077" lon="8.462058362814302"><ele>25.0</ele><time>2026-04-06T09:14:07Z</time></trkpt><trkpt lat="39.446984037107995" lon="8.462266839044789"><ele>24.0</ele><time>2026-04-06T09:14:08Z</time></trkpt><trkpt lat="39.446940205906394" lon="8.462482309022242"><ele>23.0</ele><time>2026-04-06T09:14:09Z</time></trkpt><trkpt lat="39.44693468346757" lon="8.462710067726041"><ele>23.0</ele><time>2026-04-06T09:14:10Z</time></trkpt><trkpt lat="39.44697390775584" lon="8.46294027167146"><ele>23.0</ele><time>2026-04-06T09:14:11Z</time></trkpt><trkpt lat="39.44702543377541" lon="8.463165781627836"><ele>23.0</ele><time>2026-04-06T09:14:12Z</time></trkpt><trkpt lat="39.447065151067825" lon="8.463374864837126"><ele>23.0</ele><time>2026-04-06T09:14:13Z</time></trkpt><trkpt lat="39.447100704400086" lon="8.463568081325993"><ele>23.0</ele><time>2026-04-06T09:14:14Z</time></trkpt><trkpt lat="39.44713604144113" lon="8.463743048906808"><ele>23.0</ele><time>2026-04-06T09:14:15Z</time></trkpt><trkpt lat="39.44716460972066" lon="8.463900074630542"><ele>23.0</ele><time>2026-04-06T09:14:16Z</time></trkpt><trkpt lat="39.44718916410398" lon="8.464048292770622"><ele>23.0</ele><time>2026-04-06T09:14:17Z</time></trkpt><trkpt lat="39.44721102112759" lon="8.464192094468308"><ele>23.0</ele><time>2026-04-06T09:14:18Z</time></trkpt><trkpt lat="39.44723278715725" lon="8.464333221503944"><ele>23.0</ele><time>2026-04-06T09:14:19Z</time></trkpt><trkpt lat="39.447260780479155" lon="8.464478433167523"><ele>23.0</ele><time>2026-04-06T09:14:19.999Z</time></trkpt><trkpt lat="39.44728493800036" lon="8.4646175246071"><ele>23.4</ele><time>2026-04-06T09:14:20.999Z</time></trkpt><trkpt lat="39.44730442980449" lon="8.464751457965257"><ele>23.799999999999997</ele><time>2026-04-06T09:14:21.999Z</time></trkpt><trkpt lat="39.447329077246714" lon="8.464889305019119"><ele>24.2</ele><time>2026-04-06T09:14:22.999Z</time></trkpt><trkpt lat="39.44735045172769" lon="8.465028898819995"><ele>24.6</ele><time>2026-04-06T09:14:23.999Z</time></trkpt><trkpt lat="39.44736755289843" lon="8.465171283758274"><ele>25.0</ele><time>2026-04-06T09:14:24.999Z</time></trkpt><trkpt lat="39.447377461586974" lon="8.465312740192916"><ele>25.4</ele><time>2026-04-06T09:14:25.999Z</time></trkpt><trkpt lat="39.447379952591405" lon="8.465453693270367"><ele>25.8</ele><time>2026-04-06T09:14:26.999Z</time></trkpt><trkpt lat="39.44738180957737" lon="8.465589781921933"><ele>26.200000000000003</ele><time>2026-04-06T09:14:27.999Z</time></trkpt><trkpt lat="39.447383481055475" lon="8.465722954227504"><ele>26.6</ele><time>2026-04-06T09:14:28.999Z</time></trkpt><trkpt lat="39.447387830416446" lon="8.465875307253727"><ele>27.0</ele><time>2026-04-06T09:14:29.999Z</time></trkpt><trkpt lat="39.447384477562416" lon="8.466036503717218"><ele>27.0</ele><time>2026-04-06T09:14:30.999Z</time></trkpt><trkpt lat="39.44738743723565" lon="8.466201250903987"><ele>27.000000000000004</ele><time>2026-04-06T09:14:32Z</time></trkpt><trkpt lat="39.447392823617506" lon="8.466344394666985"><ele>27.000000000000004</ele><time>2026-04-06T09:14:33Z</time></trkpt><trkpt lat="39.44740407540343" lon="8.466474194069491"><ele>27.0</ele><time>2026-04-06T09:14:34Z</time></trkpt><trkpt lat="39.44743554047117" lon="8.466596717419522"><ele>27.0</ele><time>2026-04-06T09:14:35Z</time></trkpt><trkpt lat="39.447473885537136" lon="8.466712446397398"><ele>27.400000000000002</ele><time>2026-04-06T09:14:36Z</time></trkpt><trkpt lat="39.44752875846825" lon="8.46682514008096"><ele>27.800000000000004</ele><time>2026-04-06T09:14:37Z</time></trkpt><trkpt lat="39.4476008841195" lon="8.466934271166947"><ele>28.2</ele><time>2026-04-06T09:14:38Z</time></trkpt><trkpt lat="39.447674545481476" lon="8.467032357077425"><ele>28.6</ele><time>2026-04-06T09:14:39Z</time></trkpt><trkpt lat="39.44775028866289" lon="8.467132378430527"><ele>29.0</ele><time>2026-04-06T09:14:40Z</time></trkpt><trkpt lat="39.447822614838486" lon="8.467225251337435"><ele>29.0</ele><time>2026-04-06T09:14:41Z</time></trkpt><trkpt lat="39.44789987164231" lon="8.467315321835402"><ele>29.0</ele><time>2026-04-06T09:14:42Z</time></trkpt><trkpt lat="39.44798274443995" lon="8.46740652994502"><ele>29.0</ele><time>2026-04-06T09:14:43Z</time></trkpt><trkpt lat="39.44807392155589" lon="8.467481933984079"><ele>29.0</ele><time>2026-04-06T09:14:44Z</time></trkpt><trkpt lat="39.44816843464786" lon="8.46753463693638"><ele>29.0</ele><time>2026-04-06T09:14:45Z</time></trkpt><trkpt lat="39.44825679186506" lon="8.467579238821262"><ele>29.0</ele><time>2026-04-06T09:14:46Z</time></trkpt><trkpt lat="39.44834687077111" lon="8.467624061030973"><ele>29.0</ele><time>2026-04-06T09:14:47Z</time></trkpt><trkpt lat="39.44843893263557" lon="8.467669897000997"><ele>29.0</ele><time>2026-04-06T09:14:48Z</time></trkpt><trkpt lat="39.44853344306944" lon="8.46771555129718"><ele>29.0</ele><time>2026-04-06T09:14:49Z</time></trkpt><trkpt lat="39.4486232525841" lon="8.46775809314813"><ele>29.0</ele><time>2026-04-06T09:14:50Z</time></trkpt><trkpt lat="39.44871142369532" lon="8.467799444633414"><ele>28.25</ele><time>2026-04-06T09:14:51Z</time></trkpt><trkpt lat="39.44880478723408" lon="8.46784411909936"><ele>27.5</ele><time>2026-04-06T09:14:52Z</time></trkpt><trkpt lat="39.448903263346644" lon="8.46788982866365"><ele>26.75</ele><time>2026-04-06T09:14:53Z</time></trkpt><trkpt lat="39.44901636779015" lon="8.467927318871018"><ele>26.0</ele><time>2026-04-06T09:14:54Z</time></trkpt><trkpt lat="39.449146122251896" lon="8.467976983828828"><ele>26.0</ele><time>2026-04-06T09:14:55Z</time></trkpt><trkpt lat="39.4493186352152" lon="8.467962810164037"><ele>26.0</ele><time>2026-04-06T09:14:56Z</time></trkpt><trkpt lat="39.44947912018375" lon="8.467939712927292"><ele>26.0</ele><time>2026-04-06T09:14:57Z</time></trkpt><trkpt lat="39.449608581246714" lon="8.467907967866442"><ele>26.4</ele><time>2026-04-06T09:14:58Z</time></trkpt><trkpt lat="39.449718896833176" lon="8.467901333537302"><ele>26.8</ele><time>2026-04-06T09:14:59Z</time></trkpt><trkpt lat="39.44981842284661" lon="8.46789745600772"><ele>27.199999999999996</ele><time>2026-04-06T09:15:00Z</time></trkpt><trkpt lat="39.44990743653182" lon="8.467900392187602"><ele>27.599999999999998</ele><time>2026-04-06T09:15:01Z</time></trkpt><trkpt lat="39.44998555371129" lon="8.4679305542659"><ele>28.0</ele><time>2026-04-06T09:15:02Z</time></trkpt><trkpt lat="39.450055891210695" lon="8.467983620077788"><ele>28.799999999999997</ele><time>2026-04-06T09:15:03Z</time></trkpt><trkpt lat="39.450122127610065" lon="8.468058930740458"><ele>29.599999999999998</ele><time>2026-04-06T09:15:04Z</time></trkpt><trkpt lat="39.45017816780873" lon="8.46815523179142"><ele>30.400000000000002</ele><time>2026-04-06T09:15:05Z</time></trkpt><trkpt lat="39.450214234561855" lon="8.468270603419205"><ele>31.200000000000003</ele><time>2026-04-06T09:15:06Z</time></trkpt><trkpt lat="39.45022924669208" lon="8.468398510246265"><ele>32.0</ele><time>2026-04-06T09:15:07Z</time></trkpt><trkpt lat="39.450225309203326" lon="8.468547836898962"><ele>32.0</ele><time>2026-04-06T09:15:08Z</time></trkpt><trkpt lat="39.45022198074871" lon="8.468719411203308"><ele>32.0</ele><time>2026-04-06T09:15:09Z</time></trkpt><trkpt lat="39.4502110468312" lon="8.46892505158371"><ele>32.0</ele><time>2026-04-06T09:15:10Z</time></trkpt><trkpt lat="39.45024783325328" lon="8.469160537134542"><ele>34.33333333333333</ele><time>2026-04-06T09:15:11Z</time></trkpt><trkpt lat="39.45026635015617" lon="8.46940311873554"><ele>36.666666666666664</ele><time>2026-04-06T09:15:12Z</time></trkpt><trkpt lat="39.4502889559745" lon="8.469615362809074"><ele>39.0</ele><time>2026-04-06T09:15:13Z</time></trkpt><trkpt lat="39.45032696964984" lon="8.469873245271856"><ele>42.0</ele><time>2026-04-06T09:15:14Z</time></trkpt><trkpt lat="39.45034577579913" lon="8.470157048473311"><ele>45.0</ele><time>2026-04-06T09:15:15Z</time></trkpt><trkpt lat="39.45035298169042" lon="8.470421072571405"><ele>48.0</ele><time>2026-04-06T09:15:16Z</time></trkpt><trkpt lat="39.45037559370951" lon="8.470659656057821"><ele>48.33333333333333</ele><time>2026-04-06T09:15:17Z</time></trkpt><trkpt lat="39.45040463483019" lon="8.470925635154922"><ele>48.666666666666664</ele><time>2026-04-06T09:15:18Z</time></trkpt><trkpt lat="39.45042504400553" lon="8.471218180008213"><ele>49.0</ele><time>2026-04-06T09:15:19Z</time></trkpt><trkpt lat="39.4504309642517" lon="8.471511387902808"><ele>48.33333333333333</ele><time>2026-04-06T09:15:20Z</time></trkpt><trkpt lat="39.45043291837264" lon="8.471780163267114"><ele>47.666666666666664</ele><time>2026-04-06T09:15:21Z</time></trkpt><trkpt lat="39.450449103692414" lon="8.472064256422271"><ele>47.0</ele><time>2026-04-06T09:15:22Z</time></trkpt><trkpt lat="39.450469995552936" lon="8.472339156738554"><ele>47.0</ele><time>2026-04-06T09:15:23Z</time></trkpt><trkpt lat="39.45047117877643" lon="8.472526246601001"><ele>47.0</ele><time>2026-04-06T09:15:24Z</time></trkpt><trkpt lat="39.45045724211978" lon="8.472762843091214"><ele>47.0</ele><time>2026-04-06T09:15:25Z</time></trkpt><trkpt lat="39.450395075314326" lon="8.47300108573148"><ele>47.0</ele><time>2026-04-06T09:15:26Z</time></trkpt><trkpt lat="39.45036225451818" lon="8.473256004483428"><ele>47.0</ele><time>2026-04-06T09:15:27Z</time></trkpt><trkpt lat="39.4503033310588" lon="8.473474961522344"><ele>47.0</ele><time>2026-04-06T09:15:28Z</time></trkpt><trkpt lat="39.45031133010276" lon="8.473770566686602"><ele>46.0</ele><time>2026-04-06T09:15:29Z</time></trkpt><trkpt lat="39.450313687997365" lon="8.474049395401451"><ele>45.0</ele><time>2026-04-06T09:15:30Z</time></trkpt><trkpt lat="39.4503085756536" lon="8.474327238938368"><ele>44.0</ele><time>2026-04-06T09:15:31Z</time></trkpt><trkpt lat="39.45028079269634" lon="8.474599174663277"><ele>44.0</ele><time>2026-04-06T09:15:32Z</time></trkpt><trkpt lat="39.450230264449004" lon="8.474871638775134"><ele>44.0</ele><time>2026-04-06T09:15:33Z</time></trkpt><trkpt lat="39.45017548923876" lon="8.475134849348983"><ele>44.0</ele><time>2026-04-06T09:15:34Z</time></trkpt><trkpt lat="39.45013298805508" lon="8.47538237710695"><ele>42.0</ele><time>2026-04-06T09:15:35Z</time></trkpt><trkpt lat="39.45009040929802" lon="8.475629175918522"><ele>40.0</ele><time>2026-04-06T09:15:36Z</time></trkpt><trkpt lat="39.45006526451679" lon="8.475864365551573"><ele>38.0</ele><time>2026-04-06T09:15:37Z</time></trkpt><trkpt lat="39.450078799601854" lon="8.476100088973693"><ele>38.0</ele><time>2026-04-06T09:15:38Z</time></trkpt><trkpt lat="39.45012306415986" lon="8.47634842740457"><ele>38.0</ele><time>2026-04-06T09:15:39Z</time></trkpt><trkpt lat="39.450182026566225" lon="8.47659290010265"><ele>38.0</ele><time>2026-04-06T09:15:40Z</time></trkpt><trkpt lat="39.45023818857217" lon="8.476844038178848"><ele>38.0</ele><time>2026-04-06T09:15:41Z</time></trkpt><trkpt lat="39.45029540532088" lon="8.477094486721581"><ele>38.0</ele><time>2026-04-06T09:15:42Z</time></trkpt><trkpt lat="39.45035177371614" lon="8.477354740092489"><ele>38.0</ele><time>2026-04-06T09:15:43Z</time></trkpt><trkpt lat="39.45040505471554" lon="8.477614545848876"><ele>38.0</ele><time>2026-04-06T09:15:44Z</time></trkpt><trkpt lat="39.45045176026644" lon="8.477853867739924"><ele>38.0</ele><time>2026-04-06T09:15:45Z</time></trkpt><trkpt lat="39.450494924411124" lon="8.478067458099641"><ele>38.0</ele><time>2026-04-06T09:15:46Z</time></trkpt><trkpt lat="39.450536591352474" lon="8.478236861639857"><ele>38.0</ele><time>2026-04-06T09:15:47Z</time></trkpt><trkpt lat="39.45060101273996" lon="8.478360800535766"><ele>38.0</ele><time>2026-04-06T09:15:48Z</time></trkpt><trkpt lat="39.45069816509633" lon="8.478444215894655"><ele>38.0</ele><time>2026-04-06T09:15:49Z</time></trkpt><trkpt lat="39.45082512264857" lon="8.478487428171187"><ele>38.0</ele><time>2026-04-06T09:15:50Z</time></trkpt><trkpt lat="39.45097238177776" lon="8.478485805497503"><ele>38.0</ele><time>2026-04-06T09:15:51Z</time></trkpt><trkpt lat="39.45111989151729" lon="8.478451941317088"><ele>38.0</ele><time>2026-04-06T09:15:52Z</time></trkpt><trkpt lat="39.451272860560366" lon="8.478441638126045"><ele>38.0</ele><time>2026-04-06T09:15:53Z</time></trkpt><trkpt lat="39.45141356111404" lon="8.478548926715945"><ele>37.0</ele><time>2026-04-06T09:15:54Z</time></trkpt><trkpt lat="39.451573769573955" lon="8.478622265194598"><ele>36.0</ele><time>2026-04-06T09:15:54.999Z</time></trkpt><trkpt lat="39.45173587889908" lon="8.478718313291486"><ele>35.0</ele><time>2026-04-06T09:15:55.999Z</time></trkpt><trkpt lat="39.45190626617597" lon="8.478795067635163"><ele>35.0</ele><time>2026-04-06T09:15:56.999Z</time></trkpt><trkpt lat="39.45208308706124" lon="8.478855624601476"><ele>35.0</ele><time>2026-04-06T09:15:57.999Z</time></trkpt><trkpt lat="39.45226809408688" lon="8.478892560352557"><ele>35.0</ele><time>2026-04-06T09:15:58.999Z</time></trkpt><trkpt lat="39.452429199956555" lon="8.478920544577973"><ele>35.0</ele><time>2026-04-06T09:15:59.999Z</time></trkpt><trkpt lat="39.4525750314411" lon="8.478942932158052"><ele>35.0</ele><time>2026-04-06T09:16:00.999Z</time></trkpt><trkpt lat="39.452709573829075" lon="8.478976593923976"><ele>35.0</ele><time>2026-04-06T09:16:01.999Z</time></trkpt><trkpt lat="39.45282373255705" lon="8.479012427797763"><ele>35.0</ele><time>2026-04-06T09:16:02.999Z</time></trkpt><trkpt lat="39.45291778390216" lon="8.479055889057326"><ele>35.8</ele><time>2026-04-06T09:16:03.999Z</time></trkpt><trkpt lat="39.45299461164332" lon="8.47912765906792"><ele>36.6</ele><time>2026-04-06T09:16:04.999Z</time></trkpt><trkpt lat="39.453055207258174" lon="8.479203645469994"><ele>37.4</ele><time>2026-04-06T09:16:05.999Z</time></trkpt><trkpt lat="39.45315029792461" lon="8.47926348155542"><ele>38.2</ele><time>2026-04-06T09:16:07.999Z</time></trkpt><trkpt lat="39.4532527346057" lon="8.479237447430874"><ele>39.0</ele><time>2026-04-06T09:16:28.999Z</time></trkpt><trkpt lat="39.45329627587496" lon="8.479165259878341"><ele>39.0</ele><time>2026-04-06T09:16:29.999Z</time></trkpt><trkpt lat="39.453346874119866" lon="8.479079379406333"><ele>39.0</ele><time>2026-04-06T09:16:30.999Z</time></trkpt><trkpt lat="39.45340120802014" lon="8.478991991052375"><ele>39.0</ele><time>2026-04-06T09:16:31.999Z</time></trkpt><trkpt lat="39.4534506986872" lon="8.478920304853492"><ele>39.0</ele><time>2026-04-06T09:16:32.999Z</time></trkpt><trkpt lat="39.45349850349869" lon="8.478844630944174"><ele>39.0</ele><time>2026-04-06T09:16:33.999Z</time></trkpt><trkpt lat="39.45355323432739" lon="8.478763045679079"><ele>39.0</ele><time>2026-04-06T09:16:34.999Z</time></trkpt><trkpt lat="39.45361368569536" lon="8.478674696334407"><ele>39.0</ele><time>2026-04-06T09:16:35.999Z</time></trkpt><trkpt lat="39.453678958277116" lon="8.478591025397098"><ele>39.0</ele><time>2026-04-06T09:16:37Z</time></trkpt><trkpt lat="39.453759851791546" lon="8.478529855758252"><ele>39.0</ele><time>2026-04-06T09:16:38Z</time></trkpt><trkpt lat="39.453854840157874" lon="8.478494331973447"><ele>39.0</ele><time>2026-04-06T09:16:39Z</time></trkpt><trkpt lat="39.45395541926292" lon="8.478486361030747"><ele>39.0</ele><time>2026-04-06T09:16:40Z</time></trkpt><trkpt lat="39.45406256042166" lon="8.478482845617119"><ele>39.0</ele><time>2026-04-06T09:16:41Z</time></trkpt><trkpt lat="39.454165310528545" lon="8.478483390702488"><ele>39.0</ele><time>2026-04-06T09:16:42Z</time></trkpt><trkpt lat="39.454268057798004" lon="8.478484402687132"><ele>39.0</ele><time>2026-04-06T09:16:43Z</time></trkpt><trkpt lat="39.45437234033849" lon="8.478478270280092"><ele>39.0</ele><time>2026-04-06T09:16:43.999Z</time></trkpt><trkpt lat="39.45448181069656" lon="8.47847337836184"><ele>39.0</ele><time>2026-04-06T09:16:44.999Z</time></trkpt><trkpt lat="39.4545876437091" lon="8.478467239702523"><ele>39.0</ele><time>2026-04-06T09:16:46Z</time></trkpt><trkpt lat="39.45468997406278" lon="8.478461020756907"><ele>39.0</ele><time>2026-04-06T09:16:47Z</time></trkpt><trkpt lat="39.45478599168526" lon="8.4784627463589"><ele>39.0</ele><time>2026-04-06T09:16:48Z</time></trkpt><trkpt lat="39.45488620608616" lon="8.478461458241648"><ele>39.0</ele><time>2026-04-06T09:16:49Z</time></trkpt><trkpt lat="39.45497981664619" lon="8.478463905096435"><ele>39.0</ele><time>2026-04-06T09:16:50Z</time></trkpt><trkpt lat="39.455078591023465" lon="8.478456534671839"><ele>39.0</ele><time>2026-04-06T09:16:51Z</time></trkpt><trkpt lat="39.455174610655845" lon="8.478474908544896"><ele>39.0</ele><time>2026-04-06T09:16:52Z</time></trkpt><trkpt lat="39.45527211920381" lon="8.47845506052564"><ele>39.0</ele><time>2026-04-06T09:16:53Z</time></trkpt><trkpt lat="39.45536870276064" lon="8.47846017369308"><ele>39.0</ele><time>2026-04-06T09:16:54Z</time></trkpt><trkpt lat="39.455468822623715" lon="8.4784545563526"><ele>39.0</ele><time>2026-04-06T09:16:55Z</time></trkpt><trkpt lat="39.455567362509356" lon="8.478458319746712"><ele>39.6</ele><time>2026-04-06T09:16:56Z</time></trkpt><trkpt lat="39.455668384399644" lon="8.478459592275705"><ele>40.2</ele><time>2026-04-06T09:16:57Z</time></trkpt><trkpt lat="39.45576676387441" lon="8.478465289974936"><ele>40.800000000000004</ele><time>2026-04-06T09:16:58Z</time></trkpt><trkpt lat="39.4558675802857" lon="8.47846782422742"><ele>41.4</ele><time>2026-04-06T09:16:59Z</time></trkpt><trkpt lat="39.455971632100955" lon="8.478478372825872"><ele>42.0</ele><time>2026-04-06T09:17:00Z</time></trkpt><trkpt lat="39.4560805260845" lon="8.47849087540828"><ele>42.0</ele><time>2026-04-06T09:17:01Z</time></trkpt><trkpt lat="39.456191361304064" lon="8.478505797066756"><ele>42.0</ele><time>2026-04-06T09:17:02Z</time></trkpt><trkpt lat="39.456305641739455" lon="8.478520324217738"><ele>42.0</ele><time>2026-04-06T09:17:03Z</time></trkpt><trkpt lat="39.45641664372599" lon="8.478534084069798"><ele>42.0</ele><time>2026-04-06T09:17:04Z</time></trkpt><trkpt lat="39.45653334122283" lon="8.478539740605903"><ele>43.0</ele><time>2026-04-06T09:17:05Z</time></trkpt><trkpt lat="39.45665122496514" lon="8.47853164102808"><ele>44.0</ele><time>2026-04-06T09:17:06Z</time></trkpt><trkpt lat="39.45676807755871" lon="8.478501979134078"><ele>45.0</ele><time>2026-04-06T09:17:07Z</time></trkpt><trkpt lat="39.456881926005714" lon="8.478479621535351"><ele>46.0</ele><time>2026-04-06T09:17:08Z</time></trkpt><trkpt lat="39.45699317105093" lon="8.47842991924584"><ele>46.0</ele><time>2026-04-06T09:17:09Z</time></trkpt><trkpt lat="39.457097894879105" lon="8.47838370676936"><ele>46.0</ele><time>2026-04-06T09:17:10Z</time></trkpt><trkpt lat="39.45720341510754" lon="8.478326469429648"><ele>46.0</ele><time>2026-04-06T09:17:11Z</time></trkpt><trkpt lat="39.457317333847094" lon="8.478310173573764"><ele>46.0</ele><time>2026-04-06T09:17:12Z</time></trkpt><trkpt lat="39.457427643677995" lon="8.47831644317349"><ele>46.75</ele><time>2026-04-06T09:17:13Z</time></trkpt><trkpt lat="39.45753950858213" lon="8.478334119554587"><ele>47.5</ele><time>2026-04-06T09:17:14Z</time></trkpt><trkpt lat="39.45764812882867" lon="8.478363149787715"><ele>48.25</ele><time>2026-04-06T09:17:15Z</time></trkpt><trkpt lat="39.457758374708284" lon="8.478399137095133"><ele>49.0</ele><time>2026-04-06T09:17:16Z</time></trkpt><trkpt lat="39.45787187299396" lon="8.478435862518893"><ele>51.0</ele><time>2026-04-06T09:17:17Z</time></trkpt><trkpt lat="39.4579829995241" lon="8.478477921469171"><ele>53.0</ele><time>2026-04-06T09:17:18Z</time></trkpt><trkpt lat="39.458093266764706" lon="8.478520172656632"><ele>55.0</ele><time>2026-04-06T09:17:19Z</time></trkpt><trkpt lat="39.45820589249179" lon="8.478557899406823"><ele>57.0</ele><time>2026-04-06T09:17:20Z</time></trkpt><trkpt lat="39.45832223710202" lon="8.478591172508795"><ele>57.0</ele><time>2026-04-06T09:17:21Z</time></trkpt><trkpt lat="39.458439046644074" lon="8.478627247934126"><ele>57.0</ele><time>2026-04-06T09:17:22Z</time></trkpt><trkpt lat="39.45856009442608" lon="8.47866602664991"><ele>57.0</ele><time>2026-04-06T09:17:23Z</time></trkpt><trkpt lat="39.458683898648" lon="8.478701685436612"><ele>57.0</ele><time>2026-04-06T09:17:24Z</time></trkpt><trkpt lat="39.458811009901716" lon="8.478728226160468"><ele>59.25</ele><time>2026-04-06T09:17:25Z</time></trkpt><trkpt lat="39.458939427504966" lon="8.478743358632407"><ele>61.5</ele><time>2026-04-06T09:17:26Z</time></trkpt><trkpt lat="39.459062922191386" lon="8.478751776853386"><ele>63.75</ele><time>2026-04-06T09:17:27Z</time></trkpt><trkpt lat="39.45917855681092" lon="8.47875840494788"><ele>66.0</ele><time>2026-04-06T09:17:28Z</time></trkpt><trkpt lat="39.45929143238181" lon="8.478766607580745"><ele>65.2</ele><time>2026-04-06T09:17:29Z</time></trkpt><trkpt lat="39.459400452768676" lon="8.478771702287558"><ele>64.39999999999999</ele><time>2026-04-06T09:17:29.999Z</time></trkpt><trkpt lat="39.45950516932499" lon="8.47877152020652"><ele>63.6</ele><time>2026-04-06T09:17:30.999Z</time></trkpt><trkpt lat="39.45960621929729" lon="8.478769479212346"><ele>62.8</ele><time>2026-04-06T09:17:31.999Z</time></trkpt><trkpt lat="39.45969370437919" lon="8.4787697560483"><ele>62.0</ele><time>2026-04-06T09:17:32.999Z</time></trkpt><trkpt lat="39.45977359450447" lon="8.478774654590577"><ele>62.0</ele><time>2026-04-06T09:17:33.999Z</time></trkpt><trkpt lat="39.45985183678967" lon="8.478806020701768"><ele>62.0</ele><time>2026-04-06T09:17:34.999Z</time></trkpt><trkpt lat="39.459921349226924" lon="8.478879919861575"><ele>62.0</ele><time>2026-04-06T09:17:35.999Z</time></trkpt><trkpt lat="39.45997552741559" lon="8.478980987309448"><ele>62.0</ele><time>2026-04-06T09:17:36.999Z</time></trkpt><trkpt lat="39.4600314970382" lon="8.479086786074397"><ele>62.0</ele><time>2026-04-06T09:17:37.999Z</time></trkpt><trkpt lat="39.460102551056416" lon="8.479182547586122"><ele>62.0</ele><time>2026-04-06T09:17:38.999Z</time></trkpt><trkpt lat="39.4601911919735" lon="8.479265308548356"><ele>62.0</ele><time>2026-04-06T09:17:39.999Z</time></trkpt><trkpt lat="39.46028749040588" lon="8.479340336891573"><ele>62.0</ele><time>2026-04-06T09:17:40.999Z</time></trkpt><trkpt lat="39.460384592252" lon="8.479420679569609"><ele>62.0</ele><time>2026-04-06T09:17:41.999Z</time></trkpt><trkpt lat="39.46048206011488" lon="8.47950215188312"><ele>61.75</ele><time>2026-04-06T09:17:42.999Z</time></trkpt><trkpt lat="39.4605785291112" lon="8.47958480704821"><ele>61.5</ele><time>2026-04-06T09:17:43.999Z</time></trkpt><trkpt lat="39.460673454344956" lon="8.47966377538855"><ele>61.25</ele><time>2026-04-06T09:17:44.999Z</time></trkpt><trkpt lat="39.46077074950587" lon="8.479733520237604"><ele>61.0</ele><time>2026-04-06T09:17:45.999Z</time></trkpt><trkpt lat="39.460883062498354" lon="8.47976720405704"><ele>61.0</ele><time>2026-04-06T09:17:46.999Z</time></trkpt><trkpt lat="39.46101036930024" lon="8.479745243711886"><ele>61.0</ele><time>2026-04-06T09:17:47.999Z</time></trkpt><trkpt lat="39.461129959886755" lon="8.479664838474296"><ele>61.0</ele><time>2026-04-06T09:17:48.999Z</time></trkpt><trkpt lat="39.461226901702936" lon="8.479533749122698"><ele>61.0</ele><time>2026-04-06T09:17:49.999Z</time></trkpt><trkpt lat="39.46131205208744" lon="8.479376273256232"><ele>64.0</ele><time>2026-04-06T09:17:50.999Z</time></trkpt><trkpt lat="39.461399930185415" lon="8.479224517475888"><ele>67.0</ele><time>2026-04-06T09:17:51.999Z</time></trkpt><trkpt lat="39.46148604590534" lon="8.479090759248239"><ele>70.0</ele><time>2026-04-06T09:17:52.999Z</time></trkpt><trkpt lat="39.46156044363139" lon="8.478972934136692"><ele>73.0</ele><time>2026-04-06T09:17:53.999Z</time></trkpt><trkpt lat="39.4616254327059" lon="8.478852222901853"><ele>76.5</ele><time>2026-04-06T09:17:54.999Z</time></trkpt><trkpt lat="39.461688723504906" lon="8.478726845990236"><ele>80.0</ele><time>2026-04-06T09:17:55.999Z</time></trkpt><trkpt lat="39.46175286851302" lon="8.478599022244591"><ele>83.5</ele><time>2026-04-06T09:17:56.999Z</time></trkpt><trkpt lat="39.46181744325052" lon="8.478473230264713"><ele>87.0</ele><time>2026-04-06T09:17:57.999Z</time></trkpt><trkpt lat="39.46188567929059" lon="8.478349973718949"><ele>87.0</ele><time>2026-04-06T09:17:58.999Z</time></trkpt><trkpt lat="39.461976181879244" lon="8.478249577704126"><ele>87.0</ele><time>2026-04-06T09:17:59.999Z</time></trkpt><trkpt lat="39.462053636218684" lon="8.478136776407666"><ele>87.0</ele><time>2026-04-06T09:18:00.999Z</time></trkpt><trkpt lat="39.46214888840991" lon="8.478074693862581"><ele>87.0</ele><time>2026-04-06T09:18:01.999Z</time></trkpt><trkpt lat="39.46225831743949" lon="8.478065652525919"><ele>86.25</ele><time>2026-04-06T09:18:02.999Z</time></trkpt><trkpt lat="39.4623716898738" lon="8.478033214849093"><ele>85.5</ele><time>2026-04-06T09:18:03.999Z</time></trkpt><trkpt lat="39.46249793075863" lon="8.47801416112232"><ele>84.75</ele><time>2026-04-06T09:18:04.999Z</time></trkpt><trkpt lat="39.46262456188906" lon="8.477953811119493"><ele>84.0</ele><time>2026-04-06T09:18:05.999Z</time></trkpt><trkpt lat="39.462750909669325" lon="8.477874828731514"><ele>88.0</ele><time>2026-04-06T09:18:06.999Z</time></trkpt><trkpt lat="39.46287597848816" lon="8.477788643675689"><ele>92.0</ele><time>2026-04-06T09:18:07.999Z</time></trkpt><trkpt lat="39.46298840945483" lon="8.477686816486203"><ele>96.0</ele><time>2026-04-06T09:18:08.999Z</time></trkpt><trkpt lat="39.46308914954594" lon="8.47758409519752"><ele>100.0</ele><time>2026-04-06T09:18:09.999Z</time></trkpt><trkpt lat="39.463170445127396" lon="8.477491411181974"><ele>100.00000000000001</ele><time>2026-04-06T09:18:10.999Z</time></trkpt><trkpt lat="39.46325028239305" lon="8.477433191890666"><ele>100.0</ele><time>2026-04-06T09:18:11.999Z</time></trkpt><trkpt lat="39.46331143326316" lon="8.477385120490741"><ele>100.0</ele><time>2026-04-06T09:18:12.999Z</time></trkpt><trkpt lat="39.463381282243496" lon="8.47741148976662"><ele>100.0</ele><time>2026-04-06T09:18:13.999Z</time></trkpt><trkpt lat="39.46343233910768" lon="8.4774830386664"><ele>100.00000000000001</ele><time>2026-04-06T09:18:14.999Z</time></trkpt><trkpt lat="39.4634484666311" lon="8.477583619737512"><ele>100.0</ele><time>2026-04-06T09:18:15.999Z</time></trkpt><trkpt lat="39.463426878136325" lon="8.477691684350754"><ele>100.0</ele><time>2026-04-06T09:18:16.999Z</time></trkpt><trkpt lat="39.46337855481682" lon="8.477787802412296"><ele>100.0</ele><time>2026-04-06T09:18:17.999Z</time></trkpt><trkpt lat="39.46331287773265" lon="8.477876938874564"><ele>100.0</ele><time>2026-04-06T09:18:18.999Z</time></trkpt><trkpt lat="39.463239885742176" lon="8.477967522142844"><ele>100.0</ele><time>2026-04-06T09:18:19.999Z</time></trkpt><trkpt lat="39.46316928457356" lon="8.478060282229237"><ele>100.0</ele><time>2026-04-06T09:18:20.999Z</time></trkpt><trkpt lat="39.463109921236374" lon="8.478151989714847"><ele>101.0</ele><time>2026-04-06T09:18:21.999Z</time></trkpt><trkpt lat="39.46305770562417" lon="8.478244144177566"><ele>102.0</ele><time>2026-04-06T09:18:22.999Z</time></trkpt><trkpt lat="39.46298800039588" lon="8.478345939816363"><ele>103.0</ele><time>2026-04-06T09:18:23.999Z</time></trkpt><trkpt lat="39.46291076752825" lon="8.478445384751078"><ele>104.0</ele><time>2026-04-06T09:18:24.999Z</time></trkpt><trkpt lat="39.46282533977611" lon="8.478549701948696"><ele>105.0</ele><time>2026-04-06T09:18:25.999Z</time></trkpt><trkpt lat="39.4627405104847" lon="8.478666318427623"><ele>101.8</ele><time>2026-04-06T09:18:26.999Z</time></trkpt><trkpt lat="39.46266570249496" lon="8.478783167052905"><ele>98.6</ele><time>2026-04-06T09:18:27.999Z</time></trkpt><trkpt lat="39.4626235299732" lon="8.478896135266183"><ele>95.4</ele><time>2026-04-06T09:18:28.999Z</time></trkpt><trkpt lat="39.4626395391778" lon="8.479014636195739"><ele>92.2</ele><time>2026-04-06T09:18:29.999Z</time></trkpt><trkpt lat="39.46267829335161" lon="8.47912803627799"><ele>89.0</ele><time>2026-04-06T09:18:30.999Z</time></trkpt><trkpt lat="39.46273654648337" lon="8.479234441146465"><ele>89.0</ele><time>2026-04-06T09:18:31.999Z</time></trkpt><trkpt lat="39.46280353204733" lon="8.479360809704065"><ele>89.0</ele><time>2026-04-06T09:18:32.999Z</time></trkpt><trkpt lat="39.46286922509361" lon="8.479510730320102"><ele>89.0</ele><time>2026-04-06T09:18:33.999Z</time></trkpt><trkpt lat="39.462946051301806" lon="8.479681749505414"><ele>89.0</ele><time>2026-04-06T09:18:34.999Z</time></trkpt><trkpt lat="39.463035362755214" lon="8.479862411002358"><ele>89.75</ele><time>2026-04-06T09:18:35.999Z</time></trkpt><trkpt lat="39.46312439187708" lon="8.480039465011652"><ele>90.5</ele><time>2026-04-06T09:18:36.999Z</time></trkpt><trkpt lat="39.4631939189905" lon="8.480189405520699"><ele>91.25</ele><time>2026-04-06T09:18:37.999Z</time></trkpt><trkpt lat="39.46325679174314" lon="8.480322719125141"><ele>92.0</ele><time>2026-04-06T09:18:38.999Z</time></trkpt><trkpt lat="39.46331586955161" lon="8.48043881624817"><ele>92.0</ele><time>2026-04-06T09:18:39.999Z</time></trkpt><trkpt lat="39.463384972326246" lon="8.480534659394237"><ele>92.0</ele><time>2026-04-06T09:18:40.999Z</time></trkpt><trkpt lat="39.46347538047059" lon="8.480594829381525"><ele>92.0</ele><time>2026-04-06T09:18:41.999Z</time></trkpt><trkpt lat="39.46359942334285" lon="8.480614725309168"><ele>92.0</ele><time>2026-04-06T09:18:43Z</time></trkpt><trkpt lat="39.46373361349727" lon="8.480625968830243"><ele>98.0</ele><time>2026-04-06T09:18:44Z</time></trkpt><trkpt lat="39.46388988440534" lon="8.480631456861518"><ele>104.0</ele><time>2026-04-06T09:18:45Z</time></trkpt><trkpt lat="39.46406238414412" lon="8.480636454507849"><ele>110.0</ele><time>2026-04-06T09:18:46Z</time></trkpt><trkpt lat="39.464198285915316" lon="8.480643497680074"><ele>110.0</ele><time>2026-04-06T09:18:47Z</time></trkpt><trkpt lat="39.46430108508293" lon="8.480652246606105"><ele>110.0</ele><time>2026-04-06T09:18:48Z</time></trkpt><trkpt lat="39.46437340172946" lon="8.480728843918826"><ele>110.0</ele><time>2026-04-06T09:18:49Z</time></trkpt><trkpt lat="39.46441075416446" lon="8.480827669425008"><ele>110.0</ele><time>2026-04-06T09:18:50Z</time></trkpt><trkpt lat="39.46438218256162" lon="8.48095100436409"><ele>110.0</ele><time>2026-04-06T09:18:51Z</time></trkpt><trkpt lat="39.464352240312884" lon="8.48110170329036"><ele>108.0</ele><time>2026-04-06T09:18:52Z</time></trkpt><trkpt lat="39.46432435573572" lon="8.481266078129668"><ele>106.0</ele><time>2026-04-06T09:18:53Z</time></trkpt><trkpt lat="39.46435168867121" lon="8.481402043693153"><ele>104.0</ele><time>2026-04-06T09:18:54Z</time></trkpt><trkpt lat="39.46443115419621" lon="8.481505499501154"><ele>102.0</ele><time>2026-04-06T09:18:55Z</time></trkpt><trkpt lat="39.46453749094447" lon="8.48155769446529"><ele>107.0</ele><time>2026-04-06T09:18:56Z</time></trkpt><trkpt lat="39.46465499079547" lon="8.481549695768619"><ele>112.0</ele><time>2026-04-06T09:18:57Z</time></trkpt><trkpt lat="39.46478748815043" lon="8.481509322590632"><ele>117.0</ele><time>2026-04-06T09:18:58Z</time></trkpt><trkpt lat="39.464929295368236" lon="8.481460217255266"><ele>122.0</ele><time>2026-04-06T09:18:58.999Z</time></trkpt><trkpt lat="39.465086144445934" lon="8.4814240205007"><ele>122.0</ele><time>2026-04-06T09:18:59.999Z</time></trkpt><trkpt lat="39.46524971033699" lon="8.481394238294339"><ele>122.0</ele><time>2026-04-06T09:19:00.999Z</time></trkpt><trkpt lat="39.46539649326149" lon="8.481425601739177"><ele>122.0</ele><time>2026-04-06T09:19:01.999Z</time></trkpt><trkpt lat="39.46553640728712" lon="8.481471656189974"><ele>126.39999999999999</ele><time>2026-04-06T09:19:02.999Z</time></trkpt><trkpt lat="39.46566280132819" lon="8.48150375931517"><ele>130.79999999999998</ele><time>2026-04-06T09:19:03.999Z</time></trkpt><trkpt lat="39.46572827859474" lon="8.48158892958924"><ele>135.2</ele><time>2026-04-06T09:19:04.999Z</time></trkpt><trkpt lat="39.465766798542234" lon="8.48166849282641"><ele>139.6</ele><time>2026-04-06T09:19:05.999Z</time></trkpt><trkpt lat="39.46575008226375" lon="8.48178963195803"><ele>144.0</ele><time>2026-04-06T09:19:06.999Z</time></trkpt><trkpt lat="39.46567969690211" lon="8.48191048374932"><ele>144.0</ele><time>2026-04-06T09:19:07.999Z</time></trkpt><trkpt lat="39.46556822596885" lon="8.48200545636956"><ele>144.0</ele><time>2026-04-06T09:19:08.999Z</time></trkpt><trkpt lat="39.4654338091748" lon="8.482083217062138"><ele>144.0</ele><time>2026-04-06T09:19:09.999Z</time></trkpt><trkpt lat="39.46530142862283" lon="8.482170267674984"><ele>144.0</ele><time>2026-04-06T09:19:10.999Z</time></trkpt><trkpt lat="39.46520429460467" lon="8.482270093736563"><ele>139.0</ele><time>2026-04-06T09:19:11.999Z</time></trkpt><trkpt lat="39.465144839780514" lon="8.482400749590528"><ele>134.0</ele><time>2026-04-06T09:19:12.999Z</time></trkpt><trkpt lat="39.465131580186956" lon="8.482559586439425"><ele>129.0</ele><time>2026-04-06T09:19:13.999Z</time></trkpt><trkpt lat="39.465169341792524" lon="8.482723771459849"><ele>124.0</ele><time>2026-04-06T09:19:14.999Z</time></trkpt><trkpt lat="39.465247454995" lon="8.482862974470645"><ele>127.5</ele><time>2026-04-06T09:19:15.999Z</time></trkpt><trkpt lat="39.46531543978928" lon="8.482977600980288"><ele>131.0</ele><time>2026-04-06T09:19:16.999Z</time></trkpt><trkpt lat="39.46531990276114" lon="8.483097290546644"><ele>134.5</ele><time>2026-04-06T09:19:17.999Z</time></trkpt><trkpt lat="39.465228083467146" lon="8.48321685006626"><ele>138.0</ele><time>2026-04-06T09:19:18.999Z</time></trkpt><trkpt lat="39.46511390351368" lon="8.483290465654868"><ele>138.0</ele><time>2026-04-06T09:19:19.999Z</time></trkpt><trkpt lat="39.4650026736867" lon="8.483378443979518"><ele>138.0</ele><time>2026-04-06T09:19:20.999Z</time></trkpt><trkpt lat="39.464908506300176" lon="8.483523585857881"><ele>138.0</ele><time>2026-04-06T09:19:21.999Z</time></trkpt><trkpt lat="39.464852158776964" lon="8.483685841834031"><ele>138.0</ele><time>2026-04-06T09:19:22.999Z</time></trkpt><trkpt lat="39.46481024473774" lon="8.483837992727135"><ele>139.75</ele><time>2026-04-06T09:19:23.999Z</time></trkpt><trkpt lat="39.464821084307715" lon="8.483980683099075"><ele>141.5</ele><time>2026-04-06T09:19:24.999Z</time></trkpt><trkpt lat="39.46489169136526" lon="8.484109319411866"><ele>143.25</ele><time>2026-04-06T09:19:25.999Z</time></trkpt><trkpt lat="39.46500470290585" lon="8.484209380666286"><ele>145.0</ele><time>2026-04-06T09:19:26.999Z</time></trkpt><trkpt lat="39.4651503344718" lon="8.484292269241106"><ele>145.0</ele><time>2026-04-06T09:19:27.999Z</time></trkpt><trkpt lat="39.465312203829725" lon="8.484367347236779"><ele>145.0</ele><time>2026-04-06T09:19:28.999Z</time></trkpt><trkpt lat="39.46546309927612" lon="8.484497647931615"><ele>145.0</ele><time>2026-04-06T09:19:29.999Z</time></trkpt><trkpt lat="39.46561174363623" lon="8.484570576754695"><ele>147.25</ele><time>2026-04-06T09:19:30.999Z</time></trkpt><trkpt lat="39.46575520134855" lon="8.484656241980707"><ele>149.5</ele><time>2026-04-06T09:19:31.999Z</time></trkpt><trkpt lat="39.46582285226179" lon="8.484771044522537"><ele>151.75</ele><time>2026-04-06T09:19:32.999Z</time></trkpt><trkpt lat="39.465874460086944" lon="8.484914124134912"><ele>154.0</ele><time>2026-04-06T09:19:33.999Z</time></trkpt><trkpt lat="39.46594960057021" lon="8.485105583735626"><ele>154.0</ele><time>2026-04-06T09:19:34.999Z</time></trkpt><trkpt lat="39.46601742627134" lon="8.485290523013957"><ele>154.0</ele><time>2026-04-06T09:19:35.999Z</time></trkpt><trkpt lat="39.46610765133638" lon="8.485446568949007"><ele>154.0</ele><time>2026-04-06T09:19:36.999Z</time></trkpt><trkpt lat="39.466212719867286" lon="8.485549218306073"><ele>154.0</ele><time>2026-04-06T09:19:37.999Z</time></trkpt><trkpt lat="39.46630241666745" lon="8.485604396360191"><ele>157.4</ele><time>2026-04-06T09:19:38.999Z</time></trkpt><trkpt lat="39.46634975694183" lon="8.485700588342835"><ele>160.8</ele><time>2026-04-06T09:19:39.999Z</time></trkpt><trkpt lat="39.466310472100886" lon="8.485837442616205"><ele>164.20000000000002</ele><time>2026-04-06T09:19:40.999Z</time></trkpt><trkpt lat="39.466318956161196" lon="8.485983004227606"><ele>167.60000000000002</ele><time>2026-04-06T09:19:41.999Z</time></trkpt><trkpt lat="39.46634000106478" lon="8.486143484545972"><ele>171.0</ele><time>2026-04-06T09:19:42.999Z</time></trkpt><trkpt lat="39.46644765357437" lon="8.486217970998181"><ele>171.0</ele><time>2026-04-06T09:19:43.999Z</time></trkpt><trkpt lat="39.466565284583474" lon="8.48623259359063"><ele>171.0</ele><time>2026-04-06T09:19:44.999Z</time></trkpt><trkpt lat="39.46668402192323" lon="8.486225851946045"><ele>171.0</ele><time>2026-04-06T09:19:45.999Z</time></trkpt><trkpt lat="39.46677341295064" lon="8.486280366326941"><ele>171.0</ele><time>2026-04-06T09:19:46.999Z</time></trkpt><trkpt lat="39.46681660269692" lon="8.486395288538317"><ele>171.0</ele><time>2026-04-06T09:19:47.999Z</time></trkpt><trkpt lat="39.466780180842996" lon="8.486537309938262"><ele>170.0</ele><time>2026-04-06T09:19:48.999Z</time></trkpt><trkpt lat="39.46672376852203" lon="8.486670769950647"><ele>169.0</ele><time>2026-04-06T09:19:49.999Z</time></trkpt><trkpt lat="39.46666763815138" lon="8.486831680274465"><ele>168.0</ele><time>2026-04-06T09:19:50.999Z</time></trkpt><trkpt lat="39.466620946814665" lon="8.486990267303158"><ele>167.0</ele><time>2026-04-06T09:19:51.999Z</time></trkpt><trkpt lat="39.4666351711661" lon="8.487152169337538"><ele>167.0</ele><time>2026-04-06T09:19:52.999Z</time></trkpt><trkpt lat="39.466709114983985" lon="8.48729516426102"><ele>167.0</ele><time>2026-04-06T09:19:53.999Z</time></trkpt><trkpt lat="39.46678039891722" lon="8.487416207709243"><ele>167.0</ele><time>2026-04-06T09:19:54.999Z</time></trkpt><trkpt lat="39.466805961801555" lon="8.487533828927985"><ele>167.0</ele><time>2026-04-06T09:19:55.999Z</time></trkpt><trkpt lat="39.46676658793297" lon="8.487670857582415"><ele>167.0</ele><time>2026-04-06T09:19:56.999Z</time></trkpt><trkpt lat="39.46668885318199" lon="8.487802692148797"><ele>167.0</ele><time>2026-04-06T09:19:57.999Z</time></trkpt><trkpt lat="39.466654486461564" lon="8.487943640794274"><ele>167.0</ele><time>2026-04-06T09:19:58.999Z</time></trkpt><trkpt lat="39.46667914307343" lon="8.488073605464542"><ele>167.0</ele><time>2026-04-06T09:19:59.999Z</time></trkpt><trkpt lat="39.46675750997703" lon="8.488187679382113"><ele>166.0</ele><time>2026-04-06T09:20:00.999Z</time></trkpt><trkpt lat="39.46687421406784" lon="8.488278501941748"><ele>165.0</ele><time>2026-04-06T09:20:01.999Z</time></trkpt><trkpt lat="39.467000414484595" lon="8.4883545859797"><ele>164.0</ele><time>2026-04-06T09:20:02.999Z</time></trkpt><trkpt lat="39.46712688298957" lon="8.488382273991542"><ele>163.0</ele><time>2026-04-06T09:20:03.999Z</time></trkpt><trkpt lat="39.46725946590418" lon="8.488337829143338"><ele>167.33333333333334</ele><time>2026-04-06T09:20:04.999Z</time></trkpt><trkpt lat="39.46739177228962" lon="8.488229411951139"><ele>171.66666666666666</ele><time>2026-04-06T09:20:05.999Z</time></trkpt><trkpt lat="39.46752095374041" lon="8.488102801631353"><ele>176.0</ele><time>2026-04-06T09:20:06.999Z</time></trkpt><trkpt lat="39.467692594611265" lon="8.488061928558771"><ele>176.0</ele><time>2026-04-06T09:20:07.999Z</time></trkpt><trkpt lat="39.467881447861" lon="8.488001031193685"><ele>176.0</ele><time>2026-04-06T09:20:08.999Z</time></trkpt><trkpt lat="39.46807957558491" lon="8.48794680801232"><ele>176.0</ele><time>2026-04-06T09:20:09.999Z</time></trkpt><trkpt lat="39.46823700270752" lon="8.487901613265873"><ele>178.8</ele><time>2026-04-06T09:20:10.999Z</time></trkpt><trkpt lat="39.468358954890235" lon="8.487915597194188"><ele>181.60000000000002</ele><time>2026-04-06T09:20:11.999Z</time></trkpt><trkpt lat="39.4684517455351" lon="8.487948801837561"><ele>184.4</ele><time>2026-04-06T09:20:12.999Z</time></trkpt><trkpt lat="39.46851768944631" lon="8.488049528263165"><ele>187.2</ele><time>2026-04-06T09:20:13.999Z</time></trkpt><trkpt lat="39.468556834828" lon="8.488173983172718"><ele>190.0</ele><time>2026-04-06T09:20:14.999Z</time></trkpt><trkpt lat="39.468528753438314" lon="8.488326346684659"><ele>190.0</ele><time>2026-04-06T09:20:15.999Z</time></trkpt><trkpt lat="39.468491827876505" lon="8.488482137349518"><ele>190.0</ele><time>2026-04-06T09:20:16.999Z</time></trkpt><trkpt lat="39.468467311482954" lon="8.488695130995296"><ele>190.0</ele><time>2026-04-06T09:20:17.999Z</time></trkpt><trkpt lat="39.46843397634334" lon="8.488913816950998"><ele>189.5</ele><time>2026-04-06T09:20:18.999Z</time></trkpt><trkpt lat="39.46843595500725" lon="8.489098391040493"><ele>189.0</ele><time>2026-04-06T09:20:19.999Z</time></trkpt><trkpt lat="39.468478444431774" lon="8.489238271656719"><ele>188.5</ele><time>2026-04-06T09:20:20.999Z</time></trkpt><trkpt lat="39.46857699975651" lon="8.489359818740033"><ele>188.0</ele><time>2026-04-06T09:20:21.999Z</time></trkpt><trkpt lat="39.46870991823882" lon="8.489444585814278"><ele>189.0</ele><time>2026-04-06T09:20:22.999Z</time></trkpt><trkpt lat="39.46886991815447" lon="8.4895040861613"><ele>190.0</ele><time>2026-04-06T09:20:23.999Z</time></trkpt><trkpt lat="39.46904420626425" lon="8.489630558611273"><ele>191.0</ele><time>2026-04-06T09:20:24.999Z</time></trkpt><trkpt lat="39.469225799910475" lon="8.48976460176462"><ele>191.0</ele><time>2026-04-06T09:20:25.999Z</time></trkpt><trkpt lat="39.469393751440265" lon="8.489886193620592"><ele>191.0</ele><time>2026-04-06T09:20:26.999Z</time></trkpt><trkpt lat="39.46956670465441" lon="8.490014555951978"><ele>191.0</ele><time>2026-04-06T09:20:27.999Z</time></trkpt><trkpt lat="39.46972492854091" lon="8.490150860570218"><ele>196.0</ele><time>2026-04-06T09:20:28.999Z</time></trkpt><trkpt lat="39.46982230468926" lon="8.490320068418388"><ele>201.0</ele><time>2026-04-06T09:20:29.999Z</time></trkpt><trkpt lat="39.46990210387869" lon="8.490500600214652"><ele>206.0</ele><time>2026-04-06T09:20:30.999Z</time></trkpt><trkpt lat="39.47000746579789" lon="8.490673379360837"><ele>206.0</ele><time>2026-04-06T09:20:31.999Z</time></trkpt><trkpt lat="39.47010727893273" lon="8.490853319560317"><ele>206.0</ele><time>2026-04-06T09:20:32.999Z</time></trkpt><trkpt lat="39.470248840759425" lon="8.490975742445785"><ele>206.0</ele><time>2026-04-06T09:20:33.999Z</time></trkpt><trkpt lat="39.47041767173798" lon="8.491039813057537"><ele>211.66666666666669</ele><time>2026-04-06T09:20:34.999Z</time></trkpt><trkpt lat="39.47059570963582" lon="8.491100842247798"><ele>217.33333333333331</ele><time>2026-04-06T09:20:35.999Z</time></trkpt><trkpt lat="39.47078611419014" lon="8.491142262127582"><ele>223.0</ele><time>2026-04-06T09:20:36.999Z</time></trkpt><trkpt lat="39.470980088282126" lon="8.49113912836661"><ele>223.0</ele><time>2026-04-06T09:20:37.999Z</time></trkpt><trkpt lat="39.47117051944895" lon="8.491088943677187"><ele>223.0</ele><time>2026-04-06T09:20:38.999Z</time></trkpt><trkpt lat="39.47136669714707" lon="8.491023570912288"><ele>223.0</ele><time>2026-04-06T09:20:39.999Z</time></trkpt><trkpt lat="39.47156959810608" lon="8.49104699496273"><ele>223.66666666666666</ele><time>2026-04-06T09:20:40.999Z</time></trkpt><trkpt lat="39.471777645964806" lon="8.491078630952938"><ele>224.33333333333331</ele><time>2026-04-06T09:20:41.999Z</time></trkpt><trkpt lat="39.47199279631212" lon="8.491114272346298"><ele>225.0</ele><time>2026-04-06T09:20:42.999Z</time></trkpt><trkpt lat="39.47219278694037" lon="8.491147272948474"><ele>227.25</ele><time>2026-04-06T09:20:43.999Z</time></trkpt><trkpt lat="39.472368397046196" lon="8.491176084552166"><ele>229.5</ele><time>2026-04-06T09:20:44.999Z</time></trkpt><trkpt lat="39.47250778685975" lon="8.49119895365539"><ele>231.75</ele><time>2026-04-06T09:20:45.999Z</time></trkpt><trkpt lat="39.47263049094343" lon="8.491222519401207"><ele>234.0</ele><time>2026-04-06T09:20:46.999Z</time></trkpt><trkpt lat="39.472725164529834" lon="8.49125644100431"><ele>229.25</ele><time>2026-04-06T09:20:47.999Z</time></trkpt><trkpt lat="39.472785227746535" lon="8.491333754929327"><ele>224.5</ele><time>2026-04-06T09:20:48.999Z</time></trkpt><trkpt lat="39.472800047540915" lon="8.491450652791084"><ele>219.75</ele><time>2026-04-06T09:20:49.999Z</time></trkpt><trkpt lat="39.47276820562228" lon="8.491605306466777"><ele>215.0</ele><time>2026-04-06T09:20:50.999Z</time></trkpt><trkpt lat="39.472777649835706" lon="8.49180555673931"><ele>215.0</ele><time>2026-04-06T09:20:51.999Z</time></trkpt><trkpt lat="39.472781131221524" lon="8.492017250998508"><ele>215.0</ele><time>2026-04-06T09:20:52.999Z</time></trkpt><trkpt lat="39.472831418289964" lon="8.492227825791494"><ele>215.0</ele><time>2026-04-06T09:20:53.999Z</time></trkpt><trkpt lat="39.47291448042215" lon="8.492402754403038"><ele>221.25</ele><time>2026-04-06T09:20:54.999Z</time></trkpt><trkpt lat="39.47305062082055" lon="8.492525109902507"><ele>227.5</ele><time>2026-04-06T09:20:55.999Z</time></trkpt><trkpt lat="39.473173513252235" lon="8.492630620963004"><ele>233.75</ele><time>2026-04-06T09:20:56.999Z</time></trkpt><trkpt lat="39.4732436042837" lon="8.492744389794485"><ele>240.0</ele><time>2026-04-06T09:20:57.999Z</time></trkpt><trkpt lat="39.473233451911305" lon="8.492890817263524"><ele>236.5</ele><time>2026-04-06T09:20:58.999Z</time></trkpt><trkpt lat="39.47321874101155" lon="8.493047786147992"><ele>233.0</ele><time>2026-04-06T09:20:59.999Z</time></trkpt><trkpt lat="39.47318742062324" lon="8.493214939579536"><ele>229.5</ele><time>2026-04-06T09:21:00.999Z</time></trkpt><trkpt lat="39.47319405029165" lon="8.493360702097618"><ele>226.0</ele><time>2026-04-06T09:21:01.999Z</time></trkpt><trkpt lat="39.4732488673186" lon="8.493492310607705"><ele>226.0</ele><time>2026-04-06T09:21:02.999Z</time></trkpt><trkpt lat="39.473351792423266" lon="8.493612927332007"><ele>226.0</ele><time>2026-04-06T09:21:03.999Z</time></trkpt><trkpt lat="39.47349150208831" lon="8.493703277707125"><ele>226.0</ele><time>2026-04-06T09:21:04.999Z</time></trkpt><trkpt lat="39.47364974225247" lon="8.49374154394711"><ele>227.0</ele><time>2026-04-06T09:21:05.999Z</time></trkpt><trkpt lat="39.47381733171123" lon="8.493738346229707"><ele>228.0</ele><time>2026-04-06T09:21:06.999Z</time></trkpt><trkpt lat="39.47396371414218" lon="8.493785028172745"><ele>229.0</ele><time>2026-04-06T09:21:08Z</time></trkpt><trkpt lat="39.47406732393421" lon="8.49390152800501"><ele>229.0</ele><time>2026-04-06T09:21:09Z</time></trkpt><trkpt lat="39.474194473835674" lon="8.494013225526848"><ele>229.0</ele><time>2026-04-06T09:21:10Z</time></trkpt><trkpt lat="39.474348188355904" lon="8.494096475907583"><ele>229.0</ele><time>2026-04-06T09:21:11Z</time></trkpt><trkpt lat="39.47454064338083" lon="8.494157506629334"><ele>234.66666666666666</ele><time>2026-04-06T09:21:12Z</time></trkpt><trkpt lat="39.47474606090327" lon="8.494213976811817"><ele>240.33333333333331</ele><time>2026-04-06T09:21:13Z</time></trkpt><trkpt lat="39.474939016087625" lon="8.494280699044232"><ele>246.0</ele><time>2026-04-06T09:21:14Z</time></trkpt><trkpt lat="39.47512585914066" lon="8.49434949586989"><ele>246.0</ele><time>2026-04-06T09:21:15Z</time></trkpt><trkpt lat="39.47527906273584" lon="8.494402936052834"><ele>246.0</ele><time>2026-04-06T09:21:16Z</time></trkpt><trkpt lat="39.47540515843921" lon="8.494422484560834"><ele>246.0</ele><time>2026-04-06T09:21:17Z</time></trkpt><trkpt lat="39.475509713660045" lon="8.494386686061873"><ele>246.0</ele><time>2026-04-06T09:21:18Z</time></trkpt><trkpt lat="39.475637505356396" lon="8.494288769108252"><ele>245.0</ele><time>2026-04-06T09:21:19Z</time></trkpt><trkpt lat="39.475725361366926" lon="8.494133277304982"><ele>244.0</ele><time>2026-04-06T09:21:20Z</time></trkpt><trkpt lat="39.47579201161253" lon="8.493945223662227"><ele>243.0</ele><time>2026-04-06T09:21:21Z</time></trkpt><trkpt lat="39.47584948776488" lon="8.49376348331246"><ele>248.4</ele><time>2026-04-06T09:21:22Z</time></trkpt><trkpt lat="39.47593454108234" lon="8.493645726700885"><ele>253.8</ele><time>2026-04-06T09:21:23Z</time></trkpt><trkpt lat="39.47602255970662" lon="8.493574178924664"><ele>259.2</ele><time>2026-04-06T09:21:24Z</time></trkpt><trkpt lat="39.476126810396416" lon="8.493578393433943"><ele>264.6</ele><time>2026-04-06T09:21:25Z</time></trkpt><trkpt lat="39.47622002077084" lon="8.493646701886975"><ele>270.0</ele><time>2026-04-06T09:21:26Z</time></trkpt><trkpt lat="39.47633739617383" lon="8.493718303157408"><ele>270.5</ele><time>2026-04-06T09:21:27Z</time></trkpt><trkpt lat="39.476441595741605" lon="8.493783919003956"><ele>271.0</ele><time>2026-04-06T09:21:28Z</time></trkpt><trkpt lat="39.47655641207077" lon="8.493763299661959"><ele>271.5</ele><time>2026-04-06T09:21:29Z</time></trkpt><trkpt lat="39.47668325786206" lon="8.493685957909356"><ele>272.0</ele><time>2026-04-06T09:21:30Z</time></trkpt><trkpt lat="39.47679454350321" lon="8.493593936251749"><ele>272.0</ele><time>2026-04-06T09:21:31Z</time></trkpt><trkpt lat="39.47689307441425" lon="8.493546455560367"><ele>272.0</ele><time>2026-04-06T09:21:32Z</time></trkpt><trkpt lat="39.476983730293114" lon="8.493586016781938"><ele>272.0</ele><time>2026-04-06T09:21:33Z</time></trkpt><trkpt lat="39.477040749918174" lon="8.493700821682676"><ele>272.0</ele><time>2026-04-06T09:21:34Z</time></trkpt><trkpt lat="39.47702992031206" lon="8.493862427582632"><ele>272.0</ele><time>2026-04-06T09:21:35Z</time></trkpt><trkpt lat="39.47703000719624" lon="8.494035948439732"><ele>265.75</ele><time>2026-04-06T09:21:36Z</time></trkpt><trkpt lat="39.47699100248861" lon="8.494226353648004"><ele>259.5</ele><time>2026-04-06T09:21:37Z</time></trkpt><trkpt lat="39.47695528770813" lon="8.494420690793568"><ele>253.25</ele><time>2026-04-06T09:21:38Z</time></trkpt><trkpt lat="39.47696244895529" lon="8.49459733147109"><ele>247.0</ele><time>2026-04-06T09:21:39Z</time></trkpt><trkpt lat="39.477022772696266" lon="8.494762248409966"><ele>253.75</ele><time>2026-04-06T09:21:40Z</time></trkpt><trkpt lat="39.47712735701343" lon="8.494903534007792"><ele>260.5</ele><time>2026-04-06T09:21:41Z</time></trkpt><trkpt lat="39.47725986640192" lon="8.494989959859577"><ele>267.25</ele><time>2026-04-06T09:21:42Z</time></trkpt><trkpt lat="39.47738088316551" lon="8.495043070040017"><ele>274.0</ele><time>2026-04-06T09:21:43Z</time></trkpt><trkpt lat="39.477460804545935" lon="8.49512819167027"><ele>274.0</ele><time>2026-04-06T09:21:44Z</time></trkpt><trkpt lat="39.477464941292524" lon="8.49527685184692"><ele>274.0</ele><time>2026-04-06T09:21:45Z</time></trkpt><trkpt lat="39.47747812614988" lon="8.495429943037221"><ele>274.0</ele><time>2026-04-06T09:21:46Z</time></trkpt><trkpt lat="39.47743146888546" lon="8.49555138214339"><ele>274.0</ele><time>2026-04-06T09:21:47Z</time></trkpt><trkpt lat="39.47734207722777" lon="8.49561883281907"><ele>274.0</ele><time>2026-04-06T09:21:48Z</time></trkpt><trkpt lat="39.477231293806476" lon="8.495664142282386"><ele>274.0</ele><time>2026-04-06T09:21:49Z</time></trkpt><trkpt lat="39.4771441953659" lon="8.495758197233627"><ele>274.0</ele><time>2026-04-06T09:21:50Z</time></trkpt><trkpt lat="39.47712605362748" lon="8.495898984455305"><ele>274.0</ele><time>2026-04-06T09:21:51Z</time></trkpt><trkpt lat="39.477165349390184" lon="8.496058982676011"><ele>274.0</ele><time>2026-04-06T09:21:52Z</time></trkpt><trkpt lat="39.47724867240631" lon="8.496192607272244"><ele>275.75</ele><time>2026-04-06T09:21:53Z</time></trkpt><trkpt lat="39.47730490614836" lon="8.4963194046692"><ele>277.5</ele><time>2026-04-06T09:21:54Z</time></trkpt><trkpt lat="39.47726406260893" lon="8.496455802353674"><ele>279.25</ele><time>2026-04-06T09:21:55Z</time></trkpt><trkpt lat="39.47721380050779" lon="8.49661877519988"><ele>281.0</ele><time>2026-04-06T09:21:56Z</time></trkpt><trkpt lat="39.477146971964906" lon="8.496782577229354"><ele>281.0</ele><time>2026-04-06T09:21:57Z</time></trkpt><trkpt lat="39.477125064875906" lon="8.496964210620582"><ele>281.0</ele><time>2026-04-06T09:21:58Z</time></trkpt><trkpt lat="39.47715003968245" lon="8.49713405786426"><ele>281.0</ele><time>2026-04-06T09:21:59Z</time></trkpt><trkpt lat="39.47721556533015" lon="8.497275876094935"><ele>281.0</ele><time>2026-04-06T09:22:00Z</time></trkpt><trkpt lat="39.4773084172542" lon="8.4973714999019"><ele>278.25</ele><time>2026-04-06T09:22:01Z</time></trkpt><trkpt lat="39.47743181377306" lon="8.497418489294905"><ele>275.5</ele><time>2026-04-06T09:22:02Z</time></trkpt><trkpt lat="39.47756800581372" lon="8.497419042845642"><ele>272.75</ele><time>2026-04-06T09:22:03Z</time></trkpt><trkpt lat="39.47770037417304" lon="8.497430073555648"><ele>270.0</ele><time>2026-04-06T09:22:04Z</time></trkpt><trkpt lat="39.47784320344941" lon="8.497379324478944"><ele>266.0</ele><time>2026-04-06T09:22:05Z</time></trkpt><trkpt lat="39.47799172717649" lon="8.497289195098354"><ele>262.0</ele><time>2026-04-06T09:22:06Z</time></trkpt><trkpt lat="39.478135578380474" lon="8.497173116841559"><ele>258.0</ele><time>2026-04-06T09:22:07Z</time></trkpt><trkpt lat="39.47827230121397" lon="8.497028532516127"><ele>268.3333333333333</ele><time>2026-04-06T09:22:08Z</time></trkpt><trkpt lat="39.4784302688353" lon="8.49688027029886"><ele>278.66666666666663</ele><time>2026-04-06T09:22:09Z</time></trkpt><trkpt lat="39.47859547715497" lon="8.496729901354513"><ele>289.0</ele><time>2026-04-06T09:22:10Z</time></trkpt><trkpt lat="39.4787415681323" lon="8.496570657831967"><ele>285.0</ele><time>2026-04-06T09:22:11Z</time></trkpt><trkpt lat="39.478894074333525" lon="8.496424425489916"><ele>281.0</ele><time>2026-04-06T09:22:12Z</time></trkpt><trkpt lat="39.479044764462884" lon="8.49626185664148"><ele>277.0</ele><time>2026-04-06T09:22:13Z</time></trkpt><trkpt lat="39.47919905940945" lon="8.496101705897656"><ele>287.3333333333333</ele><time>2026-04-06T09:22:14Z</time></trkpt><trkpt lat="39.47936990895073" lon="8.496007591344732"><ele>297.6666666666667</ele><time>2026-04-06T09:22:15Z</time></trkpt><trkpt lat="39.47951514304386" lon="8.49591107029922"><ele>308.0</ele><time>2026-04-06T09:22:16Z</time></trkpt><trkpt lat="39.47961229736796" lon="8.495830104559527"><ele>309.5</ele><time>2026-04-06T09:22:17Z</time></trkpt><trkpt lat="39.479712762337314" lon="8.49582635327377"><ele>311.0</ele><time>2026-04-06T09:22:18Z</time></trkpt><trkpt lat="39.47979895557337" lon="8.495926199279994"><ele>312.5</ele><time>2026-04-06T09:22:19Z</time></trkpt><trkpt lat="39.47989516387822" lon="8.496028065885206"><ele>314.0</ele><time>2026-04-06T09:22:20Z</time></trkpt><trkpt lat="39.479978549210394" lon="8.496171138707869"><ele>310.25</ele><time>2026-04-06T09:22:21Z</time></trkpt><trkpt lat="39.48000051657785" lon="8.496354131311396"><ele>306.5</ele><time>2026-04-06T09:22:22Z</time></trkpt><trkpt lat="39.47995540244031" lon="8.496527728092302"><ele>302.75</ele><time>2026-04-06T09:22:23Z</time></trkpt><trkpt lat="39.47988327402346" lon="8.496689183360907"><ele>299.0</ele><time>2026-04-06T09:22:24Z</time></trkpt><trkpt lat="39.47981804974979" lon="8.496863117711138"><ele>299.0</ele><time>2026-04-06T09:22:25Z</time></trkpt><trkpt lat="39.47976370831561" lon="8.497029590025546"><ele>299.0</ele><time>2026-04-06T09:22:26Z</time></trkpt><trkpt lat="39.47976848978786" lon="8.49720393417777"><ele>299.0</ele><time>2026-04-06T09:22:27Z</time></trkpt><trkpt lat="39.47981504981726" lon="8.4973742865479"><ele>299.0</ele><time>2026-04-06T09:22:28Z</time></trkpt><trkpt lat="39.479898147918256" lon="8.497522994595192"><ele>298.75</ele><time>2026-04-06T09:22:29Z</time></trkpt><trkpt lat="39.480010901575476" lon="8.497630301240697"><ele>298.5</ele><time>2026-04-06T09:22:30Z</time></trkpt><trkpt lat="39.48014584926482" lon="8.497688807176395"><ele>298.25</ele><time>2026-04-06T09:22:31Z</time></trkpt><trkpt lat="39.48029097724181" lon="8.497707334790313"><ele>298.0</ele><time>2026-04-06T09:22:32Z</time></trkpt><trkpt lat="39.480444708558394" lon="8.497686831284117"><ele>301.66666666666663</ele><time>2026-04-06T09:22:33Z</time></trkpt><trkpt lat="39.480606882493646" lon="8.497649921938796"><ele>305.3333333333333</ele><time>2026-04-06T09:22:34Z</time></trkpt><trkpt lat="39.48077807491661" lon="8.497636603921148"><ele>309.0</ele><time>2026-04-06T09:22:35Z</time></trkpt><trkpt lat="39.48095662795527" lon="8.497628158478104"><ele>309.0</ele><time>2026-04-06T09:22:36Z</time></trkpt><trkpt lat="39.48113965729975" lon="8.497614410364275"><ele>309.0</ele><time>2026-04-06T09:22:37Z</time></trkpt><trkpt lat="39.48129957560584" lon="8.497600584146557"><ele>309.0</ele><time>2026-04-06T09:22:38Z</time></trkpt><trkpt lat="39.48142515760474" lon="8.497593815376064"><ele>306.25</ele><time>2026-04-06T09:22:39Z</time></trkpt><trkpt lat="39.48154111699841" lon="8.49763309316257"><ele>303.5</ele><time>2026-04-06T09:22:40Z</time></trkpt><trkpt lat="39.48165322258886" lon="8.497732189997677"><ele>300.75</ele><time>2026-04-06T09:22:41Z</time></trkpt><trkpt lat="39.48173368230358" lon="8.497897789787617"><ele>298.0</ele><time>2026-04-06T09:22:42Z</time></trkpt><trkpt lat="39.48181199119425" lon="8.498076276324193"><ele>298.0</ele><time>2026-04-06T09:22:43Z</time></trkpt><trkpt lat="39.48185582126901" lon="8.498252674588226"><ele>298.0</ele><time>2026-04-06T09:22:44Z</time></trkpt><trkpt lat="39.48192265618426" lon="8.498407157021918"><ele>298.0</ele><time>2026-04-06T09:22:45Z</time></trkpt><trkpt lat="39.48201047343115" lon="8.498545680322813"><ele>298.0</ele><time>2026-04-06T09:22:46Z</time></trkpt><trkpt lat="39.48216301868677" lon="8.498643708353395"><ele>298.0</ele><time>2026-04-06T09:22:47Z</time></trkpt><trkpt lat="39.482326971509735" lon="8.498728891659086"><ele>298.0</ele><time>2026-04-06T09:22:48Z</time></trkpt><trkpt lat="39.48249911264639" lon="8.498820094491752"><ele>298.0</ele><time>2026-04-06T09:22:49Z</time></trkpt><trkpt lat="39.48266845484064" lon="8.498922396481854"><ele>298.0</ele><time>2026-04-06T09:22:50Z</time></trkpt><trkpt lat="39.482820578293726" lon="8.499005113909732"><ele>298.0</ele><time>2026-04-06T09:22:51Z</time></trkpt><trkpt lat="39.482966117271076" lon="8.49904964826459"><ele>298.0</ele><time>2026-04-06T09:22:52Z</time></trkpt><trkpt lat="39.48312453691013" lon="8.499039325646711"><ele>304.3333333333333</ele><time>2026-04-06T09:22:53Z</time></trkpt><trkpt lat="39.48328452865192" lon="8.498976983123354"><ele>310.6666666666667</ele><time>2026-04-06T09:22:54Z</time></trkpt><trkpt lat="39.48344275260834" lon="8.498924335171239"><ele>317.0</ele><time>2026-04-06T09:22:55Z</time></trkpt><trkpt lat="39.48358135970871" lon="8.49889818684364"><ele>317.0</ele><time>2026-04-06T09:22:56Z</time></trkpt><trkpt lat="39.483697951294175" lon="8.498888397061993"><ele>317.0</ele><time>2026-04-06T09:22:57Z</time></trkpt><trkpt lat="39.483787028046585" lon="8.498926643289154"><ele>317.0</ele><time>2026-04-06T09:22:58Z</time></trkpt><trkpt lat="39.48383956174895" lon="8.499015339702497"><ele>317.0</ele><time>2026-04-06T09:22:59Z</time></trkpt><trkpt lat="39.483867824147914" lon="8.499138210960105"><ele>317.0</ele><time>2026-04-06T09:23:00Z</time></trkpt><trkpt lat="39.483858029219824" lon="8.499297596229788"><ele>322.0</ele><time>2026-04-06T09:23:01Z</time></trkpt><trkpt lat="39.4838527908143" lon="8.499483921785364"><ele>327.0</ele><time>2026-04-06T09:23:02Z</time></trkpt><trkpt lat="39.483858900609036" lon="8.499690063509695"><ele>332.0</ele><time>2026-04-06T09:23:03Z</time></trkpt><trkpt lat="39.48385072772304" lon="8.499878787653028"><ele>337.0</ele><time>2026-04-06T09:23:04Z</time></trkpt><trkpt lat="39.48380288425269" lon="8.500029236134901"><ele>338.5</ele><time>2026-04-06T09:23:05Z</time></trkpt><trkpt lat="39.48371868904182" lon="8.500161759502067"><ele>340.0</ele><time>2026-04-06T09:23:06Z</time></trkpt><trkpt lat="39.48365067197243" lon="8.500323503564344"><ele>341.5</ele><time>2026-04-06T09:23:07Z</time></trkpt><trkpt lat="39.483712226799" lon="8.50050976527513"><ele>343.0</ele><time>2026-04-06T09:23:08Z</time></trkpt><trkpt lat="39.48376958289628" lon="8.5006741246193"><ele>343.0</ele><time>2026-04-06T09:23:09Z</time></trkpt><trkpt lat="39.483864486455964" lon="8.50079121047606"><ele>343.0</ele><time>2026-04-06T09:23:10Z</time></trkpt><trkpt lat="39.4839530072787" lon="8.500893180038704"><ele>343.0</ele><time>2026-04-06T09:23:11Z</time></trkpt><trkpt lat="39.484023296571046" lon="8.500994092404634"><ele>343.0</ele><time>2026-04-06T09:23:12Z</time></trkpt><trkpt lat="39.48400372992085" lon="8.501124195718113"><ele>343.0</ele><time>2026-04-06T09:23:13Z</time></trkpt><trkpt lat="39.483905825271684" lon="8.501209715890335"><ele>343.0</ele><time>2026-04-06T09:23:14Z</time></trkpt><trkpt lat="39.48380657949877" lon="8.50127784400418"><ele>343.0</ele><time>2026-04-06T09:23:15Z</time></trkpt><trkpt lat="39.483703071474544" lon="8.501378346011355"><ele>343.0</ele><time>2026-04-06T09:23:16Z</time></trkpt><trkpt lat="39.48358698921301" lon="8.501516130383449"><ele>338.2</ele><time>2026-04-06T09:23:17Z</time></trkpt><trkpt lat="39.483503019161766" lon="8.501616297050498"><ele>333.4</ele><time>2026-04-06T09:23:18Z</time></trkpt><trkpt lat="39.48348015682512" lon="8.501747582540675"><ele>328.59999999999997</ele><time>2026-04-06T09:23:19Z</time></trkpt><trkpt lat="39.48349339725964" lon="8.501827674195894"><ele>323.79999999999995</ele><time>2026-04-06T09:23:20Z</time></trkpt><trkpt lat="39.48358529365276" lon="8.501917292731068"><ele>319.0</ele><time>2026-04-06T09:23:21Z</time></trkpt><trkpt lat="39.48370339358025" lon="8.502003550368089"><ele>332.0</ele><time>2026-04-06T09:23:22Z</time></trkpt><trkpt lat="39.48382117196636" lon="8.502118094656304"><ele>345.0</ele><time>2026-04-06T09:23:23Z</time></trkpt><trkpt lat="39.48392369274108" lon="8.502279708946322"><ele>358.0</ele><time>2026-04-06T09:23:24Z</time></trkpt><trkpt lat="39.48401441957161" lon="8.50245992325526"><ele>358.0</ele><time>2026-04-06T09:23:25Z</time></trkpt><trkpt lat="39.48409245042939" lon="8.502601064823985"><ele>358.0</ele><time>2026-04-06T09:23:26Z</time></trkpt><trkpt lat="39.484125915375486" lon="8.502721637122855"><ele>358.0</ele><time>2026-04-06T09:23:27Z</time></trkpt><trkpt lat="39.48409633794286" lon="8.502831595306722"><ele>358.0</ele><time>2026-04-06T09:23:28Z</time></trkpt><trkpt lat="39.4840235635577" lon="8.502908155704727"><ele>358.0</ele><time>2026-04-06T09:23:29Z</time></trkpt><trkpt lat="39.483918122956766" lon="8.502911305808496"><ele>358.0</ele><time>2026-04-06T09:23:30Z</time></trkpt><trkpt lat="39.48376378757903" lon="8.502909609170024"><ele>358.0</ele><time>2026-04-06T09:23:31Z</time></trkpt><trkpt lat="39.483621808170106" lon="8.50290653522622"><ele>358.0</ele><time>2026-04-06T09:23:32Z</time></trkpt><trkpt lat="39.48347190312316" lon="8.502913885454417"><ele>358.0</ele><time>2026-04-06T09:23:33Z</time></trkpt><trkpt lat="39.48333449833512" lon="8.502923517280173"><ele>357.25</ele><time>2026-04-06T09:23:34Z</time></trkpt><trkpt lat="39.4832193166372" lon="8.502952255902489"><ele>356.5</ele><time>2026-04-06T09:23:35Z</time></trkpt><trkpt lat="39.48311320798609" lon="8.503033429994396"><ele>355.75</ele><time>2026-04-06T09:23:36Z</time></trkpt><trkpt lat="39.48300605101857" lon="8.503171782739654"><ele>355.0</ele><time>2026-04-06T09:23:37Z</time></trkpt><trkpt lat="39.4828939729856" lon="8.503331924509318"><ele>349.0</ele><time>2026-04-06T09:23:38Z</time></trkpt><trkpt lat="39.482785039030155" lon="8.50349048687456"><ele>343.0</ele><time>2026-04-06T09:23:39Z</time></trkpt><trkpt lat="39.482704525214714" lon="8.503625898245382"><ele>337.0</ele><time>2026-04-06T09:23:40Z</time></trkpt><trkpt lat="39.48266543333323" lon="8.503766648436013"><ele>331.0</ele><time>2026-04-06T09:23:41Z</time></trkpt><trkpt lat="39.48268065966349" lon="8.503925051131574"><ele>331.0</ele><time>2026-04-06T09:23:42Z</time></trkpt><trkpt lat="39.48272975611209" lon="8.504112294551128"><ele>331.0</ele><time>2026-04-06T09:23:43Z</time></trkpt><trkpt lat="39.48279245257425" lon="8.504306665144544"><ele>331.0</ele><time>2026-04-06T09:23:44Z</time></trkpt><trkpt lat="39.48287391282031" lon="8.504512276461428"><ele>343.5</ele><time>2026-04-06T09:23:45Z</time></trkpt><trkpt lat="39.482943336169896" lon="8.504710158476588"><ele>356.0</ele><time>2026-04-06T09:23:46Z</time></trkpt><trkpt lat="39.48301171968562" lon="8.504850149109057"><ele>368.5</ele><time>2026-04-06T09:23:47Z</time></trkpt><trkpt lat="39.483004962938125" lon="8.504982367345013"><ele>381.0</ele><time>2026-04-06T09:23:48Z</time></trkpt><trkpt lat="39.48294485902551" lon="8.505085283560915"><ele>377.75</ele><time>2026-04-06T09:23:49Z</time></trkpt><trkpt lat="39.48282308136163" lon="8.505144855321289"><ele>374.5</ele><time>2026-04-06T09:23:50Z</time></trkpt><trkpt lat="39.482702073068786" lon="8.505247376149255"><ele>371.25</ele><time>2026-04-06T09:23:51Z</time></trkpt><trkpt lat="39.48257919539678" lon="8.505379959542248"><ele>368.0</ele><time>2026-04-06T09:23:52Z</time></trkpt><trkpt lat="39.48247454737455" lon="8.505563351825327"><ele>368.0</ele><time>2026-04-06T09:23:53Z</time></trkpt><trkpt lat="39.4823880818737" lon="8.505773007116208"><ele>368.0</ele><time>2026-04-06T09:23:54Z</time></trkpt><trkpt lat="39.482312814806114" lon="8.505941160869478"><ele>368.0</ele><time>2026-04-06T09:23:55Z</time></trkpt><trkpt lat="39.482271061170835" lon="8.50606917022872"><ele>368.0</ele><time>2026-04-06T09:23:56Z</time></trkpt><trkpt lat="39.482285308219716" lon="8.506190453483535"><ele>368.5</ele><time>2026-04-06T09:23:57Z</time></trkpt><trkpt lat="39.4823578767327" lon="8.506293104642564"><ele>369.0</ele><time>2026-04-06T09:23:58Z</time></trkpt><trkpt lat="39.48246279302598" lon="8.506343759766567"><ele>369.5</ele><time>2026-04-06T09:23:59Z</time></trkpt><trkpt lat="39.4825897285064" lon="8.506332147781283"><ele>370.0</ele><time>2026-04-06T09:24:00Z</time></trkpt><trkpt lat="39.48273175759022" lon="8.506295048963706"><ele>370.0</ele><time>2026-04-06T09:24:01Z</time></trkpt><trkpt lat="39.482885958656354" lon="8.50626766726269"><ele>370.0</ele><time>2026-04-06T09:24:02Z</time></trkpt><trkpt lat="39.48305005005719" lon="8.506238703942874"><ele>370.0</ele><time>2026-04-06T09:24:03Z</time></trkpt><trkpt lat="39.483224116768184" lon="8.506194235996471"><ele>373.66666666666663</ele><time>2026-04-06T09:24:04Z</time></trkpt><trkpt lat="39.483393647434205" lon="8.506125775722408"><ele>377.3333333333333</ele><time>2026-04-06T09:24:05Z</time></trkpt><trkpt lat="39.48355754773277" lon="8.506039150555432"><ele>381.0</ele><time>2026-04-06T09:24:06Z</time></trkpt><trkpt lat="39.4837042912894" lon="8.50592588814226"><ele>382.33333333333337</ele><time>2026-04-06T09:24:07Z</time></trkpt><trkpt lat="39.48382615904894" lon="8.505764367541115"><ele>383.6666666666667</ele><time>2026-04-06T09:24:08Z</time></trkpt><trkpt lat="39.48394729389419" lon="8.505553183703752"><ele>385.0</ele><time>2026-04-06T09:24:09Z</time></trkpt><trkpt lat="39.484088171663096" lon="8.50535502733049"><ele>385.25</ele><time>2026-04-06T09:24:10Z</time></trkpt><trkpt lat="39.48420770005566" lon="8.505173916373593"><ele>385.5</ele><time>2026-04-06T09:24:11Z</time></trkpt><trkpt lat="39.48431023873877" lon="8.505034489056545"><ele>385.75</ele><time>2026-04-06T09:24:12Z</time></trkpt><trkpt lat="39.484403684224155" lon="8.504973192130425"><ele>386.0</ele><time>2026-04-06T09:24:13Z</time></trkpt><trkpt lat="39.48448957264929" lon="8.504962407498612"><ele>386.0</ele><time>2026-04-06T09:24:14Z</time></trkpt><trkpt lat="39.484576461510656" lon="8.504989892172791"><ele>386.0</ele><time>2026-04-06T09:24:15Z</time></trkpt><trkpt lat="39.48464967674075" lon="8.50509991610564"><ele>386.0</ele><time>2026-04-06T09:24:16Z</time></trkpt><trkpt lat="39.48468186263578" lon="8.50524797755491"><ele>386.0</ele><time>2026-04-06T09:24:17Z</time></trkpt><trkpt lat="39.48465471072572" lon="8.505392323353215"><ele>386.0</ele><time>2026-04-06T09:24:18Z</time></trkpt><trkpt lat="39.484580091414095" lon="8.50552978563852"><ele>385.66666666666663</ele><time>2026-04-06T09:24:19Z</time></trkpt><trkpt lat="39.48450246007168" lon="8.50569774030369"><ele>385.33333333333337</ele><time>2026-04-06T09:24:20Z</time></trkpt><trkpt lat="39.48446246006508" lon="8.50591074830812"><ele>385.0</ele><time>2026-04-06T09:24:21Z</time></trkpt><trkpt lat="39.48445896851834" lon="8.506167724428412"><ele>386.0</ele><time>2026-04-06T09:24:22Z</time></trkpt><trkpt lat="39.48447874648283" lon="8.506449204270025"><ele>387.0</ele><time>2026-04-06T09:24:23Z</time></trkpt><trkpt lat="39.484472600342336" lon="8.506737041696143"><ele>388.0</ele><time>2026-04-06T09:24:24Z</time></trkpt><trkpt lat="39.484464992888775" lon="8.507027376950774"><ele>391.5</ele><time>2026-04-06T09:24:25Z</time></trkpt><trkpt lat="39.48443447463544" lon="8.507323819478614"><ele>395.0</ele><time>2026-04-06T09:24:26Z</time></trkpt><trkpt lat="39.48441122421634" lon="8.507636990214205"><ele>396.3333333333333</ele><time>2026-04-06T09:24:27Z</time></trkpt><trkpt lat="39.48439073350434" lon="8.507935382181168"><ele>397.66666666666663</ele><time>2026-04-06T09:24:28Z</time></trkpt><trkpt lat="39.48437352169313" lon="8.508200125991765"><ele>399.0</ele><time>2026-04-06T09:24:29Z</time></trkpt><trkpt lat="39.48435736288594" lon="8.508436358841168"><ele>399.0</ele><time>2026-04-06T09:24:30Z</time></trkpt><trkpt lat="39.48434265437565" lon="8.508650316405632"><ele>399.0</ele><time>2026-04-06T09:24:31Z</time></trkpt><trkpt lat="39.48432607498484" lon="8.508841112930801"><ele>399.0</ele><time>2026-04-06T09:24:32Z</time></trkpt><trkpt lat="39.484300537207695" lon="8.509009729531808"><ele>399.0</ele><time>2026-04-06T09:24:33Z</time></trkpt><trkpt lat="39.48425415110776" lon="8.509154331440724"><ele>400.79999999999995</ele><time>2026-04-06T09:24:34Z</time></trkpt><trkpt lat="39.48418188080734" lon="8.509266978435987"><ele>402.59999999999997</ele><time>2026-04-06T09:24:35Z</time></trkpt><trkpt lat="39.48409841154607" lon="8.509363235977524"><ele>404.4</ele><time>2026-04-06T09:24:36Z</time></trkpt><trkpt lat="39.484025304067366" lon="8.509464486396562"><ele>406.2</ele><time>2026-04-06T09:24:37Z</time></trkpt><trkpt lat="39.48397132072832" lon="8.509582031873089"><ele>408.0</ele><time>2026-04-06T09:24:38Z</time></trkpt><trkpt lat="39.483933349638875" lon="8.509706916999512"><ele>410.59999999999997</ele><time>2026-04-06T09:24:39Z</time></trkpt><trkpt lat="39.483904679143684" lon="8.509835318266713"><ele>413.2</ele><time>2026-04-06T09:24:40Z</time></trkpt><trkpt lat="39.4838871030727" lon="8.509966997206348"><ele>415.8</ele><time>2026-04-06T09:24:41Z</time></trkpt><trkpt lat="39.48387605426202" lon="8.510102963044943"><ele>418.4</ele><time>2026-04-06T09:24:42Z</time></trkpt><trkpt lat="39.48386723187017" lon="8.510239605389836"><ele>421.0</ele><time>2026-04-06T09:24:43Z</time></trkpt><trkpt lat="39.483869107271985" lon="8.51038404720829"><ele>421.75</ele><time>2026-04-06T09:24:44Z</time></trkpt><trkpt lat="39.483881656843785" lon="8.510528616841741"><ele>422.5</ele><time>2026-04-06T09:24:45Z</time></trkpt><trkpt lat="39.48391740642682" lon="8.510668964523722"><ele>423.25</ele><time>2026-04-06T09:24:46Z</time></trkpt><trkpt lat="39.483970780217156" lon="8.510802842456924"><ele>424.0</ele><time>2026-04-06T09:24:47Z</time></trkpt><trkpt lat="39.484036923570486" lon="8.510930570854784"><ele>424.0</ele><time>2026-04-06T09:24:48Z</time></trkpt><trkpt lat="39.48411040168213" lon="8.51105252508831"><ele>424.0</ele><time>2026-04-06T09:24:49Z</time></trkpt><trkpt lat="39.48419845017502" lon="8.511165705454914"><ele>424.0</ele><time>2026-04-06T09:24:50Z</time></trkpt><trkpt lat="39.484297536955516" lon="8.511275447313366"><ele>424.0</ele><time>2026-04-06T09:24:51Z</time></trkpt><trkpt lat="39.484400650248226" lon="8.511383340148146"><ele>421.25</ele><time>2026-04-06T09:24:52Z</time></trkpt><trkpt lat="39.484504848681745" lon="8.511491135557213"><ele>418.5</ele><time>2026-04-06T09:24:53Z</time></trkpt><trkpt lat="39.48461576063839" lon="8.511600534960847"><ele>415.75</ele><time>2026-04-06T09:24:54Z</time></trkpt><trkpt lat="39.48473648005933" lon="8.511723681322154"><ele>413.0</ele><time>2026-04-06T09:24:55Z</time></trkpt><trkpt lat="39.48486929256192" lon="8.511863463382323"><ele>416.66666666666663</ele><time>2026-04-06T09:24:56Z</time></trkpt><trkpt lat="39.48501482779284" lon="8.512016143957762"><ele>420.33333333333337</ele><time>2026-04-06T09:24:57Z</time></trkpt><trkpt lat="39.485169036997625" lon="8.512184914099002"><ele>424.0</ele><time>2026-04-06T09:24:58Z</time></trkpt><trkpt lat="39.48531663502139" lon="8.5123872790614"><ele>431.6666666666667</ele><time>2026-04-06T09:24:59Z</time></trkpt><trkpt lat="39.485442051957186" lon="8.512572062843443"><ele>439.33333333333337</ele><time>2026-04-06T09:25:00Z</time></trkpt><trkpt lat="39.4855685571795" lon="8.512698890791443"><ele>447.0</ele><time>2026-04-06T09:25:01Z</time></trkpt><trkpt lat="39.48569305693688" lon="8.512776318079565"><ele>447.0</ele><time>2026-04-06T09:25:02Z</time></trkpt><trkpt lat="39.48577084378176" lon="8.51288657895962"><ele>447.0</ele><time>2026-04-06T09:25:03Z</time></trkpt><trkpt lat="39.48582194663581" lon="8.512998325676321"><ele>447.0</ele><time>2026-04-06T09:25:04Z</time></trkpt><trkpt lat="39.485803036058535" lon="8.513161522028291"><ele>447.0</ele><time>2026-04-06T09:25:05Z</time></trkpt><trkpt lat="39.48574185380855" lon="8.513348945421539"><ele>447.0</ele><time>2026-04-06T09:25:06Z</time></trkpt><trkpt lat="39.48567046651288" lon="8.51355508297808"><ele>447.0</ele><time>2026-04-06T09:25:07Z</time></trkpt><trkpt lat="39.485634236496075" lon="8.513737892277895"><ele>447.0</ele><time>2026-04-06T09:25:08Z</time></trkpt><trkpt lat="39.48564742523891" lon="8.513911766906844"><ele>447.0</ele><time>2026-04-06T09:25:09Z</time></trkpt><trkpt lat="39.485709733950266" lon="8.51410848197406"><ele>447.0</ele><time>2026-04-06T09:25:10Z</time></trkpt><trkpt lat="39.48577482577217" lon="8.514329499549621"><ele>447.0</ele><time>2026-04-06T09:25:11Z</time></trkpt><trkpt lat="39.48579473612012" lon="8.5145775644607"><ele>448.0</ele><time>2026-04-06T09:25:12Z</time></trkpt><trkpt lat="39.48581888728311" lon="8.514814568331586"><ele>449.0</ele><time>2026-04-06T09:25:13Z</time></trkpt><trkpt lat="39.48588021870097" lon="8.515064262152707"><ele>450.0</ele><time>2026-04-06T09:25:14Z</time></trkpt><trkpt lat="39.485952429237635" lon="8.515285263235981"><ele>450.75</ele><time>2026-04-06T09:25:15Z</time></trkpt><trkpt lat="39.48601101458306" lon="8.51547780432977"><ele>451.5</ele><time>2026-04-06T09:25:16Z</time></trkpt><trkpt lat="39.486060096315455" lon="8.515651137099791"><ele>452.25</ele><time>2026-04-06T09:25:17Z</time></trkpt><trkpt lat="39.486110381325986" lon="8.515823825018295"><ele>453.0</ele><time>2026-04-06T09:25:18Z</time></trkpt><trkpt lat="39.486167483758116" lon="8.515996119251671"><ele>453.0</ele><time>2026-04-06T09:25:19Z</time></trkpt><trkpt lat="39.48623092517669" lon="8.516175167847335"><ele>453.0</ele><time>2026-04-06T09:25:20Z</time></trkpt><trkpt lat="39.48630402090714" lon="8.51635531313533"><ele>453.0</ele><time>2026-04-06T09:25:21Z</time></trkpt><trkpt lat="39.486378498921304" lon="8.516525499905518"><ele>455.5</ele><time>2026-04-06T09:25:22Z</time></trkpt><trkpt lat="39.48645351599424" lon="8.51668130902939"><ele>458.0</ele><time>2026-04-06T09:25:23Z</time></trkpt><trkpt lat="39.48653692461459" lon="8.516828137204577"><ele>460.5</ele><time>2026-04-06T09:25:24Z</time></trkpt><trkpt lat="39.48664625002093" lon="8.516965739760662"><ele>463.0</ele><time>2026-04-06T09:25:25Z</time></trkpt><trkpt lat="39.48678286638051" lon="8.517084701372479"><ele>463.0</ele><time>2026-04-06T09:25:26Z</time></trkpt><trkpt lat="39.48694489524155" lon="8.51719413979946"><ele>463.0</ele><time>2026-04-06T09:25:27Z</time></trkpt><trkpt lat="39.48711216867485" lon="8.517312056049258"><ele>463.0</ele><time>2026-04-06T09:25:28Z</time></trkpt><trkpt lat="39.48725988674357" lon="8.517433552056351"><ele>462.33333333333337</ele><time>2026-04-06T09:25:29Z</time></trkpt><trkpt lat="39.48739473641067" lon="8.517545545980935"><ele>461.66666666666663</ele><time>2026-04-06T09:25:30Z</time></trkpt><trkpt lat="39.48752751811801" lon="8.517649715934526"><ele>461.0</ele><time>2026-04-06T09:25:31Z</time></trkpt><trkpt lat="39.48766371752496" lon="8.517750334913062"><ele>461.0</ele><time>2026-04-06T09:25:32Z</time></trkpt><trkpt lat="39.48780627748041" lon="8.517841115720328"><ele>461.0</ele><time>2026-04-06T09:25:33Z</time></trkpt><trkpt lat="39.48795913721928" lon="8.517896630225055"><ele>461.0</ele><time>2026-04-06T09:25:34Z</time></trkpt><trkpt lat="39.488121647362846" lon="8.517915743607386"><ele>460.66666666666663</ele><time>2026-04-06T09:25:35Z</time></trkpt><trkpt lat="39.488285001727036" lon="8.517906845988767"><ele>460.33333333333337</ele><time>2026-04-06T09:25:36Z</time></trkpt><trkpt lat="39.488436626000556" lon="8.517865910010903"><ele>460.0</ele><time>2026-04-06T09:25:37Z</time></trkpt><trkpt lat="39.488586563053985" lon="8.51779461451263"><ele>460.0</ele><time>2026-04-06T09:25:38Z</time></trkpt><trkpt lat="39.48874099034257" lon="8.517683648286345"><ele>460.0</ele><time>2026-04-06T09:25:39Z</time></trkpt><trkpt lat="39.48889922377316" lon="8.517573100945548"><ele>460.0</ele><time>2026-04-06T09:25:40Z</time></trkpt><trkpt lat="39.48906124800379" lon="8.517473346780728"><ele>457.6666666666667</ele><time>2026-04-06T09:25:41Z</time></trkpt><trkpt lat="39.48922315698772" lon="8.517381860711305"><ele>455.33333333333337</ele><time>2026-04-06T09:25:42Z</time></trkpt><trkpt lat="39.48938190549711" lon="8.517293613334273"><ele>453.0</ele><time>2026-04-06T09:25:43Z</time></trkpt><trkpt lat="39.48954004601237" lon="8.51721335990838"><ele>453.0</ele><time>2026-04-06T09:25:44Z</time></trkpt><trkpt lat="39.489701589910915" lon="8.517141970584904"><ele>453.0</ele><time>2026-04-06T09:25:45Z</time></trkpt><trkpt lat="39.489862285236065" lon="8.517073959132277"><ele>453.0</ele><time>2026-04-06T09:25:46Z</time></trkpt><trkpt lat="39.49002230624497" lon="8.51699663192359"><ele>453.0</ele><time>2026-04-06T09:25:47Z</time></trkpt><trkpt lat="39.49018732256784" lon="8.5169167737394"><ele>453.0</ele><time>2026-04-06T09:25:48Z</time></trkpt><trkpt lat="39.49035571998188" lon="8.51684435764373"><ele>453.0</ele><time>2026-04-06T09:25:49Z</time></trkpt><trkpt lat="39.49052757775321" lon="8.516792096700648"><ele>451.0</ele><time>2026-04-06T09:25:50Z</time></trkpt><trkpt lat="39.490707665281185" lon="8.51677305315436"><ele>449.0</ele><time>2026-04-06T09:25:51Z</time></trkpt><trkpt lat="39.49088900269241" lon="8.516786580916897"><ele>447.0</ele><time>2026-04-06T09:25:52Z</time></trkpt><trkpt lat="39.49107441572805" lon="8.516837859740233"><ele>447.0</ele><time>2026-04-06T09:25:53Z</time></trkpt><trkpt lat="39.491253046622155" lon="8.516923143108487"><ele>447.0</ele><time>2026-04-06T09:25:54Z</time></trkpt><trkpt lat="39.49143116459311" lon="8.51704427540727"><ele>447.0</ele><time>2026-04-06T09:25:55Z</time></trkpt><trkpt lat="39.4916214296602" lon="8.517195726076439"><ele>446.0</ele><time>2026-04-06T09:25:56Z</time></trkpt><trkpt lat="39.491803924084834" lon="8.51734823752608"><ele>445.0</ele><time>2026-04-06T09:25:57Z</time></trkpt><trkpt lat="39.4919717361081" lon="8.517490385412684"><ele>444.0</ele><time>2026-04-06T09:25:58Z</time></trkpt><trkpt lat="39.49213278149084" lon="8.517626863856465"><ele>444.0</ele><time>2026-04-06T09:25:59Z</time></trkpt><trkpt lat="39.49227755072288" lon="8.517773937865162"><ele>444.0</ele><time>2026-04-06T09:26:00Z</time></trkpt><trkpt lat="39.49240791251037" lon="8.517954756101723"><ele>444.0</ele><time>2026-04-06T09:26:01Z</time></trkpt><trkpt lat="39.4925280193589" lon="8.518158238853655"><ele>442.0</ele><time>2026-04-06T09:26:02Z</time></trkpt><trkpt lat="39.49262081744622" lon="8.518413331128158"><ele>440.0</ele><time>2026-04-06T09:26:03Z</time></trkpt><trkpt lat="39.49273790776953" lon="8.518694758728378"><ele>440.0</ele><time>2026-04-06T09:26:04Z</time></trkpt><trkpt lat="39.49286275137797" lon="8.518990362493422"><ele>440.0</ele><time>2026-04-06T09:26:05Z</time></trkpt><trkpt lat="39.492994520508695" lon="8.5193067327269"><ele>439.0</ele><time>2026-04-06T09:26:06Z</time></trkpt><trkpt lat="39.493132034803324" lon="8.519637207262367"><ele>438.0</ele><time>2026-04-06T09:26:07Z</time></trkpt><trkpt lat="39.49328261584193" lon="8.51997571555219"><ele>438.0</ele><time>2026-04-06T09:26:08Z</time></trkpt><trkpt lat="39.49342340239422" lon="8.520320882175733"><ele>438.0</ele><time>2026-04-06T09:26:09Z</time></trkpt><trkpt lat="39.493568176438735" lon="8.520663413798104"><ele>438.0</ele><time>2026-04-06T09:26:10Z</time></trkpt><trkpt lat="39.493703560339654" lon="8.520991293282867"><ele>438.0</ele><time>2026-04-06T09:26:11Z</time></trkpt><trkpt lat="39.49382060024338" lon="8.52127158540043"><ele>439.0</ele><time>2026-04-06T09:26:12Z</time></trkpt><trkpt lat="39.4939221544406" lon="8.52150022333567"><ele>440.0</ele><time>2026-04-06T09:26:13Z</time></trkpt><trkpt lat="39.4940271768351" lon="8.5216843950769"><ele>441.0</ele><time>2026-04-06T09:26:14Z</time></trkpt><trkpt lat="39.494159993195424" lon="8.52183974873322"><ele>441.0</ele><time>2026-04-06T09:26:15Z</time></trkpt><trkpt lat="39.49431483864592" lon="8.521974024538803"><ele>441.0</ele><time>2026-04-06T09:26:16Z</time></trkpt><trkpt lat="39.494478436501936" lon="8.522105433946669"><ele>441.0</ele><time>2026-04-06T09:26:17Z</time></trkpt><trkpt lat="39.494649097226414" lon="8.522228035441774"><ele>440.0</ele><time>2026-04-06T09:26:18Z</time></trkpt><trkpt lat="39.49483963484213" lon="8.522314414830324"><ele>439.0</ele><time>2026-04-06T09:26:19Z</time></trkpt><trkpt lat="39.49505882637044" lon="8.522371757623919"><ele>438.0</ele><time>2026-04-06T09:26:20Z</time></trkpt><trkpt lat="39.495296620424696" lon="8.522427479238315"><ele>436.5</ele><time>2026-04-06T09:26:21Z</time></trkpt><trkpt lat="39.495549881753455" lon="8.52249436665887"><ele>435.0</ele><time>2026-04-06T09:26:22Z</time></trkpt><trkpt lat="39.4957827057576" lon="8.522561941647986"><ele>435.0</ele><time>2026-04-06T09:26:23Z</time></trkpt><trkpt lat="39.4960300853818" lon="8.522629805405728"><ele>435.0</ele><time>2026-04-06T09:26:24Z</time></trkpt><trkpt lat="39.496280281102365" lon="8.522696140593723"><ele>433.0</ele><time>2026-04-06T09:26:25Z</time></trkpt><trkpt lat="39.4965323765965" lon="8.522763890051491"><ele>431.0</ele><time>2026-04-06T09:26:26Z</time></trkpt><trkpt lat="39.49678619364921" lon="8.522834582020156"><ele>430.5</ele><time>2026-04-06T09:26:27Z</time></trkpt><trkpt lat="39.49703492529326" lon="8.522904789480467"><ele>430.0</ele><time>2026-04-06T09:26:28Z</time></trkpt><trkpt lat="39.49726217189062" lon="8.522969627541897"><ele>429.33333333333337</ele><time>2026-04-06T09:26:29Z</time></trkpt><trkpt lat="39.49746917892085" lon="8.523026175530758"><ele>428.66666666666663</ele><time>2026-04-06T09:26:30Z</time></trkpt><trkpt lat="39.49762480528795" lon="8.523071157848252"><ele>428.0</ele><time>2026-04-06T09:26:31Z</time></trkpt><trkpt lat="39.49775959627356" lon="8.523115997220486"><ele>428.0</ele><time>2026-04-06T09:26:32Z</time></trkpt><trkpt lat="39.49789068492241" lon="8.523177664327877"><ele>428.0</ele><time>2026-04-06T09:26:33Z</time></trkpt><trkpt lat="39.49798992958016" lon="8.52328388781282"><ele>428.0</ele><time>2026-04-06T09:26:34Z</time></trkpt><trkpt lat="39.498069168594995" lon="8.523443304743294"><ele>428.0</ele><time>2026-04-06T09:26:35Z</time></trkpt><trkpt lat="39.49813666217027" lon="8.523638608824958"><ele>426.0</ele><time>2026-04-06T09:26:36Z</time></trkpt><trkpt lat="39.498183968191015" lon="8.523832196954217"><ele>424.0</ele><time>2026-04-06T09:26:37Z</time></trkpt><trkpt lat="39.498193836225354" lon="8.524031037735032"><ele>422.0</ele><time>2026-04-06T09:26:38Z</time></trkpt><trkpt lat="39.49816076757857" lon="8.524237315340349"><ele>422.0</ele><time>2026-04-06T09:26:39Z</time></trkpt><trkpt lat="39.49808940254932" lon="8.524455134121606"><ele>422.0</ele><time>2026-04-06T09:26:40Z</time></trkpt><trkpt lat="39.49800897739051" lon="8.524703584276647"><ele>422.0</ele><time>2026-04-06T09:26:41Z</time></trkpt><trkpt lat="39.497930324619176" lon="8.524968761690412"><ele>420.66666666666663</ele><time>2026-04-06T09:26:42Z</time></trkpt><trkpt lat="39.49785195844491" lon="8.525231861008619"><ele>419.33333333333337</ele><time>2026-04-06T09:26:43Z</time></trkpt><trkpt lat="39.49776796270262" lon="8.525508361160732"><ele>418.0</ele><time>2026-04-06T09:26:44Z</time></trkpt><trkpt lat="39.49769155927699" lon="8.525765478768976"><ele>418.0</ele><time>2026-04-06T09:26:45Z</time></trkpt><trkpt lat="39.49762764455132" lon="8.526006292699478"><ele>418.0</ele><time>2026-04-06T09:26:46Z</time></trkpt><trkpt lat="39.49758729014407" lon="8.526254339464588"><ele>418.0</ele><time>2026-04-06T09:26:47Z</time></trkpt><trkpt lat="39.497576564865284" lon="8.526510270594313"><ele>418.0</ele><time>2026-04-06T09:26:48Z</time></trkpt><trkpt lat="39.49759112316027" lon="8.526740988879293"><ele>418.0</ele><time>2026-04-06T09:26:49Z</time></trkpt><trkpt lat="39.497618063647806" lon="8.526936735429986"><ele>418.0</ele><time>2026-04-06T09:26:50Z</time></trkpt><trkpt lat="39.49766948157342" lon="8.52710010547267"><ele>417.5</ele><time>2026-04-06T09:26:51Z</time></trkpt><trkpt lat="39.49775718580756" lon="8.527224547229785"><ele>417.0</ele><time>2026-04-06T09:26:52Z</time></trkpt><trkpt lat="39.49787354991826" lon="8.527318097921379"><ele>416.5</ele><time>2026-04-06T09:26:53Z</time></trkpt><trkpt lat="39.49801986641007" lon="8.527383748464636"><ele>416.0</ele><time>2026-04-06T09:26:54Z</time></trkpt><trkpt lat="39.49818274253964" lon="8.527451139494245"><ele>417.66666666666663</ele><time>2026-04-06T09:26:55Z</time></trkpt><trkpt lat="39.49834690177408" lon="8.52753024948605"><ele>419.33333333333337</ele><time>2026-04-06T09:26:56Z</time></trkpt><trkpt lat="39.49850197415254" lon="8.527581486166465"><ele>421.0</ele><time>2026-04-06T09:26:57Z</time></trkpt><trkpt lat="39.49864760979317" lon="8.527581855953688"><ele>420.0</ele><time>2026-04-06T09:26:58Z</time></trkpt><trkpt lat="39.49877968242352" lon="8.5275287303033"><ele>419.0</ele><time>2026-04-06T09:26:59Z</time></trkpt><trkpt lat="39.49891427149138" lon="8.527428886930203"><ele>418.0</ele><time>2026-04-06T09:27:00Z</time></trkpt><trkpt lat="39.49906257263546" lon="8.5273407072752"><ele>418.0</ele><time>2026-04-06T09:27:01Z</time></trkpt><trkpt lat="39.49918258894612" lon="8.52724077790812"><ele>418.0</ele><time>2026-04-06T09:27:02Z</time></trkpt><trkpt lat="39.499301063678736" lon="8.527208581816254"><ele>418.0</ele><time>2026-04-06T09:27:03Z</time></trkpt><trkpt lat="39.49940668755586" lon="8.527236535848408"><ele>418.0</ele><time>2026-04-06T09:27:04Z</time></trkpt><trkpt lat="39.49948271958864" lon="8.527325153109986"><ele>418.0</ele><time>2026-04-06T09:27:05Z</time></trkpt><trkpt lat="39.49951988973263" lon="8.527454349308101"><ele>418.0</ele><time>2026-04-06T09:27:06Z</time></trkpt><trkpt lat="39.49957426154501" lon="8.527609885848063"><ele>418.0</ele><time>2026-04-06T09:27:07Z</time></trkpt><trkpt lat="39.49964193314767" lon="8.52778552865498"><ele>418.0</ele><time>2026-04-06T09:27:08Z</time></trkpt><trkpt lat="39.49971738082522" lon="8.52798305368714"><ele>418.33333333333337</ele><time>2026-04-06T09:27:09Z</time></trkpt><trkpt lat="39.499801714896954" lon="8.528201266976442"><ele>418.66666666666663</ele><time>2026-04-06T09:27:10Z</time></trkpt><trkpt lat="39.499892503789646" lon="8.528439655336454"><ele>419.0</ele><time>2026-04-06T09:27:11Z</time></trkpt><trkpt lat="39.499988643874474" lon="8.528689650787392"><ele>417.3333333333333</ele><time>2026-04-06T09:27:12Z</time></trkpt><trkpt lat="39.50007318699999" lon="8.528903815656019"><ele>415.66666666666663</ele><time>2026-04-06T09:27:13Z</time></trkpt><trkpt lat="39.500155052999474" lon="8.52908563742435"><ele>414.0</ele><time>2026-04-06T09:27:14Z</time></trkpt><trkpt lat="39.50023167272678" lon="8.529234587627526"><ele>414.0</ele><time>2026-04-06T09:27:15Z</time></trkpt><trkpt lat="39.5003341422883" lon="8.529307109062461"><ele>414.0</ele><time>2026-04-06T09:27:16Z</time></trkpt><trkpt lat="39.500454993434936" lon="8.529338581607256"><ele>414.0</ele><time>2026-04-06T09:27:17Z</time></trkpt><trkpt lat="39.50055804168699" lon="8.529433673995207"><ele>414.0</ele><time>2026-04-06T09:27:18Z</time></trkpt><trkpt lat="39.500657168686885" lon="8.5295999813315"><ele>413.33333333333337</ele><time>2026-04-06T09:27:19Z</time></trkpt><trkpt lat="39.50077245144815" lon="8.529778553448425"><ele>412.6666666666667</ele><time>2026-04-06T09:27:20Z</time></trkpt><trkpt lat="39.5008915415893" lon="8.529978773959463"><ele>412.0</ele><time>2026-04-06T09:27:21Z</time></trkpt><trkpt lat="39.50102973942965" lon="8.530187536842474"><ele>412.0</ele><time>2026-04-06T09:27:22Z</time></trkpt><trkpt lat="39.501157301171865" lon="8.53038941604036"><ele>412.0</ele><time>2026-04-06T09:27:23Z</time></trkpt><trkpt lat="39.501250968957045" lon="8.530601840115146"><ele>412.0</ele><time>2026-04-06T09:27:24Z</time></trkpt><trkpt lat="39.50130914800689" lon="8.530802362128764"><ele>412.0</ele><time>2026-04-06T09:27:25Z</time></trkpt><trkpt lat="39.50136076950364" lon="8.531009255600555"><ele>412.0</ele><time>2026-04-06T09:27:26Z</time></trkpt><trkpt lat="39.50140955130488" lon="8.531190556981482"><ele>412.0</ele><time>2026-04-06T09:27:27Z</time></trkpt><trkpt lat="39.50149651269689" lon="8.531294631328441"><ele>412.0</ele><time>2026-04-06T09:27:28Z</time></trkpt><trkpt lat="39.501626859553504" lon="8.531340520631463"><ele>412.0</ele><time>2026-04-06T09:27:29Z</time></trkpt><trkpt lat="39.50178439624226" lon="8.53136558745791"><ele>412.0</ele><time>2026-04-06T09:27:30Z</time></trkpt><trkpt lat="39.50195159516195" lon="8.531392128304953"><ele>412.0</ele><time>2026-04-06T09:27:31Z</time></trkpt><trkpt lat="39.50212589605966" lon="8.531438248421836"><ele>412.6666666666667</ele><time>2026-04-06T09:27:32Z</time></trkpt><trkpt lat="39.50230808497056" lon="8.531499657502124"><ele>413.33333333333337</ele><time>2026-04-06T09:27:33Z</time></trkpt><trkpt lat="39.50250550033171" lon="8.53155598838799"><ele>414.0</ele><time>2026-04-06T09:27:34Z</time></trkpt><trkpt lat="39.50270091577823" lon="8.531615427068909"><ele>414.0</ele><time>2026-04-06T09:27:35Z</time></trkpt><trkpt lat="39.502885694192" lon="8.53166634974048"><ele>414.0</ele><time>2026-04-06T09:27:36Z</time></trkpt><trkpt lat="39.503050001649356" lon="8.531773428577843"><ele>414.0</ele><time>2026-04-06T09:27:37Z</time></trkpt><trkpt lat="39.50322262424818" lon="8.531905400795447"><ele>413.0</ele><time>2026-04-06T09:27:38Z</time></trkpt><trkpt lat="39.503405743240485" lon="8.532053907296037"><ele>412.0</ele><time>2026-04-06T09:27:39Z</time></trkpt><trkpt lat="39.50359205099761" lon="8.53220627723769"><ele>411.0</ele><time>2026-04-06T09:27:40Z</time></trkpt><trkpt lat="39.5037529890031" lon="8.53234194906718"><ele>410.0</ele><time>2026-04-06T09:27:41Z</time></trkpt><trkpt lat="39.5038904927605" lon="8.532460805977669"><ele>409.0</ele><time>2026-04-06T09:27:42Z</time></trkpt><trkpt lat="39.504003790311565" lon="8.532594637215256"><ele>408.0</ele><time>2026-04-06T09:27:43Z</time></trkpt><trkpt lat="39.50407812132011" lon="8.532773597873344"><ele>409.0</ele><time>2026-04-06T09:27:44Z</time></trkpt><trkpt lat="39.50412347811235" lon="8.53294674743039"><ele>410.0</ele><time>2026-04-06T09:27:45Z</time></trkpt><trkpt lat="39.50413865322891" lon="8.533093387783392"><ele>411.0</ele><time>2026-04-06T09:27:46Z</time></trkpt><trkpt lat="39.504053252606575" lon="8.533220581453513"><ele>412.0</ele><time>2026-04-06T09:27:47Z</time></trkpt><trkpt lat="39.50396072336307" lon="8.533318609419739"><ele>412.0</ele><time>2026-04-06T09:27:48Z</time></trkpt><trkpt lat="39.503843036598546" lon="8.533464038463885"><ele>412.0</ele><time>2026-04-06T09:27:49Z</time></trkpt><trkpt lat="39.50372590317103" lon="8.533625951512052"><ele>412.0</ele><time>2026-04-06T09:27:50Z</time></trkpt><trkpt lat="39.503596804838914" lon="8.53377569421827"><ele>411.25</ele><time>2026-04-06T09:27:51Z</time></trkpt><trkpt lat="39.50351150332217" lon="8.53393014329513"><ele>410.5</ele><time>2026-04-06T09:27:52Z</time></trkpt><trkpt lat="39.50346297763023" lon="8.534107589733036"><ele>409.75</ele><time>2026-04-06T09:27:53Z</time></trkpt><trkpt lat="39.50346533972954" lon="8.534301996781103"><ele>409.0</ele><time>2026-04-06T09:27:54Z</time></trkpt><trkpt lat="39.503515594508784" lon="8.53451311570362"><ele>410.33333333333337</ele><time>2026-04-06T09:27:55Z</time></trkpt><trkpt lat="39.50357868630035" lon="8.534729207689969"><ele>411.66666666666663</ele><time>2026-04-06T09:27:56Z</time></trkpt><trkpt lat="39.503584083608494" lon="8.53493664714649"><ele>413.0</ele><time>2026-04-06T09:27:57Z</time></trkpt><trkpt lat="39.5035381888841" lon="8.535118842046147"><ele>413.0</ele><time>2026-04-06T09:27:58Z</time></trkpt><trkpt lat="39.503451230437" lon="8.535295338701648"><ele>413.0</ele><time>2026-04-06T09:27:59Z</time></trkpt><trkpt lat="39.50337770709348" lon="8.535508539814542"><ele>413.0</ele><time>2026-04-06T09:28:00Z</time></trkpt><trkpt lat="39.50332399652045" lon="8.535728125074506"><ele>413.66666666666663</ele><time>2026-04-06T09:28:01Z</time></trkpt><trkpt lat="39.50331876623477" lon="8.535980057152305"><ele>414.33333333333337</ele><time>2026-04-06T09:28:02Z</time></trkpt><trkpt lat="39.50330711591089" lon="8.536263186603454"><ele>415.0</ele><time>2026-04-06T09:28:03Z</time></trkpt><trkpt lat="39.50327942094919" lon="8.536560667053445"><ele>415.0</ele><time>2026-04-06T09:28:04Z</time></trkpt><trkpt lat="39.50324659422214" lon="8.53683455528309"><ele>415.0</ele><time>2026-04-06T09:28:05Z</time></trkpt><trkpt lat="39.50322257249615" lon="8.53706589547939"><ele>415.0</ele><time>2026-04-06T09:28:06Z</time></trkpt><trkpt lat="39.503212110632" lon="8.537263846327315"><ele>413.6666666666667</ele><time>2026-04-06T09:28:07Z</time></trkpt><trkpt lat="39.50324220822459" lon="8.537456662020798"><ele>412.33333333333337</ele><time>2026-04-06T09:28:08Z</time></trkpt><trkpt lat="39.50332141915891" lon="8.537655777532402"><ele>411.0</ele><time>2026-04-06T09:28:09Z</time></trkpt><trkpt lat="39.50343313315587" lon="8.537865078531315"><ele>409.33333333333337</ele><time>2026-04-06T09:28:10Z</time></trkpt><trkpt lat="39.50354212037809" lon="8.53808790468409"><ele>407.6666666666667</ele><time>2026-04-06T09:28:11Z</time></trkpt><trkpt lat="39.503629165755584" lon="8.53828182468986"><ele>406.0</ele><time>2026-04-06T09:28:12Z</time></trkpt><trkpt lat="39.50370723202966" lon="8.538427373750922"><ele>407.6666666666667</ele><time>2026-04-06T09:28:13Z</time></trkpt><trkpt lat="39.50381503868712" lon="8.538535593538315"><ele>409.33333333333337</ele><time>2026-04-06T09:28:14Z</time></trkpt><trkpt lat="39.50396642628407" lon="8.538611440447225"><ele>411.0</ele><time>2026-04-06T09:28:15Z</time></trkpt><trkpt lat="39.50414958113796" lon="8.538677702522266"><ele>409.33333333333337</ele><time>2026-04-06T09:28:16Z</time></trkpt><trkpt lat="39.50434776754309" lon="8.538760415273272"><ele>407.6666666666667</ele><time>2026-04-06T09:28:17Z</time></trkpt><trkpt lat="39.50454040677123" lon="8.538854449051819"><ele>406.0</ele><time>2026-04-06T09:28:18Z</time></trkpt><trkpt lat="39.50471072965886" lon="8.538928376132057"><ele>406.0</ele><time>2026-04-06T09:28:19Z</time></trkpt><trkpt lat="39.50483235964909" lon="8.539057862528495"><ele>406.0</ele><time>2026-04-06T09:28:20Z</time></trkpt><trkpt lat="39.50492643555836" lon="8.539182820240159"><ele>406.0</ele><time>2026-04-06T09:28:21Z</time></trkpt><trkpt lat="39.50499156755363" lon="8.53933965817334"><ele>406.0</ele><time>2026-04-06T09:28:22Z</time></trkpt><trkpt lat="39.505058453568225" lon="8.539533098999177"><ele>404.6666666666667</ele><time>2026-04-06T09:28:23Z</time></trkpt><trkpt lat="39.50514121844279" lon="8.53973961908618"><ele>403.33333333333337</ele><time>2026-04-06T09:28:24Z</time></trkpt><trkpt lat="39.505218625719046" lon="8.539958342611651"><ele>402.0</ele><time>2026-04-06T09:28:25Z</time></trkpt><trkpt lat="39.505300747413834" lon="8.540181740898415"><ele>401.33333333333337</ele><time>2026-04-06T09:28:26Z</time></trkpt><trkpt lat="39.50537975527484" lon="8.54040236636635"><ele>400.6666666666667</ele><time>2026-04-06T09:28:27Z</time></trkpt><trkpt lat="39.50544785717845" lon="8.54060311731958"><ele>400.0</ele><time>2026-04-06T09:28:28Z</time></trkpt><trkpt lat="39.50551170519104" lon="8.540778470796512"><ele>400.0</ele><time>2026-04-06T09:28:29Z</time></trkpt><trkpt lat="39.505566694687595" lon="8.540940378736614"><ele>400.0</ele><time>2026-04-06T09:28:30Z</time></trkpt><trkpt lat="39.50561648714818" lon="8.541086406135802"><ele>400.0</ele><time>2026-04-06T09:28:31Z</time></trkpt><trkpt lat="39.50567014080963" lon="8.541235849473415"><ele>400.0</ele><time>2026-04-06T09:28:32Z</time></trkpt><trkpt lat="39.50572840861073" lon="8.541410602914153"><ele>399.33333333333337</ele><time>2026-04-06T09:28:33Z</time></trkpt><trkpt lat="39.50578789941358" lon="8.541596352822197"><ele>398.66666666666663</ele><time>2026-04-06T09:28:34Z</time></trkpt><trkpt lat="39.505844887989404" lon="8.541786827791228"><ele>398.0</ele><time>2026-04-06T09:28:35Z</time></trkpt><trkpt lat="39.505906309689884" lon="8.54198711277701"><ele>397.66666666666663</ele><time>2026-04-06T09:28:36Z</time></trkpt><trkpt lat="39.505981499603315" lon="8.542191338623956"><ele>397.33333333333337</ele><time>2026-04-06T09:28:37Z</time></trkpt><trkpt lat="39.50604818433532" lon="8.542385272334469"><ele>397.0</ele><time>2026-04-06T09:28:38Z</time></trkpt><trkpt lat="39.50606746063791" lon="8.542589206134533"><ele>397.0</ele><time>2026-04-06T09:28:39Z</time></trkpt><trkpt lat="39.50601628379779" lon="8.542771169823373"><ele>397.0</ele><time>2026-04-06T09:28:40Z</time></trkpt><trkpt lat="39.50596172315296" lon="8.542954657153317"><ele>397.0</ele><time>2026-04-06T09:28:41Z</time></trkpt><trkpt lat="39.505914319237874" lon="8.543148525888313"><ele>396.75</ele><time>2026-04-06T09:28:42Z</time></trkpt><trkpt lat="39.50587815397429" lon="8.54334012426546"><ele>396.5</ele><time>2026-04-06T09:28:43Z</time></trkpt><trkpt lat="39.50585592978185" lon="8.543517160143818"><ele>396.25</ele><time>2026-04-06T09:28:44Z</time></trkpt><trkpt lat="39.505859801024364" lon="8.543693559173882"><ele>396.0</ele><time>2026-04-06T09:28:45Z</time></trkpt><trkpt lat="39.50589515695223" lon="8.543870216562196"><ele>395.66666666666663</ele><time>2026-04-06T09:28:46Z</time></trkpt><trkpt lat="39.50594779157085" lon="8.544048142553272"><ele>395.3333333333333</ele><time>2026-04-06T09:28:47Z</time></trkpt><trkpt lat="39.50599897640729" lon="8.54423517451239"><ele>395.0</ele><time>2026-04-06T09:28:48Z</time></trkpt><trkpt lat="39.5060521322203" lon="8.544424347167588"><ele>395.0</ele><time>2026-04-06T09:28:49Z</time></trkpt><trkpt lat="39.50609299771792" lon="8.544622204098076"><ele>395.0</ele><time>2026-04-06T09:28:50Z</time></trkpt><trkpt lat="39.5061375868688" lon="8.544822573650324"><ele>395.0</ele><time>2026-04-06T09:28:51Z</time></trkpt><trkpt lat="39.50618569498744" lon="8.545024881006398"><ele>395.0</ele><time>2026-04-06T09:28:52Z</time></trkpt><trkpt lat="39.506241166189064" lon="8.545224285374573"><ele>395.0</ele><time>2026-04-06T09:28:53Z</time></trkpt><trkpt lat="39.50631206088046" lon="8.54542584319912"><ele>395.0</ele><time>2026-04-06T09:28:54Z</time></trkpt><trkpt lat="39.506406991386434" lon="8.545609917558926"><ele>395.66666666666663</ele><time>2026-04-06T09:28:55Z</time></trkpt><trkpt lat="39.50649839716521" lon="8.54578660964438"><ele>396.33333333333337</ele><time>2026-04-06T09:28:56Z</time></trkpt><trkpt lat="39.5065862267867" lon="8.54595595053989"><ele>397.0</ele><time>2026-04-06T09:28:57Z</time></trkpt><trkpt lat="39.50667306803875" lon="8.546126250123397"><ele>395.33333333333337</ele><time>2026-04-06T09:28:58Z</time></trkpt><trkpt lat="39.506764099521526" lon="8.546300160698125"><ele>393.66666666666663</ele><time>2026-04-06T09:28:59Z</time></trkpt><trkpt lat="39.50685144972373" lon="8.546492133650904"><ele>392.0</ele><time>2026-04-06T09:29:00Z</time></trkpt><trkpt lat="39.506908254426826" lon="8.546719155625881"><ele>392.0</ele><time>2026-04-06T09:29:01Z</time></trkpt><trkpt lat="39.506938203924506" lon="8.54697828052989"><ele>392.0</ele><time>2026-04-06T09:29:02Z</time></trkpt><trkpt lat="39.506969892934556" lon="8.547262245810344"><ele>392.0</ele><time>2026-04-06T09:29:03Z</time></trkpt><trkpt lat="39.50700397140821" lon="8.547529409416857"><ele>390.75</ele><time>2026-04-06T09:29:04Z</time></trkpt><trkpt lat="39.50703574915943" lon="8.547757564503373"><ele>389.5</ele><time>2026-04-06T09:29:05Z</time></trkpt><trkpt lat="39.5070633984114" lon="8.54794192869986"><ele>388.25</ele><time>2026-04-06T09:29:06Z</time></trkpt><trkpt lat="39.50710551854479" lon="8.548089835935139"><ele>387.0</ele><time>2026-04-06T09:29:07Z</time></trkpt><trkpt lat="39.50718967798315" lon="8.548197514644741"><ele>387.0</ele><time>2026-04-06T09:29:08Z</time></trkpt><trkpt lat="39.507319395071015" lon="8.5482577033242"><ele>387.0</ele><time>2026-04-06T09:29:09Z</time></trkpt><trkpt lat="39.50747997001578" lon="8.54828721683935"><ele>387.0</ele><time>2026-04-06T09:29:10Z</time></trkpt><trkpt lat="39.50765148001234" lon="8.548316635592103"><ele>387.0</ele><time>2026-04-06T09:29:11Z</time></trkpt><trkpt lat="39.50781140618319" lon="8.548359763705687"><ele>387.0</ele><time>2026-04-06T09:29:12Z</time></trkpt><trkpt lat="39.50793976408828" lon="8.548457406820019"><ele>387.0</ele><time>2026-04-06T09:29:13Z</time></trkpt><trkpt lat="39.50803659060345" lon="8.548581603716856"><ele>387.0</ele><time>2026-04-06T09:29:14Z</time></trkpt><trkpt lat="39.50811574330419" lon="8.548752499504634"><ele>385.6666666666667</ele><time>2026-04-06T09:29:15Z</time></trkpt><trkpt lat="39.50820588106301" lon="8.54895726874951"><ele>384.33333333333337</ele><time>2026-04-06T09:29:16Z</time></trkpt><trkpt lat="39.508285537733855" lon="8.549195661819049"><ele>383.0</ele><time>2026-04-06T09:29:17Z</time></trkpt><trkpt lat="39.50836306477681" lon="8.549403187432421"><ele>381.25</ele><time>2026-04-06T09:29:18Z</time></trkpt><trkpt lat="39.50843559036657" lon="8.549571144333395"><ele>379.5</ele><time>2026-04-06T09:29:19Z</time></trkpt><trkpt lat="39.50851128585508" lon="8.54969771696594"><ele>377.75</ele><time>2026-04-06T09:29:20Z</time></trkpt><trkpt lat="39.5086095393247" lon="8.549766744187643"><ele>376.0</ele><time>2026-04-06T09:29:21Z</time></trkpt><trkpt lat="39.508735405639676" lon="8.549780951267365"><ele>375.66666666666663</ele><time>2026-04-06T09:29:22Z</time></trkpt><trkpt lat="39.50888299967438" lon="8.54975573885976"><ele>375.3333333333333</ele><time>2026-04-06T09:29:23Z</time></trkpt><trkpt lat="39.50903881184079" lon="8.54971833523803"><ele>375.0</ele><time>2026-04-06T09:29:24Z</time></trkpt><trkpt lat="39.509210202564965" lon="8.549690860640961"><ele>375.0</ele><time>2026-04-06T09:29:25Z</time></trkpt><trkpt lat="39.50938258769216" lon="8.549667791584328"><ele>375.0</ele><time>2026-04-06T09:29:26Z</time></trkpt><trkpt lat="39.50953257584879" lon="8.549645692332971"><ele>375.0</ele><time>2026-04-06T09:29:27Z</time></trkpt><trkpt lat="39.509659938079004" lon="8.549635802651848"><ele>374.75</ele><time>2026-04-06T09:29:28Z</time></trkpt><trkpt lat="39.509754244836365" lon="8.549708768776759"><ele>374.5</ele><time>2026-04-06T09:29:29Z</time></trkpt><trkpt lat="39.509809584794326" lon="8.549814320794287"><ele>374.25</ele><time>2026-04-06T09:29:30Z</time></trkpt><trkpt lat="39.50984970856279" lon="8.549968165867982"><ele>374.0</ele><time>2026-04-06T09:29:31Z</time></trkpt><trkpt lat="39.509882698023716" lon="8.550168849409882"><ele>373.6666666666667</ele><time>2026-04-06T09:29:32Z</time></trkpt><trkpt lat="39.509927762125216" lon="8.550386213831231"><ele>373.3333333333333</ele><time>2026-04-06T09:29:33Z</time></trkpt><trkpt lat="39.50996715952191" lon="8.550624641632215"><ele>373.0</ele><time>2026-04-06T09:29:34Z</time></trkpt><trkpt lat="39.509995784625794" lon="8.550863408931326"><ele>373.0</ele><time>2026-04-06T09:29:35Z</time></trkpt><trkpt lat="39.50997040399153" lon="8.551068638552513"><ele>373.0</ele><time>2026-04-06T09:29:36Z</time></trkpt><trkpt lat="39.50991038941016" lon="8.551283783235121"><ele>373.0</ele><time>2026-04-06T09:29:37Z</time></trkpt><trkpt lat="39.50985025221437" lon="8.551539145356243"><ele>374.66666666666663</ele><time>2026-04-06T09:29:38Z</time></trkpt><trkpt lat="39.50976459036039" lon="8.551798743804003"><ele>376.3333333333333</ele><time>2026-04-06T09:29:39Z</time></trkpt><trkpt lat="39.50968941632806" lon="8.552052342225593"><ele>378.0</ele><time>2026-04-06T09:29:40Z</time></trkpt><trkpt lat="39.509617902258654" lon="8.552307278368174"><ele>378.6666666666667</ele><time>2026-04-06T09:29:41Z</time></trkpt><trkpt lat="39.50954426911018" lon="8.55256531281955"><ele>379.33333333333337</ele><time>2026-04-06T09:29:42Z</time></trkpt><trkpt lat="39.509471325397136" lon="8.552797864150024"><ele>380.0</ele><time>2026-04-06T09:29:43Z</time></trkpt><trkpt lat="39.5093927438217" lon="8.552999070280976"><ele>381.0</ele><time>2026-04-06T09:29:44Z</time></trkpt><trkpt lat="39.50929222743858" lon="8.553183213104848"><ele>382.0</ele><time>2026-04-06T09:29:45Z</time></trkpt><trkpt lat="39.509185785999755" lon="8.55334905187031"><ele>383.0</ele><time>2026-04-06T09:29:46Z</time></trkpt><trkpt lat="39.50910304689195" lon="8.55350894323883"><ele>383.0</ele><time>2026-04-06T09:29:47Z</time></trkpt><trkpt lat="39.50906105739343" lon="8.553690202401976"><ele>383.0</ele><time>2026-04-06T09:29:48Z</time></trkpt><trkpt lat="39.509063532939415" lon="8.553909027099937"><ele>383.0</ele><time>2026-04-06T09:29:49Z</time></trkpt><trkpt lat="39.50908555754217" lon="8.554148388858367"><ele>384.0</ele><time>2026-04-06T09:29:50Z</time></trkpt><trkpt lat="39.509100624826885" lon="8.554396253691653"><ele>385.0</ele><time>2026-04-06T09:29:51Z</time></trkpt><trkpt lat="39.50910663875843" lon="8.554656439881995"><ele>386.0</ele><time>2026-04-06T09:29:52Z</time></trkpt><trkpt lat="39.50911140801444" lon="8.554926985770498"><ele>387.66666666666663</ele><time>2026-04-06T09:29:53Z</time></trkpt><trkpt lat="39.5091226705194" lon="8.555208757522022"><ele>389.33333333333337</ele><time>2026-04-06T09:29:54Z</time></trkpt><trkpt lat="39.50913208113361" lon="8.555478716485151"><ele>391.0</ele><time>2026-04-06T09:29:55Z</time></trkpt><trkpt lat="39.50913864417072" lon="8.555720513754713"><ele>391.6666666666667</ele><time>2026-04-06T09:29:56Z</time></trkpt><trkpt lat="39.509147526030574" lon="8.555939849838833"><ele>392.33333333333337</ele><time>2026-04-06T09:29:57Z</time></trkpt><trkpt lat="39.50915758240948" lon="8.556140276062813"><ele>393.0</ele><time>2026-04-06T09:29:58Z</time></trkpt><trkpt lat="39.50917611959001" lon="8.556329675446163"><ele>393.25</ele><time>2026-04-06T09:29:59Z</time></trkpt><trkpt lat="39.50921920333078" lon="8.55649342544661"><ele>393.5</ele><time>2026-04-06T09:30:00Z</time></trkpt><trkpt lat="39.50929566464807" lon="8.556635607034602"><ele>393.75</ele><time>2026-04-06T09:30:01Z</time></trkpt><trkpt lat="39.50940297772658" lon="8.55676675696643"><ele>394.0</ele><time>2026-04-06T09:30:02Z</time></trkpt><trkpt lat="39.509531767066576" lon="8.55690448863503"><ele>392.33333333333337</ele><time>2026-04-06T09:30:03Z</time></trkpt><trkpt lat="39.50966151871604" lon="8.557063203236691"><ele>390.66666666666663</ele><time>2026-04-06T09:30:04Z</time></trkpt><trkpt lat="39.509796760027534" lon="8.55723097591602"><ele>389.0</ele><time>2026-04-06T09:30:05Z</time></trkpt><trkpt lat="39.50994007694283" lon="8.557405631582158"><ele>389.0</ele><time>2026-04-06T09:30:06Z</time></trkpt><trkpt lat="39.5100866755524" lon="8.557585373329546"><ele>389.0</ele><time>2026-04-06T09:30:07Z</time></trkpt><trkpt lat="39.51022544697858" lon="8.557758053296379"><ele>389.0</ele><time>2026-04-06T09:30:08Z</time></trkpt><trkpt lat="39.51035135767114" lon="8.557916722733898"><ele>386.0</ele><time>2026-04-06T09:30:09Z</time></trkpt><trkpt lat="39.510481196438" lon="8.558073113281555"><ele>383.0</ele><time>2026-04-06T09:30:10Z</time></trkpt><trkpt lat="39.510615156218435" lon="8.558204908250802"><ele>380.0</ele><time>2026-04-06T09:30:11Z</time></trkpt><trkpt lat="39.51076295161446" lon="8.558291263061047"><ele>380.0</ele><time>2026-04-06T09:30:12Z</time></trkpt><trkpt lat="39.51091777990014" lon="8.558329007154905"><ele>380.0</ele><time>2026-04-06T09:30:13Z</time></trkpt><trkpt lat="39.51106123341795" lon="8.558371271319944"><ele>380.0</ele><time>2026-04-06T09:30:14Z</time></trkpt><trkpt lat="39.51116208388855" lon="8.55847382112226"><ele>380.0</ele><time>2026-04-06T09:30:15Z</time></trkpt><trkpt lat="39.51122852535443" lon="8.55861002897049"><ele>376.6666666666667</ele><time>2026-04-06T09:30:16Z</time></trkpt><trkpt lat="39.51129122307445" lon="8.558795018012942"><ele>373.3333333333333</ele><time>2026-04-06T09:30:17Z</time></trkpt><trkpt lat="39.51136027974182" lon="8.558997598024789"><ele>370.0</ele><time>2026-04-06T09:30:18Z</time></trkpt><trkpt lat="39.51142111741976" lon="8.559183159058605"><ele>370.0</ele><time>2026-04-06T09:30:19Z</time></trkpt><trkpt lat="39.51150064070465" lon="8.559329431359805"><ele>370.0</ele><time>2026-04-06T09:30:20Z</time></trkpt><trkpt lat="39.5116160402117" lon="8.55944343203022"><ele>370.0</ele><time>2026-04-06T09:30:21Z</time></trkpt><trkpt lat="39.51176618295153" lon="8.559518984468125"><ele>370.0</ele><time>2026-04-06T09:30:22Z</time></trkpt><trkpt lat="39.51191312171758" lon="8.559552352708726"><ele>367.75</ele><time>2026-04-06T09:30:23Z</time></trkpt><trkpt lat="39.512043255432886" lon="8.559549081609356"><ele>365.5</ele><time>2026-04-06T09:30:24Z</time></trkpt><trkpt lat="39.51217315257367" lon="8.55948720955184"><ele>363.25</ele><time>2026-04-06T09:30:25Z</time></trkpt><trkpt lat="39.51230421842723" lon="8.559360917201099"><ele>361.0</ele><time>2026-04-06T09:30:26Z</time></trkpt><trkpt lat="39.512433972053394" lon="8.55919187041702"><ele>361.0</ele><time>2026-04-06T09:30:27Z</time></trkpt><trkpt lat="39.51255063213906" lon="8.55899535071877"><ele>361.0</ele><time>2026-04-06T09:30:28Z</time></trkpt><trkpt lat="39.512643094291725" lon="8.558811743740756"><ele>361.0</ele><time>2026-04-06T09:30:29Z</time></trkpt><trkpt lat="39.51272341087505" lon="8.55865875071649"><ele>360.25</ele><time>2026-04-06T09:30:30Z</time></trkpt><trkpt lat="39.512822677591814" lon="8.558560617146009"><ele>359.5</ele><time>2026-04-06T09:30:31Z</time></trkpt><trkpt lat="39.512919769699984" lon="8.558477203132444"><ele>358.75</ele><time>2026-04-06T09:30:32Z</time></trkpt><trkpt lat="39.513040515391324" lon="8.558536834983858"><ele>358.0</ele><time>2026-04-06T09:30:33Z</time></trkpt><trkpt lat="39.51315920278491" lon="8.558577056632314"><ele>358.0</ele><time>2026-04-06T09:30:34Z</time></trkpt><trkpt lat="39.51327097363278" lon="8.558590766078433"><ele>358.0</ele><time>2026-04-06T09:30:35Z</time></trkpt><trkpt lat="39.51339234651465" lon="8.558556950739735"><ele>358.0</ele><time>2026-04-06T09:30:36Z</time></trkpt><trkpt lat="39.51352217601967" lon="8.558460380668514"><ele>358.0</ele><time>2026-04-06T09:30:37Z</time></trkpt><trkpt lat="39.51365764754573" lon="8.55835620167409"><ele>354.0</ele><time>2026-04-06T09:30:38Z</time></trkpt><trkpt lat="39.51379824847263" lon="8.558330590963582"><ele>350.0</ele><time>2026-04-06T09:30:39Z</time></trkpt><trkpt lat="39.513963760790155" lon="8.5583514250467"><ele>346.0</ele><time>2026-04-06T09:30:40Z</time></trkpt><trkpt lat="39.51416818458289" lon="8.55838725401225"><ele>346.0</ele><time>2026-04-06T09:30:41Z</time></trkpt><trkpt lat="39.514338323905356" lon="8.558409905150551"><ele>346.0</ele><time>2026-04-06T09:30:42Z</time></trkpt><trkpt lat="39.514497500372045" lon="8.558370376517194"><ele>346.0</ele><time>2026-04-06T09:30:43Z</time></trkpt><trkpt lat="39.51463679580368" lon="8.558307281606009"><ele>345.5</ele><time>2026-04-06T09:30:44Z</time></trkpt><trkpt lat="39.51475212823157" lon="8.558224244731388"><ele>345.0</ele><time>2026-04-06T09:30:45Z</time></trkpt><trkpt lat="39.5148352098683" lon="8.558091517625533"><ele>344.5</ele><time>2026-04-06T09:30:46Z</time></trkpt><trkpt lat="39.514888100797606" lon="8.557909587038639"><ele>344.0</ele><time>2026-04-06T09:30:47Z</time></trkpt><trkpt lat="39.514900566588445" lon="8.557748986872438"><ele>344.0</ele><time>2026-04-06T09:30:48Z</time></trkpt><trkpt lat="39.514928580382154" lon="8.557615918450356"><ele>344.0</ele><time>2026-04-06T09:30:49Z</time></trkpt><trkpt lat="39.514954851321995" lon="8.557506587831137"><ele>344.0</ele><time>2026-04-06T09:30:50Z</time></trkpt><trkpt lat="39.51504624599231" lon="8.55745121445766"><ele>344.0</ele><time>2026-04-06T09:30:51Z</time></trkpt><trkpt lat="39.515154097796774" lon="8.557467189318936"><ele>344.0</ele><time>2026-04-06T09:30:52Z</time></trkpt><trkpt lat="39.515241309023985" lon="8.557581732785815"><ele>344.0</ele><time>2026-04-06T09:30:53Z</time></trkpt><trkpt lat="39.51534044322322" lon="8.557688865345646"><ele>344.0</ele><time>2026-04-06T09:30:54Z</time></trkpt><trkpt lat="39.51544284500826" lon="8.557831802234828"><ele>344.0</ele><time>2026-04-06T09:30:55Z</time></trkpt><trkpt lat="39.515558651272315" lon="8.557956699491312"><ele>344.0</ele><time>2026-04-06T09:30:56Z</time></trkpt><trkpt lat="39.51566309725329" lon="8.558058854538144"><ele>339.75</ele><time>2026-04-06T09:30:57Z</time></trkpt><trkpt lat="39.515764225194935" lon="8.558104207434539"><ele>335.5</ele><time>2026-04-06T09:30:58Z</time></trkpt><trkpt lat="39.51588474044423" lon="8.55809007872137"><ele>331.25</ele><time>2026-04-06T09:30:59Z</time></trkpt><trkpt lat="39.51601307148016" lon="8.558023847659706"><ele>327.0</ele><time>2026-04-06T09:31:00Z</time></trkpt><trkpt lat="39.516162882555605" lon="8.557941244683478"><ele>324.0</ele><time>2026-04-06T09:31:01Z</time></trkpt><trkpt lat="39.51634228757584" lon="8.557878360989601"><ele>321.0</ele><time>2026-04-06T09:31:02Z</time></trkpt><trkpt lat="39.5165467489157" lon="8.557844279864293"><ele>318.0</ele><time>2026-04-06T09:31:03Z</time></trkpt><trkpt lat="39.5167429190548" lon="8.557794909157664"><ele>319.3333333333333</ele><time>2026-04-06T09:31:04Z</time></trkpt><trkpt lat="39.51693604010071" lon="8.557693107809559"><ele>320.66666666666663</ele><time>2026-04-06T09:31:05Z</time></trkpt><trkpt lat="39.51713400419641" lon="8.557570363862409"><ele>322.0</ele><time>2026-04-06T09:31:06Z</time></trkpt><trkpt lat="39.51733859659689" lon="8.557509525047807"><ele>322.0</ele><time>2026-04-06T09:31:07Z</time></trkpt><trkpt lat="39.51752354548621" lon="8.557469068370764"><ele>322.0</ele><time>2026-04-06T09:31:08Z</time></trkpt><trkpt lat="39.517676331907666" lon="8.557446945799613"><ele>322.0</ele><time>2026-04-06T09:31:09Z</time></trkpt><trkpt lat="39.517806230809136" lon="8.557427633854834"><ele>322.0</ele><time>2026-04-06T09:31:10Z</time></trkpt><trkpt lat="39.517916958968236" lon="8.557479036624327"><ele>322.0</ele><time>2026-04-06T09:31:11Z</time></trkpt><trkpt lat="39.51799641240195" lon="8.557583553218711"><ele>322.0</ele><time>2026-04-06T09:31:12Z</time></trkpt><trkpt lat="39.518024956419765" lon="8.557730470843966"><ele>322.0</ele><time>2026-04-06T09:31:13Z</time></trkpt><trkpt lat="39.51807299900012" lon="8.55786500854901"><ele>321.5</ele><time>2026-04-06T09:31:14Z</time></trkpt><trkpt lat="39.51806860528183" lon="8.558006682339915"><ele>321.0</ele><time>2026-04-06T09:31:15Z</time></trkpt><trkpt lat="39.51801614861799" lon="8.558137393932466"><ele>320.5</ele><time>2026-04-06T09:31:16Z</time></trkpt><trkpt lat="39.517913117759036" lon="8.55824131161509"><ele>320.0</ele><time>2026-04-06T09:31:17Z</time></trkpt><trkpt lat="39.517786610896806" lon="8.558307597802141"><ele>320.0</ele><time>2026-04-06T09:31:18Z</time></trkpt><trkpt lat="39.51763816464553" lon="8.5583706273809"><ele>320.0</ele><time>2026-04-06T09:31:19Z</time></trkpt><trkpt lat="39.51747870371363" lon="8.558491485027393"><ele>320.0</ele><time>2026-04-06T09:31:20Z</time></trkpt><trkpt lat="39.51730569212778" lon="8.558618954361462"><ele>318.6666666666667</ele><time>2026-04-06T09:31:21Z</time></trkpt><trkpt lat="39.51714128400787" lon="8.55874409547438"><ele>317.3333333333333</ele><time>2026-04-06T09:31:22Z</time></trkpt><trkpt lat="39.51699037700266" lon="8.558877563786545"><ele>316.0</ele><time>2026-04-06T09:31:23Z</time></trkpt><trkpt lat="39.516847974572904" lon="8.559045713286121"><ele>316.0</ele><time>2026-04-06T09:31:24Z</time></trkpt><trkpt lat="39.51670962522772" lon="8.559226591804652"><ele>316.0</ele><time>2026-04-06T09:31:25Z</time></trkpt><trkpt lat="39.51655667554714" lon="8.559419300789914"><ele>316.0</ele><time>2026-04-06T09:31:26Z</time></trkpt><trkpt lat="39.516407009805654" lon="8.559623236515279"><ele>314.0</ele><time>2026-04-06T09:31:27Z</time></trkpt><trkpt lat="39.516267584922666" lon="8.559846940109578"><ele>312.0</ele><time>2026-04-06T09:31:28Z</time></trkpt><trkpt lat="39.51614185625197" lon="8.56007430418331"><ele>310.0</ele><time>2026-04-06T09:31:29Z</time></trkpt><trkpt lat="39.51603197169101" lon="8.560278263019828"><ele>311.25</ele><time>2026-04-06T09:31:30Z</time></trkpt><trkpt lat="39.51593323551231" lon="8.560450661365165"><ele>312.5</ele><time>2026-04-06T09:31:31Z</time></trkpt><trkpt lat="39.51584516209028" lon="8.560604421661106"><ele>313.75</ele><time>2026-04-06T09:31:32Z</time></trkpt><trkpt lat="39.51577741500255" lon="8.560751373271179"><ele>315.0</ele><time>2026-04-06T09:31:33Z</time></trkpt><trkpt lat="39.51575057678688" lon="8.560913417713692"><ele>315.0</ele><time>2026-04-06T09:31:34Z</time></trkpt><trkpt lat="39.515769171746896" lon="8.561101152236994"><ele>315.0</ele><time>2026-04-06T09:31:35Z</time></trkpt><trkpt lat="39.51580672362941" lon="8.561299670983189"><ele>315.0</ele><time>2026-04-06T09:31:36Z</time></trkpt><trkpt lat="39.51585892823908" lon="8.561488460886746"><ele>314.6666666666667</ele><time>2026-04-06T09:31:37Z</time></trkpt><trkpt lat="39.51594911316215" lon="8.561647757348284"><ele>314.33333333333337</ele><time>2026-04-06T09:31:38Z</time></trkpt><trkpt lat="39.51607938685324" lon="8.561799628228206"><ele>314.0</ele><time>2026-04-06T09:31:39Z</time></trkpt><trkpt lat="39.516228888484086" lon="8.561958329795484"><ele>314.33333333333337</ele><time>2026-04-06T09:31:40Z</time></trkpt><trkpt lat="39.516376444920304" lon="8.562125356733784"><ele>314.6666666666667</ele><time>2026-04-06T09:31:41Z</time></trkpt><trkpt lat="39.51650858134717" lon="8.56228426116148"><ele>315.0</ele><time>2026-04-06T09:31:42Z</time></trkpt><trkpt lat="39.51659912914182" lon="8.562456372316568"><ele>315.0</ele><time>2026-04-06T09:31:43Z</time></trkpt><trkpt lat="39.51666908710319" lon="8.562641736904963"><ele>315.0</ele><time>2026-04-06T09:31:44Z</time></trkpt><trkpt lat="39.51671605779122" lon="8.56286517955919"><ele>315.0</ele><time>2026-04-06T09:31:45Z</time></trkpt><trkpt lat="39.51677445601025" lon="8.56309820478081"><ele>313.3333333333333</ele><time>2026-04-06T09:31:46Z</time></trkpt><trkpt lat="39.516826991770564" lon="8.56333636957045"><ele>311.66666666666663</ele><time>2026-04-06T09:31:47Z</time></trkpt><trkpt lat="39.516889166087225" lon="8.563558152609058"><ele>310.0</ele><time>2026-04-06T09:31:48Z</time></trkpt><trkpt lat="39.51696561603525" lon="8.563768542078956"><ele>310.66666666666663</ele><time>2026-04-06T09:31:49Z</time></trkpt><trkpt lat="39.51704461233058" lon="8.563955197503024"><ele>311.3333333333333</ele><time>2026-04-06T09:31:50Z</time></trkpt><trkpt lat="39.517126986031144" lon="8.564124164284172"><ele>312.0</ele><time>2026-04-06T09:31:51Z</time></trkpt><trkpt lat="39.51722833669661" lon="8.564261613586435"><ele>312.0</ele><time>2026-04-06T09:31:52Z</time></trkpt><trkpt lat="39.51735218490958" lon="8.564352265406104"><ele>312.0</ele><time>2026-04-06T09:31:53Z</time></trkpt><trkpt lat="39.51749341250838" lon="8.564408537258453"><ele>312.0</ele><time>2026-04-06T09:31:54Z</time></trkpt><trkpt lat="39.517649508677245" lon="8.564463269106266"><ele>310.0</ele><time>2026-04-06T09:31:55Z</time></trkpt><trkpt lat="39.517813903053536" lon="8.56454221804678"><ele>308.0</ele><time>2026-04-06T09:31:56Z</time></trkpt><trkpt lat="39.51798338398566" lon="8.5646269176884"><ele>306.0</ele><time>2026-04-06T09:31:57Z</time></trkpt><trkpt lat="39.518142628813116" lon="8.5646986227676"><ele>306.0</ele><time>2026-04-06T09:31:58Z</time></trkpt><trkpt lat="39.51827878766005" lon="8.564778832846349"><ele>306.0</ele><time>2026-04-06T09:31:59Z</time></trkpt><trkpt lat="39.5183952687482" lon="8.564840756420011"><ele>306.0</ele><time>2026-04-06T09:32:00Z</time></trkpt><trkpt lat="39.51849733413969" lon="8.564897808456049"><ele>306.0</ele><time>2026-04-06T09:32:01Z</time></trkpt><trkpt lat="39.518551736940296" lon="8.565013605918475"><ele>306.0</ele><time>2026-04-06T09:32:02Z</time></trkpt><trkpt lat="39.518554245275396" lon="8.565156050336189"><ele>306.0</ele><time>2026-04-06T09:32:03Z</time></trkpt><trkpt lat="39.51848257913565" lon="8.56529204104739"><ele>306.0</ele><time>2026-04-06T09:32:04Z</time></trkpt><trkpt lat="39.51846368718575" lon="8.565466479230704"><ele>306.0</ele><time>2026-04-06T09:32:05Z</time></trkpt><trkpt lat="39.51844837843965" lon="8.56566429880146"><ele>305.0</ele><time>2026-04-06T09:32:06Z</time></trkpt><trkpt lat="39.51846983912425" lon="8.565898315014664"><ele>304.0</ele><time>2026-04-06T09:32:07Z</time></trkpt><trkpt lat="39.518496729723005" lon="8.56615978935326"><ele>303.0</ele><time>2026-04-06T09:32:08Z</time></trkpt><trkpt lat="39.51851915097004" lon="8.566424153672857"><ele>302.6666666666667</ele><time>2026-04-06T09:32:09Z</time></trkpt><trkpt lat="39.51853324986299" lon="8.566649188242614"><ele>302.33333333333337</ele><time>2026-04-06T09:32:10Z</time></trkpt><trkpt lat="39.51853680441169" lon="8.56685733820671"><ele>302.0</ele><time>2026-04-06T09:32:11Z</time></trkpt><trkpt lat="39.51851066680636" lon="8.567054065472792"><ele>303.33333333333337</ele><time>2026-04-06T09:32:12Z</time></trkpt><trkpt lat="39.518455886164" lon="8.567252676918539"><ele>304.6666666666667</ele><time>2026-04-06T09:32:13Z</time></trkpt><trkpt lat="39.518375618250936" lon="8.567446353279585"><ele>306.0</ele><time>2026-04-06T09:32:14Z</time></trkpt><trkpt lat="39.518277811502436" lon="8.567621827205718"><ele>306.0</ele><time>2026-04-06T09:32:15Z</time></trkpt><trkpt lat="39.51817742247332" lon="8.56779687939597"><ele>306.0</ele><time>2026-04-06T09:32:16Z</time></trkpt><trkpt lat="39.518099036139304" lon="8.56797202338955"><ele>306.0</ele><time>2026-04-06T09:32:17Z</time></trkpt><trkpt lat="39.51804374315708" lon="8.568172443497579"><ele>307.0</ele><time>2026-04-06T09:32:18Z</time></trkpt><trkpt lat="39.51800969618555" lon="8.56838622240945"><ele>308.0</ele><time>2026-04-06T09:32:19Z</time></trkpt><trkpt lat="39.517995568874355" lon="8.568601994070606"><ele>309.0</ele><time>2026-04-06T09:32:20Z</time></trkpt><trkpt lat="39.5179984924311" lon="8.568827241812409"><ele>309.0</ele><time>2026-04-06T09:32:21Z</time></trkpt><trkpt lat="39.518022644766674" lon="8.569031515422687"><ele>309.0</ele><time>2026-04-06T09:32:22Z</time></trkpt><trkpt lat="39.5180513692642" lon="8.569216304457267"><ele>309.0</ele><time>2026-04-06T09:32:23Z</time></trkpt><trkpt lat="39.51807386757033" lon="8.569392595085539"><ele>309.0</ele><time>2026-04-06T09:32:24Z</time></trkpt><trkpt lat="39.51808683859478" lon="8.569578454859602"><ele>309.6666666666667</ele><time>2026-04-06T09:32:25Z</time></trkpt><trkpt lat="39.51810457149754" lon="8.569771442165743"><ele>310.33333333333337</ele><time>2026-04-06T09:32:26Z</time></trkpt><trkpt lat="39.518123874180844" lon="8.56996947086855"><ele>311.0</ele><time>2026-04-06T09:32:27Z</time></trkpt><trkpt lat="39.518151009378926" lon="8.570176816424244"><ele>311.0</ele><time>2026-04-06T09:32:28Z</time></trkpt><trkpt lat="39.51817531678036" lon="8.570377607454121"><ele>311.0</ele><time>2026-04-06T09:32:29Z</time></trkpt><trkpt lat="39.518197350364574" lon="8.570556598707665"><ele>311.0</ele><time>2026-04-06T09:32:30Z</time></trkpt><trkpt lat="39.518214795291975" lon="8.570721967100262"><ele>311.0</ele><time>2026-04-06T09:32:31Z</time></trkpt><trkpt lat="39.51823149470812" lon="8.570862720715011"><ele>311.0</ele><time>2026-04-06T09:32:32Z</time></trkpt><trkpt lat="39.518251092010495" lon="8.57099010197853"><ele>311.0</ele><time>2026-04-06T09:32:33Z</time></trkpt><trkpt lat="39.5182901735621" lon="8.571102930303024"><ele>311.0</ele><time>2026-04-06T09:32:34Z</time></trkpt><trkpt lat="39.51836194410651" lon="8.5711822696516"><ele>311.0</ele><time>2026-04-06T09:32:35Z</time></trkpt><trkpt lat="39.51846550921321" lon="8.571220907547783"><ele>311.0</ele><time>2026-04-06T09:32:36Z</time></trkpt><trkpt lat="39.51857908460373" lon="8.571224948628744"><ele>310.40000000000003</ele><time>2026-04-06T09:32:37Z</time></trkpt><trkpt lat="39.51867300400536" lon="8.571273917165188"><ele>309.8</ele><time>2026-04-06T09:32:38Z</time></trkpt><trkpt lat="39.518750796763634" lon="8.571329201964032"><ele>309.20000000000005</ele><time>2026-04-06T09:32:39Z</time></trkpt><trkpt lat="39.518785722168744" lon="8.571456425467817"><ele>308.6</ele><time>2026-04-06T09:32:40Z</time></trkpt><trkpt lat="39.518791381901885" lon="8.571606033808111"><ele>308.0</ele><time>2026-04-06T09:32:41Z</time></trkpt><trkpt lat="39.51878219085953" lon="8.57174581794726"><ele>308.0</ele><time>2026-04-06T09:32:42Z</time></trkpt><trkpt lat="39.518803178753764" lon="8.571860329472711"><ele>308.0</ele><time>2026-04-06T09:32:43Z</time></trkpt><trkpt lat="39.518864496808206" lon="8.571935600376358"><ele>308.0</ele><time>2026-04-06T09:32:44Z</time></trkpt><trkpt lat="39.518950136879674" lon="8.571961124495745"><ele>308.0</ele><time>2026-04-06T09:32:45Z</time></trkpt><trkpt lat="39.519041606751436" lon="8.571943437508308"><ele>308.0</ele><time>2026-04-06T09:32:46Z</time></trkpt><trkpt lat="39.51913880166757" lon="8.571923993493535"><ele>308.0</ele><time>2026-04-06T09:32:47Z</time></trkpt><trkpt lat="39.51924205269558" lon="8.571920394211242"><ele>308.0</ele><time>2026-04-06T09:32:48Z</time></trkpt><trkpt lat="39.519345806746465" lon="8.57193295257454"><ele>308.0</ele><time>2026-04-06T09:32:49Z</time></trkpt><trkpt lat="39.519448100148765" lon="8.571967126232815"><ele>308.0</ele><time>2026-04-06T09:32:50Z</time></trkpt><trkpt lat="39.519553732759825" lon="8.572013029152021"><ele>308.0</ele><time>2026-04-06T09:32:51Z</time></trkpt><trkpt lat="39.5196655253859" lon="8.572035377360814"><ele>306.75</ele><time>2026-04-06T09:32:52Z</time></trkpt><trkpt lat="39.5197918154677" lon="8.572024035788326"><ele>305.5</ele><time>2026-04-06T09:32:53Z</time></trkpt><trkpt lat="39.51992027421633" lon="8.572006408800602"><ele>304.25</ele><time>2026-04-06T09:32:54Z</time></trkpt><trkpt lat="39.520037856942196" lon="8.571978447957674"><ele>303.0</ele><time>2026-04-06T09:32:55Z</time></trkpt><trkpt lat="39.520145317086445" lon="8.57192853161647"><ele>303.0</ele><time>2026-04-06T09:32:56Z</time></trkpt><trkpt lat="39.520245600659095" lon="8.571858584137251"><ele>303.0</ele><time>2026-04-06T09:32:57Z</time></trkpt><trkpt lat="39.520342455883906" lon="8.571789460064412"><ele>303.0</ele><time>2026-04-06T09:32:58Z</time></trkpt><trkpt lat="39.520438279003216" lon="8.571728833047526"><ele>303.0</ele><time>2026-04-06T09:32:59Z</time></trkpt><trkpt lat="39.52052984229728" lon="8.571684610146514"><ele>303.0</ele><time>2026-04-06T09:33:00Z</time></trkpt><trkpt lat="39.520613600838985" lon="8.571654051212283"><ele>302.1666666666667</ele><time>2026-04-06T09:33:01Z</time></trkpt><trkpt lat="39.520695026053026" lon="8.571648435728461"><ele>301.3333333333333</ele><time>2026-04-06T09:33:02Z</time></trkpt><trkpt lat="39.52077001939415" lon="8.571681402150364"><ele>300.5</ele><time>2026-04-06T09:33:03Z</time></trkpt><trkpt lat="39.520821671639546" lon="8.571761461019634"><ele>299.66666666666663</ele><time>2026-04-06T09:33:04Z</time></trkpt><trkpt lat="39.52082460346941" lon="8.571863496163857"><ele>298.8333333333333</ele><time>2026-04-06T09:33:05Z</time></trkpt><trkpt lat="39.52078821311048" lon="8.571966194661197"><ele>298.0</ele><time>2026-04-06T09:33:06Z</time></trkpt><trkpt lat="39.52073069357876" lon="8.572055618848907"><ele>298.0</ele><time>2026-04-06T09:33:07Z</time></trkpt><trkpt lat="39.52067016315347" lon="8.572143870375337"><ele>298.0</ele><time>2026-04-06T09:33:08Z</time></trkpt><trkpt lat="39.52061382000015" lon="8.572232302174212"><ele>298.0</ele><time>2026-04-06T09:33:09Z</time></trkpt><trkpt lat="39.5205576596104" lon="8.57232359043867"><ele>298.0</ele><time>2026-04-06T09:33:10Z</time></trkpt><trkpt lat="39.52050063786053" lon="8.572422878455633"><ele>298.0</ele><time>2026-04-06T09:33:11Z</time></trkpt><trkpt lat="39.52043896796743" lon="8.572526099169146"><ele>295.5</ele><time>2026-04-06T09:33:12Z</time></trkpt><trkpt lat="39.52037472854941" lon="8.572633225544438"><ele>293.0</ele><time>2026-04-06T09:33:13Z</time></trkpt><trkpt lat="39.520308957032896" lon="8.572753507835852"><ele>290.5</ele><time>2026-04-06T09:33:14Z</time></trkpt><trkpt lat="39.52023515688082" lon="8.572879886311812"><ele>288.0</ele><time>2026-04-06T09:33:15Z</time></trkpt><trkpt lat="39.520156821930556" lon="8.573010793414259"><ele>288.0</ele><time>2026-04-06T09:33:16Z</time></trkpt><trkpt lat="39.52008800874079" lon="8.573154718511855"><ele>288.0</ele><time>2026-04-06T09:33:17Z</time></trkpt><trkpt lat="39.52003298881668" lon="8.573314188996617"><ele>288.0</ele><time>2026-04-06T09:33:18Z</time></trkpt><trkpt lat="39.519995035125476" lon="8.57346301041731"><ele>288.0</ele><time>2026-04-06T09:33:19Z</time></trkpt><trkpt lat="39.51997084380327" lon="8.573600637146978"><ele>289.5</ele><time>2026-04-06T09:33:20Z</time></trkpt><trkpt lat="39.51996602841727" lon="8.573737277973676"><ele>291.0</ele><time>2026-04-06T09:33:21Z</time></trkpt><trkpt lat="39.519982076826615" lon="8.573862470002776"><ele>292.5</ele><time>2026-04-06T09:33:22Z</time></trkpt><trkpt lat="39.519997790875045" lon="8.573967643995818"><ele>294.0</ele><time>2026-04-06T09:33:23Z</time></trkpt><trkpt lat="39.51999085828603" lon="8.57406093492882"><ele>295.5</ele><time>2026-04-06T09:33:24Z</time></trkpt><trkpt lat="39.519961819519956" lon="8.574146638540743"><ele>297.0</ele><time>2026-04-06T09:33:25Z</time></trkpt><trkpt lat="39.51991643873416" lon="8.574218529337548"><ele>297.0</ele><time>2026-04-06T09:33:26Z</time></trkpt><trkpt lat="39.51985905848069" lon="8.574281891911616"><ele>297.0</ele><time>2026-04-06T09:33:27Z</time></trkpt><trkpt lat="39.51979628340186" lon="8.574338021959408"><ele>297.0</ele><time>2026-04-06T09:33:28Z</time></trkpt><trkpt lat="39.5197315224559" lon="8.574416679529824"><ele>297.0</ele><time>2026-04-06T09:33:29Z</time></trkpt><trkpt lat="39.519684234225046" lon="8.574531812686331"><ele>297.0</ele><time>2026-04-06T09:33:30Z</time></trkpt><trkpt lat="39.51967381166095" lon="8.574674289862664"><ele>298.25</ele><time>2026-04-06T09:33:31Z</time></trkpt><trkpt lat="39.51969062319485" lon="8.57482222810494"><ele>299.5</ele><time>2026-04-06T09:33:32Z</time></trkpt><trkpt lat="39.51973938628818" lon="8.57496088145351"><ele>300.75</ele><time>2026-04-06T09:33:33Z</time></trkpt><trkpt lat="39.519809728576206" lon="8.57512138815558"><ele>302.0</ele><time>2026-04-06T09:33:34Z</time></trkpt><trkpt lat="39.51991670603084" lon="8.575302874444372"><ele>298.33333333333337</ele><time>2026-04-06T09:33:35Z</time></trkpt><trkpt lat="39.520041930150796" lon="8.575506593752133"><ele>294.6666666666667</ele><time>2026-04-06T09:33:36Z</time></trkpt><trkpt lat="39.52017393732675" lon="8.575721348288512"><ele>291.0</ele><time>2026-04-06T09:33:37Z</time></trkpt><trkpt lat="39.52027197894259" lon="8.575885110092138"><ele>291.0</ele><time>2026-04-06T09:33:38Z</time></trkpt><trkpt lat="39.52034270119495" lon="8.576024039982293"><ele>291.0</ele><time>2026-04-06T09:33:39Z</time></trkpt><trkpt lat="39.520371075933994" lon="8.576182774562758"><ele>291.0</ele><time>2026-04-06T09:33:40Z</time></trkpt><trkpt lat="39.52034252200867" lon="8.576331830280619"><ele>291.0</ele><time>2026-04-06T09:33:41Z</time></trkpt><trkpt lat="39.52033439707951" lon="8.57648724457104"><ele>290.3333333333333</ele><time>2026-04-06T09:33:42Z</time></trkpt><trkpt lat="39.52031512324546" lon="8.576660263118468"><ele>289.66666666666663</ele><time>2026-04-06T09:33:43Z</time></trkpt><trkpt lat="39.520274745381386" lon="8.57687889548741"><ele>289.0</ele><time>2026-04-06T09:33:44Z</time></trkpt><trkpt lat="39.52024392617474" lon="8.577129972580217"><ele>290.5</ele><time>2026-04-06T09:33:45Z</time></trkpt><trkpt lat="39.520220354298" lon="8.577347159613813"><ele>292.0</ele><time>2026-04-06T09:33:46Z</time></trkpt><trkpt lat="39.52019128098742" lon="8.577517318196591"><ele>293.5</ele><time>2026-04-06T09:33:47Z</time></trkpt><trkpt lat="39.520158460340724" lon="8.577662580672829"><ele>295.0</ele><time>2026-04-06T09:33:48Z</time></trkpt><trkpt lat="39.5200978521923" lon="8.577783423864973"><ele>297.4</ele><time>2026-04-06T09:33:49Z</time></trkpt><trkpt lat="39.52002091886589" lon="8.577886194559062"><ele>299.8</ele><time>2026-04-06T09:33:50Z</time></trkpt><trkpt lat="39.51995435192045" lon="8.57797521634624"><ele>302.2</ele><time>2026-04-06T09:33:51Z</time></trkpt><trkpt lat="39.519902841416915" lon="8.578060616327575"><ele>304.6</ele><time>2026-04-06T09:33:52Z</time></trkpt><trkpt lat="39.51987224992172" lon="8.578170683640243"><ele>307.0</ele><time>2026-04-06T09:33:53Z</time></trkpt><trkpt lat="39.51986538813427" lon="8.578293891932299"><ele>307.0</ele><time>2026-04-06T09:33:54Z</time></trkpt><trkpt lat="39.519883489812386" lon="8.57842917089449"><ele>307.0</ele><time>2026-04-06T09:33:55Z</time></trkpt><trkpt lat="39.51992244699043" lon="8.57855441065237"><ele>307.0</ele><time>2026-04-06T09:33:56Z</time></trkpt><trkpt lat="39.51995430285301" lon="8.578671301207423"><ele>307.0</ele><time>2026-04-06T09:33:57Z</time></trkpt><trkpt lat="39.51997533821214" lon="8.578799041617925"><ele>307.0</ele><time>2026-04-06T09:33:58Z</time></trkpt><trkpt lat="39.52000027881196" lon="8.578938893004723"><ele>307.0</ele><time>2026-04-06T09:33:59Z</time></trkpt><trkpt lat="39.52002767007951" lon="8.579087095221938"><ele>307.0</ele><time>2026-04-06T09:34:00Z</time></trkpt><trkpt lat="39.52004398963273" lon="8.579234121420082"><ele>307.0</ele><time>2026-04-06T09:34:01Z</time></trkpt><trkpt lat="39.52004122908259" lon="8.579378943694035"><ele>307.0</ele><time>2026-04-06T09:34:02Z</time></trkpt><trkpt lat="39.52004449971017" lon="8.579531693451603"><ele>307.25</ele><time>2026-04-06T09:34:03Z</time></trkpt><trkpt lat="39.52004879368155" lon="8.579673794069079"><ele>307.5</ele><time>2026-04-06T09:34:04Z</time></trkpt><trkpt lat="39.52005156756247" lon="8.579822305075577"><ele>307.75</ele><time>2026-04-06T09:34:05Z</time></trkpt><trkpt lat="39.52005796140903" lon="8.579975810861038"><ele>308.0</ele><time>2026-04-06T09:34:06Z</time></trkpt><trkpt lat="39.520093690318355" lon="8.580144660425148"><ele>305.33333333333337</ele><time>2026-04-06T09:34:07Z</time></trkpt><trkpt lat="39.520146214938954" lon="8.580368096327428"><ele>302.6666666666667</ele><time>2026-04-06T09:34:08Z</time></trkpt><trkpt lat="39.52021391156742" lon="8.580571363204093"><ele>300.0</ele><time>2026-04-06T09:34:09Z</time></trkpt><trkpt lat="39.52028698898398" lon="8.580761663219638"><ele>300.0</ele><time>2026-04-06T09:34:10Z</time></trkpt><trkpt lat="39.520326025999466" lon="8.580938668066068"><ele>300.0</ele><time>2026-04-06T09:34:11Z</time></trkpt><trkpt lat="39.520318637919544" lon="8.58110588249583"><ele>300.0</ele><time>2026-04-06T09:34:12Z</time></trkpt><trkpt lat="39.52030058065009" lon="8.58126305770793"><ele>300.0</ele><time>2026-04-06T09:34:13Z</time></trkpt><trkpt lat="39.520282806248616" lon="8.581414264074919"><ele>298.2</ele><time>2026-04-06T09:34:14Z</time></trkpt><trkpt lat="39.52026511571681" lon="8.581559286764335"><ele>296.4</ele><time>2026-04-06T09:34:15Z</time></trkpt><trkpt lat="39.52024943558059" lon="8.581692088134794"><ele>294.6</ele><time>2026-04-06T09:34:16Z</time></trkpt><trkpt lat="39.52025361135961" lon="8.581806865877226"><ele>292.8</ele><time>2026-04-06T09:34:17Z</time></trkpt><trkpt lat="39.52026008806138" lon="8.581911060664973"><ele>291.0</ele><time>2026-04-06T09:34:18Z</time></trkpt><trkpt lat="39.52030395585569" lon="8.582018717495783"><ele>289.75</ele><time>2026-04-06T09:34:19Z</time></trkpt><trkpt lat="39.52039054266844" lon="8.582122234076234"><ele>288.5</ele><time>2026-04-06T09:34:20Z</time></trkpt><trkpt lat="39.52048881923845" lon="8.582230575783992"><ele>287.25</ele><time>2026-04-06T09:34:21Z</time></trkpt><trkpt lat="39.52057539204509" lon="8.582332208533508"><ele>286.0</ele><time>2026-04-06T09:34:22Z</time></trkpt><trkpt lat="39.52066465693535" lon="8.58244112376584"><ele>286.0</ele><time>2026-04-06T09:34:23Z</time></trkpt><trkpt lat="39.52076708093151" lon="8.582575415681712"><ele>286.0</ele><time>2026-04-06T09:34:24Z</time></trkpt><trkpt lat="39.52087283142706" lon="8.582704566489156"><ele>286.0</ele><time>2026-04-06T09:34:25Z</time></trkpt><trkpt lat="39.52097635306074" lon="8.582835685085831"><ele>286.0</ele><time>2026-04-06T09:34:26Z</time></trkpt><trkpt lat="39.521079116867774" lon="8.582959784798419"><ele>285.75</ele><time>2026-04-06T09:34:27Z</time></trkpt><trkpt lat="39.521176333526235" lon="8.583079380701072"><ele>285.5</ele><time>2026-04-06T09:34:28Z</time></trkpt><trkpt lat="39.52127158626341" lon="8.583204788671775"><ele>285.25</ele><time>2026-04-06T09:34:29Z</time></trkpt><trkpt lat="39.521380670050405" lon="8.58333865539164"><ele>285.0</ele><time>2026-04-06T09:34:30Z</time></trkpt><trkpt lat="39.52150195622872" lon="8.583506118506993"><ele>280.5</ele><time>2026-04-06T09:34:31Z</time></trkpt><trkpt lat="39.52165636763392" lon="8.583700354018545"><ele>276.0</ele><time>2026-04-06T09:34:32Z</time></trkpt><trkpt lat="39.52183090942255" lon="8.583914111623741"><ele>276.0</ele><time>2026-04-06T09:34:33Z</time></trkpt><trkpt lat="39.521984413331545" lon="8.584108348817407"><ele>276.0</ele><time>2026-04-06T09:34:34Z</time></trkpt><trkpt lat="39.522106164542635" lon="8.584266397955503"><ele>276.0</ele><time>2026-04-06T09:34:35Z</time></trkpt><trkpt lat="39.52217579833607" lon="8.584415708520847"><ele>276.5</ele><time>2026-04-06T09:34:36Z</time></trkpt><trkpt lat="39.522207660632475" lon="8.584551197542647"><ele>277.0</ele><time>2026-04-06T09:34:37Z</time></trkpt><trkpt lat="39.5221794201371" lon="8.584673992676965"><ele>277.5</ele><time>2026-04-06T09:34:38Z</time></trkpt><trkpt lat="39.5221367685889" lon="8.584815115279595"><ele>278.0</ele><time>2026-04-06T09:34:39Z</time></trkpt><trkpt lat="39.52209353592835" lon="8.584981802397555"><ele>276.25</ele><time>2026-04-06T09:34:40Z</time></trkpt><trkpt lat="39.52203118478363" lon="8.585154462385145"><ele>274.5</ele><time>2026-04-06T09:34:41Z</time></trkpt><trkpt lat="39.521976017436124" lon="8.585324404564451"><ele>272.75</ele><time>2026-04-06T09:34:42Z</time></trkpt><trkpt lat="39.5219219124605" lon="8.585482901769558"><ele>271.0</ele><time>2026-04-06T09:34:43Z</time></trkpt><trkpt lat="39.52186984480409" lon="8.585636583027835"><ele>269.6</ele><time>2026-04-06T09:34:44Z</time></trkpt><trkpt lat="39.52181570109839" lon="8.585784263460923"><ele>268.20000000000005</ele><time>2026-04-06T09:34:45Z</time></trkpt><trkpt lat="39.52176975209494" lon="8.585910417940406"><ele>266.79999999999995</ele><time>2026-04-06T09:34:46Z</time></trkpt><trkpt lat="39.52175563561065" lon="8.586029412068534"><ele>265.4</ele><time>2026-04-06T09:34:47Z</time></trkpt><trkpt lat="39.52178262670016" lon="8.586147184086522"><ele>264.0</ele><time>2026-04-06T09:34:48Z</time></trkpt><trkpt lat="39.52184671019601" lon="8.586245809841579"><ele>263.0</ele><time>2026-04-06T09:34:49Z</time></trkpt><trkpt lat="39.52193370364745" lon="8.586334026221452"><ele>262.0</ele><time>2026-04-06T09:34:50Z</time></trkpt><trkpt lat="39.52203140394106" lon="8.586412468225548"><ele>261.0</ele><time>2026-04-06T09:34:51Z</time></trkpt><trkpt lat="39.5221316839908" lon="8.586477826938571"><ele>260.0</ele><time>2026-04-06T09:34:52Z</time></trkpt><trkpt lat="39.5222368006156" lon="8.58651024220422"><ele>259.0</ele><time>2026-04-06T09:34:53Z</time></trkpt><trkpt lat="39.522340974072094" lon="8.586500467584848"><ele>258.66666666666663</ele><time>2026-04-06T09:34:54Z</time></trkpt><trkpt lat="39.52243619764718" lon="8.58645461624691"><ele>258.3333333333333</ele><time>2026-04-06T09:34:55Z</time></trkpt><trkpt lat="39.52252694030776" lon="8.586417411635054"><ele>258.0</ele><time>2026-04-06T09:34:56Z</time></trkpt><trkpt lat="39.5226106479526" lon="8.586390301814644"><ele>257.6666666666667</ele><time>2026-04-06T09:34:57Z</time></trkpt><trkpt lat="39.52268904890835" lon="8.58638628258773"><ele>257.33333333333337</ele><time>2026-04-06T09:34:58Z</time></trkpt><trkpt lat="39.52275259438171" lon="8.586402675986559"><ele>257.0</ele><time>2026-04-06T09:34:59Z</time></trkpt><trkpt lat="39.52281263580594" lon="8.586448850638583"><ele>257.0</ele><time>2026-04-06T09:35:00Z</time></trkpt><trkpt lat="39.52286180272399" lon="8.586537396224289"><ele>257.0</ele><time>2026-04-06T09:35:01Z</time></trkpt><trkpt lat="39.522879147276015" lon="8.586638362616693"><ele>257.0</ele><time>2026-04-06T09:35:02Z</time></trkpt><trkpt lat="39.522868320905694" lon="8.586767306581077"><ele>257.0</ele><time>2026-04-06T09:35:03Z</time></trkpt><trkpt lat="39.52284378990491" lon="8.586894316611616"><ele>257.0</ele><time>2026-04-06T09:35:04Z</time></trkpt><trkpt lat="39.5228286441074" lon="8.587032742399405"><ele>256.4</ele><time>2026-04-06T09:35:05Z</time></trkpt><trkpt lat="39.522826123921625" lon="8.587159832427938"><ele>255.79999999999998</ele><time>2026-04-06T09:35:06Z</time></trkpt><trkpt lat="39.52284455226749" lon="8.5872779148855"><ele>255.2</ele><time>2026-04-06T09:35:07Z</time></trkpt><trkpt lat="39.522875455474626" lon="8.58739224910441"><ele>254.6</ele><time>2026-04-06T09:35:08Z</time></trkpt><trkpt lat="39.52290905817546" lon="8.587505038637397"><ele>254.0</ele><time>2026-04-06T09:35:09Z</time></trkpt><trkpt lat="39.52293936831598" lon="8.587618476574425"><ele>254.0</ele><time>2026-04-06T09:35:10Z</time></trkpt><trkpt lat="39.52296967899868" lon="8.587735685893765"><ele>253.99999999999997</ele><time>2026-04-06T09:35:11Z</time></trkpt><trkpt lat="39.52300661622009" lon="8.587856275374861"><ele>253.99999999999997</ele><time>2026-04-06T09:35:12Z</time></trkpt><trkpt lat="39.523067213834445" lon="8.587969674613241"><ele>254.0</ele><time>2026-04-06T09:35:13Z</time></trkpt><trkpt lat="39.52315905837258" lon="8.588050105444653"><ele>254.0</ele><time>2026-04-06T09:35:14Z</time></trkpt><trkpt lat="39.52326635962713" lon="8.588091738385465"><ele>252.39999999999998</ele><time>2026-04-06T09:35:15Z</time></trkpt><trkpt lat="39.52337857993639" lon="8.588112162497971"><ele>250.79999999999998</ele><time>2026-04-06T09:35:16Z</time></trkpt><trkpt lat="39.523493484903966" lon="8.588132276494354"><ele>249.20000000000002</ele><time>2026-04-06T09:35:17Z</time></trkpt><trkpt lat="39.52360035505813" lon="8.588156528272004"><ele>247.60000000000002</ele><time>2026-04-06T09:35:18Z</time></trkpt><trkpt lat="39.523702180204374" lon="8.588182432458797"><ele>246.0</ele><time>2026-04-06T09:35:19Z</time></trkpt><trkpt lat="39.52380294154229" lon="8.58819896562337"><ele>244.60000000000002</ele><time>2026-04-06T09:35:20Z</time></trkpt><trkpt lat="39.52389890627164" lon="8.588206567992982"><ele>243.20000000000002</ele><time>2026-04-06T09:35:21Z</time></trkpt><trkpt lat="39.52398834125866" lon="8.588201619691121"><ele>241.79999999999998</ele><time>2026-04-06T09:35:21.999Z</time></trkpt><trkpt lat="39.52407260373761" lon="8.588163787808202"><ele>240.39999999999998</ele><time>2026-04-06T09:35:22.999Z</time></trkpt><trkpt lat="39.52415151302631" lon="8.588086673844266"><ele>239.0</ele><time>2026-04-06T09:35:23.999Z</time></trkpt><trkpt lat="39.5242227955153" lon="8.587992039389526"><ele>239.00000000000003</ele><time>2026-04-06T09:35:24.999Z</time></trkpt><trkpt lat="39.524298048715394" lon="8.587931863412033"><ele>239.0</ele><time>2026-04-06T09:35:25.999Z</time></trkpt><trkpt lat="39.52436365161809" lon="8.587881954080014"><ele>239.0</ele><time>2026-04-06T09:35:26.999Z</time></trkpt><trkpt lat="39.52443543551891" lon="8.587866570117171"><ele>239.0</ele><time>2026-04-06T09:35:27.999Z</time></trkpt><trkpt lat="39.524513170509096" lon="8.58787479907525"><ele>239.00000000000003</ele><time>2026-04-06T09:35:29Z</time></trkpt><trkpt lat="39.5245875963953" lon="8.587919362943111"><ele>239.0</ele><time>2026-04-06T09:35:30Z</time></trkpt><trkpt lat="39.52466077243944" lon="8.58797105945515"><ele>241.00000000000003</ele><time>2026-04-06T09:35:31Z</time></trkpt><trkpt lat="39.52470569471672" lon="8.588064933495797"><ele>243.0</ele><time>2026-04-06T09:35:32Z</time></trkpt><trkpt lat="39.52472584702732" lon="8.588167856211271"><ele>245.0</ele><time>2026-04-06T09:35:33Z</time></trkpt><trkpt lat="39.52472304252912" lon="8.58826927995931"><ele>247.0</ele><time>2026-04-06T09:35:34Z</time></trkpt><trkpt lat="39.524705731783314" lon="8.588357404725777"><ele>249.00000000000003</ele><time>2026-04-06T09:35:35Z</time></trkpt><trkpt lat="39.52468429630351" lon="8.588451855170756"><ele>251.0</ele><time>2026-04-06T09:35:36Z</time></trkpt><trkpt lat="39.52466704044676" lon="8.588569804464084"><ele>251.0</ele><time>2026-04-06T09:35:37Z</time></trkpt><trkpt lat="39.524640994731044" lon="8.588713481553848"><ele>251.00000000000003</ele><time>2026-04-06T09:35:38Z</time></trkpt><trkpt lat="39.52461411827667" lon="8.58885555293211"><ele>251.00000000000003</ele><time>2026-04-06T09:35:39Z</time></trkpt><trkpt lat="39.52460361716465" lon="8.588963542363581"><ele>251.0</ele><time>2026-04-06T09:35:40Z</time></trkpt><trkpt lat="39.52462071954222" lon="8.589072779252621"><ele>251.0</ele><time>2026-04-06T09:35:41Z</time></trkpt><trkpt lat="39.52465648839426" lon="8.589178270727409"><ele>251.00000000000003</ele><time>2026-04-06T09:35:42Z</time></trkpt><trkpt lat="39.52469588544076" lon="8.589269419966683"><ele>251.0</ele><time>2026-04-06T09:35:43Z</time></trkpt><trkpt lat="39.524752767584935" lon="8.589358304939642"><ele>251.0</ele><time>2026-04-06T09:35:44Z</time></trkpt><trkpt lat="39.52482707418324" lon="8.589433218786183"><ele>251.0</ele><time>2026-04-06T09:35:45Z</time></trkpt><trkpt lat="39.5249124410273" lon="8.589488630875989"><ele>251.00000000000003</ele><time>2026-04-06T09:35:46Z</time></trkpt><trkpt lat="39.52499353256161" lon="8.589538652066643"><ele>251.0</ele><time>2026-04-06T09:35:47Z</time></trkpt><trkpt lat="39.5250630920886" lon="8.589594840504962"><ele>251.00000000000003</ele><time>2026-04-06T09:35:48Z</time></trkpt><trkpt lat="39.525117730308644" lon="8.589665207533164"><ele>251.0</ele><time>2026-04-06T09:35:49Z</time></trkpt><trkpt lat="39.525152996028986" lon="8.589753555851466"><ele>251.0</ele><time>2026-04-06T09:35:50Z</time></trkpt><trkpt lat="39.525163123400105" lon="8.589854632776017"><ele>251.0</ele><time>2026-04-06T09:35:51Z</time></trkpt><trkpt lat="39.52515207157698" lon="8.58996015762176"><ele>251.00000000000003</ele><time>2026-04-06T09:35:52Z</time></trkpt><trkpt lat="39.52513482143262" lon="8.590069094005505"><ele>251.0</ele><time>2026-04-06T09:35:53Z</time></trkpt><trkpt lat="39.52511979562444" lon="8.590182362741471"><ele>251.0</ele><time>2026-04-06T09:35:54Z</time></trkpt><trkpt lat="39.525101488508334" lon="8.590303041928088"><ele>251.00000000000003</ele><time>2026-04-06T09:35:55Z</time></trkpt><trkpt lat="39.52508017212264" lon="8.59041979696117"><ele>251.00000000000003</ele><time>2026-04-06T09:35:56Z</time></trkpt><trkpt lat="39.52505889659941" lon="8.59053920265298"><ele>251.0</ele><time>2026-04-06T09:35:57Z</time></trkpt><trkpt lat="39.52504229316418" lon="8.59065873062564"><ele>251.0</ele><time>2026-04-06T09:35:58Z</time></trkpt><trkpt lat="39.525043500287616" lon="8.590781695472398"><ele>251.60000000000002</ele><time>2026-04-06T09:35:59Z</time></trkpt><trkpt lat="39.52507692106063" lon="8.590895233702637"><ele>252.20000000000002</ele><time>2026-04-06T09:36:00Z</time></trkpt><trkpt lat="39.52513925175733" lon="8.590994630698404"><ele>252.79999999999998</ele><time>2026-04-06T09:36:01Z</time></trkpt><trkpt lat="39.5252097097471" lon="8.591085637341925"><ele>253.39999999999998</ele><time>2026-04-06T09:36:02Z</time></trkpt><trkpt lat="39.52521570087244" lon="8.591198270885151"><ele>254.0</ele><time>2026-04-06T09:36:03Z</time></trkpt><trkpt lat="39.5253053056654" lon="8.591280588917579"><ele>254.66666666666669</ele><time>2026-04-06T09:36:04Z</time></trkpt><trkpt lat="39.52536257324309" lon="8.591354099380464"><ele>255.33333333333334</ele><time>2026-04-06T09:36:05Z</time></trkpt><trkpt lat="39.525433928104995" lon="8.591420393659266"><ele>256.0</ele><time>2026-04-06T09:36:06Z</time></trkpt><trkpt lat="39.525495427580246" lon="8.591506532762455"><ele>256.6666666666667</ele><time>2026-04-06T09:36:07Z</time></trkpt><trkpt lat="39.525554883226306" lon="8.591593974524177"><ele>257.3333333333333</ele><time>2026-04-06T09:36:08Z</time></trkpt><trkpt lat="39.525611241429864" lon="8.591678401132361"><ele>258.0</ele><time>2026-04-06T09:36:09Z</time></trkpt><trkpt lat="39.5256663859312" lon="8.591761552276017"><ele>258.5</ele><time>2026-04-06T09:36:10Z</time></trkpt><trkpt lat="39.52572008633461" lon="8.591845678691206"><ele>259.0</ele><time>2026-04-06T09:36:11Z</time></trkpt><trkpt lat="39.525769121815266" lon="8.591931261084804"><ele>259.5</ele><time>2026-04-06T09:36:12Z</time></trkpt><trkpt lat="39.525807835328216" lon="8.592022100964682"><ele>260.0</ele><time>2026-04-06T09:36:13Z</time></trkpt><trkpt lat="39.52583344069131" lon="8.592114434663015"><ele>260.5</ele><time>2026-04-06T09:36:14Z</time></trkpt><trkpt lat="39.5258368783679" lon="8.592205023440723"><ele>261.0</ele><time>2026-04-06T09:36:15Z</time></trkpt><trkpt lat="39.52581999494246" lon="8.592303662264587"><ele>261.0</ele><time>2026-04-06T09:36:16Z</time></trkpt><trkpt lat="39.52578526957679" lon="8.592397244557919"><ele>261.0</ele><time>2026-04-06T09:36:17Z</time></trkpt><trkpt lat="39.525745984137515" lon="8.592482641447907"><ele>261.0</ele><time>2026-04-06T09:36:18Z</time></trkpt><trkpt lat="39.52570872984225" lon="8.592570562904896"><ele>261.0</ele><time>2026-04-06T09:36:19Z</time></trkpt><trkpt lat="39.52567483753306" lon="8.592663112594018"><ele>261.0</ele><time>2026-04-06T09:36:20Z</time></trkpt><trkpt lat="39.52563755800949" lon="8.592757266913939"><ele>261.0</ele><time>2026-04-06T09:36:21Z</time></trkpt><trkpt lat="39.52559929411272" lon="8.592853418239589"><ele>259.8333333333333</ele><time>2026-04-06T09:36:22Z</time></trkpt><trkpt lat="39.52556385908762" lon="8.592947603433199"><ele>258.6666666666667</ele><time>2026-04-06T09:36:23Z</time></trkpt><trkpt lat="39.52552618673077" lon="8.59304127529276"><ele>257.5</ele><time>2026-04-06T09:36:24Z</time></trkpt><trkpt lat="39.52548824866459" lon="8.593143383039692"><ele>256.33333333333337</ele><time>2026-04-06T09:36:25Z</time></trkpt><trkpt lat="39.525450136207915" lon="8.593257842908542"><ele>255.16666666666669</ele><time>2026-04-06T09:36:26Z</time></trkpt><trkpt lat="39.52541116326969" lon="8.593376030303437"><ele>254.0</ele><time>2026-04-06T09:36:27Z</time></trkpt><trkpt lat="39.525379829987244" lon="8.593502148138722"><ele>253.79999999999998</ele><time>2026-04-06T09:36:28Z</time></trkpt><trkpt lat="39.525360078736334" lon="8.593637727419528"><ele>253.59999999999997</ele><time>2026-04-06T09:36:29Z</time></trkpt><trkpt lat="39.52535600951324" lon="8.593771818212812"><ele>253.4</ele><time>2026-04-06T09:36:30Z</time></trkpt><trkpt lat="39.52535716450125" lon="8.593898817562197"><ele>253.2</ele><time>2026-04-06T09:36:31Z</time></trkpt><trkpt lat="39.52533777287304" lon="8.59400451530219"><ele>253.0</ele><time>2026-04-06T09:36:32Z</time></trkpt><trkpt lat="39.525286727017686" lon="8.594083568802658"><ele>254.0</ele><time>2026-04-06T09:36:33Z</time></trkpt><trkpt lat="39.52521294749641" lon="8.594109978779137"><ele>255.0</ele><time>2026-04-06T09:36:34Z</time></trkpt><trkpt lat="39.52506524017583" lon="8.594084357847215"><ele>256.0</ele><time>2026-04-06T09:36:36Z</time></trkpt><trkpt lat="39.52498735778512" lon="8.59407950575284"><ele>257.0</ele><time>2026-04-06T09:36:37Z</time></trkpt><trkpt lat="39.524904912450204" lon="8.59407584265238"><ele>258.0</ele><time>2026-04-06T09:36:38Z</time></trkpt><trkpt lat="39.52482236673122" lon="8.59406057496107"><ele>258.0</ele><time>2026-04-06T09:36:39Z</time></trkpt><trkpt lat="39.524736608739715" lon="8.594043827453868"><ele>258.0</ele><time>2026-04-06T09:36:40Z</time></trkpt><trkpt lat="39.524641323313695" lon="8.594042534247102"><ele>258.0</ele><time>2026-04-06T09:36:41Z</time></trkpt><trkpt lat="39.5245375997328" lon="8.59406059263704"><ele>258.0</ele><time>2026-04-06T09:36:42Z</time></trkpt><trkpt lat="39.52444084826403" lon="8.594093323210382"><ele>258.0</ele><time>2026-04-06T09:36:43Z</time></trkpt><trkpt lat="39.52436930861896" lon="8.594136367093405"><ele>258.0</ele><time>2026-04-06T09:36:44Z</time></trkpt><trkpt lat="39.52430903792895" lon="8.594165327733922"><ele>258.0</ele><time>2026-04-06T09:36:45Z</time></trkpt><trkpt lat="39.524242168415675" lon="8.59418996387297"><ele>258.0</ele><time>2026-04-06T09:36:46Z</time></trkpt><trkpt lat="39.524162404969346" lon="8.594217259523388"><ele>258.0</ele><time>2026-04-06T09:36:47Z</time></trkpt><trkpt lat="39.52407662726792" lon="8.59424528182359"><ele>258.0</ele><time>2026-04-06T09:36:48Z</time></trkpt><trkpt lat="39.523988074392996" lon="8.594277922938868"><ele>258.0</ele><time>2026-04-06T09:36:49Z</time></trkpt><trkpt lat="39.523899624526784" lon="8.594312347557208"><ele>258.0</ele><time>2026-04-06T09:36:50Z</time></trkpt><trkpt lat="39.523811486781206" lon="8.594366642904406"><ele>258.0</ele><time>2026-04-06T09:36:51Z</time></trkpt><trkpt lat="39.52373744426865" lon="8.594441931059924"><ele>258.0</ele><time>2026-04-06T09:36:52Z</time></trkpt><trkpt lat="39.523680814885225" lon="8.594531042025627"><ele>258.0</ele><time>2026-04-06T09:36:53Z</time></trkpt><trkpt lat="39.52363434171825" lon="8.59462094419948"><ele>258.0</ele><time>2026-04-06T09:36:54Z</time></trkpt><trkpt lat="39.5235915528625" lon="8.59471545346923"><ele>258.0</ele><time>2026-04-06T09:36:55Z</time></trkpt><trkpt lat="39.52357006353625" lon="8.594822398241277"><ele>259.4</ele><time>2026-04-06T09:36:56Z</time></trkpt><trkpt lat="39.52355608889416" lon="8.594939291676564"><ele>260.8</ele><time>2026-04-06T09:36:57Z</time></trkpt><trkpt lat="39.52353211825249" lon="8.595056623648146"><ele>262.2</ele><time>2026-04-06T09:36:58Z</time></trkpt><trkpt lat="39.52350523275804" lon="8.595171896271"><ele>263.6</ele><time>2026-04-06T09:36:59Z</time></trkpt><trkpt lat="39.52347742812406" lon="8.595261553113652"><ele>265.0</ele><time>2026-04-06T09:37:00Z</time></trkpt><trkpt lat="39.52337959369178" lon="8.595326248077342"><ele>265.0</ele><time>2026-04-06T09:37:01.999Z</time></trkpt><trkpt lat="39.52329711239346" lon="8.595333031300482"><ele>265.0</ele><time>2026-04-06T09:37:04.999Z</time></trkpt><trkpt lat="39.523216023983075" lon="8.595367562849733"><ele>265.0</ele><time>2026-04-06T09:37:26.999Z</time></trkpt><trkpt lat="39.5231208848317" lon="8.595408887849398"><ele>265.0</ele><time>2026-04-06T09:37:28.999Z</time></trkpt><trkpt lat="39.5230699051509" lon="8.595465468365123"><ele>265.0</ele><time>2026-04-06T09:37:29.999Z</time></trkpt><trkpt lat="39.522979208883335" lon="8.595591270765825"><ele>265.3333333333333</ele><time>2026-04-06T09:37:31.999Z</time></trkpt><trkpt lat="39.52292816034525" lon="8.595668414408824"><ele>265.66666666666663</ele><time>2026-04-06T09:37:32.999Z</time></trkpt><trkpt lat="39.52287732647588" lon="8.595751348200936"><ele>266.0</ele><time>2026-04-06T09:37:33.999Z</time></trkpt><trkpt lat="39.52282903312424" lon="8.595819363575615"><ele>266.3333333333333</ele><time>2026-04-06T09:37:34.999Z</time></trkpt><trkpt lat="39.522771294785414" lon="8.595880268367857"><ele>266.6666666666667</ele><time>2026-04-06T09:37:35.999Z</time></trkpt><trkpt lat="39.522698690518574" lon="8.595926353744256"><ele>267.0</ele><time>2026-04-06T09:37:36.999Z</time></trkpt><trkpt lat="39.52261606843888" lon="8.595950910738082"><ele>267.0</ele><time>2026-04-06T09:37:37.999Z</time></trkpt><trkpt lat="39.522529358822325" lon="8.595971123141744"><ele>267.0</ele><time>2026-04-06T09:37:38.999Z</time></trkpt><trkpt lat="39.522435536689564" lon="8.595987708665461"><ele>267.0</ele><time>2026-04-06T09:37:39.999Z</time></trkpt><trkpt lat="39.52234212245576" lon="8.596005745024215"><ele>267.0</ele><time>2026-04-06T09:37:40.999Z</time></trkpt><trkpt lat="39.522261329943476" lon="8.59603481638522"><ele>267.0</ele><time>2026-04-06T09:37:41.999Z</time></trkpt><trkpt lat="39.52219052640064" lon="8.596066853217332"><ele>267.0</ele><time>2026-04-06T09:37:42.999Z</time></trkpt><trkpt lat="39.522130078140385" lon="8.59611258409651"><ele>267.1666666666667</ele><time>2026-04-06T09:37:43.999Z</time></trkpt><trkpt lat="39.52207957750085" lon="8.596174683075747"><ele>267.3333333333333</ele><time>2026-04-06T09:37:44.999Z</time></trkpt><trkpt lat="39.522045984201796" lon="8.596263393335715"><ele>267.5</ele><time>2026-04-06T09:37:45.999Z</time></trkpt><trkpt lat="39.52203732415169" lon="8.59636867651109"><ele>267.66666666666663</ele><time>2026-04-06T09:37:46.999Z</time></trkpt><trkpt lat="39.52205399637238" lon="8.5964832795005"><ele>267.8333333333333</ele><time>2026-04-06T09:37:47.999Z</time></trkpt><trkpt lat="39.52206892073644" lon="8.596605619671866"><ele>268.0</ele><time>2026-04-06T09:37:48.999Z</time></trkpt><trkpt lat="39.52208142596004" lon="8.596727131233195"><ele>268.0</ele><time>2026-04-06T09:37:49.999Z</time></trkpt><trkpt lat="39.52211425950582" lon="8.596834786989747"><ele>268.0</ele><time>2026-04-06T09:37:50.999Z</time></trkpt><trkpt lat="39.52217096483815" lon="8.596933308079413"><ele>268.0</ele><time>2026-04-06T09:37:51.999Z</time></trkpt><trkpt lat="39.52224365983915" lon="8.597015235994418"><ele>268.0</ele><time>2026-04-06T09:37:52.999Z</time></trkpt><trkpt lat="39.52231304075783" lon="8.59708534283109"><ele>268.0</ele><time>2026-04-06T09:37:53.999Z</time></trkpt><trkpt lat="39.522371630540704" lon="8.597165304173151"><ele>267.0</ele><time>2026-04-06T09:37:54.999Z</time></trkpt><trkpt lat="39.52241146316108" lon="8.597259897553736"><ele>266.0</ele><time>2026-04-06T09:37:55.999Z</time></trkpt><trkpt lat="39.52242903583829" lon="8.59736512746485"><ele>265.0</ele><time>2026-04-06T09:37:56.999Z</time></trkpt><trkpt lat="39.52242607869623" lon="8.597463813107879"><ele>264.0</ele><time>2026-04-06T09:37:57.999Z</time></trkpt><trkpt lat="39.522421704183834" lon="8.597567782605184"><ele>263.0</ele><time>2026-04-06T09:37:58.999Z</time></trkpt><trkpt lat="39.52241867311081" lon="8.597674781036424"><ele>262.0</ele><time>2026-04-06T09:37:59.999Z</time></trkpt><trkpt lat="39.52241469268262" lon="8.597788173988754"><ele>261.16666666666663</ele><time>2026-04-06T09:38:00.999Z</time></trkpt><trkpt lat="39.52240879428639" lon="8.597912724354318"><ele>260.3333333333333</ele><time>2026-04-06T09:38:01.999Z</time></trkpt><trkpt lat="39.52240730994887" lon="8.598025928895325"><ele>259.5</ele><time>2026-04-06T09:38:02.999Z</time></trkpt><trkpt lat="39.52242488126127" lon="8.598137060650213"><ele>258.6666666666667</ele><time>2026-04-06T09:38:03.999Z</time></trkpt><trkpt lat="39.5224707050387" lon="8.59823835470781"><ele>257.83333333333337</ele><time>2026-04-06T09:38:05Z</time></trkpt><trkpt lat="39.52253398974253" lon="8.598316649480639"><ele>257.0</ele><time>2026-04-06T09:38:06Z</time></trkpt><trkpt lat="39.522599682380076" lon="8.59838441855788"><ele>257.0</ele><time>2026-04-06T09:38:07Z</time></trkpt><trkpt lat="39.52265304638941" lon="8.598456409180882"><ele>257.0</ele><time>2026-04-06T09:38:08Z</time></trkpt><trkpt lat="39.52268945402365" lon="8.598536604021819"><ele>257.0</ele><time>2026-04-06T09:38:09Z</time></trkpt><trkpt lat="39.52269069609371" lon="8.598620576107267"><ele>257.0</ele><time>2026-04-06T09:38:10Z</time></trkpt><trkpt lat="39.52266638647968" lon="8.598741217563134"><ele>257.0</ele><time>2026-04-06T09:38:12Z</time></trkpt><trkpt lat="39.52273560366378" lon="8.598829248148242"><ele>257.0</ele><time>2026-04-06T09:38:14Z</time></trkpt><trkpt lat="39.52280844518727" lon="8.598865523483806"><ele>257.8</ele><time>2026-04-06T09:38:15Z</time></trkpt><trkpt lat="39.52287703988297" lon="8.598923333070866"><ele>258.6</ele><time>2026-04-06T09:38:16Z</time></trkpt><trkpt lat="39.522945990333916" lon="8.599011459763325"><ele>259.40000000000003</ele><time>2026-04-06T09:38:17Z</time></trkpt><trkpt lat="39.52302710356367" lon="8.59909762367167"><ele>260.2</ele><time>2026-04-06T09:38:18Z</time></trkpt><trkpt lat="39.523133504488435" lon="8.599186509983628"><ele>261.0</ele><time>2026-04-06T09:38:19Z</time></trkpt><trkpt lat="39.52326710345279" lon="8.599270631426043"><ele>264.0</ele><time>2026-04-06T09:38:20Z</time></trkpt><trkpt lat="39.523411497258515" lon="8.599326754803968"><ele>267.0</ele><time>2026-04-06T09:38:21Z</time></trkpt><trkpt lat="39.52357269332001" lon="8.599358774246433"><ele>270.0</ele><time>2026-04-06T09:38:22Z</time></trkpt><trkpt lat="39.52373449508396" lon="8.599379592336966"><ele>272.3333333333333</ele><time>2026-04-06T09:38:23Z</time></trkpt><trkpt lat="39.523900409843776" lon="8.599402262779558"><ele>274.66666666666663</ele><time>2026-04-06T09:38:24Z</time></trkpt><trkpt lat="39.52406325468086" lon="8.59941362500843"><ele>277.0</ele><time>2026-04-06T09:38:25Z</time></trkpt><trkpt lat="39.524211243177824" lon="8.599422864753016"><ele>277.0</ele><time>2026-04-06T09:38:26Z</time></trkpt><trkpt lat="39.52434703945722" lon="8.599431099267623"><ele>277.0</ele><time>2026-04-06T09:38:27Z</time></trkpt><trkpt lat="39.52446231824665" lon="8.599435487297729"><ele>277.0</ele><time>2026-04-06T09:38:28Z</time></trkpt><trkpt lat="39.52456095373454" lon="8.599449786466757"><ele>277.0</ele><time>2026-04-06T09:38:29Z</time></trkpt><trkpt lat="39.52464645724734" lon="8.599492496629395"><ele>277.0</ele><time>2026-04-06T09:38:30Z</time></trkpt><trkpt lat="39.52472359336318" lon="8.599588744149969"><ele>279.0</ele><time>2026-04-06T09:38:30.999Z</time></trkpt><trkpt lat="39.52480135192872" lon="8.599714581080073"><ele>281.0</ele><time>2026-04-06T09:38:31.999Z</time></trkpt><trkpt lat="39.52488615252166" lon="8.599854152441305"><ele>283.0</ele><time>2026-04-06T09:38:32.999Z</time></trkpt><trkpt lat="39.5249849199333" lon="8.59998362269744"><ele>285.0</ele><time>2026-04-06T09:38:33.999Z</time></trkpt><trkpt lat="39.525084530220134" lon="8.600103922264644"><ele>285.0</ele><time>2026-04-06T09:38:34.999Z</time></trkpt><trkpt lat="39.525176650373176" lon="8.600211292610245"><ele>285.0</ele><time>2026-04-06T09:38:35.999Z</time></trkpt><trkpt lat="39.52524528720872" lon="8.6002970276568"><ele>285.0</ele><time>2026-04-06T09:38:36.999Z</time></trkpt><trkpt lat="39.525266551532056" lon="8.600383396308528"><ele>285.0</ele><time>2026-04-06T09:38:37.999Z</time></trkpt><trkpt lat="39.52525785163544" lon="8.600481778983529"><ele>285.0</ele><time>2026-04-06T09:38:38.999Z</time></trkpt><trkpt lat="39.52526095664685" lon="8.600615103935429"><ele>288.5</ele><time>2026-04-06T09:38:39.999Z</time></trkpt><trkpt lat="39.52530992238096" lon="8.600767070494525"><ele>292.0</ele><time>2026-04-06T09:38:40.999Z</time></trkpt><trkpt lat="39.52539538305568" lon="8.60089663028557"><ele>295.5</ele><time>2026-04-06T09:38:41.999Z</time></trkpt><trkpt lat="39.52549831749637" lon="8.600984233824907"><ele>299.0</ele><time>2026-04-06T09:38:42.999Z</time></trkpt><trkpt lat="39.52560754073895" lon="8.601039177376235"><ele>299.4</ele><time>2026-04-06T09:38:43.999Z</time></trkpt><trkpt lat="39.525711820423325" lon="8.601101965374214"><ele>299.79999999999995</ele><time>2026-04-06T09:38:44.999Z</time></trkpt><trkpt lat="39.525803622148274" lon="8.601180556222285"><ele>300.20000000000005</ele><time>2026-04-06T09:38:45.999Z</time></trkpt><trkpt lat="39.52588154023159" lon="8.601272260472383"><ele>300.6</ele><time>2026-04-06T09:38:46.999Z</time></trkpt><trkpt lat="39.525952381563094" lon="8.601362282526946"><ele>301.0</ele><time>2026-04-06T09:38:47.999Z</time></trkpt><trkpt lat="39.52602278284989" lon="8.601441496755372"><ele>302.6</ele><time>2026-04-06T09:38:48.999Z</time></trkpt><trkpt lat="39.526073556124814" lon="8.60150517191103"><ele>304.20000000000005</ele><time>2026-04-06T09:38:49.999Z</time></trkpt><trkpt lat="39.526116418697875" lon="8.601583745930718"><ele>305.79999999999995</ele><time>2026-04-06T09:38:50.999Z</time></trkpt><trkpt lat="39.52614054672443" lon="8.60169276668245"><ele>307.4</ele><time>2026-04-06T09:38:51.999Z</time></trkpt><trkpt lat="39.526142524205866" lon="8.601828592352861"><ele>309.0</ele><time>2026-04-06T09:38:52.999Z</time></trkpt><trkpt lat="39.52615902650854" lon="8.601977064427523"><ele>309.0</ele><time>2026-04-06T09:38:53.999Z</time></trkpt><trkpt lat="39.52621242243226" lon="8.602143748231057"><ele>309.0</ele><time>2026-04-06T09:38:54.999Z</time></trkpt><trkpt lat="39.52627073023631" lon="8.602300051958826"><ele>309.0</ele><time>2026-04-06T09:38:55.999Z</time></trkpt><trkpt lat="39.526310194000686" lon="8.602418032853704"><ele>309.0</ele><time>2026-04-06T09:38:56.999Z</time></trkpt><trkpt lat="39.52633901166873" lon="8.602533777487768"><ele>309.0</ele><time>2026-04-06T09:38:57.999Z</time></trkpt><trkpt lat="39.526350959188335" lon="8.60265245090229"><ele>309.0</ele><time>2026-04-06T09:38:58.999Z</time></trkpt><trkpt lat="39.52633055506408" lon="8.602781559110184"><ele>309.0</ele><time>2026-04-06T09:38:59.999Z</time></trkpt><trkpt lat="39.52628782643271" lon="8.602916469234502"><ele>309.0</ele><time>2026-04-06T09:39:00.999Z</time></trkpt><trkpt lat="39.52622512474853" lon="8.603051803997559"><ele>309.0</ele><time>2026-04-06T09:39:01.999Z</time></trkpt><trkpt lat="39.52616125287145" lon="8.60320398680497"><ele>313.3333333333333</ele><time>2026-04-06T09:39:02.999Z</time></trkpt><trkpt lat="39.52609476008076" lon="8.603385362359997"><ele>317.66666666666663</ele><time>2026-04-06T09:39:03.999Z</time></trkpt><trkpt lat="39.526018907196125" lon="8.603585749899697"><ele>322.0</ele><time>2026-04-06T09:39:04.999Z</time></trkpt><trkpt lat="39.52595351098894" lon="8.603765200252505"><ele>322.0</ele><time>2026-04-06T09:39:05.999Z</time></trkpt><trkpt lat="39.525884576398035" lon="8.603939587207691"><ele>322.0</ele><time>2026-04-06T09:39:06.999Z</time></trkpt><trkpt lat="39.52581259255342" lon="8.604122552110741"><ele>322.0</ele><time>2026-04-06T09:39:07.999Z</time></trkpt><trkpt lat="39.52573769852826" lon="8.604309751649318"><ele>322.3333333333333</ele><time>2026-04-06T09:39:08.999Z</time></trkpt><trkpt lat="39.525669515649675" lon="8.604501265580575"><ele>322.6666666666667</ele><time>2026-04-06T09:39:09.999Z</time></trkpt><trkpt lat="39.525607100741325" lon="8.604683646541949"><ele>323.0</ele><time>2026-04-06T09:39:10.999Z</time></trkpt><trkpt lat="39.52554741464553" lon="8.60484400449717"><ele>323.0</ele><time>2026-04-06T09:39:11.999Z</time></trkpt><trkpt lat="39.52548853546112" lon="8.604987947195614"><ele>323.0</ele><time>2026-04-06T09:39:12.999Z</time></trkpt><trkpt lat="39.52544004992752" lon="8.605110335224168"><ele>323.0</ele><time>2026-04-06T09:39:13.999Z</time></trkpt><trkpt lat="39.52540747163882" lon="8.605193257338383"><ele>323.0</ele><time>2026-04-06T09:39:14.999Z</time></trkpt><trkpt lat="39.52535755340244" lon="8.605259597415598"><ele>323.0</ele><time>2026-04-06T09:39:16.999Z</time></trkpt><trkpt lat="39.525338260280655" lon="8.60533813781118"><ele>323.0</ele><time>2026-04-06T09:39:18.999Z</time></trkpt><trkpt lat="39.52536469778122" lon="8.605425766210836"><ele>324.1666666666667</ele><time>2026-04-06T09:39:20.999Z</time></trkpt><trkpt lat="39.52540074516293" lon="8.605497658899655"><ele>325.33333333333337</ele><time>2026-04-06T09:39:23.999Z</time></trkpt><trkpt lat="39.525498790529056" lon="8.605552366154983"><ele>326.5</ele><time>2026-04-06T09:39:24.999Z</time></trkpt><trkpt lat="39.52554068483272" lon="8.605629187329985"><ele>327.6666666666667</ele><time>2026-04-06T09:39:25.999Z</time></trkpt><trkpt lat="39.52559562568944" lon="8.605712302706731"><ele>328.8333333333333</ele><time>2026-04-06T09:39:26.999Z</time></trkpt><trkpt lat="39.52567516149789" lon="8.605788365276926"><ele>330.0</ele><time>2026-04-06T09:39:27.999Z</time></trkpt><trkpt lat="39.52575736528307" lon="8.60584010271487"><ele>330.0</ele><time>2026-04-06T09:39:28.999Z</time></trkpt><trkpt lat="39.525847674395266" lon="8.60587339705292"><ele>330.0</ele><time>2026-04-06T09:39:29.999Z</time></trkpt><trkpt lat="39.52595117561915" lon="8.60589207335421"><ele>330.0</ele><time>2026-04-06T09:39:30.999Z</time></trkpt><trkpt lat="39.52606682571509" lon="8.605899303071526"><ele>330.0</ele><time>2026-04-06T09:39:31.999Z</time></trkpt><trkpt lat="39.52617695147222" lon="8.605902645478107"><ele>330.0</ele><time>2026-04-06T09:39:32.999Z</time></trkpt><trkpt lat="39.52627222777241" lon="8.605886604698476"><ele>329.75</ele><time>2026-04-06T09:39:33.999Z</time></trkpt><trkpt lat="39.52635464940872" lon="8.605829090181993"><ele>329.5</ele><time>2026-04-06T09:39:34.999Z</time></trkpt><trkpt lat="39.526443924811524" lon="8.605758547062482"><ele>329.25</ele><time>2026-04-06T09:39:35.999Z</time></trkpt><trkpt lat="39.52651101867632" lon="8.605598374493024"><ele>329.0</ele><time>2026-04-06T09:39:36.999Z</time></trkpt><trkpt lat="39.526611232159" lon="8.605461946024597"><ele>327.75</ele><time>2026-04-06T09:39:37.999Z</time></trkpt><trkpt lat="39.52670082899368" lon="8.605322487232549"><ele>326.5</ele><time>2026-04-06T09:39:38.999Z</time></trkpt><trkpt lat="39.52678396696521" lon="8.6051924807977"><ele>325.25</ele><time>2026-04-06T09:39:39.999Z</time></trkpt><trkpt lat="39.526872826957764" lon="8.605053222720809"><ele>324.0</ele><time>2026-04-06T09:39:40.999Z</time></trkpt><trkpt lat="39.526949234469974" lon="8.60492843608439"><ele>324.0</ele><time>2026-04-06T09:39:41.999Z</time></trkpt><trkpt lat="39.52701510393625" lon="8.604837171143192"><ele>324.0</ele><time>2026-04-06T09:39:42.999Z</time></trkpt><trkpt lat="39.527072477375285" lon="8.604779993747593"><ele>324.0</ele><time>2026-04-06T09:39:43.999Z</time></trkpt><trkpt lat="39.52713311203148" lon="8.604753960127752"><ele>324.0</ele><time>2026-04-06T09:39:44.999Z</time></trkpt><trkpt lat="39.52719934152134" lon="8.604785246205267"><ele>324.0</ele><time>2026-04-06T09:39:45.999Z</time></trkpt><trkpt lat="39.52725821702384" lon="8.60483434156496"><ele>324.0</ele><time>2026-04-06T09:39:46.999Z</time></trkpt><trkpt lat="39.52732824242339" lon="8.604897868513156"><ele>325.5</ele><time>2026-04-06T09:39:47.999Z</time></trkpt><trkpt lat="39.527403809828066" lon="8.60495360204402"><ele>327.0</ele><time>2026-04-06T09:39:48.999Z</time></trkpt><trkpt lat="39.527478069645575" lon="8.604986919196506"><ele>328.5</ele><time>2026-04-06T09:39:49.999Z</time></trkpt><trkpt lat="39.52756156366985" lon="8.605019110615542"><ele>330.0</ele><time>2026-04-06T09:39:51.999Z</time></trkpt><trkpt lat="39.527653624992354" lon="8.604992063838788"><ele>331.5</ele><time>2026-04-06T09:40:05.999Z</time></trkpt><trkpt lat="39.52771180686943" lon="8.6049232312694"><ele>333.0</ele><time>2026-04-06T09:40:06.999Z</time></trkpt><trkpt lat="39.52775414656131" lon="8.60484975458208"><ele>333.0</ele><time>2026-04-06T09:40:07.999Z</time></trkpt><trkpt lat="39.52780975812071" lon="8.60477823645795"><ele>333.0</ele><time>2026-04-06T09:40:08.999Z</time></trkpt><trkpt lat="39.527875642377275" lon="8.604695326641924"><ele>333.0</ele><time>2026-04-06T09:40:09.999Z</time></trkpt><trkpt lat="39.52794145434864" lon="8.604614469292196"><ele>333.0</ele><time>2026-04-06T09:40:10.999Z</time></trkpt><trkpt lat="39.52800198206867" lon="8.604544915919831"><ele>333.0</ele><time>2026-04-06T09:40:11.999Z</time></trkpt><trkpt lat="39.52806186675859" lon="8.604486965870157"><ele>333.0</ele><time>2026-04-06T09:40:12.999Z</time></trkpt><trkpt lat="39.52821759026141" lon="8.604455796638623"><ele>332.79999999999995</ele><time>2026-04-06T09:40:14.999Z</time></trkpt><trkpt lat="39.52831694648264" lon="8.604436741222377"><ele>332.6</ele><time>2026-04-06T09:40:15.999Z</time></trkpt><trkpt lat="39.52841620195358" lon="8.60437876402204"><ele>332.4</ele><time>2026-04-06T09:40:16.999Z</time></trkpt><trkpt lat="39.52850082045522" lon="8.604279032748881"><ele>332.20000000000005</ele><time>2026-04-06T09:40:17.999Z</time></trkpt><trkpt lat="39.52857598408445" lon="8.604173089260975"><ele>332.0</ele><time>2026-04-06T09:40:18.999Z</time></trkpt><trkpt lat="39.52863673606993" lon="8.604046866946009"><ele>332.0</ele><time>2026-04-06T09:40:19.999Z</time></trkpt><trkpt lat="39.528703072013215" lon="8.603914819901119"><ele>332.0</ele><time>2026-04-06T09:40:20.999Z</time></trkpt><trkpt lat="39.52878232250263" lon="8.60376154044171"><ele>332.0</ele><time>2026-04-06T09:40:21.999Z</time></trkpt><trkpt lat="39.52886241964383" lon="8.603601980740912"><ele>332.0</ele><time>2026-04-06T09:40:22.999Z</time></trkpt><trkpt lat="39.528949248943654" lon="8.603427712296304"><ele>337.0</ele><time>2026-04-06T09:40:23.999Z</time></trkpt><trkpt lat="39.52901468877997" lon="8.603265997252942"><ele>342.0</ele><time>2026-04-06T09:40:24.999Z</time></trkpt><trkpt lat="39.529107449959476" lon="8.603090965567063"><ele>347.0</ele><time>2026-04-06T09:40:25.999Z</time></trkpt><trkpt lat="39.52920392615182" lon="8.602907269108197"><ele>346.25</ele><time>2026-04-06T09:40:27.999Z</time></trkpt><trkpt lat="39.529247957095016" lon="8.602760696216645"><ele>345.5</ele><time>2026-04-06T09:40:28.999Z</time></trkpt><trkpt lat="39.529265028541545" lon="8.602593682884509"><ele>344.75</ele><time>2026-04-06T09:40:29.999Z</time></trkpt><trkpt lat="39.529264023703014" lon="8.602410835136151"><ele>344.0</ele><time>2026-04-06T09:40:30.999Z</time></trkpt><trkpt lat="39.52930855096066" lon="8.602243681634477"><ele>344.0</ele><time>2026-04-06T09:40:31.999Z</time></trkpt><trkpt lat="39.52935862069689" lon="8.60212273455408"><ele>344.0</ele><time>2026-04-06T09:40:32.999Z</time></trkpt><trkpt lat="39.5294050445578" lon="8.602004723557572"><ele>344.0</ele><time>2026-04-06T09:40:33.999Z</time></trkpt><trkpt lat="39.529449313623225" lon="8.601898403203753"><ele>344.0</ele><time>2026-04-06T09:40:34.999Z</time></trkpt><trkpt lat="39.529508211418005" lon="8.601788167406355"><ele>344.0</ele><time>2026-04-06T09:40:35.999Z</time></trkpt><trkpt lat="39.5295746756209" lon="8.601679880787506"><ele>347.5</ele><time>2026-04-06T09:40:36.999Z</time></trkpt><trkpt lat="39.529638912339216" lon="8.60157791273774"><ele>351.0</ele><time>2026-04-06T09:40:37.999Z</time></trkpt><trkpt lat="39.52967424824682" lon="8.601470927630874"><ele>354.5</ele><time>2026-04-06T09:40:38.999Z</time></trkpt><trkpt lat="39.529733352929625" lon="8.60139265735519"><ele>358.0</ele><time>2026-04-06T09:40:39.999Z</time></trkpt><trkpt lat="39.529803172472384" lon="8.601326499396425"><ele>361.5</ele><time>2026-04-06T09:40:40.999Z</time></trkpt><trkpt lat="39.5298700557265" lon="8.601265783417238"><ele>365.0</ele><time>2026-04-06T09:40:41.999Z</time></trkpt><trkpt lat="39.529925125119696" lon="8.60122167202456"><ele>362.1666666666667</ele><time>2026-04-06T09:40:42.999Z</time></trkpt><trkpt lat="39.529989588261515" lon="8.601161773192269"><ele>359.33333333333337</ele><time>2026-04-06T09:40:43.999Z</time></trkpt><trkpt lat="39.53007435206997" lon="8.601129738502355"><ele>356.5</ele><time>2026-04-06T09:40:44.999Z</time></trkpt><trkpt lat="39.53014227972215" lon="8.601090652730935"><ele>353.6666666666667</ele><time>2026-04-06T09:40:45.999Z</time></trkpt><trkpt lat="39.53020419903448" lon="8.601059971270107"><ele>350.8333333333333</ele><time>2026-04-06T09:40:46.999Z</time></trkpt><trkpt lat="39.53028095214147" lon="8.601026587502618"><ele>348.0</ele><time>2026-04-06T09:40:47.999Z</time></trkpt><trkpt lat="39.53036091328083" lon="8.600995101075934"><ele>351.79999999999995</ele><time>2026-04-06T09:40:48.999Z</time></trkpt><trkpt lat="39.530450835776016" lon="8.600987923826448"><ele>355.6</ele><time>2026-04-06T09:40:49.999Z</time></trkpt><trkpt lat="39.530541991919094" lon="8.600976903019557"><ele>359.4</ele><time>2026-04-06T09:40:50.999Z</time></trkpt><trkpt lat="39.530632587960774" lon="8.600963326782663"><ele>363.20000000000005</ele><time>2026-04-06T09:40:51.999Z</time></trkpt><trkpt lat="39.530723583407" lon="8.600948794095563"><ele>367.0</ele><time>2026-04-06T09:40:52.999Z</time></trkpt><trkpt lat="39.53082260950853" lon="8.600930842762281"><ele>367.0</ele><time>2026-04-06T09:40:53.999Z</time></trkpt><trkpt lat="39.53091650801342" lon="8.600910466084663"><ele>367.0</ele><time>2026-04-06T09:40:54.999Z</time></trkpt><trkpt lat="39.53099806658771" lon="8.600895882622986"><ele>367.0</ele><time>2026-04-06T09:40:55.999Z</time></trkpt><trkpt lat="39.53107664750567" lon="8.600882108701619"><ele>367.0</ele><time>2026-04-06T09:40:56.999Z</time></trkpt><trkpt lat="39.5311595277245" lon="8.600862081315285"><ele>367.0</ele><time>2026-04-06T09:40:57.999Z</time></trkpt><trkpt lat="39.53123970714852" lon="8.60083631068337"><ele>367.0</ele><time>2026-04-06T09:40:58.999Z</time></trkpt><trkpt lat="39.53131061983176" lon="8.600799490752244"><ele>369.5</ele><time>2026-04-06T09:40:59.999Z</time></trkpt><trkpt lat="39.53138442988265" lon="8.60079395174456"><ele>372.0</ele><time>2026-04-06T09:41:00.999Z</time></trkpt><trkpt lat="39.531462121881326" lon="8.600767920758363"><ele>374.5</ele><time>2026-04-06T09:41:01.999Z</time></trkpt><trkpt lat="39.531541075544986" lon="8.600731982483014"><ele>377.0</ele><time>2026-04-06T09:41:02.999Z</time></trkpt><trkpt lat="39.531631723304685" lon="8.600700507704563"><ele>379.5</ele><time>2026-04-06T09:41:03.999Z</time></trkpt><trkpt lat="39.53171546335104" lon="8.60070556463722"><ele>382.0</ele><time>2026-04-06T09:41:04.999Z</time></trkpt><trkpt lat="39.53180370452293" lon="8.600673355039126"><ele>382.0</ele><time>2026-04-06T09:41:05.999Z</time></trkpt><trkpt lat="39.53189292732714" lon="8.600659242801335"><ele>382.0</ele><time>2026-04-06T09:41:06.999Z</time></trkpt><trkpt lat="39.53198095637145" lon="8.600643786616393"><ele>382.0</ele><time>2026-04-06T09:41:07.999Z</time></trkpt><trkpt lat="39.532071879344635" lon="8.600631091971476"><ele>382.0</ele><time>2026-04-06T09:41:08.999Z</time></trkpt><trkpt lat="39.53216406864422" lon="8.600624787854361"><ele>382.0</ele><time>2026-04-06T09:41:09.999Z</time></trkpt><trkpt lat="39.53225592827283" lon="8.600636776409965"><ele>383.5</ele><time>2026-04-06T09:41:10.999Z</time></trkpt><trkpt lat="39.53236343872742" lon="8.60066142354423"><ele>385.0</ele><time>2026-04-06T09:41:11.999Z</time></trkpt><trkpt lat="39.53248517771678" lon="8.600706140279136"><ele>386.5</ele><time>2026-04-06T09:41:12.999Z</time></trkpt><trkpt lat="39.53261609981246" lon="8.600795247542239"><ele>388.0</ele><time>2026-04-06T09:41:13.999Z</time></trkpt><trkpt lat="39.532765705409126" lon="8.600830323468871"><ele>387.33333333333337</ele><time>2026-04-06T09:41:14.999Z</time></trkpt><trkpt lat="39.532924553653274" lon="8.600859882649907"><ele>386.66666666666663</ele><time>2026-04-06T09:41:15.999Z</time></trkpt><trkpt lat="39.533094355229984" lon="8.60090870675521"><ele>386.0</ele><time>2026-04-06T09:41:16.999Z</time></trkpt><trkpt lat="39.53325491475087" lon="8.600975838126457"><ele>386.0</ele><time>2026-04-06T09:41:17.999Z</time></trkpt><trkpt lat="39.53344233145381" lon="8.601081626491148"><ele>386.0</ele><time>2026-04-06T09:41:18.999Z</time></trkpt><trkpt lat="39.533613841996214" lon="8.601179764580696"><ele>386.0</ele><time>2026-04-06T09:41:19.999Z</time></trkpt><trkpt lat="39.53379750354775" lon="8.601264446762883"><ele>394.0</ele><time>2026-04-06T09:41:20.999Z</time></trkpt><trkpt lat="39.53397493743901" lon="8.601379060313597"><ele>402.0</ele><time>2026-04-06T09:41:21.999Z</time></trkpt><trkpt lat="39.53416589882089" lon="8.601490477404834"><ele>410.0</ele><time>2026-04-06T09:41:22.999Z</time></trkpt><trkpt lat="39.534331626469935" lon="8.601583149856243"><ele>410.0</ele><time>2026-04-06T09:41:23.999Z</time></trkpt><trkpt lat="39.53447996575785" lon="8.601674750041775"><ele>410.0</ele><time>2026-04-06T09:41:24.999Z</time></trkpt><trkpt lat="39.534620709374565" lon="8.60177928897718"><ele>410.0</ele><time>2026-04-06T09:41:25.999Z</time></trkpt><trkpt lat="39.534763525206884" lon="8.601913311582223"><ele>413.0</ele><time>2026-04-06T09:41:26.999Z</time></trkpt><trkpt lat="39.53490088584986" lon="8.602070117948635"><ele>416.0</ele><time>2026-04-06T09:41:27.999Z</time></trkpt><trkpt lat="39.53504088430839" lon="8.602232732492578"><ele>419.0</ele><time>2026-04-06T09:41:28.999Z</time></trkpt><trkpt lat="39.53515586072572" lon="8.602383718202972"><ele>419.0</ele><time>2026-04-06T09:41:29.999Z</time></trkpt><trkpt lat="39.535255376698736" lon="8.602508116739864"><ele>419.0</ele><time>2026-04-06T09:41:30.999Z</time></trkpt><trkpt lat="39.53535821806363" lon="8.602599149282085"><ele>419.0</ele><time>2026-04-06T09:41:31.999Z</time></trkpt><trkpt lat="39.53549747504405" lon="8.602635292593185"><ele>419.0</ele><time>2026-04-06T09:41:32.999Z</time></trkpt><trkpt lat="39.53565164801581" lon="8.602636796045273"><ele>415.3333333333333</ele><time>2026-04-06T09:41:33.999Z</time></trkpt><trkpt lat="39.5358074080782" lon="8.602688854459819"><ele>411.66666666666663</ele><time>2026-04-06T09:41:34.999Z</time></trkpt><trkpt lat="39.53596489634659" lon="8.602766820864568"><ele>408.0</ele><time>2026-04-06T09:41:35.999Z</time></trkpt><trkpt lat="39.53612478988782" lon="8.602875900071059"><ele>416.66666666666663</ele><time>2026-04-06T09:41:36.999Z</time></trkpt><trkpt lat="39.536279880342065" lon="8.602973453861543"><ele>425.3333333333333</ele><time>2026-04-06T09:41:37.999Z</time></trkpt><trkpt lat="39.5364134395112" lon="8.603054098534848"><ele>434.0</ele><time>2026-04-06T09:41:38.999Z</time></trkpt><trkpt lat="39.536548059527505" lon="8.603101800504605"><ele>434.0</ele><time>2026-04-06T09:41:39.999Z</time></trkpt><trkpt lat="39.53667218708923" lon="8.603102346173651"><ele>434.0</ele><time>2026-04-06T09:41:40.999Z</time></trkpt><trkpt lat="39.53680775380707" lon="8.603040566831758"><ele>434.0</ele><time>2026-04-06T09:41:41.999Z</time></trkpt><trkpt lat="39.536946028281754" lon="8.60293455499976"><ele>434.0</ele><time>2026-04-06T09:41:42.999Z</time></trkpt><trkpt lat="39.53709966552689" lon="8.602803511766496"><ele>431.0</ele><time>2026-04-06T09:41:43.999Z</time></trkpt><trkpt lat="39.53728373656812" lon="8.602716694890237"><ele>428.0</ele><time>2026-04-06T09:41:44.999Z</time></trkpt><trkpt lat="39.53748498423546" lon="8.60265297912099"><ele>425.0</ele><time>2026-04-06T09:41:45.999Z</time></trkpt><trkpt lat="39.53767026621362" lon="8.60258379191541"><ele>425.0</ele><time>2026-04-06T09:41:46.999Z</time></trkpt><trkpt lat="39.53784234932464" lon="8.602477662248889"><ele>425.0</ele><time>2026-04-06T09:41:47.999Z</time></trkpt><trkpt lat="39.53802450823036" lon="8.60239044163999"><ele>425.0</ele><time>2026-04-06T09:41:48.999Z</time></trkpt><trkpt lat="39.53820932776665" lon="8.602301336251013"><ele>431.3333333333333</ele><time>2026-04-06T09:41:49.999Z</time></trkpt><trkpt lat="39.5383802501798" lon="8.602231622325192"><ele>437.66666666666663</ele><time>2026-04-06T09:41:50.999Z</time></trkpt><trkpt lat="39.538560944369394" lon="8.602204665460569"><ele>444.0</ele><time>2026-04-06T09:41:51.999Z</time></trkpt><trkpt lat="39.53875144776244" lon="8.60219856597672"><ele>447.0</ele><time>2026-04-06T09:41:52.999Z</time></trkpt><trkpt lat="39.53894607520678" lon="8.602167638998878"><ele>450.0</ele><time>2026-04-06T09:41:53.999Z</time></trkpt><trkpt lat="39.53914001025354" lon="8.602131719260907"><ele>453.0</ele><time>2026-04-06T09:41:54.999Z</time></trkpt><trkpt lat="39.539319193289415" lon="8.602060183767941"><ele>446.33333333333337</ele><time>2026-04-06T09:41:55.999Z</time></trkpt><trkpt lat="39.53947959421386" lon="8.601982995780437"><ele>439.6666666666667</ele><time>2026-04-06T09:41:56.999Z</time></trkpt><trkpt lat="39.53963491465181" lon="8.601876963373295"><ele>433.0</ele><time>2026-04-06T09:41:57.999Z</time></trkpt><trkpt lat="39.53981380326371" lon="8.601846221846516"><ele>433.0</ele><time>2026-04-06T09:41:58.999Z</time></trkpt><trkpt lat="39.54001227557158" lon="8.601817917808773"><ele>433.0</ele><time>2026-04-06T09:41:59.999Z</time></trkpt><trkpt lat="39.540212373618914" lon="8.60177252070598"><ele>433.0</ele><time>2026-04-06T09:42:00.999Z</time></trkpt><trkpt lat="39.54041237126775" lon="8.601717291559952"><ele>435.6666666666667</ele><time>2026-04-06T09:42:01.999Z</time></trkpt><trkpt lat="39.54059830821068" lon="8.601676654589559"><ele>438.33333333333337</ele><time>2026-04-06T09:42:02.999Z</time></trkpt><trkpt lat="39.54077023639669" lon="8.60166443445436"><ele>441.0</ele><time>2026-04-06T09:42:03.999Z</time></trkpt><trkpt lat="39.54093977115999" lon="8.60168865006191"><ele>441.0</ele><time>2026-04-06T09:42:04.999Z</time></trkpt><trkpt lat="39.54112645611283" lon="8.601734150045004"><ele>441.0</ele><time>2026-04-06T09:42:05.999Z</time></trkpt><trkpt lat="39.54132015125978" lon="8.601793375495253"><ele>441.0</ele><time>2026-04-06T09:42:06.999Z</time></trkpt><trkpt lat="39.54152464226275" lon="8.601848714249384"><ele>443.0</ele><time>2026-04-06T09:42:07.999Z</time></trkpt><trkpt lat="39.5417276805903" lon="8.601941749942439"><ele>445.0</ele><time>2026-04-06T09:42:08.999Z</time></trkpt><trkpt lat="39.54193984235184" lon="8.602018170659672"><ele>447.0</ele><time>2026-04-06T09:42:09.999Z</time></trkpt><trkpt lat="39.54215988122919" lon="8.602072932902596"><ele>453.33333333333337</ele><time>2026-04-06T09:42:10.999Z</time></trkpt><trkpt lat="39.54238615101206" lon="8.602108791428066"><ele>459.6666666666667</ele><time>2026-04-06T09:42:11.999Z</time></trkpt><trkpt lat="39.54259732421978" lon="8.602138304115561"><ele>466.0</ele><time>2026-04-06T09:42:12.999Z</time></trkpt><trkpt lat="39.54278866713767" lon="8.602137448504937"><ele>465.25</ele><time>2026-04-06T09:42:13.999Z</time></trkpt><trkpt lat="39.542951044327054" lon="8.602090456502314"><ele>464.5</ele><time>2026-04-06T09:42:14.999Z</time></trkpt><trkpt lat="39.54309896022663" lon="8.60206272637357"><ele>463.75</ele><time>2026-04-06T09:42:15.999Z</time></trkpt><trkpt lat="39.54322701496438" lon="8.602032849339166"><ele>463.0</ele><time>2026-04-06T09:42:16.999Z</time></trkpt><trkpt lat="39.54334005815926" lon="8.601975748448274"><ele>463.0</ele><time>2026-04-06T09:42:17.999Z</time></trkpt><trkpt lat="39.54344300468375" lon="8.601872558497826"><ele>463.0</ele><time>2026-04-06T09:42:18.999Z</time></trkpt><trkpt lat="39.54352934547435" lon="8.601722335131267"><ele>463.0</ele><time>2026-04-06T09:42:19.999Z</time></trkpt><trkpt lat="39.54358961328685" lon="8.601541068335129"><ele>463.0</ele><time>2026-04-06T09:42:20.999Z</time></trkpt><trkpt lat="39.54363907041457" lon="8.601368530844185"><ele>457.5</ele><time>2026-04-06T09:42:21.999Z</time></trkpt><trkpt lat="39.54373348469763" lon="8.60125919395126"><ele>452.0</ele><time>2026-04-06T09:42:22.999Z</time></trkpt><trkpt lat="39.54383674669798" lon="8.601184284856446"><ele>446.5</ele><time>2026-04-06T09:42:23.999Z</time></trkpt><trkpt lat="39.54396089783816" lon="8.60119507111564"><ele>441.0</ele><time>2026-04-06T09:42:24.999Z</time></trkpt><trkpt lat="39.544099630796836" lon="8.601192809416043"><ele>441.0</ele><time>2026-04-06T09:42:25.999Z</time></trkpt><trkpt lat="39.54422541190108" lon="8.601210386034712"><ele>441.0</ele><time>2026-04-06T09:42:26.999Z</time></trkpt><trkpt lat="39.544330428573126" lon="8.60115951704888"><ele>441.0</ele><time>2026-04-06T09:42:27.999Z</time></trkpt><trkpt lat="39.54440513452121" lon="8.601051408182059"><ele>441.0</ele><time>2026-04-06T09:42:28.999Z</time></trkpt><trkpt lat="39.54444526359232" lon="8.600901279886989"><ele>446.66666666666663</ele><time>2026-04-06T09:42:29.999Z</time></trkpt><trkpt lat="39.54445119742834" lon="8.600717187005866"><ele>452.3333333333333</ele><time>2026-04-06T09:42:30.999Z</time></trkpt><trkpt lat="39.54442858609301" lon="8.6005069439381"><ele>458.0</ele><time>2026-04-06T09:42:31.999Z</time></trkpt><trkpt lat="39.5444359759277" lon="8.600270398056274"><ele>461.3333333333333</ele><time>2026-04-06T09:42:32.999Z</time></trkpt><trkpt lat="39.544434461607025" lon="8.6000136566521"><ele>464.66666666666663</ele><time>2026-04-06T09:42:33.999Z</time></trkpt><trkpt lat="39.54444067666396" lon="8.599747331673864"><ele>468.0</ele><time>2026-04-06T09:42:34.999Z</time></trkpt><trkpt lat="39.54447366927888" lon="8.599505476176796"><ele>469.66666666666663</ele><time>2026-04-06T09:42:35.999Z</time></trkpt><trkpt lat="39.54450941323862" lon="8.599278714358638"><ele>471.3333333333333</ele><time>2026-04-06T09:42:36.999Z</time></trkpt><trkpt lat="39.54454315038909" lon="8.599073763484226"><ele>473.0</ele><time>2026-04-06T09:42:37.999Z</time></trkpt><trkpt lat="39.54458148523018" lon="8.598899360397668"><ele>468.75</ele><time>2026-04-06T09:42:38.999Z</time></trkpt><trkpt lat="39.54466006512315" lon="8.598760813790546"><ele>464.5</ele><time>2026-04-06T09:42:39.999Z</time></trkpt><trkpt lat="39.544765374267044" lon="8.598663912617576"><ele>460.25</ele><time>2026-04-06T09:42:40.999Z</time></trkpt><trkpt lat="39.54487013439301" lon="8.598596575971518"><ele>456.0</ele><time>2026-04-06T09:42:41.999Z</time></trkpt><trkpt lat="39.54498235948761" lon="8.598587265519603"><ele>456.0</ele><time>2026-04-06T09:42:42.999Z</time></trkpt><trkpt lat="39.545089192616025" lon="8.59864606652218"><ele>456.0</ele><time>2026-04-06T09:42:43.999Z</time></trkpt><trkpt lat="39.54521224728986" lon="8.59871145234189"><ele>456.0</ele><time>2026-04-06T09:42:44.999Z</time></trkpt><trkpt lat="39.545323788431006" lon="8.598766876557608"><ele>456.0</ele><time>2026-04-06T09:42:45.999Z</time></trkpt><trkpt lat="39.54544135337591" lon="8.59875802757444"><ele>449.5</ele><time>2026-04-06T09:42:46.999Z</time></trkpt><trkpt lat="39.54556284453277" lon="8.598682144218126"><ele>443.0</ele><time>2026-04-06T09:42:47.999Z</time></trkpt><trkpt lat="39.54567884330959" lon="8.598561510488505"><ele>436.5</ele><time>2026-04-06T09:42:48.999Z</time></trkpt><trkpt lat="39.54578214208095" lon="8.598433863852895"><ele>430.0</ele><time>2026-04-06T09:42:49.999Z</time></trkpt><trkpt lat="39.545854329215004" lon="8.598303876130068"><ele>430.0</ele><time>2026-04-06T09:42:50.999Z</time></trkpt><trkpt lat="39.54588817481685" lon="8.598153793931683"><ele>430.0</ele><time>2026-04-06T09:42:51.999Z</time></trkpt><trkpt lat="39.54588899420223" lon="8.59796710750278"><ele>430.0</ele><time>2026-04-06T09:42:52.999Z</time></trkpt><trkpt lat="39.545871640256244" lon="8.597764927997448"><ele>430.0</ele><time>2026-04-06T09:42:53.999Z</time></trkpt><trkpt lat="39.54588581949256" lon="8.597583748508383"><ele>431.8</ele><time>2026-04-06T09:42:54.999Z</time></trkpt><trkpt lat="39.545886744921795" lon="8.597437202608825"><ele>433.6</ele><time>2026-04-06T09:42:55.999Z</time></trkpt><trkpt lat="39.54590332978288" lon="8.597326360225944"><ele>435.4</ele><time>2026-04-06T09:42:56.999Z</time></trkpt><trkpt lat="39.54594682952075" lon="8.597233700753778"><ele>437.2</ele><time>2026-04-06T09:42:57.999Z</time></trkpt><trkpt lat="39.54601678706511" lon="8.597162831023619"><ele>439.0</ele><time>2026-04-06T09:42:58.999Z</time></trkpt><trkpt lat="39.54610776747772" lon="8.597099348937428"><ele>431.5</ele><time>2026-04-06T09:42:59.999Z</time></trkpt><trkpt lat="39.5462295394639" lon="8.597108224407233"><ele>424.0</ele><time>2026-04-06T09:43:00.999Z</time></trkpt><trkpt lat="39.546352527867356" lon="8.597078899146327"><ele>416.5</ele><time>2026-04-06T09:43:01.999Z</time></trkpt><trkpt lat="39.54646962701833" lon="8.597063060241961"><ele>409.0</ele><time>2026-04-06T09:43:02.999Z</time></trkpt><trkpt lat="39.546577493857306" lon="8.597037084791754"><ele>415.5</ele><time>2026-04-06T09:43:03.999Z</time></trkpt><trkpt lat="39.54667772933997" lon="8.596997729374264"><ele>422.0</ele><time>2026-04-06T09:43:04.999Z</time></trkpt><trkpt lat="39.54677332367028" lon="8.596932529081306"><ele>428.5</ele><time>2026-04-06T09:43:05.999Z</time></trkpt><trkpt lat="39.54686622939473" lon="8.596827671526698"><ele>435.0</ele><time>2026-04-06T09:43:06.999Z</time></trkpt><trkpt lat="39.54695123976362" lon="8.596688544581372"><ele>435.0</ele><time>2026-04-06T09:43:07.999Z</time></trkpt><trkpt lat="39.54702815774706" lon="8.596554824635264"><ele>435.0</ele><time>2026-04-06T09:43:08.999Z</time></trkpt><trkpt lat="39.54713385628219" lon="8.596498317349997"><ele>435.0</ele><time>2026-04-06T09:43:09.999Z</time></trkpt><trkpt lat="39.54724390274274" lon="8.59647275533512"><ele>435.0</ele><time>2026-04-06T09:43:10.999Z</time></trkpt><trkpt lat="39.54735976731299" lon="8.596554545074998"><ele>430.25</ele><time>2026-04-06T09:43:11.999Z</time></trkpt><trkpt lat="39.547482527360785" lon="8.596605209001327"><ele>425.5</ele><time>2026-04-06T09:43:12.999Z</time></trkpt><trkpt lat="39.54761143584138" lon="8.596661939809652"><ele>420.75</ele><time>2026-04-06T09:43:13.999Z</time></trkpt><trkpt lat="39.54772836112656" lon="8.596688854630242"><ele>416.0</ele><time>2026-04-06T09:43:14.999Z</time></trkpt><trkpt lat="39.547839287943695" lon="8.596672376707795"><ele>417.0</ele><time>2026-04-06T09:43:15.999Z</time></trkpt><trkpt lat="39.54795442469975" lon="8.596594909304342"><ele>418.0</ele><time>2026-04-06T09:43:16.999Z</time></trkpt><trkpt lat="39.5480774270515" lon="8.596469487062798"><ele>419.0</ele><time>2026-04-06T09:43:17.999Z</time></trkpt><trkpt lat="39.54818561098637" lon="8.596324030516193"><ele>420.0</ele><time>2026-04-06T09:43:18.999Z</time></trkpt><trkpt lat="39.54828824321643" lon="8.596160938400303"><ele>420.0</ele><time>2026-04-06T09:43:19.999Z</time></trkpt><trkpt lat="39.5483762817923" lon="8.595963135371358"><ele>420.0</ele><time>2026-04-06T09:43:20.999Z</time></trkpt><trkpt lat="39.54847807182665" lon="8.595781248684501"><ele>420.0</ele><time>2026-04-06T09:43:21.999Z</time></trkpt><trkpt lat="39.54861346047125" lon="8.595627459586874"><ele>417.66666666666663</ele><time>2026-04-06T09:43:22.999Z</time></trkpt><trkpt lat="39.54877692573239" lon="8.595502963911708"><ele>415.3333333333333</ele><time>2026-04-06T09:43:23.999Z</time></trkpt><trkpt lat="39.548946530381" lon="8.595374064284906"><ele>413.0</ele><time>2026-04-06T09:43:24.999Z</time></trkpt><trkpt lat="39.54910856094102" lon="8.595242058042198"><ele>413.0</ele><time>2026-04-06T09:43:25.999Z</time></trkpt><trkpt lat="39.54926550254135" lon="8.595113532901967"><ele>413.0</ele><time>2026-04-06T09:43:26.999Z</time></trkpt><trkpt lat="39.5494512110563" lon="8.594978182079299"><ele>413.0</ele><time>2026-04-06T09:43:27.999Z</time></trkpt><trkpt lat="39.5496159382608" lon="8.594744766484586"><ele>411.0</ele><time>2026-04-06T09:43:28.999Z</time></trkpt><trkpt lat="39.549811520273366" lon="8.594546333975202"><ele>409.0</ele><time>2026-04-06T09:43:29.999Z</time></trkpt><trkpt lat="39.55001098410386" lon="8.594372792223767"><ele>409.0</ele><time>2026-04-06T09:43:30.999Z</time></trkpt><trkpt lat="39.550190347802406" lon="8.594196242199835"><ele>409.0</ele><time>2026-04-06T09:43:31.999Z</time></trkpt><trkpt lat="39.550356885156766" lon="8.5940642462743"><ele>409.0</ele><time>2026-04-06T09:43:32.999Z</time></trkpt><trkpt lat="39.550486351023615" lon="8.59393411861033"><ele>404.75</ele><time>2026-04-06T09:43:33.999Z</time></trkpt><trkpt lat="39.55058857860869" lon="8.593792610055221"><ele>400.5</ele><time>2026-04-06T09:43:34.999Z</time></trkpt><trkpt lat="39.55066531637121" lon="8.593623863239934"><ele>396.25</ele><time>2026-04-06T09:43:35.999Z</time></trkpt><trkpt lat="39.55070999286556" lon="8.593445468068417"><ele>392.0</ele><time>2026-04-06T09:43:36.999Z</time></trkpt><trkpt lat="39.55072673241731" lon="8.593260145165306"><ele>392.0</ele><time>2026-04-06T09:43:37.999Z</time></trkpt><trkpt lat="39.55072101657119" lon="8.593054263516892"><ele>392.0</ele><time>2026-04-06T09:43:38.999Z</time></trkpt><trkpt lat="39.55070998647729" lon="8.592826455224404"><ele>392.0</ele><time>2026-04-06T09:43:39.999Z</time></trkpt><trkpt lat="39.55070579963386" lon="8.59258303790913"><ele>392.66666666666663</ele><time>2026-04-06T09:43:40.999Z</time></trkpt><trkpt lat="39.55069113114583" lon="8.592355286380572"><ele>393.33333333333337</ele><time>2026-04-06T09:43:41.999Z</time></trkpt><trkpt lat="39.550647274907185" lon="8.592148028622006"><ele>394.0</ele><time>2026-04-06T09:43:42.999Z</time></trkpt><trkpt lat="39.550566064483554" lon="8.591940670434607"><ele>389.6666666666667</ele><time>2026-04-06T09:43:43.999Z</time></trkpt><trkpt lat="39.55045395007933" lon="8.591735153486136"><ele>385.33333333333337</ele><time>2026-04-06T09:43:44.999Z</time></trkpt><trkpt lat="39.550319631866905" lon="8.591528452037961"><ele>381.0</ele><time>2026-04-06T09:43:45.999Z</time></trkpt><trkpt lat="39.55017128277966" lon="8.591326178141703"><ele>385.0</ele><time>2026-04-06T09:43:46.999Z</time></trkpt><trkpt lat="39.550001048574" lon="8.591145919547188"><ele>389.0</ele><time>2026-04-06T09:43:47.999Z</time></trkpt><trkpt lat="39.54985081614074" lon="8.590981169742676"><ele>393.0</ele><time>2026-04-06T09:43:48.999Z</time></trkpt><trkpt lat="39.54972468468425" lon="8.590851745444102"><ele>393.0</ele><time>2026-04-06T09:43:49.999Z</time></trkpt><trkpt lat="39.549632244645956" lon="8.59072630196476"><ele>393.0</ele><time>2026-04-06T09:43:50.999Z</time></trkpt><trkpt lat="39.549586699290934" lon="8.590575271512682"><ele>393.0</ele><time>2026-04-06T09:43:51.999Z</time></trkpt><trkpt lat="39.54958945302418" lon="8.590402070528736"><ele>393.0</ele><time>2026-04-06T09:43:52.999Z</time></trkpt><trkpt lat="39.549588161721815" lon="8.59022246320186"><ele>392.5</ele><time>2026-04-06T09:43:53.999Z</time></trkpt><trkpt lat="39.54960610746601" lon="8.590074082357692"><ele>392.0</ele><time>2026-04-06T09:43:54.999Z</time></trkpt><trkpt lat="39.54965746073989" lon="8.58994806892099"><ele>391.5</ele><time>2026-04-06T09:43:55.999Z</time></trkpt><trkpt lat="39.549735294870786" lon="8.589840704383489"><ele>391.0</ele><time>2026-04-06T09:43:56.999Z</time></trkpt><trkpt lat="39.54986864808132" lon="8.589810329901523"><ele>391.0</ele><time>2026-04-06T09:43:57.999Z</time></trkpt><trkpt lat="39.54999842905024" lon="8.58972361598652"><ele>391.0</ele><time>2026-04-06T09:43:58.999Z</time></trkpt><trkpt lat="39.55009171838327" lon="8.589595500925922"><ele>391.0</ele><time>2026-04-06T09:43:59.999Z</time></trkpt><trkpt lat="39.55013893929003" lon="8.589423522257745"><ele>391.0</ele><time>2026-04-06T09:44:00.999Z</time></trkpt><trkpt lat="39.550184342062444" lon="8.58924186776367"><ele>389.75</ele><time>2026-04-06T09:44:01.999Z</time></trkpt><trkpt lat="39.55025835426432" lon="8.58910523620583"><ele>388.5</ele><time>2026-04-06T09:44:02.999Z</time></trkpt><trkpt lat="39.55037184093166" lon="8.589023263818234"><ele>387.25</ele><time>2026-04-06T09:44:03.999Z</time></trkpt><trkpt lat="39.55052353152171" lon="8.589033296240945"><ele>386.0</ele><time>2026-04-06T09:44:04.999Z</time></trkpt><trkpt lat="39.55068941476118" lon="8.589006926317895"><ele>386.0</ele><time>2026-04-06T09:44:05.999Z</time></trkpt><trkpt lat="39.550867135375476" lon="8.589017939219996"><ele>386.0</ele><time>2026-04-06T09:44:06.999Z</time></trkpt><trkpt lat="39.55103439929676" lon="8.589008588339055"><ele>386.0</ele><time>2026-04-06T09:44:07.999Z</time></trkpt><trkpt lat="39.55118796895141" lon="8.588967542715826"><ele>384.5</ele><time>2026-04-06T09:44:08.999Z</time></trkpt><trkpt lat="39.551331942078406" lon="8.588886596704906"><ele>383.0</ele><time>2026-04-06T09:44:09.999Z</time></trkpt><trkpt lat="39.55144925300896" lon="8.588769183543306"><ele>381.5</ele><time>2026-04-06T09:44:10.999Z</time></trkpt><trkpt lat="39.55152528866528" lon="8.588624886835703"><ele>380.0</ele><time>2026-04-06T09:44:11.999Z</time></trkpt><trkpt lat="39.55155878830302" lon="8.588453774145524"><ele>380.0</ele><time>2026-04-06T09:44:12.999Z</time></trkpt><trkpt lat="39.551563360050146" lon="8.58825685505391"><ele>380.0</ele><time>2026-04-06T09:44:13.999Z</time></trkpt><trkpt lat="39.55154285578141" lon="8.588070771839853"><ele>380.0</ele><time>2026-04-06T09:44:14.999Z</time></trkpt><trkpt lat="39.55148661798641" lon="8.587909318124545"><ele>380.0</ele><time>2026-04-06T09:44:15.999Z</time></trkpt><trkpt lat="39.5513820228549" lon="8.587774556315154"><ele>375.6666666666667</ele><time>2026-04-06T09:44:16.999Z</time></trkpt><trkpt lat="39.55123922645245" lon="8.587659033163972"><ele>371.3333333333333</ele><time>2026-04-06T09:44:17.999Z</time></trkpt><trkpt lat="39.551104801990846" lon="8.58751569912579"><ele>367.0</ele><time>2026-04-06T09:44:18.999Z</time></trkpt><trkpt lat="39.55097720607718" lon="8.58738402408293"><ele>374.40000000000003</ele><time>2026-04-06T09:44:19.999Z</time></trkpt><trkpt lat="39.5508824724337" lon="8.58726419013473"><ele>381.8</ele><time>2026-04-06T09:44:20.999Z</time></trkpt><trkpt lat="39.5508206330911" lon="8.587142557683228"><ele>389.2</ele><time>2026-04-06T09:44:21.999Z</time></trkpt><trkpt lat="39.55080535679297" lon="8.587013132378665"><ele>396.6</ele><time>2026-04-06T09:44:22.999Z</time></trkpt><trkpt lat="39.55083545519786" lon="8.586891069104995"><ele>404.0</ele><time>2026-04-06T09:44:23.999Z</time></trkpt><trkpt lat="39.550924932499846" lon="8.586800196053956"><ele>404.0</ele><time>2026-04-06T09:44:24.999Z</time></trkpt><trkpt lat="39.55103298388741" lon="8.586678390600165"><ele>404.0</ele><time>2026-04-06T09:44:25.999Z</time></trkpt><trkpt lat="39.55111276254573" lon="8.586541853959636"><ele>404.0</ele><time>2026-04-06T09:44:26.999Z</time></trkpt><trkpt lat="39.55117379309643" lon="8.586348685441033"><ele>404.0</ele><time>2026-04-06T09:44:27.999Z</time></trkpt><trkpt lat="39.55121639531822" lon="8.586118770194831"><ele>393.3333333333333</ele><time>2026-04-06T09:44:28.999Z</time></trkpt><trkpt lat="39.551263057133326" lon="8.58588106368406"><ele>382.66666666666663</ele><time>2026-04-06T09:44:29.999Z</time></trkpt><trkpt lat="39.55128668780644" lon="8.585631137164036"><ele>372.0</ele><time>2026-04-06T09:44:30.999Z</time></trkpt><trkpt lat="39.55130045847783" lon="8.585376747303199"><ele>372.3333333333333</ele><time>2026-04-06T09:44:31.999Z</time></trkpt><trkpt lat="39.55129685192085" lon="8.585132445727448"><ele>372.66666666666663</ele><time>2026-04-06T09:44:32.999Z</time></trkpt><trkpt lat="39.55127453222288" lon="8.584906719427774"><ele>373.0</ele><time>2026-04-06T09:44:33.999Z</time></trkpt><trkpt lat="39.55121740061206" lon="8.58468672961637"><ele>381.0</ele><time>2026-04-06T09:44:34.999Z</time></trkpt><trkpt lat="39.551128505427755" lon="8.584476369124545"><ele>389.0</ele><time>2026-04-06T09:44:35.999Z</time></trkpt><trkpt lat="39.551032637537226" lon="8.584261247629964"><ele>397.0</ele><time>2026-04-06T09:44:36.999Z</time></trkpt><trkpt lat="39.55089711822044" lon="8.58408795233903"><ele>397.0</ele><time>2026-04-06T09:44:37.999Z</time></trkpt><trkpt lat="39.55075796500994" lon="8.583954785416767"><ele>397.0</ele><time>2026-04-06T09:44:38.999Z</time></trkpt><trkpt lat="39.55064411496437" lon="8.583839961461539"><ele>397.0</ele><time>2026-04-06T09:44:39.999Z</time></trkpt><trkpt lat="39.55058464951683" lon="8.583700361418991"><ele>397.0</ele><time>2026-04-06T09:44:40.999Z</time></trkpt><trkpt lat="39.5505544811593" lon="8.583548581110962"><ele>395.0</ele><time>2026-04-06T09:44:41.999Z</time></trkpt><trkpt lat="39.550536625739376" lon="8.583394827842795"><ele>393.0</ele><time>2026-04-06T09:44:42.999Z</time></trkpt><trkpt lat="39.55053139738887" lon="8.583248673780068"><ele>391.0</ele><time>2026-04-06T09:44:43.999Z</time></trkpt><trkpt lat="39.55058885192733" lon="8.583125117930148"><ele>389.0</ele><time>2026-04-06T09:44:44.999Z</time></trkpt><trkpt lat="39.55068549608787" lon="8.58304030444814"><ele>389.0</ele><time>2026-04-06T09:44:45.999Z</time></trkpt><trkpt lat="39.550806673505434" lon="8.58302308994851"><ele>389.0</ele><time>2026-04-06T09:44:46.999Z</time></trkpt><trkpt lat="39.5509406839089" lon="8.583050713140517"><ele>389.0</ele><time>2026-04-06T09:44:47.999Z</time></trkpt><trkpt lat="39.5510893541177" lon="8.583084412286171"><ele>389.0</ele><time>2026-04-06T09:44:48.999Z</time></trkpt><trkpt lat="39.551258879145834" lon="8.58310001729614"><ele>385.3333333333333</ele><time>2026-04-06T09:44:49.999Z</time></trkpt><trkpt lat="39.551436669949105" lon="8.583095812393921"><ele>381.66666666666663</ele><time>2026-04-06T09:44:50.999Z</time></trkpt><trkpt lat="39.55163396296076" lon="8.58308085629536"><ele>378.0</ele><time>2026-04-06T09:44:51.999Z</time></trkpt><trkpt lat="39.55181343167047" lon="8.583085656410603"><ele>378.0</ele><time>2026-04-06T09:44:52.999Z</time></trkpt><trkpt lat="39.55198905247477" lon="8.583127517932235"><ele>378.0</ele><time>2026-04-06T09:44:53.999Z</time></trkpt><trkpt lat="39.55215724554489" lon="8.58316924239598"><ele>378.0</ele><time>2026-04-06T09:44:54.999Z</time></trkpt><trkpt lat="39.55232052579984" lon="8.583162505156416"><ele>376.0</ele><time>2026-04-06T09:44:55.999Z</time></trkpt><trkpt lat="39.55243606787693" lon="8.58308985241565"><ele>374.0</ele><time>2026-04-06T09:44:56.999Z</time></trkpt><trkpt lat="39.552586417351534" lon="8.583028077696927"><ele>372.0</ele><time>2026-04-06T09:44:57.999Z</time></trkpt><trkpt lat="39.55272153781587" lon="8.582981376982584"><ele>370.0</ele><time>2026-04-06T09:44:58.999Z</time></trkpt><trkpt lat="39.55282828099306" lon="8.58292710924764"><ele>369.25</ele><time>2026-04-06T09:44:59.999Z</time></trkpt><trkpt lat="39.55291513763124" lon="8.582838570714951"><ele>368.5</ele><time>2026-04-06T09:45:00.999Z</time></trkpt><trkpt lat="39.55297425275924" lon="8.582711268186983"><ele>367.75</ele><time>2026-04-06T09:45:01.999Z</time></trkpt><trkpt lat="39.552996775022216" lon="8.582559677555189"><ele>367.0</ele><time>2026-04-06T09:45:02.999Z</time></trkpt><trkpt lat="39.5529728454916" lon="8.582376627391438"><ele>367.0</ele><time>2026-04-06T09:45:03.999Z</time></trkpt><trkpt lat="39.552947379900125" lon="8.58216996624346"><ele>367.0</ele><time>2026-04-06T09:45:04.999Z</time></trkpt><trkpt lat="39.552904591309186" lon="8.581948913390557"><ele>367.0</ele><time>2026-04-06T09:45:05.999Z</time></trkpt><trkpt lat="39.55286374685109" lon="8.58171374351583"><ele>365.3333333333333</ele><time>2026-04-06T09:45:06.999Z</time></trkpt><trkpt lat="39.55285185654436" lon="8.581481493214286"><ele>363.6666666666667</ele><time>2026-04-06T09:45:07.999Z</time></trkpt><trkpt lat="39.552871162468264" lon="8.58123938716645"><ele>362.0</ele><time>2026-04-06T09:45:08.999Z</time></trkpt><trkpt lat="39.5529164742156" lon="8.5809837032441"><ele>362.0</ele><time>2026-04-06T09:45:09.999Z</time></trkpt><trkpt lat="39.55296445232137" lon="8.58074554645477"><ele>362.0</ele><time>2026-04-06T09:45:10.999Z</time></trkpt><trkpt lat="39.553005093635534" lon="8.580535011604956"><ele>362.0</ele><time>2026-04-06T09:45:11.999Z</time></trkpt><trkpt lat="39.55302065467251" lon="8.580339612342721"><ele>361.25</ele><time>2026-04-06T09:45:12.999Z</time></trkpt><trkpt lat="39.55300483987074" lon="8.58015566830113"><ele>360.5</ele><time>2026-04-06T09:45:13.999Z</time></trkpt><trkpt lat="39.552926652512326" lon="8.57999597264089"><ele>359.75</ele><time>2026-04-06T09:45:14.999Z</time></trkpt><trkpt lat="39.552830966650305" lon="8.57984867789693"><ele>359.0</ele><time>2026-04-06T09:45:15.999Z</time></trkpt><trkpt lat="39.55271872455393" lon="8.579686869830791"><ele>361.6666666666667</ele><time>2026-04-06T09:45:16.999Z</time></trkpt><trkpt lat="39.55257338534616" lon="8.579544147431216"><ele>364.3333333333333</ele><time>2026-04-06T09:45:17.999Z</time></trkpt><trkpt lat="39.55243464860179" lon="8.579366149089145"><ele>367.0</ele><time>2026-04-06T09:45:18.999Z</time></trkpt><trkpt lat="39.55228013414947" lon="8.579182627509581"><ele>367.0</ele><time>2026-04-06T09:45:19.999Z</time></trkpt><trkpt lat="39.55214915522284" lon="8.578986074263238"><ele>367.0</ele><time>2026-04-06T09:45:20.999Z</time></trkpt><trkpt lat="39.55203923637482" lon="8.578775931879665"><ele>367.0</ele><time>2026-04-06T09:45:21.999Z</time></trkpt><trkpt lat="39.55196045190102" lon="8.578616110914572"><ele>371.75</ele><time>2026-04-06T09:45:22.999Z</time></trkpt><trkpt lat="39.55188451574381" lon="8.578461045323973"><ele>376.5</ele><time>2026-04-06T09:45:23.999Z</time></trkpt><trkpt lat="39.551799297253375" lon="8.578347832289975"><ele>381.25</ele><time>2026-04-06T09:45:24.999Z</time></trkpt><trkpt lat="39.551749468282914" lon="8.578254584877158"><ele>386.0</ele><time>2026-04-06T09:45:25.999Z</time></trkpt><trkpt lat="39.5518181447741" lon="8.578107223987558"><ele>386.0</ele><time>2026-04-06T09:45:26.999Z</time></trkpt><trkpt lat="39.55189600154092" lon="8.578002087962266"><ele>386.0</ele><time>2026-04-06T09:45:27.999Z</time></trkpt><trkpt lat="39.55201204367315" lon="8.57792253733753"><ele>386.0</ele><time>2026-04-06T09:45:28.999Z</time></trkpt><trkpt lat="39.55215500821718" lon="8.577873009086634"><ele>386.0</ele><time>2026-04-06T09:45:29.999Z</time></trkpt><trkpt lat="39.55232990378781" lon="8.577897238981029"><ele>385.66666666666663</ele><time>2026-04-06T09:45:30.999Z</time></trkpt><trkpt lat="39.55251139644883" lon="8.577835095261369"><ele>385.33333333333337</ele><time>2026-04-06T09:45:31.999Z</time></trkpt><trkpt lat="39.55270984778005" lon="8.577794374924435"><ele>385.0</ele><time>2026-04-06T09:45:32.999Z</time></trkpt><trkpt lat="39.552882157174935" lon="8.577742893062155"><ele>377.5</ele><time>2026-04-06T09:45:33.999Z</time></trkpt><trkpt lat="39.5530118665046" lon="8.577685049910974"><ele>370.0</ele><time>2026-04-06T09:45:34.999Z</time></trkpt><trkpt lat="39.55309948270682" lon="8.577600585063866"><ele>362.5</ele><time>2026-04-06T09:45:35.999Z</time></trkpt><trkpt lat="39.5531538429944" lon="8.577472324383095"><ele>355.0</ele><time>2026-04-06T09:45:36.999Z</time></trkpt><trkpt lat="39.553168802299965" lon="8.577307907618227"><ele>355.0</ele><time>2026-04-06T09:45:37.999Z</time></trkpt><trkpt lat="39.55315048965685" lon="8.57711835544565"><ele>355.0</ele><time>2026-04-06T09:45:38.999Z</time></trkpt><trkpt lat="39.55310798459017" lon="8.576900220382061"><ele>355.0</ele><time>2026-04-06T09:45:39.999Z</time></trkpt><trkpt lat="39.553058860530484" lon="8.576667268065675"><ele>353.66666666666663</ele><time>2026-04-06T09:45:40.999Z</time></trkpt><trkpt lat="39.552997299024334" lon="8.576414319612296"><ele>352.3333333333333</ele><time>2026-04-06T09:45:41.999Z</time></trkpt><trkpt lat="39.552940704605895" lon="8.576162981545078"><ele>351.0</ele><time>2026-04-06T09:45:42.999Z</time></trkpt><trkpt lat="39.55288682552061" lon="8.575912025988902"><ele>355.75</ele><time>2026-04-06T09:45:43.999Z</time></trkpt><trkpt lat="39.55285657062232" lon="8.575686145012666"><ele>360.5</ele><time>2026-04-06T09:45:44.999Z</time></trkpt><trkpt lat="39.55282687163136" lon="8.575507551845947"><ele>365.25</ele><time>2026-04-06T09:45:45.999Z</time></trkpt><trkpt lat="39.55282516180971" lon="8.575364563238418"><ele>370.0</ele><time>2026-04-06T09:45:46.999Z</time></trkpt><trkpt lat="39.55287426766254" lon="8.575260278212854"><ele>370.0</ele><time>2026-04-06T09:45:47.999Z</time></trkpt><trkpt lat="39.552946470310054" lon="8.575169764807821"><ele>370.0</ele><time>2026-04-06T09:45:48.999Z</time></trkpt><trkpt lat="39.553059363092984" lon="8.57509736753996"><ele>370.0</ele><time>2026-04-06T09:45:49.999Z</time></trkpt><trkpt lat="39.553188185703334" lon="8.575008846048929"><ele>370.0</ele><time>2026-04-06T09:45:50.999Z</time></trkpt><trkpt lat="39.553320883939904" lon="8.574977514776675"><ele>370.0</ele><time>2026-04-06T09:45:51.999Z</time></trkpt><trkpt lat="39.55345467797835" lon="8.575006197760178"><ele>370.0</ele><time>2026-04-06T09:45:52.999Z</time></trkpt><trkpt lat="39.55358459699142" lon="8.575077919347677"><ele>370.0</ele><time>2026-04-06T09:45:53.999Z</time></trkpt><trkpt lat="39.55372504498247" lon="8.575169741874122"><ele>370.0</ele><time>2026-04-06T09:45:54.999Z</time></trkpt><trkpt lat="39.55385860078222" lon="8.575245614557936"><ele>369.0</ele><time>2026-04-06T09:45:55.999Z</time></trkpt><trkpt lat="39.55395184785642" lon="8.575296056377733"><ele>368.0</ele><time>2026-04-06T09:45:56.999Z</time></trkpt><trkpt lat="39.554041673582056" lon="8.575258711153753"><ele>367.0</ele><time>2026-04-06T09:45:57.999Z</time></trkpt><trkpt lat="39.55412595843409" lon="8.575163176718284"><ele>366.0</ele><time>2026-04-06T09:45:58.999Z</time></trkpt><trkpt lat="39.554216559937345" lon="8.575038742195293"><ele>365.0</ele><time>2026-04-06T09:45:59.999Z</time></trkpt><trkpt lat="39.554318251737364" lon="8.574902326367562"><ele>365.0</ele><time>2026-04-06T09:46:00.999Z</time></trkpt><trkpt lat="39.554449861512204" lon="8.57481622312707"><ele>365.0</ele><time>2026-04-06T09:46:01.999Z</time></trkpt><trkpt lat="39.55458204166856" lon="8.574771317799492"><ele>365.0</ele><time>2026-04-06T09:46:02.999Z</time></trkpt><trkpt lat="39.554714125501185" lon="8.574778667605203"><ele>365.0</ele><time>2026-04-06T09:46:03.999Z</time></trkpt><trkpt lat="39.554843249691864" lon="8.574805853444031"><ele>362.5</ele><time>2026-04-06T09:46:04.999Z</time></trkpt><trkpt lat="39.55496184587327" lon="8.57488639877919"><ele>360.0</ele><time>2026-04-06T09:46:05.999Z</time></trkpt><trkpt lat="39.55506499868558" lon="8.574936107811796"><ele>357.5</ele><time>2026-04-06T09:46:06.999Z</time></trkpt><trkpt lat="39.55516572113779" lon="8.574925701543691"><ele>355.0</ele><time>2026-04-06T09:46:07.999Z</time></trkpt><trkpt lat="39.55526456306023" lon="8.574855085953727"><ele>355.0</ele><time>2026-04-06T09:46:08.999Z</time></trkpt><trkpt lat="39.55536320798796" lon="8.574742686051653"><ele>355.0</ele><time>2026-04-06T09:46:09.999Z</time></trkpt><trkpt lat="39.555443956856365" lon="8.574610015496239"><ele>355.0</ele><time>2026-04-06T09:46:10.999Z</time></trkpt><trkpt lat="39.555494481800054" lon="8.574442084488298"><ele>355.0</ele><time>2026-04-06T09:46:11.999Z</time></trkpt><trkpt lat="39.55551449280067" lon="8.574228585509656"><ele>354.66666666666663</ele><time>2026-04-06T09:46:12.999Z</time></trkpt><trkpt lat="39.5555212294916" lon="8.573999623448248"><ele>354.3333333333333</ele><time>2026-04-06T09:46:13.999Z</time></trkpt><trkpt lat="39.55556633219424" lon="8.573799618867165"><ele>354.0</ele><time>2026-04-06T09:46:14.999Z</time></trkpt><trkpt lat="39.55569436765925" lon="8.57365165274503"><ele>356.6666666666667</ele><time>2026-04-06T09:46:15.999Z</time></trkpt><trkpt lat="39.55579756235098" lon="8.573458861844136"><ele>359.33333333333337</ele><time>2026-04-06T09:46:16.999Z</time></trkpt><trkpt lat="39.5558886416518" lon="8.57325191485013"><ele>362.0</ele><time>2026-04-06T09:46:17.999Z</time></trkpt><trkpt lat="39.555957470440774" lon="8.573048926503313"><ele>364.0</ele><time>2026-04-06T09:46:19Z</time></trkpt><trkpt lat="39.55598698659547" lon="8.572840586821062"><ele>366.0</ele><time>2026-04-06T09:46:20Z</time></trkpt><trkpt lat="39.556018531851514" lon="8.57264395877267"><ele>368.0</ele><time>2026-04-06T09:46:21Z</time></trkpt><trkpt lat="39.556038771484" lon="8.572458013123706"><ele>368.0</ele><time>2026-04-06T09:46:22Z</time></trkpt><trkpt lat="39.55605660842744" lon="8.572294141419038"><ele>368.0</ele><time>2026-04-06T09:46:23Z</time></trkpt><trkpt lat="39.5560707691211" lon="8.572164044217585"><ele>368.0</ele><time>2026-04-06T09:46:24Z</time></trkpt><trkpt lat="39.556081346207634" lon="8.572062628148647"><ele>368.0</ele><time>2026-04-06T09:46:25Z</time></trkpt><trkpt lat="39.556095355358565" lon="8.57192652968075"><ele>368.0</ele><time>2026-04-06T09:46:27Z</time></trkpt><trkpt lat="39.55610336263931" lon="8.571834532287335"><ele>369.0</ele><time>2026-04-06T09:46:29Z</time></trkpt><trkpt lat="39.55614170954826" lon="8.57170471163921"><ele>370.0</ele><time>2026-04-06T09:46:31Z</time></trkpt><trkpt lat="39.556190346800854" lon="8.571529584645683"><ele>371.0</ele><time>2026-04-06T09:46:33Z</time></trkpt><trkpt lat="39.5562409703134" lon="8.57144537929262"><ele>372.0</ele><time>2026-04-06T09:46:34Z</time></trkpt><trkpt lat="39.5562822808479" lon="8.57136399528588"><ele>373.0</ele><time>2026-04-06T09:46:35Z</time></trkpt><trkpt lat="39.55632457801423" lon="8.571284822587955"><ele>372.8333333333333</ele><time>2026-04-06T09:46:36Z</time></trkpt><trkpt lat="39.556394023761406" lon="8.57122823026586"><ele>372.66666666666663</ele><time>2026-04-06T09:46:37Z</time></trkpt><trkpt lat="39.55647618375316" lon="8.571189370287925"><ele>372.5</ele><time>2026-04-06T09:46:38Z</time></trkpt><trkpt lat="39.55656471797195" lon="8.57119383885663"><ele>372.3333333333333</ele><time>2026-04-06T09:46:39Z</time></trkpt><trkpt lat="39.556643092173765" lon="8.571249331398466"><ele>372.1666666666667</ele><time>2026-04-06T09:46:40Z</time></trkpt><trkpt lat="39.556699976320296" lon="8.571327720950384"><ele>372.0</ele><time>2026-04-06T09:46:41Z</time></trkpt><trkpt lat="39.55676286800114" lon="8.57139134535463"><ele>371.40000000000003</ele><time>2026-04-06T09:46:42Z</time></trkpt><trkpt lat="39.55684248846082" lon="8.571413077415947"><ele>370.8</ele><time>2026-04-06T09:46:43Z</time></trkpt><trkpt lat="39.5569284066462" lon="8.571393248348466"><ele>370.2</ele><time>2026-04-06T09:46:44Z</time></trkpt><trkpt lat="39.55701501111437" lon="8.571331043924488"><ele>369.6</ele><time>2026-04-06T09:46:45Z</time></trkpt><trkpt lat="39.55708517977414" lon="8.571224481657325"><ele>369.0</ele><time>2026-04-06T09:46:46Z</time></trkpt><trkpt lat="39.557134906599366" lon="8.571110541842959"><ele>369.0</ele><time>2026-04-06T09:46:47Z</time></trkpt><trkpt lat="39.55717317638325" lon="8.571003855101747"><ele>369.0</ele><time>2026-04-06T09:46:48Z</time></trkpt><trkpt lat="39.55714735966458" lon="8.57086325695208"><ele>369.0</ele><time>2026-04-06T09:46:49Z</time></trkpt><trkpt lat="39.557136715898366" lon="8.570743199811709"><ele>369.0</ele><time>2026-04-06T09:46:50Z</time></trkpt><trkpt lat="39.55713085097325" lon="8.570641288293704"><ele>369.0</ele><time>2026-04-06T09:46:51Z</time></trkpt><trkpt lat="39.55712650179406" lon="8.57050029726393"><ele>369.0</ele><time>2026-04-06T09:46:53Z</time></trkpt><trkpt lat="39.55716069500429" lon="8.570395234011833"><ele>369.0</ele><time>2026-04-06T09:46:56Z</time></trkpt><trkpt lat="39.55717494082295" lon="8.570269049528562"><ele>369.0</ele><time>2026-04-06T09:46:59Z</time></trkpt><trkpt lat="39.55719630957787" lon="8.570163777151963"><ele>369.0</ele><time>2026-04-06T09:47:01Z</time></trkpt><trkpt lat="39.557230602864436" lon="8.57009243493758"><ele>369.0</ele><time>2026-04-06T09:47:03Z</time></trkpt><trkpt lat="39.55725274613014" lon="8.570011836056258"><ele>369.0</ele><time>2026-04-06T09:47:05Z</time></trkpt><trkpt lat="39.55727584029829" lon="8.569932482310154"><ele>370.4</ele><time>2026-04-06T09:47:07Z</time></trkpt><trkpt lat="39.55730038009166" lon="8.569834936776125"><ele>371.79999999999995</ele><time>2026-04-06T09:47:09Z</time></trkpt><trkpt lat="39.55732697230278" lon="8.569718846156574"><ele>373.20000000000005</ele><time>2026-04-06T09:47:11Z</time></trkpt><trkpt lat="39.557346962375135" lon="8.569583666669663"><ele>374.6</ele><time>2026-04-06T09:47:13Z</time></trkpt><trkpt lat="39.55736786475559" lon="8.569433574766355"><ele>376.0</ele><time>2026-04-06T09:47:15Z</time></trkpt><trkpt lat="39.55737242291867" lon="8.569335279144413"><ele>376.0</ele><time>2026-04-06T09:47:16Z</time></trkpt><trkpt lat="39.557351512753826" lon="8.56924048919247"><ele>376.0</ele><time>2026-04-06T09:47:17Z</time></trkpt><trkpt lat="39.557360852921974" lon="8.56915026243609"><ele>376.0</ele><time>2026-04-06T09:47:18Z</time></trkpt><trkpt lat="39.5573604299124" lon="8.569020583667559"><ele>376.0</ele><time>2026-04-06T09:47:19Z</time></trkpt><trkpt lat="39.55737104039534" lon="8.568868666891985"><ele>376.0</ele><time>2026-04-06T09:47:20Z</time></trkpt><trkpt lat="39.557421295268476" lon="8.568713702093422"><ele>374.25</ele><time>2026-04-06T09:47:21Z</time></trkpt><trkpt lat="39.557441299664944" lon="8.568556126286726"><ele>372.5</ele><time>2026-04-06T09:47:22Z</time></trkpt><trkpt lat="39.55747143498091" lon="8.5684031818233"><ele>370.75</ele><time>2026-04-06T09:47:23Z</time></trkpt><trkpt lat="39.55750960234425" lon="8.568238236062518"><ele>369.0</ele><time>2026-04-06T09:47:24Z</time></trkpt><trkpt lat="39.55755189480598" lon="8.568068225118392"><ele>369.0</ele><time>2026-04-06T09:47:25Z</time></trkpt><trkpt lat="39.55759505316157" lon="8.567901856597425"><ele>369.0</ele><time>2026-04-06T09:47:26Z</time></trkpt><trkpt lat="39.55764356402639" lon="8.567733341620238"><ele>369.0</ele><time>2026-04-06T09:47:27Z</time></trkpt><trkpt lat="39.557698805682655" lon="8.567583145271334"><ele>369.0</ele><time>2026-04-06T09:47:28Z</time></trkpt><trkpt lat="39.557767007013" lon="8.567432367755844"><ele>368.0</ele><time>2026-04-06T09:47:29Z</time></trkpt><trkpt lat="39.55784752997431" lon="8.567283893660239"><ele>367.0</ele><time>2026-04-06T09:47:30Z</time></trkpt><trkpt lat="39.557937559480735" lon="8.567166035708304"><ele>366.0</ele><time>2026-04-06T09:47:31Z</time></trkpt><trkpt lat="39.558049081135906" lon="8.56704921662621"><ele>365.0</ele><time>2026-04-06T09:47:32Z</time></trkpt><trkpt lat="39.55816501823364" lon="8.566932432746572"><ele>365.0</ele><time>2026-04-06T09:47:33Z</time></trkpt><trkpt lat="39.55829312196686" lon="8.566810747174342"><ele>365.0</ele><time>2026-04-06T09:47:34Z</time></trkpt><trkpt lat="39.55841988172028" lon="8.566689901733946"><ele>365.0</ele><time>2026-04-06T09:47:35Z</time></trkpt><trkpt lat="39.55853275373303" lon="8.566582018859192"><ele>365.0</ele><time>2026-04-06T09:47:36Z</time></trkpt><trkpt lat="39.55864001905048" lon="8.566489652712411"><ele>365.0</ele><time>2026-04-06T09:47:37Z</time></trkpt><trkpt lat="39.558749854541524" lon="8.56641657895677"><ele>365.0</ele><time>2026-04-06T09:47:38Z</time></trkpt><trkpt lat="39.558867433759815" lon="8.566370151608018"><ele>365.0</ele><time>2026-04-06T09:47:39Z</time></trkpt><trkpt lat="39.55899129324208" lon="8.56635845783456"><ele>365.6666666666667</ele><time>2026-04-06T09:47:40Z</time></trkpt><trkpt lat="39.55913398349472" lon="8.566310689038353"><ele>366.3333333333333</ele><time>2026-04-06T09:47:41Z</time></trkpt><trkpt lat="39.55928827720182" lon="8.56627664894937"><ele>367.0</ele><time>2026-04-06T09:47:42Z</time></trkpt><trkpt lat="39.55943869373864" lon="8.566217649865367"><ele>364.0</ele><time>2026-04-06T09:47:43Z</time></trkpt><trkpt lat="39.55957617754234" lon="8.566149400085957"><ele>361.0</ele><time>2026-04-06T09:47:44Z</time></trkpt><trkpt lat="39.559696406221015" lon="8.566064140996572"><ele>358.0</ele><time>2026-04-06T09:47:45Z</time></trkpt><trkpt lat="39.559801021620956" lon="8.565958776752"><ele>355.0</ele><time>2026-04-06T09:47:46Z</time></trkpt><trkpt lat="39.559911852756514" lon="8.565874894139437"><ele>355.0</ele><time>2026-04-06T09:47:47Z</time></trkpt><trkpt lat="39.56002604986484" lon="8.565765902225468"><ele>355.0</ele><time>2026-04-06T09:47:48Z</time></trkpt><trkpt lat="39.560147295354966" lon="8.56565018320353"><ele>355.0</ele><time>2026-04-06T09:47:49Z</time></trkpt><trkpt lat="39.560270517362405" lon="8.565526562100674"><ele>355.0</ele><time>2026-04-06T09:47:50Z</time></trkpt><trkpt lat="39.56038607772203" lon="8.565389397999216"><ele>354.0</ele><time>2026-04-06T09:47:51Z</time></trkpt><trkpt lat="39.5604871887348" lon="8.56521097699644"><ele>353.0</ele><time>2026-04-06T09:47:52Z</time></trkpt><trkpt lat="39.560612347544854" lon="8.56504057528377"><ele>352.0</ele><time>2026-04-06T09:47:53Z</time></trkpt><trkpt lat="39.56074498450492" lon="8.564846998194888"><ele>352.0</ele><time>2026-04-06T09:47:54Z</time></trkpt><trkpt lat="39.560875707872704" lon="8.564676071923286"><ele>352.0</ele><time>2026-04-06T09:47:55Z</time></trkpt><trkpt lat="39.561003517651564" lon="8.564530369194614"><ele>352.0</ele><time>2026-04-06T09:47:56Z</time></trkpt><trkpt lat="39.561133993016846" lon="8.564391709660466"><ele>351.3333333333333</ele><time>2026-04-06T09:47:57Z</time></trkpt><trkpt lat="39.561273587447616" lon="8.56428997760822"><ele>350.6666666666667</ele><time>2026-04-06T09:47:58Z</time></trkpt><trkpt lat="39.56140997934278" lon="8.564177798459234"><ele>350.0</ele><time>2026-04-06T09:47:59Z</time></trkpt><trkpt lat="39.561534618229594" lon="8.564058493263419"><ele>350.0</ele><time>2026-04-06T09:48:00Z</time></trkpt><trkpt lat="39.561634533694885" lon="8.56393243703912"><ele>350.0</ele><time>2026-04-06T09:48:01Z</time></trkpt><trkpt lat="39.561703454541785" lon="8.563791661924482"><ele>350.0</ele><time>2026-04-06T09:48:02Z</time></trkpt><trkpt lat="39.5617313176192" lon="8.56363523704997"><ele>350.0</ele><time>2026-04-06T09:48:03Z</time></trkpt><trkpt lat="39.561723847686444" lon="8.56346667901078"><ele>347.6666666666667</ele><time>2026-04-06T09:48:04Z</time></trkpt><trkpt lat="39.561692996209594" lon="8.563273783660309"><ele>345.3333333333333</ele><time>2026-04-06T09:48:05Z</time></trkpt><trkpt lat="39.56169489472954" lon="8.563067014914388"><ele>343.0</ele><time>2026-04-06T09:48:06Z</time></trkpt><trkpt lat="39.561692352203195" lon="8.562883592136624"><ele>343.5</ele><time>2026-04-06T09:48:07Z</time></trkpt><trkpt lat="39.56169367969126" lon="8.562720546128325"><ele>344.0</ele><time>2026-04-06T09:48:08Z</time></trkpt><trkpt lat="39.561791582392615" lon="8.5626037699157"><ele>344.5</ele><time>2026-04-06T09:48:09Z</time></trkpt><trkpt lat="39.56189832208966" lon="8.562471781531473"><ele>345.0</ele><time>2026-04-06T09:48:10Z</time></trkpt><trkpt lat="39.56203585637732" lon="8.56232984285242"><ele>345.0</ele><time>2026-04-06T09:48:11Z</time></trkpt><trkpt lat="39.562183322298374" lon="8.562154576924463"><ele>345.0</ele><time>2026-04-06T09:48:12Z</time></trkpt><trkpt lat="39.562347979642425" lon="8.561988381888998"><ele>345.0</ele><time>2026-04-06T09:48:13Z</time></trkpt><trkpt lat="39.56251917989994" lon="8.561830225030125"><ele>341.3333333333333</ele><time>2026-04-06T09:48:14Z</time></trkpt><trkpt lat="39.56270461082675" lon="8.561709738266266"><ele>337.66666666666663</ele><time>2026-04-06T09:48:15Z</time></trkpt><trkpt lat="39.56288858969271" lon="8.561581139605346"><ele>334.0</ele><time>2026-04-06T09:48:16Z</time></trkpt><trkpt lat="39.56308650638862" lon="8.561448121093218"><ele>334.0</ele><time>2026-04-06T09:48:17Z</time></trkpt><trkpt lat="39.56327043062134" lon="8.561325034469363"><ele>334.0</ele><time>2026-04-06T09:48:18Z</time></trkpt><trkpt lat="39.56343672816632" lon="8.561208702394946"><ele>334.0</ele><time>2026-04-06T09:48:19Z</time></trkpt><trkpt lat="39.56357117393054" lon="8.561095028382095"><ele>330.25</ele><time>2026-04-06T09:48:20Z</time></trkpt><trkpt lat="39.563692845431696" lon="8.561018579560033"><ele>326.5</ele><time>2026-04-06T09:48:21Z</time></trkpt><trkpt lat="39.563826555900086" lon="8.56099421733499"><ele>322.75</ele><time>2026-04-06T09:48:22Z</time></trkpt><trkpt lat="39.5639587972428" lon="8.560970459720036"><ele>319.0</ele><time>2026-04-06T09:48:23Z</time></trkpt><trkpt lat="39.56409619145272" lon="8.56101177057311"><ele>318.0</ele><time>2026-04-06T09:48:24Z</time></trkpt><trkpt lat="39.56422172925416" lon="8.561080877819757"><ele>317.0</ele><time>2026-04-06T09:48:25Z</time></trkpt><trkpt lat="39.564334640249605" lon="8.561178516320297"><ele>316.0</ele><time>2026-04-06T09:48:26Z</time></trkpt><trkpt lat="39.56442585696216" lon="8.56130947622963"><ele>315.0</ele><time>2026-04-06T09:48:27Z</time></trkpt><trkpt lat="39.56447902436469" lon="8.56148300954746"><ele>315.3333333333333</ele><time>2026-04-06T09:48:28Z</time></trkpt><trkpt lat="39.56454564451366" lon="8.561656468197116"><ele>315.66666666666663</ele><time>2026-04-06T09:48:29Z</time></trkpt><trkpt lat="39.56458757472944" lon="8.56184866057947"><ele>316.0</ele><time>2026-04-06T09:48:30Z</time></trkpt><trkpt lat="39.56464502420034" lon="8.562040486877233"><ele>316.0</ele><time>2026-04-06T09:48:31Z</time></trkpt><trkpt lat="39.56471941004759" lon="8.562220791633735"><ele>316.0</ele><time>2026-04-06T09:48:32Z</time></trkpt><trkpt lat="39.564807570194354" lon="8.562395803163419"><ele>316.0</ele><time>2026-04-06T09:48:33Z</time></trkpt><trkpt lat="39.564904691042436" lon="8.562567625224501"><ele>316.0</ele><time>2026-04-06T09:48:34Z</time></trkpt><trkpt lat="39.56500531730105" lon="8.562748510946081"><ele>316.0</ele><time>2026-04-06T09:48:35Z</time></trkpt><trkpt lat="39.56509652771784" lon="8.562926498849937"><ele>316.0</ele><time>2026-04-06T09:48:36Z</time></trkpt><trkpt lat="39.565167872140556" lon="8.563085294721594"><ele>317.16666666666663</ele><time>2026-04-06T09:48:37Z</time></trkpt><trkpt lat="39.565221417593534" lon="8.563206607484098"><ele>318.3333333333333</ele><time>2026-04-06T09:48:38Z</time></trkpt><trkpt lat="39.56527481268038" lon="8.563291638304158"><ele>319.5</ele><time>2026-04-06T09:48:39Z</time></trkpt><trkpt lat="39.56533641821593" lon="8.563326292452226"><ele>320.6666666666667</ele><time>2026-04-06T09:48:40Z</time></trkpt><trkpt lat="39.56540400741214" lon="8.563294118206718"><ele>321.83333333333337</ele><time>2026-04-06T09:48:41Z</time></trkpt><trkpt lat="39.56545342446637" lon="8.563214960665574"><ele>323.0</ele><time>2026-04-06T09:48:42Z</time></trkpt><trkpt lat="39.565467096779" lon="8.563104487237222"><ele>323.0</ele><time>2026-04-06T09:48:43Z</time></trkpt><trkpt lat="39.56545036666382" lon="8.562990204384239"><ele>323.0</ele><time>2026-04-06T09:48:44Z</time></trkpt><trkpt lat="39.5654149362543" lon="8.562878508150595"><ele>323.0</ele><time>2026-04-06T09:48:45Z</time></trkpt><trkpt lat="39.565405709016886" lon="8.562739643766223"><ele>323.0</ele><time>2026-04-06T09:48:46Z</time></trkpt><trkpt lat="39.56539396836669" lon="8.562578095393746"><ele>323.0</ele><time>2026-04-06T09:48:47Z</time></trkpt><trkpt lat="39.56545099710479" lon="8.5624307668074"><ele>321.25</ele><time>2026-04-06T09:48:48Z</time></trkpt><trkpt lat="39.5655244602463" lon="8.562274403477785"><ele>319.5</ele><time>2026-04-06T09:48:49Z</time></trkpt><trkpt lat="39.56558493297995" lon="8.56210819077768"><ele>317.75</ele><time>2026-04-06T09:48:50Z</time></trkpt><trkpt lat="39.56567119406137" lon="8.56195926366839"><ele>316.0</ele><time>2026-04-06T09:48:51Z</time></trkpt><trkpt lat="39.56574358610055" lon="8.561799123233666"><ele>312.5</ele><time>2026-04-06T09:48:52Z</time></trkpt><trkpt lat="39.565800422963335" lon="8.561636878615843"><ele>309.0</ele><time>2026-04-06T09:48:53Z</time></trkpt><trkpt lat="39.56587294851894" lon="8.56149601649341"><ele>305.5</ele><time>2026-04-06T09:48:54Z</time></trkpt><trkpt lat="39.56596016705572" lon="8.56138368906389"><ele>302.0</ele><time>2026-04-06T09:48:55Z</time></trkpt><trkpt lat="39.56609000561376" lon="8.561297616204106"><ele>302.5</ele><time>2026-04-06T09:48:56Z</time></trkpt><trkpt lat="39.56622688330919" lon="8.561214337048968"><ele>303.0</ele><time>2026-04-06T09:48:57Z</time></trkpt><trkpt lat="39.566354642284956" lon="8.561128540513037"><ele>303.5</ele><time>2026-04-06T09:48:58Z</time></trkpt><trkpt lat="39.56647490822404" lon="8.561060943076903"><ele>304.0</ele><time>2026-04-06T09:48:59Z</time></trkpt><trkpt lat="39.56659176411585" lon="8.561005106342893"><ele>301.66666666666663</ele><time>2026-04-06T09:49:00Z</time></trkpt><trkpt lat="39.56675030541442" lon="8.560930849626557"><ele>299.3333333333333</ele><time>2026-04-06T09:49:01Z</time></trkpt><trkpt lat="39.56689158597997" lon="8.560929316874763"><ele>297.0</ele><time>2026-04-06T09:49:02Z</time></trkpt><trkpt lat="39.56704816411125" lon="8.560885386715272"><ele>297.0</ele><time>2026-04-06T09:49:03Z</time></trkpt><trkpt lat="39.5672207289024" lon="8.560829396316917"><ele>297.0</ele><time>2026-04-06T09:49:04Z</time></trkpt><trkpt lat="39.56738546266557" lon="8.560736815183724"><ele>297.0</ele><time>2026-04-06T09:49:05Z</time></trkpt><trkpt lat="39.56753748008984" lon="8.56064688598263"><ele>297.0</ele><time>2026-04-06T09:49:06Z</time></trkpt><trkpt lat="39.56768061396347" lon="8.560564439170006"><ele>297.0</ele><time>2026-04-06T09:49:07Z</time></trkpt><trkpt lat="39.56778448085191" lon="8.56048749303222"><ele>297.0</ele><time>2026-04-06T09:49:08Z</time></trkpt><trkpt lat="39.5678456730579" lon="8.560385627685788"><ele>297.0</ele><time>2026-04-06T09:49:09Z</time></trkpt><trkpt lat="39.56786260192381" lon="8.56024174325276"><ele>296.0</ele><time>2026-04-06T09:49:10Z</time></trkpt><trkpt lat="39.56784264721806" lon="8.560082223449726"><ele>295.0</ele><time>2026-04-06T09:49:11Z</time></trkpt><trkpt lat="39.56783178905149" lon="8.559913297265117"><ele>294.0</ele><time>2026-04-06T09:49:12Z</time></trkpt><trkpt lat="39.567882915400055" lon="8.559743315880015"><ele>293.0</ele><time>2026-04-06T09:49:13Z</time></trkpt><trkpt lat="39.56796994199198" lon="8.559562721257935"><ele>289.6666666666667</ele><time>2026-04-06T09:49:14Z</time></trkpt><trkpt lat="39.56807032783131" lon="8.559349731011672"><ele>286.3333333333333</ele><time>2026-04-06T09:49:15Z</time></trkpt><trkpt lat="39.56816794316871" lon="8.559142967544814"><ele>283.0</ele><time>2026-04-06T09:49:16Z</time></trkpt><trkpt lat="39.568253468223496" lon="8.558965725957108"><ele>283.0</ele><time>2026-04-06T09:49:17Z</time></trkpt><trkpt lat="39.568321101253204" lon="8.55882556356016"><ele>283.0</ele><time>2026-04-06T09:49:18Z</time></trkpt><trkpt lat="39.56838093151969" lon="8.55870550048498"><ele>283.0</ele><time>2026-04-06T09:49:19Z</time></trkpt><trkpt lat="39.568439134495385" lon="8.558594480368303"><ele>283.0</ele><time>2026-04-06T09:49:20Z</time></trkpt><trkpt lat="39.56849504374319" lon="8.558503121384167"><ele>283.0</ele><time>2026-04-06T09:49:21Z</time></trkpt><trkpt lat="39.568559332319175" lon="8.558429111875903"><ele>283.4</ele><time>2026-04-06T09:49:22Z</time></trkpt><trkpt lat="39.568635844245456" lon="8.558370135559763"><ele>283.8</ele><time>2026-04-06T09:49:23Z</time></trkpt><trkpt lat="39.568725517912824" lon="8.558327558475494"><ele>284.2</ele><time>2026-04-06T09:49:24Z</time></trkpt><trkpt lat="39.5688186642276" lon="8.558277869262533"><ele>284.6</ele><time>2026-04-06T09:49:25Z</time></trkpt><trkpt lat="39.56889380186179" lon="8.558180204276754"><ele>285.0</ele><time>2026-04-06T09:49:26Z</time></trkpt><trkpt lat="39.56893931148279" lon="8.55806475978252"><ele>285.0</ele><time>2026-04-06T09:49:27Z</time></trkpt><trkpt lat="39.568960920337226" lon="8.557900918790727"><ele>285.0</ele><time>2026-04-06T09:49:28Z</time></trkpt><trkpt lat="39.568967355096476" lon="8.557711615431277"><ele>285.0</ele><time>2026-04-06T09:49:29Z</time></trkpt><trkpt lat="39.56899872163201" lon="8.557528285616089"><ele>285.0</ele><time>2026-04-06T09:49:30Z</time></trkpt><trkpt lat="39.56902062853476" lon="8.557345920161001"><ele>282.0</ele><time>2026-04-06T09:49:31Z</time></trkpt><trkpt lat="39.56904516841938" lon="8.557131084040707"><ele>279.0</ele><time>2026-04-06T09:49:32Z</time></trkpt><trkpt lat="39.56906105029205" lon="8.556883595106973"><ele>276.0</ele><time>2026-04-06T09:49:33Z</time></trkpt><trkpt lat="39.56904753765262" lon="8.556612293305527"><ele>274.0</ele><time>2026-04-06T09:49:34Z</time></trkpt><trkpt lat="39.569048933853246" lon="8.556341118250591"><ele>272.0</ele><time>2026-04-06T09:49:35Z</time></trkpt><trkpt lat="39.56906966605099" lon="8.556087449883858"><ele>270.0</ele><time>2026-04-06T09:49:36Z</time></trkpt><trkpt lat="39.56907559799804" lon="8.55583500006157"><ele>269.0</ele><time>2026-04-06T09:49:37Z</time></trkpt><trkpt lat="39.56908067710424" lon="8.555575896918937"><ele>268.0</ele><time>2026-04-06T09:49:38Z</time></trkpt><trkpt lat="39.56908479540611" lon="8.555333212097496"><ele>267.0</ele><time>2026-04-06T09:49:39Z</time></trkpt><trkpt lat="39.569088601280924" lon="8.55509896849928"><ele>265.75</ele><time>2026-04-06T09:49:40Z</time></trkpt><trkpt lat="39.56909238962927" lon="8.554897982695113"><ele>264.5</ele><time>2026-04-06T09:49:41Z</time></trkpt><trkpt lat="39.56909436235387" lon="8.554719288189297"><ele>263.25</ele><time>2026-04-06T09:49:42Z</time></trkpt><trkpt lat="39.56909703819983" lon="8.55458564002236"><ele>262.0</ele><time>2026-04-06T09:49:43Z</time></trkpt><trkpt lat="39.56910411713141" lon="8.554477600336874"><ele>261.16666666666663</ele><time>2026-04-06T09:49:44Z</time></trkpt><trkpt lat="39.56911668624242" lon="8.55437056784418"><ele>260.3333333333333</ele><time>2026-04-06T09:49:45Z</time></trkpt><trkpt lat="39.56913915897821" lon="8.554270559387104"><ele>259.5</ele><time>2026-04-06T09:49:46Z</time></trkpt><trkpt lat="39.569174030702996" lon="8.554170138945876"><ele>258.6666666666667</ele><time>2026-04-06T09:49:47Z</time></trkpt><trkpt lat="39.569225843037636" lon="8.554061664643152"><ele>257.83333333333337</ele><time>2026-04-06T09:49:48Z</time></trkpt><trkpt lat="39.569289348490805" lon="8.553968473326204"><ele>257.0</ele><time>2026-04-06T09:49:49Z</time></trkpt><trkpt lat="39.569364240288856" lon="8.553878228292625"><ele>257.0</ele><time>2026-04-06T09:49:50Z</time></trkpt><trkpt lat="39.56946127532909" lon="8.553792211517619"><ele>257.0</ele><time>2026-04-06T09:49:51Z</time></trkpt><trkpt lat="39.56957906096215" lon="8.553694355449924"><ele>257.0</ele><time>2026-04-06T09:49:52Z</time></trkpt><trkpt lat="39.569707363713526" lon="8.553590627093728"><ele>257.0</ele><time>2026-04-06T09:49:53Z</time></trkpt><trkpt lat="39.56984594798096" lon="8.553481284951017"><ele>256.5</ele><time>2026-04-06T09:49:54Z</time></trkpt><trkpt lat="39.56997718123704" lon="8.553353317387776"><ele>256.0</ele><time>2026-04-06T09:49:55Z</time></trkpt><trkpt lat="39.570103050771266" lon="8.553253538666562"><ele>255.5</ele><time>2026-04-06T09:49:56Z</time></trkpt><trkpt lat="39.57021850354583" lon="8.553157849560709"><ele>255.0</ele><time>2026-04-06T09:49:57Z</time></trkpt><trkpt lat="39.57032393862319" lon="8.55306666794013"><ele>256.0</ele><time>2026-04-06T09:49:58Z</time></trkpt><trkpt lat="39.5704165117294" lon="8.552972768464606"><ele>257.0</ele><time>2026-04-06T09:49:59Z</time></trkpt><trkpt lat="39.570475142514105" lon="8.552865063964981"><ele>258.0</ele><time>2026-04-06T09:50:00Z</time></trkpt><trkpt lat="39.57050317977336" lon="8.552744982092245"><ele>259.0</ele><time>2026-04-06T09:50:01Z</time></trkpt><trkpt lat="39.5704470108758" lon="8.552607868315928"><ele>260.0</ele><time>2026-04-06T09:50:02Z</time></trkpt><trkpt lat="39.57036922844201" lon="8.552476940807713"><ele>256.25</ele><time>2026-04-06T09:50:03Z</time></trkpt><trkpt lat="39.57027020629154" lon="8.552349365047753"><ele>252.5</ele><time>2026-04-06T09:50:04Z</time></trkpt><trkpt lat="39.57020019648378" lon="8.552207394423464"><ele>248.75</ele><time>2026-04-06T09:50:05Z</time></trkpt><trkpt lat="39.57013354522977" lon="8.552062539707746"><ele>245.0</ele><time>2026-04-06T09:50:06Z</time></trkpt><trkpt lat="39.57009108296768" lon="8.551891661341402"><ele>244.5</ele><time>2026-04-06T09:50:07Z</time></trkpt><trkpt lat="39.570076936898616" lon="8.551708314621271"><ele>244.0</ele><time>2026-04-06T09:50:08Z</time></trkpt><trkpt lat="39.57009019661497" lon="8.551525140176938"><ele>243.5</ele><time>2026-04-06T09:50:09Z</time></trkpt><trkpt lat="39.570139505490545" lon="8.551355525415955"><ele>243.0</ele><time>2026-04-06T09:50:10Z</time></trkpt><trkpt lat="39.570214516562906" lon="8.551181630899768"><ele>240.0</ele><time>2026-04-06T09:50:11Z</time></trkpt><trkpt lat="39.57031094204245" lon="8.55098944017793"><ele>237.0</ele><time>2026-04-06T09:50:12Z</time></trkpt><trkpt lat="39.5704143727454" lon="8.550760225208851"><ele>234.0</ele><time>2026-04-06T09:50:13Z</time></trkpt><trkpt lat="39.570545651205876" lon="8.550546693171539"><ele>238.0</ele><time>2026-04-06T09:50:14Z</time></trkpt><trkpt lat="39.57062000609121" lon="8.550330091141268"><ele>242.0</ele><time>2026-04-06T09:50:15Z</time></trkpt><trkpt lat="39.570682302523245" lon="8.55013755289438"><ele>246.0</ele><time>2026-04-06T09:50:16Z</time></trkpt><trkpt lat="39.57071461386161" lon="8.54994702036367"><ele>246.0</ele><time>2026-04-06T09:50:17Z</time></trkpt><trkpt lat="39.57075984310287" lon="8.549771074813279"><ele>246.0</ele><time>2026-04-06T09:50:18Z</time></trkpt><trkpt lat="39.57080011017738" lon="8.549617373809616"><ele>246.0</ele><time>2026-04-06T09:50:19Z</time></trkpt><trkpt lat="39.570847464785196" lon="8.549476848280793"><ele>246.0</ele><time>2026-04-06T09:50:20Z</time></trkpt><trkpt lat="39.57090363103383" lon="8.549347322671094"><ele>243.75</ele><time>2026-04-06T09:50:21Z</time></trkpt><trkpt lat="39.57096729098475" lon="8.549236497807499"><ele>241.5</ele><time>2026-04-06T09:50:22Z</time></trkpt><trkpt lat="39.571038673018705" lon="8.549133332347377"><ele>239.25</ele><time>2026-04-06T09:50:23Z</time></trkpt><trkpt lat="39.57111082016074" lon="8.549016636445444"><ele>237.0</ele><time>2026-04-06T09:50:24Z</time></trkpt><trkpt lat="39.57120243588359" lon="8.548911366733018"><ele>237.39999999999998</ele><time>2026-04-06T09:50:25Z</time></trkpt><trkpt lat="39.57129108179925" lon="8.548808856302427"><ele>237.79999999999998</ele><time>2026-04-06T09:50:26Z</time></trkpt><trkpt lat="39.57137117644297" lon="8.548717264331586"><ele>238.2</ele><time>2026-04-06T09:50:27Z</time></trkpt><trkpt lat="39.57145762309993" lon="8.548648246748115"><ele>238.6</ele><time>2026-04-06T09:50:28Z</time></trkpt><trkpt lat="39.5715300669803" lon="8.548563995963734"><ele>239.0</ele><time>2026-04-06T09:50:29Z</time></trkpt><trkpt lat="39.57158677053558" lon="8.54847028285614"><ele>239.00000000000003</ele><time>2026-04-06T09:50:30Z</time></trkpt><trkpt lat="39.571651345019916" lon="8.548395679663647"><ele>239.0</ele><time>2026-04-06T09:50:31Z</time></trkpt><trkpt lat="39.57171645630978" lon="8.548323482785161"><ele>239.0</ele><time>2026-04-06T09:50:32Z</time></trkpt><trkpt lat="39.57178902746305" lon="8.54826266456123"><ele>239.0</ele><time>2026-04-06T09:50:33Z</time></trkpt><trkpt lat="39.57187112227693" lon="8.548217844759888"><ele>239.00000000000003</ele><time>2026-04-06T09:50:34Z</time></trkpt><trkpt lat="39.57196449227536" lon="8.548200290676064"><ele>239.0</ele><time>2026-04-06T09:50:35Z</time></trkpt><trkpt lat="39.572067071947544" lon="8.548201787516893"><ele>239.25</ele><time>2026-04-06T09:50:36Z</time></trkpt><trkpt lat="39.57218113652923" lon="8.548207117005894"><ele>239.5</ele><time>2026-04-06T09:50:37Z</time></trkpt><trkpt lat="39.572301669757636" lon="8.548211205709714"><ele>239.75</ele><time>2026-04-06T09:50:38Z</time></trkpt><trkpt lat="39.57242767632415" lon="8.548216876519973"><ele>240.0</ele><time>2026-04-06T09:50:39Z</time></trkpt><trkpt lat="39.572548417883475" lon="8.54822264975613"><ele>240.0</ele><time>2026-04-06T09:50:40Z</time></trkpt><trkpt lat="39.57266218254924" lon="8.548230205547322"><ele>240.0</ele><time>2026-04-06T09:50:41Z</time></trkpt><trkpt lat="39.572767887553496" lon="8.54823617491807"><ele>240.0</ele><time>2026-04-06T09:50:42Z</time></trkpt><trkpt lat="39.572875353014304" lon="8.54823809441218"><ele>240.0</ele><time>2026-04-06T09:50:43Z</time></trkpt><trkpt lat="39.57297531841146" lon="8.54823813405857"><ele>240.0</ele><time>2026-04-06T09:50:44Z</time></trkpt><trkpt lat="39.57306730361798" lon="8.548239815060544"><ele>239.6</ele><time>2026-04-06T09:50:45Z</time></trkpt><trkpt lat="39.57315404733504" lon="8.548245329812023"><ele>239.2</ele><time>2026-04-06T09:50:46Z</time></trkpt><trkpt lat="39.57324608170799" lon="8.548253694577257"><ele>238.8</ele><time>2026-04-06T09:50:47Z</time></trkpt><trkpt lat="39.573334539644534" lon="8.548276687855328"><ele>238.4</ele><time>2026-04-06T09:50:48Z</time></trkpt><trkpt lat="39.573429705536775" lon="8.548321791842104"><ele>238.0</ele><time>2026-04-06T09:50:49Z</time></trkpt><trkpt lat="39.573524957555065" lon="8.54839350728017"><ele>238.0</ele><time>2026-04-06T09:50:50Z</time></trkpt><trkpt lat="39.57360864891686" lon="8.548499724761552"><ele>238.0</ele><time>2026-04-06T09:50:51Z</time></trkpt><trkpt lat="39.57370596650877" lon="8.548637301953686"><ele>238.0</ele><time>2026-04-06T09:50:52Z</time></trkpt><trkpt lat="39.573814793033826" lon="8.54876485575576"><ele>238.0</ele><time>2026-04-06T09:50:53Z</time></trkpt><trkpt lat="39.57391516458167" lon="8.548900139457993"><ele>238.0</ele><time>2026-04-06T09:50:54Z</time></trkpt><trkpt lat="39.57400940993916" lon="8.549014453453124"><ele>238.0</ele><time>2026-04-06T09:50:55Z</time></trkpt><trkpt lat="39.57409285553783" lon="8.54910957416741"><ele>238.0</ele><time>2026-04-06T09:50:56Z</time></trkpt><trkpt lat="39.57417030550831" lon="8.549202548907115"><ele>238.0</ele><time>2026-04-06T09:50:57Z</time></trkpt><trkpt lat="39.57424109026134" lon="8.54928924465991"><ele>238.0</ele><time>2026-04-06T09:50:58Z</time></trkpt><trkpt lat="39.5743087902995" lon="8.54937277260534"><ele>238.0</ele><time>2026-04-06T09:50:59Z</time></trkpt><trkpt lat="39.57437375612494" lon="8.549450642079572"><ele>238.0</ele><time>2026-04-06T09:51:00Z</time></trkpt><trkpt lat="39.574441619103986" lon="8.549532041824602"><ele>238.0</ele><time>2026-04-06T09:51:01Z</time></trkpt><trkpt lat="39.57451958738405" lon="8.549620238172958"><ele>238.0</ele><time>2026-04-06T09:51:02Z</time></trkpt><trkpt lat="39.574615960765534" lon="8.549711988538705"><ele>238.0</ele><time>2026-04-06T09:51:03Z</time></trkpt><trkpt lat="39.57471843519157" lon="8.549778797051452"><ele>237.8</ele><time>2026-04-06T09:51:04Z</time></trkpt><trkpt lat="39.574813668955215" lon="8.54983145805102"><ele>237.60000000000002</ele><time>2026-04-06T09:51:05Z</time></trkpt><trkpt lat="39.57490804841826" lon="8.549880286344775"><ele>237.39999999999998</ele><time>2026-04-06T09:51:06Z</time></trkpt><trkpt lat="39.575000427046604" lon="8.549918426227961"><ele>237.2</ele><time>2026-04-06T09:51:07Z</time></trkpt><trkpt lat="39.575104491970286" lon="8.549954277723776"><ele>237.0</ele><time>2026-04-06T09:51:08Z</time></trkpt><trkpt lat="39.575198246333" lon="8.549973896661493"><ele>237.0</ele><time>2026-04-06T09:51:09Z</time></trkpt><trkpt lat="39.57531577707018" lon="8.550012559131957"><ele>237.0</ele><time>2026-04-06T09:51:10Z</time></trkpt><trkpt lat="39.575452902559356" lon="8.550031290185599"><ele>237.0</ele><time>2026-04-06T09:51:11Z</time></trkpt><trkpt lat="39.57562169566262" lon="8.550040663278834"><ele>237.0</ele><time>2026-04-06T09:51:12Z</time></trkpt><trkpt lat="39.57581034600908" lon="8.550050066088863"><ele>236.33333333333331</ele><time>2026-04-06T09:51:13Z</time></trkpt><trkpt lat="39.57601983564513" lon="8.550060507578065"><ele>235.66666666666666</ele><time>2026-04-06T09:51:14Z</time></trkpt><trkpt lat="39.57623675560029" lon="8.550072535886963"><ele>235.0</ele><time>2026-04-06T09:51:15Z</time></trkpt><trkpt lat="39.576436156127926" lon="8.550064995023552"><ele>234.33333333333331</ele><time>2026-04-06T09:51:16Z</time></trkpt><trkpt lat="39.57661553493669" lon="8.550082928031376"><ele>233.66666666666669</ele><time>2026-04-06T09:51:17Z</time></trkpt><trkpt lat="39.57678527109506" lon="8.550106537908919"><ele>233.0</ele><time>2026-04-06T09:51:18Z</time></trkpt><trkpt lat="39.57694335164339" lon="8.550185032938888"><ele>232.0</ele><time>2026-04-06T09:51:19Z</time></trkpt><trkpt lat="39.577092958015704" lon="8.550263899951913"><ele>231.0</ele><time>2026-04-06T09:51:20Z</time></trkpt><trkpt lat="39.577213416778754" lon="8.550312069132978"><ele>230.0</ele><time>2026-04-06T09:51:21Z</time></trkpt><trkpt lat="39.57732165517042" lon="8.550330142224354"><ele>229.0</ele><time>2026-04-06T09:51:22Z</time></trkpt><trkpt lat="39.57743073934395" lon="8.550283870323927"><ele>229.0</ele><time>2026-04-06T09:51:23Z</time></trkpt><trkpt lat="39.5775405916942" lon="8.550190291996136"><ele>229.0</ele><time>2026-04-06T09:51:24Z</time></trkpt><trkpt lat="39.57766385967579" lon="8.55014701364009"><ele>229.0</ele><time>2026-04-06T09:51:25Z</time></trkpt><trkpt lat="39.57780030979253" lon="8.550131556970554"><ele>229.0</ele><time>2026-04-06T09:51:26Z</time></trkpt><trkpt lat="39.57796505767613" lon="8.55012094409086"><ele>228.66666666666666</ele><time>2026-04-06T09:51:27Z</time></trkpt><trkpt lat="39.57815278924015" lon="8.550125595526646"><ele>228.33333333333331</ele><time>2026-04-06T09:51:28Z</time></trkpt><trkpt lat="39.578368756658485" lon="8.550132041390482"><ele>228.0</ele><time>2026-04-06T09:51:29Z</time></trkpt><trkpt lat="39.578600074682114" lon="8.55014893519832"><ele>227.33333333333331</ele><time>2026-04-06T09:51:30Z</time></trkpt><trkpt lat="39.57880020823303" lon="8.550168557811094"><ele>226.66666666666666</ele><time>2026-04-06T09:51:31Z</time></trkpt><trkpt lat="39.57894763350185" lon="8.550180214169275"><ele>226.0</ele><time>2026-04-06T09:51:32Z</time></trkpt><trkpt lat="39.57906021284504" lon="8.550157217882667"><ele>226.0</ele><time>2026-04-06T09:51:33Z</time></trkpt><trkpt lat="39.579173337869015" lon="8.550081582480107"><ele>226.0</ele><time>2026-04-06T09:51:34Z</time></trkpt><trkpt lat="39.5792773086512" lon="8.549945862431526"><ele>226.0</ele><time>2026-04-06T09:51:35Z</time></trkpt><trkpt lat="39.57936102151105" lon="8.5497686136586"><ele>226.0</ele><time>2026-04-06T09:51:36Z</time></trkpt><trkpt lat="39.579433340085274" lon="8.54956982848994"><ele>224.33333333333331</ele><time>2026-04-06T09:51:37Z</time></trkpt><trkpt lat="39.57948465109034" lon="8.54934842114772"><ele>222.66666666666669</ele><time>2026-04-06T09:51:38Z</time></trkpt><trkpt lat="39.579510414629866" lon="8.54910889250944"><ele>221.0</ele><time>2026-04-06T09:51:39Z</time></trkpt><trkpt lat="39.5795500750139" lon="8.548891782460334"><ele>219.0</ele><time>2026-04-06T09:51:40Z</time></trkpt><trkpt lat="39.57958577323574" lon="8.548708038312688"><ele>217.0</ele><time>2026-04-06T09:51:41Z</time></trkpt><trkpt lat="39.57965064841774" lon="8.548547863612752"><ele>215.0</ele><time>2026-04-06T09:51:42Z</time></trkpt><trkpt lat="39.579743691480154" lon="8.548415194733611"><ele>213.0</ele><time>2026-04-06T09:51:43Z</time></trkpt><trkpt lat="39.579833162983014" lon="8.548291582881056"><ele>213.0</ele><time>2026-04-06T09:51:44Z</time></trkpt><trkpt lat="39.579892338647454" lon="8.54817018280185"><ele>213.0</ele><time>2026-04-06T09:51:45Z</time></trkpt><trkpt lat="39.57994694120462" lon="8.548060004411424"><ele>213.0</ele><time>2026-04-06T09:51:46Z</time></trkpt><trkpt lat="39.57998450169768" lon="8.547959299473362"><ele>213.0</ele><time>2026-04-06T09:51:47Z</time></trkpt><trkpt lat="39.580010517435184" lon="8.54786899794994"><ele>213.0</ele><time>2026-04-06T09:51:48Z</time></trkpt><trkpt lat="39.58003759399504" lon="8.54777669376287"><ele>213.0</ele><time>2026-04-06T09:51:49Z</time></trkpt><trkpt lat="39.579990736563175" lon="8.54766581805136"><ele>216.25</ele><time>2026-04-06T09:51:50Z</time></trkpt><trkpt lat="39.579935988012345" lon="8.54756955174694"><ele>219.5</ele><time>2026-04-06T09:51:51Z</time></trkpt><trkpt lat="39.579857172376556" lon="8.547466681120651"><ele>222.75</ele><time>2026-04-06T09:51:52Z</time></trkpt><trkpt lat="39.57973539202649" lon="8.547369835462092"><ele>226.0</ele><time>2026-04-06T09:51:53Z</time></trkpt><trkpt lat="39.57959862162891" lon="8.547264688497199"><ele>226.66666666666666</ele><time>2026-04-06T09:51:54Z</time></trkpt><trkpt lat="39.579435097880996" lon="8.547161976935689"><ele>227.33333333333331</ele><time>2026-04-06T09:51:55Z</time></trkpt><trkpt lat="39.57929811571926" lon="8.547033120435804"><ele>228.0</ele><time>2026-04-06T09:51:56Z</time></trkpt><trkpt lat="39.57921932799568" lon="8.546887589720308"><ele>228.0</ele><time>2026-04-06T09:51:57Z</time></trkpt><trkpt lat="39.57912468040229" lon="8.546713946681576"><ele>228.0</ele><time>2026-04-06T09:51:58Z</time></trkpt><trkpt lat="39.578993409039825" lon="8.54655683284873"><ele>228.0</ele><time>2026-04-06T09:51:59Z</time></trkpt><trkpt lat="39.57885739593417" lon="8.546417648915085"><ele>228.0</ele><time>2026-04-06T09:52:00Z</time></trkpt><trkpt lat="39.578765684879215" lon="8.546286657614568"><ele>228.0</ele><time>2026-04-06T09:52:01Z</time></trkpt><trkpt lat="39.57870896356552" lon="8.54616825718221"><ele>228.0</ele><time>2026-04-06T09:52:02Z</time></trkpt><trkpt lat="39.57869863000705" lon="8.546048554337498"><ele>228.0</ele><time>2026-04-06T09:52:03Z</time></trkpt><trkpt lat="39.57871920410709" lon="8.545940853575924"><ele>228.0</ele><time>2026-04-06T09:52:04Z</time></trkpt><trkpt lat="39.57878848398606" lon="8.545835843804667"><ele>230.75</ele><time>2026-04-06T09:52:05Z</time></trkpt><trkpt lat="39.57886285031376" lon="8.545696726092254"><ele>233.5</ele><time>2026-04-06T09:52:06Z</time></trkpt><trkpt lat="39.57895380876264" lon="8.545548607688676"><ele>236.25</ele><time>2026-04-06T09:52:07Z</time></trkpt><trkpt lat="39.57906932743885" lon="8.545407027256879"><ele>239.0</ele><time>2026-04-06T09:52:08Z</time></trkpt><trkpt lat="39.5792178969917" lon="8.545285421752954"><ele>239.66666666666669</ele><time>2026-04-06T09:52:09Z</time></trkpt><trkpt lat="39.57937517897189" lon="8.545185529614786"><ele>240.33333333333331</ele><time>2026-04-06T09:52:10Z</time></trkpt><trkpt lat="39.57952346322854" lon="8.545070406904154"><ele>241.0</ele><time>2026-04-06T09:52:11Z</time></trkpt><trkpt lat="39.57968156503147" lon="8.545022176169233"><ele>243.0</ele><time>2026-04-06T09:52:12Z</time></trkpt><trkpt lat="39.57982240868856" lon="8.544955564126047"><ele>245.0</ele><time>2026-04-06T09:52:13Z</time></trkpt><trkpt lat="39.579977784594874" lon="8.544918348171489"><ele>247.0</ele><time>2026-04-06T09:52:14Z</time></trkpt><trkpt lat="39.58014301662961" lon="8.54486144017763"><ele>247.0</ele><time>2026-04-06T09:52:15Z</time></trkpt><trkpt lat="39.58031376941815" lon="8.54479618195021"><ele>247.0</ele><time>2026-04-06T09:52:16Z</time></trkpt><trkpt lat="39.58047383097596" lon="8.544728098615309"><ele>247.0</ele><time>2026-04-06T09:52:17Z</time></trkpt><trkpt lat="39.58061254048195" lon="8.544638203770688"><ele>247.33333333333331</ele><time>2026-04-06T09:52:18Z</time></trkpt><trkpt lat="39.58073933980959" lon="8.544502186683868"><ele>247.66666666666669</ele><time>2026-04-06T09:52:19Z</time></trkpt><trkpt lat="39.580847982704036" lon="8.544335352159534"><ele>248.0</ele><time>2026-04-06T09:52:20Z</time></trkpt><trkpt lat="39.58093882925772" lon="8.544150088438188"><ele>248.0</ele><time>2026-04-06T09:52:21Z</time></trkpt><trkpt lat="39.581030402972075" lon="8.543970781030646"><ele>248.0</ele><time>2026-04-06T09:52:22Z</time></trkpt><trkpt lat="39.58107389771441" lon="8.543743088258458"><ele>248.0</ele><time>2026-04-06T09:52:23Z</time></trkpt><trkpt lat="39.58110720946465" lon="8.543493826373352"><ele>247.33333333333334</ele><time>2026-04-06T09:52:24Z</time></trkpt><trkpt lat="39.58116314903489" lon="8.543235564938202"><ele>246.66666666666669</ele><time>2026-04-06T09:52:25Z</time></trkpt><trkpt lat="39.58120040521453" lon="8.543017297478466"><ele>246.0</ele><time>2026-04-06T09:52:26Z</time></trkpt><trkpt lat="39.58123789800996" lon="8.542840337531295"><ele>247.75</ele><time>2026-04-06T09:52:27Z</time></trkpt><trkpt lat="39.5812933145927" lon="8.54270700373834"><ele>249.5</ele><time>2026-04-06T09:52:28Z</time></trkpt><trkpt lat="39.58138750254009" lon="8.542612065937002"><ele>251.25</ele><time>2026-04-06T09:52:29Z</time></trkpt><trkpt lat="39.581486741867" lon="8.5425024370949"><ele>253.0</ele><time>2026-04-06T09:52:30Z</time></trkpt><trkpt lat="39.58153931772704" lon="8.54238535215963"><ele>253.0</ele><time>2026-04-06T09:52:31Z</time></trkpt><trkpt lat="39.581551370886324" lon="8.542281683363099"><ele>253.0</ele><time>2026-04-06T09:52:32Z</time></trkpt><trkpt lat="39.58154186852702" lon="8.542183571605477"><ele>253.0</ele><time>2026-04-06T09:52:33Z</time></trkpt><trkpt lat="39.58147377853683" lon="8.542086037171297"><ele>253.0</ele><time>2026-04-06T09:52:34Z</time></trkpt><trkpt lat="39.58139322466557" lon="8.541986268063493"><ele>253.0</ele><time>2026-04-06T09:52:35Z</time></trkpt><trkpt lat="39.58130878828169" lon="8.541875200713495"><ele>253.25</ele><time>2026-04-06T09:52:36Z</time></trkpt><trkpt lat="39.58123806084327" lon="8.54172980561508"><ele>253.5</ele><time>2026-04-06T09:52:37Z</time></trkpt><trkpt lat="39.58116266688214" lon="8.541575021780513"><ele>253.75</ele><time>2026-04-06T09:52:38Z</time></trkpt><trkpt lat="39.581107436658094" lon="8.541387908472528"><ele>254.0</ele><time>2026-04-06T09:52:39Z</time></trkpt><trkpt lat="39.58106434928956" lon="8.541187409993624"><ele>254.0</ele><time>2026-04-06T09:52:40Z</time></trkpt><trkpt lat="39.58102760934581" lon="8.54097694104082"><ele>254.0</ele><time>2026-04-06T09:52:41Z</time></trkpt><trkpt lat="39.58100455064573" lon="8.540763849261323"><ele>254.0</ele><time>2026-04-06T09:52:42Z</time></trkpt><trkpt lat="39.58099429540985" lon="8.540530948638441"><ele>256.0</ele><time>2026-04-06T09:52:43Z</time></trkpt><trkpt lat="39.580999118387695" lon="8.540276678970837"><ele>258.0</ele><time>2026-04-06T09:52:44Z</time></trkpt><trkpt lat="39.58101370467221" lon="8.540031632005148"><ele>260.0</ele><time>2026-04-06T09:52:45Z</time></trkpt><trkpt lat="39.5810203508252" lon="8.539819683838399"><ele>260.0</ele><time>2026-04-06T09:52:46Z</time></trkpt><trkpt lat="39.581027728065045" lon="8.5396276049525"><ele>260.0</ele><time>2026-04-06T09:52:47Z</time></trkpt><trkpt lat="39.58103851474238" lon="8.53944310419976"><ele>260.0</ele><time>2026-04-06T09:52:48Z</time></trkpt><trkpt lat="39.58105443273243" lon="8.539250303602"><ele>260.0</ele><time>2026-04-06T09:52:49Z</time></trkpt><trkpt lat="39.58107877774489" lon="8.539051589640122"><ele>260.33333333333337</ele><time>2026-04-06T09:52:50Z</time></trkpt><trkpt lat="39.58109910212696" lon="8.538856828097112"><ele>260.6666666666667</ele><time>2026-04-06T09:52:51Z</time></trkpt><trkpt lat="39.5811201594425" lon="8.538659614208823"><ele>261.0</ele><time>2026-04-06T09:52:52Z</time></trkpt><trkpt lat="39.58113881408267" lon="8.538458950573862"><ele>262.0</ele><time>2026-04-06T09:52:53Z</time></trkpt><trkpt lat="39.58113411514156" lon="8.538247780279066"><ele>263.0</ele><time>2026-04-06T09:52:54Z</time></trkpt><trkpt lat="39.581130132476055" lon="8.538031630342084"><ele>264.0</ele><time>2026-04-06T09:52:55Z</time></trkpt><trkpt lat="39.58111501138306" lon="8.537802052670493"><ele>265.5</ele><time>2026-04-06T09:52:56Z</time></trkpt><trkpt lat="39.58111505447319" lon="8.537586011010529"><ele>267.0</ele><time>2026-04-06T09:52:57Z</time></trkpt><trkpt lat="39.58110513678713" lon="8.537412764280333"><ele>268.5</ele><time>2026-04-06T09:52:58Z</time></trkpt><trkpt lat="39.581098394171065" lon="8.537289317220836"><ele>270.0</ele><time>2026-04-06T09:52:59Z</time></trkpt><trkpt lat="39.58108933848286" lon="8.537155242402328"><ele>270.0</ele><time>2026-04-06T09:53:01Z</time></trkpt><trkpt lat="39.581083582730706" lon="8.537070024669603"><ele>270.0</ele><time>2026-04-06T09:53:03Z</time></trkpt><trkpt lat="39.581077605193194" lon="8.536962930957637"><ele>270.0</ele><time>2026-04-06T09:53:05Z</time></trkpt><trkpt lat="39.581068663481304" lon="8.53680875376969"><ele>270.0</ele><time>2026-04-06T09:53:07Z</time></trkpt><trkpt lat="39.581052633975006" lon="8.536694451856235"><ele>270.0</ele><time>2026-04-06T09:53:08Z</time></trkpt><trkpt lat="39.581041116607715" lon="8.536576652889439"><ele>270.0</ele><time>2026-04-06T09:53:09Z</time></trkpt><trkpt lat="39.58103394832302" lon="8.536463833115205"><ele>270.8</ele><time>2026-04-06T09:53:10Z</time></trkpt><trkpt lat="39.58102128319372" lon="8.536344600861666"><ele>271.6</ele><time>2026-04-06T09:53:11Z</time></trkpt><trkpt lat="39.5810072126707" lon="8.536208602320771"><ele>272.4</ele><time>2026-04-06T09:53:12Z</time></trkpt><trkpt lat="39.58098310737531" lon="8.53606544782585"><ele>273.2</ele><time>2026-04-06T09:53:13Z</time></trkpt><trkpt lat="39.58096370889368" lon="8.535936181770476"><ele>274.0</ele><time>2026-04-06T09:53:14Z</time></trkpt><trkpt lat="39.58097063641457" lon="8.535835051184762"><ele>275.5</ele><time>2026-04-06T09:53:15Z</time></trkpt><trkpt lat="39.58101061020094" lon="8.535748795781872"><ele>277.0</ele><time>2026-04-06T09:53:16Z</time></trkpt><trkpt lat="39.58110438852998" lon="8.535667055573589"><ele>278.5</ele><time>2026-04-06T09:53:17Z</time></trkpt><trkpt lat="39.581177060085174" lon="8.535538941800358"><ele>280.0</ele><time>2026-04-06T09:53:18Z</time></trkpt><trkpt lat="39.581259949769795" lon="8.535391879098453"><ele>284.2</ele><time>2026-04-06T09:53:19Z</time></trkpt><trkpt lat="39.581315905918636" lon="8.535255299313548"><ele>288.4</ele><time>2026-04-06T09:53:20Z</time></trkpt><trkpt lat="39.58136935832833" lon="8.535153910833769"><ele>292.6</ele><time>2026-04-06T09:53:21Z</time></trkpt><trkpt lat="39.581418114851346" lon="8.535070741074875"><ele>296.8</ele><time>2026-04-06T09:53:22Z</time></trkpt><trkpt lat="39.58142848928978" lon="8.534973053393873"><ele>301.0</ele><time>2026-04-06T09:53:23Z</time></trkpt><trkpt lat="39.58137261268418" lon="8.53486213317602"><ele>301.0</ele><time>2026-04-06T09:53:24Z</time></trkpt><trkpt lat="39.581270461698566" lon="8.534797204838629"><ele>301.0</ele><time>2026-04-06T09:53:25Z</time></trkpt><trkpt lat="39.5812001116569" lon="8.534688083632934"><ele>301.0</ele><time>2026-04-06T09:53:26Z</time></trkpt><trkpt lat="39.581136172907996" lon="8.534561878851889"><ele>301.0</ele><time>2026-04-06T09:53:27Z</time></trkpt><trkpt lat="39.581122319313714" lon="8.534399776578708"><ele>302.25</ele><time>2026-04-06T09:53:28Z</time></trkpt><trkpt lat="39.58111871208584" lon="8.534242455670727"><ele>303.5</ele><time>2026-04-06T09:53:29Z</time></trkpt><trkpt lat="39.58112816292063" lon="8.53406725646833"><ele>304.75</ele><time>2026-04-06T09:53:30Z</time></trkpt><trkpt lat="39.58118407481096" lon="8.533888455878591"><ele>306.0</ele><time>2026-04-06T09:53:31Z</time></trkpt><trkpt lat="39.58120598324847" lon="8.533691311533655"><ele>306.0</ele><time>2026-04-06T09:53:32Z</time></trkpt><trkpt lat="39.58119163238465" lon="8.533519510454811"><ele>306.0</ele><time>2026-04-06T09:53:33Z</time></trkpt><trkpt lat="39.58121146516335" lon="8.53337138655874"><ele>306.0</ele><time>2026-04-06T09:53:34Z</time></trkpt><trkpt lat="39.581248049382886" lon="8.533225216885466"><ele>306.0</ele><time>2026-04-06T09:53:35Z</time></trkpt><trkpt lat="39.581300532490076" lon="8.53306036649206"><ele>304.0</ele><time>2026-04-06T09:53:36Z</time></trkpt><trkpt lat="39.58135755925073" lon="8.532877874836332"><ele>302.0</ele><time>2026-04-06T09:53:37Z</time></trkpt><trkpt lat="39.5814073178773" lon="8.532735109913903"><ele>300.0</ele><time>2026-04-06T09:53:38Z</time></trkpt><trkpt lat="39.58146746136048" lon="8.532625781936183"><ele>298.0</ele><time>2026-04-06T09:53:39Z</time></trkpt><trkpt lat="39.5815372735572" lon="8.5325456066137"><ele>298.0</ele><time>2026-04-06T09:53:40Z</time></trkpt><trkpt lat="39.58161673877307" lon="8.532506411726187"><ele>298.0</ele><time>2026-04-06T09:53:41Z</time></trkpt><trkpt lat="39.581702711569264" lon="8.532533616319732"><ele>298.0</ele><time>2026-04-06T09:53:42Z</time></trkpt><trkpt lat="39.58179252901673" lon="8.532598249070979"><ele>298.0</ele><time>2026-04-06T09:53:43Z</time></trkpt><trkpt lat="39.581865953586096" lon="8.532699521868473"><ele>298.0</ele><time>2026-04-06T09:53:44Z</time></trkpt><trkpt lat="39.58189489221278" lon="8.532842432833604"><ele>298.0</ele><time>2026-04-06T09:53:45Z</time></trkpt><trkpt lat="39.581940275038335" lon="8.532989904951068"><ele>298.0</ele><time>2026-04-06T09:53:46Z</time></trkpt><trkpt lat="39.581979392889245" lon="8.533168547862903"><ele>298.0</ele><time>2026-04-06T09:53:47Z</time></trkpt><trkpt lat="39.58203144074533" lon="8.533331290448945"><ele>298.0</ele><time>2026-04-06T09:53:48Z</time></trkpt><trkpt lat="39.582108125197806" lon="8.533480736390185"><ele>298.0</ele><time>2026-04-06T09:53:49Z</time></trkpt><trkpt lat="39.58222036821836" lon="8.53361388509458"><ele>298.0</ele><time>2026-04-06T09:53:50Z</time></trkpt><trkpt lat="39.582335628766124" lon="8.533749257106797"><ele>298.0</ele><time>2026-04-06T09:53:51Z</time></trkpt><trkpt lat="39.58241334468278" lon="8.53388129972742"><ele>298.0</ele><time>2026-04-06T09:53:52Z</time></trkpt><trkpt lat="39.58245786803183" lon="8.534013689651243"><ele>299.4</ele><time>2026-04-06T09:53:53Z</time></trkpt><trkpt lat="39.5825087842098" lon="8.534125689813653"><ele>300.8</ele><time>2026-04-06T09:53:54Z</time></trkpt><trkpt lat="39.58258571819438" lon="8.53419284580785"><ele>302.2</ele><time>2026-04-06T09:53:55Z</time></trkpt><trkpt lat="39.582681277839434" lon="8.534206469133155"><ele>303.6</ele><time>2026-04-06T09:53:56Z</time></trkpt><trkpt lat="39.582779099446824" lon="8.53416334393019"><ele>305.0</ele><time>2026-04-06T09:53:57Z</time></trkpt><trkpt lat="39.58285867691707" lon="8.53409396471031"><ele>305.75</ele><time>2026-04-06T09:53:58Z</time></trkpt><trkpt lat="39.5829171652942" lon="8.533971367529844"><ele>306.5</ele><time>2026-04-06T09:53:59Z</time></trkpt><trkpt lat="39.582937452540634" lon="8.533820184321511"><ele>307.25</ele><time>2026-04-06T09:54:00Z</time></trkpt><trkpt lat="39.58297624763382" lon="8.533674861008041"><ele>308.0</ele><time>2026-04-06T09:54:01Z</time></trkpt><trkpt lat="39.582997351308364" lon="8.533519959545167"><ele>308.0</ele><time>2026-04-06T09:54:02Z</time></trkpt><trkpt lat="39.583024864818256" lon="8.53335651359631"><ele>308.0</ele><time>2026-04-06T09:54:03Z</time></trkpt><trkpt lat="39.583065731696365" lon="8.53321314948515"><ele>308.0</ele><time>2026-04-06T09:54:04Z</time></trkpt><trkpt lat="39.583117525803694" lon="8.533092101154784"><ele>308.0</ele><time>2026-04-06T09:54:05Z</time></trkpt><trkpt lat="39.583199144549646" lon="8.532992649333988"><ele>303.0</ele><time>2026-04-06T09:54:06Z</time></trkpt><trkpt lat="39.583305740461775" lon="8.532882551648985"><ele>298.0</ele><time>2026-04-06T09:54:07Z</time></trkpt><trkpt lat="39.58339704837893" lon="8.532704848654811"><ele>293.0</ele><time>2026-04-06T09:54:08Z</time></trkpt><trkpt lat="39.58348560271111" lon="8.53252374314113"><ele>293.0</ele><time>2026-04-06T09:54:09Z</time></trkpt><trkpt lat="39.58358085584485" lon="8.532373081062067"><ele>293.0</ele><time>2026-04-06T09:54:10Z</time></trkpt><trkpt lat="39.58366290567176" lon="8.532250954435916"><ele>293.0</ele><time>2026-04-06T09:54:11Z</time></trkpt><trkpt lat="39.583765564849806" lon="8.532168533612786"><ele>293.0</ele><time>2026-04-06T09:54:12Z</time></trkpt><trkpt lat="39.58390079957722" lon="8.532124345010914"><ele>292.33333333333337</ele><time>2026-04-06T09:54:13Z</time></trkpt><trkpt lat="39.58405317705508" lon="8.532092053519749"><ele>291.6666666666667</ele><time>2026-04-06T09:54:14Z</time></trkpt><trkpt lat="39.58420812177718" lon="8.532035004291956"><ele>291.0</ele><time>2026-04-06T09:54:15Z</time></trkpt><trkpt lat="39.584351131736334" lon="8.531957052932823"><ele>291.0</ele><time>2026-04-06T09:54:16Z</time></trkpt><trkpt lat="39.584494780717144" lon="8.531821636232905"><ele>291.0</ele><time>2026-04-06T09:54:17Z</time></trkpt><trkpt lat="39.58462860343423" lon="8.53164555249787"><ele>291.0</ele><time>2026-04-06T09:54:18Z</time></trkpt><trkpt lat="39.58480539528298" lon="8.531518200333926"><ele>295.3333333333333</ele><time>2026-04-06T09:54:19Z</time></trkpt><trkpt lat="39.58497996708319" lon="8.531405066821764"><ele>299.66666666666663</ele><time>2026-04-06T09:54:20Z</time></trkpt><trkpt lat="39.58512321066643" lon="8.531322444601274"><ele>304.0</ele><time>2026-04-06T09:54:21Z</time></trkpt><trkpt lat="39.585234158259304" lon="8.53127733735593"><ele>304.75</ele><time>2026-04-06T09:54:22Z</time></trkpt><trkpt lat="39.58535598979763" lon="8.531248669318463"><ele>305.5</ele><time>2026-04-06T09:54:23Z</time></trkpt><trkpt lat="39.58550072471568" lon="8.531196797849194"><ele>306.25</ele><time>2026-04-06T09:54:24Z</time></trkpt><trkpt lat="39.58566468738315" lon="8.531163150459404"><ele>307.0</ele><time>2026-04-06T09:54:25Z</time></trkpt><trkpt lat="39.5858404400297" lon="8.531133159131516"><ele>303.3333333333333</ele><time>2026-04-06T09:54:26Z</time></trkpt><trkpt lat="39.58599156497966" lon="8.531039097349291"><ele>299.6666666666667</ele><time>2026-04-06T09:54:27Z</time></trkpt><trkpt lat="39.58613773017628" lon="8.530998549538051"><ele>296.0</ele><time>2026-04-06T09:54:28Z</time></trkpt><trkpt lat="39.5862697980739" lon="8.530982470727944"><ele>294.0</ele><time>2026-04-06T09:54:29Z</time></trkpt><trkpt lat="39.58640366487973" lon="8.531008549513327"><ele>292.0</ele><time>2026-04-06T09:54:30Z</time></trkpt><trkpt lat="39.58655498510771" lon="8.5310282061543"><ele>290.0</ele><time>2026-04-06T09:54:31Z</time></trkpt><trkpt lat="39.58671673059971" lon="8.53107038085453"><ele>290.0</ele><time>2026-04-06T09:54:32Z</time></trkpt><trkpt lat="39.58688187527777" lon="8.531096316853608"><ele>290.0</ele><time>2026-04-06T09:54:33Z</time></trkpt><trkpt lat="39.587056113546765" lon="8.531133469839842"><ele>290.0</ele><time>2026-04-06T09:54:34Z</time></trkpt><trkpt lat="39.58720799326688" lon="8.531169358520097"><ele>289.5</ele><time>2026-04-06T09:54:35Z</time></trkpt><trkpt lat="39.58734762674578" lon="8.5312028465428"><ele>289.0</ele><time>2026-04-06T09:54:36Z</time></trkpt><trkpt lat="39.58747622891663" lon="8.531244777614601"><ele>288.5</ele><time>2026-04-06T09:54:37Z</time></trkpt><trkpt lat="39.5875902007481" lon="8.531323047447989"><ele>288.0</ele><time>2026-04-06T09:54:38Z</time></trkpt><trkpt lat="39.587696640792814" lon="8.531437879048216"><ele>290.6666666666667</ele><time>2026-04-06T09:54:39Z</time></trkpt><trkpt lat="39.58781334564864" lon="8.531575740710739"><ele>293.33333333333337</ele><time>2026-04-06T09:54:40Z</time></trkpt><trkpt lat="39.58792680825392" lon="8.531727238090166"><ele>296.0</ele><time>2026-04-06T09:54:41Z</time></trkpt><trkpt lat="39.58801139555362" lon="8.531882915835565"><ele>296.0</ele><time>2026-04-06T09:54:42Z</time></trkpt><trkpt lat="39.5880696654451" lon="8.532008761098167"><ele>296.0</ele><time>2026-04-06T09:54:43Z</time></trkpt><trkpt lat="39.58812820390796" lon="8.532087415054043"><ele>296.0</ele><time>2026-04-06T09:54:44Z</time></trkpt><trkpt lat="39.588204764734684" lon="8.532117112870305"><ele>296.0</ele><time>2026-04-06T09:54:45Z</time></trkpt><trkpt lat="39.588285136441" lon="8.532095497312712"><ele>296.0</ele><time>2026-04-06T09:54:46Z</time></trkpt><trkpt lat="39.58836944070999" lon="8.532046695906251"><ele>296.0</ele><time>2026-04-06T09:54:47Z</time></trkpt><trkpt lat="39.588418034978055" lon="8.531899344162971"><ele>296.0</ele><time>2026-04-06T09:54:48Z</time></trkpt><trkpt lat="39.588461603156404" lon="8.531731854895611"><ele>296.0</ele><time>2026-04-06T09:54:49Z</time></trkpt><trkpt lat="39.588539840776505" lon="8.531562670916147"><ele>296.0</ele><time>2026-04-06T09:54:50Z</time></trkpt><trkpt lat="39.58863065158397" lon="8.531404656586329"><ele>300.33333333333337</ele><time>2026-04-06T09:54:51Z</time></trkpt><trkpt lat="39.58872015093406" lon="8.531259235421626"><ele>304.6666666666667</ele><time>2026-04-06T09:54:52Z</time></trkpt><trkpt lat="39.58881518672682" lon="8.531105874633939"><ele>309.0</ele><time>2026-04-06T09:54:53Z</time></trkpt><trkpt lat="39.58887835261722" lon="8.530912841517013"><ele>309.0</ele><time>2026-04-06T09:54:54Z</time></trkpt><trkpt lat="39.58893223101733" lon="8.530696712744719"><ele>309.0</ele><time>2026-04-06T09:54:55Z</time></trkpt><trkpt lat="39.58896956192322" lon="8.530437773726458"><ele>309.0</ele><time>2026-04-06T09:54:56Z</time></trkpt><trkpt lat="39.58902845384681" lon="8.530184793240569"><ele>308.5</ele><time>2026-04-06T09:54:57Z</time></trkpt><trkpt lat="39.58907003966583" lon="8.529980197875092"><ele>308.0</ele><time>2026-04-06T09:54:58Z</time></trkpt><trkpt lat="39.58911633342063" lon="8.529842159691844"><ele>307.5</ele><time>2026-04-06T09:54:59Z</time></trkpt><trkpt lat="39.589171611876694" lon="8.529732425620992"><ele>307.0</ele><time>2026-04-06T09:55:00Z</time></trkpt><trkpt lat="39.58925137197133" lon="8.529661367447702"><ele>307.0</ele><time>2026-04-06T09:55:01Z</time></trkpt><trkpt lat="39.58935764556101" lon="8.529605732383013"><ele>307.0</ele><time>2026-04-06T09:55:02Z</time></trkpt><trkpt lat="39.58947650152383" lon="8.529518257188958"><ele>307.0</ele><time>2026-04-06T09:55:03Z</time></trkpt><trkpt lat="39.589618192377806" lon="8.529428721285019"><ele>307.0</ele><time>2026-04-06T09:55:04Z</time></trkpt><trkpt lat="39.58976930892301" lon="8.529325004278261"><ele>307.3333333333333</ele><time>2026-04-06T09:55:05Z</time></trkpt><trkpt lat="39.58993194967083" lon="8.52920873854243"><ele>307.6666666666667</ele><time>2026-04-06T09:55:06Z</time></trkpt><trkpt lat="39.59011533741802" lon="8.529102057167936"><ele>308.0</ele><time>2026-04-06T09:55:07Z</time></trkpt><trkpt lat="39.59029778266083" lon="8.52899088122234"><ele>309.25</ele><time>2026-04-06T09:55:08Z</time></trkpt><trkpt lat="39.59044332992528" lon="8.52890020862362"><ele>310.5</ele><time>2026-04-06T09:55:09Z</time></trkpt><trkpt lat="39.590569957738424" lon="8.528882158049024"><ele>311.75</ele><time>2026-04-06T09:55:10Z</time></trkpt><trkpt lat="39.59067116329966" lon="8.528883044157144"><ele>313.0</ele><time>2026-04-06T09:55:11Z</time></trkpt><trkpt lat="39.590773853634076" lon="8.528887826285914"><ele>313.0</ele><time>2026-04-06T09:55:12Z</time></trkpt><trkpt lat="39.590891308890704" lon="8.528936167243321"><ele>313.0</ele><time>2026-04-06T09:55:13Z</time></trkpt><trkpt lat="39.59103272667957" lon="8.52897157636784"><ele>313.0</ele><time>2026-04-06T09:55:14Z</time></trkpt><trkpt lat="39.59119372980976" lon="8.528971163754653"><ele>313.0</ele><time>2026-04-06T09:55:15Z</time></trkpt><trkpt lat="39.591378133903575" lon="8.52893838092545"><ele>311.0</ele><time>2026-04-06T09:55:16Z</time></trkpt><trkpt lat="39.5915652034387" lon="8.528898405630676"><ele>309.0</ele><time>2026-04-06T09:55:17Z</time></trkpt><trkpt lat="39.59175024179142" lon="8.528870064685394"><ele>307.0</ele><time>2026-04-06T09:55:18Z</time></trkpt><trkpt lat="39.59194948074168" lon="8.528840727703638"><ele>306.0</ele><time>2026-04-06T09:55:19Z</time></trkpt><trkpt lat="39.59213679201193" lon="8.528810478731083"><ele>305.0</ele><time>2026-04-06T09:55:20Z</time></trkpt><trkpt lat="39.59229032122673" lon="8.52879134160741"><ele>304.0</ele><time>2026-04-06T09:55:21Z</time></trkpt><trkpt lat="39.59240504276633" lon="8.52878956374443"><ele>304.0</ele><time>2026-04-06T09:55:22Z</time></trkpt><trkpt lat="39.592498778345295" lon="8.52885646506373"><ele>304.0</ele><time>2026-04-06T09:55:23Z</time></trkpt><trkpt lat="39.59259961049535" lon="8.528916164375971"><ele>304.0</ele><time>2026-04-06T09:55:24Z</time></trkpt><trkpt lat="39.59268579469631" lon="8.529040173583319"><ele>304.0</ele><time>2026-04-06T09:55:25Z</time></trkpt><trkpt lat="39.592775362677536" lon="8.529189059490687"><ele>300.25</ele><time>2026-04-06T09:55:26Z</time></trkpt><trkpt lat="39.59287054869213" lon="8.529354581623858"><ele>296.5</ele><time>2026-04-06T09:55:27Z</time></trkpt><trkpt lat="39.59296435663481" lon="8.529514436914354"><ele>292.75</ele><time>2026-04-06T09:55:28Z</time></trkpt><trkpt lat="39.59303920684884" lon="8.529658797646388"><ele>289.0</ele><time>2026-04-06T09:55:29Z</time></trkpt><trkpt lat="39.5930845365469" lon="8.529801962377752"><ele>289.0</ele><time>2026-04-06T09:55:30Z</time></trkpt><trkpt lat="39.593102692278535" lon="8.52996177590677"><ele>289.0</ele><time>2026-04-06T09:55:31Z</time></trkpt><trkpt lat="39.59309743712284" lon="8.530143760119017"><ele>289.0</ele><time>2026-04-06T09:55:32Z</time></trkpt><trkpt lat="39.59310382009791" lon="8.530309682537899"><ele>289.0</ele><time>2026-04-06T09:55:33Z</time></trkpt><trkpt lat="39.59315134876506" lon="8.530456479432987"><ele>291.0</ele><time>2026-04-06T09:55:34Z</time></trkpt><trkpt lat="39.593244387641576" lon="8.530584694735708"><ele>293.0</ele><time>2026-04-06T09:55:35Z</time></trkpt><trkpt lat="39.59334644121661" lon="8.530721814796523"><ele>295.0</ele><time>2026-04-06T09:55:36Z</time></trkpt><trkpt lat="39.59341379645165" lon="8.530876603765726"><ele>297.0</ele><time>2026-04-06T09:55:37Z</time></trkpt><trkpt lat="39.593459790295576" lon="8.531071528996266"><ele>299.6666666666667</ele><time>2026-04-06T09:55:38Z</time></trkpt><trkpt lat="39.593496280365194" lon="8.531277177248851"><ele>302.33333333333337</ele><time>2026-04-06T09:55:39Z</time></trkpt><trkpt lat="39.59354729522954" lon="8.531498823171338"><ele>305.0</ele><time>2026-04-06T09:55:40Z</time></trkpt><trkpt lat="39.593621733033984" lon="8.5317149007104"><ele>303.6666666666667</ele><time>2026-04-06T09:55:41Z</time></trkpt><trkpt lat="39.59370855145377" lon="8.531907717391853"><ele>302.3333333333333</ele><time>2026-04-06T09:55:42Z</time></trkpt><trkpt lat="39.593788044808214" lon="8.532074889435025"><ele>301.0</ele><time>2026-04-06T09:55:43Z</time></trkpt><trkpt lat="39.5938582583087" lon="8.532230961985144"><ele>301.0</ele><time>2026-04-06T09:55:44Z</time></trkpt><trkpt lat="39.59391891738946" lon="8.532361750603037"><ele>301.0</ele><time>2026-04-06T09:55:45Z</time></trkpt><trkpt lat="39.59398087448261" lon="8.532456622284514"><ele>301.0</ele><time>2026-04-06T09:55:46Z</time></trkpt><trkpt lat="39.594052646893154" lon="8.532505741924252"><ele>301.0</ele><time>2026-04-06T09:55:47Z</time></trkpt><trkpt lat="39.59412948591974" lon="8.532515958657196"><ele>301.0</ele><time>2026-04-06T09:55:48Z</time></trkpt><trkpt lat="39.59423118738055" lon="8.532432629325966"><ele>301.0</ele><time>2026-04-06T09:55:49Z</time></trkpt><trkpt lat="39.59431328507763" lon="8.532319935383132"><ele>301.0</ele><time>2026-04-06T09:55:50Z</time></trkpt><trkpt lat="39.59438610594482" lon="8.532164930227822"><ele>301.0</ele><time>2026-04-06T09:55:51Z</time></trkpt><trkpt lat="39.59449041688536" lon="8.532007611395597"><ele>301.0</ele><time>2026-04-06T09:55:52Z</time></trkpt><trkpt lat="39.59460231880555" lon="8.531822141273741"><ele>303.0</ele><time>2026-04-06T09:55:53Z</time></trkpt><trkpt lat="39.594693450932304" lon="8.5316283276021"><ele>305.0</ele><time>2026-04-06T09:55:54Z</time></trkpt><trkpt lat="39.59479954241565" lon="8.53145890915928"><ele>307.0</ele><time>2026-04-06T09:55:55Z</time></trkpt><trkpt lat="39.59490635629017" lon="8.531315271518844"><ele>307.0</ele><time>2026-04-06T09:55:56Z</time></trkpt><trkpt lat="39.59503715905983" lon="8.531226742155292"><ele>307.0</ele><time>2026-04-06T09:55:57Z</time></trkpt><trkpt lat="39.59517500184903" lon="8.531122924502318"><ele>307.0</ele><time>2026-04-06T09:55:58Z</time></trkpt><trkpt lat="39.59532426387591" lon="8.531042476982924"><ele>304.3333333333333</ele><time>2026-04-06T09:55:59Z</time></trkpt><trkpt lat="39.595487083276694" lon="8.530987189064238"><ele>301.6666666666667</ele><time>2026-04-06T09:56:00Z</time></trkpt><trkpt lat="39.595649124266146" lon="8.530933003716054"><ele>299.0</ele><time>2026-04-06T09:56:01Z</time></trkpt><trkpt lat="39.595787165950185" lon="8.53086421879033"><ele>299.0</ele><time>2026-04-06T09:56:02Z</time></trkpt><trkpt lat="39.59590901295016" lon="8.530824253581622"><ele>299.0</ele><time>2026-04-06T09:56:03Z</time></trkpt><trkpt lat="39.59601507872337" lon="8.530836538405831"><ele>299.0</ele><time>2026-04-06T09:56:04Z</time></trkpt><trkpt lat="39.59610518910689" lon="8.530878025234333"><ele>299.0</ele><time>2026-04-06T09:56:05Z</time></trkpt><trkpt lat="39.59620304866201" lon="8.53095381653499"><ele>299.0</ele><time>2026-04-06T09:56:06Z</time></trkpt><trkpt lat="39.596341495771" lon="8.531043042141015"><ele>297.25</ele><time>2026-04-06T09:56:07Z</time></trkpt><trkpt lat="39.59647735998352" lon="8.531148269794791"><ele>295.5</ele><time>2026-04-06T09:56:08Z</time></trkpt><trkpt lat="39.596594373268644" lon="8.53126678625516"><ele>293.75</ele><time>2026-04-06T09:56:09Z</time></trkpt><trkpt lat="39.59669852103855" lon="8.531367138201071"><ele>292.0</ele><time>2026-04-06T09:56:10Z</time></trkpt><trkpt lat="39.59677132822758" lon="8.531508300331906"><ele>292.5</ele><time>2026-04-06T09:56:11Z</time></trkpt><trkpt lat="39.59684446173895" lon="8.531663254703563"><ele>293.0</ele><time>2026-04-06T09:56:12Z</time></trkpt><trkpt lat="39.59693837978214" lon="8.531807753502965"><ele>293.5</ele><time>2026-04-06T09:56:13Z</time></trkpt><trkpt lat="39.59706096828783" lon="8.53193995369686"><ele>294.0</ele><time>2026-04-06T09:56:14Z</time></trkpt><trkpt lat="39.59718952738056" lon="8.532063073300007"><ele>297.25</ele><time>2026-04-06T09:56:15Z</time></trkpt><trkpt lat="39.59728523617085" lon="8.53218870383778"><ele>300.5</ele><time>2026-04-06T09:56:16Z</time></trkpt><trkpt lat="39.59735643027882" lon="8.532331531006495"><ele>303.75</ele><time>2026-04-06T09:56:17Z</time></trkpt><trkpt lat="39.597451886900124" lon="8.532430457336334"><ele>307.0</ele><time>2026-04-06T09:56:18Z</time></trkpt><trkpt lat="39.597479152849345" lon="8.532618823171505"><ele>307.0</ele><time>2026-04-06T09:56:19Z</time></trkpt><trkpt lat="39.597548235327544" lon="8.532701022171748"><ele>307.0</ele><time>2026-04-06T09:56:20Z</time></trkpt><trkpt lat="39.597642334141725" lon="8.532723332334648"><ele>307.0</ele><time>2026-04-06T09:56:21Z</time></trkpt><trkpt lat="39.597742544418615" lon="8.532688488136044"><ele>307.0</ele><time>2026-04-06T09:56:22Z</time></trkpt><trkpt lat="39.59784028706272" lon="8.532593250296639"><ele>307.0</ele><time>2026-04-06T09:56:23Z</time></trkpt><trkpt lat="39.59793171321253" lon="8.532458590164149"><ele>305.3333333333333</ele><time>2026-04-06T09:56:24Z</time></trkpt><trkpt lat="39.59803201335939" lon="8.532314559105163"><ele>303.6666666666667</ele><time>2026-04-06T09:56:25Z</time></trkpt><trkpt lat="39.598141466064355" lon="8.532171420396734"><ele>302.0</ele><time>2026-04-06T09:56:26Z</time></trkpt><trkpt lat="39.59824942714729" lon="8.532035154542248"><ele>302.0</ele><time>2026-04-06T09:56:27Z</time></trkpt><trkpt lat="39.59834365498094" lon="8.531917939262602"><ele>302.0</ele><time>2026-04-06T09:56:28Z</time></trkpt><trkpt lat="39.59843926205998" lon="8.531833467878734"><ele>302.0</ele><time>2026-04-06T09:56:29Z</time></trkpt><trkpt lat="39.59855217386144" lon="8.531783092412473"><ele>302.0</ele><time>2026-04-06T09:56:30Z</time></trkpt><trkpt lat="39.59868366879478" lon="8.531755007923893"><ele>303.33333333333337</ele><time>2026-04-06T09:56:31Z</time></trkpt><trkpt lat="39.59882902347348" lon="8.531715224826305"><ele>304.6666666666667</ele><time>2026-04-06T09:56:32Z</time></trkpt><trkpt lat="39.59898019503196" lon="8.531662380075502"><ele>306.0</ele><time>2026-04-06T09:56:33Z</time></trkpt><trkpt lat="39.599141540977826" lon="8.531609103618"><ele>306.0</ele><time>2026-04-06T09:56:34Z</time></trkpt><trkpt lat="39.5993025836917" lon="8.53156151057631"><ele>306.0</ele><time>2026-04-06T09:56:35Z</time></trkpt><trkpt lat="39.59944385450035" lon="8.531518624804512"><ele>306.0</ele><time>2026-04-06T09:56:36Z</time></trkpt><trkpt lat="39.59955766124734" lon="8.531478929305349"><ele>306.0</ele><time>2026-04-06T09:56:37Z</time></trkpt><trkpt lat="39.59965232986404" lon="8.531404648966825"><ele>306.0</ele><time>2026-04-06T09:56:38Z</time></trkpt><trkpt lat="39.599722646940066" lon="8.531281542146502"><ele>306.0</ele><time>2026-04-06T09:56:39Z</time></trkpt><trkpt lat="39.59976096979824" lon="8.531110953416029"><ele>306.0</ele><time>2026-04-06T09:56:40Z</time></trkpt><trkpt lat="39.59979946221245" lon="8.530908619760206"><ele>306.0</ele><time>2026-04-06T09:56:41Z</time></trkpt><trkpt lat="39.59985788146446" lon="8.530692766727183"><ele>306.0</ele><time>2026-04-06T09:56:42Z</time></trkpt><trkpt lat="39.59992039879923" lon="8.53044847041501"><ele>306.0</ele><time>2026-04-06T09:56:43Z</time></trkpt><trkpt lat="39.599981659985716" lon="8.530195720796382"><ele>306.0</ele><time>2026-04-06T09:56:44Z</time></trkpt><trkpt lat="39.60004891894633" lon="8.529955970330949"><ele>304.3333333333333</ele><time>2026-04-06T09:56:45Z</time></trkpt><trkpt lat="39.60011187874707" lon="8.529727231142695"><ele>302.66666666666663</ele><time>2026-04-06T09:56:46Z</time></trkpt><trkpt lat="39.60017072575193" lon="8.529478633157243"><ele>301.0</ele><time>2026-04-06T09:56:47Z</time></trkpt><trkpt lat="39.6002216906093" lon="8.529247594997077"><ele>300.5</ele><time>2026-04-06T09:56:48Z</time></trkpt><trkpt lat="39.600267942737" lon="8.52905313070117"><ele>300.0</ele><time>2026-04-06T09:56:49Z</time></trkpt><trkpt lat="39.600310102298884" lon="8.528890923198048"><ele>299.5</ele><time>2026-04-06T09:56:50Z</time></trkpt><trkpt lat="39.6003560797253" lon="8.528767522105992"><ele>299.0</ele><time>2026-04-06T09:56:51Z</time></trkpt><trkpt lat="39.60042182579947" lon="8.528682365335314"><ele>300.5</ele><time>2026-04-06T09:56:52Z</time></trkpt><trkpt lat="39.60051031830267" lon="8.528626994301906"><ele>302.0</ele><time>2026-04-06T09:56:53Z</time></trkpt><trkpt lat="39.600613947623394" lon="8.528562896423349"><ele>303.5</ele><time>2026-04-06T09:56:54Z</time></trkpt><trkpt lat="39.60073540396159" lon="8.52848959679803"><ele>305.0</ele><time>2026-04-06T09:56:55Z</time></trkpt><trkpt lat="39.60086847928662" lon="8.528403120128974"><ele>305.0</ele><time>2026-04-06T09:56:56Z</time></trkpt><trkpt lat="39.601002123006396" lon="8.528284388767316"><ele>305.0</ele><time>2026-04-06T09:56:57Z</time></trkpt><trkpt lat="39.60112682756359" lon="8.528145453795249"><ele>305.0</ele><time>2026-04-06T09:56:58Z</time></trkpt><trkpt lat="39.60124238695146" lon="8.52799168720702"><ele>305.6666666666667</ele><time>2026-04-06T09:56:59Z</time></trkpt><trkpt lat="39.60133996623708" lon="8.527824048358257"><ele>306.3333333333333</ele><time>2026-04-06T09:57:00Z</time></trkpt><trkpt lat="39.60140990158032" lon="8.527629964877384"><ele>307.0</ele><time>2026-04-06T09:57:01Z</time></trkpt><trkpt lat="39.60147303387208" lon="8.527424945787399"><ele>307.0</ele><time>2026-04-06T09:57:02Z</time></trkpt><trkpt lat="39.6015368541212" lon="8.52724573437281"><ele>307.0</ele><time>2026-04-06T09:57:03Z</time></trkpt><trkpt lat="39.60159896715475" lon="8.52710645237667"><ele>307.0</ele><time>2026-04-06T09:57:04Z</time></trkpt><trkpt lat="39.60167975506" lon="8.527009721883559"><ele>307.0</ele><time>2026-04-06T09:57:05Z</time></trkpt><trkpt lat="39.6017921885239" lon="8.526945643960316"><ele>305.5</ele><time>2026-04-06T09:57:06Z</time></trkpt><trkpt lat="39.60191888035574" lon="8.526900968395488"><ele>304.0</ele><time>2026-04-06T09:57:07Z</time></trkpt><trkpt lat="39.60205007068669" lon="8.526843317673247"><ele>302.5</ele><time>2026-04-06T09:57:08Z</time></trkpt><trkpt lat="39.60218192193526" lon="8.526767855427467"><ele>301.0</ele><time>2026-04-06T09:57:09Z</time></trkpt><trkpt lat="39.602315781385904" lon="8.526687055563928"><ele>301.0</ele><time>2026-04-06T09:57:10Z</time></trkpt><trkpt lat="39.60245276449218" lon="8.526605646804027"><ele>301.0</ele><time>2026-04-06T09:57:11Z</time></trkpt><trkpt lat="39.602588057877824" lon="8.526542373405933"><ele>301.0</ele><time>2026-04-06T09:57:12Z</time></trkpt><trkpt lat="39.602712236174746" lon="8.526488589613932"><ele>301.0</ele><time>2026-04-06T09:57:13Z</time></trkpt><trkpt lat="39.602830819126105" lon="8.526436555831005"><ele>301.25</ele><time>2026-04-06T09:57:14Z</time></trkpt><trkpt lat="39.60294934937811" lon="8.526424714106565"><ele>301.5</ele><time>2026-04-06T09:57:15Z</time></trkpt><trkpt lat="39.60306073060218" lon="8.526464712888503"><ele>301.75</ele><time>2026-04-06T09:57:16Z</time></trkpt><trkpt lat="39.6031789833856" lon="8.526496725512978"><ele>302.0</ele><time>2026-04-06T09:57:17Z</time></trkpt><trkpt lat="39.60329800729535" lon="8.526530271721533"><ele>302.0</ele><time>2026-04-06T09:57:18Z</time></trkpt><trkpt lat="39.60341078034205" lon="8.526589501157023"><ele>302.0</ele><time>2026-04-06T09:57:19Z</time></trkpt><trkpt lat="39.603516837965834" lon="8.526659067809385"><ele>302.0</ele><time>2026-04-06T09:57:20Z</time></trkpt><trkpt lat="39.603596173723055" lon="8.526725860190327"><ele>302.0</ele><time>2026-04-06T09:57:21Z</time></trkpt><trkpt lat="39.60368126318825" lon="8.526741603469771"><ele>302.0</ele><time>2026-04-06T09:57:22Z</time></trkpt><trkpt lat="39.60375151588322" lon="8.526699318096032"><ele>301.6</ele><time>2026-04-06T09:57:23Z</time></trkpt><trkpt lat="39.60380254346684" lon="8.526603805345063"><ele>301.2</ele><time>2026-04-06T09:57:24Z</time></trkpt><trkpt lat="39.60380195863124" lon="8.526474462786577"><ele>300.8</ele><time>2026-04-06T09:57:25Z</time></trkpt><trkpt lat="39.6037691581334" lon="8.52633400966315"><ele>300.4</ele><time>2026-04-06T09:57:26Z</time></trkpt><trkpt lat="39.60376421390005" lon="8.52616304677482"><ele>300.0</ele><time>2026-04-06T09:57:27Z</time></trkpt><trkpt lat="39.60378457570807" lon="8.525995723392581"><ele>300.0</ele><time>2026-04-06T09:57:28Z</time></trkpt><trkpt lat="39.60381971311293" lon="8.525815057557066"><ele>300.0</ele><time>2026-04-06T09:57:29Z</time></trkpt><trkpt lat="39.603864333188255" lon="8.525625916410995"><ele>300.0</ele><time>2026-04-06T09:57:30Z</time></trkpt><trkpt lat="39.603908883338626" lon="8.525460486055179"><ele>300.0</ele><time>2026-04-06T09:57:31Z</time></trkpt><trkpt lat="39.60397033628391" lon="8.52531251283243"><ele>297.25</ele><time>2026-04-06T09:57:32Z</time></trkpt><trkpt lat="39.60405217962664" lon="8.525194475235987"><ele>294.5</ele><time>2026-04-06T09:57:33Z</time></trkpt><trkpt lat="39.604152377824" lon="8.525106600573167"><ele>291.75</ele><time>2026-04-06T09:57:34Z</time></trkpt><trkpt lat="39.60425094070268" lon="8.525007165135154"><ele>289.0</ele><time>2026-04-06T09:57:35Z</time></trkpt><trkpt lat="39.604360239900814" lon="8.524922032538475"><ele>289.0</ele><time>2026-04-06T09:57:36Z</time></trkpt><trkpt lat="39.604437523931054" lon="8.524815157532279"><ele>289.0</ele><time>2026-04-06T09:57:37Z</time></trkpt><trkpt lat="39.60446594825458" lon="8.524675659579193"><ele>289.0</ele><time>2026-04-06T09:57:38Z</time></trkpt><trkpt lat="39.604452062908926" lon="8.524508127044626"><ele>289.0</ele><time>2026-04-06T09:57:39Z</time></trkpt><trkpt lat="39.604435116838616" lon="8.524343126091997"><ele>287.5</ele><time>2026-04-06T09:57:40Z</time></trkpt><trkpt lat="39.604423190170124" lon="8.524180788856716"><ele>286.0</ele><time>2026-04-06T09:57:41Z</time></trkpt><trkpt lat="39.6044417638447" lon="8.524039888991153"><ele>284.5</ele><time>2026-04-06T09:57:42Z</time></trkpt><trkpt lat="39.604490473284166" lon="8.523908645487408"><ele>283.0</ele><time>2026-04-06T09:57:43Z</time></trkpt><trkpt lat="39.60455624779265" lon="8.52376392750492"><ele>284.25</ele><time>2026-04-06T09:57:44Z</time></trkpt><trkpt lat="39.60464497958429" lon="8.523631406431647"><ele>285.5</ele><time>2026-04-06T09:57:45Z</time></trkpt><trkpt lat="39.60474127640874" lon="8.523513388887245"><ele>286.75</ele><time>2026-04-06T09:57:46Z</time></trkpt><trkpt lat="39.604838982644154" lon="8.52339501727919"><ele>288.0</ele><time>2026-04-06T09:57:47Z</time></trkpt><trkpt lat="39.60494627264584" lon="8.523263514180433"><ele>288.0</ele><time>2026-04-06T09:57:48Z</time></trkpt><trkpt lat="39.60507207333978" lon="8.5231101606594"><ele>288.0</ele><time>2026-04-06T09:57:49Z</time></trkpt><trkpt lat="39.60520011067641" lon="8.522954580007246"><ele>288.0</ele><time>2026-04-06T09:57:50Z</time></trkpt><trkpt lat="39.60531324961278" lon="8.522818674151958"><ele>285.25</ele><time>2026-04-06T09:57:51Z</time></trkpt><trkpt lat="39.60541215118821" lon="8.522713092673994"><ele>282.5</ele><time>2026-04-06T09:57:52Z</time></trkpt><trkpt lat="39.60551226819368" lon="8.522652073259268"><ele>279.75</ele><time>2026-04-06T09:57:53Z</time></trkpt><trkpt lat="39.60562154321241" lon="8.52266075297573"><ele>277.0</ele><time>2026-04-06T09:57:54Z</time></trkpt><trkpt lat="39.60576110362336" lon="8.522657401007931"><ele>277.0</ele><time>2026-04-06T09:57:55Z</time></trkpt><trkpt lat="39.605925946942854" lon="8.522642413659117"><ele>277.0</ele><time>2026-04-06T09:57:56Z</time></trkpt><trkpt lat="39.606087508159355" lon="8.522638425979613"><ele>277.0</ele><time>2026-04-06T09:57:57Z</time></trkpt><trkpt lat="39.60621602189444" lon="8.522624032264781"><ele>279.25</ele><time>2026-04-06T09:57:58Z</time></trkpt><trkpt lat="39.60632464679827" lon="8.522583976743825"><ele>281.5</ele><time>2026-04-06T09:57:59Z</time></trkpt><trkpt lat="39.606413283375225" lon="8.522498250535122"><ele>283.75</ele><time>2026-04-06T09:58:00Z</time></trkpt><trkpt lat="39.606472820440686" lon="8.522358544972592"><ele>286.0</ele><time>2026-04-06T09:58:01Z</time></trkpt><trkpt lat="39.60649656832336" lon="8.522176333688027"><ele>284.25</ele><time>2026-04-06T09:58:02Z</time></trkpt><trkpt lat="39.60651564958076" lon="8.521967561467259"><ele>282.5</ele><time>2026-04-06T09:58:03Z</time></trkpt><trkpt lat="39.60653855993848" lon="8.521779924374536"><ele>280.75</ele><time>2026-04-06T09:58:04Z</time></trkpt><trkpt lat="39.606589091018115" lon="8.521637097566856"><ele>279.0</ele><time>2026-04-06T09:58:05Z</time></trkpt><trkpt lat="39.606679077603616" lon="8.521524230571197"><ele>279.0</ele><time>2026-04-06T09:58:06Z</time></trkpt><trkpt lat="39.606784603964805" lon="8.521397784427862"><ele>279.0</ele><time>2026-04-06T09:58:07Z</time></trkpt><trkpt lat="39.60691490248627" lon="8.5212878400734"><ele>279.0</ele><time>2026-04-06T09:58:08Z</time></trkpt><trkpt lat="39.60706902045904" lon="8.521190379208194"><ele>276.6666666666667</ele><time>2026-04-06T09:58:09Z</time></trkpt><trkpt lat="39.60723630856259" lon="8.521083891386695"><ele>274.33333333333337</ele><time>2026-04-06T09:58:10Z</time></trkpt><trkpt lat="39.60739006740493" lon="8.520995140801867"><ele>272.0</ele><time>2026-04-06T09:58:11Z</time></trkpt><trkpt lat="39.607544374689446" lon="8.520935150878328"><ele>272.0</ele><time>2026-04-06T09:58:12Z</time></trkpt><trkpt lat="39.6076935545614" lon="8.520895380365843"><ele>272.0</ele><time>2026-04-06T09:58:13Z</time></trkpt><trkpt lat="39.60781747547766" lon="8.520849320009312"><ele>272.0</ele><time>2026-04-06T09:58:14Z</time></trkpt><trkpt lat="39.60793630445682" lon="8.520845500840299"><ele>272.0</ele><time>2026-04-06T09:58:15Z</time></trkpt><trkpt lat="39.608055585677356" lon="8.520880484210714"><ele>271.0</ele><time>2026-04-06T09:58:16Z</time></trkpt><trkpt lat="39.60818877068601" lon="8.520956305918201"><ele>270.0</ele><time>2026-04-06T09:58:17Z</time></trkpt><trkpt lat="39.608337789632074" lon="8.521068954139666"><ele>269.0</ele><time>2026-04-06T09:58:18Z</time></trkpt><trkpt lat="39.60848187657014" lon="8.521181350616107"><ele>270.33333333333337</ele><time>2026-04-06T09:58:19Z</time></trkpt><trkpt lat="39.60862630189312" lon="8.52132089014339"><ele>271.6666666666667</ele><time>2026-04-06T09:58:20Z</time></trkpt><trkpt lat="39.60877510432051" lon="8.52149554129403"><ele>273.0</ele><time>2026-04-06T09:58:21Z</time></trkpt><trkpt lat="39.608916746033024" lon="8.521670479729194"><ele>273.0</ele><time>2026-04-06T09:58:22Z</time></trkpt><trkpt lat="39.60903931422664" lon="8.52183928892046"><ele>273.0</ele><time>2026-04-06T09:58:23Z</time></trkpt><trkpt lat="39.60914591309771" lon="8.521984075964566"><ele>273.0</ele><time>2026-04-06T09:58:24Z</time></trkpt><trkpt lat="39.60924575016526" lon="8.522103236353782"><ele>274.2</ele><time>2026-04-06T09:58:25Z</time></trkpt><trkpt lat="39.609341137779296" lon="8.522186827555185"><ele>275.4</ele><time>2026-04-06T09:58:26Z</time></trkpt><trkpt lat="39.60943966064482" lon="8.52222548012869"><ele>276.59999999999997</ele><time>2026-04-06T09:58:27Z</time></trkpt><trkpt lat="39.609534453069415" lon="8.52220255863534"><ele>277.8</ele><time>2026-04-06T09:58:28Z</time></trkpt><trkpt lat="39.60962491096755" lon="8.522133768336444"><ele>279.0</ele><time>2026-04-06T09:58:29Z</time></trkpt><trkpt lat="39.60969460338071" lon="8.522012395516274"><ele>279.0</ele><time>2026-04-06T09:58:30Z</time></trkpt><trkpt lat="39.60973236968656" lon="8.521850173182129"><ele>279.0</ele><time>2026-04-06T09:58:31Z</time></trkpt><trkpt lat="39.60978900435048" lon="8.521714345783275"><ele>279.0</ele><time>2026-04-06T09:58:32Z</time></trkpt><trkpt lat="39.60989957059259" lon="8.5216206330291"><ele>279.0</ele><time>2026-04-06T09:58:33Z</time></trkpt><trkpt lat="39.610021293069195" lon="8.52148954453142"><ele>279.0</ele><time>2026-04-06T09:58:34Z</time></trkpt><trkpt lat="39.61016270142276" lon="8.521363820752589"><ele>279.0</ele><time>2026-04-06T09:58:35Z</time></trkpt><trkpt lat="39.610280912207735" lon="8.521252081715897"><ele>279.0</ele><time>2026-04-06T09:58:36Z</time></trkpt><trkpt lat="39.6103900126487" lon="8.521153637654784"><ele>280.2</ele><time>2026-04-06T09:58:37Z</time></trkpt><trkpt lat="39.61048085689502" lon="8.521060260581029"><ele>281.4</ele><time>2026-04-06T09:58:37.999Z</time></trkpt><trkpt lat="39.61053592516898" lon="8.5209602847114"><ele>282.6</ele><time>2026-04-06T09:58:38.999Z</time></trkpt><trkpt lat="39.610563028972656" lon="8.520847321291928"><ele>283.8</ele><time>2026-04-06T09:58:40Z</time></trkpt><trkpt lat="39.610491307380066" lon="8.52070970900665"><ele>285.0</ele><time>2026-04-06T09:58:41Z</time></trkpt><trkpt lat="39.610433969388275" lon="8.520554490673236"><ele>288.3333333333333</ele><time>2026-04-06T09:58:42Z</time></trkpt><trkpt lat="39.6103601349759" lon="8.52037657906109"><ele>291.66666666666663</ele><time>2026-04-06T09:58:43Z</time></trkpt><trkpt lat="39.610263006029115" lon="8.520185311812487"><ele>295.0</ele><time>2026-04-06T09:58:44Z</time></trkpt><trkpt lat="39.61017466158124" lon="8.519970440629502"><ele>290.0</ele><time>2026-04-06T09:58:45Z</time></trkpt><trkpt lat="39.610106642743624" lon="8.51975592815558"><ele>285.0</ele><time>2026-04-06T09:58:46Z</time></trkpt><trkpt lat="39.610003556135275" lon="8.519538344081221"><ele>280.0</ele><time>2026-04-06T09:58:47Z</time></trkpt><trkpt lat="39.60993208028053" lon="8.519279630792694"><ele>280.0</ele><time>2026-04-06T09:58:48Z</time></trkpt><trkpt lat="39.609852121333574" lon="8.519029034300262"><ele>280.0</ele><time>2026-04-06T09:58:49Z</time></trkpt><trkpt lat="39.60978176468409" lon="8.51877726751672"><ele>280.0</ele><time>2026-04-06T09:58:50Z</time></trkpt><trkpt lat="39.60974340862447" lon="8.518591864061158"><ele>280.0</ele><time>2026-04-06T09:58:51Z</time></trkpt><trkpt lat="39.60973696188411" lon="8.518416375472444"><ele>280.0</ele><time>2026-04-06T09:58:52Z</time></trkpt><trkpt lat="39.60975409615421" lon="8.518244596280093"><ele>280.0</ele><time>2026-04-06T09:58:53Z</time></trkpt><trkpt lat="39.60979576070505" lon="8.518061418117842"><ele>280.0</ele><time>2026-04-06T09:58:54Z</time></trkpt><trkpt lat="39.60985222625003" lon="8.517856014775479"><ele>280.0</ele><time>2026-04-06T09:58:55Z</time></trkpt><trkpt lat="39.609927253371325" lon="8.51765012489852"><ele>280.0</ele><time>2026-04-06T09:58:56Z</time></trkpt><trkpt lat="39.610023898767935" lon="8.517456075902032"><ele>280.0</ele><time>2026-04-06T09:58:57Z</time></trkpt><trkpt lat="39.610119556640754" lon="8.517268514039648"><ele>280.0</ele><time>2026-04-06T09:58:58Z</time></trkpt><trkpt lat="39.61016830989993" lon="8.51708445116149"><ele>280.0</ele><time>2026-04-06T09:58:59Z</time></trkpt><trkpt lat="39.610206928768996" lon="8.516905502112964"><ele>280.0</ele><time>2026-04-06T09:59:00Z</time></trkpt><trkpt lat="39.61022374928255" lon="8.516702078122252"><ele>279.75</ele><time>2026-04-06T09:59:01Z</time></trkpt><trkpt lat="39.61024078245434" lon="8.516490179875653"><ele>279.5</ele><time>2026-04-06T09:59:02Z</time></trkpt><trkpt lat="39.61025960294094" lon="8.516307908383473"><ele>279.25</ele><time>2026-04-06T09:59:03Z</time></trkpt><trkpt lat="39.610270808770146" lon="8.516141480386604"><ele>279.0</ele><time>2026-04-06T09:59:04Z</time></trkpt><trkpt lat="39.610255952683794" lon="8.515990856454872"><ele>280.5</ele><time>2026-04-06T09:59:05Z</time></trkpt><trkpt lat="39.61020302717428" lon="8.51584579172439"><ele>282.0</ele><time>2026-04-06T09:59:06Z</time></trkpt><trkpt lat="39.610122542706506" lon="8.515743125120904"><ele>283.5</ele><time>2026-04-06T09:59:07Z</time></trkpt><trkpt lat="39.61002218228604" lon="8.515685289762075"><ele>285.0</ele><time>2026-04-06T09:59:08Z</time></trkpt><trkpt lat="39.60990018639785" lon="8.51565288457749"><ele>285.0</ele><time>2026-04-06T09:59:09Z</time></trkpt><trkpt lat="39.60975723080804" lon="8.515593135515692"><ele>285.0</ele><time>2026-04-06T09:59:10Z</time></trkpt><trkpt lat="39.60959494101441" lon="8.515512687413304"><ele>285.0</ele><time>2026-04-06T09:59:11Z</time></trkpt><trkpt lat="39.609385223990294" lon="8.515528717126296"><ele>283.0</ele><time>2026-04-06T09:59:12Z</time></trkpt><trkpt lat="39.60917310219683" lon="8.515481894324717"><ele>281.0</ele><time>2026-04-06T09:59:13Z</time></trkpt><trkpt lat="39.608940998533335" lon="8.515423452420428"><ele>284.0</ele><time>2026-04-06T09:59:14Z</time></trkpt><trkpt lat="39.60869743609097" lon="8.515336733179192"><ele>287.0</ele><time>2026-04-06T09:59:15Z</time></trkpt><trkpt lat="39.60844673305175" lon="8.51525075187246"><ele>287.0</ele><time>2026-04-06T09:59:16Z</time></trkpt><trkpt lat="39.60823502434933" lon="8.515188692032941"><ele>287.0</ele><time>2026-04-06T09:59:17Z</time></trkpt><trkpt lat="39.60804482696846" lon="8.515112772804844"><ele>287.0</ele><time>2026-04-06T09:59:18Z</time></trkpt><trkpt lat="39.60785432528691" lon="8.515012637123272"><ele>285.33333333333337</ele><time>2026-04-06T09:59:19Z</time></trkpt><trkpt lat="39.60765614345566" lon="8.514899961260918"><ele>283.6666666666667</ele><time>2026-04-06T09:59:20Z</time></trkpt><trkpt lat="39.60746135631247" lon="8.51479116140821"><ele>282.0</ele><time>2026-04-06T09:59:21Z</time></trkpt><trkpt lat="39.60727867225234" lon="8.514696697745071"><ele>282.0</ele><time>2026-04-06T09:59:22Z</time></trkpt><trkpt lat="39.607107915269324" lon="8.514603221517941"><ele>282.0</ele><time>2026-04-06T09:59:23Z</time></trkpt><trkpt lat="39.60695845577982" lon="8.514512813967432"><ele>282.0</ele><time>2026-04-06T09:59:24Z</time></trkpt><trkpt lat="39.606827592195046" lon="8.5144361439149"><ele>281.25</ele><time>2026-04-06T09:59:25Z</time></trkpt><trkpt lat="39.60672158949534" lon="8.514351599863733"><ele>280.5</ele><time>2026-04-06T09:59:26Z</time></trkpt><trkpt lat="39.60663893945867" lon="8.514230136307809"><ele>279.75</ele><time>2026-04-06T09:59:27Z</time></trkpt><trkpt lat="39.606572026073685" lon="8.514075321425306"><ele>279.0</ele><time>2026-04-06T09:59:28Z</time></trkpt><trkpt lat="39.606538894483286" lon="8.5139104878862"><ele>280.3333333333333</ele><time>2026-04-06T09:59:29Z</time></trkpt><trkpt lat="39.60653636644677" lon="8.513729561248473"><ele>281.66666666666663</ele><time>2026-04-06T09:59:30Z</time></trkpt><trkpt lat="39.60655731210425" lon="8.513533050168485"><ele>283.0</ele><time>2026-04-06T09:59:31Z</time></trkpt><trkpt lat="39.60660447447962" lon="8.513322192293241"><ele>283.0</ele><time>2026-04-06T09:59:32Z</time></trkpt><trkpt lat="39.606670044699015" lon="8.513088553946746"><ele>283.0</ele><time>2026-04-06T09:59:33Z</time></trkpt><trkpt lat="39.606738667893694" lon="8.51288130817902"><ele>283.0</ele><time>2026-04-06T09:59:34Z</time></trkpt><trkpt lat="39.60679760203183" lon="8.512666802807445"><ele>282.66666666666663</ele><time>2026-04-06T09:59:35Z</time></trkpt><trkpt lat="39.60682529441522" lon="8.51245216599354"><ele>282.3333333333333</ele><time>2026-04-06T09:59:36Z</time></trkpt><trkpt lat="39.606809293069105" lon="8.51225647854777"><ele>282.0</ele><time>2026-04-06T09:59:37Z</time></trkpt><trkpt lat="39.60675223963774" lon="8.512051407752526"><ele>282.0</ele><time>2026-04-06T09:59:38Z</time></trkpt><trkpt lat="39.60665402320949" lon="8.511824688033139"><ele>282.0</ele><time>2026-04-06T09:59:39Z</time></trkpt><trkpt lat="39.60654919445183" lon="8.511573204187975"><ele>282.0</ele><time>2026-04-06T09:59:40Z</time></trkpt><trkpt lat="39.606474468662306" lon="8.511283058984219"><ele>285.5</ele><time>2026-04-06T09:59:41Z</time></trkpt><trkpt lat="39.606402482011035" lon="8.510971257003716"><ele>289.0</ele><time>2026-04-06T09:59:42Z</time></trkpt><trkpt lat="39.60630407314603" lon="8.510674226976453"><ele>289.66666666666663</ele><time>2026-04-06T09:59:43Z</time></trkpt><trkpt lat="39.6062078497578" lon="8.510404760512225"><ele>290.3333333333333</ele><time>2026-04-06T09:59:44Z</time></trkpt><trkpt lat="39.60614017623997" lon="8.510169551815697"><ele>291.0</ele><time>2026-04-06T09:59:45Z</time></trkpt><trkpt lat="39.60612278674168" lon="8.509996788150167"><ele>291.0</ele><time>2026-04-06T09:59:46Z</time></trkpt><trkpt lat="39.60614522153702" lon="8.509811578712775"><ele>291.0</ele><time>2026-04-06T09:59:47Z</time></trkpt><trkpt lat="39.60620087809568" lon="8.509629425601652"><ele>291.0</ele><time>2026-04-06T09:59:48Z</time></trkpt><trkpt lat="39.606276093782085" lon="8.509467427085646"><ele>291.0</ele><time>2026-04-06T09:59:49Z</time></trkpt><trkpt lat="39.60637769947506" lon="8.50932470206107"><ele>290.0</ele><time>2026-04-06T09:59:50Z</time></trkpt><trkpt lat="39.60649621444115" lon="8.509185376901186"><ele>289.0</ele><time>2026-04-06T09:59:51Z</time></trkpt><trkpt lat="39.606616059830664" lon="8.509028576621773"><ele>288.0</ele><time>2026-04-06T09:59:52Z</time></trkpt><trkpt lat="39.606733715021626" lon="8.508854020507671"><ele>287.6666666666667</ele><time>2026-04-06T09:59:53Z</time></trkpt><trkpt lat="39.60685416122171" lon="8.508674119509914"><ele>287.33333333333337</ele><time>2026-04-06T09:59:54Z</time></trkpt><trkpt lat="39.60697032367996" lon="8.508504431018554"><ele>287.0</ele><time>2026-04-06T09:59:55Z</time></trkpt><trkpt lat="39.60707867350017" lon="8.508344191237983"><ele>287.0</ele><time>2026-04-06T09:59:56Z</time></trkpt><trkpt lat="39.60718014581992" lon="8.508198078048357"><ele>287.0</ele><time>2026-04-06T09:59:57Z</time></trkpt><trkpt lat="39.607283147913904" lon="8.508061286351861"><ele>287.0</ele><time>2026-04-06T09:59:58Z</time></trkpt><trkpt lat="39.60738311069016" lon="8.507933276871722"><ele>287.0</ele><time>2026-04-06T09:59:59Z</time></trkpt><trkpt lat="39.60747097092851" lon="8.5078024892567"><ele>284.0</ele><time>2026-04-06T10:00:00Z</time></trkpt><trkpt lat="39.60754994239505" lon="8.507671298080451"><ele>281.0</ele><time>2026-04-06T10:00:01Z</time></trkpt><trkpt lat="39.60762815725617" lon="8.507550960561709"><ele>278.0</ele><time>2026-04-06T10:00:02Z</time></trkpt><trkpt lat="39.607709648605365" lon="8.507440820629432"><ele>275.0</ele><time>2026-04-06T10:00:03Z</time></trkpt><trkpt lat="39.607787824797406" lon="8.507336446257858"><ele>275.0</ele><time>2026-04-06T10:00:04Z</time></trkpt><trkpt lat="39.60786585420882" lon="8.507237456537975"><ele>275.0</ele><time>2026-04-06T10:00:05Z</time></trkpt><trkpt lat="39.60795655522413" lon="8.507170719554626"><ele>275.0</ele><time>2026-04-06T10:00:06Z</time></trkpt><trkpt lat="39.60806089738889" lon="8.507149084495389"><ele>275.0</ele><time>2026-04-06T10:00:07Z</time></trkpt><trkpt lat="39.60817465654028" lon="8.507156367105868"><ele>275.0</ele><time>2026-04-06T10:00:08Z</time></trkpt><trkpt lat="39.60829075108664" lon="8.50718894035242"><ele>275.0</ele><time>2026-04-06T10:00:09Z</time></trkpt><trkpt lat="39.60839974884479" lon="8.50723438528321"><ele>275.0</ele><time>2026-04-06T10:00:10Z</time></trkpt><trkpt lat="39.60850116745233" lon="8.507269804485615"><ele>275.0</ele><time>2026-04-06T10:00:11Z</time></trkpt><trkpt lat="39.60860116763907" lon="8.507292836307448"><ele>275.0</ele><time>2026-04-06T10:00:12Z</time></trkpt><trkpt lat="39.608697055968435" lon="8.507294157200304"><ele>275.0</ele><time>2026-04-06T10:00:13Z</time></trkpt><trkpt lat="39.60878835106249" lon="8.507262730249861"><ele>274.8</ele><time>2026-04-06T10:00:14Z</time></trkpt><trkpt lat="39.6088670910809" lon="8.507192931716903"><ele>274.6</ele><time>2026-04-06T10:00:15Z</time></trkpt><trkpt lat="39.60893139815033" lon="8.5070925481132"><ele>274.4</ele><time>2026-04-06T10:00:16Z</time></trkpt><trkpt lat="39.608975191915206" lon="8.506958615960322"><ele>274.2</ele><time>2026-04-06T10:00:17Z</time></trkpt><trkpt lat="39.60898563197238" lon="8.506799383923891"><ele>274.0</ele><time>2026-04-06T10:00:18Z</time></trkpt><trkpt lat="39.60897803791582" lon="8.506634261195275"><ele>273.2</ele><time>2026-04-06T10:00:19Z</time></trkpt><trkpt lat="39.60898333020703" lon="8.50648135717846"><ele>272.4</ele><time>2026-04-06T10:00:20Z</time></trkpt><trkpt lat="39.60900705756881" lon="8.50634405732178"><ele>271.6</ele><time>2026-04-06T10:00:21Z</time></trkpt><trkpt lat="39.609037838391814" lon="8.506211216112032"><ele>270.8</ele><time>2026-04-06T10:00:22Z</time></trkpt><trkpt lat="39.60907246875072" lon="8.506087377475163"><ele>270.0</ele><time>2026-04-06T10:00:23Z</time></trkpt><trkpt lat="39.609118908091475" lon="8.505972767672166"><ele>267.8</ele><time>2026-04-06T10:00:24Z</time></trkpt><trkpt lat="39.60917474002016" lon="8.505870137811684"><ele>265.6</ele><time>2026-04-06T10:00:25Z</time></trkpt><trkpt lat="39.60923433774648" lon="8.505775919166728"><ele>263.4</ele><time>2026-04-06T10:00:26Z</time></trkpt><trkpt lat="39.6093036754157" lon="8.505686819142884"><ele>261.2</ele><time>2026-04-06T10:00:27Z</time></trkpt><trkpt lat="39.60938140649984" lon="8.50561487391157"><ele>259.0</ele><time>2026-04-06T10:00:28Z</time></trkpt><trkpt lat="39.60946555589076" lon="8.505554939364972"><ele>260.4</ele><time>2026-04-06T10:00:29Z</time></trkpt><trkpt lat="39.60955451127652" lon="8.505497859492413"><ele>261.79999999999995</ele><time>2026-04-06T10:00:30Z</time></trkpt><trkpt lat="39.60965438768634" lon="8.505437372170245"><ele>263.20000000000005</ele><time>2026-04-06T10:00:31Z</time></trkpt><trkpt lat="39.60975688386546" lon="8.50538413846469"><ele>264.6</ele><time>2026-04-06T10:00:32Z</time></trkpt><trkpt lat="39.60986368338987" lon="8.505332402527952"><ele>266.0</ele><time>2026-04-06T10:00:33Z</time></trkpt><trkpt lat="39.60997064395681" lon="8.50528629735996"><ele>262.25</ele><time>2026-04-06T10:00:34Z</time></trkpt><trkpt lat="39.61007561267851" lon="8.505236567953908"><ele>258.5</ele><time>2026-04-06T10:00:35Z</time></trkpt><trkpt lat="39.61018157056044" lon="8.50518086044158"><ele>254.75</ele><time>2026-04-06T10:00:36Z</time></trkpt><trkpt lat="39.61029907684272" lon="8.50511843022747"><ele>251.0</ele><time>2026-04-06T10:00:37Z</time></trkpt><trkpt lat="39.61042483999002" lon="8.505058006810604"><ele>251.0</ele><time>2026-04-06T10:00:38Z</time></trkpt><trkpt lat="39.61056112495952" lon="8.504999084452216"><ele>251.0</ele><time>2026-04-06T10:00:39Z</time></trkpt><trkpt lat="39.61069911672293" lon="8.50493429476605"><ele>251.0</ele><time>2026-04-06T10:00:40Z</time></trkpt><trkpt lat="39.61083828895338" lon="8.504862438367693"><ele>251.0</ele><time>2026-04-06T10:00:41Z</time></trkpt><trkpt lat="39.61097548216307" lon="8.504770734261756"><ele>251.0</ele><time>2026-04-06T10:00:42Z</time></trkpt><trkpt lat="39.61110665990779" lon="8.504651222057651"><ele>251.0</ele><time>2026-04-06T10:00:43Z</time></trkpt><trkpt lat="39.61122843972759" lon="8.50451594025607"><ele>251.0</ele><time>2026-04-06T10:00:44Z</time></trkpt><trkpt lat="39.61133389063231" lon="8.504387354965944"><ele>249.0</ele><time>2026-04-06T10:00:45Z</time></trkpt><trkpt lat="39.611410825821864" lon="8.504261437733337"><ele>247.0</ele><time>2026-04-06T10:00:46Z</time></trkpt><trkpt lat="39.61145316030321" lon="8.504117845090748"><ele>245.0</ele><time>2026-04-06T10:00:47Z</time></trkpt><trkpt lat="39.611455405430995" lon="8.50395163128176"><ele>243.0</ele><time>2026-04-06T10:00:48Z</time></trkpt><trkpt lat="39.61141549393488" lon="8.50379326014032"><ele>241.5</ele><time>2026-04-06T10:00:49Z</time></trkpt><trkpt lat="39.61134998486745" lon="8.503636120372272"><ele>240.0</ele><time>2026-04-06T10:00:50Z</time></trkpt><trkpt lat="39.61129470085938" lon="8.503458823542136"><ele>238.5</ele><time>2026-04-06T10:00:51Z</time></trkpt><trkpt lat="39.611281356035974" lon="8.50327264610182"><ele>237.0</ele><time>2026-04-06T10:00:52Z</time></trkpt><trkpt lat="39.611305881570736" lon="8.50309618200115"><ele>237.0</ele><time>2026-04-06T10:00:53Z</time></trkpt><trkpt lat="39.61135904847794" lon="8.502930256144928"><ele>237.0</ele><time>2026-04-06T10:00:54Z</time></trkpt><trkpt lat="39.61143426499353" lon="8.502774463246201"><ele>237.0</ele><time>2026-04-06T10:00:55Z</time></trkpt><trkpt lat="39.611532485260454" lon="8.502615113140637"><ele>237.0</ele><time>2026-04-06T10:00:56Z</time></trkpt><trkpt lat="39.611635344842526" lon="8.502472962965504"><ele>236.25</ele><time>2026-04-06T10:00:57Z</time></trkpt><trkpt lat="39.61174940783992" lon="8.502352883246727"><ele>235.5</ele><time>2026-04-06T10:00:58Z</time></trkpt><trkpt lat="39.61188715978314" lon="8.502287905905131"><ele>234.75</ele><time>2026-04-06T10:00:59Z</time></trkpt><trkpt lat="39.612021225560675" lon="8.50221461856022"><ele>234.0</ele><time>2026-04-06T10:01:00Z</time></trkpt><trkpt lat="39.61215033742389" lon="8.502150038971234"><ele>231.25</ele><time>2026-04-06T10:01:01Z</time></trkpt><trkpt lat="39.61226795910328" lon="8.502079277558822"><ele>228.5</ele><time>2026-04-06T10:01:02Z</time></trkpt><trkpt lat="39.61238746413007" lon="8.502071875911327"><ele>225.75</ele><time>2026-04-06T10:01:03Z</time></trkpt><trkpt lat="39.612500970399076" lon="8.502072233123888"><ele>223.0</ele><time>2026-04-06T10:01:04Z</time></trkpt><trkpt lat="39.61261329974523" lon="8.502064380055325"><ele>223.0</ele><time>2026-04-06T10:01:05Z</time></trkpt><trkpt lat="39.61271581670126" lon="8.502075636507689"><ele>223.0</ele><time>2026-04-06T10:01:06Z</time></trkpt><trkpt lat="39.612792567711956" lon="8.502074887586591"><ele>223.0</ele><time>2026-04-06T10:01:07Z</time></trkpt><trkpt lat="39.612853963704666" lon="8.502053020153582"><ele>223.0</ele><time>2026-04-06T10:01:08Z</time></trkpt><trkpt lat="39.61293501002511" lon="8.501929715550084"><ele>223.0</ele><time>2026-04-06T10:01:10Z</time></trkpt><trkpt lat="39.61290206683757" lon="8.50182592890315"><ele>223.0</ele><time>2026-04-06T10:01:11Z</time></trkpt><trkpt lat="39.612856998301886" lon="8.501723243274636"><ele>223.0</ele><time>2026-04-06T10:01:12Z</time></trkpt><trkpt lat="39.61276838678646" lon="8.50165886756328"><ele>223.0</ele><time>2026-04-06T10:01:13Z</time></trkpt><trkpt lat="39.612683885643975" lon="8.501553943659715"><ele>223.0</ele><time>2026-04-06T10:01:14Z</time></trkpt><trkpt lat="39.6125808761779" lon="8.501449757712079"><ele>223.0</ele><time>2026-04-06T10:01:15Z</time></trkpt><trkpt lat="39.61249023085054" lon="8.501354712655834"><ele>223.0</ele><time>2026-04-06T10:01:16Z</time></trkpt><trkpt lat="39.61240523444798" lon="8.501264197710293"><ele>223.0</ele><time>2026-04-06T10:01:17Z</time></trkpt><trkpt lat="39.612322156321156" lon="8.50117450728334"><ele>223.0</ele><time>2026-04-06T10:01:18Z</time></trkpt><trkpt lat="39.61223893776391" lon="8.501081258638957"><ele>223.0</ele><time>2026-04-06T10:01:19Z</time></trkpt><trkpt lat="39.612160352783455" lon="8.500981757213967"><ele>223.0</ele><time>2026-04-06T10:01:20Z</time></trkpt><trkpt lat="39.61209801366656" lon="8.500877955652054"><ele>222.8</ele><time>2026-04-06T10:01:21Z</time></trkpt><trkpt lat="39.612057881166265" lon="8.500761978302933"><ele>222.60000000000002</ele><time>2026-04-06T10:01:22Z</time></trkpt><trkpt lat="39.61203105102832" lon="8.500634009881908"><ele>222.39999999999998</ele><time>2026-04-06T10:01:23Z</time></trkpt><trkpt lat="39.612013218806986" lon="8.500488358190768"><ele>222.2</ele><time>2026-04-06T10:01:24Z</time></trkpt><trkpt lat="39.61200046350297" lon="8.500348381830332"><ele>222.0</ele><time>2026-04-06T10:01:25Z</time></trkpt><trkpt lat="39.61198847424308" lon="8.500215436069103"><ele>218.0</ele><time>2026-04-06T10:01:26Z</time></trkpt><trkpt lat="39.61197549313221" lon="8.500085071906748"><ele>214.0</ele><time>2026-04-06T10:01:27Z</time></trkpt><trkpt lat="39.611961816324396" lon="8.499957421526648"><ele>210.0</ele><time>2026-04-06T10:01:28Z</time></trkpt><trkpt lat="39.611948149272564" lon="8.499829862492994"><ele>206.0</ele><time>2026-04-06T10:01:29Z</time></trkpt><trkpt lat="39.611936832752015" lon="8.499708543805442"><ele>202.0</ele><time>2026-04-06T10:01:30Z</time></trkpt><trkpt lat="39.61193491113339" lon="8.499598769677505"><ele>200.99999999999997</ele><time>2026-04-06T10:01:31Z</time></trkpt><trkpt lat="39.6119466227324" lon="8.499500312051573"><ele>200.0</ele><time>2026-04-06T10:01:32Z</time></trkpt><trkpt lat="39.61197656822661" lon="8.499410270517313"><ele>199.0</ele><time>2026-04-06T10:01:33Z</time></trkpt><trkpt lat="39.61203265548909" lon="8.499340088793634"><ele>198.0</ele><time>2026-04-06T10:01:34Z</time></trkpt><trkpt lat="39.61210890793832" lon="8.499278383833445"><ele>196.99999999999997</ele><time>2026-04-06T10:01:35Z</time></trkpt><trkpt lat="39.61219344812551" lon="8.499214685795394"><ele>196.0</ele><time>2026-04-06T10:01:36Z</time></trkpt><trkpt lat="39.61227712213454" lon="8.499149654349647"><ele>197.60000000000002</ele><time>2026-04-06T10:01:37Z</time></trkpt><trkpt lat="39.61233680521957" lon="8.49905798867817"><ele>199.2</ele><time>2026-04-06T10:01:38Z</time></trkpt><trkpt lat="39.612404614074904" lon="8.498963777184075"><ele>200.8</ele><time>2026-04-06T10:01:39Z</time></trkpt><trkpt lat="39.61242612744096" lon="8.498814602334786"><ele>202.39999999999998</ele><time>2026-04-06T10:01:40Z</time></trkpt><trkpt lat="39.612409566518224" lon="8.498658768732557"><ele>204.0</ele><time>2026-04-06T10:01:41Z</time></trkpt><trkpt lat="39.612349366281" lon="8.498492631557367"><ele>204.0</ele><time>2026-04-06T10:01:42Z</time></trkpt><trkpt lat="39.61229932156239" lon="8.498343480511924"><ele>204.0</ele><time>2026-04-06T10:01:43Z</time></trkpt><trkpt lat="39.612254380755736" lon="8.498212634313097"><ele>204.0</ele><time>2026-04-06T10:01:44Z</time></trkpt><trkpt lat="39.612209270566034" lon="8.498086990946279"><ele>204.0</ele><time>2026-04-06T10:01:45Z</time></trkpt><trkpt lat="39.612166141014505" lon="8.497966285886353"><ele>204.0</ele><time>2026-04-06T10:01:46Z</time></trkpt><trkpt lat="39.61211227198573" lon="8.497854936541401"><ele>203.79999999999998</ele><time>2026-04-06T10:01:47Z</time></trkpt><trkpt lat="39.61209528820722" lon="8.497729045426214"><ele>203.6</ele><time>2026-04-06T10:01:48Z</time></trkpt><trkpt lat="39.612077661596246" lon="8.497609767363855"><ele>203.4</ele><time>2026-04-06T10:01:49Z</time></trkpt><trkpt lat="39.61207290867921" lon="8.497484783225017"><ele>203.2</ele><time>2026-04-06T10:01:50Z</time></trkpt><trkpt lat="39.61207871039301" lon="8.497353850194992"><ele>203.0</ele><time>2026-04-06T10:01:51Z</time></trkpt><trkpt lat="39.61210376122602" lon="8.497221567103585"><ele>203.0</ele><time>2026-04-06T10:01:52Z</time></trkpt><trkpt lat="39.612146525705285" lon="8.497089347442765"><ele>203.0</ele><time>2026-04-06T10:01:53Z</time></trkpt><trkpt lat="39.612208366367945" lon="8.496962844712733"><ele>203.0</ele><time>2026-04-06T10:01:54Z</time></trkpt><trkpt lat="39.612274939668694" lon="8.496830496261277"><ele>203.0</ele><time>2026-04-06T10:01:55Z</time></trkpt><trkpt lat="39.61234620739545" lon="8.49669171178899"><ele>199.75</ele><time>2026-04-06T10:01:56Z</time></trkpt><trkpt lat="39.6124102750167" lon="8.496566948474376"><ele>196.5</ele><time>2026-04-06T10:01:57Z</time></trkpt><trkpt lat="39.612473087990296" lon="8.496443118305907"><ele>193.25</ele><time>2026-04-06T10:01:58Z</time></trkpt><trkpt lat="39.612532023774996" lon="8.496320581791773"><ele>190.0</ele><time>2026-04-06T10:01:59Z</time></trkpt><trkpt lat="39.61257285575895" lon="8.4961852032082"><ele>188.25</ele><time>2026-04-06T10:02:00Z</time></trkpt><trkpt lat="39.61259890207434" lon="8.49604731408319"><ele>186.5</ele><time>2026-04-06T10:02:01Z</time></trkpt><trkpt lat="39.61258118315242" lon="8.495877038389848"><ele>184.75</ele><time>2026-04-06T10:02:02Z</time></trkpt><trkpt lat="39.61253474113832" lon="8.495721900320207"><ele>183.0</ele><time>2026-04-06T10:02:03Z</time></trkpt><trkpt lat="39.61247182280882" lon="8.49559035572875"><ele>183.0</ele><time>2026-04-06T10:02:04Z</time></trkpt><trkpt lat="39.61241224197862" lon="8.495466423518748"><ele>183.0</ele><time>2026-04-06T10:02:05Z</time></trkpt><trkpt lat="39.61235576938634" lon="8.49534761297964"><ele>183.0</ele><time>2026-04-06T10:02:06Z</time></trkpt><trkpt lat="39.61230780143035" lon="8.495228338933623"><ele>183.0</ele><time>2026-04-06T10:02:07Z</time></trkpt><trkpt lat="39.612272945100244" lon="8.495108787053148"><ele>183.0</ele><time>2026-04-06T10:02:08Z</time></trkpt><trkpt lat="39.612245092177645" lon="8.494983973868637"><ele>183.60000000000002</ele><time>2026-04-06T10:02:09Z</time></trkpt><trkpt lat="39.61222047423413" lon="8.49486259835886"><ele>184.20000000000002</ele><time>2026-04-06T10:02:10Z</time></trkpt><trkpt lat="39.61219770939494" lon="8.49474559689138"><ele>184.8</ele><time>2026-04-06T10:02:11Z</time></trkpt><trkpt lat="39.61217870905819" lon="8.494619645876208"><ele>185.4</ele><time>2026-04-06T10:02:12Z</time></trkpt><trkpt lat="39.61217946337577" lon="8.494487885955865"><ele>186.0</ele><time>2026-04-06T10:02:13Z</time></trkpt><trkpt lat="39.612200804879556" lon="8.49434766100199"><ele>183.60000000000002</ele><time>2026-04-06T10:02:14Z</time></trkpt><trkpt lat="39.612247222443685" lon="8.4942281687158"><ele>181.2</ele><time>2026-04-06T10:02:15Z</time></trkpt><trkpt lat="39.61228445602158" lon="8.49411137788903"><ele>178.8</ele><time>2026-04-06T10:02:16Z</time></trkpt><trkpt lat="39.612345996706296" lon="8.49401931436826"><ele>176.39999999999998</ele><time>2026-04-06T10:02:17Z</time></trkpt><trkpt lat="39.61241799508897" lon="8.493937628624769"><ele>174.0</ele><time>2026-04-06T10:02:18Z</time></trkpt><trkpt lat="39.61249358362444" lon="8.49386177832827"><ele>174.0</ele><time>2026-04-06T10:02:19Z</time></trkpt><trkpt lat="39.612550044123275" lon="8.493773397770536"><ele>174.0</ele><time>2026-04-06T10:02:20Z</time></trkpt><trkpt lat="39.61264050866878" lon="8.493728256460521"><ele>174.0</ele><time>2026-04-06T10:02:21Z</time></trkpt><trkpt lat="39.61272999296395" lon="8.493684380253457"><ele>174.0</ele><time>2026-04-06T10:02:22Z</time></trkpt><trkpt lat="39.61281833674576" lon="8.493641063360824"><ele>174.0</ele><time>2026-04-06T10:02:23Z</time></trkpt><trkpt lat="39.61290972855875" lon="8.493598865007412"><ele>169.75</ele><time>2026-04-06T10:02:24Z</time></trkpt><trkpt lat="39.61300641884189" lon="8.493560060999421"><ele>165.5</ele><time>2026-04-06T10:02:25Z</time></trkpt><trkpt lat="39.613108391882584" lon="8.493544469782382"><ele>161.25</ele><time>2026-04-06T10:02:26Z</time></trkpt><trkpt lat="39.61322846960054" lon="8.493545475636235"><ele>157.0</ele><time>2026-04-06T10:02:27Z</time></trkpt><trkpt lat="39.61337407675126" lon="8.493558427311456"><ele>157.0</ele><time>2026-04-06T10:02:28Z</time></trkpt><trkpt lat="39.61351779515765" lon="8.493570262154138"><ele>157.0</ele><time>2026-04-06T10:02:29Z</time></trkpt><trkpt lat="39.61364407182153" lon="8.49358066071858"><ele>157.0</ele><time>2026-04-06T10:02:30Z</time></trkpt><trkpt lat="39.61376968283494" lon="8.49359120823878"><ele>157.0</ele><time>2026-04-06T10:02:31Z</time></trkpt><trkpt lat="39.61389248873721" lon="8.493605263862715"><ele>155.5</ele><time>2026-04-06T10:02:32Z</time></trkpt><trkpt lat="39.61401360224527" lon="8.493609372242165"><ele>154.0</ele><time>2026-04-06T10:02:33Z</time></trkpt><trkpt lat="39.614121450599704" lon="8.493686818574048"><ele>152.5</ele><time>2026-04-06T10:02:34Z</time></trkpt><trkpt lat="39.61423289883427" lon="8.493712245341916"><ele>151.0</ele><time>2026-04-06T10:02:35Z</time></trkpt><trkpt lat="39.614348290995046" lon="8.493735738281002"><ele>151.0</ele><time>2026-04-06T10:02:36Z</time></trkpt><trkpt lat="39.61446204449687" lon="8.49371545058786"><ele>151.0</ele><time>2026-04-06T10:02:37Z</time></trkpt><trkpt lat="39.61456931770722" lon="8.493664518074539"><ele>151.0</ele><time>2026-04-06T10:02:38Z</time></trkpt><trkpt lat="39.61468201182956" lon="8.493608535396461"><ele>151.0</ele><time>2026-04-06T10:02:39Z</time></trkpt><trkpt lat="39.61479456317429" lon="8.493554260472418"><ele>150.0</ele><time>2026-04-06T10:02:40Z</time></trkpt><trkpt lat="39.61490471915181" lon="8.493512796638386"><ele>149.0</ele><time>2026-04-06T10:02:41Z</time></trkpt><trkpt lat="39.61500862112911" lon="8.493469030882794"><ele>148.0</ele><time>2026-04-06T10:02:42Z</time></trkpt><trkpt lat="39.61511720298535" lon="8.493420319608225"><ele>147.0</ele><time>2026-04-06T10:02:43Z</time></trkpt><trkpt lat="39.615229482877325" lon="8.49335038521434"><ele>145.75</ele><time>2026-04-06T10:02:44Z</time></trkpt><trkpt lat="39.61533861903552" lon="8.49323266761182"><ele>144.5</ele><time>2026-04-06T10:02:45Z</time></trkpt><trkpt lat="39.6154281455108" lon="8.493079994784686"><ele>143.25</ele><time>2026-04-06T10:02:46Z</time></trkpt><trkpt lat="39.61548420223518" lon="8.492905680166594"><ele>142.0</ele><time>2026-04-06T10:02:47Z</time></trkpt><trkpt lat="39.61550538343153" lon="8.492716499396"><ele>140.75</ele><time>2026-04-06T10:02:48Z</time></trkpt><trkpt lat="39.61550730806516" lon="8.49252264470252"><ele>139.5</ele><time>2026-04-06T10:02:49Z</time></trkpt><trkpt lat="39.61551084011425" lon="8.492327483490184"><ele>138.25</ele><time>2026-04-06T10:02:50Z</time></trkpt><trkpt lat="39.61551968297143" lon="8.492134638101906"><ele>137.0</ele><time>2026-04-06T10:02:51Z</time></trkpt><trkpt lat="39.615529670256585" lon="8.491943518777084"><ele>136.0</ele><time>2026-04-06T10:02:52Z</time></trkpt><trkpt lat="39.615539297233006" lon="8.491758391220923"><ele>135.0</ele><time>2026-04-06T10:02:53Z</time></trkpt><trkpt lat="39.615551678519104" lon="8.491579915003763"><ele>134.0</ele><time>2026-04-06T10:02:54Z</time></trkpt><trkpt lat="39.61556950543091" lon="8.491406224437327"><ele>133.0</ele><time>2026-04-06T10:02:55Z</time></trkpt><trkpt lat="39.61560990803672" lon="8.49124026864282"><ele>132.75</ele><time>2026-04-06T10:02:56Z</time></trkpt><trkpt lat="39.61564146989" lon="8.491062088807116"><ele>132.5</ele><time>2026-04-06T10:02:57Z</time></trkpt><trkpt lat="39.61566104360915" lon="8.490877246653081"><ele>132.25</ele><time>2026-04-06T10:02:58Z</time></trkpt><trkpt lat="39.61570107453473" lon="8.490692095093179"><ele>132.0</ele><time>2026-04-06T10:02:59Z</time></trkpt><trkpt lat="39.61573870102844" lon="8.49050447715685"><ele>131.5</ele><time>2026-04-06T10:03:00Z</time></trkpt><trkpt lat="39.61577234401722" lon="8.490326046525713"><ele>131.0</ele><time>2026-04-06T10:03:01Z</time></trkpt><trkpt lat="39.61580404854907" lon="8.490149032023421"><ele>130.5</ele><time>2026-04-06T10:03:02Z</time></trkpt><trkpt lat="39.615858843432996" lon="8.48997661801684"><ele>130.0</ele><time>2026-04-06T10:03:03Z</time></trkpt><trkpt lat="39.61590410600748" lon="8.489799966298742"><ele>130.0</ele><time>2026-04-06T10:03:04Z</time></trkpt><trkpt lat="39.61597136166825" lon="8.489634366485637"><ele>130.0</ele><time>2026-04-06T10:03:05Z</time></trkpt><trkpt lat="39.61606104554" lon="8.489488123840143"><ele>130.0</ele><time>2026-04-06T10:03:06Z</time></trkpt><trkpt lat="39.61616545551006" lon="8.489335271875255"><ele>130.0</ele><time>2026-04-06T10:03:07Z</time></trkpt><trkpt lat="39.61627397960851" lon="8.48917639797369"><ele>128.33333333333334</ele><time>2026-04-06T10:03:08Z</time></trkpt><trkpt lat="39.61640110313318" lon="8.48899029398883"><ele>126.66666666666666</ele><time>2026-04-06T10:03:09Z</time></trkpt><trkpt lat="39.616549275027644" lon="8.488773376466618"><ele>125.0</ele><time>2026-04-06T10:03:10Z</time></trkpt><trkpt lat="39.616713718211756" lon="8.48853263789817"><ele>125.0</ele><time>2026-04-06T10:03:11Z</time></trkpt><trkpt lat="39.61688726912182" lon="8.488278608718547"><ele>125.0</ele><time>2026-04-06T10:03:12Z</time></trkpt><trkpt lat="39.61705900434961" lon="8.488027238160086"><ele>121.5</ele><time>2026-04-06T10:03:13Z</time></trkpt><trkpt lat="39.617223239278964" lon="8.487790106423347"><ele>118.0</ele><time>2026-04-06T10:03:14Z</time></trkpt><trkpt lat="39.61736611379149" lon="8.487581703978082"><ele>118.0</ele><time>2026-04-06T10:03:15Z</time></trkpt><trkpt lat="39.61747771571093" lon="8.48738231219324"><ele>118.0</ele><time>2026-04-06T10:03:16Z</time></trkpt><trkpt lat="39.6175866204871" lon="8.487225385767957"><ele>118.0</ele><time>2026-04-06T10:03:17Z</time></trkpt><trkpt lat="39.61768936391792" lon="8.487079511758932"><ele>117.75</ele><time>2026-04-06T10:03:18Z</time></trkpt><trkpt lat="39.61778329574287" lon="8.486944164611865"><ele>117.5</ele><time>2026-04-06T10:03:19Z</time></trkpt><trkpt lat="39.61787053981961" lon="8.486821589886762"><ele>117.25</ele><time>2026-04-06T10:03:20Z</time></trkpt><trkpt lat="39.617945495723106" lon="8.486712693098578"><ele>117.0</ele><time>2026-04-06T10:03:21Z</time></trkpt><trkpt lat="39.61800875998205" lon="8.486625758710193"><ele>117.0</ele><time>2026-04-06T10:03:22Z</time></trkpt><trkpt lat="39.618063271556025" lon="8.486552510893548"><ele>116.99999999999999</ele><time>2026-04-06T10:03:23Z</time></trkpt><trkpt lat="39.618115216516344" lon="8.486477926003884"><ele>116.99999999999999</ele><time>2026-04-06T10:03:24Z</time></trkpt><trkpt lat="39.618201064953595" lon="8.486395143185119"><ele>117.0</ele><time>2026-04-06T10:03:25Z</time></trkpt><trkpt lat="39.61830681542702" lon="8.486287465818108"><ele>117.0</ele><time>2026-04-06T10:03:26Z</time></trkpt><trkpt lat="39.618423942405705" lon="8.48617750743752"><ele>117.75</ele><time>2026-04-06T10:03:27Z</time></trkpt><trkpt lat="39.6185191323511" lon="8.486071946644369"><ele>118.5</ele><time>2026-04-06T10:03:28Z</time></trkpt><trkpt lat="39.618580904230114" lon="8.485928916566234"><ele>119.25</ele><time>2026-04-06T10:03:29Z</time></trkpt><trkpt lat="39.61863592786054" lon="8.485768132155297"><ele>120.0</ele><time>2026-04-06T10:03:30Z</time></trkpt><trkpt lat="39.61866402786919" lon="8.485588246348522"><ele>119.33333333333334</ele><time>2026-04-06T10:03:31Z</time></trkpt><trkpt lat="39.61865567162126" lon="8.485396197190306"><ele>118.66666666666667</ele><time>2026-04-06T10:03:32Z</time></trkpt><trkpt lat="39.618611542664304" lon="8.485193115677996"><ele>118.0</ele><time>2026-04-06T10:03:33Z</time></trkpt><trkpt lat="39.61857320370014" lon="8.484976311289612"><ele>118.0</ele><time>2026-04-06T10:03:34Z</time></trkpt><trkpt lat="39.61852992960843" lon="8.48477333704737"><ele>118.0</ele><time>2026-04-06T10:03:35Z</time></trkpt><trkpt lat="39.61848526310386" lon="8.484568593975714"><ele>118.0</ele><time>2026-04-06T10:03:36Z</time></trkpt><trkpt lat="39.618440505671465" lon="8.484363434069927"><ele>116.66666666666667</ele><time>2026-04-06T10:03:37Z</time></trkpt><trkpt lat="39.61839661325603" lon="8.484166547562962"><ele>115.33333333333334</ele><time>2026-04-06T10:03:38Z</time></trkpt><trkpt lat="39.61833432887749" lon="8.483976858782482"><ele>114.0</ele><time>2026-04-06T10:03:39Z</time></trkpt><trkpt lat="39.618290159882996" lon="8.483778387104739"><ele>112.66666666666666</ele><time>2026-04-06T10:03:40Z</time></trkpt><trkpt lat="39.61826392256547" lon="8.483574612266246"><ele>111.33333333333333</ele><time>2026-04-06T10:03:41Z</time></trkpt><trkpt lat="39.61823802565122" lon="8.48337193337736"><ele>110.0</ele><time>2026-04-06T10:03:42Z</time></trkpt><trkpt lat="39.61823336998639" lon="8.483161657970554"><ele>108.66666666666666</ele><time>2026-04-06T10:03:43Z</time></trkpt><trkpt lat="39.61824723022336" lon="8.482923997305894"><ele>107.33333333333334</ele><time>2026-04-06T10:03:44Z</time></trkpt><trkpt lat="39.61825543731168" lon="8.482655097118169"><ele>106.0</ele><time>2026-04-06T10:03:45Z</time></trkpt><trkpt lat="39.61827765999727" lon="8.48239181625942"><ele>106.0</ele><time>2026-04-06T10:03:46Z</time></trkpt><trkpt lat="39.61831385692187" lon="8.482129023201717"><ele>106.0</ele><time>2026-04-06T10:03:47Z</time></trkpt><trkpt lat="39.618336920589826" lon="8.481849192435357"><ele>106.0</ele><time>2026-04-06T10:03:48Z</time></trkpt><trkpt lat="39.61836032869498" lon="8.481562997537841"><ele>105.0</ele><time>2026-04-06T10:03:49Z</time></trkpt><trkpt lat="39.618383922227515" lon="8.481274540886247"><ele>104.0</ele><time>2026-04-06T10:03:50Z</time></trkpt><trkpt lat="39.61840511408924" lon="8.481015451370922"><ele>103.0</ele><time>2026-04-06T10:03:51Z</time></trkpt><trkpt lat="39.618424826565956" lon="8.480774448656573"><ele>102.66666666666667</ele><time>2026-04-06T10:03:52Z</time></trkpt><trkpt lat="39.61842204173703" lon="8.480546129538697"><ele>102.33333333333334</ele><time>2026-04-06T10:03:53Z</time></trkpt><trkpt lat="39.61843830822838" lon="8.480345070596885"><ele>102.0</ele><time>2026-04-06T10:03:54Z</time></trkpt><trkpt lat="39.618451538723406" lon="8.480163274665417"><ele>101.6</ele><time>2026-04-06T10:03:55Z</time></trkpt><trkpt lat="39.618464207740296" lon="8.480009364129199"><ele>101.19999999999999</ele><time>2026-04-06T10:03:56Z</time></trkpt><trkpt lat="39.618472772709424" lon="8.47988322959649"><ele>100.8</ele><time>2026-04-06T10:03:57Z</time></trkpt><trkpt lat="39.618484127943624" lon="8.479790751305956"><ele>100.4</ele><time>2026-04-06T10:03:58Z</time></trkpt><trkpt lat="39.618564395910276" lon="8.47971956242442"><ele>100.0</ele><time>2026-04-06T10:04:00Z</time></trkpt><trkpt lat="39.61862963971641" lon="8.479728001329219"><ele>100.2</ele><time>2026-04-06T10:04:01Z</time></trkpt><trkpt lat="39.61870162343823" lon="8.479760640864766"><ele>100.4</ele><time>2026-04-06T10:04:02Z</time></trkpt><trkpt lat="39.61879298051052" lon="8.479787642770733"><ele>100.6</ele><time>2026-04-06T10:04:03Z</time></trkpt><trkpt lat="39.6188990262856" lon="8.479812630408684"><ele>100.8</ele><time>2026-04-06T10:04:04Z</time></trkpt><trkpt lat="39.61902229656515" lon="8.4798468301398"><ele>101.0</ele><time>2026-04-06T10:04:05Z</time></trkpt><trkpt lat="39.61914538992098" lon="8.479878678085496"><ele>101.0</ele><time>2026-04-06T10:04:06Z</time></trkpt><trkpt lat="39.61926241443746" lon="8.479906420188717"><ele>101.0</ele><time>2026-04-06T10:04:07Z</time></trkpt><trkpt lat="39.6193854913612" lon="8.47993571326866"><ele>101.0</ele><time>2026-04-06T10:04:08Z</time></trkpt><trkpt lat="39.6195184967069" lon="8.479967440008357"><ele>101.0</ele><time>2026-04-06T10:04:09Z</time></trkpt><trkpt lat="39.61966320727366" lon="8.480002912654417"><ele>100.0</ele><time>2026-04-06T10:04:10Z</time></trkpt><trkpt lat="39.61981205429616" lon="8.48004153675935"><ele>99.0</ele><time>2026-04-06T10:04:11Z</time></trkpt><trkpt lat="39.619953894039256" lon="8.480082643133024"><ele>98.0</ele><time>2026-04-06T10:04:12Z</time></trkpt><trkpt lat="39.62008956354485" lon="8.480121356694948"><ele>97.0</ele><time>2026-04-06T10:04:13Z</time></trkpt><trkpt lat="39.620224927660004" lon="8.480158258712095"><ele>95.0</ele><time>2026-04-06T10:04:14Z</time></trkpt><trkpt lat="39.620370330639446" lon="8.480189406678797"><ele>93.0</ele><time>2026-04-06T10:04:15Z</time></trkpt><trkpt lat="39.62050823568914" lon="8.48019485719519"><ele>91.0</ele><time>2026-04-06T10:04:16Z</time></trkpt><trkpt lat="39.62063411327715" lon="8.480152623445244"><ele>89.0</ele><time>2026-04-06T10:04:17Z</time></trkpt><trkpt lat="39.62075272299779" lon="8.480069706990792"><ele>89.0</ele><time>2026-04-06T10:04:18Z</time></trkpt><trkpt lat="39.620868606911756" lon="8.479960010018464"><ele>89.0</ele><time>2026-04-06T10:04:19Z</time></trkpt><trkpt lat="39.62100289186485" lon="8.479844188285634"><ele>89.0</ele><time>2026-04-06T10:04:20Z</time></trkpt><trkpt lat="39.62115728674728" lon="8.479724836265428"><ele>87.66666666666667</ele><time>2026-04-06T10:04:21Z</time></trkpt><trkpt lat="39.621319522002786" lon="8.4796002240739"><ele>86.33333333333333</ele><time>2026-04-06T10:04:22Z</time></trkpt><trkpt lat="39.621473144982005" lon="8.479479109201696"><ele>85.0</ele><time>2026-04-06T10:04:23Z</time></trkpt><trkpt lat="39.62163955175578" lon="8.479370977933435"><ele>85.0</ele><time>2026-04-06T10:04:24Z</time></trkpt><trkpt lat="39.621810284862946" lon="8.479238571123716"><ele>85.0</ele><time>2026-04-06T10:04:25Z</time></trkpt><trkpt lat="39.62198439417197" lon="8.479102992077546"><ele>85.0</ele><time>2026-04-06T10:04:26Z</time></trkpt><trkpt lat="39.622154722982145" lon="8.478945205920853"><ele>85.66666666666666</ele><time>2026-04-06T10:04:27Z</time></trkpt><trkpt lat="39.622333351433475" lon="8.478803995791756"><ele>86.33333333333333</ele><time>2026-04-06T10:04:28Z</time></trkpt><trkpt lat="39.62250138765742" lon="8.478642942381853"><ele>87.0</ele><time>2026-04-06T10:04:29Z</time></trkpt><trkpt lat="39.62265625299514" lon="8.478466214970874"><ele>86.66666666666667</ele><time>2026-04-06T10:04:30Z</time></trkpt><trkpt lat="39.622813512677595" lon="8.478311050379293"><ele>86.33333333333334</ele><time>2026-04-06T10:04:31Z</time></trkpt><trkpt lat="39.62295082429135" lon="8.478144133351845"><ele>86.0</ele><time>2026-04-06T10:04:32Z</time></trkpt><trkpt lat="39.62306860084165" lon="8.477967954440663"><ele>84.66666666666667</ele><time>2026-04-06T10:04:33Z</time></trkpt><trkpt lat="39.62316619309245" lon="8.47776898660766"><ele>83.33333333333333</ele><time>2026-04-06T10:04:34Z</time></trkpt><trkpt lat="39.62324751885075" lon="8.477579436420942"><ele>82.0</ele><time>2026-04-06T10:04:35Z</time></trkpt><trkpt lat="39.62332395496608" lon="8.477405163670165"><ele>82.0</ele><time>2026-04-06T10:04:36Z</time></trkpt><trkpt lat="39.62340423744331" lon="8.477261749949013"><ele>82.0</ele><time>2026-04-06T10:04:37Z</time></trkpt><trkpt lat="39.62350710424494" lon="8.477173868486197"><ele>82.0</ele><time>2026-04-06T10:04:38Z</time></trkpt><trkpt lat="39.62362922787943" lon="8.477111851500728"><ele>82.0</ele><time>2026-04-06T10:04:39Z</time></trkpt><trkpt lat="39.62377065549405" lon="8.477059514798869"><ele>80.0</ele><time>2026-04-06T10:04:40Z</time></trkpt><trkpt lat="39.623923677079276" lon="8.476988356125664"><ele>78.0</ele><time>2026-04-06T10:04:41Z</time></trkpt><trkpt lat="39.62407631541555" lon="8.476937582974015"><ele>76.0</ele><time>2026-04-06T10:04:42Z</time></trkpt><trkpt lat="39.624203216178536" lon="8.476871735193738"><ele>76.0</ele><time>2026-04-06T10:04:43Z</time></trkpt><trkpt lat="39.6243016457769" lon="8.476773755836431"><ele>76.0</ele><time>2026-04-06T10:04:44Z</time></trkpt><trkpt lat="39.62437611092271" lon="8.476661198884484"><ele>76.0</ele><time>2026-04-06T10:04:45Z</time></trkpt><trkpt lat="39.62436973536408" lon="8.476482569460368"><ele>76.0</ele><time>2026-04-06T10:04:46Z</time></trkpt><trkpt lat="39.62437891655738" lon="8.476328819555807"><ele>76.5</ele><time>2026-04-06T10:04:47Z</time></trkpt><trkpt lat="39.62427879172514" lon="8.476207865364657"><ele>77.0</ele><time>2026-04-06T10:04:48Z</time></trkpt><trkpt lat="39.62422995039026" lon="8.476082278212381"><ele>77.5</ele><time>2026-04-06T10:04:49Z</time></trkpt><trkpt lat="39.62429182954169" lon="8.475955654566505"><ele>78.0</ele><time>2026-04-06T10:04:50Z</time></trkpt><trkpt lat="39.62432325690356" lon="8.475800129546181"><ele>78.0</ele><time>2026-04-06T10:04:51Z</time></trkpt><trkpt lat="39.62437170147121" lon="8.475659506107515"><ele>78.0</ele><time>2026-04-06T10:04:52Z</time></trkpt><trkpt lat="39.62445179567391" lon="8.475583916523464"><ele>78.0</ele><time>2026-04-06T10:04:53Z</time></trkpt><trkpt lat="39.62454650648545" lon="8.475490927826456"><ele>78.0</ele><time>2026-04-06T10:04:54Z</time></trkpt><trkpt lat="39.62465075282508" lon="8.475376098132777"><ele>82.5</ele><time>2026-04-06T10:04:55Z</time></trkpt><trkpt lat="39.62475540602989" lon="8.475255322862058"><ele>87.0</ele><time>2026-04-06T10:04:56Z</time></trkpt><trkpt lat="39.62481466274092" lon="8.475113549607153"><ele>91.5</ele><time>2026-04-06T10:04:57Z</time></trkpt><trkpt lat="39.62483019617198" lon="8.474971427509773"><ele>96.0</ele><time>2026-04-06T10:04:58Z</time></trkpt><trkpt lat="39.62485993723445" lon="8.474825628001264"><ele>96.0</ele><time>2026-04-06T10:04:59Z</time></trkpt><trkpt lat="39.6249199396025" lon="8.474684745722715"><ele>96.0</ele><time>2026-04-06T10:05:00Z</time></trkpt><trkpt lat="39.62500222137606" lon="8.474551552165552"><ele>96.0</ele><time>2026-04-06T10:05:01Z</time></trkpt><trkpt lat="39.62508609229875" lon="8.474457610214262"><ele>96.0</ele><time>2026-04-06T10:05:02Z</time></trkpt><trkpt lat="39.625154337650144" lon="8.47441097406945"><ele>96.0</ele><time>2026-04-06T10:05:03Z</time></trkpt><trkpt lat="39.62523311447494" lon="8.47444876654681"><ele>95.5</ele><time>2026-04-06T10:05:04Z</time></trkpt><trkpt lat="39.625303170354485" lon="8.474533926285917"><ele>95.0</ele><time>2026-04-06T10:05:05Z</time></trkpt><trkpt lat="39.62533718223247" lon="8.474672592140532"><ele>94.5</ele><time>2026-04-06T10:05:06Z</time></trkpt><trkpt lat="39.62540653228392" lon="8.474805996831746"><ele>94.0</ele><time>2026-04-06T10:05:07Z</time></trkpt><trkpt lat="39.62549827451517" lon="8.474946957141336"><ele>94.0</ele><time>2026-04-06T10:05:08Z</time></trkpt><trkpt lat="39.625639967882236" lon="8.475058107723225"><ele>94.0</ele><time>2026-04-06T10:05:09Z</time></trkpt><trkpt lat="39.62581311429591" lon="8.475138573085948"><ele>94.0</ele><time>2026-04-06T10:05:10Z</time></trkpt><trkpt lat="39.625981065686595" lon="8.475221663963664"><ele>94.0</ele><time>2026-04-06T10:05:11Z</time></trkpt><trkpt lat="39.62613916509391" lon="8.47532685969001"><ele>94.0</ele><time>2026-04-06T10:05:12Z</time></trkpt><trkpt lat="39.626272057061634" lon="8.475480453998518"><ele>94.0</ele><time>2026-04-06T10:05:13Z</time></trkpt><trkpt lat="39.62641771323419" lon="8.47559192021014"><ele>96.0</ele><time>2026-04-06T10:05:14Z</time></trkpt><trkpt lat="39.62657215296155" lon="8.475694394733447"><ele>98.0</ele><time>2026-04-06T10:05:15Z</time></trkpt><trkpt lat="39.626750262870885" lon="8.475764494449036"><ele>100.0</ele><time>2026-04-06T10:05:16Z</time></trkpt><trkpt lat="39.626934666512156" lon="8.475833368990624"><ele>95.33333333333334</ele><time>2026-04-06T10:05:17Z</time></trkpt><trkpt lat="39.62711111362946" lon="8.475875875455134"><ele>90.66666666666667</ele><time>2026-04-06T10:05:18Z</time></trkpt><trkpt lat="39.627280987797995" lon="8.475885102314594"><ele>86.0</ele><time>2026-04-06T10:05:19Z</time></trkpt><trkpt lat="39.62742768356836" lon="8.47594430190792"><ele>86.0</ele><time>2026-04-06T10:05:20Z</time></trkpt><trkpt lat="39.62756786737067" lon="8.476069437906476"><ele>86.0</ele><time>2026-04-06T10:05:21Z</time></trkpt><trkpt lat="39.62772161649542" lon="8.476177946507118"><ele>86.0</ele><time>2026-04-06T10:05:22Z</time></trkpt><trkpt lat="39.62787850885963" lon="8.476307989905994"><ele>89.66666666666667</ele><time>2026-04-06T10:05:23Z</time></trkpt><trkpt lat="39.628041776457984" lon="8.47643605458807"><ele>93.33333333333334</ele><time>2026-04-06T10:05:24Z</time></trkpt><trkpt lat="39.628195988334014" lon="8.476545749067414"><ele>97.0</ele><time>2026-04-06T10:05:25Z</time></trkpt><trkpt lat="39.62834685672741" lon="8.476625135767996"><ele>97.0</ele><time>2026-04-06T10:05:26Z</time></trkpt><trkpt lat="39.62850221125229" lon="8.476664892230746"><ele>97.0</ele><time>2026-04-06T10:05:27Z</time></trkpt><trkpt lat="39.62865510607724" lon="8.476684509941663"><ele>97.0</ele><time>2026-04-06T10:05:28Z</time></trkpt><trkpt lat="39.62879562436859" lon="8.476681878420774"><ele>96.75</ele><time>2026-04-06T10:05:29Z</time></trkpt><trkpt lat="39.62892665624374" lon="8.476632735066756"><ele>96.5</ele><time>2026-04-06T10:05:30Z</time></trkpt><trkpt lat="39.629039824435644" lon="8.47654262262261"><ele>96.25</ele><time>2026-04-06T10:05:31Z</time></trkpt><trkpt lat="39.62914480384942" lon="8.476480168648191"><ele>96.0</ele><time>2026-04-06T10:05:32Z</time></trkpt><trkpt lat="39.629246345438006" lon="8.476454087537325"><ele>96.0</ele><time>2026-04-06T10:05:33Z</time></trkpt><trkpt lat="39.62933937889365" lon="8.476416244138466"><ele>96.0</ele><time>2026-04-06T10:05:34Z</time></trkpt><trkpt lat="39.6294268148548" lon="8.476470896346072"><ele>96.0</ele><time>2026-04-06T10:05:35Z</time></trkpt><trkpt lat="39.62949707299335" lon="8.476575953547966"><ele>96.0</ele><time>2026-04-06T10:05:36Z</time></trkpt><trkpt lat="39.62956798325467" lon="8.47670876281697"><ele>96.0</ele><time>2026-04-06T10:05:37Z</time></trkpt><trkpt lat="39.629671153282096" lon="8.476835491537775"><ele>97.33333333333334</ele><time>2026-04-06T10:05:38Z</time></trkpt><trkpt lat="39.629799790645635" lon="8.476950754954416"><ele>98.66666666666667</ele><time>2026-04-06T10:05:39Z</time></trkpt><trkpt lat="39.629940504087145" lon="8.477067601494163"><ele>100.0</ele><time>2026-04-06T10:05:40Z</time></trkpt><trkpt lat="39.630082169947705" lon="8.477192831323586"><ele>100.0</ele><time>2026-04-06T10:05:41Z</time></trkpt><trkpt lat="39.63022013751128" lon="8.477339569401705"><ele>100.0</ele><time>2026-04-06T10:05:42Z</time></trkpt><trkpt lat="39.63034228647334" lon="8.477507717171065"><ele>100.0</ele><time>2026-04-06T10:05:43Z</time></trkpt><trkpt lat="39.630464784575885" lon="8.47769367976697"><ele>101.33333333333334</ele><time>2026-04-06T10:05:44Z</time></trkpt><trkpt lat="39.6305885681649" lon="8.47787820436424"><ele>102.66666666666666</ele><time>2026-04-06T10:05:45Z</time></trkpt><trkpt lat="39.630704861647054" lon="8.4780506549088"><ele>104.0</ele><time>2026-04-06T10:05:46Z</time></trkpt><trkpt lat="39.63080193987085" lon="8.478194446501014"><ele>104.0</ele><time>2026-04-06T10:05:47Z</time></trkpt><trkpt lat="39.630899125816214" lon="8.47832222493162"><ele>104.0</ele><time>2026-04-06T10:05:48Z</time></trkpt><trkpt lat="39.63101840555946" lon="8.4784350526043"><ele>104.0</ele><time>2026-04-06T10:05:49Z</time></trkpt><trkpt lat="39.63116860613037" lon="8.47853593518227"><ele>108.0</ele><time>2026-04-06T10:05:50Z</time></trkpt><trkpt lat="39.63133082340412" lon="8.478637097792834"><ele>112.0</ele><time>2026-04-06T10:05:51Z</time></trkpt><trkpt lat="39.63148344911717" lon="8.478738367427685"><ele>116.0</ele><time>2026-04-06T10:05:52Z</time></trkpt><trkpt lat="39.631615014602694" lon="8.478825325839477"><ele>116.0</ele><time>2026-04-06T10:05:53Z</time></trkpt><trkpt lat="39.631730333853" lon="8.478893461375797"><ele>116.0</ele><time>2026-04-06T10:05:54Z</time></trkpt><trkpt lat="39.63184384960304" lon="8.478910328219566"><ele>116.0</ele><time>2026-04-06T10:05:55Z</time></trkpt><trkpt lat="39.631943789021804" lon="8.478869602026215"><ele>116.0</ele><time>2026-04-06T10:05:56Z</time></trkpt><trkpt lat="39.63203090328105" lon="8.478771615113137"><ele>121.0</ele><time>2026-04-06T10:05:57Z</time></trkpt><trkpt lat="39.63210656014444" lon="8.478639398896865"><ele>126.0</ele><time>2026-04-06T10:05:58Z</time></trkpt><trkpt lat="39.63216761030299" lon="8.478478826864249"><ele>131.0</ele><time>2026-04-06T10:05:59Z</time></trkpt><trkpt lat="39.63222646631911" lon="8.478300677020451"><ele>136.0</ele><time>2026-04-06T10:06:00Z</time></trkpt><trkpt lat="39.63229850068388" lon="8.478123489345803"><ele>136.0</ele><time>2026-04-06T10:06:01Z</time></trkpt><trkpt lat="39.63238301712535" lon="8.477941022614898"><ele>136.0</ele><time>2026-04-06T10:06:02Z</time></trkpt><trkpt lat="39.632473601307666" lon="8.477749501172802"><ele>136.0</ele><time>2026-04-06T10:06:03Z</time></trkpt><trkpt lat="39.632569422051425" lon="8.477553536898302"><ele>134.66666666666669</ele><time>2026-04-06T10:06:04Z</time></trkpt><trkpt lat="39.632678532600515" lon="8.477366310842738"><ele>133.33333333333334</ele><time>2026-04-06T10:06:05Z</time></trkpt><trkpt lat="39.63280414350824" lon="8.477188655046579"><ele>132.0</ele><time>2026-04-06T10:06:06Z</time></trkpt><trkpt lat="39.632939773537686" lon="8.477019449124617"><ele>134.25</ele><time>2026-04-06T10:06:07Z</time></trkpt><trkpt lat="39.63306536018137" lon="8.476871316569648"><ele>136.5</ele><time>2026-04-06T10:06:08Z</time></trkpt><trkpt lat="39.6331742124952" lon="8.4767493859253"><ele>138.75</ele><time>2026-04-06T10:06:09Z</time></trkpt><trkpt lat="39.6332780015036" lon="8.47665264059053"><ele>141.0</ele><time>2026-04-06T10:06:10Z</time></trkpt><trkpt lat="39.63338201542295" lon="8.476583953850975"><ele>141.0</ele><time>2026-04-06T10:06:11Z</time></trkpt><trkpt lat="39.63349708132702" lon="8.476536226759265"><ele>141.0</ele><time>2026-04-06T10:06:12Z</time></trkpt><trkpt lat="39.63362108650663" lon="8.47651112440135"><ele>141.0</ele><time>2026-04-06T10:06:13Z</time></trkpt><trkpt lat="39.63374797403645" lon="8.476529392189914"><ele>141.0</ele><time>2026-04-06T10:06:14Z</time></trkpt><trkpt lat="39.63386395457966" lon="8.476602086172804"><ele>141.25</ele><time>2026-04-06T10:06:15Z</time></trkpt><trkpt lat="39.63396315894171" lon="8.476717013325072"><ele>141.5</ele><time>2026-04-06T10:06:16Z</time></trkpt><trkpt lat="39.63403756253822" lon="8.476862360413831"><ele>141.75</ele><time>2026-04-06T10:06:17Z</time></trkpt><trkpt lat="39.63408583872988" lon="8.477027019917779"><ele>142.0</ele><time>2026-04-06T10:06:18Z</time></trkpt><trkpt lat="39.634120168429874" lon="8.47721783626636"><ele>142.0</ele><time>2026-04-06T10:06:19Z</time></trkpt><trkpt lat="39.63415711712709" lon="8.477430459559406"><ele>142.0</ele><time>2026-04-06T10:06:20Z</time></trkpt><trkpt lat="39.63417917760288" lon="8.477663902894273"><ele>142.0</ele><time>2026-04-06T10:06:21Z</time></trkpt><trkpt lat="39.63422425593637" lon="8.47790583159541"><ele>143.33333333333334</ele><time>2026-04-06T10:06:22Z</time></trkpt><trkpt lat="39.634248641547856" lon="8.478177880738043"><ele>144.66666666666666</ele><time>2026-04-06T10:06:23Z</time></trkpt><trkpt lat="39.63428268319148" lon="8.47843259496792"><ele>146.0</ele><time>2026-04-06T10:06:24Z</time></trkpt><trkpt lat="39.63431905480583" lon="8.478655015197038"><ele>146.33333333333331</ele><time>2026-04-06T10:06:25Z</time></trkpt><trkpt lat="39.63436795393465" lon="8.478852663733829"><ele>146.66666666666666</ele><time>2026-04-06T10:06:26Z</time></trkpt><trkpt lat="39.634439866155006" lon="8.479040728481207"><ele>147.0</ele><time>2026-04-06T10:06:27Z</time></trkpt><trkpt lat="39.63455222881612" lon="8.479200926979342"><ele>147.0</ele><time>2026-04-06T10:06:28Z</time></trkpt><trkpt lat="39.63467001551895" lon="8.479349606441394"><ele>147.0</ele><time>2026-04-06T10:06:29Z</time></trkpt><trkpt lat="39.63481353686448" lon="8.479451299477264"><ele>147.0</ele><time>2026-04-06T10:06:30Z</time></trkpt><trkpt lat="39.63496377845302" lon="8.479517642048629"><ele>147.0</ele><time>2026-04-06T10:06:31Z</time></trkpt><trkpt lat="39.63510483661279" lon="8.479539332547855"><ele>147.0</ele><time>2026-04-06T10:06:32Z</time></trkpt><trkpt lat="39.63526190809384" lon="8.47951191359111"><ele>147.0</ele><time>2026-04-06T10:06:33Z</time></trkpt><trkpt lat="39.63542909502561" lon="8.47945098975079"><ele>147.33333333333334</ele><time>2026-04-06T10:06:34Z</time></trkpt><trkpt lat="39.63559961807197" lon="8.479374270880351"><ele>147.66666666666669</ele><time>2026-04-06T10:06:35Z</time></trkpt><trkpt lat="39.63576047184113" lon="8.479284663783986"><ele>148.0</ele><time>2026-04-06T10:06:36Z</time></trkpt><trkpt lat="39.63591275877344" lon="8.479162926907701"><ele>148.0</ele><time>2026-04-06T10:06:37Z</time></trkpt><trkpt lat="39.63604800973433" lon="8.479002230150728"><ele>148.0</ele><time>2026-04-06T10:06:38Z</time></trkpt><trkpt lat="39.63617411857536" lon="8.4788039146793"><ele>148.0</ele><time>2026-04-06T10:06:39Z</time></trkpt><trkpt lat="39.63629251673082" lon="8.478581869679811"><ele>150.33333333333334</ele><time>2026-04-06T10:06:40Z</time></trkpt><trkpt lat="39.636415364474026" lon="8.4783498750947"><ele>152.66666666666666</ele><time>2026-04-06T10:06:41Z</time></trkpt><trkpt lat="39.63654796484659" lon="8.478161901398645"><ele>155.0</ele><time>2026-04-06T10:06:42Z</time></trkpt><trkpt lat="39.63667259373309" lon="8.477997867952597"><ele>155.0</ele><time>2026-04-06T10:06:43Z</time></trkpt><trkpt lat="39.63681086785415" lon="8.47786447201401"><ele>155.0</ele><time>2026-04-06T10:06:44Z</time></trkpt><trkpt lat="39.636967750448775" lon="8.477735234192147"><ele>155.0</ele><time>2026-04-06T10:06:45Z</time></trkpt><trkpt lat="39.63713127295875" lon="8.477601472380943"><ele>154.33333333333331</ele><time>2026-04-06T10:06:46Z</time></trkpt><trkpt lat="39.63729168236139" lon="8.477471078978555"><ele>153.66666666666666</ele><time>2026-04-06T10:06:47Z</time></trkpt><trkpt lat="39.63743824067041" lon="8.477327833858805"><ele>153.0</ele><time>2026-04-06T10:06:48Z</time></trkpt><trkpt lat="39.637594542981034" lon="8.477200492446611"><ele>152.33333333333334</ele><time>2026-04-06T10:06:49Z</time></trkpt><trkpt lat="39.63776297081376" lon="8.477087146233838"><ele>151.66666666666669</ele><time>2026-04-06T10:06:50Z</time></trkpt><trkpt lat="39.637920804614154" lon="8.476956210501013"><ele>151.0</ele><time>2026-04-06T10:06:51Z</time></trkpt><trkpt lat="39.63807427917368" lon="8.476829120647203"><ele>151.0</ele><time>2026-04-06T10:06:52Z</time></trkpt><trkpt lat="39.638208521697315" lon="8.476693013270216"><ele>151.0</ele><time>2026-04-06T10:06:53Z</time></trkpt><trkpt lat="39.638345427434764" lon="8.476587443370201"><ele>151.0</ele><time>2026-04-06T10:06:54Z</time></trkpt><trkpt lat="39.6384943360665" lon="8.476520607092453"><ele>150.33333333333334</ele><time>2026-04-06T10:06:55Z</time></trkpt><trkpt lat="39.63865047306822" lon="8.476480156707375"><ele>149.66666666666666</ele><time>2026-04-06T10:06:56Z</time></trkpt><trkpt lat="39.638813063902866" lon="8.476475057483936"><ele>149.0</ele><time>2026-04-06T10:06:57Z</time></trkpt><trkpt lat="39.63896867923809" lon="8.476464760669307"><ele>149.0</ele><time>2026-04-06T10:06:58Z</time></trkpt><trkpt lat="39.63911556638629" lon="8.476480387948694"><ele>149.0</ele><time>2026-04-06T10:06:59Z</time></trkpt><trkpt lat="39.63925867623051" lon="8.47643194931062"><ele>149.0</ele><time>2026-04-06T10:07:00Z</time></trkpt><trkpt lat="39.63939866511966" lon="8.476367265357627"><ele>149.0</ele><time>2026-04-06T10:07:01Z</time></trkpt><trkpt lat="39.63950940092341" lon="8.476206736189898"><ele>148.66666666666666</ele><time>2026-04-06T10:07:02Z</time></trkpt><trkpt lat="39.63961110934487" lon="8.476025029909419"><ele>148.33333333333334</ele><time>2026-04-06T10:07:03Z</time></trkpt><trkpt lat="39.63973080006364" lon="8.475845460275686"><ele>148.0</ele><time>2026-04-06T10:07:04Z</time></trkpt><trkpt lat="39.63985015598197" lon="8.475643705296282"><ele>148.0</ele><time>2026-04-06T10:07:05Z</time></trkpt><trkpt lat="39.63996110198213" lon="8.475452682209573"><ele>148.0</ele><time>2026-04-06T10:07:06Z</time></trkpt><trkpt lat="39.64007829300162" lon="8.47524977714542"><ele>148.0</ele><time>2026-04-06T10:07:07Z</time></trkpt><trkpt lat="39.6401855455886" lon="8.475030410011763"><ele>145.66666666666669</ele><time>2026-04-06T10:07:08Z</time></trkpt><trkpt lat="39.640308230758144" lon="8.474835274626853"><ele>143.33333333333334</ele><time>2026-04-06T10:07:09Z</time></trkpt><trkpt lat="39.64043284002937" lon="8.474665002054216"><ele>141.0</ele><time>2026-04-06T10:07:10Z</time></trkpt><trkpt lat="39.64056016200401" lon="8.474529120953612"><ele>140.5</ele><time>2026-04-06T10:07:11Z</time></trkpt><trkpt lat="39.64070281397108" lon="8.474457055419597"><ele>140.0</ele><time>2026-04-06T10:07:12Z</time></trkpt><trkpt lat="39.64084305381713" lon="8.474405905426924"><ele>139.5</ele><time>2026-04-06T10:07:13Z</time></trkpt><trkpt lat="39.64098369074978" lon="8.474382437789657"><ele>139.0</ele><time>2026-04-06T10:07:14Z</time></trkpt><trkpt lat="39.64113486177219" lon="8.474378644333461"><ele>139.0</ele><time>2026-04-06T10:07:15Z</time></trkpt><trkpt lat="39.64129328607471" lon="8.474384741176593"><ele>139.0</ele><time>2026-04-06T10:07:16Z</time></trkpt><trkpt lat="39.641466766768986" lon="8.474397108709153"><ele>139.0</ele><time>2026-04-06T10:07:17Z</time></trkpt><trkpt lat="39.64165578823063" lon="8.474408792886706"><ele>139.0</ele><time>2026-04-06T10:07:18Z</time></trkpt><trkpt lat="39.641847822106975" lon="8.47439729295121"><ele>139.0</ele><time>2026-04-06T10:07:19Z</time></trkpt><trkpt lat="39.64202782861488" lon="8.474430585798205"><ele>139.0</ele><time>2026-04-06T10:07:20Z</time></trkpt><trkpt lat="39.64219773956995" lon="8.47443782878607"><ele>137.33333333333334</ele><time>2026-04-06T10:07:21Z</time></trkpt><trkpt lat="39.642359904453905" lon="8.474415478585989"><ele>135.66666666666666</ele><time>2026-04-06T10:07:22Z</time></trkpt><trkpt lat="39.642519255333866" lon="8.474360929178179"><ele>134.0</ele><time>2026-04-06T10:07:23Z</time></trkpt><trkpt lat="39.642679583596625" lon="8.474290552824092"><ele>132.33333333333331</ele><time>2026-04-06T10:07:24Z</time></trkpt><trkpt lat="39.64283040258219" lon="8.474233179285575"><ele>130.66666666666666</ele><time>2026-04-06T10:07:25Z</time></trkpt><trkpt lat="39.64297995236788" lon="8.474215811376572"><ele>129.0</ele><time>2026-04-06T10:07:26Z</time></trkpt><trkpt lat="39.64313238554523" lon="8.47424572062768"><ele>129.0</ele><time>2026-04-06T10:07:27Z</time></trkpt><trkpt lat="39.643284550975004" lon="8.47430659013619"><ele>129.0</ele><time>2026-04-06T10:07:28Z</time></trkpt><trkpt lat="39.64342649885239" lon="8.474358301920992"><ele>129.0</ele><time>2026-04-06T10:07:29Z</time></trkpt><trkpt lat="39.643560254029246" lon="8.474356977750569"><ele>129.0</ele><time>2026-04-06T10:07:30Z</time></trkpt><trkpt lat="39.64369711051929" lon="8.474296485145976"><ele>125.33333333333334</ele><time>2026-04-06T10:07:31Z</time></trkpt><trkpt lat="39.643837675442974" lon="8.474195872493958"><ele>121.66666666666667</ele><time>2026-04-06T10:07:32Z</time></trkpt><trkpt lat="39.64398038559797" lon="8.474100831247961"><ele>118.0</ele><time>2026-04-06T10:07:33Z</time></trkpt><trkpt lat="39.64411818091812" lon="8.474040780134713"><ele>118.0</ele><time>2026-04-06T10:07:34Z</time></trkpt><trkpt lat="39.644253127189124" lon="8.47402545686876"><ele>118.0</ele><time>2026-04-06T10:07:35Z</time></trkpt><trkpt lat="39.64438135989973" lon="8.474062782606339"><ele>118.0</ele><time>2026-04-06T10:07:36Z</time></trkpt><trkpt lat="39.6444945103823" lon="8.474153555962737"><ele>118.0</ele><time>2026-04-06T10:07:37Z</time></trkpt><trkpt lat="39.64459189266046" lon="8.474267976247774"><ele>117.66666666666667</ele><time>2026-04-06T10:07:38Z</time></trkpt><trkpt lat="39.64470328693023" lon="8.474371850840761"><ele>117.33333333333334</ele><time>2026-04-06T10:07:39Z</time></trkpt><trkpt lat="39.64484981192351" lon="8.474437777383073"><ele>117.0</ele><time>2026-04-06T10:07:40Z</time></trkpt><trkpt lat="39.64502652165271" lon="8.474476040474693"><ele>117.0</ele><time>2026-04-06T10:07:41Z</time></trkpt><trkpt lat="39.64522669954531" lon="8.4745123179099"><ele>117.0</ele><time>2026-04-06T10:07:42Z</time></trkpt><trkpt lat="39.64543823415997" lon="8.474555348780079"><ele>117.0</ele><time>2026-04-06T10:07:43Z</time></trkpt><trkpt lat="39.64564020125922" lon="8.474598034271306"><ele>111.0</ele><time>2026-04-06T10:07:44Z</time></trkpt><trkpt lat="39.64582840622914" lon="8.474627972081986"><ele>105.0</ele><time>2026-04-06T10:07:45Z</time></trkpt><trkpt lat="39.64600087840626" lon="8.474659867231466"><ele>99.0</ele><time>2026-04-06T10:07:46Z</time></trkpt><trkpt lat="39.64615650661278" lon="8.474711557574798"><ele>98.66666666666666</ele><time>2026-04-06T10:07:47Z</time></trkpt><trkpt lat="39.64629465119541" lon="8.474803342433692"><ele>98.33333333333333</ele><time>2026-04-06T10:07:48Z</time></trkpt><trkpt lat="39.64641622704523" lon="8.474939457137717"><ele>98.0</ele><time>2026-04-06T10:07:49Z</time></trkpt><trkpt lat="39.64651878800746" lon="8.475118054204325"><ele>98.0</ele><time>2026-04-06T10:07:50Z</time></trkpt><trkpt lat="39.6466139701653" lon="8.475320924730946"><ele>98.0</ele><time>2026-04-06T10:07:51Z</time></trkpt><trkpt lat="39.64670587112045" lon="8.475514554713197"><ele>98.0</ele><time>2026-04-06T10:07:52Z</time></trkpt><trkpt lat="39.646811214290246" lon="8.475712610117391"><ele>97.0</ele><time>2026-04-06T10:07:53Z</time></trkpt><trkpt lat="39.646917563428744" lon="8.47590369523156"><ele>96.0</ele><time>2026-04-06T10:07:54Z</time></trkpt><trkpt lat="39.647014952222136" lon="8.476050451755444"><ele>95.0</ele><time>2026-04-06T10:07:55Z</time></trkpt><trkpt lat="39.64712300981409" lon="8.476144464648856"><ele>94.5</ele><time>2026-04-06T10:07:56Z</time></trkpt><trkpt lat="39.64724540338117" lon="8.476176516264886"><ele>94.0</ele><time>2026-04-06T10:07:57Z</time></trkpt><trkpt lat="39.64738046986304" lon="8.476155642756838"><ele>93.5</ele><time>2026-04-06T10:07:58Z</time></trkpt><trkpt lat="39.64753029182851" lon="8.476114227744358"><ele>93.0</ele><time>2026-04-06T10:07:59Z</time></trkpt><trkpt lat="39.647694329691824" lon="8.476081505483359"><ele>96.66666666666666</ele><time>2026-04-06T10:08:00Z</time></trkpt><trkpt lat="39.647867494583025" lon="8.476052234876482"><ele>100.33333333333333</ele><time>2026-04-06T10:08:01Z</time></trkpt><trkpt lat="39.64805178948188" lon="8.476028449565506"><ele>104.0</ele><time>2026-04-06T10:08:02Z</time></trkpt><trkpt lat="39.64824299921743" lon="8.476001944318725"><ele>104.0</ele><time>2026-04-06T10:08:03Z</time></trkpt><trkpt lat="39.64843274020264" lon="8.475964823424054"><ele>104.0</ele><time>2026-04-06T10:08:04Z</time></trkpt><trkpt lat="39.648589903793166" lon="8.475918316309537"><ele>104.0</ele><time>2026-04-06T10:08:05Z</time></trkpt><trkpt lat="39.64871756023284" lon="8.475846792557489"><ele>106.5</ele><time>2026-04-06T10:08:06Z</time></trkpt><trkpt lat="39.64881922822306" lon="8.475741244275037"><ele>109.0</ele><time>2026-04-06T10:08:07Z</time></trkpt><trkpt lat="39.64889307493285" lon="8.475601918979375"><ele>111.5</ele><time>2026-04-06T10:08:08Z</time></trkpt><trkpt lat="39.64893236080719" lon="8.475425387887897"><ele>114.0</ele><time>2026-04-06T10:08:09Z</time></trkpt><trkpt lat="39.648936954530555" lon="8.475232735639445"><ele>114.0</ele><time>2026-04-06T10:08:10Z</time></trkpt><trkpt lat="39.64899136392328" lon="8.475078975215443"><ele>114.0</ele><time>2026-04-06T10:08:11Z</time></trkpt><trkpt lat="39.649048323228584" lon="8.47495758528691"><ele>114.0</ele><time>2026-04-06T10:08:12Z</time></trkpt><trkpt lat="39.64914240823661" lon="8.474902032629108"><ele>114.0</ele><time>2026-04-06T10:08:13Z</time></trkpt><trkpt lat="39.64925241750375" lon="8.474883493368454"><ele>114.0</ele><time>2026-04-06T10:08:14Z</time></trkpt><trkpt lat="39.649375650772015" lon="8.474904489986844"><ele>114.0</ele><time>2026-04-06T10:08:15Z</time></trkpt><trkpt lat="39.64951606936446" lon="8.474935423419142"><ele>114.0</ele><time>2026-04-06T10:08:16Z</time></trkpt><trkpt lat="39.64966372550262" lon="8.47499367007738"><ele>114.0</ele><time>2026-04-06T10:08:17Z</time></trkpt><trkpt lat="39.64981962322448" lon="8.475046920380267"><ele>116.33333333333334</ele><time>2026-04-06T10:08:18Z</time></trkpt><trkpt lat="39.64998320699261" lon="8.47510056748216"><ele>118.66666666666667</ele><time>2026-04-06T10:08:19Z</time></trkpt><trkpt lat="39.650148551950586" lon="8.47515337537786"><ele>121.0</ele><time>2026-04-06T10:08:20Z</time></trkpt><trkpt lat="39.6503004705475" lon="8.475181055216037"><ele>123.66666666666667</ele><time>2026-04-06T10:08:21Z</time></trkpt><trkpt lat="39.650444075087485" lon="8.475158554207809"><ele>126.33333333333334</ele><time>2026-04-06T10:08:22Z</time></trkpt><trkpt lat="39.650595817362785" lon="8.475085381057314"><ele>129.0</ele><time>2026-04-06T10:08:23Z</time></trkpt><trkpt lat="39.650754961306205" lon="8.474984914017533"><ele>129.0</ele><time>2026-04-06T10:08:24Z</time></trkpt><trkpt lat="39.65091789740294" lon="8.47488595653707"><ele>129.0</ele><time>2026-04-06T10:08:25Z</time></trkpt><trkpt lat="39.65106693321079" lon="8.474834168070064"><ele>129.0</ele><time>2026-04-06T10:08:26Z</time></trkpt><trkpt lat="39.651196422438204" lon="8.474813412687094"><ele>129.6</ele><time>2026-04-06T10:08:27Z</time></trkpt><trkpt lat="39.65131159167452" lon="8.47481421366356"><ele>130.2</ele><time>2026-04-06T10:08:28Z</time></trkpt><trkpt lat="39.65141122398365" lon="8.474885104339286"><ele>130.79999999999998</ele><time>2026-04-06T10:08:29Z</time></trkpt><trkpt lat="39.65148922891074" lon="8.474985550929986"><ele>131.4</ele><time>2026-04-06T10:08:30Z</time></trkpt><trkpt lat="39.651525007392145" lon="8.475105017535062"><ele>132.0</ele><time>2026-04-06T10:08:31Z</time></trkpt><trkpt lat="39.651528138084174" lon="8.475243217380905"><ele>132.0</ele><time>2026-04-06T10:08:32Z</time></trkpt><trkpt lat="39.65149663268842" lon="8.475391529524657"><ele>132.0</ele><time>2026-04-06T10:08:33Z</time></trkpt><trkpt lat="39.651431026692215" lon="8.475549922945842"><ele>132.0</ele><time>2026-04-06T10:08:34Z</time></trkpt><trkpt lat="39.65135160606033" lon="8.475718773485"><ele>132.0</ele><time>2026-04-06T10:08:35Z</time></trkpt><trkpt lat="39.65128335952551" lon="8.475915435747666"><ele>132.0</ele><time>2026-04-06T10:08:36Z</time></trkpt><trkpt lat="39.65123944971724" lon="8.476139115035103"><ele>132.0</ele><time>2026-04-06T10:08:37Z</time></trkpt><trkpt lat="39.65122826483594" lon="8.476394307384178"><ele>132.0</ele><time>2026-04-06T10:08:38Z</time></trkpt><trkpt lat="39.65124101871661" lon="8.476658840663358"><ele>132.0</ele><time>2026-04-06T10:08:39Z</time></trkpt><trkpt lat="39.65124835494853" lon="8.476900204444602"><ele>132.0</ele><time>2026-04-06T10:08:40Z</time></trkpt><trkpt lat="39.651244332389105" lon="8.47711002595656"><ele>132.0</ele><time>2026-04-06T10:08:41Z</time></trkpt><trkpt lat="39.65126128608711" lon="8.477285382836778"><ele>134.25</ele><time>2026-04-06T10:08:42Z</time></trkpt><trkpt lat="39.651320761156924" lon="8.477426987493287"><ele>136.5</ele><time>2026-04-06T10:08:43Z</time></trkpt><trkpt lat="39.65141761981373" lon="8.477520693910863"><ele>138.75</ele><time>2026-04-06T10:08:44Z</time></trkpt><trkpt lat="39.651536711865404" lon="8.477572274399142"><ele>141.0</ele><time>2026-04-06T10:08:45Z</time></trkpt><trkpt lat="39.65166588537534" lon="8.477579122572118"><ele>141.0</ele><time>2026-04-06T10:08:46Z</time></trkpt><trkpt lat="39.65177561230037" lon="8.477523024980629"><ele>141.0</ele><time>2026-04-06T10:08:47Z</time></trkpt><trkpt lat="39.65185590180165" lon="8.477414225338496"><ele>141.0</ele><time>2026-04-06T10:08:48Z</time></trkpt><trkpt lat="39.651905120082" lon="8.477258945493396"><ele>141.0</ele><time>2026-04-06T10:08:49Z</time></trkpt><trkpt lat="39.65192564026574" lon="8.477074357814702"><ele>141.0</ele><time>2026-04-06T10:08:50Z</time></trkpt><trkpt lat="39.65198499151085" lon="8.47689479907359"><ele>141.0</ele><time>2026-04-06T10:08:51Z</time></trkpt><trkpt lat="39.65206368284053" lon="8.476734186027798"><ele>141.0</ele><time>2026-04-06T10:08:52Z</time></trkpt><trkpt lat="39.6521534227269" lon="8.476597093341608"><ele>141.0</ele><time>2026-04-06T10:08:53Z</time></trkpt><trkpt lat="39.6522553406803" lon="8.476490453685042"><ele>141.0</ele><time>2026-04-06T10:08:54Z</time></trkpt><trkpt lat="39.65236430661335" lon="8.47642754981102"><ele>141.0</ele><time>2026-04-06T10:08:55Z</time></trkpt><trkpt lat="39.65247744544055" lon="8.476410896536711"><ele>141.0</ele><time>2026-04-06T10:08:56Z</time></trkpt><trkpt lat="39.652598183851765" lon="8.47642963263595"><ele>141.0</ele><time>2026-04-06T10:08:57Z</time></trkpt><trkpt lat="39.65271941319707" lon="8.476468594723993"><ele>136.33333333333334</ele><time>2026-04-06T10:08:58Z</time></trkpt><trkpt lat="39.65282176912506" lon="8.476592525163063"><ele>131.66666666666669</ele><time>2026-04-06T10:08:59Z</time></trkpt><trkpt lat="39.65294344406977" lon="8.476721271148575"><ele>127.0</ele><time>2026-04-06T10:09:00Z</time></trkpt><trkpt lat="39.653060699884264" lon="8.476891413663461"><ele>127.0</ele><time>2026-04-06T10:09:01Z</time></trkpt><trkpt lat="39.65316390314246" lon="8.47705206406316"><ele>127.0</ele><time>2026-04-06T10:09:02Z</time></trkpt><trkpt lat="39.65324547045197" lon="8.477208263546217"><ele>127.0</ele><time>2026-04-06T10:09:03Z</time></trkpt><trkpt lat="39.65327982643564" lon="8.477394473001082"><ele>130.5</ele><time>2026-04-06T10:09:04Z</time></trkpt><trkpt lat="39.6533174886676" lon="8.477591179886202"><ele>134.0</ele><time>2026-04-06T10:09:05Z</time></trkpt><trkpt lat="39.65333071637986" lon="8.477776870879163"><ele>137.5</ele><time>2026-04-06T10:09:06Z</time></trkpt><trkpt lat="39.65336179009995" lon="8.477936305074815"><ele>141.0</ele><time>2026-04-06T10:09:07Z</time></trkpt><trkpt lat="39.653428279927795" lon="8.478075951925995"><ele>143.5</ele><time>2026-04-06T10:09:08Z</time></trkpt><trkpt lat="39.65352623600873" lon="8.478185096880045"><ele>146.0</ele><time>2026-04-06T10:09:09Z</time></trkpt><trkpt lat="39.653637575424426" lon="8.478248004158134"><ele>148.5</ele><time>2026-04-06T10:09:10Z</time></trkpt><trkpt lat="39.65375807103519" lon="8.478267880442573"><ele>151.0</ele><time>2026-04-06T10:09:11Z</time></trkpt><trkpt lat="39.65386883096601" lon="8.478238967030364"><ele>151.0</ele><time>2026-04-06T10:09:12Z</time></trkpt><trkpt lat="39.653967605496966" lon="8.478159834261621"><ele>151.0</ele><time>2026-04-06T10:09:13Z</time></trkpt><trkpt lat="39.654052922348036" lon="8.47803392728405"><ele>151.0</ele><time>2026-04-06T10:09:14Z</time></trkpt><trkpt lat="39.654113667481816" lon="8.47786965891356"><ele>151.0</ele><time>2026-04-06T10:09:15Z</time></trkpt><trkpt lat="39.654156790233365" lon="8.47769083363561"><ele>147.33333333333334</ele><time>2026-04-06T10:09:16Z</time></trkpt><trkpt lat="39.65418852597901" lon="8.477503541434638"><ele>143.66666666666666</ele><time>2026-04-06T10:09:17Z</time></trkpt><trkpt lat="39.65423003862184" lon="8.477304543033414"><ele>140.0</ele><time>2026-04-06T10:09:18Z</time></trkpt><trkpt lat="39.65425587287644" lon="8.477093454806429"><ele>138.0</ele><time>2026-04-06T10:09:19Z</time></trkpt><trkpt lat="39.65429202909142" lon="8.476878740754564"><ele>136.0</ele><time>2026-04-06T10:09:20Z</time></trkpt><trkpt lat="39.65434157760136" lon="8.476671694936284"><ele>134.0</ele><time>2026-04-06T10:09:21Z</time></trkpt><trkpt lat="39.65440997732308" lon="8.476478569645813"><ele>137.0</ele><time>2026-04-06T10:09:22Z</time></trkpt><trkpt lat="39.654487681042525" lon="8.476293072061267"><ele>140.0</ele><time>2026-04-06T10:09:23Z</time></trkpt><trkpt lat="39.654574682561794" lon="8.476104671492235"><ele>143.0</ele><time>2026-04-06T10:09:24Z</time></trkpt><trkpt lat="39.65466230157478" lon="8.475919533781665"><ele>143.0</ele><time>2026-04-06T10:09:25Z</time></trkpt><trkpt lat="39.65474111473658" lon="8.475754598566203"><ele>143.0</ele><time>2026-04-06T10:09:26Z</time></trkpt><trkpt lat="39.65482688159155" lon="8.475636901471908"><ele>143.0</ele><time>2026-04-06T10:09:27Z</time></trkpt><trkpt lat="39.654930308067634" lon="8.475552501121431"><ele>143.0</ele><time>2026-04-06T10:09:28Z</time></trkpt><trkpt lat="39.65505669108627" lon="8.475484480331618"><ele>139.5</ele><time>2026-04-06T10:09:29Z</time></trkpt><trkpt lat="39.655190838483755" lon="8.47541342817547"><ele>136.0</ele><time>2026-04-06T10:09:30Z</time></trkpt><trkpt lat="39.65531027485234" lon="8.475324457619816"><ele>132.5</ele><time>2026-04-06T10:09:31Z</time></trkpt><trkpt lat="39.65543099932141" lon="8.475289282231811"><ele>129.0</ele><time>2026-04-06T10:09:32Z</time></trkpt><trkpt lat="39.655542537734455" lon="8.475338964848287"><ele>128.5</ele><time>2026-04-06T10:09:33Z</time></trkpt><trkpt lat="39.655655286830076" lon="8.475385718410493"><ele>128.0</ele><time>2026-04-06T10:09:34Z</time></trkpt><trkpt lat="39.65574666341443" lon="8.475510174887148"><ele>127.5</ele><time>2026-04-06T10:09:35Z</time></trkpt><trkpt lat="39.65582228480741" lon="8.475672843310466"><ele>127.0</ele><time>2026-04-06T10:09:36Z</time></trkpt><trkpt lat="39.65589047895622" lon="8.47586315864482"><ele>130.66666666666669</ele><time>2026-04-06T10:09:37Z</time></trkpt><trkpt lat="39.65595630735679" lon="8.476064130225234"><ele>134.33333333333334</ele><time>2026-04-06T10:09:38Z</time></trkpt><trkpt lat="39.65602558289711" lon="8.476237578904536"><ele>138.0</ele><time>2026-04-06T10:09:39Z</time></trkpt><trkpt lat="39.65610826490993" lon="8.476379679370675"><ele>139.25</ele><time>2026-04-06T10:09:40Z</time></trkpt><trkpt lat="39.65621665960174" lon="8.476484870018592"><ele>140.5</ele><time>2026-04-06T10:09:41Z</time></trkpt><trkpt lat="39.65633849850746" lon="8.476533498303736"><ele>141.75</ele><time>2026-04-06T10:09:42Z</time></trkpt><trkpt lat="39.65647182241287" lon="8.47652594285494"><ele>143.0</ele><time>2026-04-06T10:09:43Z</time></trkpt><trkpt lat="39.65661055160474" lon="8.476465511057171"><ele>143.0</ele><time>2026-04-06T10:09:44Z</time></trkpt><trkpt lat="39.65674924628338" lon="8.476361040477514"><ele>143.0</ele><time>2026-04-06T10:09:45Z</time></trkpt><trkpt lat="39.656895026923635" lon="8.47622681270177"><ele>143.0</ele><time>2026-04-06T10:09:46Z</time></trkpt><trkpt lat="39.657060375271946" lon="8.476086731526705"><ele>140.66666666666666</ele><time>2026-04-06T10:09:47Z</time></trkpt><trkpt lat="39.65723574497421" lon="8.475951745735786"><ele>138.33333333333334</ele><time>2026-04-06T10:09:48Z</time></trkpt><trkpt lat="39.6574030965135" lon="8.475839530738309"><ele>136.0</ele><time>2026-04-06T10:09:49Z</time></trkpt><trkpt lat="39.657572980942994" lon="8.475746987552979"><ele>136.0</ele><time>2026-04-06T10:09:50Z</time></trkpt><trkpt lat="39.657769654799935" lon="8.475672529702523"><ele>136.0</ele><time>2026-04-06T10:09:51Z</time></trkpt><trkpt lat="39.65796681265186" lon="8.475558185317672"><ele>136.0</ele><time>2026-04-06T10:09:52Z</time></trkpt><trkpt lat="39.658191262357455" lon="8.475456450949343"><ele>130.5</ele><time>2026-04-06T10:09:53Z</time></trkpt><trkpt lat="39.65843456229954" lon="8.475345376866823"><ele>125.0</ele><time>2026-04-06T10:09:54Z</time></trkpt><trkpt lat="39.65867352247942" lon="8.47523106221231"><ele>123.5</ele><time>2026-04-06T10:09:55Z</time></trkpt><trkpt lat="39.65891866612407" lon="8.475111494117161"><ele>122.0</ele><time>2026-04-06T10:09:56Z</time></trkpt><trkpt lat="39.65916668536198" lon="8.474990774378792"><ele>122.0</ele><time>2026-04-06T10:09:57Z</time></trkpt><trkpt lat="39.65942294603861" lon="8.474868076374838"><ele>122.0</ele><time>2026-04-06T10:09:58Z</time></trkpt><trkpt lat="39.65968579481746" lon="8.474745324483681"><ele>123.0</ele><time>2026-04-06T10:09:59Z</time></trkpt><trkpt lat="39.65994363059535" lon="8.47462455761241"><ele>124.0</ele><time>2026-04-06T10:10:00Z</time></trkpt><trkpt lat="39.66018153584874" lon="8.474514158440916"><ele>123.0</ele><time>2026-04-06T10:10:01Z</time></trkpt><trkpt lat="39.660411882036584" lon="8.474406331849535"><ele>122.0</ele><time>2026-04-06T10:10:02Z</time></trkpt><trkpt lat="39.66064056702797" lon="8.47429714276011"><ele>122.0</ele><time>2026-04-06T10:10:03Z</time></trkpt><trkpt lat="39.66087092207048" lon="8.474183726865052"><ele>122.0</ele><time>2026-04-06T10:10:04Z</time></trkpt><trkpt lat="39.66109889449188" lon="8.474070388107464"><ele>125.0</ele><time>2026-04-06T10:10:05Z</time></trkpt><trkpt lat="39.66132875999587" lon="8.47396045922214"><ele>128.0</ele><time>2026-04-06T10:10:06Z</time></trkpt><trkpt lat="39.66155616220388" lon="8.473855906568122"><ele>132.0</ele><time>2026-04-06T10:10:07Z</time></trkpt><trkpt lat="39.66178895816422" lon="8.473748317283414"><ele>136.0</ele><time>2026-04-06T10:10:08Z</time></trkpt><trkpt lat="39.66200090591222" lon="8.47364970680822"><ele>136.0</ele><time>2026-04-06T10:10:09Z</time></trkpt><trkpt lat="39.66219935180213" lon="8.4735588124015"><ele>136.0</ele><time>2026-04-06T10:10:10Z</time></trkpt><trkpt lat="39.66240416753294" lon="8.473464886389564"><ele>136.0</ele><time>2026-04-06T10:10:11Z</time></trkpt><trkpt lat="39.66259930349377" lon="8.473370760755122"><ele>136.0</ele><time>2026-04-06T10:10:12Z</time></trkpt><trkpt lat="39.66277871157215" lon="8.473289148183788"><ele>136.0</ele><time>2026-04-06T10:10:13Z</time></trkpt><trkpt lat="39.66296135199431" lon="8.47322802453722"><ele>136.0</ele><time>2026-04-06T10:10:14Z</time></trkpt><trkpt lat="39.663160474349795" lon="8.473176124694106"><ele>133.66666666666669</ele><time>2026-04-06T10:10:15Z</time></trkpt><trkpt lat="39.66335881274646" lon="8.473125625372544"><ele>131.33333333333334</ele><time>2026-04-06T10:10:16Z</time></trkpt><trkpt lat="39.663533934266404" lon="8.473084350390945"><ele>129.0</ele><time>2026-04-06T10:10:17Z</time></trkpt><trkpt lat="39.66368643787636" lon="8.473044215968402"><ele>125.5</ele><time>2026-04-06T10:10:18Z</time></trkpt><trkpt lat="39.66382667109496" lon="8.472995475073228"><ele>122.0</ele><time>2026-04-06T10:10:19Z</time></trkpt><trkpt lat="39.66394428137083" lon="8.472928031252088"><ele>118.5</ele><time>2026-04-06T10:10:20Z</time></trkpt><trkpt lat="39.66403848911455" lon="8.472830538628722"><ele>115.0</ele><time>2026-04-06T10:10:21Z</time></trkpt><trkpt lat="39.66409886326022" lon="8.472703755463812"><ele>115.0</ele><time>2026-04-06T10:10:22Z</time></trkpt><trkpt lat="39.66412330028924" lon="8.472555285518604"><ele>115.0</ele><time>2026-04-06T10:10:23Z</time></trkpt><trkpt lat="39.664120602536435" lon="8.472390690698752"><ele>115.0</ele><time>2026-04-06T10:10:24Z</time></trkpt><trkpt lat="39.664091139731475" lon="8.47221546040472"><ele>115.0</ele><time>2026-04-06T10:10:25Z</time></trkpt><trkpt lat="39.664055571257066" lon="8.472037739526332"><ele>114.5</ele><time>2026-04-06T10:10:26Z</time></trkpt><trkpt lat="39.664032563678255" lon="8.471865992390882"><ele>114.0</ele><time>2026-04-06T10:10:27Z</time></trkpt><trkpt lat="39.66405236361891" lon="8.47169312113933"><ele>113.5</ele><time>2026-04-06T10:10:28Z</time></trkpt><trkpt lat="39.66409591866152" lon="8.47150860365469"><ele>113.0</ele><time>2026-04-06T10:10:29Z</time></trkpt><trkpt lat="39.66414938577094" lon="8.471307186471817"><ele>112.5</ele><time>2026-04-06T10:10:30Z</time></trkpt><trkpt lat="39.66418304524401" lon="8.471114068558357"><ele>112.0</ele><time>2026-04-06T10:10:31Z</time></trkpt><trkpt lat="39.66420903969252" lon="8.47094202735777"><ele>111.5</ele><time>2026-04-06T10:10:32Z</time></trkpt><trkpt lat="39.66419697988714" lon="8.470760437448954"><ele>111.0</ele><time>2026-04-06T10:10:33Z</time></trkpt><trkpt lat="39.664143643753306" lon="8.470570158672414"><ele>109.66666666666666</ele><time>2026-04-06T10:10:34Z</time></trkpt><trkpt lat="39.6640632288294" lon="8.470383180438722"><ele>108.33333333333333</ele><time>2026-04-06T10:10:35Z</time></trkpt><trkpt lat="39.66400226974221" lon="8.470206670297197"><ele>107.0</ele><time>2026-04-06T10:10:36Z</time></trkpt><trkpt lat="39.66398401027971" lon="8.470021285354106"><ele>107.0</ele><time>2026-04-06T10:10:37Z</time></trkpt><trkpt lat="39.66394336598356" lon="8.469874340129158"><ele>107.0</ele><time>2026-04-06T10:10:38Z</time></trkpt><trkpt lat="39.6640585054701" lon="8.469660829858885"><ele>107.0</ele><time>2026-04-06T10:10:39Z</time></trkpt><trkpt lat="39.66413577411328" lon="8.469487861488906"><ele>106.66666666666666</ele><time>2026-04-06T10:10:40Z</time></trkpt><trkpt lat="39.66424050504336" lon="8.469310295426498"><ele>106.33333333333334</ele><time>2026-04-06T10:10:41Z</time></trkpt><trkpt lat="39.66435420346905" lon="8.469132656244255"><ele>106.0</ele><time>2026-04-06T10:10:42Z</time></trkpt><trkpt lat="39.664459011022814" lon="8.468956992700816"><ele>99.33333333333334</ele><time>2026-04-06T10:10:43Z</time></trkpt><trkpt lat="39.66455889947797" lon="8.468779918181335"><ele>92.66666666666667</ele><time>2026-04-06T10:10:44Z</time></trkpt><trkpt lat="39.66466549565981" lon="8.468592592654632"><ele>86.0</ele><time>2026-04-06T10:10:45Z</time></trkpt><trkpt lat="39.664779439564306" lon="8.468397230471012"><ele>86.0</ele><time>2026-04-06T10:10:46Z</time></trkpt><trkpt lat="39.664901477525675" lon="8.46820685812904"><ele>86.0</ele><time>2026-04-06T10:10:47Z</time></trkpt><trkpt lat="39.66503665700104" lon="8.468044574437277"><ele>86.0</ele><time>2026-04-06T10:10:48Z</time></trkpt><trkpt lat="39.665184844851936" lon="8.467890433671515"><ele>82.0</ele><time>2026-04-06T10:10:49Z</time></trkpt><trkpt lat="39.66532024029645" lon="8.467730089227812"><ele>78.0</ele><time>2026-04-06T10:10:50Z</time></trkpt><trkpt lat="39.665452112498755" lon="8.467556788277204"><ele>74.0</ele><time>2026-04-06T10:10:51Z</time></trkpt><trkpt lat="39.66558031315557" lon="8.467381208264905"><ele>74.0</ele><time>2026-04-06T10:10:52Z</time></trkpt><trkpt lat="39.66570260329436" lon="8.467207980272338"><ele>74.0</ele><time>2026-04-06T10:10:53Z</time></trkpt><trkpt lat="39.66582715532465" lon="8.467026290229846"><ele>74.0</ele><time>2026-04-06T10:10:54Z</time></trkpt><trkpt lat="39.66595416473544" lon="8.466844484530743"><ele>75.0</ele><time>2026-04-06T10:10:55Z</time></trkpt><trkpt lat="39.66608737716618" lon="8.46665590780819"><ele>76.0</ele><time>2026-04-06T10:10:56Z</time></trkpt><trkpt lat="39.666224198553344" lon="8.466462556714257"><ele>77.0</ele><time>2026-04-06T10:10:57Z</time></trkpt><trkpt lat="39.66635856237719" lon="8.466268594024946"><ele>77.0</ele><time>2026-04-06T10:10:58Z</time></trkpt><trkpt lat="39.6664879799028" lon="8.466078002502918"><ele>77.0</ele><time>2026-04-06T10:10:59Z</time></trkpt><trkpt lat="39.6666126131338" lon="8.465897792845512"><ele>77.0</ele><time>2026-04-06T10:11:00Z</time></trkpt><trkpt lat="39.6667351157957" lon="8.46572232824462"><ele>77.0</ele><time>2026-04-06T10:11:01Z</time></trkpt><trkpt lat="39.66685445970797" lon="8.465552861497718"><ele>77.0</ele><time>2026-04-06T10:11:02Z</time></trkpt><trkpt lat="39.666972691922155" lon="8.465382932923369"><ele>77.0</ele><time>2026-04-06T10:11:03Z</time></trkpt><trkpt lat="39.66708482030062" lon="8.465217752612311"><ele>68.33333333333334</ele><time>2026-04-06T10:11:04Z</time></trkpt><trkpt lat="39.66719213148976" lon="8.465056744417264"><ele>59.66666666666667</ele><time>2026-04-06T10:11:05Z</time></trkpt><trkpt lat="39.66729312195558" lon="8.464903182905834"><ele>51.0</ele><time>2026-04-06T10:11:06.001Z</time></trkpt><trkpt lat="39.66737762313058" lon="8.464755815233659"><ele>51.66666666666667</ele><time>2026-04-06T10:11:07.001Z</time></trkpt><trkpt lat="39.66743878911886" lon="8.464590177059646"><ele>52.333333333333336</ele><time>2026-04-06T10:11:08.001Z</time></trkpt><trkpt lat="39.667477625209905" lon="8.464404272217372"><ele>53.0</ele><time>2026-04-06T10:11:09.001Z</time></trkpt><trkpt lat="39.66749432617151" lon="8.464196843524887"><ele>53.0</ele><time>2026-04-06T10:11:10.001Z</time></trkpt><trkpt lat="39.667477111404956" lon="8.463981282531801"><ele>53.0</ele><time>2026-04-06T10:11:11.001Z</time></trkpt><trkpt lat="39.66745384304505" lon="8.463739868331846"><ele>53.0</ele><time>2026-04-06T10:11:12.001Z</time></trkpt><trkpt lat="39.66743068305183" lon="8.46347472372977"><ele>52.66666666666667</ele><time>2026-04-06T10:11:13.001Z</time></trkpt><trkpt lat="39.66740936209544" lon="8.463197959277045"><ele>52.33333333333333</ele><time>2026-04-06T10:11:14.001Z</time></trkpt><trkpt lat="39.667386787829486" lon="8.462914218952136"><ele>52.0</ele><time>2026-04-06T10:11:15.001Z</time></trkpt><trkpt lat="39.66736344255973" lon="8.46264794909235"><ele>51.666666666666664</ele><time>2026-04-06T10:11:16.001Z</time></trkpt><trkpt lat="39.667340345054754" lon="8.462392560505897"><ele>51.33333333333333</ele><time>2026-04-06T10:11:17.001Z</time></trkpt><trkpt lat="39.66731954287941" lon="8.462167287139648"><ele>51.0</ele><time>2026-04-06T10:11:18.001Z</time></trkpt><trkpt lat="39.6673048455762" lon="8.461967116125413"><ele>50.25</ele><time>2026-04-06T10:11:19.001Z</time></trkpt><trkpt lat="39.66729545963893" lon="8.461769951176136"><ele>49.5</ele><time>2026-04-06T10:11:20.001Z</time></trkpt><trkpt lat="39.66730148831007" lon="8.461582700774903"><ele>48.75</ele><time>2026-04-06T10:11:21.001Z</time></trkpt><trkpt lat="39.667333700983875" lon="8.461407931955545"><ele>48.0</ele><time>2026-04-06T10:11:22.001Z</time></trkpt><trkpt lat="39.66738769561993" lon="8.46125205996495"><ele>43.5</ele><time>2026-04-06T10:11:23.001Z</time></trkpt><trkpt lat="39.66746036406446" lon="8.46111297395293"><ele>39.0</ele><time>2026-04-06T10:11:24.001Z</time></trkpt><trkpt lat="39.667558404803785" lon="8.460989638559832"><ele>34.5</ele><time>2026-04-06T10:11:25.001Z</time></trkpt><trkpt lat="39.667645159726945" lon="8.46088469787949"><ele>30.0</ele><time>2026-04-06T10:11:26.001Z</time></trkpt><trkpt lat="39.667743640654706" lon="8.460829773957855"><ele>27.25</ele><time>2026-04-06T10:11:27.001Z</time></trkpt><trkpt lat="39.66785630327852" lon="8.460820408242707"><ele>24.5</ele><time>2026-04-06T10:11:28.001Z</time></trkpt><trkpt lat="39.66797481521096" lon="8.46086800321222"><ele>21.75</ele><time>2026-04-06T10:11:29.001Z</time></trkpt><trkpt lat="39.66807950674938" lon="8.460968082281273"><ele>19.0</ele><time>2026-04-06T10:11:30.001Z</time></trkpt><trkpt lat="39.66818996861129" lon="8.461095418366252"><ele>19.0</ele><time>2026-04-06T10:11:31.001Z</time></trkpt><trkpt lat="39.66833004034301" lon="8.461226206927845"><ele>19.0</ele><time>2026-04-06T10:11:32.001Z</time></trkpt><trkpt lat="39.66846597717763" lon="8.461352326978384"><ele>19.0</ele><time>2026-04-06T10:11:33.001Z</time></trkpt><trkpt lat="39.66858237667276" lon="8.461486826056234"><ele>19.0</ele><time>2026-04-06T10:11:34.001Z</time></trkpt><trkpt lat="39.66867356053163" lon="8.461639196630092"><ele>19.0</ele><time>2026-04-06T10:11:35.001Z</time></trkpt><trkpt lat="39.66873592720362" lon="8.461810247206785"><ele>19.0</ele><time>2026-04-06T10:11:36.001Z</time></trkpt><trkpt lat="39.6687671082556" lon="8.461989915434025"><ele>19.0</ele><time>2026-04-06T10:11:37.001Z</time></trkpt><trkpt lat="39.66877059263215" lon="8.462186488279265"><ele>19.0</ele><time>2026-04-06T10:11:38.001Z</time></trkpt><trkpt lat="39.66875360954007" lon="8.462402487688642"><ele>19.0</ele><time>2026-04-06T10:11:39.001Z</time></trkpt><trkpt lat="39.66872256900984" lon="8.462643824812778"><ele>19.0</ele><time>2026-04-06T10:11:40.001Z</time></trkpt><trkpt lat="39.66868439013228" lon="8.462887926063647"><ele>19.0</ele><time>2026-04-06T10:11:41.001Z</time></trkpt><trkpt lat="39.66863650094016" lon="8.46312683928475"><ele>19.0</ele><time>2026-04-06T10:11:42.001Z</time></trkpt><trkpt lat="39.66857927703947" lon="8.463380522064915"><ele>19.0</ele><time>2026-04-06T10:11:43.001Z</time></trkpt><trkpt lat="39.668521655433885" lon="8.463648697175682"><ele>21.666666666666664</ele><time>2026-04-06T10:11:44.001Z</time></trkpt><trkpt lat="39.668461437576305" lon="8.463934287463553"><ele>24.333333333333332</ele><time>2026-04-06T10:11:45.001Z</time></trkpt><trkpt lat="39.6684045882025" lon="8.46420129566512"><ele>27.0</ele><time>2026-04-06T10:11:46.001Z</time></trkpt><trkpt lat="39.66835134757917" lon="8.464441788550385"><ele>26.25</ele><time>2026-04-06T10:11:47.001Z</time></trkpt><trkpt lat="39.66830309851586" lon="8.464653322776167"><ele>25.5</ele><time>2026-04-06T10:11:48.001Z</time></trkpt><trkpt lat="39.66827486164022" lon="8.464839054786562"><ele>24.75</ele><time>2026-04-06T10:11:49.001Z</time></trkpt><trkpt lat="39.66827148136713" lon="8.465009907573537"><ele>24.0</ele><time>2026-04-06T10:11:50.001Z</time></trkpt><trkpt lat="39.668302959212184" lon="8.465155678071886"><ele>24.0</ele><time>2026-04-06T10:11:51.001Z</time></trkpt><trkpt lat="39.66837053696218" lon="8.465264252206103"><ele>24.0</ele><time>2026-04-06T10:11:52.001Z</time></trkpt><trkpt lat="39.6684515833678" lon="8.465344317099051"><ele>24.0</ele><time>2026-04-06T10:11:53.001Z</time></trkpt><trkpt lat="39.66853966328102" lon="8.465405144229157"><ele>24.0</ele><time>2026-04-06T10:11:54.001Z</time></trkpt><trkpt lat="39.66863962342993" lon="8.465439453839025"><ele>24.0</ele><time>2026-04-06T10:11:55.001Z</time></trkpt><trkpt lat="39.66874624185035" lon="8.465437767891013"><ele>24.25</ele><time>2026-04-06T10:11:56.001Z</time></trkpt><trkpt lat="39.668858715755796" lon="8.465422088707045"><ele>24.5</ele><time>2026-04-06T10:11:57.001Z</time></trkpt><trkpt lat="39.66896459345138" lon="8.465324912108873"><ele>24.75</ele><time>2026-04-06T10:11:58.001Z</time></trkpt><trkpt lat="39.66906128368079" lon="8.465229666014908"><ele>25.0</ele><time>2026-04-06T10:11:59.001Z</time></trkpt><trkpt lat="39.669165791617026" lon="8.465151464330198"><ele>25.0</ele><time>2026-04-06T10:12:00.001Z</time></trkpt><trkpt lat="39.6692620133833" lon="8.46506861738684"><ele>25.0</ele><time>2026-04-06T10:12:01.001Z</time></trkpt><trkpt lat="39.669356119602334" lon="8.46498931351442"><ele>25.0</ele><time>2026-04-06T10:12:02.001Z</time></trkpt><trkpt lat="39.66943844882156" lon="8.46489810257787"><ele>25.0</ele><time>2026-04-06T10:12:03.001Z</time></trkpt><trkpt lat="39.66953027647386" lon="8.46482629975659"><ele>25.0</ele><time>2026-04-06T10:12:04.001Z</time></trkpt><trkpt lat="39.66961980092847" lon="8.464748407625986"><ele>26.2</ele><time>2026-04-06T10:12:05.001Z</time></trkpt><trkpt lat="39.6697064597864" lon="8.464670057914208"><ele>27.4</ele><time>2026-04-06T10:12:06.001Z</time></trkpt><trkpt lat="39.669792254297825" lon="8.464598478904838"><ele>28.6</ele><time>2026-04-06T10:12:07.001Z</time></trkpt><trkpt lat="39.66988518744192" lon="8.46455148546021"><ele>29.8</ele><time>2026-04-06T10:12:08.001Z</time></trkpt><trkpt lat="39.66997490644202" lon="8.4644949806113"><ele>31.0</ele><time>2026-04-06T10:12:09.001Z</time></trkpt><trkpt lat="39.67006257349502" lon="8.464426623427855"><ele>31.0</ele><time>2026-04-06T10:12:10.001Z</time></trkpt><trkpt lat="39.670162126991826" lon="8.4643883881811"><ele>31.0</ele><time>2026-04-06T10:12:11.001Z</time></trkpt><trkpt lat="39.67025842064231" lon="8.464358048331109"><ele>31.0</ele><time>2026-04-06T10:12:12.001Z</time></trkpt><trkpt lat="39.670342385554285" lon="8.464322757812356"><ele>31.0</ele><time>2026-04-06T10:12:13.001Z</time></trkpt><trkpt lat="39.67042768353733" lon="8.464280369660015"><ele>31.0</ele><time>2026-04-06T10:12:14.001Z</time></trkpt><trkpt lat="39.67051651841917" lon="8.464241097252353"><ele>32.6</ele><time>2026-04-06T10:12:15.001Z</time></trkpt><trkpt lat="39.67061027568789" lon="8.46420294520601"><ele>34.2</ele><time>2026-04-06T10:12:16.001Z</time></trkpt><trkpt lat="39.67070768522462" lon="8.46416736627446"><ele>35.8</ele><time>2026-04-06T10:12:17.001Z</time></trkpt><trkpt lat="39.67080383721774" lon="8.464130081987182"><ele>37.4</ele><time>2026-04-06T10:12:18.001Z</time></trkpt><trkpt lat="39.67090518000364" lon="8.464089645163316"><ele>39.0</ele><time>2026-04-06T10:12:19.001Z</time></trkpt><trkpt lat="39.67101188387241" lon="8.464058728746132"><ele>39.4</ele><time>2026-04-06T10:12:20.001Z</time></trkpt><trkpt lat="39.67111920598328" lon="8.464060311130694"><ele>39.8</ele><time>2026-04-06T10:12:21.001Z</time></trkpt><trkpt lat="39.67121977896195" lon="8.464095704991847"><ele>40.199999999999996</ele><time>2026-04-06T10:12:22.001Z</time></trkpt><trkpt lat="39.671305986828514" lon="8.464155918632109"><ele>40.599999999999994</ele><time>2026-04-06T10:12:23.001Z</time></trkpt><trkpt lat="39.67138648047243" lon="8.464235939532054"><ele>41.0</ele><time>2026-04-06T10:12:24.001Z</time></trkpt><trkpt lat="39.67147051985986" lon="8.46430702910115"><ele>41.0</ele><time>2026-04-06T10:12:25.001Z</time></trkpt><trkpt lat="39.67156118550955" lon="8.464379345637479"><ele>41.0</ele><time>2026-04-06T10:12:26.001Z</time></trkpt><trkpt lat="39.67165224194009" lon="8.464455922422731"><ele>41.0</ele><time>2026-04-06T10:12:27.001Z</time></trkpt><trkpt lat="39.67174948741225" lon="8.464532841367586"><ele>41.0</ele><time>2026-04-06T10:12:28.001Z</time></trkpt><trkpt lat="39.67184895882869" lon="8.464615775018139"><ele>41.0</ele><time>2026-04-06T10:12:29.001Z</time></trkpt><trkpt lat="39.67194892422049" lon="8.464703524077613"><ele>43.0</ele><time>2026-04-06T10:12:30.001Z</time></trkpt><trkpt lat="39.67204639596694" lon="8.464791763323687"><ele>45.0</ele><time>2026-04-06T10:12:31.001Z</time></trkpt><trkpt lat="39.67214532420729" lon="8.464875977579192"><ele>47.0</ele><time>2026-04-06T10:12:32.001Z</time></trkpt><trkpt lat="39.67224367823611" lon="8.464959680254706"><ele>49.0</ele><time>2026-04-06T10:12:33.001Z</time></trkpt><trkpt lat="39.67234909927378" lon="8.465033088916776"><ele>49.0</ele><time>2026-04-06T10:12:34.001Z</time></trkpt><trkpt lat="39.672459913373956" lon="8.465108005733326"><ele>49.0</ele><time>2026-04-06T10:12:35.001Z</time></trkpt><trkpt lat="39.672586126551096" lon="8.465137992632071"><ele>49.0</ele><time>2026-04-06T10:12:36.001Z</time></trkpt><trkpt lat="39.6727096207924" lon="8.465147174753527"><ele>49.0</ele><time>2026-04-06T10:12:37.001Z</time></trkpt><trkpt lat="39.672816078658265" lon="8.465102014191418"><ele>50.25</ele><time>2026-04-06T10:12:38.001Z</time></trkpt><trkpt lat="39.672918020738116" lon="8.465055235132587"><ele>51.5</ele><time>2026-04-06T10:12:39.001Z</time></trkpt><trkpt lat="39.67303252853213" lon="8.464997215118256"><ele>52.75</ele><time>2026-04-06T10:12:40.001Z</time></trkpt><trkpt lat="39.67313670106161" lon="8.464883064340777"><ele>54.0</ele><time>2026-04-06T10:12:41.001Z</time></trkpt><trkpt lat="39.673236178430315" lon="8.46474931372224"><ele>53.25</ele><time>2026-04-06T10:12:42.001Z</time></trkpt><trkpt lat="39.673334588193875" lon="8.464607400641079"><ele>52.5</ele><time>2026-04-06T10:12:43.001Z</time></trkpt><trkpt lat="39.67343670452884" lon="8.464463275356932"><ele>51.75</ele><time>2026-04-06T10:12:44.001Z</time></trkpt><trkpt lat="39.67353877047353" lon="8.464323605060398"><ele>51.0</ele><time>2026-04-06T10:12:45.001Z</time></trkpt><trkpt lat="39.6736439980337" lon="8.46418349503277"><ele>53.75</ele><time>2026-04-06T10:12:46.001Z</time></trkpt><trkpt lat="39.673750852141026" lon="8.464057365260352"><ele>56.5</ele><time>2026-04-06T10:12:47.001Z</time></trkpt><trkpt lat="39.67386118068453" lon="8.463952219353892"><ele>59.25</ele><time>2026-04-06T10:12:48.001Z</time></trkpt><trkpt lat="39.67400066158214" lon="8.463900702952373"><ele>62.0</ele><time>2026-04-06T10:12:49.001Z</time></trkpt><trkpt lat="39.67413509262635" lon="8.463874651978823"><ele>62.0</ele><time>2026-04-06T10:12:50.001Z</time></trkpt><trkpt lat="39.67427408230364" lon="8.463869559861964"><ele>62.0</ele><time>2026-04-06T10:12:51Z</time></trkpt><trkpt lat="39.67442062673081" lon="8.463891607053222"><ele>62.0</ele><time>2026-04-06T10:12:52Z</time></trkpt><trkpt lat="39.67457493336175" lon="8.463929917799922"><ele>62.0</ele><time>2026-04-06T10:12:53Z</time></trkpt><trkpt lat="39.67472912061795" lon="8.463960751618659"><ele>62.66666666666667</ele><time>2026-04-06T10:12:54Z</time></trkpt><trkpt lat="39.67488346209767" lon="8.463993430305571"><ele>63.33333333333333</ele><time>2026-04-06T10:12:55Z</time></trkpt><trkpt lat="39.67503188718518" lon="8.464022548902426"><ele>64.0</ele><time>2026-04-06T10:12:56Z</time></trkpt><trkpt lat="39.67517423398977" lon="8.464051045046352"><ele>63.25</ele><time>2026-04-06T10:12:57Z</time></trkpt><trkpt lat="39.675323324668106" lon="8.464074661675477"><ele>62.5</ele><time>2026-04-06T10:12:58Z</time></trkpt><trkpt lat="39.67546985531609" lon="8.464092788988742"><ele>61.75</ele><time>2026-04-06T10:12:59Z</time></trkpt><trkpt lat="39.67560772560399" lon="8.464103462163639"><ele>61.0</ele><time>2026-04-06T10:13:00Z</time></trkpt><trkpt lat="39.675746746867794" lon="8.46411076456814"><ele>61.0</ele><time>2026-04-06T10:13:01Z</time></trkpt><trkpt lat="39.67588522419377" lon="8.464116169243411"><ele>61.0</ele><time>2026-04-06T10:13:02Z</time></trkpt><trkpt lat="39.6760261375038" lon="8.464121237796089"><ele>61.0</ele><time>2026-04-06T10:13:03Z</time></trkpt><trkpt lat="39.676166321382354" lon="8.464128138236305"><ele>61.0</ele><time>2026-04-06T10:13:04Z</time></trkpt><trkpt lat="39.676305410782234" lon="8.464136643133134"><ele>59.75</ele><time>2026-04-06T10:13:05Z</time></trkpt><trkpt lat="39.67644847114345" lon="8.46414518446936"><ele>58.5</ele><time>2026-04-06T10:13:06Z</time></trkpt><trkpt lat="39.67659022189846" lon="8.464156914381372"><ele>57.25</ele><time>2026-04-06T10:13:07Z</time></trkpt><trkpt lat="39.67672420235503" lon="8.464169455340228"><ele>56.0</ele><time>2026-04-06T10:13:08Z</time></trkpt><trkpt lat="39.67686124801799" lon="8.464178652218868"><ele>55.0</ele><time>2026-04-06T10:13:09Z</time></trkpt><trkpt lat="39.676998865534756" lon="8.464182020063301"><ele>54.0</ele><time>2026-04-06T10:13:10Z</time></trkpt><trkpt lat="39.67713617535605" lon="8.464187978568992"><ele>53.0</ele><time>2026-04-06T10:13:11Z</time></trkpt><trkpt lat="39.67726678933443" lon="8.464195183668288"><ele>52.0</ele><time>2026-04-06T10:13:12Z</time></trkpt><trkpt lat="39.67739613650719" lon="8.464210222153637"><ele>52.0</ele><time>2026-04-06T10:13:13Z</time></trkpt><trkpt lat="39.67751801552714" lon="8.464243858944743"><ele>52.0</ele><time>2026-04-06T10:13:14Z</time></trkpt><trkpt lat="39.677628413076725" lon="8.464309540954762"><ele>52.0</ele><time>2026-04-06T10:13:15Z</time></trkpt><trkpt lat="39.67773154773299" lon="8.464406435805754"><ele>52.0</ele><time>2026-04-06T10:13:16.001Z</time></trkpt><trkpt lat="39.677814526394" lon="8.46451162046336"><ele>52.6</ele><time>2026-04-06T10:13:17.001Z</time></trkpt><trkpt lat="39.67788909578805" lon="8.464608318691688"><ele>53.2</ele><time>2026-04-06T10:13:18.001Z</time></trkpt><trkpt lat="39.677966765135444" lon="8.464702963962843"><ele>53.8</ele><time>2026-04-06T10:13:19.001Z</time></trkpt><trkpt lat="39.67805232342176" lon="8.464791036162119"><ele>54.4</ele><time>2026-04-06T10:13:20.001Z</time></trkpt><trkpt lat="39.678140334631514" lon="8.464869528593864"><ele>55.0</ele><time>2026-04-06T10:13:21.001Z</time></trkpt><trkpt lat="39.678232332184685" lon="8.464925973161645"><ele>55.0</ele><time>2026-04-06T10:13:22.001Z</time></trkpt><trkpt lat="39.67833691135277" lon="8.464945358514507"><ele>55.0</ele><time>2026-04-06T10:13:23.001Z</time></trkpt><trkpt lat="39.67844941734044" lon="8.46492475869768"><ele>55.0</ele><time>2026-04-06T10:13:24.001Z</time></trkpt><trkpt lat="39.67855721109844" lon="8.464867404015761"><ele>55.0</ele><time>2026-04-06T10:13:25.001Z</time></trkpt><trkpt lat="39.678654358189156" lon="8.464787686273482"><ele>54.75</ele><time>2026-04-06T10:13:26.001Z</time></trkpt><trkpt lat="39.67875489884065" lon="8.4647046201355"><ele>54.5</ele><time>2026-04-06T10:13:27.001Z</time></trkpt><trkpt lat="39.67887447297329" lon="8.464649679636773"><ele>54.25</ele><time>2026-04-06T10:13:28.001Z</time></trkpt><trkpt lat="39.679011451566424" lon="8.464617782717623"><ele>54.0</ele><time>2026-04-06T10:13:29.001Z</time></trkpt><trkpt lat="39.67917378753467" lon="8.464577403497266"><ele>54.0</ele><time>2026-04-06T10:13:30.001Z</time></trkpt><trkpt lat="39.67930927921665" lon="8.464533040424783"><ele>54.0</ele><time>2026-04-06T10:13:31.001Z</time></trkpt><trkpt lat="39.679455069314635" lon="8.464500926724364"><ele>54.0</ele><time>2026-04-06T10:13:32.001Z</time></trkpt><trkpt lat="39.679573517689406" lon="8.464434463864784"><ele>54.0</ele><time>2026-04-06T10:13:33.001Z</time></trkpt><trkpt lat="39.67967865622138" lon="8.464411976105907"><ele>53.400000000000006</ele><time>2026-04-06T10:13:34.001Z</time></trkpt><trkpt lat="39.67976471207293" lon="8.464426492749876"><ele>52.800000000000004</ele><time>2026-04-06T10:13:35.001Z</time></trkpt><trkpt lat="39.67981746506147" lon="8.46450329427794"><ele>52.2</ele><time>2026-04-06T10:13:36.001Z</time></trkpt><trkpt lat="39.67985939941966" lon="8.464610847395827"><ele>51.599999999999994</ele><time>2026-04-06T10:13:37.001Z</time></trkpt><trkpt lat="39.67991381784717" lon="8.464730888554616"><ele>51.0</ele><time>2026-04-06T10:13:38.001Z</time></trkpt><trkpt lat="39.679985162108814" lon="8.464860613817551"><ele>51.5</ele><time>2026-04-06T10:13:39.001Z</time></trkpt><trkpt lat="39.68006236272817" lon="8.465000451111473"><ele>52.0</ele><time>2026-04-06T10:13:40.001Z</time></trkpt><trkpt lat="39.68013659746074" lon="8.4651241819789"><ele>52.5</ele><time>2026-04-06T10:13:41.001Z</time></trkpt><trkpt lat="39.68022360290189" lon="8.46519516025314"><ele>53.0</ele><time>2026-04-06T10:13:42.001Z</time></trkpt><trkpt lat="39.68032997384679" lon="8.465206264228767"><ele>53.0</ele><time>2026-04-06T10:13:43.001Z</time></trkpt><trkpt lat="39.680456018457804" lon="8.465206165633626"><ele>53.0</ele><time>2026-04-06T10:13:44.001Z</time></trkpt><trkpt lat="39.68058842648703" lon="8.465249760267364"><ele>53.0</ele><time>2026-04-06T10:13:45.001Z</time></trkpt><trkpt lat="39.68071099828872" lon="8.465340733796648"><ele>53.0</ele><time>2026-04-06T10:13:46.001Z</time></trkpt><trkpt lat="39.68084105209537" lon="8.465419339295678"><ele>53.0</ele><time>2026-04-06T10:13:47.001Z</time></trkpt><trkpt lat="39.68098931382584" lon="8.465443542168575"><ele>53.0</ele><time>2026-04-06T10:13:48.001Z</time></trkpt><trkpt lat="39.68114239134388" lon="8.465410847643602"><ele>53.0</ele><time>2026-04-06T10:13:49.001Z</time></trkpt><trkpt lat="39.681288728643985" lon="8.465336931878062"><ele>54.5</ele><time>2026-04-06T10:13:50.001Z</time></trkpt><trkpt lat="39.68143116702348" lon="8.465246416322655"><ele>56.0</ele><time>2026-04-06T10:13:51.001Z</time></trkpt><trkpt lat="39.681562327663244" lon="8.465163440326597"><ele>57.5</ele><time>2026-04-06T10:13:52.001Z</time></trkpt><trkpt lat="39.68169615177226" lon="8.465104849478614"><ele>59.0</ele><time>2026-04-06T10:13:53.001Z</time></trkpt><trkpt lat="39.681849969474285" lon="8.465106224275281"><ele>58.75</ele><time>2026-04-06T10:13:54.001Z</time></trkpt><trkpt lat="39.681999536529695" lon="8.465107600692878"><ele>58.5</ele><time>2026-04-06T10:13:55.001Z</time></trkpt><trkpt lat="39.68213688708707" lon="8.465116809107569"><ele>58.25</ele><time>2026-04-06T10:13:56.001Z</time></trkpt><trkpt lat="39.682275009313884" lon="8.46517053821385"><ele>58.0</ele><time>2026-04-06T10:13:57.001Z</time></trkpt><trkpt lat="39.68239800779956" lon="8.465278161209989"><ele>58.0</ele><time>2026-04-06T10:13:58.001Z</time></trkpt><trkpt lat="39.682516946179724" lon="8.46537093483665"><ele>58.0</ele><time>2026-04-06T10:13:59.001Z</time></trkpt><trkpt lat="39.6825983001061" lon="8.465498762713413"><ele>58.0</ele><time>2026-04-06T10:14:00.001Z</time></trkpt><trkpt lat="39.682674686275945" lon="8.465617503845596"><ele>58.0</ele><time>2026-04-06T10:14:01.001Z</time></trkpt><trkpt lat="39.68276165868856" lon="8.465668484349788"><ele>59.2</ele><time>2026-04-06T10:14:02.001Z</time></trkpt><trkpt lat="39.6828545458438" lon="8.465645299653744"><ele>60.4</ele><time>2026-04-06T10:14:03.001Z</time></trkpt><trkpt lat="39.68295548345066" lon="8.465583842357445"><ele>61.60000000000001</ele><time>2026-04-06T10:14:04.001Z</time></trkpt><trkpt lat="39.683069150156655" lon="8.465552087342186"><ele>62.800000000000004</ele><time>2026-04-06T10:14:05.001Z</time></trkpt><trkpt lat="39.68317679168064" lon="8.465503508733146"><ele>64.0</ele><time>2026-04-06T10:14:06.001Z</time></trkpt><trkpt lat="39.68326926332346" lon="8.465476934102249"><ele>64.0</ele><time>2026-04-06T10:14:07Z</time></trkpt><trkpt lat="39.68335472624084" lon="8.46547776450952"><ele>64.0</ele><time>2026-04-06T10:14:08Z</time></trkpt><trkpt lat="39.68343231814981" lon="8.46555800437811"><ele>64.0</ele><time>2026-04-06T10:14:09Z</time></trkpt><trkpt lat="39.683455730329264" lon="8.465694809547003"><ele>64.0</ele><time>2026-04-06T10:14:10Z</time></trkpt><trkpt lat="39.68350370555019" lon="8.465809796167719"><ele>64.0</ele><time>2026-04-06T10:14:11Z</time></trkpt><trkpt lat="39.683572754010235" lon="8.46589454021849"><ele>66.5</ele><time>2026-04-06T10:14:12Z</time></trkpt><trkpt lat="39.6836786053743" lon="8.46592030891146"><ele>69.0</ele><time>2026-04-06T10:14:13Z</time></trkpt><trkpt lat="39.68380224060581" lon="8.46590902096645"><ele>71.5</ele><time>2026-04-06T10:14:14Z</time></trkpt><trkpt lat="39.68393421088993" lon="8.465877006547608"><ele>74.0</ele><time>2026-04-06T10:14:15Z</time></trkpt><trkpt lat="39.68407755745769" lon="8.465859036138088"><ele>74.0</ele><time>2026-04-06T10:14:16Z</time></trkpt><trkpt lat="39.684229349603996" lon="8.465874825710273"><ele>74.0</ele><time>2026-04-06T10:14:17Z</time></trkpt><trkpt lat="39.684385501660536" lon="8.465913709146822"><ele>74.0</ele><time>2026-04-06T10:14:18Z</time></trkpt><trkpt lat="39.68454403728653" lon="8.465962713323727"><ele>76.66666666666667</ele><time>2026-04-06T10:14:19Z</time></trkpt><trkpt lat="39.68470018193283" lon="8.466029451674688"><ele>79.33333333333333</ele><time>2026-04-06T10:14:20Z</time></trkpt><trkpt lat="39.684852613075435" lon="8.466127207629253"><ele>82.0</ele><time>2026-04-06T10:14:21Z</time></trkpt><trkpt lat="39.68500694706659" lon="8.466244808038972"><ele>82.0</ele><time>2026-04-06T10:14:22Z</time></trkpt><trkpt lat="39.685151840425284" lon="8.466352564819676"><ele>82.0</ele><time>2026-04-06T10:14:23Z</time></trkpt><trkpt lat="39.68527098425696" lon="8.466448891217889"><ele>82.0</ele><time>2026-04-06T10:14:24Z</time></trkpt><trkpt lat="39.68537003760738" lon="8.466550427400458"><ele>82.0</ele><time>2026-04-06T10:14:25Z</time></trkpt><trkpt lat="39.685447644747235" lon="8.466678835870635"><ele>83.25</ele><time>2026-04-06T10:14:26Z</time></trkpt><trkpt lat="39.68551997466864" lon="8.466826911109692"><ele>84.5</ele><time>2026-04-06T10:14:27Z</time></trkpt><trkpt lat="39.68561580606298" lon="8.466942559105366"><ele>85.75</ele><time>2026-04-06T10:14:28Z</time></trkpt><trkpt lat="39.68574090033167" lon="8.467017412799935"><ele>87.0</ele><time>2026-04-06T10:14:29Z</time></trkpt><trkpt lat="39.68588210113485" lon="8.467072784956795"><ele>88.0</ele><time>2026-04-06T10:14:30Z</time></trkpt><trkpt lat="39.6860080057965" lon="8.467152453105458"><ele>89.0</ele><time>2026-04-06T10:14:31Z</time></trkpt><trkpt lat="39.686104018276446" lon="8.467269025166654"><ele>90.0</ele><time>2026-04-06T10:14:32Z</time></trkpt><trkpt lat="39.686175686974984" lon="8.467406300224454"><ele>91.0</ele><time>2026-04-06T10:14:33Z</time></trkpt><trkpt lat="39.68621984222841" lon="8.467553498799896"><ele>91.5</ele><time>2026-04-06T10:14:34Z</time></trkpt><trkpt lat="39.68624874219055" lon="8.467721296637409"><ele>92.0</ele><time>2026-04-06T10:14:35Z</time></trkpt><trkpt lat="39.68628042091682" lon="8.467908745105309"><ele>92.5</ele><time>2026-04-06T10:14:36Z</time></trkpt><trkpt lat="39.686318362276154" lon="8.468102571019084"><ele>93.0</ele><time>2026-04-06T10:14:37Z</time></trkpt><trkpt lat="39.68635743240464" lon="8.468295212125307"><ele>93.0</ele><time>2026-04-06T10:14:38Z</time></trkpt><trkpt lat="39.68639479623743" lon="8.468478462915089"><ele>93.0</ele><time>2026-04-06T10:14:39Z</time></trkpt><trkpt lat="39.686430034254435" lon="8.468659622527523"><ele>93.0</ele><time>2026-04-06T10:14:40Z</time></trkpt><trkpt lat="39.68646351548166" lon="8.468828289691736"><ele>93.0</ele><time>2026-04-06T10:14:41Z</time></trkpt><trkpt lat="39.686519551202004" lon="8.468987302909925"><ele>93.33333333333333</ele><time>2026-04-06T10:14:42Z</time></trkpt><trkpt lat="39.6866238010887" lon="8.469133396291154"><ele>93.66666666666666</ele><time>2026-04-06T10:14:43Z</time></trkpt><trkpt lat="39.686767161907746" lon="8.469260104498428"><ele>94.0</ele><time>2026-04-06T10:14:44Z</time></trkpt><trkpt lat="39.68691527897675" lon="8.469377547018686"><ele>92.0</ele><time>2026-04-06T10:14:45Z</time></trkpt><trkpt lat="39.68704668470977" lon="8.469507146393717"><ele>90.0</ele><time>2026-04-06T10:14:46Z</time></trkpt><trkpt lat="39.68716673227888" lon="8.469667939751991"><ele>88.0</ele><time>2026-04-06T10:14:47Z</time></trkpt><trkpt lat="39.68728173934713" lon="8.469849426354825"><ele>88.0</ele><time>2026-04-06T10:14:48Z</time></trkpt><trkpt lat="39.687394458353936" lon="8.470041150106374"><ele>88.0</ele><time>2026-04-06T10:14:49Z</time></trkpt><trkpt lat="39.68750003679409" lon="8.470221259581061"><ele>88.0</ele><time>2026-04-06T10:14:50Z</time></trkpt><trkpt lat="39.687599130366614" lon="8.470386422137056"><ele>88.75</ele><time>2026-04-06T10:14:51Z</time></trkpt><trkpt lat="39.68768676111676" lon="8.470546106939212"><ele>89.5</ele><time>2026-04-06T10:14:52Z</time></trkpt><trkpt lat="39.68775197113294" lon="8.470708896425972"><ele>90.25</ele><time>2026-04-06T10:14:53Z</time></trkpt><trkpt lat="39.687783291143646" lon="8.470878982631355"><ele>91.0</ele><time>2026-04-06T10:14:54Z</time></trkpt><trkpt lat="39.68776983236768" lon="8.471044274179512"><ele>91.0</ele><time>2026-04-06T10:14:55Z</time></trkpt><trkpt lat="39.6876977390886" lon="8.471209924520261"><ele>91.0</ele><time>2026-04-06T10:14:56Z</time></trkpt><trkpt lat="39.68763141091411" lon="8.471394012911674"><ele>91.0</ele><time>2026-04-06T10:14:57Z</time></trkpt><trkpt lat="39.68755231033461" lon="8.471564405101399"><ele>88.5</ele><time>2026-04-06T10:14:58Z</time></trkpt><trkpt lat="39.6874730950395" lon="8.471711959530175"><ele>86.0</ele><time>2026-04-06T10:14:59Z</time></trkpt><trkpt lat="39.68737396116895" lon="8.47180678046259"><ele>83.5</ele><time>2026-04-06T10:15:00Z</time></trkpt><trkpt lat="39.68725357177131" lon="8.471814517373048"><ele>81.0</ele><time>2026-04-06T10:15:01Z</time></trkpt><trkpt lat="39.68714031654553" lon="8.471821968111815"><ele>81.0</ele><time>2026-04-06T10:15:02Z</time></trkpt><trkpt lat="39.68703083928885" lon="8.471822820468834"><ele>81.0</ele><time>2026-04-06T10:15:03Z</time></trkpt><trkpt lat="39.686946814771815" lon="8.471909145456644"><ele>81.0</ele><time>2026-04-06T10:15:04Z</time></trkpt><trkpt lat="39.6868964422575" lon="8.472070011901623"><ele>81.0</ele><time>2026-04-06T10:15:05Z</time></trkpt><trkpt lat="39.68688194131919" lon="8.472266733617134"><ele>81.0</ele><time>2026-04-06T10:15:06Z</time></trkpt><trkpt lat="39.68688620046485" lon="8.472402306375887"><ele>81.0</ele><time>2026-04-06T10:15:07Z</time></trkpt><trkpt lat="39.686941772867996" lon="8.472506969723796"><ele>81.0</ele><time>2026-04-06T10:15:08Z</time></trkpt><trkpt lat="39.68702997038492" lon="8.472587839721424"><ele>81.0</ele><time>2026-04-06T10:15:09Z</time></trkpt><trkpt lat="39.68715072349673" lon="8.472569827100582"><ele>81.0</ele><time>2026-04-06T10:15:10Z</time></trkpt><trkpt lat="39.68724800712893" lon="8.472531266311062"><ele>81.0</ele><time>2026-04-06T10:15:11Z</time></trkpt><trkpt lat="39.687360867971854" lon="8.4724829882675"><ele>81.0</ele><time>2026-04-06T10:15:12Z</time></trkpt><trkpt lat="39.68749885072365" lon="8.472428724130891"><ele>81.0</ele><time>2026-04-06T10:15:13Z</time></trkpt><trkpt lat="39.687647079579804" lon="8.472368029919107"><ele>81.0</ele><time>2026-04-06T10:15:14Z</time></trkpt><trkpt lat="39.68781100584755" lon="8.472305467009821"><ele>79.33333333333333</ele><time>2026-04-06T10:15:15Z</time></trkpt><trkpt lat="39.68797954994852" lon="8.472190035022463"><ele>77.66666666666666</ele><time>2026-04-06T10:15:16Z</time></trkpt><trkpt lat="39.68814865400013" lon="8.47206418715516"><ele>76.0</ele><time>2026-04-06T10:15:17Z</time></trkpt><trkpt lat="39.68830998892856" lon="8.471972972599744"><ele>76.0</ele><time>2026-04-06T10:15:18Z</time></trkpt><trkpt lat="39.68849522379232" lon="8.471895667320958"><ele>76.0</ele><time>2026-04-06T10:15:19Z</time></trkpt><trkpt lat="39.68866487198093" lon="8.471826026036922"><ele>76.0</ele><time>2026-04-06T10:15:20Z</time></trkpt><trkpt lat="39.68881530044097" lon="8.47176593252387"><ele>77.0</ele><time>2026-04-06T10:15:21.001Z</time></trkpt><trkpt lat="39.68893753634308" lon="8.471724475558128"><ele>78.0</ele><time>2026-04-06T10:15:22.001Z</time></trkpt><trkpt lat="39.689037710291075" lon="8.47172530921595"><ele>79.0</ele><time>2026-04-06T10:15:23.001Z</time></trkpt><trkpt lat="39.68912485961746" lon="8.471780353802691"><ele>80.0</ele><time>2026-04-06T10:15:24.001Z</time></trkpt><trkpt lat="39.689222662482926" lon="8.471812261177517"><ele>81.0</ele><time>2026-04-06T10:15:25.001Z</time></trkpt><trkpt lat="39.689323242277176" lon="8.471816504046721"><ele>83.0</ele><time>2026-04-06T10:15:26.001Z</time></trkpt><trkpt lat="39.68943746262308" lon="8.471753394733685"><ele>85.0</ele><time>2026-04-06T10:15:27.001Z</time></trkpt><trkpt lat="39.68954320699167" lon="8.471634883647713"><ele>87.0</ele><time>2026-04-06T10:15:28.001Z</time></trkpt><trkpt lat="39.689641430161934" lon="8.471481942772986"><ele>89.0</ele><time>2026-04-06T10:15:29.001Z</time></trkpt><trkpt lat="39.68973771388875" lon="8.47130209670772"><ele>87.0</ele><time>2026-04-06T10:15:30.001Z</time></trkpt><trkpt lat="39.68982468097167" lon="8.471105245329989"><ele>85.0</ele><time>2026-04-06T10:15:31.001Z</time></trkpt><trkpt lat="39.6899315172046" lon="8.470957191623237"><ele>83.0</ele><time>2026-04-06T10:15:32.001Z</time></trkpt><trkpt lat="39.69004402979219" lon="8.470805185309956"><ele>83.0</ele><time>2026-04-06T10:15:33.001Z</time></trkpt><trkpt lat="39.69018354294126" lon="8.470657785398886"><ele>83.0</ele><time>2026-04-06T10:15:34.001Z</time></trkpt><trkpt lat="39.69030948424145" lon="8.470519674173726"><ele>83.0</ele><time>2026-04-06T10:15:35.001Z</time></trkpt><trkpt lat="39.69042249118248" lon="8.470379986418767"><ele>82.75</ele><time>2026-04-06T10:15:36.001Z</time></trkpt><trkpt lat="39.69054327682143" lon="8.47028413731621"><ele>82.5</ele><time>2026-04-06T10:15:37.001Z</time></trkpt><trkpt lat="39.69066255582374" lon="8.470200189757021"><ele>82.25</ele><time>2026-04-06T10:15:38.001Z</time></trkpt><trkpt lat="39.69079635013732" lon="8.470149175554395"><ele>82.0</ele><time>2026-04-06T10:15:39.001Z</time></trkpt><trkpt lat="39.69093604278771" lon="8.470062688492808"><ele>82.0</ele><time>2026-04-06T10:15:40.001Z</time></trkpt><trkpt lat="39.69108708701154" lon="8.469991495395329"><ele>82.0</ele><time>2026-04-06T10:15:41.001Z</time></trkpt><trkpt lat="39.69118325342766" lon="8.469906027405266"><ele>82.0</ele><time>2026-04-06T10:15:42.001Z</time></trkpt><trkpt lat="39.691282049681554" lon="8.469795374527704"><ele>82.0</ele><time>2026-04-06T10:15:43Z</time></trkpt><trkpt lat="39.6913691794295" lon="8.469673133727492"><ele>81.6</ele><time>2026-04-06T10:15:44Z</time></trkpt><trkpt lat="39.691458480289086" lon="8.469574646563274"><ele>81.19999999999999</ele><time>2026-04-06T10:15:45Z</time></trkpt><trkpt lat="39.6915488496327" lon="8.469532580776406"><ele>80.8</ele><time>2026-04-06T10:15:46Z</time></trkpt><trkpt lat="39.69162058487" lon="8.469510135454032"><ele>80.4</ele><time>2026-04-06T10:15:47Z</time></trkpt><trkpt lat="39.69171921222033" lon="8.469607152902485"><ele>80.0</ele><time>2026-04-06T10:15:49Z</time></trkpt><trkpt lat="39.691706515756124" lon="8.469712579924987"><ele>78.6</ele><time>2026-04-06T10:15:50Z</time></trkpt><trkpt lat="39.69163486188394" lon="8.46977743471562"><ele>77.2</ele><time>2026-04-06T10:15:51Z</time></trkpt><trkpt lat="39.69158197289675" lon="8.46986337541006"><ele>75.8</ele><time>2026-04-06T10:15:52Z</time></trkpt><trkpt lat="39.6915114235276" lon="8.46995215933245"><ele>74.4</ele><time>2026-04-06T10:15:53Z</time></trkpt><trkpt lat="39.69145512162783" lon="8.470089829688211"><ele>73.0</ele><time>2026-04-06T10:15:54Z</time></trkpt><trkpt lat="39.691419376836535" lon="8.47025079036557"><ele>73.0</ele><time>2026-04-06T10:15:55Z</time></trkpt><trkpt lat="39.691416934396365" lon="8.470409359701858"><ele>73.0</ele><time>2026-04-06T10:15:56Z</time></trkpt><trkpt lat="39.69145059887574" lon="8.470556546376656"><ele>73.0</ele><time>2026-04-06T10:15:57Z</time></trkpt><trkpt lat="39.69152510066477" lon="8.47066810834536"><ele>73.0</ele><time>2026-04-06T10:15:58Z</time></trkpt><trkpt lat="39.69161911099482" lon="8.470737525299056"><ele>72.5</ele><time>2026-04-06T10:15:59Z</time></trkpt><trkpt lat="39.6917444900541" lon="8.470779541219832"><ele>72.0</ele><time>2026-04-06T10:16:00Z</time></trkpt><trkpt lat="39.69187591040327" lon="8.47081656132009"><ele>71.5</ele><time>2026-04-06T10:16:01Z</time></trkpt><trkpt lat="39.69198932304281" lon="8.470899747970376"><ele>71.0</ele><time>2026-04-06T10:16:02Z</time></trkpt><trkpt lat="39.692045377904805" lon="8.471051129875613"><ele>69.75</ele><time>2026-04-06T10:16:03Z</time></trkpt><trkpt lat="39.69208992272138" lon="8.471208133075638"><ele>68.5</ele><time>2026-04-06T10:16:04Z</time></trkpt><trkpt lat="39.69211724540453" lon="8.471390463591437"><ele>67.25</ele><time>2026-04-06T10:16:05Z</time></trkpt><trkpt lat="39.69215650124325" lon="8.47157741510882"><ele>66.0</ele><time>2026-04-06T10:16:06Z</time></trkpt><trkpt lat="39.69220392701348" lon="8.471775904075958"><ele>66.0</ele><time>2026-04-06T10:16:07Z</time></trkpt><trkpt lat="39.69228853190442" lon="8.471972635613946"><ele>66.0</ele><time>2026-04-06T10:16:08Z</time></trkpt><trkpt lat="39.69240689519774" lon="8.472178434673932"><ele>66.0</ele><time>2026-04-06T10:16:09Z</time></trkpt><trkpt lat="39.692527264805435" lon="8.472393735218079"><ele>64.66666666666667</ele><time>2026-04-06T10:16:10Z</time></trkpt><trkpt lat="39.69263290065743" lon="8.472598988625787"><ele>63.333333333333336</ele><time>2026-04-06T10:16:11Z</time></trkpt><trkpt lat="39.692743781220294" lon="8.47281151887355"><ele>62.0</ele><time>2026-04-06T10:16:12Z</time></trkpt><trkpt lat="39.69285621987621" lon="8.473028956815853"><ele>61.333333333333336</ele><time>2026-04-06T10:16:13Z</time></trkpt><trkpt lat="39.69297465140325" lon="8.47325109635453"><ele>60.66666666666667</ele><time>2026-04-06T10:16:14Z</time></trkpt><trkpt lat="39.69309981475633" lon="8.473466348412764"><ele>60.0</ele><time>2026-04-06T10:16:15Z</time></trkpt><trkpt lat="39.69324029445651" lon="8.473677791593278"><ele>60.0</ele><time>2026-04-06T10:16:16Z</time></trkpt><trkpt lat="39.693399468511124" lon="8.473876158766037"><ele>60.0</ele><time>2026-04-06T10:16:17Z</time></trkpt><trkpt lat="39.69355749721381" lon="8.474070213052816"><ele>60.0</ele><time>2026-04-06T10:16:18Z</time></trkpt><trkpt lat="39.69370018790932" lon="8.47425123462853"><ele>59.0</ele><time>2026-04-06T10:16:19Z</time></trkpt><trkpt lat="39.6938253605638" lon="8.474430353064054"><ele>58.0</ele><time>2026-04-06T10:16:20Z</time></trkpt><trkpt lat="39.6939312156016" lon="8.47461174620744"><ele>57.0</ele><time>2026-04-06T10:16:21Z</time></trkpt><trkpt lat="39.694027504368535" lon="8.474791607053914"><ele>55.66666666666667</ele><time>2026-04-06T10:16:22Z</time></trkpt><trkpt lat="39.69414382823381" lon="8.474952013402989"><ele>54.333333333333336</ele><time>2026-04-06T10:16:23Z</time></trkpt><trkpt lat="39.6942949023874" lon="8.475106508338655"><ele>53.0</ele><time>2026-04-06T10:16:24Z</time></trkpt><trkpt lat="39.69446406253749" lon="8.475251488753306"><ele>51.333333333333336</ele><time>2026-04-06T10:16:25Z</time></trkpt><trkpt lat="39.69463370250062" lon="8.475411155890965"><ele>49.66666666666667</ele><time>2026-04-06T10:16:26Z</time></trkpt><trkpt lat="39.69479827480277" lon="8.4756012745524"><ele>48.0</ele><time>2026-04-06T10:16:27Z</time></trkpt><trkpt lat="39.69496212528063" lon="8.475808280303397"><ele>46.0</ele><time>2026-04-06T10:16:28Z</time></trkpt><trkpt lat="39.695130727192" lon="8.476011761584749"><ele>44.0</ele><time>2026-04-06T10:16:29Z</time></trkpt><trkpt lat="39.695303038689964" lon="8.476216338332607"><ele>45.33333333333333</ele><time>2026-04-06T10:16:30Z</time></trkpt><trkpt lat="39.69545037426224" lon="8.476401277575016"><ele>46.666666666666664</ele><time>2026-04-06T10:16:31Z</time></trkpt><trkpt lat="39.695587594493254" lon="8.476568704304185"><ele>48.0</ele><time>2026-04-06T10:16:32Z</time></trkpt><trkpt lat="39.69570505892853" lon="8.47670677373142"><ele>48.0</ele><time>2026-04-06T10:16:33Z</time></trkpt><trkpt lat="39.69580766117337" lon="8.476810382276556"><ele>48.0</ele><time>2026-04-06T10:16:34Z</time></trkpt><trkpt lat="39.69592035963312" lon="8.476869798505485"><ele>48.0</ele><time>2026-04-06T10:16:35Z</time></trkpt><trkpt lat="39.69605233599723" lon="8.476878414994237"><ele>48.0</ele><time>2026-04-06T10:16:36Z</time></trkpt><trkpt lat="39.69619881660503" lon="8.476830882541263"><ele>48.25</ele><time>2026-04-06T10:16:37Z</time></trkpt><trkpt lat="39.696344058163206" lon="8.476779992584063"><ele>48.5</ele><time>2026-04-06T10:16:38Z</time></trkpt><trkpt lat="39.69647460896834" lon="8.476764005550415"><ele>48.75</ele><time>2026-04-06T10:16:39Z</time></trkpt><trkpt lat="39.69658111241982" lon="8.476819657462581"><ele>49.0</ele><time>2026-04-06T10:16:40Z</time></trkpt><trkpt lat="39.6966678560806" lon="8.47690394273856"><ele>49.0</ele><time>2026-04-06T10:16:41Z</time></trkpt><trkpt lat="39.69673676738359" lon="8.47703819362546"><ele>49.0</ele><time>2026-04-06T10:16:42Z</time></trkpt><trkpt lat="39.696844207609274" lon="8.47713702857787"><ele>49.0</ele><time>2026-04-06T10:16:43Z</time></trkpt><trkpt lat="39.696962225640135" lon="8.477239423325557"><ele>49.0</ele><time>2026-04-06T10:16:44Z</time></trkpt><trkpt lat="39.697086585605206" lon="8.477275907826927"><ele>51.75</ele><time>2026-04-06T10:16:45Z</time></trkpt><trkpt lat="39.697202639008964" lon="8.477279394451944"><ele>54.5</ele><time>2026-04-06T10:16:46Z</time></trkpt><trkpt lat="39.697325876274185" lon="8.477256597464716"><ele>57.25</ele><time>2026-04-06T10:16:47Z</time></trkpt><trkpt lat="39.69745439036177" lon="8.477220228733186"><ele>60.0</ele><time>2026-04-06T10:16:48.001Z</time></trkpt><trkpt lat="39.69758251516957" lon="8.47719800200452"><ele>60.0</ele><time>2026-04-06T10:16:49Z</time></trkpt><trkpt lat="39.69769539879277" lon="8.477182599381125"><ele>60.0</ele><time>2026-04-06T10:16:50Z</time></trkpt><trkpt lat="39.697799250764824" lon="8.477162432684628"><ele>60.0</ele><time>2026-04-06T10:16:51Z</time></trkpt><trkpt lat="39.69790620103922" lon="8.477143536470768"><ele>60.0</ele><time>2026-04-06T10:16:52Z</time></trkpt><trkpt lat="39.69802368141557" lon="8.477156068435468"><ele>60.0</ele><time>2026-04-06T10:16:53Z</time></trkpt><trkpt lat="39.69814521373492" lon="8.477174865982873"><ele>58.75</ele><time>2026-04-06T10:16:54Z</time></trkpt><trkpt lat="39.69825954748861" lon="8.477201211458068"><ele>57.5</ele><time>2026-04-06T10:16:55Z</time></trkpt><trkpt lat="39.698357958077864" lon="8.47724499659881"><ele>56.25</ele><time>2026-04-06T10:16:56Z</time></trkpt><trkpt lat="39.698437043154016" lon="8.4773490150347"><ele>55.0</ele><time>2026-04-06T10:16:57Z</time></trkpt><trkpt lat="39.698530005799455" lon="8.47749721084666"><ele>54.75</ele><time>2026-04-06T10:16:58Z</time></trkpt><trkpt lat="39.698638371947595" lon="8.477630700495883"><ele>54.5</ele><time>2026-04-06T10:16:59Z</time></trkpt><trkpt lat="39.698729377302406" lon="8.477746997928795"><ele>54.25</ele><time>2026-04-06T10:17:00Z</time></trkpt><trkpt lat="39.69881437489865" lon="8.477812340391704"><ele>54.0</ele><time>2026-04-06T10:17:01Z</time></trkpt><trkpt lat="39.6988913142002" lon="8.477802322701422"><ele>54.0</ele><time>2026-04-06T10:17:02Z</time></trkpt><trkpt lat="39.69898362135845" lon="8.477793181545637"><ele>54.00000000000001</ele><time>2026-04-06T10:17:03Z</time></trkpt><trkpt lat="39.699069052587454" lon="8.477694037380775"><ele>54.00000000000001</ele><time>2026-04-06T10:17:04Z</time></trkpt><trkpt lat="39.69916359280034" lon="8.47761499012065"><ele>54.0</ele><time>2026-04-06T10:17:05Z</time></trkpt><trkpt lat="39.69926310403523" lon="8.477569445941523"><ele>54.0</ele><time>2026-04-06T10:17:06Z</time></trkpt><trkpt lat="39.69936821354248" lon="8.477570911534162"><ele>54.25</ele><time>2026-04-06T10:17:07Z</time></trkpt><trkpt lat="39.6994816214503" lon="8.477596781789584"><ele>54.5</ele><time>2026-04-06T10:17:08Z</time></trkpt><trkpt lat="39.6996062892791" lon="8.47762172567226"><ele>54.75</ele><time>2026-04-06T10:17:09Z</time></trkpt><trkpt lat="39.69973831055896" lon="8.477621703836952"><ele>55.0</ele><time>2026-04-06T10:17:10Z</time></trkpt><trkpt lat="39.69986816410885" lon="8.477584940207352"><ele>55.0</ele><time>2026-04-06T10:17:11Z</time></trkpt><trkpt lat="39.69998782810948" lon="8.477514057977766"><ele>55.0</ele><time>2026-04-06T10:17:12Z</time></trkpt><trkpt lat="39.70010474540953" lon="8.477434558415943"><ele>55.0</ele><time>2026-04-06T10:17:13Z</time></trkpt><trkpt lat="39.70023448150917" lon="8.47742513109194"><ele>55.0</ele><time>2026-04-06T10:17:14Z</time></trkpt><trkpt lat="39.70036961495216" lon="8.477408634022973"><ele>54.2</ele><time>2026-04-06T10:17:15Z</time></trkpt><trkpt lat="39.700491019363895" lon="8.477381446476482"><ele>53.4</ele><time>2026-04-06T10:17:16Z</time></trkpt><trkpt lat="39.70060528834165" lon="8.477405718271216"><ele>52.599999999999994</ele><time>2026-04-06T10:17:17Z</time></trkpt><trkpt lat="39.70071007210049" lon="8.477433138136211"><ele>51.8</ele><time>2026-04-06T10:17:18Z</time></trkpt><trkpt lat="39.70080326820179" lon="8.47749126866933"><ele>51.0</ele><time>2026-04-06T10:17:19Z</time></trkpt><trkpt lat="39.70087842390049" lon="8.477616993730031"><ele>51.0</ele><time>2026-04-06T10:17:20Z</time></trkpt><trkpt lat="39.700933465096966" lon="8.477786229098514"><ele>51.0</ele><time>2026-04-06T10:17:21Z</time></trkpt><trkpt lat="39.70100537981675" lon="8.477991021740406"><ele>51.0</ele><time>2026-04-06T10:17:22Z</time></trkpt><trkpt lat="39.70108091225226" lon="8.478231930156603"><ele>51.0</ele><time>2026-04-06T10:17:23Z</time></trkpt><trkpt lat="39.70115605476389" lon="8.478508597987592"><ele>51.0</ele><time>2026-04-06T10:17:24Z</time></trkpt><trkpt lat="39.701247082353476" lon="8.478809253103066"><ele>51.0</ele><time>2026-04-06T10:17:25Z</time></trkpt><trkpt lat="39.7013095316381" lon="8.479103044919363"><ele>51.0</ele><time>2026-04-06T10:17:26Z</time></trkpt><trkpt lat="39.7013716797069" lon="8.479334387710162"><ele>51.0</ele><time>2026-04-06T10:17:27Z</time></trkpt><trkpt lat="39.701428220900745" lon="8.479506973308307"><ele>50.75</ele><time>2026-04-06T10:17:28Z</time></trkpt><trkpt lat="39.70150089789316" lon="8.479641481409434"><ele>50.5</ele><time>2026-04-06T10:17:29Z</time></trkpt><trkpt lat="39.701615285795626" lon="8.479755000023298"><ele>50.25</ele><time>2026-04-06T10:17:30Z</time></trkpt><trkpt lat="39.70176523885697" lon="8.479850876804184"><ele>50.0</ele><time>2026-04-06T10:17:31Z</time></trkpt><trkpt lat="39.701924434150186" lon="8.479936061231166"><ele>50.0</ele><time>2026-04-06T10:17:32Z</time></trkpt><trkpt lat="39.70208474429376" lon="8.48003074291146"><ele>50.0</ele><time>2026-04-06T10:17:33Z</time></trkpt><trkpt lat="39.7022496217081" lon="8.480102386163496"><ele>50.0</ele><time>2026-04-06T10:17:34Z</time></trkpt><trkpt lat="39.702422401432784" lon="8.48013135992741"><ele>50.0</ele><time>2026-04-06T10:17:35Z</time></trkpt><trkpt lat="39.702599394047944" lon="8.48014600635546"><ele>50.0</ele><time>2026-04-06T10:17:36Z</time></trkpt><trkpt lat="39.70278810653054" lon="8.480163154423217"><ele>50.0</ele><time>2026-04-06T10:17:37Z</time></trkpt><trkpt lat="39.7029608086638" lon="8.48016469802691"><ele>50.0</ele><time>2026-04-06T10:17:38Z</time></trkpt><trkpt lat="39.70310734436926" lon="8.480191757048928"><ele>50.0</ele><time>2026-04-06T10:17:39Z</time></trkpt><trkpt lat="39.703229597022506" lon="8.480198705949716"><ele>50.0</ele><time>2026-04-06T10:17:40Z</time></trkpt><trkpt lat="39.70332451824679" lon="8.480269821820762"><ele>50.0</ele><time>2026-04-06T10:17:41Z</time></trkpt><trkpt lat="39.703375774680445" lon="8.480405964973103"><ele>49.66666666666667</ele><time>2026-04-06T10:17:42Z</time></trkpt><trkpt lat="39.70345258139163" lon="8.480546493969504"><ele>49.33333333333333</ele><time>2026-04-06T10:17:43Z</time></trkpt><trkpt lat="39.703531652155945" lon="8.480723296895121"><ele>49.0</ele><time>2026-04-06T10:17:44Z</time></trkpt><trkpt lat="39.703612371495765" lon="8.480922754265455"><ele>49.0</ele><time>2026-04-06T10:17:45Z</time></trkpt><trkpt lat="39.703671754504974" lon="8.481135135256281"><ele>49.0</ele><time>2026-04-06T10:17:46Z</time></trkpt><trkpt lat="39.70370845545165" lon="8.481318601146462"><ele>49.0</ele><time>2026-04-06T10:17:47Z</time></trkpt><trkpt lat="39.703751180277536" lon="8.481448633986341"><ele>49.0</ele><time>2026-04-06T10:17:48Z</time></trkpt><trkpt lat="39.703820372492" lon="8.481533909577516"><ele>46.0</ele><time>2026-04-06T10:17:49Z</time></trkpt><trkpt lat="39.70391743485499" lon="8.481571169916828"><ele>43.0</ele><time>2026-04-06T10:17:50Z</time></trkpt><trkpt lat="39.70402590217719" lon="8.481540453050506"><ele>40.0</ele><time>2026-04-06T10:17:51Z</time></trkpt><trkpt lat="39.70413182592085" lon="8.481450408821004"><ele>37.0</ele><time>2026-04-06T10:17:52Z</time></trkpt><trkpt lat="39.704227726267504" lon="8.481325041039817"><ele>36.25</ele><time>2026-04-06T10:17:53Z</time></trkpt><trkpt lat="39.70434570386993" lon="8.481243169450323"><ele>35.5</ele><time>2026-04-06T10:17:54Z</time></trkpt><trkpt lat="39.70446199736891" lon="8.481213098000984"><ele>34.75</ele><time>2026-04-06T10:17:55Z</time></trkpt><trkpt lat="39.70457414520488" lon="8.481220868229732"><ele>34.0</ele><time>2026-04-06T10:17:56Z</time></trkpt><trkpt lat="39.70467510891294" lon="8.481318398970094"><ele>34.0</ele><time>2026-04-06T10:17:57Z</time></trkpt><trkpt lat="39.704798530799515" lon="8.481414909527883"><ele>34.0</ele><time>2026-04-06T10:17:58Z</time></trkpt><trkpt lat="39.70493687718705" lon="8.481537634016462"><ele>34.0</ele><time>2026-04-06T10:17:59Z</time></trkpt><trkpt lat="39.70509040149937" lon="8.481623754507984"><ele>34.0</ele><time>2026-04-06T10:18:00Z</time></trkpt><trkpt lat="39.70522122731649" lon="8.481664208155774"><ele>34.0</ele><time>2026-04-06T10:18:01Z</time></trkpt><trkpt lat="39.705354188456745" lon="8.48165437156826"><ele>34.0</ele><time>2026-04-06T10:18:02Z</time></trkpt><trkpt lat="39.705508076506156" lon="8.481607213452435"><ele>34.0</ele><time>2026-04-06T10:18:03Z</time></trkpt><trkpt lat="39.705668390412036" lon="8.481541034069016"><ele>33.5</ele><time>2026-04-06T10:18:04Z</time></trkpt><trkpt lat="39.70581583869984" lon="8.48146587043873"><ele>33.0</ele><time>2026-04-06T10:18:05Z</time></trkpt><trkpt lat="39.70592258573803" lon="8.481392978288396"><ele>32.5</ele><time>2026-04-06T10:18:06Z</time></trkpt><trkpt lat="39.70599783189601" lon="8.481315663459675"><ele>32.0</ele><time>2026-04-06T10:18:07Z</time></trkpt><trkpt lat="39.70604030813514" lon="8.481215110677017"><ele>32.33333333333333</ele><time>2026-04-06T10:18:08Z</time></trkpt><trkpt lat="39.70605196029059" lon="8.481094546708384"><ele>32.666666666666664</ele><time>2026-04-06T10:18:09Z</time></trkpt><trkpt lat="39.70605395737214" lon="8.480981547151146"><ele>33.0</ele><time>2026-04-06T10:18:10Z</time></trkpt><trkpt lat="39.706099290192405" lon="8.480902454050042"><ele>33.333333333333336</ele><time>2026-04-06T10:18:11Z</time></trkpt><trkpt lat="39.70620919554233" lon="8.480893298887466"><ele>33.66666666666667</ele><time>2026-04-06T10:18:13Z</time></trkpt><trkpt lat="39.70624942184366" lon="8.480966702792957"><ele>34.0</ele><time>2026-04-06T10:18:14Z</time></trkpt><trkpt lat="39.706263717794585" lon="8.481061966940391"><ele>34.0</ele><time>2026-04-06T10:18:15Z</time></trkpt><trkpt lat="39.7062912070999" lon="8.48115357460094"><ele>34.0</ele><time>2026-04-06T10:18:16Z</time></trkpt><trkpt lat="39.70632599983767" lon="8.481228481141525"><ele>34.0</ele><time>2026-04-06T10:18:17Z</time></trkpt><trkpt lat="39.70637531379786" lon="8.481299687220357"><ele>34.0</ele><time>2026-04-06T10:18:18Z</time></trkpt><trkpt lat="39.70643743807585" lon="8.48134449918221"><ele>34.0</ele><time>2026-04-06T10:18:19Z</time></trkpt><trkpt lat="39.706517586372826" lon="8.481374097395488"><ele>34.0</ele><time>2026-04-06T10:18:20Z</time></trkpt><trkpt lat="39.706608165390946" lon="8.481388254359972"><ele>32.4</ele><time>2026-04-06T10:18:21Z</time></trkpt><trkpt lat="39.706707756307146" lon="8.481407027824888"><ele>30.799999999999997</ele><time>2026-04-06T10:18:22Z</time></trkpt><trkpt lat="39.706805058039265" lon="8.481419024308975"><ele>29.200000000000003</ele><time>2026-04-06T10:18:23Z</time></trkpt><trkpt lat="39.70691328188111" lon="8.481439834938937"><ele>27.6</ele><time>2026-04-06T10:18:24Z</time></trkpt><trkpt lat="39.70701832698791" lon="8.48146177403848"><ele>26.0</ele><time>2026-04-06T10:18:25Z</time></trkpt><trkpt lat="39.70712254913198" lon="8.481500488147786"><ele>25.4</ele><time>2026-04-06T10:18:26Z</time></trkpt><trkpt lat="39.70721699188317" lon="8.481570876482472"><ele>24.8</ele><time>2026-04-06T10:18:27Z</time></trkpt><trkpt lat="39.70730054787437" lon="8.48166243373684"><ele>24.2</ele><time>2026-04-06T10:18:28Z</time></trkpt><trkpt lat="39.70738399059583" lon="8.481762539822663"><ele>23.599999999999998</ele><time>2026-04-06T10:18:29Z</time></trkpt><trkpt lat="39.707469263400384" lon="8.481867718811174"><ele>23.0</ele><time>2026-04-06T10:18:30Z</time></trkpt><trkpt lat="39.707558763420906" lon="8.481976456146361"><ele>23.0</ele><time>2026-04-06T10:18:31Z</time></trkpt><trkpt lat="39.70765612136246" lon="8.482098059995016"><ele>23.0</ele><time>2026-04-06T10:18:32Z</time></trkpt><trkpt lat="39.7077512375339" lon="8.482215271396102"><ele>23.0</ele><time>2026-04-06T10:18:33Z</time></trkpt><trkpt lat="39.70783662625304" lon="8.482318253928884"><ele>23.0</ele><time>2026-04-06T10:18:34Z</time></trkpt><trkpt lat="39.707916771027044" lon="8.482415955281356"><ele>22.599999999999998</ele><time>2026-04-06T10:18:35Z</time></trkpt><trkpt lat="39.70798946440847" lon="8.482509507084659"><ele>22.2</ele><time>2026-04-06T10:18:36Z</time></trkpt><trkpt lat="39.708057997052784" lon="8.482599316858575"><ele>21.8</ele><time>2026-04-06T10:18:37Z</time></trkpt><trkpt lat="39.70812808833691" lon="8.482683483015336"><ele>21.4</ele><time>2026-04-06T10:18:38Z</time></trkpt><trkpt lat="39.7082082502065" lon="8.482761863343798"><ele>21.0</ele><time>2026-04-06T10:18:39Z</time></trkpt><trkpt lat="39.708291060376304" lon="8.482819900396985"><ele>21.0</ele><time>2026-04-06T10:18:40Z</time></trkpt><trkpt lat="39.70839706391219" lon="8.482824405949431"><ele>21.0</ele><time>2026-04-06T10:18:41Z</time></trkpt><trkpt lat="39.70850242674872" lon="8.482772469433325"><ele>21.0</ele><time>2026-04-06T10:18:42Z</time></trkpt><trkpt lat="39.70859519799072" lon="8.482695727519811"><ele>21.0</ele><time>2026-04-06T10:18:43Z</time></trkpt><trkpt lat="39.708685590828644" lon="8.48262139745747"><ele>21.0</ele><time>2026-04-06T10:18:44Z</time></trkpt><trkpt lat="39.708781561138366" lon="8.482554209441265"><ele>21.8</ele><time>2026-04-06T10:18:45Z</time></trkpt><trkpt lat="39.70887775451911" lon="8.48248689626197"><ele>22.6</ele><time>2026-04-06T10:18:46Z</time></trkpt><trkpt lat="39.708973538774224" lon="8.48242051432373"><ele>23.4</ele><time>2026-04-06T10:18:47Z</time></trkpt><trkpt lat="39.709072023914295" lon="8.48235444682658"><ele>24.2</ele><time>2026-04-06T10:18:48Z</time></trkpt><trkpt lat="39.70917029523618" lon="8.482285062962838"><ele>25.0</ele><time>2026-04-06T10:18:49Z</time></trkpt><trkpt lat="39.70928158014735" lon="8.482229903878702"><ele>25.0</ele><time>2026-04-06T10:18:50Z</time></trkpt><trkpt lat="39.70938395633658" lon="8.482162123740322"><ele>25.0</ele><time>2026-04-06T10:18:51Z</time></trkpt><trkpt lat="39.70947339851133" lon="8.48208242256199"><ele>25.0</ele><time>2026-04-06T10:18:52Z</time></trkpt><trkpt lat="39.709567149143574" lon="8.48202665027894"><ele>25.0</ele><time>2026-04-06T10:18:53Z</time></trkpt><trkpt lat="39.70966731518309" lon="8.481971652316377"><ele>25.0</ele><time>2026-04-06T10:18:54Z</time></trkpt><trkpt lat="39.70977726477636" lon="8.481927858427984"><ele>23.8</ele><time>2026-04-06T10:18:55Z</time></trkpt><trkpt lat="39.70989537587724" lon="8.481893069402066"><ele>22.6</ele><time>2026-04-06T10:18:56Z</time></trkpt><trkpt lat="39.71001147395717" lon="8.481867840332015"><ele>21.4</ele><time>2026-04-06T10:18:57Z</time></trkpt><trkpt lat="39.710114946863506" lon="8.481856711888824"><ele>20.2</ele><time>2026-04-06T10:18:58Z</time></trkpt><trkpt lat="39.71021665377874" lon="8.481864611246458"><ele>19.0</ele><time>2026-04-06T10:18:59Z</time></trkpt><trkpt lat="39.71032085389616" lon="8.481897183959642"><ele>18.5</ele><time>2026-04-06T10:19:00Z</time></trkpt><trkpt lat="39.710426276166615" lon="8.481947614387327"><ele>18.0</ele><time>2026-04-06T10:19:01Z</time></trkpt><trkpt lat="39.71053744571751" lon="8.482006751656066"><ele>17.5</ele><time>2026-04-06T10:19:02Z</time></trkpt><trkpt lat="39.710655132353835" lon="8.482070514012875"><ele>17.0</ele><time>2026-04-06T10:19:03Z</time></trkpt><trkpt lat="39.71076979992712" lon="8.482136035218685"><ele>16.2</ele><time>2026-04-06T10:19:04Z</time></trkpt><trkpt lat="39.7108777331388" lon="8.482200649170144"><ele>15.399999999999999</ele><time>2026-04-06T10:19:05Z</time></trkpt><trkpt lat="39.710978918826015" lon="8.482272248039765"><ele>14.600000000000001</ele><time>2026-04-06T10:19:06Z</time></trkpt><trkpt lat="39.71106281114712" lon="8.482357360786473"><ele>13.8</ele><time>2026-04-06T10:19:07Z</time></trkpt><trkpt lat="39.71113024209294" lon="8.482465535051002"><ele>13.0</ele><time>2026-04-06T10:19:08Z</time></trkpt><trkpt lat="39.71118646396135" lon="8.482601303404637"><ele>13.0</ele><time>2026-04-06T10:19:09Z</time></trkpt><trkpt lat="39.711247686229385" lon="8.482747814346157"><ele>13.0</ele><time>2026-04-06T10:19:10Z</time></trkpt><trkpt lat="39.711314067508425" lon="8.482881887873317"><ele>13.0</ele><time>2026-04-06T10:19:11Z</time></trkpt><trkpt lat="39.711385573622856" lon="8.483017526210771"><ele>13.0</ele><time>2026-04-06T10:19:12Z</time></trkpt><trkpt lat="39.7114583267751" lon="8.483158058379905"><ele>13.75</ele><time>2026-04-06T10:19:13Z</time></trkpt><trkpt lat="39.71152443568683" lon="8.483290147859059"><ele>14.5</ele><time>2026-04-06T10:19:14Z</time></trkpt><trkpt lat="39.711586152133066" lon="8.483418633458315"><ele>15.25</ele><time>2026-04-06T10:19:15Z</time></trkpt><trkpt lat="39.711645471335586" lon="8.48354118488871"><ele>16.0</ele><time>2026-04-06T10:19:16Z</time></trkpt><trkpt lat="39.71170260878682" lon="8.483654408708"><ele>15.999999999999998</ele><time>2026-04-06T10:19:17Z</time></trkpt><trkpt lat="39.711756075555535" lon="8.483751931539805"><ele>16.0</ele><time>2026-04-06T10:19:18Z</time></trkpt><trkpt lat="39.711796438633854" lon="8.483841614392"><ele>16.0</ele><time>2026-04-06T10:19:19Z</time></trkpt><trkpt lat="39.71182382555703" lon="8.483926240445449"><ele>16.0</ele><time>2026-04-06T10:19:20Z</time></trkpt><trkpt lat="39.71183448773108" lon="8.484012880605288"><ele>15.999999999999998</ele><time>2026-04-06T10:19:21Z</time></trkpt><trkpt lat="39.71182857845387" lon="8.484117911241498"><ele>16.0</ele><time>2026-04-06T10:19:22Z</time></trkpt><trkpt lat="39.71181119322096" lon="8.48424133597369"><ele>16.400000000000002</ele><time>2026-04-06T10:19:23Z</time></trkpt><trkpt lat="39.71177823083313" lon="8.484395423856652"><ele>16.8</ele><time>2026-04-06T10:19:24Z</time></trkpt><trkpt lat="39.711754755210414" lon="8.484537124326375"><ele>17.200000000000003</ele><time>2026-04-06T10:19:25Z</time></trkpt><trkpt lat="39.71175202702015" lon="8.484647322308962"><ele>17.6</ele><time>2026-04-06T10:19:26Z</time></trkpt><trkpt lat="39.71176833635487" lon="8.484745669342736"><ele>18.0</ele><time>2026-04-06T10:19:27Z</time></trkpt><trkpt lat="39.71181308848177" lon="8.484822349851495"><ele>18.0</ele><time>2026-04-06T10:19:28Z</time></trkpt><trkpt lat="39.71187060729089" lon="8.484874245799539"><ele>18.0</ele><time>2026-04-06T10:19:29Z</time></trkpt><trkpt lat="39.71193824724333" lon="8.484945989361641"><ele>18.0</ele><time>2026-04-06T10:19:30Z</time></trkpt><trkpt lat="39.71201906100678" lon="8.485014951104553"><ele>18.0</ele><time>2026-04-06T10:19:31Z</time></trkpt><trkpt lat="39.7121090112268" lon="8.485093167416013"><ele>18.0</ele><time>2026-04-06T10:19:32Z</time></trkpt><trkpt lat="39.71219218749245" lon="8.48516705642426"><ele>17.6</ele><time>2026-04-06T10:19:33Z</time></trkpt><trkpt lat="39.712275963384165" lon="8.485241725194967"><ele>17.200000000000003</ele><time>2026-04-06T10:19:34Z</time></trkpt><trkpt lat="39.712360318644244" lon="8.485314624288785"><ele>16.8</ele><time>2026-04-06T10:19:35Z</time></trkpt><trkpt lat="39.71244156600879" lon="8.485382847839237"><ele>16.400000000000002</ele><time>2026-04-06T10:19:36Z</time></trkpt><trkpt lat="39.71251598548293" lon="8.485446069296051"><ele>16.0</ele><time>2026-04-06T10:19:37Z</time></trkpt><trkpt lat="39.7125775840505" lon="8.48549765468251"><ele>14.8</ele><time>2026-04-06T10:19:38Z</time></trkpt><trkpt lat="39.71263769933432" lon="8.485549862436537"><ele>13.600000000000001</ele><time>2026-04-06T10:19:39Z</time></trkpt><trkpt lat="39.71268965704332" lon="8.485600447451365"><ele>12.4</ele><time>2026-04-06T10:19:40Z</time></trkpt><trkpt lat="39.71279203118262" lon="8.485685913922444"><ele>11.2</ele><time>2026-04-06T10:19:42Z</time></trkpt><trkpt lat="39.71288936250416" lon="8.485758775935386"><ele>10.0</ele><time>2026-04-06T10:19:44Z</time></trkpt><trkpt lat="39.712986225339435" lon="8.485837917223202"><ele>10.0</ele><time>2026-04-06T10:19:46Z</time></trkpt><trkpt lat="39.71308167543093" lon="8.485919091472296"><ele>10.0</ele><time>2026-04-06T10:19:48Z</time></trkpt><trkpt lat="39.71317350632923" lon="8.485986846831835"><ele>10.0</ele><time>2026-04-06T10:19:50Z</time></trkpt><trkpt lat="39.713241738508245" lon="8.486040074351516"><ele>10.0</ele><time>2026-04-06T10:19:52Z</time></trkpt><trkpt lat="39.71329775764179" lon="8.486110444018886"><ele>10.0</ele><time>2026-04-06T10:19:55Z</time></trkpt><trkpt lat="39.71337109013966" lon="8.486165238433793"><ele>10.0</ele><time>2026-04-06T10:19:58Z</time></trkpt><trkpt lat="39.71344005698725" lon="8.486216769903798"><ele>10.0</ele><time>2026-04-06T10:20:01Z</time></trkpt><trkpt lat="39.713484155282806" lon="8.486291370680183"><ele>10.0</ele><time>2026-04-06T10:26:29Z</time></trkpt><trkpt lat="39.713452321103105" lon="8.486409344271799"><ele>10.0</ele><time>2026-04-06T10:35:40.008Z</time></trkpt><trkpt lat="39.713412148783085" lon="8.486575012426604"><ele>10.0</ele><time>2026-04-06T10:35:41.008Z</time></trkpt><trkpt lat="39.71344968207789" lon="8.48648873174435"><ele>9.6</ele><time>2026-04-06T10:35:43.008Z</time></trkpt><trkpt lat="39.71345840608037" lon="8.486380483435223"><ele>9.2</ele><time>2026-04-06T10:36:30.009Z</time></trkpt><trkpt lat="39.71352455004466" lon="8.48637883739356"><ele>8.8</ele><time>2026-04-06T10:36:49.009Z</time></trkpt><trkpt lat="39.71355885477354" lon="8.486457240094627"><ele>8.4</ele><time>2026-04-06T10:36:51.009Z</time></trkpt><trkpt lat="39.713614253655464" lon="8.486539540815025"><ele>8.0</ele><time>2026-04-06T10:36:55.819Z</time></trkpt><trkpt lat="39.71353795102808" lon="8.486293285383299"><ele>7.999999999999999</ele><time>2026-04-06T10:37:21.417Z</time></trkpt><trkpt lat="39.71353904124676" lon="8.486201121847117"><ele>8.0</ele><time>2026-04-06T10:37:51.999Z</time></trkpt><trkpt lat="39.71350459328755" lon="8.486285759203277"><ele>8.0</ele><time>2026-04-06T10:37:57.999Z</time></trkpt><trkpt lat="39.713490135719006" lon="8.486365645359408"><ele>8.0</ele><time>2026-04-06T10:38:05Z</time></trkpt><trkpt lat="39.713556030292956" lon="8.486235584821452"><ele>7.999999999999999</ele><time>2026-04-06T10:42:19.026Z</time></trkpt><trkpt lat="39.713510400575394" lon="8.48617080845512"><ele>8.0</ele><time>2026-04-06T10:42:51.001Z</time></trkpt><trkpt lat="39.71355560669251" lon="8.486252607376159"><ele>7.0</ele><time>2026-04-06T10:45:19Z</time></trkpt><trkpt lat="39.713627519917274" lon="8.486345867240374"><ele>6.0</ele><time>2026-04-06T10:45:22Z</time></trkpt><trkpt lat="39.71371536493474" lon="8.486448750659886"><ele>5.0</ele><time>2026-04-06T10:45:24Z</time></trkpt><trkpt lat="39.71380053810785" lon="8.48655865135387"><ele>4.0</ele><time>2026-04-06T10:45:26Z</time></trkpt><trkpt lat="39.713879049886856" lon="8.486679041992188"><ele>4.0</ele><time>2026-04-06T10:45:28Z</time></trkpt><trkpt lat="39.71392403857327" lon="8.48674736781009"><ele>4.0</ele><time>2026-04-06T10:45:29Z</time></trkpt><trkpt lat="39.713978991432995" lon="8.486827408517847"><ele>4.0</ele><time>2026-04-06T10:45:30Z</time></trkpt><trkpt lat="39.71404760539676" lon="8.486922062221206"><ele>4.0</ele><time>2026-04-06T10:45:31Z</time></trkpt><trkpt lat="39.71411956762336" lon="8.487025598108007"><ele>4.0</ele><time>2026-04-06T10:45:32Z</time></trkpt><trkpt lat="39.71418881893844" lon="8.487128997003163"><ele>3.25</ele><time>2026-04-06T10:45:33Z</time></trkpt><trkpt lat="39.71426559044382" lon="8.487243143993526"><ele>2.5</ele><time>2026-04-06T10:45:34Z</time></trkpt><trkpt lat="39.71434787757709" lon="8.487363333576225"><ele>1.75</ele><time>2026-04-06T10:45:35Z</time></trkpt><trkpt lat="39.71443362339733" lon="8.487488487548028"><ele>1.0</ele><time>2026-04-06T10:45:36Z</time></trkpt><trkpt lat="39.714516662303645" lon="8.487614307503753"><ele>1.0</ele><time>2026-04-06T10:45:37Z</time></trkpt><trkpt lat="39.71460012959722" lon="8.48774361937431"><ele>1.0</ele><time>2026-04-06T10:45:38Z</time></trkpt><trkpt lat="39.71468624153024" lon="8.487871714151881"><ele>1.0</ele><time>2026-04-06T10:45:39Z</time></trkpt><trkpt lat="39.71477190541174" lon="8.48800405143689"><ele>1.0</ele><time>2026-04-06T10:45:40Z</time></trkpt><trkpt lat="39.71485097432135" lon="8.488136326344721"><ele>1.0</ele><time>2026-04-06T10:45:41Z</time></trkpt><trkpt lat="39.71492368913248" lon="8.488278887865938"><ele>1.0</ele><time>2026-04-06T10:45:42Z</time></trkpt><trkpt lat="39.71499208215728" lon="8.488441358345975"><ele>1.0</ele><time>2026-04-06T10:45:43Z</time></trkpt><trkpt lat="39.715035545626705" lon="8.48860837511857"><ele>1.0</ele><time>2026-04-06T10:45:44Z</time></trkpt><trkpt lat="39.71505926081374" lon="8.488793993178136"><ele>1.6666666666666665</ele><time>2026-04-06T10:45:45Z</time></trkpt><trkpt lat="39.715077305202904" lon="8.488985171871395"><ele>2.3333333333333335</ele><time>2026-04-06T10:45:46Z</time></trkpt><trkpt lat="39.71507247653708" lon="8.489185895404923"><ele>3.0</ele><time>2026-04-06T10:45:47Z</time></trkpt><trkpt lat="39.71504976139757" lon="8.489385300723809"><ele>2.6666666666666665</ele><time>2026-04-06T10:45:48Z</time></trkpt><trkpt lat="39.715013489001656" lon="8.489594871180508"><ele>2.333333333333333</ele><time>2026-04-06T10:45:49Z</time></trkpt><trkpt lat="39.714969759331126" lon="8.489809752352356"><ele>2.0</ele><time>2026-04-06T10:45:50Z</time></trkpt><trkpt lat="39.71492693335358" lon="8.490027845473072"><ele>2.0</ele><time>2026-04-06T10:45:51Z</time></trkpt><trkpt lat="39.71488587060762" lon="8.490249600434634"><ele>2.0</ele><time>2026-04-06T10:45:52Z</time></trkpt><trkpt lat="39.71484465168732" lon="8.490477455309776"><ele>2.0</ele><time>2026-04-06T10:45:53Z</time></trkpt><trkpt lat="39.71480462763445" lon="8.490686543402912"><ele>1.6666666666666665</ele><time>2026-04-06T10:45:54Z</time></trkpt><trkpt lat="39.71476594946746" lon="8.490885087991897"><ele>1.3333333333333333</ele><time>2026-04-06T10:45:55Z</time></trkpt><trkpt lat="39.71472275539806" lon="8.491098541650523"><ele>1.0</ele><time>2026-04-06T10:45:56Z</time></trkpt><trkpt lat="39.71468812358735" lon="8.49129572638642"><ele>0.6666666666666666</ele><time>2026-04-06T10:45:57Z</time></trkpt><trkpt lat="39.71462702207114" lon="8.491496029157004"><ele>0.3333333333333333</ele><time>2026-04-06T10:45:58Z</time></trkpt><trkpt lat="39.71454883389226" lon="8.491689980466438"><ele>0.0</ele><time>2026-04-06T10:45:59Z</time></trkpt><trkpt lat="39.71445571923486" lon="8.491882265065298"><ele>2.3333333333333335</ele><time>2026-04-06T10:46:00Z</time></trkpt><trkpt lat="39.71434857759783" lon="8.492094281482311"><ele>4.666666666666667</ele><time>2026-04-06T10:46:01Z</time></trkpt><trkpt lat="39.71423409194972" lon="8.49231643598154"><ele>7.0</ele><time>2026-04-06T10:46:02Z</time></trkpt><trkpt lat="39.71412428066868" lon="8.492516701496859"><ele>7.0</ele><time>2026-04-06T10:46:03Z</time></trkpt><trkpt lat="39.71401007099265" lon="8.492743738051514"><ele>7.0</ele><time>2026-04-06T10:46:04Z</time></trkpt><trkpt lat="39.713895464892545" lon="8.492984140127465"><ele>7.0</ele><time>2026-04-06T10:46:05Z</time></trkpt><trkpt lat="39.71378481733723" lon="8.493216715908353"><ele>4.5</ele><time>2026-04-06T10:46:06Z</time></trkpt><trkpt lat="39.713681779199185" lon="8.493465364094599"><ele>2.0</ele><time>2026-04-06T10:46:07Z</time></trkpt><trkpt lat="39.71357783887149" lon="8.493739874935944"><ele>3.5</ele><time>2026-04-06T10:46:08Z</time></trkpt><trkpt lat="39.71347923373611" lon="8.494050850968682"><ele>5.0</ele><time>2026-04-06T10:46:09Z</time></trkpt><trkpt lat="39.713343029617505" lon="8.494364080269923"><ele>3.0</ele><time>2026-04-06T10:46:10Z</time></trkpt><trkpt lat="39.71321571361361" lon="8.494694394930299"><ele>1.0</ele><time>2026-04-06T10:46:11Z</time></trkpt><trkpt lat="39.71308370389216" lon="8.495038035291344"><ele>1.0</ele><time>2026-04-06T10:46:12Z</time></trkpt><trkpt lat="39.71297101655861" lon="8.495338447249358"><ele>1.0</ele><time>2026-04-06T10:46:13Z</time></trkpt><trkpt lat="39.71287575051645" lon="8.49557232718099"><ele>1.25</ele><time>2026-04-06T10:46:14Z</time></trkpt><trkpt lat="39.71279573011964" lon="8.495758356046476"><ele>1.5</ele><time>2026-04-06T10:46:15Z</time></trkpt><trkpt lat="39.712728469626605" lon="8.495905650364424"><ele>1.75</ele><time>2026-04-06T10:46:16Z</time></trkpt><trkpt lat="39.7126633746917" lon="8.49600085317407"><ele>2.0</ele><time>2026-04-06T10:46:17Z</time></trkpt><trkpt lat="39.712613650817886" lon="8.496079539253325"><ele>2.0</ele><time>2026-04-06T10:46:19Z</time></trkpt><trkpt lat="39.712751993215164" lon="8.496216635574976"><ele>2.0</ele><time>2026-04-06T10:46:20Z</time></trkpt><trkpt lat="39.71283767156746" lon="8.49626315082059"><ele>2.0</ele><time>2026-04-06T10:46:21Z</time></trkpt><trkpt lat="39.712932107014424" lon="8.496285785704057"><ele>2.0</ele><time>2026-04-06T10:46:22Z</time></trkpt><trkpt lat="39.713033667552814" lon="8.49628012603586"><ele>2.0</ele><time>2026-04-06T10:46:23Z</time></trkpt><trkpt lat="39.7131396658037" lon="8.49625906091324"><ele>2.0</ele><time>2026-04-06T10:46:24Z</time></trkpt><trkpt lat="39.7132552386577" lon="8.496236142023934"><ele>2.0</ele><time>2026-04-06T10:46:25Z</time></trkpt><trkpt lat="39.7133810806386" lon="8.496250524683914"><ele>2.0</ele><time>2026-04-06T10:46:26Z</time></trkpt><trkpt lat="39.713503161952794" lon="8.496310181419823"><ele>1.5</ele><time>2026-04-06T10:46:27Z</time></trkpt><trkpt lat="39.713615306713265" lon="8.496384647462058"><ele>1.0</ele><time>2026-04-06T10:46:28Z</time></trkpt><trkpt lat="39.7137263978604" lon="8.496468007036125"><ele>0.5</ele><time>2026-04-06T10:46:29Z</time></trkpt><trkpt lat="39.71381843342862" lon="8.496568330701063"><ele>0.0</ele><time>2026-04-06T10:46:30Z</time></trkpt><trkpt lat="39.713874223398136" lon="8.496674902795776"><ele>0.0</ele><time>2026-04-06T10:46:31Z</time></trkpt><trkpt lat="39.7138962202363" lon="8.49678437372482"><ele>0.0</ele><time>2026-04-06T10:46:32Z</time></trkpt><trkpt lat="39.71389422976108" lon="8.496901963566625"><ele>0.0</ele><time>2026-04-06T10:46:33Z</time></trkpt><trkpt lat="39.71388807831357" lon="8.49704025793867"><ele>0.0</ele><time>2026-04-06T10:46:34Z</time></trkpt><trkpt lat="39.71387945677618" lon="8.497200177621167"><ele>0.0</ele><time>2026-04-06T10:46:35Z</time></trkpt><trkpt lat="39.713855841551805" lon="8.497375160000976"><ele>0.3333333333333333</ele><time>2026-04-06T10:46:36Z</time></trkpt><trkpt lat="39.71383036317772" lon="8.497579970052088"><ele>0.6666666666666666</ele><time>2026-04-06T10:46:37Z</time></trkpt><trkpt lat="39.71381782610386" lon="8.497792000722898"><ele>1.0</ele><time>2026-04-06T10:46:38Z</time></trkpt><trkpt lat="39.71381679324627" lon="8.497990758507692"><ele>1.0</ele><time>2026-04-06T10:46:39Z</time></trkpt><trkpt lat="39.713826025316905" lon="8.498181740559293"><ele>1.0</ele><time>2026-04-06T10:46:40Z</time></trkpt><trkpt lat="39.71383308883701" lon="8.498356309971879"><ele>1.0</ele><time>2026-04-06T10:46:41Z</time></trkpt><trkpt lat="39.71383298401771" lon="8.498522038632244"><ele>1.0</ele><time>2026-04-06T10:46:42Z</time></trkpt><trkpt lat="39.71379856833576" lon="8.498665821184357"><ele>1.0</ele><time>2026-04-06T10:46:43Z</time></trkpt><trkpt lat="39.71377368787729" lon="8.498802813177688"><ele>1.0</ele><time>2026-04-06T10:46:44Z</time></trkpt><trkpt lat="39.7137231738148" lon="8.49893235096318"><ele>1.0</ele><time>2026-04-06T10:46:45Z</time></trkpt><trkpt lat="39.71366804151367" lon="8.4990666877877"><ele>1.0</ele><time>2026-04-06T10:46:46Z</time></trkpt><trkpt lat="39.71361396343131" lon="8.49919648651433"><ele>1.75</ele><time>2026-04-06T10:46:47Z</time></trkpt><trkpt lat="39.713559272579076" lon="8.499323877936584"><ele>2.5</ele><time>2026-04-06T10:46:48Z</time></trkpt><trkpt lat="39.713494730622315" lon="8.499450797104872"><ele>3.25</ele><time>2026-04-06T10:46:49Z</time></trkpt><trkpt lat="39.71341848417873" lon="8.499593085660063"><ele>4.0</ele><time>2026-04-06T10:46:50Z</time></trkpt><trkpt lat="39.71333892801866" lon="8.49972846624597"><ele>4.0</ele><time>2026-04-06T10:46:51Z</time></trkpt><trkpt lat="39.713249928620016" lon="8.499872004168136"><ele>4.0</ele><time>2026-04-06T10:46:52Z</time></trkpt><trkpt lat="39.71315742527121" lon="8.500017859804917"><ele>4.0</ele><time>2026-04-06T10:46:53Z</time></trkpt><trkpt lat="39.7130599447995" lon="8.500171625722137"><ele>4.0</ele><time>2026-04-06T10:46:54Z</time></trkpt><trkpt lat="39.71296422930288" lon="8.5003264110786"><ele>3.333333333333333</ele><time>2026-04-06T10:46:55Z</time></trkpt><trkpt lat="39.71287096228784" lon="8.500492461028982"><ele>2.6666666666666665</ele><time>2026-04-06T10:46:56Z</time></trkpt><trkpt lat="39.71278164064109" lon="8.50066890734639"><ele>2.0</ele><time>2026-04-06T10:46:57Z</time></trkpt><trkpt lat="39.712697861170874" lon="8.500849125565363"><ele>2.0</ele><time>2026-04-06T10:46:58Z</time></trkpt><trkpt lat="39.71262054042851" lon="8.501018767904903"><ele>2.0</ele><time>2026-04-06T10:46:59Z</time></trkpt><trkpt lat="39.71255080934255" lon="8.501177209924336"><ele>2.0</ele><time>2026-04-06T10:47:00Z</time></trkpt><trkpt lat="39.71250318110311" lon="8.501325145886554"><ele>2.0</ele><time>2026-04-06T10:47:01Z</time></trkpt><trkpt lat="39.71247851648318" lon="8.50147904847411"><ele>2.2</ele><time>2026-04-06T10:47:02Z</time></trkpt><trkpt lat="39.712473572679464" lon="8.501621765770619"><ele>2.4000000000000004</ele><time>2026-04-06T10:47:03Z</time></trkpt><trkpt lat="39.71247211508309" lon="8.501751572349336"><ele>2.5999999999999996</ele><time>2026-04-06T10:47:04Z</time></trkpt><trkpt lat="39.712473799466565" lon="8.501852550163445"><ele>2.8</ele><time>2026-04-06T10:47:05Z</time></trkpt><trkpt lat="39.712511281940714" lon="8.50198549676053"><ele>3.0</ele><time>2026-04-06T10:47:07Z</time></trkpt><trkpt lat="39.71258535738041" lon="8.502054996354921"><ele>2.8333333333333335</ele><time>2026-04-06T10:47:09Z</time></trkpt><trkpt lat="39.71265422856101" lon="8.50209295570301"><ele>2.6666666666666665</ele><time>2026-04-06T10:47:11Z</time></trkpt><trkpt lat="39.712734010934454" lon="8.50214341121104"><ele>2.5</ele><time>2026-04-06T10:52:29.999Z</time></trkpt><trkpt lat="39.7128291131088" lon="8.50218198861046"><ele>2.333333333333333</ele><time>2026-04-06T10:52:31.999Z</time></trkpt><trkpt lat="39.712887368318206" lon="8.502223695904487"><ele>2.1666666666666665</ele><time>2026-04-06T10:52:32.999Z</time></trkpt><trkpt lat="39.71295335312504" lon="8.502259688025763"><ele>2.0</ele><time>2026-04-06T10:52:33.999Z</time></trkpt><trkpt lat="39.7130167437075" lon="8.502297199988082"><ele>1.8</ele><time>2026-04-06T10:52:34.999Z</time></trkpt><trkpt lat="39.71312370962003" lon="8.502371475661972"><ele>1.6</ele><time>2026-04-06T10:52:36.999Z</time></trkpt><trkpt lat="39.71319357680928" lon="8.502413146079446"><ele>1.4000000000000001</ele><time>2026-04-06T10:52:37.999Z</time></trkpt><trkpt lat="39.713275805110435" lon="8.502465646120921"><ele>1.2000000000000002</ele><time>2026-04-06T10:52:38.999Z</time></trkpt><trkpt lat="39.71337149841619" lon="8.50252697534545"><ele>1.0</ele><time>2026-04-06T10:52:39.999Z</time></trkpt><trkpt lat="39.71346124590845" lon="8.502581617339354"><ele>1.0</ele><time>2026-04-06T10:52:40.999Z</time></trkpt><trkpt lat="39.71353286888306" lon="8.502630107853504"><ele>1.0</ele><time>2026-04-06T10:52:41.999Z</time></trkpt><trkpt lat="39.713606269509626" lon="8.502683030745247"><ele>1.0</ele><time>2026-04-06T10:52:42.999Z</time></trkpt><trkpt lat="39.7136863687241" lon="8.502737779019812"><ele>1.0</ele><time>2026-04-06T10:52:43.999Z</time></trkpt><trkpt lat="39.71377190047427" lon="8.502790889752985"><ele>1.0</ele><time>2026-04-06T10:52:44.999Z</time></trkpt><trkpt lat="39.713862683887086" lon="8.502847328353498"><ele>1.0</ele><time>2026-04-06T10:52:45.999Z</time></trkpt><trkpt lat="39.71396867434184" lon="8.502921332061542"><ele>1.0</ele><time>2026-04-06T10:52:46.999Z</time></trkpt><trkpt lat="39.714063580904416" lon="8.502988065663867"><ele>1.0</ele><time>2026-04-06T10:52:47.999Z</time></trkpt><trkpt lat="39.7141525371348" lon="8.503046164308278"><ele>1.0</ele><time>2026-04-06T10:52:48.999Z</time></trkpt><trkpt lat="39.714235617231985" lon="8.503102608789142"><ele>1.0</ele><time>2026-04-06T10:52:49.999Z</time></trkpt><trkpt lat="39.71433578215145" lon="8.503169180140075"><ele>0.75</ele><time>2026-04-06T10:52:50.999Z</time></trkpt><trkpt lat="39.714443931134156" lon="8.503239974124183"><ele>0.5</ele><time>2026-04-06T10:52:51.999Z</time></trkpt><trkpt lat="39.71457112130637" lon="8.50332004288348"><ele>0.25</ele><time>2026-04-06T10:52:52.999Z</time></trkpt><trkpt lat="39.71468036902453" lon="8.503391934180065"><ele>0.0</ele><time>2026-04-06T10:52:53.999Z</time></trkpt><trkpt lat="39.71478466904672" lon="8.503460950051396"><ele>0.0</ele><time>2026-04-06T10:52:54.999Z</time></trkpt><trkpt lat="39.71489997676771" lon="8.50353790699239"><ele>0.0</ele><time>2026-04-06T10:52:55.999Z</time></trkpt><trkpt lat="39.7150243052075" lon="8.503618454551356"><ele>0.0</ele><time>2026-04-06T10:52:56.999Z</time></trkpt><trkpt lat="39.715153507460144" lon="8.503703133379766"><ele>0.0</ele><time>2026-04-06T10:52:57.999Z</time></trkpt><trkpt lat="39.715280118464754" lon="8.503786244381333"><ele>0.0</ele><time>2026-04-06T10:52:58.999Z</time></trkpt><trkpt lat="39.71540066369439" lon="8.503868280573247"><ele>0.0</ele><time>2026-04-06T10:52:59.999Z</time></trkpt><trkpt lat="39.71551761100675" lon="8.503945946881778"><ele>0.0</ele><time>2026-04-06T10:53:00.999Z</time></trkpt><trkpt lat="39.71563099105805" lon="8.504020109125415"><ele>0.0</ele><time>2026-04-06T10:53:01.999Z</time></trkpt><trkpt lat="39.71573978397091" lon="8.504091653801853"><ele>0.0</ele><time>2026-04-06T10:53:02.999Z</time></trkpt><trkpt lat="39.71584245836436" lon="8.504158660739806"><ele>0.0</ele><time>2026-04-06T10:53:03.999Z</time></trkpt><trkpt lat="39.71594464661345" lon="8.504226213668842"><ele>0.0</ele><time>2026-04-06T10:53:04.999Z</time></trkpt><trkpt lat="39.71604799290676" lon="8.504295260034317"><ele>0.0</ele><time>2026-04-06T10:53:05.999Z</time></trkpt><trkpt lat="39.716161695157176" lon="8.504370446033175"><ele>0.0</ele><time>2026-04-06T10:53:06.999Z</time></trkpt><trkpt lat="39.71627781056528" lon="8.504446133500059"><ele>0.0</ele><time>2026-04-06T10:53:07.999Z</time></trkpt><trkpt lat="39.7163806473451" lon="8.504514181170736"><ele>0.0</ele><time>2026-04-06T10:53:08.999Z</time></trkpt><trkpt lat="39.7164820427674" lon="8.5045817903095"><ele>0.0</ele><time>2026-04-06T10:53:09.999Z</time></trkpt><trkpt lat="39.71658627119469" lon="8.504650242539508"><ele>0.0</ele><time>2026-04-06T10:53:10.999Z</time></trkpt><trkpt lat="39.71670123249928" lon="8.504721709453726"><ele>0.0</ele><time>2026-04-06T10:53:11.999Z</time></trkpt><trkpt lat="39.71681878550145" lon="8.504798525013591"><ele>0.0</ele><time>2026-04-06T10:53:12.999Z</time></trkpt><trkpt lat="39.71693623380439" lon="8.504878556441083"><ele>0.0</ele><time>2026-04-06T10:53:13.999Z</time></trkpt><trkpt lat="39.71705451251137" lon="8.50495615627021"><ele>0.0</ele><time>2026-04-06T10:53:14.999Z</time></trkpt><trkpt lat="39.717170314621995" lon="8.505031475271032"><ele>0.0</ele><time>2026-04-06T10:53:15.999Z</time></trkpt><trkpt lat="39.71728068330862" lon="8.505104827027496"><ele>0.0</ele><time>2026-04-06T10:53:16.999Z</time></trkpt><trkpt lat="39.71738595397189" lon="8.505176331162275"><ele>0.0</ele><time>2026-04-06T10:53:17.999Z</time></trkpt><trkpt lat="39.71748864796038" lon="8.505246330536075"><ele>0.0</ele><time>2026-04-06T10:53:18.999Z</time></trkpt><trkpt lat="39.717591851492834" lon="8.505315408380902"><ele>0.0</ele><time>2026-04-06T10:53:19.999Z</time></trkpt><trkpt lat="39.71769496847384" lon="8.505380937697886"><ele>0.0</ele><time>2026-04-06T10:53:20.999Z</time></trkpt><trkpt lat="39.71779497314691" lon="8.505445711658211"><ele>0.0</ele><time>2026-04-06T10:53:21.999Z</time></trkpt><trkpt lat="39.71789070862158" lon="8.505507451067494"><ele>0.0</ele><time>2026-04-06T10:53:22.999Z</time></trkpt><trkpt lat="39.717986040603705" lon="8.505569922157973"><ele>0.0</ele><time>2026-04-06T10:53:23.999Z</time></trkpt><trkpt lat="39.71808479128721" lon="8.505634505513688"><ele>0.0</ele><time>2026-04-06T10:53:24.999Z</time></trkpt><trkpt lat="39.71818602232065" lon="8.505695965006321"><ele>0.0</ele><time>2026-04-06T10:53:25.999Z</time></trkpt><trkpt lat="39.71829685135681" lon="8.505768132222872"><ele>0.0</ele><time>2026-04-06T10:53:26.999Z</time></trkpt><trkpt lat="39.71841252477223" lon="8.50584941869116"><ele>0.0</ele><time>2026-04-06T10:53:27.999Z</time></trkpt><trkpt lat="39.718538545329274" lon="8.50593139802062"><ele>0.0</ele><time>2026-04-06T10:53:28.999Z</time></trkpt><trkpt lat="39.71866834005723" lon="8.506015730012013"><ele>0.0</ele><time>2026-04-06T10:53:29.999Z</time></trkpt><trkpt lat="39.71878036745672" lon="8.506095835625182"><ele>0.0</ele><time>2026-04-06T10:53:30.999Z</time></trkpt><trkpt lat="39.71888011474194" lon="8.506162759837506"><ele>0.0</ele><time>2026-04-06T10:53:31.999Z</time></trkpt><trkpt lat="39.71897070564482" lon="8.506219096478052"><ele>0.0</ele><time>2026-04-06T10:53:32.999Z</time></trkpt><trkpt lat="39.719060491524395" lon="8.506277856967287"><ele>0.0</ele><time>2026-04-06T10:53:33.999Z</time></trkpt><trkpt lat="39.71915682843741" lon="8.506342490348024"><ele>0.0</ele><time>2026-04-06T10:53:34.999Z</time></trkpt><trkpt lat="39.7192563499096" lon="8.506409083654415"><ele>0.0</ele><time>2026-04-06T10:53:35.999Z</time></trkpt><trkpt lat="39.71935403564202" lon="8.506472607163822"><ele>0.16666666666666666</ele><time>2026-04-06T10:53:36.999Z</time></trkpt><trkpt lat="39.71944662796337" lon="8.50652994721517"><ele>0.3333333333333333</ele><time>2026-04-06T10:53:37.999Z</time></trkpt><trkpt lat="39.71952116799871" lon="8.506582093610211"><ele>0.5</ele><time>2026-04-06T10:53:38.999Z</time></trkpt><trkpt lat="39.7195905684233" lon="8.506629327296219"><ele>0.6666666666666666</ele><time>2026-04-06T10:53:39.999Z</time></trkpt><trkpt lat="39.719655272858795" lon="8.506670820734161"><ele>0.8333333333333333</ele><time>2026-04-06T10:53:40.999Z</time></trkpt><trkpt lat="39.719712830712545" lon="8.506708719912327"><ele>1.0</ele><time>2026-04-06T10:53:41.999Z</time></trkpt><trkpt lat="39.71981510916404" lon="8.506776571934248"><ele>1.0</ele><time>2026-04-06T10:53:43.999Z</time></trkpt><trkpt lat="39.7198889247737" lon="8.50687827859631"><ele>1.0</ele><time>2026-04-06T10:53:45.999Z</time></trkpt><trkpt lat="39.719881479455154" lon="8.506993158743475"><ele>1.0</ele><time>2026-04-06T10:53:46.999Z</time></trkpt><trkpt lat="39.71992149186942" lon="8.507074745280685"><ele>1.0</ele><time>2026-04-06T10:53:47.999Z</time></trkpt><trkpt lat="39.72000700238062" lon="8.507191718107494"><ele>1.0</ele><time>2026-04-06T10:53:49.999Z</time></trkpt><trkpt lat="39.72008879400747" lon="8.507292352344797"><ele>1.4</ele><time>2026-04-06T10:53:51.999Z</time></trkpt><trkpt lat="39.72019013268114" lon="8.507424863592123"><ele>1.8</ele><time>2026-04-06T10:53:53.999Z</time></trkpt><trkpt lat="39.72024539342556" lon="8.507514860779422"><ele>2.1999999999999997</ele><time>2026-04-06T10:53:54.999Z</time></trkpt><trkpt lat="39.72028537424173" lon="8.507597081191893"><ele>2.6</ele><time>2026-04-06T10:53:55.999Z</time></trkpt><trkpt lat="39.720353730497656" lon="8.507728278901627"><ele>3.0</ele><time>2026-04-06T10:53:57.999Z</time></trkpt><trkpt lat="39.72039671418984" lon="8.507802569636443"><ele>3.0</ele><time>2026-04-06T10:53:58.999Z</time></trkpt><trkpt lat="39.72043329330035" lon="8.507872837075674"><ele>3.0</ele><time>2026-04-06T10:53:59.999Z</time></trkpt><trkpt lat="39.72046960785992" lon="8.507946940846388"><ele>3.0</ele><time>2026-04-06T10:54:00.999Z</time></trkpt><trkpt lat="39.72052422141021" lon="8.508060148335028"><ele>3.0</ele><time>2026-04-06T10:54:02.999Z</time></trkpt><trkpt lat="39.72056752709706" lon="8.508162719490144"><ele>3.0</ele><time>2026-04-06T10:54:04.999Z</time></trkpt><trkpt lat="39.72071888273115" lon="8.508162113850583"><ele>3.0</ele><time>2026-04-06T10:54:07.999Z</time></trkpt><trkpt lat="39.720800123227036" lon="8.508165860378245"><ele>3.0</ele><time>2026-04-06T10:54:09.999Z</time></trkpt><trkpt lat="39.72087699020855" lon="8.508176020679977"><ele>3.0</ele><time>2026-04-06T10:54:11.999Z</time></trkpt><trkpt lat="39.72097618999503" lon="8.508183486006006"><ele>3.0</ele><time>2026-04-06T10:54:13.999Z</time></trkpt><trkpt lat="39.72106934839604" lon="8.508195341079533"><ele>3.0</ele><time>2026-04-06T10:54:15.999Z</time></trkpt><trkpt lat="39.72115245515286" lon="8.508207609902424"><ele>3.0</ele><time>2026-04-06T10:54:17.999Z</time></trkpt><trkpt lat="39.72125548003658" lon="8.508219181405869"><ele>3.0</ele><time>2026-04-06T10:54:19.999Z</time></trkpt><trkpt lat="39.7213424004359" lon="8.508241573932303"><ele>3.0</ele><time>2026-04-06T10:54:21.999Z</time></trkpt><trkpt lat="39.72141398523241" lon="8.508250589302484"><ele>3.0</ele><time>2026-04-06T10:54:23.999Z</time></trkpt><trkpt lat="39.72148121035383" lon="8.508249900967298"><ele>3.0</ele><time>2026-04-06T10:54:25.999Z</time></trkpt><trkpt lat="39.72155296145067" lon="8.508263154424911"><ele>3.0</ele><time>2026-04-06T10:54:27.999Z</time></trkpt><trkpt lat="39.721635347527304" lon="8.508282741840004"><ele>3.0</ele><time>2026-04-06T10:54:29.999Z</time></trkpt><trkpt lat="39.72170720825448" lon="8.508293801163573"><ele>3.0</ele><time>2026-04-06T10:54:31.999Z</time></trkpt><trkpt lat="39.72180904866039" lon="8.50829995816101"><ele>3.0</ele><time>2026-04-06T10:54:33.999Z</time></trkpt><trkpt lat="39.72190221108884" lon="8.508310875736493"><ele>3.0</ele><time>2026-04-06T10:54:35.999Z</time></trkpt><trkpt lat="39.72198225555574" lon="8.50833011029555"><ele>3.0</ele><time>2026-04-06T10:54:37.999Z</time></trkpt><trkpt lat="39.72207271866604" lon="8.508356038827458"><ele>3.0</ele><time>2026-04-06T10:54:39.999Z</time></trkpt><trkpt lat="39.722153342489875" lon="8.508353385101904"><ele>2.8333333333333335</ele><time>2026-04-06T10:54:41.999Z</time></trkpt><trkpt lat="39.72223268486256" lon="8.508198506851238"><ele>2.6666666666666665</ele><time>2026-04-06T10:54:45.999Z</time></trkpt><trkpt lat="39.72223968175626" lon="8.508107253705207"><ele>2.5</ele><time>2026-04-06T10:54:47.999Z</time></trkpt><trkpt lat="39.72223045122554" lon="8.508019516881529"><ele>2.333333333333333</ele><time>2026-04-06T10:54:49.999Z</time></trkpt><trkpt lat="39.72224199435626" lon="8.507922966795517"><ele>2.1666666666666665</ele><time>2026-04-06T10:54:53.999Z</time></trkpt><trkpt lat="39.72225093129461" lon="8.507820864396272"><ele>2.0</ele><time>2026-04-06T10:54:59.999Z</time></trkpt><trkpt lat="39.72216458903003" lon="8.507763234800782"><ele>1.0</ele><time>2026-04-06T10:55:02.999Z</time></trkpt><trkpt lat="39.722090710103686" lon="8.507756762198012"><ele>1.0</ele><time>2026-04-06T10:55:04.999Z</time></trkpt><trkpt lat="39.72200860542097" lon="8.507746685728783"><ele>1.0</ele><time>2026-04-06T10:55:06.999Z</time></trkpt><trkpt lat="39.721917168604605" lon="8.507725618329813"><ele>1.0</ele><time>2026-04-06T10:55:08.998Z</time></trkpt><trkpt lat="39.721853342653915" lon="8.50770745142105"><ele>1.0</ele><time>2026-04-06T10:55:10.998Z</time></trkpt></trkseg><trkseg><trkpt lat="39.721834550816226" lon="8.507789407357516"><ele>0.9999999999999999</ele><time>2026-04-06T11:08:15Z</time></trkpt><trkpt lat="39.721760466334366" lon="8.507738594765712"><ele>1.0</ele><time>2026-04-06T11:08:22Z</time></trkpt><trkpt lat="39.7216861936347" lon="8.507684313455304"><ele>1.0</ele><time>2026-04-06T11:08:24Z</time></trkpt><trkpt lat="39.7216218600917" lon="8.507671922115795"><ele>1.0</ele><time>2026-04-06T11:08:25Z</time></trkpt><trkpt lat="39.721532730864425" lon="8.507704095792725"><ele>0.9999999999999999</ele><time>2026-04-06T11:08:27Z</time></trkpt><trkpt lat="39.7215253424771" lon="8.507812396860972"><ele>1.0</ele><time>2026-04-06T11:08:29Z</time></trkpt><trkpt lat="39.72148673822476" lon="8.507895241655719"><ele>1.4</ele><time>2026-04-06T11:08:30Z</time></trkpt><trkpt lat="39.72147841570604" lon="8.50800234181708"><ele>1.8</ele><time>2026-04-06T11:08:31Z</time></trkpt><trkpt lat="39.72146983347888" lon="8.508112784460378"><ele>2.1999999999999997</ele><time>2026-04-06T11:08:33Z</time></trkpt><trkpt lat="39.7214609324994" lon="8.508227328830754"><ele>2.6</ele><time>2026-04-06T11:08:36Z</time></trkpt><trkpt lat="39.7213399627663" lon="8.508201758285313"><ele>3.0</ele><time>2026-04-06T11:08:41Z</time></trkpt><trkpt lat="39.721245869467516" lon="8.508188637334504"><ele>3.0</ele><time>2026-04-06T11:08:43Z</time></trkpt><trkpt lat="39.7211430260526" lon="8.508174205507483"><ele>3.0</ele><time>2026-04-06T11:08:45Z</time></trkpt><trkpt lat="39.72102553246638" lon="8.508156546047168"><ele>3.0</ele><time>2026-04-06T11:08:47Z</time></trkpt><trkpt lat="39.720917398427744" lon="8.508140346987771"><ele>3.0</ele><time>2026-04-06T11:08:49Z</time></trkpt><trkpt lat="39.720849305394744" lon="8.508132378016787"><ele>3.0</ele><time>2026-04-06T11:08:51Z</time></trkpt><trkpt lat="39.72076274467872" lon="8.508145625676715"><ele>3.0</ele><time>2026-04-06T11:08:53Z</time></trkpt><trkpt lat="39.72068357615496" lon="8.508144060440394"><ele>3.0</ele><time>2026-04-06T11:08:55Z</time></trkpt><trkpt lat="39.72060544102288" lon="8.508133916335892"><ele>3.0</ele><time>2026-04-06T11:08:58Z</time></trkpt><trkpt lat="39.72062859480319" lon="8.508333564862184"><ele>3.0</ele><time>2026-04-06T11:09:05Z</time></trkpt><trkpt lat="39.72068876274968" lon="8.508468033621606"><ele>3.0</ele><time>2026-04-06T11:09:07Z</time></trkpt><trkpt lat="39.720720827849156" lon="8.508550904101623"><ele>3.0</ele><time>2026-04-06T11:09:08Z</time></trkpt><trkpt lat="39.72076538042135" lon="8.50868230299192"><ele>3.0</ele><time>2026-04-06T11:09:10Z</time></trkpt><trkpt lat="39.72080753537162" lon="8.508812590431843"><ele>3.0</ele><time>2026-04-06T11:09:12Z</time></trkpt><trkpt lat="39.720851187006375" lon="8.508963561185933"><ele>3.0</ele><time>2026-04-06T11:09:14Z</time></trkpt><trkpt lat="39.72087504691314" lon="8.509041759637649"><ele>3.0</ele><time>2026-04-06T11:09:15Z</time></trkpt><trkpt lat="39.72091075119055" lon="8.509217249969334"><ele>3.0</ele><time>2026-04-06T11:09:17.001Z</time></trkpt><trkpt lat="39.72092964629672" lon="8.509317184386832"><ele>3.0</ele><time>2026-04-06T11:09:18.001Z</time></trkpt><trkpt lat="39.72094863121489" lon="8.509409488039646"><ele>3.0</ele><time>2026-04-06T11:09:19.001Z</time></trkpt><trkpt lat="39.72096671152197" lon="8.509504970687574"><ele>3.0</ele><time>2026-04-06T11:09:20.001Z</time></trkpt><trkpt lat="39.720980112987775" lon="8.509593597539899"><ele>3.0</ele><time>2026-04-06T11:09:21Z</time></trkpt><trkpt lat="39.720995679634434" lon="8.509692232438058"><ele>3.0</ele><time>2026-04-06T11:09:22Z</time></trkpt><trkpt lat="39.72101338558483" lon="8.50980685183958"><ele>3.2</ele><time>2026-04-06T11:09:23Z</time></trkpt><trkpt lat="39.721033991446795" lon="8.509925794434194"><ele>3.4</ele><time>2026-04-06T11:09:24Z</time></trkpt><trkpt lat="39.721054573468834" lon="8.510054507897074"><ele>3.6000000000000005</ele><time>2026-04-06T11:09:25Z</time></trkpt><trkpt lat="39.72108135615262" lon="8.510204357319356"><ele>3.8000000000000003</ele><time>2026-04-06T11:09:26Z</time></trkpt><trkpt lat="39.72110324151643" lon="8.510342571933322"><ele>4.0</ele><time>2026-04-06T11:09:27Z</time></trkpt><trkpt lat="39.72112409786941" lon="8.510485411807986"><ele>4.2</ele><time>2026-04-06T11:09:28Z</time></trkpt><trkpt lat="39.7211489364955" lon="8.510638545888986"><ele>4.4</ele><time>2026-04-06T11:09:29Z</time></trkpt><trkpt lat="39.721172498869045" lon="8.510794383907866"><ele>4.6</ele><time>2026-04-06T11:09:30Z</time></trkpt><trkpt lat="39.72119740642255" lon="8.5109383218956"><ele>4.8</ele><time>2026-04-06T11:09:31Z</time></trkpt><trkpt lat="39.721213276389356" lon="8.511051995429384"><ele>5.0</ele><time>2026-04-06T11:09:32Z</time></trkpt><trkpt lat="39.721233799894364" lon="8.511193935243442"><ele>4.75</ele><time>2026-04-06T11:09:33Z</time></trkpt><trkpt lat="39.721259044897955" lon="8.511346096102535"><ele>4.5</ele><time>2026-04-06T11:09:34Z</time></trkpt><trkpt lat="39.721291422036565" lon="8.511497199316826"><ele>4.25</ele><time>2026-04-06T11:09:35Z</time></trkpt><trkpt lat="39.7213213404279" lon="8.511657490589814"><ele>4.0</ele><time>2026-04-06T11:09:36Z</time></trkpt><trkpt lat="39.721347253335914" lon="8.511818852670865"><ele>4.0</ele><time>2026-04-06T11:09:37Z</time></trkpt><trkpt lat="39.72137266860696" lon="8.511980272318734"><ele>4.0</ele><time>2026-04-06T11:09:38Z</time></trkpt><trkpt lat="39.7213939235197" lon="8.512135103799896"><ele>4.0</ele><time>2026-04-06T11:09:39Z</time></trkpt><trkpt lat="39.72141982428844" lon="8.512286846048314"><ele>4.0</ele><time>2026-04-06T11:09:40Z</time></trkpt><trkpt lat="39.72144525922341" lon="8.512445624938199"><ele>4.25</ele><time>2026-04-06T11:09:41Z</time></trkpt><trkpt lat="39.72146986923704" lon="8.512605540214992"><ele>4.5</ele><time>2026-04-06T11:09:42Z</time></trkpt><trkpt lat="39.72149390673462" lon="8.512764922966564"><ele>4.75</ele><time>2026-04-06T11:09:43Z</time></trkpt><trkpt lat="39.72151605523372" lon="8.512907362873648"><ele>5.0</ele><time>2026-04-06T11:09:44Z</time></trkpt><trkpt lat="39.72153471600226" lon="8.513033237688724"><ele>5.8</ele><time>2026-04-06T11:09:45Z</time></trkpt><trkpt lat="39.72155239673328" lon="8.513155482238588"><ele>6.6</ele><time>2026-04-06T11:09:46Z</time></trkpt><trkpt lat="39.72157387012541" lon="8.513285351957691"><ele>7.4</ele><time>2026-04-06T11:09:47Z</time></trkpt><trkpt lat="39.72159673422678" lon="8.513422757583546"><ele>8.2</ele><time>2026-04-06T11:09:48Z</time></trkpt><trkpt lat="39.72160946672254" lon="8.51356377623722"><ele>9.0</ele><time>2026-04-06T11:09:49Z</time></trkpt><trkpt lat="39.72161837355974" lon="8.513719851657486"><ele>9.0</ele><time>2026-04-06T11:09:50Z</time></trkpt><trkpt lat="39.72162430201613" lon="8.513885545784992"><ele>9.0</ele><time>2026-04-06T11:09:51Z</time></trkpt><trkpt lat="39.72162499784113" lon="8.514066293855748"><ele>9.0</ele><time>2026-04-06T11:09:52Z</time></trkpt><trkpt lat="39.721624137048494" lon="8.514253138454887"><ele>9.0</ele><time>2026-04-06T11:09:53Z</time></trkpt><trkpt lat="39.721621938866676" lon="8.514456911183311"><ele>8.0</ele><time>2026-04-06T11:09:54Z</time></trkpt><trkpt lat="39.72162302463121" lon="8.514680987236554"><ele>7.0</ele><time>2026-04-06T11:09:55Z</time></trkpt><trkpt lat="39.721623913768404" lon="8.514876006527077"><ele>6.0</ele><time>2026-04-06T11:09:56Z</time></trkpt><trkpt lat="39.721624480738136" lon="8.515079032213835"><ele>6.0</ele><time>2026-04-06T11:09:57Z</time></trkpt><trkpt lat="39.72162337887742" lon="8.515299719873525"><ele>6.0</ele><time>2026-04-06T11:09:58Z</time></trkpt><trkpt lat="39.721622509917886" lon="8.515544452336043"><ele>6.0</ele><time>2026-04-06T11:09:59Z</time></trkpt><trkpt lat="39.72162417991776" lon="8.515804338608923"><ele>5.0</ele><time>2026-04-06T11:10:00Z</time></trkpt><trkpt lat="39.72162603187854" lon="8.516083999229807"><ele>4.0</ele><time>2026-04-06T11:10:01Z</time></trkpt><trkpt lat="39.721627912978796" lon="8.516365074335923"><ele>3.0</ele><time>2026-04-06T11:10:02Z</time></trkpt><trkpt lat="39.72163141381874" lon="8.51661579866286"><ele>2.6666666666666665</ele><time>2026-04-06T11:10:03Z</time></trkpt><trkpt lat="39.72163413569962" lon="8.516870853731914"><ele>2.333333333333333</ele><time>2026-04-06T11:10:04Z</time></trkpt><trkpt lat="39.72163684824623" lon="8.517135758490808"><ele>2.0</ele><time>2026-04-06T11:10:05Z</time></trkpt><trkpt lat="39.72163737704575" lon="8.517403767889181"><ele>2.0</ele><time>2026-04-06T11:10:06Z</time></trkpt><trkpt lat="39.721636564775096" lon="8.517680677379975"><ele>2.0</ele><time>2026-04-06T11:10:07Z</time></trkpt><trkpt lat="39.72163548861202" lon="8.51795643095584"><ele>2.0</ele><time>2026-04-06T11:10:08Z</time></trkpt><trkpt lat="39.72163675659393" lon="8.51823682105557"><ele>2.0</ele><time>2026-04-06T11:10:09Z</time></trkpt><trkpt lat="39.72163970828641" lon="8.518512730541286"><ele>2.0</ele><time>2026-04-06T11:10:10Z</time></trkpt><trkpt lat="39.72164133148806" lon="8.51877231663685"><ele>2.0</ele><time>2026-04-06T11:10:11Z</time></trkpt><trkpt lat="39.72164198721089" lon="8.519014233838023"><ele>2.0</ele><time>2026-04-06T11:10:12Z</time></trkpt><trkpt lat="39.721642155860984" lon="8.519254607048866"><ele>2.0</ele><time>2026-04-06T11:10:13Z</time></trkpt><trkpt lat="39.72164415407499" lon="8.519513589895354"><ele>2.0</ele><time>2026-04-06T11:10:14Z</time></trkpt><trkpt lat="39.72164535134853" lon="8.519751761443763"><ele>2.333333333333333</ele><time>2026-04-06T11:10:15Z</time></trkpt><trkpt lat="39.721645847628054" lon="8.519982622894101"><ele>2.6666666666666665</ele><time>2026-04-06T11:10:16Z</time></trkpt><trkpt lat="39.721646184591016" lon="8.520212607615381"><ele>3.0</ele><time>2026-04-06T11:10:17Z</time></trkpt><trkpt lat="39.72164661584599" lon="8.520443792373563"><ele>3.0</ele><time>2026-04-06T11:10:18Z</time></trkpt><trkpt lat="39.72164763733325" lon="8.520671867471565"><ele>3.0</ele><time>2026-04-06T11:10:19Z</time></trkpt><trkpt lat="39.7216491523587" lon="8.520880485030737"><ele>3.0</ele><time>2026-04-06T11:10:20Z</time></trkpt><trkpt lat="39.721649142219064" lon="8.5210852102646"><ele>3.0</ele><time>2026-04-06T11:10:21Z</time></trkpt><trkpt lat="39.721649124652465" lon="8.521299326223442"><ele>3.0</ele><time>2026-04-06T11:10:22Z</time></trkpt><trkpt lat="39.72165039196247" lon="8.521527049307474"><ele>3.0</ele><time>2026-04-06T11:10:23Z</time></trkpt><trkpt lat="39.72165181144631" lon="8.521757083172705"><ele>3.0</ele><time>2026-04-06T11:10:24Z</time></trkpt><trkpt lat="39.72165204144033" lon="8.521993719394292"><ele>3.0</ele><time>2026-04-06T11:10:25Z</time></trkpt><trkpt lat="39.7216523140074" lon="8.522235550291436"><ele>3.0</ele><time>2026-04-06T11:10:26Z</time></trkpt><trkpt lat="39.72165387566462" lon="8.522481342497088"><ele>3.0</ele><time>2026-04-06T11:10:27Z</time></trkpt><trkpt lat="39.72165231270302" lon="8.522721352897559"><ele>3.0</ele><time>2026-04-06T11:10:28Z</time></trkpt><trkpt lat="39.721652238444015" lon="8.522976015424177"><ele>3.0</ele><time>2026-04-06T11:10:29Z</time></trkpt><trkpt lat="39.72165235164117" lon="8.523221160789381"><ele>3.0</ele><time>2026-04-06T11:10:30Z</time></trkpt><trkpt lat="39.72165271803465" lon="8.523457715239802"><ele>3.0</ele><time>2026-04-06T11:10:31Z</time></trkpt><trkpt lat="39.72165406172762" lon="8.523674169689254"><ele>3.0</ele><time>2026-04-06T11:10:32Z</time></trkpt><trkpt lat="39.7216570601517" lon="8.523883462383536"><ele>3.0</ele><time>2026-04-06T11:10:33Z</time></trkpt><trkpt lat="39.72165969548347" lon="8.524094577849878"><ele>3.0</ele><time>2026-04-06T11:10:34Z</time></trkpt><trkpt lat="39.72166090854676" lon="8.524312928892268"><ele>3.0</ele><time>2026-04-06T11:10:35Z</time></trkpt><trkpt lat="39.72166100173271" lon="8.524537536209833"><ele>2.6666666666666665</ele><time>2026-04-06T11:10:36Z</time></trkpt><trkpt lat="39.72166337140327" lon="8.524765440114516"><ele>2.333333333333333</ele><time>2026-04-06T11:10:37Z</time></trkpt><trkpt lat="39.721665432838215" lon="8.525002249414017"><ele>2.0</ele><time>2026-04-06T11:10:38Z</time></trkpt><trkpt lat="39.721670814012775" lon="8.525239913707557"><ele>2.333333333333333</ele><time>2026-04-06T11:10:39Z</time></trkpt><trkpt lat="39.721677771001445" lon="8.52548681294317"><ele>2.6666666666666665</ele><time>2026-04-06T11:10:40Z</time></trkpt><trkpt lat="39.72167832598139" lon="8.52574348665639"><ele>3.0</ele><time>2026-04-06T11:10:41Z</time></trkpt><trkpt lat="39.72167720712153" lon="8.526017799183418"><ele>3.0</ele><time>2026-04-06T11:10:42Z</time></trkpt><trkpt lat="39.721677631571524" lon="8.526283384718653"><ele>3.0</ele><time>2026-04-06T11:10:43Z</time></trkpt><trkpt lat="39.72168192784346" lon="8.526540007849967"><ele>3.0</ele><time>2026-04-06T11:10:44Z</time></trkpt><trkpt lat="39.72168365248081" lon="8.526808406037267"><ele>3.0</ele><time>2026-04-06T11:10:45Z</time></trkpt><trkpt lat="39.72168390505845" lon="8.527089405318064"><ele>3.0</ele><time>2026-04-06T11:10:46Z</time></trkpt><trkpt lat="39.721683391912826" lon="8.527379396005971"><ele>3.0</ele><time>2026-04-06T11:10:47Z</time></trkpt><trkpt lat="39.721685115995065" lon="8.527676695099997"><ele>3.333333333333333</ele><time>2026-04-06T11:10:48Z</time></trkpt><trkpt lat="39.72168615812526" lon="8.527971540289915"><ele>3.6666666666666665</ele><time>2026-04-06T11:10:49Z</time></trkpt><trkpt lat="39.721686917494075" lon="8.528247634256228"><ele>4.0</ele><time>2026-04-06T11:10:50Z</time></trkpt><trkpt lat="39.72168638457828" lon="8.528492003346477"><ele>4.666666666666666</ele><time>2026-04-06T11:10:51.001Z</time></trkpt><trkpt lat="39.72168793788369" lon="8.528745199578019"><ele>5.333333333333333</ele><time>2026-04-06T11:10:52.001Z</time></trkpt><trkpt lat="39.72168807667219" lon="8.528997771343002"><ele>6.0</ele><time>2026-04-06T11:10:53.001Z</time></trkpt><trkpt lat="39.72168770919334" lon="8.529253432929346"><ele>6.0</ele><time>2026-04-06T11:10:54.001Z</time></trkpt><trkpt lat="39.72168813412433" lon="8.529512571432916"><ele>6.0</ele><time>2026-04-06T11:10:55.001Z</time></trkpt><trkpt lat="39.721689925499774" lon="8.5300506331982"><ele>6.0</ele><time>2026-04-06T11:10:57.001Z</time></trkpt><trkpt lat="39.72169091028159" lon="8.530325434446056"><ele>6.0</ele><time>2026-04-06T11:10:58.001Z</time></trkpt><trkpt lat="39.72169136996099" lon="8.530608274654528"><ele>6.0</ele><time>2026-04-06T11:10:59.001Z</time></trkpt><trkpt lat="39.721692594482995" lon="8.530888111877456"><ele>6.0</ele><time>2026-04-06T11:11:00.001Z</time></trkpt><trkpt lat="39.72169446592196" lon="8.531170897876887"><ele>6.0</ele><time>2026-04-06T11:11:01.001Z</time></trkpt><trkpt lat="39.72169493685162" lon="8.531450061448002"><ele>6.0</ele><time>2026-04-06T11:11:02.001Z</time></trkpt><trkpt lat="39.72169588923038" lon="8.531712369476795"><ele>6.0</ele><time>2026-04-06T11:11:03.001Z</time></trkpt><trkpt lat="39.721699079947115" lon="8.531951951509102"><ele>6.0</ele><time>2026-04-06T11:11:04.001Z</time></trkpt><trkpt lat="39.721699634705" lon="8.532175871843759"><ele>6.0</ele><time>2026-04-06T11:11:05.001Z</time></trkpt><trkpt lat="39.72170072942435" lon="8.532373592546636"><ele>6.0</ele><time>2026-04-06T11:11:06.001Z</time></trkpt><trkpt lat="39.721699427349144" lon="8.53255380282841"><ele>6.0</ele><time>2026-04-06T11:11:07.001Z</time></trkpt><trkpt lat="39.72169821708359" lon="8.532715112696074"><ele>6.0</ele><time>2026-04-06T11:11:08.001Z</time></trkpt><trkpt lat="39.72169530756792" lon="8.532864634410814"><ele>6.0</ele><time>2026-04-06T11:11:09.001Z</time></trkpt><trkpt lat="39.721691524904074" lon="8.533003753698383"><ele>5.75</ele><time>2026-04-06T11:11:10.001Z</time></trkpt><trkpt lat="39.72169241378375" lon="8.533123828681557"><ele>5.5</ele><time>2026-04-06T11:11:11.001Z</time></trkpt><trkpt lat="39.72170203409154" lon="8.533222763406124"><ele>5.25</ele><time>2026-04-06T11:11:12.001Z</time></trkpt><trkpt lat="39.72168705208876" lon="8.533303835868011"><ele>5.0</ele><time>2026-04-06T11:11:13.001Z</time></trkpt><trkpt lat="39.72191764418022" lon="8.533360691694487"><ele>4.75</ele><time>2026-04-06T11:11:16.001Z</time></trkpt><trkpt lat="39.7220063066163" lon="8.53333858397589"><ele>4.5</ele><time>2026-04-06T11:11:17.001Z</time></trkpt><trkpt lat="39.722120437497985" lon="8.533325401967849"><ele>4.25</ele><time>2026-04-06T11:11:18.001Z</time></trkpt><trkpt lat="39.72226363547728" lon="8.533321398459693"><ele>4.0</ele><time>2026-04-06T11:11:19.001Z</time></trkpt><trkpt lat="39.72242743673021" lon="8.533315260871547"><ele>4.0</ele><time>2026-04-06T11:11:20.001Z</time></trkpt><trkpt lat="39.72257601101538" lon="8.533308220597656"><ele>4.0</ele><time>2026-04-06T11:11:21.001Z</time></trkpt><trkpt lat="39.722738671284354" lon="8.533307203244135"><ele>4.0</ele><time>2026-04-06T11:11:22.001Z</time></trkpt><trkpt lat="39.7229188067673" lon="8.533305337621837"><ele>4.333333333333333</ele><time>2026-04-06T11:11:23.001Z</time></trkpt><trkpt lat="39.723124359670194" lon="8.533302510441667"><ele>4.666666666666667</ele><time>2026-04-06T11:11:24.001Z</time></trkpt><trkpt lat="39.723336575725895" lon="8.53329756585779"><ele>5.0</ele><time>2026-04-06T11:11:25.001Z</time></trkpt><trkpt lat="39.72353890253889" lon="8.533295206899268"><ele>5.5</ele><time>2026-04-06T11:11:26.001Z</time></trkpt><trkpt lat="39.72375512578014" lon="8.533297617954457"><ele>6.0</ele><time>2026-04-06T11:11:27Z</time></trkpt><trkpt lat="39.72398968399659" lon="8.533293555048568"><ele>6.0</ele><time>2026-04-06T11:11:28Z</time></trkpt><trkpt lat="39.724240342927104" lon="8.53329056171088"><ele>6.0</ele><time>2026-04-06T11:11:29Z</time></trkpt><trkpt lat="39.72448778953414" lon="8.533287028468152"><ele>6.0</ele><time>2026-04-06T11:11:30Z</time></trkpt><trkpt lat="39.724722921763984" lon="8.533287471194292"><ele>6.0</ele><time>2026-04-06T11:11:31Z</time></trkpt><trkpt lat="39.724970979285445" lon="8.533285079665681"><ele>6.0</ele><time>2026-04-06T11:11:32Z</time></trkpt><trkpt lat="39.725223089783526" lon="8.53328225569886"><ele>6.0</ele><time>2026-04-06T11:11:33Z</time></trkpt><trkpt lat="39.72548430289671" lon="8.533281667455281"><ele>6.5</ele><time>2026-04-06T11:11:34Z</time></trkpt><trkpt lat="39.72574650862473" lon="8.533280806781917"><ele>7.0</ele><time>2026-04-06T11:11:35Z</time></trkpt><trkpt lat="39.72601413105607" lon="8.533279098627641"><ele>6.0</ele><time>2026-04-06T11:11:36Z</time></trkpt><trkpt lat="39.72627811286325" lon="8.533279644827775"><ele>5.0</ele><time>2026-04-06T11:11:37Z</time></trkpt><trkpt lat="39.72652845228158" lon="8.533278203862974"><ele>5.0</ele><time>2026-04-06T11:11:38Z</time></trkpt><trkpt lat="39.72675609567924" lon="8.533277055249572"><ele>5.0</ele><time>2026-04-06T11:11:39Z</time></trkpt><trkpt lat="39.72698109994584" lon="8.533275651544786"><ele>4.5</ele><time>2026-04-06T11:11:40Z</time></trkpt><trkpt lat="39.72720980480403" lon="8.53327415826169"><ele>4.0</ele><time>2026-04-06T11:11:41Z</time></trkpt><trkpt lat="39.72743515561934" lon="8.533273775704968"><ele>4.0</ele><time>2026-04-06T11:11:42Z</time></trkpt><trkpt lat="39.72766243629367" lon="8.533270874006844"><ele>4.0</ele><time>2026-04-06T11:11:43Z</time></trkpt><trkpt lat="39.72787310992837" lon="8.53326693266365"><ele>4.0</ele><time>2026-04-06T11:11:44Z</time></trkpt><trkpt lat="39.72807072830434" lon="8.533264494368469"><ele>5.0</ele><time>2026-04-06T11:11:45Z</time></trkpt><trkpt lat="39.72824255629852" lon="8.533263347253602"><ele>6.0</ele><time>2026-04-06T11:11:46Z</time></trkpt><trkpt lat="39.72838854229547" lon="8.533264111986915"><ele>7.0</ele><time>2026-04-06T11:11:47Z</time></trkpt><trkpt lat="39.7285218078345" lon="8.533262663077085"><ele>6.8</ele><time>2026-04-06T11:11:48Z</time></trkpt><trkpt lat="39.728645531489676" lon="8.533264757958188"><ele>6.6</ele><time>2026-04-06T11:11:49Z</time></trkpt><trkpt lat="39.72875047656323" lon="8.533263552800829"><ele>6.3999999999999995</ele><time>2026-04-06T11:11:50Z</time></trkpt><trkpt lat="39.72883542993599" lon="8.53326155065898"><ele>6.199999999999999</ele><time>2026-04-06T11:11:51Z</time></trkpt><trkpt lat="39.728898857386" lon="8.533259533336212"><ele>6.0</ele><time>2026-04-06T11:11:52Z</time></trkpt><trkpt lat="39.728997766558756" lon="8.53326109069049"><ele>6.0</ele><time>2026-04-06T11:11:54Z</time></trkpt><trkpt lat="39.729066503530284" lon="8.533266921526499"><ele>6.0</ele><time>2026-04-06T11:11:58Z</time></trkpt><trkpt lat="39.729134791280586" lon="8.533277691432433"><ele>6.0</ele><time>2026-04-06T11:12:00Z</time></trkpt><trkpt lat="39.72928332532207" lon="8.533261544922183"><ele>6.0</ele><time>2026-04-06T11:12:02Z</time></trkpt><trkpt lat="39.729361033951626" lon="8.533254195399136"><ele>6.0</ele><time>2026-04-06T11:12:03Z</time></trkpt><trkpt lat="39.72946259621336" lon="8.533253071707428"><ele>5.5</ele><time>2026-04-06T11:12:04Z</time></trkpt><trkpt lat="39.72957633277019" lon="8.533254026199398"><ele>5.0</ele><time>2026-04-06T11:12:05Z</time></trkpt><trkpt lat="39.7296983330699" lon="8.533251379024808"><ele>4.5</ele><time>2026-04-06T11:12:06Z</time></trkpt><trkpt lat="39.72982195916552" lon="8.533246830811839"><ele>4.0</ele><time>2026-04-06T11:12:07Z</time></trkpt><trkpt lat="39.729961541384284" lon="8.53324036156513"><ele>4.0</ele><time>2026-04-06T11:12:08Z</time></trkpt><trkpt lat="39.730126505936646" lon="8.53323983498883"><ele>4.0</ele><time>2026-04-06T11:12:09Z</time></trkpt><trkpt lat="39.73030728327412" lon="8.53324061688085"><ele>4.0</ele><time>2026-04-06T11:12:10Z</time></trkpt><trkpt lat="39.730470686059164" lon="8.53324113705921"><ele>4.0</ele><time>2026-04-06T11:12:11Z</time></trkpt><trkpt lat="39.7306443479243" lon="8.533238175082795"><ele>4.0</ele><time>2026-04-06T11:12:12Z</time></trkpt><trkpt lat="39.73082654541787" lon="8.533244507189837"><ele>4.0</ele><time>2026-04-06T11:12:13Z</time></trkpt><trkpt lat="39.731010508695185" lon="8.533248134913165"><ele>4.333333333333333</ele><time>2026-04-06T11:12:14Z</time></trkpt><trkpt lat="39.7311987539898" lon="8.533243717269961"><ele>4.666666666666667</ele><time>2026-04-06T11:12:15Z</time></trkpt><trkpt lat="39.731380485205634" lon="8.533239749757803"><ele>5.0</ele><time>2026-04-06T11:12:16Z</time></trkpt><trkpt lat="39.73156007047436" lon="8.533240208526276"><ele>5.0</ele><time>2026-04-06T11:12:17Z</time></trkpt><trkpt lat="39.73174200108565" lon="8.533239623111438"><ele>5.0</ele><time>2026-04-06T11:12:18Z</time></trkpt><trkpt lat="39.731931739299256" lon="8.533235567304246"><ele>5.0</ele><time>2026-04-06T11:12:19Z</time></trkpt><trkpt lat="39.73212434801495" lon="8.533230945666832"><ele>5.0</ele><time>2026-04-06T11:12:20Z</time></trkpt><trkpt lat="39.73231241852261" lon="8.533229730446353"><ele>5.0</ele><time>2026-04-06T11:12:21Z</time></trkpt><trkpt lat="39.732499385908845" lon="8.533227900053115"><ele>5.0</ele><time>2026-04-06T11:12:22Z</time></trkpt><trkpt lat="39.73267191069939" lon="8.533219772483074"><ele>4.75</ele><time>2026-04-06T11:12:23Z</time></trkpt><trkpt lat="39.7328352164743" lon="8.533215472338522"><ele>4.5</ele><time>2026-04-06T11:12:24Z</time></trkpt><trkpt lat="39.73297949036899" lon="8.533216106041095"><ele>4.25</ele><time>2026-04-06T11:12:25Z</time></trkpt><trkpt lat="39.733120519125045" lon="8.533219059619139"><ele>4.0</ele><time>2026-04-06T11:12:26Z</time></trkpt><trkpt lat="39.73325136915688" lon="8.533219009578406"><ele>4.0</ele><time>2026-04-06T11:12:27Z</time></trkpt><trkpt lat="39.733378676777896" lon="8.533218581176277"><ele>4.0</ele><time>2026-04-06T11:12:28Z</time></trkpt><trkpt lat="39.73362080414106" lon="8.533202770622532"><ele>4.0</ele><time>2026-04-06T11:12:30Z</time></trkpt><trkpt lat="39.733745411646595" lon="8.533199143943643"><ele>4.75</ele><time>2026-04-06T11:12:31Z</time></trkpt><trkpt lat="39.73387236067627" lon="8.533205510113909"><ele>5.5</ele><time>2026-04-06T11:12:32Z</time></trkpt><trkpt lat="39.73399032657992" lon="8.533209944039719"><ele>6.25</ele><time>2026-04-06T11:12:33Z</time></trkpt><trkpt lat="39.73409911894246" lon="8.533212191628749"><ele>7.0</ele><time>2026-04-06T11:12:34Z</time></trkpt><trkpt lat="39.734208179909224" lon="8.533213999988"><ele>7.0</ele><time>2026-04-06T11:12:35Z</time></trkpt><trkpt lat="39.73431966743684" lon="8.533224078547928"><ele>7.0</ele><time>2026-04-06T11:12:36Z</time></trkpt><trkpt lat="39.734440072023666" lon="8.533222860510282"><ele>7.0</ele><time>2026-04-06T11:12:37Z</time></trkpt><trkpt lat="39.7345646406078" lon="8.53321893274166"><ele>7.0</ele><time>2026-04-06T11:12:38Z</time></trkpt><trkpt lat="39.7346772335186" lon="8.533222585642152"><ele>6.6</ele><time>2026-04-06T11:12:39Z</time></trkpt><trkpt lat="39.73478336017742" lon="8.533221749443364"><ele>6.199999999999999</ele><time>2026-04-06T11:12:40Z</time></trkpt><trkpt lat="39.734883146899065" lon="8.533219928277875"><ele>5.8</ele><time>2026-04-06T11:12:41Z</time></trkpt><trkpt lat="39.73497009475511" lon="8.533218404337461"><ele>5.4</ele><time>2026-04-06T11:12:42Z</time></trkpt><trkpt lat="39.73505733686523" lon="8.533210113574125"><ele>5.0</ele><time>2026-04-06T11:12:43Z</time></trkpt><trkpt lat="39.73515386316186" lon="8.533206968174605"><ele>5.0</ele><time>2026-04-06T11:12:44Z</time></trkpt><trkpt lat="39.7352353198147" lon="8.533209534169531"><ele>5.0</ele><time>2026-04-06T11:12:45Z</time></trkpt><trkpt lat="39.73534052964406" lon="8.533209127422811"><ele>5.0</ele><time>2026-04-06T11:12:46Z</time></trkpt><trkpt lat="39.73543884547919" lon="8.53321081688597"><ele>5.0</ele><time>2026-04-06T11:12:47Z</time></trkpt><trkpt lat="39.7355356288781" lon="8.533209378588788"><ele>5.0</ele><time>2026-04-06T11:12:48Z</time></trkpt><trkpt lat="39.735628796800725" lon="8.533199448977662"><ele>5.0</ele><time>2026-04-06T11:12:49Z</time></trkpt><trkpt lat="39.735729524168335" lon="8.533184015846865"><ele>5.0</ele><time>2026-04-06T11:12:50Z</time></trkpt><trkpt lat="39.735835503394654" lon="8.533175836900343"><ele>5.0</ele><time>2026-04-06T11:12:51Z</time></trkpt><trkpt lat="39.73594256326575" lon="8.533176986731535"><ele>5.0</ele><time>2026-04-06T11:12:52.001Z</time></trkpt><trkpt lat="39.736044940283215" lon="8.533182232798909"><ele>5.0</ele><time>2026-04-06T11:12:53.001Z</time></trkpt><trkpt lat="39.73614313692268" lon="8.533181595365832"><ele>5.0</ele><time>2026-04-06T11:12:54.001Z</time></trkpt><trkpt lat="39.73623249011277" lon="8.533175011780873"><ele>5.0</ele><time>2026-04-06T11:12:55.001Z</time></trkpt><trkpt lat="39.73632829978706" lon="8.533169523355449"><ele>5.0</ele><time>2026-04-06T11:12:56.001Z</time></trkpt><trkpt lat="39.73647853105236" lon="8.533178364295742"><ele>5.0</ele><time>2026-04-06T11:12:58.001Z</time></trkpt><trkpt lat="39.73654256676552" lon="8.533203770015358"><ele>5.0</ele><time>2026-04-06T11:13:00.001Z</time></trkpt><trkpt lat="39.73654454175564" lon="8.533312010606624"><ele>5.0</ele><time>2026-04-06T11:13:01.001Z</time></trkpt><trkpt lat="39.73653633049749" lon="8.53340414999073"><ele>5.0</ele><time>2026-04-06T11:13:02.001Z</time></trkpt><trkpt lat="39.736530697461674" lon="8.533530436301017"><ele>5.0</ele><time>2026-04-06T11:13:03.001Z</time></trkpt><trkpt lat="39.736528748184725" lon="8.533694013468638"><ele>5.0</ele><time>2026-04-06T11:13:04.001Z</time></trkpt><trkpt lat="39.736527610135454" lon="8.533852273162337"><ele>5.0</ele><time>2026-04-06T11:13:05.001Z</time></trkpt><trkpt lat="39.73653116673442" lon="8.534031645966095"><ele>5.0</ele><time>2026-04-06T11:13:06.001Z</time></trkpt><trkpt lat="39.73653501146531" lon="8.53424263563523"><ele>5.0</ele><time>2026-04-06T11:13:07.001Z</time></trkpt><trkpt lat="39.73653523057738" lon="8.534445754048065"><ele>5.0</ele><time>2026-04-06T11:13:08.001Z</time></trkpt><trkpt lat="39.73653128001425" lon="8.534641507353058"><ele>5.0</ele><time>2026-04-06T11:13:09.001Z</time></trkpt><trkpt lat="39.73652721863816" lon="8.534851959282303"><ele>5.0</ele><time>2026-04-06T11:13:10.001Z</time></trkpt><trkpt lat="39.736528307937235" lon="8.535070529404589"><ele>5.0</ele><time>2026-04-06T11:13:11.001Z</time></trkpt><trkpt lat="39.736531219561826" lon="8.535294880189275"><ele>4.333333333333334</ele><time>2026-04-06T11:13:12.001Z</time></trkpt><trkpt lat="39.736536317071995" lon="8.535523617491462"><ele>3.666666666666667</ele><time>2026-04-06T11:13:13.001Z</time></trkpt><trkpt lat="39.73653980832337" lon="8.535751769059008"><ele>3.0</ele><time>2026-04-06T11:13:14.001Z</time></trkpt><trkpt lat="39.73654234162615" lon="8.535969290122523"><ele>3.0</ele><time>2026-04-06T11:13:15.001Z</time></trkpt><trkpt lat="39.736543548387644" lon="8.536201764719307"><ele>3.0</ele><time>2026-04-06T11:13:16.001Z</time></trkpt><trkpt lat="39.73654502543055" lon="8.536437114536826"><ele>3.0</ele><time>2026-04-06T11:13:17.001Z</time></trkpt><trkpt lat="39.73654615258918" lon="8.536682464741503"><ele>3.333333333333333</ele><time>2026-04-06T11:13:18.001Z</time></trkpt><trkpt lat="39.73654483183355" lon="8.536924508715424"><ele>3.6666666666666665</ele><time>2026-04-06T11:13:19.001Z</time></trkpt><trkpt lat="39.736543354769815" lon="8.53716833591735"><ele>4.0</ele><time>2026-04-06T11:13:20.001Z</time></trkpt><trkpt lat="39.73654383686457" lon="8.53741038908714"><ele>4.0</ele><time>2026-04-06T11:13:21.001Z</time></trkpt><trkpt lat="39.73654624674478" lon="8.537649130313804"><ele>4.0</ele><time>2026-04-06T11:13:22.001Z</time></trkpt><trkpt lat="39.73654619287355" lon="8.53789376413113"><ele>4.0</ele><time>2026-04-06T11:13:23.001Z</time></trkpt><trkpt lat="39.73654537627442" lon="8.538136328921242"><ele>4.0</ele><time>2026-04-06T11:13:24.001Z</time></trkpt><trkpt lat="39.73654618701661" lon="8.538376164731488"><ele>4.0</ele><time>2026-04-06T11:13:25.001Z</time></trkpt><trkpt lat="39.73654849323132" lon="8.538617044646836"><ele>4.0</ele><time>2026-04-06T11:13:26.001Z</time></trkpt><trkpt lat="39.73655018614623" lon="8.538856061723024"><ele>3.6666666666666665</ele><time>2026-04-06T11:13:27.001Z</time></trkpt><trkpt lat="39.73654953570546" lon="8.539089554503153"><ele>3.333333333333333</ele><time>2026-04-06T11:13:28.001Z</time></trkpt><trkpt lat="39.73655065949888" lon="8.539308524717892"><ele>3.0</ele><time>2026-04-06T11:13:29.001Z</time></trkpt><trkpt lat="39.73654967629737" lon="8.539521497421173"><ele>3.333333333333333</ele><time>2026-04-06T11:13:30.001Z</time></trkpt><trkpt lat="39.73654889628526" lon="8.539730319601983"><ele>3.6666666666666665</ele><time>2026-04-06T11:13:31.001Z</time></trkpt><trkpt lat="39.73654796658182" lon="8.53994484964623"><ele>4.0</ele><time>2026-04-06T11:13:32.001Z</time></trkpt><trkpt lat="39.73654677510816" lon="8.540156651670955"><ele>4.0</ele><time>2026-04-06T11:13:33Z</time></trkpt><trkpt lat="39.736551016990994" lon="8.54038114897171"><ele>4.0</ele><time>2026-04-06T11:13:34Z</time></trkpt><trkpt lat="39.73655200647483" lon="8.540604191587446"><ele>4.0</ele><time>2026-04-06T11:13:35Z</time></trkpt><trkpt lat="39.73655405496304" lon="8.540834425527661"><ele>3.6666666666666665</ele><time>2026-04-06T11:13:36Z</time></trkpt><trkpt lat="39.73655517815558" lon="8.541069302660192"><ele>3.333333333333333</ele><time>2026-04-06T11:13:37Z</time></trkpt><trkpt lat="39.73655716068934" lon="8.541304713209986"><ele>3.0</ele><time>2026-04-06T11:13:38Z</time></trkpt><trkpt lat="39.73656038813377" lon="8.541548943275753"><ele>3.0</ele><time>2026-04-06T11:13:39Z</time></trkpt><trkpt lat="39.73655825865724" lon="8.54179901142937"><ele>3.0</ele><time>2026-04-06T11:13:40Z</time></trkpt><trkpt lat="39.73655505859293" lon="8.542055001994443"><ele>3.0</ele><time>2026-04-06T11:13:41Z</time></trkpt><trkpt lat="39.73655812136914" lon="8.542300410268378"><ele>2.6666666666666665</ele><time>2026-04-06T11:13:42Z</time></trkpt><trkpt lat="39.736561522339755" lon="8.542557879671735"><ele>2.333333333333333</ele><time>2026-04-06T11:13:43Z</time></trkpt><trkpt lat="39.73656118718666" lon="8.542819921401344"><ele>2.0</ele><time>2026-04-06T11:13:44Z</time></trkpt><trkpt lat="39.736562256351206" lon="8.543090238891326"><ele>2.0</ele><time>2026-04-06T11:13:45Z</time></trkpt><trkpt lat="39.73656514361799" lon="8.543376255638863"><ele>2.0</ele><time>2026-04-06T11:13:46Z</time></trkpt><trkpt lat="39.73656713155241" lon="8.543654870867456"><ele>2.0</ele><time>2026-04-06T11:13:47Z</time></trkpt><trkpt lat="39.7365693828013" lon="8.54393671033957"><ele>2.5</ele><time>2026-04-06T11:13:48Z</time></trkpt><trkpt lat="39.73657092067184" lon="8.54423068172025"><ele>3.0</ele><time>2026-04-06T11:13:49Z</time></trkpt><trkpt lat="39.73657209391585" lon="8.544535500934273"><ele>3.0</ele><time>2026-04-06T11:13:50Z</time></trkpt><trkpt lat="39.7365732780386" lon="8.54484344966494"><ele>3.0</ele><time>2026-04-06T11:13:51Z</time></trkpt><trkpt lat="39.73657690993729" lon="8.545161837262881"><ele>3.5</ele><time>2026-04-06T11:13:52Z</time></trkpt><trkpt lat="39.73657702797913" lon="8.545481004773968"><ele>4.0</ele><time>2026-04-06T11:13:53Z</time></trkpt><trkpt lat="39.73657694062141" lon="8.54578165862001"><ele>4.0</ele><time>2026-04-06T11:13:54Z</time></trkpt><trkpt lat="39.736578646513834" lon="8.546064474829793"><ele>4.0</ele><time>2026-04-06T11:13:55Z</time></trkpt><trkpt lat="39.736579465963125" lon="8.546355406850703"><ele>4.0</ele><time>2026-04-06T11:13:56Z</time></trkpt><trkpt lat="39.73658137635284" lon="8.54665077109177"><ele>4.0</ele><time>2026-04-06T11:13:57Z</time></trkpt><trkpt lat="39.7365823706978" lon="8.546950413161284"><ele>4.0</ele><time>2026-04-06T11:13:58Z</time></trkpt><trkpt lat="39.73658299358027" lon="8.547251966582895"><ele>4.0</ele><time>2026-04-06T11:13:59Z</time></trkpt><trkpt lat="39.73658548049364" lon="8.547551144941975"><ele>4.0</ele><time>2026-04-06T11:14:00Z</time></trkpt><trkpt lat="39.73658681044598" lon="8.547852191671742"><ele>4.666666666666666</ele><time>2026-04-06T11:14:01Z</time></trkpt><trkpt lat="39.73658560421626" lon="8.548135469755508"><ele>5.333333333333333</ele><time>2026-04-06T11:14:02Z</time></trkpt><trkpt lat="39.736584085411145" lon="8.548417175092128"><ele>6.0</ele><time>2026-04-06T11:14:03Z</time></trkpt><trkpt lat="39.736584464612626" lon="8.548703730847771"><ele>6.5</ele><time>2026-04-06T11:14:04Z</time></trkpt><trkpt lat="39.736584877020036" lon="8.548997715275837"><ele>7.0</ele><time>2026-04-06T11:14:05Z</time></trkpt><trkpt lat="39.736585394711824" lon="8.549289173862"><ele>6.333333333333334</ele><time>2026-04-06T11:14:06Z</time></trkpt><trkpt lat="39.73658613595588" lon="8.549574888110158"><ele>5.666666666666667</ele><time>2026-04-06T11:14:07Z</time></trkpt><trkpt lat="39.73658601430115" lon="8.549844194275497"><ele>5.0</ele><time>2026-04-06T11:14:08Z</time></trkpt><trkpt lat="39.736587705338835" lon="8.550109112670768"><ele>5.333333333333334</ele><time>2026-04-06T11:14:09Z</time></trkpt><trkpt lat="39.73658932516292" lon="8.550378347487001"><ele>5.666666666666667</ele><time>2026-04-06T11:14:10Z</time></trkpt><trkpt lat="39.73659159112886" lon="8.550656800572595"><ele>6.0</ele><time>2026-04-06T11:14:11Z</time></trkpt><trkpt lat="39.736595885195634" lon="8.55093563646596"><ele>6.0</ele><time>2026-04-06T11:14:12Z</time></trkpt><trkpt lat="39.736598920682226" lon="8.551206184896147"><ele>6.0</ele><time>2026-04-06T11:14:13Z</time></trkpt><trkpt lat="39.73659972563823" lon="8.551484565062884"><ele>6.0</ele><time>2026-04-06T11:14:14Z</time></trkpt><trkpt lat="39.73660146369002" lon="8.551765055659695"><ele>6.0</ele><time>2026-04-06T11:14:15Z</time></trkpt><trkpt lat="39.73660318056739" lon="8.552041873818833"><ele>6.0</ele><time>2026-04-06T11:14:16Z</time></trkpt><trkpt lat="39.73660395223174" lon="8.552321192836054"><ele>6.0</ele><time>2026-04-06T11:14:17Z</time></trkpt><trkpt lat="39.73661077341362" lon="8.552886992986366"><ele>6.0</ele><time>2026-04-06T11:14:19Z</time></trkpt><trkpt lat="39.73661222115523" lon="8.55317358382847"><ele>6.0</ele><time>2026-04-06T11:14:20Z</time></trkpt><trkpt lat="39.736611904884604" lon="8.553459575345094"><ele>6.0</ele><time>2026-04-06T11:14:21Z</time></trkpt><trkpt lat="39.736612420042604" lon="8.553749007973556"><ele>5.666666666666667</ele><time>2026-04-06T11:14:22Z</time></trkpt><trkpt lat="39.736613368189296" lon="8.554013255909277"><ele>5.333333333333334</ele><time>2026-04-06T11:14:23Z</time></trkpt><trkpt lat="39.73661566023993" lon="8.554255893067053"><ele>5.0</ele><time>2026-04-06T11:14:24Z</time></trkpt><trkpt lat="39.7366184464317" lon="8.554478427185877"><ele>5.0</ele><time>2026-04-06T11:14:25Z</time></trkpt><trkpt lat="39.736602753580485" lon="8.554679943415492"><ele>5.0</ele><time>2026-04-06T11:14:26Z</time></trkpt><trkpt lat="39.73660156640393" lon="8.554852239557038"><ele>5.0</ele><time>2026-04-06T11:14:27Z</time></trkpt><trkpt lat="39.73661606349059" lon="8.554995987494166"><ele>5.0</ele><time>2026-04-06T11:14:28Z</time></trkpt><trkpt lat="39.73660945388122" lon="8.55512322637612"><ele>5.0</ele><time>2026-04-06T11:14:29Z</time></trkpt><trkpt lat="39.73659714372606" lon="8.555228615914702"><ele>5.0</ele><time>2026-04-06T11:14:30Z</time></trkpt><trkpt lat="39.73656781408028" lon="8.555315450400402"><ele>5.0</ele><time>2026-04-06T11:14:31Z</time></trkpt><trkpt lat="39.736538025574646" lon="8.555397090522314"><ele>5.0</ele><time>2026-04-06T11:14:32Z</time></trkpt><trkpt lat="39.736533901568635" lon="8.555496663142142"><ele>5.0</ele><time>2026-04-06T11:14:33Z</time></trkpt><trkpt lat="39.73656365023223" lon="8.555619439602383"><ele>5.0</ele><time>2026-04-06T11:14:34Z</time></trkpt><trkpt lat="39.73660260662773" lon="8.555772313214144"><ele>5.666666666666667</ele><time>2026-04-06T11:14:35Z</time></trkpt><trkpt lat="39.736603785039975" lon="8.555960976921678"><ele>6.333333333333334</ele><time>2026-04-06T11:14:36Z</time></trkpt><trkpt lat="39.73660833005724" lon="8.556187504688207"><ele>7.0</ele><time>2026-04-06T11:14:37Z</time></trkpt><trkpt lat="39.73661327369713" lon="8.556433900137177"><ele>7.0</ele><time>2026-04-06T11:14:38Z</time></trkpt><trkpt lat="39.7366281349836" lon="8.55670230087419"><ele>7.0</ele><time>2026-04-06T11:14:39Z</time></trkpt><trkpt lat="39.73662623808551" lon="8.556971441598462"><ele>7.0</ele><time>2026-04-06T11:14:40Z</time></trkpt><trkpt lat="39.73662799127464" lon="8.557261026000932"><ele>7.0</ele><time>2026-04-06T11:14:41Z</time></trkpt><trkpt lat="39.7366281308953" lon="8.5575448069848"><ele>7.0</ele><time>2026-04-06T11:14:42Z</time></trkpt><trkpt lat="39.7366292583726" lon="8.557813543169678"><ele>7.0</ele><time>2026-04-06T11:14:43Z</time></trkpt><trkpt lat="39.73663157497942" lon="8.55807218601077"><ele>7.0</ele><time>2026-04-06T11:14:44Z</time></trkpt><trkpt lat="39.736631940702345" lon="8.55834228360578"><ele>7.0</ele><time>2026-04-06T11:14:45Z</time></trkpt><trkpt lat="39.73663250445608" lon="8.558600261891714"><ele>7.0</ele><time>2026-04-06T11:14:46Z</time></trkpt><trkpt lat="39.73663280416504" lon="8.558827346123248"><ele>7.0</ele><time>2026-04-06T11:14:47Z</time></trkpt><trkpt lat="39.73663398494415" lon="8.559064142307081"><ele>7.0</ele><time>2026-04-06T11:14:48Z</time></trkpt><trkpt lat="39.736635406783556" lon="8.559313460362189"><ele>7.0</ele><time>2026-04-06T11:14:49Z</time></trkpt><trkpt lat="39.73663941621043" lon="8.559574798124768"><ele>7.333333333333334</ele><time>2026-04-06T11:14:50Z</time></trkpt><trkpt lat="39.736639177663065" lon="8.559832210185625"><ele>7.666666666666666</ele><time>2026-04-06T11:14:51Z</time></trkpt><trkpt lat="39.7366364685576" lon="8.560072684607556"><ele>8.0</ele><time>2026-04-06T11:14:52Z</time></trkpt><trkpt lat="39.736636972816825" lon="8.560300673340416"><ele>8.0</ele><time>2026-04-06T11:14:53Z</time></trkpt><trkpt lat="39.73663905346044" lon="8.560525921629274"><ele>8.0</ele><time>2026-04-06T11:14:54Z</time></trkpt><trkpt lat="39.736642476810836" lon="8.560752235703669"><ele>8.0</ele><time>2026-04-06T11:14:55Z</time></trkpt><trkpt lat="39.73664441237457" lon="8.56098578259592"><ele>7.333333333333333</ele><time>2026-04-06T11:14:56Z</time></trkpt><trkpt lat="39.73664382781769" lon="8.561228207824266"><ele>6.666666666666666</ele><time>2026-04-06T11:14:57Z</time></trkpt><trkpt lat="39.73664272598275" lon="8.561473569572941"><ele>6.0</ele><time>2026-04-06T11:14:58Z</time></trkpt><trkpt lat="39.736641651720625" lon="8.561700475221079"><ele>6.0</ele><time>2026-04-06T11:14:59Z</time></trkpt><trkpt lat="39.73664037101073" lon="8.561927328710672"><ele>6.0</ele><time>2026-04-06T11:15:00Z</time></trkpt><trkpt lat="39.736641204010674" lon="8.562160801319006"><ele>6.0</ele><time>2026-04-06T11:15:01Z</time></trkpt><trkpt lat="39.73664547959928" lon="8.562416252737682"><ele>6.333333333333334</ele><time>2026-04-06T11:15:02Z</time></trkpt><trkpt lat="39.73664784049621" lon="8.562665094648281"><ele>6.666666666666667</ele><time>2026-04-06T11:15:03Z</time></trkpt><trkpt lat="39.736648305397914" lon="8.562939056593597"><ele>7.0</ele><time>2026-04-06T11:15:04Z</time></trkpt><trkpt lat="39.73665050355157" lon="8.563219195929205"><ele>7.333333333333334</ele><time>2026-04-06T11:15:05Z</time></trkpt><trkpt lat="39.73665148131506" lon="8.563508049242193"><ele>7.666666666666666</ele><time>2026-04-06T11:15:06Z</time></trkpt><trkpt lat="39.736651846951226" lon="8.563798636577854"><ele>8.0</ele><time>2026-04-06T11:15:07Z</time></trkpt><trkpt lat="39.73665008513388" lon="8.564070492149812"><ele>8.0</ele><time>2026-04-06T11:15:08Z</time></trkpt><trkpt lat="39.73665003407615" lon="8.564355095955776"><ele>8.0</ele><time>2026-04-06T11:15:09Z</time></trkpt><trkpt lat="39.736651852240904" lon="8.56465589439845"><ele>7.333333333333333</ele><time>2026-04-06T11:15:10Z</time></trkpt><trkpt lat="39.73665522458227" lon="8.564939610620605"><ele>6.666666666666666</ele><time>2026-04-06T11:15:11Z</time></trkpt><trkpt lat="39.73665867301277" lon="8.565205015350243"><ele>6.0</ele><time>2026-04-06T11:15:12Z</time></trkpt><trkpt lat="39.73665916708167" lon="8.565468362698647"><ele>5.666666666666667</ele><time>2026-04-06T11:15:13Z</time></trkpt><trkpt lat="39.7366580205068" lon="8.565731012868039"><ele>5.333333333333334</ele><time>2026-04-06T11:15:14Z</time></trkpt><trkpt lat="39.73665858292338" lon="8.565981246936483"><ele>5.0</ele><time>2026-04-06T11:15:15Z</time></trkpt><trkpt lat="39.736659036908605" lon="8.566217042651697"><ele>5.666666666666667</ele><time>2026-04-06T11:15:16Z</time></trkpt><trkpt lat="39.73665798148733" lon="8.56644316453035"><ele>6.333333333333334</ele><time>2026-04-06T11:15:17Z</time></trkpt><trkpt lat="39.73665731520491" lon="8.56665458103553"><ele>7.0</ele><time>2026-04-06T11:15:18Z</time></trkpt><trkpt lat="39.73665654947613" lon="8.566859314948328"><ele>7.666666666666667</ele><time>2026-04-06T11:15:19Z</time></trkpt><trkpt lat="39.73665678941897" lon="8.567052043679729"><ele>8.333333333333334</ele><time>2026-04-06T11:15:20Z</time></trkpt><trkpt lat="39.73665749202878" lon="8.567254842195306"><ele>9.0</ele><time>2026-04-06T11:15:21Z</time></trkpt><trkpt lat="39.73665669620364" lon="8.567463107680634"><ele>9.0</ele><time>2026-04-06T11:15:22Z</time></trkpt><trkpt lat="39.73665494732659" lon="8.567684652501487"><ele>9.0</ele><time>2026-04-06T11:15:23Z</time></trkpt><trkpt lat="39.73665890174086" lon="8.567907743953722"><ele>9.0</ele><time>2026-04-06T11:15:24Z</time></trkpt><trkpt lat="39.73666484533757" lon="8.568107896046278"><ele>8.75</ele><time>2026-04-06T11:15:25Z</time></trkpt><trkpt lat="39.736664404682344" lon="8.568301377998967"><ele>8.5</ele><time>2026-04-06T11:15:26Z</time></trkpt><trkpt lat="39.73666423110849" lon="8.56849456550237"><ele>8.25</ele><time>2026-04-06T11:15:27Z</time></trkpt><trkpt lat="39.73666705146502" lon="8.568686892189383"><ele>8.0</ele><time>2026-04-06T11:15:28Z</time></trkpt><trkpt lat="39.73666304130878" lon="8.568871181464145"><ele>7.666666666666666</ele><time>2026-04-06T11:15:29Z</time></trkpt><trkpt lat="39.73664038237466" lon="8.569056662686295"><ele>7.333333333333334</ele><time>2026-04-06T11:15:30Z</time></trkpt><trkpt lat="39.73659545438143" lon="8.56924112181875"><ele>7.0</ele><time>2026-04-06T11:15:31.001Z</time></trkpt><trkpt lat="39.736521062358136" lon="8.56943023697454"><ele>6.333333333333334</ele><time>2026-04-06T11:15:32.001Z</time></trkpt><trkpt lat="39.7364324215398" lon="8.569622088953372"><ele>5.666666666666667</ele><time>2026-04-06T11:15:33.001Z</time></trkpt><trkpt lat="39.73632019896236" lon="8.569839516728557"><ele>5.0</ele><time>2026-04-06T11:15:34.001Z</time></trkpt><trkpt lat="39.73620762532363" lon="8.570068822314802"><ele>5.0</ele><time>2026-04-06T11:15:35.001Z</time></trkpt><trkpt lat="39.73610355173098" lon="8.570307263536074"><ele>5.0</ele><time>2026-04-06T11:15:36.001Z</time></trkpt><trkpt lat="39.73601391233267" lon="8.570518347135554"><ele>5.0</ele><time>2026-04-06T11:15:37.001Z</time></trkpt><trkpt lat="39.73591391179656" lon="8.570707823253102"><ele>5.333333333333334</ele><time>2026-04-06T11:15:38.001Z</time></trkpt><trkpt lat="39.73582507318403" lon="8.570909767411791"><ele>5.666666666666667</ele><time>2026-04-06T11:15:39Z</time></trkpt><trkpt lat="39.73573554089769" lon="8.571113800058976"><ele>6.0</ele><time>2026-04-06T11:15:40Z</time></trkpt><trkpt lat="39.73566956608334" lon="8.571316962969899"><ele>5.333333333333333</ele><time>2026-04-06T11:15:41Z</time></trkpt><trkpt lat="39.73560396811193" lon="8.57150313515302"><ele>4.666666666666666</ele><time>2026-04-06T11:15:42Z</time></trkpt><trkpt lat="39.73556772710302" lon="8.571711210350918"><ele>4.0</ele><time>2026-04-06T11:15:43Z</time></trkpt><trkpt lat="39.73556203429909" lon="8.57194759328938"><ele>4.0</ele><time>2026-04-06T11:15:44Z</time></trkpt><trkpt lat="39.735571017070576" lon="8.572207227307082"><ele>4.0</ele><time>2026-04-06T11:15:45Z</time></trkpt><trkpt lat="39.735565144995675" lon="8.572485238497691"><ele>4.0</ele><time>2026-04-06T11:15:46Z</time></trkpt><trkpt lat="39.735569399484554" lon="8.572785829779553"><ele>4.0</ele><time>2026-04-06T11:15:47Z</time></trkpt><trkpt lat="39.735585595629196" lon="8.573088315199465"><ele>4.0</ele><time>2026-04-06T11:15:48Z</time></trkpt><trkpt lat="39.73558724430167" lon="8.573366324800595"><ele>4.0</ele><time>2026-04-06T11:15:49Z</time></trkpt><trkpt lat="39.73557136112901" lon="8.573635437396005"><ele>5.0</ele><time>2026-04-06T11:15:50Z</time></trkpt><trkpt lat="39.735572626454854" lon="8.57388834831507"><ele>6.0</ele><time>2026-04-06T11:15:51Z</time></trkpt><trkpt lat="39.73557382253039" lon="8.574127417594324"><ele>7.0</ele><time>2026-04-06T11:15:52Z</time></trkpt><trkpt lat="39.735574995495206" lon="8.574361867361963"><ele>8.0</ele><time>2026-04-06T11:15:53Z</time></trkpt><trkpt lat="39.73557696930644" lon="8.574607493148395"><ele>9.0</ele><time>2026-04-06T11:15:54Z</time></trkpt><trkpt lat="39.73557945084904" lon="8.574862135187326"><ele>10.0</ele><time>2026-04-06T11:15:55Z</time></trkpt><trkpt lat="39.735596773049714" lon="8.57512551245226"><ele>9.333333333333334</ele><time>2026-04-06T11:15:56Z</time></trkpt><trkpt lat="39.73559771246717" lon="8.575394247183056"><ele>8.666666666666666</ele><time>2026-04-06T11:15:57Z</time></trkpt><trkpt lat="39.7355993521807" lon="8.575656237071717"><ele>8.0</ele><time>2026-04-06T11:15:58Z</time></trkpt><trkpt lat="39.735601287028864" lon="8.5759072795577"><ele>8.0</ele><time>2026-04-06T11:15:59Z</time></trkpt><trkpt lat="39.73560126058565" lon="8.576132953263514"><ele>8.0</ele><time>2026-04-06T11:16:00Z</time></trkpt><trkpt lat="39.73560274887512" lon="8.576339364363994"><ele>8.0</ele><time>2026-04-06T11:16:01Z</time></trkpt><trkpt lat="39.735588096997006" lon="8.576532643896423"><ele>8.0</ele><time>2026-04-06T11:16:02Z</time></trkpt><trkpt lat="39.73558920377475" lon="8.576725027479672"><ele>8.0</ele><time>2026-04-06T11:16:03Z</time></trkpt><trkpt lat="39.73560321819874" lon="8.576915164117398"><ele>8.0</ele><time>2026-04-06T11:16:04Z</time></trkpt><trkpt lat="39.735600847297505" lon="8.577094288325123"><ele>8.0</ele><time>2026-04-06T11:16:05Z</time></trkpt><trkpt lat="39.73560128836103" lon="8.57726741455142"><ele>8.25</ele><time>2026-04-06T11:16:06Z</time></trkpt><trkpt lat="39.735601675991546" lon="8.57744926809915"><ele>8.5</ele><time>2026-04-06T11:16:07Z</time></trkpt><trkpt lat="39.73560150296041" lon="8.577634112107622"><ele>8.75</ele><time>2026-04-06T11:16:08Z</time></trkpt><trkpt lat="39.73560411630574" lon="8.577821398775649"><ele>9.0</ele><time>2026-04-06T11:16:09Z</time></trkpt><trkpt lat="39.73560921080293" lon="8.578015737914928"><ele>9.5</ele><time>2026-04-06T11:16:10Z</time></trkpt><trkpt lat="39.735594053624325" lon="8.578413190110947"><ele>10.0</ele><time>2026-04-06T11:16:12Z</time></trkpt><trkpt lat="39.73559463966394" lon="8.578617181546345"><ele>9.666666666666668</ele><time>2026-04-06T11:16:13Z</time></trkpt><trkpt lat="39.73559528282574" lon="8.578841056716374"><ele>9.333333333333334</ele><time>2026-04-06T11:16:14Z</time></trkpt><trkpt lat="39.73559596625927" lon="8.579078949945126"><ele>9.0</ele><time>2026-04-06T11:16:15Z</time></trkpt><trkpt lat="39.73559668402433" lon="8.579328793700583"><ele>9.333333333333334</ele><time>2026-04-06T11:16:16Z</time></trkpt><trkpt lat="39.73559726146545" lon="8.579590065962877"><ele>9.666666666666668</ele><time>2026-04-06T11:16:17Z</time></trkpt><trkpt lat="39.735597593686535" lon="8.579867670655545"><ele>10.0</ele><time>2026-04-06T11:16:18Z</time></trkpt><trkpt lat="39.73559793445486" lon="8.580152417595245"><ele>10.0</ele><time>2026-04-06T11:16:19Z</time></trkpt><trkpt lat="39.73559897482016" lon="8.580413438269867"><ele>10.0</ele><time>2026-04-06T11:16:20Z</time></trkpt><trkpt lat="39.73560116855146" lon="8.580651958552538"><ele>10.0</ele><time>2026-04-06T11:16:21Z</time></trkpt><trkpt lat="39.73561915662696" lon="8.580878763800863"><ele>10.0</ele><time>2026-04-06T11:16:22Z</time></trkpt><trkpt lat="39.73562158353405" lon="8.581089236896963"><ele>10.0</ele><time>2026-04-06T11:16:23Z</time></trkpt><trkpt lat="39.735607034700564" lon="8.581289774024137"><ele>10.0</ele><time>2026-04-06T11:16:24Z</time></trkpt><trkpt lat="39.73560877239437" lon="8.581478710353181"><ele>10.0</ele><time>2026-04-06T11:16:25Z</time></trkpt><trkpt lat="39.73561140012272" lon="8.58166093366978"><ele>10.0</ele><time>2026-04-06T11:16:26Z</time></trkpt><trkpt lat="39.73561366810453" lon="8.581828252145765"><ele>10.0</ele><time>2026-04-06T11:16:27Z</time></trkpt><trkpt lat="39.73563224207943" lon="8.581983888846276"><ele>10.0</ele><time>2026-04-06T11:16:28Z</time></trkpt><trkpt lat="39.735631098970835" lon="8.582113115837057"><ele>10.0</ele><time>2026-04-06T11:16:29Z</time></trkpt><trkpt lat="39.73562998391076" lon="8.582235141738272"><ele>10.0</ele><time>2026-04-06T11:16:30Z</time></trkpt><trkpt lat="39.73562923951311" lon="8.58233226464959"><ele>10.0</ele><time>2026-04-06T11:16:31Z</time></trkpt><trkpt lat="39.735628639190026" lon="8.582467278465627"><ele>10.0</ele><time>2026-04-06T11:16:33Z</time></trkpt><trkpt lat="39.735630583633075" lon="8.58256496159072"><ele>10.0</ele><time>2026-04-06T11:16:54Z</time></trkpt><trkpt lat="39.73576397854129" lon="8.58266096302848"><ele>10.0</ele><time>2026-04-06T11:16:57Z</time></trkpt><trkpt lat="39.73586732191889" lon="8.582668284921528"><ele>10.0</ele><time>2026-04-06T11:16:58Z</time></trkpt><trkpt lat="39.73596859844272" lon="8.582670632467183"><ele>10.0</ele><time>2026-04-06T11:16:59Z</time></trkpt><trkpt lat="39.73609843943442" lon="8.58266985206404"><ele>10.0</ele><time>2026-04-06T11:17:00Z</time></trkpt><trkpt lat="39.7362485104107" lon="8.582666876673395"><ele>10.0</ele><time>2026-04-06T11:17:01Z</time></trkpt><trkpt lat="39.736402727293324" lon="8.582665908268824"><ele>10.0</ele><time>2026-04-06T11:17:02Z</time></trkpt><trkpt lat="39.73658564298845" lon="8.582659554730723"><ele>10.0</ele><time>2026-04-06T11:17:03Z</time></trkpt><trkpt lat="39.73678495330673" lon="8.582654612828156"><ele>10.333333333333334</ele><time>2026-04-06T11:17:04Z</time></trkpt><trkpt lat="39.736975976411195" lon="8.582651383080961"><ele>10.666666666666666</ele><time>2026-04-06T11:17:05Z</time></trkpt><trkpt lat="39.73718085398923" lon="8.582647882418467"><ele>11.0</ele><time>2026-04-06T11:17:06Z</time></trkpt><trkpt lat="39.73740351522686" lon="8.582645471311059"><ele>11.0</ele><time>2026-04-06T11:17:07Z</time></trkpt><trkpt lat="39.7376342587788" lon="8.582640578149014"><ele>11.0</ele><time>2026-04-06T11:17:08Z</time></trkpt><trkpt lat="39.737861412139196" lon="8.582633361572727"><ele>10.5</ele><time>2026-04-06T11:17:09Z</time></trkpt><trkpt lat="39.73809312551223" lon="8.582629467688376"><ele>10.0</ele><time>2026-04-06T11:17:10Z</time></trkpt><trkpt lat="39.73833898214394" lon="8.582625771181432"><ele>11.0</ele><time>2026-04-06T11:17:11Z</time></trkpt><trkpt lat="39.73859402947567" lon="8.582623719713872"><ele>12.0</ele><time>2026-04-06T11:17:12Z</time></trkpt><trkpt lat="39.73884823752128" lon="8.58262325156825"><ele>12.0</ele><time>2026-04-06T11:17:13Z</time></trkpt><trkpt lat="39.73908986423306" lon="8.582626127586938"><ele>12.0</ele><time>2026-04-06T11:17:14Z</time></trkpt><trkpt lat="39.73933354332316" lon="8.58262512135238"><ele>11.5</ele><time>2026-04-06T11:17:15Z</time></trkpt><trkpt lat="39.7395837907058" lon="8.58262178093634"><ele>11.0</ele><time>2026-04-06T11:17:16Z</time></trkpt><trkpt lat="39.73982918443726" lon="8.582617371573022"><ele>11.0</ele><time>2026-04-06T11:17:17Z</time></trkpt><trkpt lat="39.740077254038276" lon="8.582614738080778"><ele>11.0</ele><time>2026-04-06T11:17:18Z</time></trkpt><trkpt lat="39.74030742448914" lon="8.582613687193598"><ele>10.666666666666666</ele><time>2026-04-06T11:17:19Z</time></trkpt><trkpt lat="39.740531145512364" lon="8.582612732607178"><ele>10.333333333333334</ele><time>2026-04-06T11:17:20Z</time></trkpt><trkpt lat="39.74075536480106" lon="8.582609062318665"><ele>10.0</ele><time>2026-04-06T11:17:21Z</time></trkpt><trkpt lat="39.74098134311407" lon="8.582608507574713"><ele>10.0</ele><time>2026-04-06T11:17:22Z</time></trkpt><trkpt lat="39.74120618147494" lon="8.582606413764227"><ele>10.0</ele><time>2026-04-06T11:17:23Z</time></trkpt><trkpt lat="39.74143271712996" lon="8.582603595987518"><ele>10.0</ele><time>2026-04-06T11:17:24Z</time></trkpt><trkpt lat="39.74166378573491" lon="8.582602272181985"><ele>10.0</ele><time>2026-04-06T11:17:25Z</time></trkpt><trkpt lat="39.74190481956822" lon="8.58260130424352"><ele>10.0</ele><time>2026-04-06T11:17:26Z</time></trkpt><trkpt lat="39.742167137842536" lon="8.582601758912794"><ele>10.0</ele><time>2026-04-06T11:17:27Z</time></trkpt><trkpt lat="39.742430806771935" lon="8.58259840516116"><ele>10.0</ele><time>2026-04-06T11:17:28Z</time></trkpt><trkpt lat="39.742705976282195" lon="8.582594840724841"><ele>10.0</ele><time>2026-04-06T11:17:29Z</time></trkpt><trkpt lat="39.7429919602849" lon="8.58258745702169"><ele>11.0</ele><time>2026-04-06T11:17:30Z</time></trkpt><trkpt lat="39.74328920759279" lon="8.582602993915806"><ele>12.0</ele><time>2026-04-06T11:17:31Z</time></trkpt><trkpt lat="39.743590290240306" lon="8.582600978536897"><ele>12.5</ele><time>2026-04-06T11:17:32Z</time></trkpt><trkpt lat="39.743897433109396" lon="8.582578562328454"><ele>13.0</ele><time>2026-04-06T11:17:33Z</time></trkpt><trkpt lat="39.74420148141951" lon="8.582588087245517"><ele>12.5</ele><time>2026-04-06T11:17:34Z</time></trkpt><trkpt lat="39.74447668149058" lon="8.582588972632715"><ele>12.0</ele><time>2026-04-06T11:17:35Z</time></trkpt><trkpt lat="39.74473100872681" lon="8.582583017027023"><ele>12.0</ele><time>2026-04-06T11:17:36Z</time></trkpt><trkpt lat="39.744955291948365" lon="8.582578269946458"><ele>12.0</ele><time>2026-04-06T11:17:37Z</time></trkpt><trkpt lat="39.74515954507349" lon="8.582580307433867"><ele>12.0</ele><time>2026-04-06T11:17:38Z</time></trkpt><trkpt lat="39.74535242725359" lon="8.582580537249214"><ele>12.0</ele><time>2026-04-06T11:17:39Z</time></trkpt><trkpt lat="39.74553561130995" lon="8.582581308340961"><ele>12.0</ele><time>2026-04-06T11:17:40Z</time></trkpt><trkpt lat="39.745714480535995" lon="8.582579717943272"><ele>12.0</ele><time>2026-04-06T11:17:41Z</time></trkpt><trkpt lat="39.74588371341007" lon="8.582575778530705"><ele>12.0</ele><time>2026-04-06T11:17:42Z</time></trkpt><trkpt lat="39.74604441664151" lon="8.58257190857873"><ele>12.0</ele><time>2026-04-06T11:17:43Z</time></trkpt><trkpt lat="39.74619938849314" lon="8.582569080125658"><ele>12.0</ele><time>2026-04-06T11:17:44Z</time></trkpt><trkpt lat="39.74636547941282" lon="8.582566437600391"><ele>12.0</ele><time>2026-04-06T11:17:45Z</time></trkpt><trkpt lat="39.746546208918986" lon="8.582583190443053"><ele>12.0</ele><time>2026-04-06T11:17:46Z</time></trkpt><trkpt lat="39.74674272946484" lon="8.582582426714534"><ele>12.0</ele><time>2026-04-06T11:17:47Z</time></trkpt><trkpt lat="39.74695826136458" lon="8.58256291776328"><ele>12.0</ele><time>2026-04-06T11:17:48Z</time></trkpt><trkpt lat="39.74717301850717" lon="8.58257842518906"><ele>12.0</ele><time>2026-04-06T11:17:49Z</time></trkpt><trkpt lat="39.74740955652369" lon="8.582584917811012"><ele>12.0</ele><time>2026-04-06T11:17:50Z</time></trkpt><trkpt lat="39.747645282336904" lon="8.582579500564776"><ele>12.0</ele><time>2026-04-06T11:17:51Z</time></trkpt><trkpt lat="39.747863123432616" lon="8.582576173905805"><ele>11.666666666666666</ele><time>2026-04-06T11:17:52Z</time></trkpt><trkpt lat="39.74806504950274" lon="8.582576410024881"><ele>11.333333333333332</ele><time>2026-04-06T11:17:53Z</time></trkpt><trkpt lat="39.74825064505653" lon="8.58257658274634"><ele>11.0</ele><time>2026-04-06T11:17:54Z</time></trkpt><trkpt lat="39.748426003197764" lon="8.582574779238767"><ele>10.666666666666666</ele><time>2026-04-06T11:17:55Z</time></trkpt><trkpt lat="39.74860343447426" lon="8.582573487505405"><ele>10.333333333333334</ele><time>2026-04-06T11:17:56Z</time></trkpt><trkpt lat="39.74876627039765" lon="8.58257585365288"><ele>10.0</ele><time>2026-04-06T11:17:57Z</time></trkpt><trkpt lat="39.74891787513842" lon="8.5825829418941"><ele>10.0</ele><time>2026-04-06T11:17:58Z</time></trkpt><trkpt lat="39.74906094576485" lon="8.582588045240595"><ele>10.0</ele><time>2026-04-06T11:17:59Z</time></trkpt><trkpt lat="39.749197578811724" lon="8.582592069885347"><ele>10.0</ele><time>2026-04-06T11:18:00Z</time></trkpt><trkpt lat="39.749321977547005" lon="8.582595055796139"><ele>10.0</ele><time>2026-04-06T11:18:01Z</time></trkpt><trkpt lat="39.74944001485606" lon="8.58259953003575"><ele>9.5</ele><time>2026-04-06T11:18:02Z</time></trkpt><trkpt lat="39.749562234678585" lon="8.5826032280241"><ele>9.0</ele><time>2026-04-06T11:18:03Z</time></trkpt><trkpt lat="39.74968290984822" lon="8.58260584245291"><ele>8.5</ele><time>2026-04-06T11:18:04Z</time></trkpt><trkpt lat="39.74979122436756" lon="8.582630810965599"><ele>8.0</ele><time>2026-04-06T11:18:05Z</time></trkpt><trkpt lat="39.74988055277509" lon="8.582682711662919"><ele>8.0</ele><time>2026-04-06T11:18:06Z</time></trkpt><trkpt lat="39.749963112443396" lon="8.582731517583237"><ele>8.0</ele><time>2026-04-06T11:18:07Z</time></trkpt><trkpt lat="39.75006343038696" lon="8.58272700046178"><ele>8.0</ele><time>2026-04-06T11:18:08Z</time></trkpt><trkpt lat="39.75033090353152" lon="8.582598774614452"><ele>8.0</ele><time>2026-04-06T11:18:10Z</time></trkpt><trkpt lat="39.7505278521174" lon="8.582598780654934"><ele>8.0</ele><time>2026-04-06T11:18:11Z</time></trkpt><trkpt lat="39.750744708929204" lon="8.582597706732468"><ele>8.0</ele><time>2026-04-06T11:18:12Z</time></trkpt><trkpt lat="39.75096153871521" lon="8.58259353863302"><ele>8.0</ele><time>2026-04-06T11:18:13Z</time></trkpt><trkpt lat="39.75119164262253" lon="8.582585268671073"><ele>8.0</ele><time>2026-04-06T11:18:14Z</time></trkpt><trkpt lat="39.7514385861202" lon="8.582576725989535"><ele>8.0</ele><time>2026-04-06T11:18:15Z</time></trkpt><trkpt lat="39.75169627254932" lon="8.582563803520191"><ele>8.0</ele><time>2026-04-06T11:18:16Z</time></trkpt><trkpt lat="39.75195007467509" lon="8.582552636532622"><ele>9.0</ele><time>2026-04-06T11:18:17Z</time></trkpt><trkpt lat="39.75221848218589" lon="8.58254152042019"><ele>10.0</ele><time>2026-04-06T11:18:18Z</time></trkpt><trkpt lat="39.75248414334586" lon="8.582535405522037"><ele>10.0</ele><time>2026-04-06T11:18:19Z</time></trkpt><trkpt lat="39.75272314176117" lon="8.582532154915697"><ele>10.0</ele><time>2026-04-06T11:18:20Z</time></trkpt><trkpt lat="39.75294312361449" lon="8.58253204410146"><ele>10.0</ele><time>2026-04-06T11:18:21Z</time></trkpt><trkpt lat="39.753149905634196" lon="8.582531575230735"><ele>10.0</ele><time>2026-04-06T11:18:22Z</time></trkpt><trkpt lat="39.753352880071766" lon="8.582532477214944"><ele>10.0</ele><time>2026-04-06T11:18:23Z</time></trkpt><trkpt lat="39.75356744612067" lon="8.582535977615123"><ele>10.0</ele><time>2026-04-06T11:18:24Z</time></trkpt><trkpt lat="39.753788093348064" lon="8.582535341997954"><ele>10.0</ele><time>2026-04-06T11:18:25Z</time></trkpt><trkpt lat="39.754023761053894" lon="8.582532866257276"><ele>10.0</ele><time>2026-04-06T11:18:26Z</time></trkpt><trkpt lat="39.754274547851615" lon="8.582527821305113"><ele>10.0</ele><time>2026-04-06T11:18:27Z</time></trkpt><trkpt lat="39.75453852385184" lon="8.582525348160067"><ele>9.5</ele><time>2026-04-06T11:18:28Z</time></trkpt><trkpt lat="39.75479312777358" lon="8.582524379684578"><ele>9.0</ele><time>2026-04-06T11:18:29Z</time></trkpt><trkpt lat="39.75503664877403" lon="8.582523449917748"><ele>9.0</ele><time>2026-04-06T11:18:30Z</time></trkpt><trkpt lat="39.75526150722743" lon="8.58252188053353"><ele>9.0</ele><time>2026-04-06T11:18:31Z</time></trkpt><trkpt lat="39.75547108832129" lon="8.582520285405327"><ele>9.0</ele><time>2026-04-06T11:18:32Z</time></trkpt><trkpt lat="39.75568265136346" lon="8.582521690304368"><ele>9.0</ele><time>2026-04-06T11:18:33Z</time></trkpt><trkpt lat="39.75589494344191" lon="8.582521797188605"><ele>9.0</ele><time>2026-04-06T11:18:34Z</time></trkpt><trkpt lat="39.7561007480657" lon="8.582518744478472"><ele>9.0</ele><time>2026-04-06T11:18:35Z</time></trkpt><trkpt lat="39.75629130445848" lon="8.58251592082298"><ele>9.0</ele><time>2026-04-06T11:18:36Z</time></trkpt><trkpt lat="39.75646473643457" lon="8.582517755962538"><ele>9.0</ele><time>2026-04-06T11:18:37Z</time></trkpt><trkpt lat="39.75662048150917" lon="8.582519226220622"><ele>9.0</ele><time>2026-04-06T11:18:38Z</time></trkpt><trkpt lat="39.75676046651518" lon="8.58253039352754"><ele>9.0</ele><time>2026-04-06T11:18:39Z</time></trkpt><trkpt lat="39.75687777927487" lon="8.582570313917984"><ele>9.0</ele><time>2026-04-06T11:18:40Z</time></trkpt><trkpt lat="39.7569841645089" lon="8.582637886588115"><ele>9.0</ele><time>2026-04-06T11:18:41Z</time></trkpt><trkpt lat="39.75709227385544" lon="8.582736856789992"><ele>9.0</ele><time>2026-04-06T11:18:42Z</time></trkpt><trkpt lat="39.75719010373241" lon="8.58285605393713"><ele>9.0</ele><time>2026-04-06T11:18:43Z</time></trkpt><trkpt lat="39.757288755870626" lon="8.582928589329228"><ele>9.0</ele><time>2026-04-06T11:18:44Z</time></trkpt><trkpt lat="39.7573956185563" lon="8.58293869056181"><ele>9.0</ele><time>2026-04-06T11:18:45Z</time></trkpt><trkpt lat="39.75749637295549" lon="8.582892165681905"><ele>9.0</ele><time>2026-04-06T11:18:46Z</time></trkpt><trkpt lat="39.757600448830765" lon="8.582797852082384"><ele>9.0</ele><time>2026-04-06T11:18:47Z</time></trkpt><trkpt lat="39.75771205366716" lon="8.58267212789507"><ele>9.0</ele><time>2026-04-06T11:18:48Z</time></trkpt><trkpt lat="39.75785509097414" lon="8.582568242533844"><ele>9.0</ele><time>2026-04-06T11:18:49Z</time></trkpt><trkpt lat="39.7580302152904" lon="8.582505614563859"><ele>9.0</ele><time>2026-04-06T11:18:50Z</time></trkpt><trkpt lat="39.758223710912745" lon="8.582490637891635"><ele>9.0</ele><time>2026-04-06T11:18:51Z</time></trkpt><trkpt lat="39.75843548243589" lon="8.58250478222283"><ele>9.0</ele><time>2026-04-06T11:18:52Z</time></trkpt><trkpt lat="39.75866928155913" lon="8.582512932021048"><ele>9.0</ele><time>2026-04-06T11:18:53Z</time></trkpt><trkpt lat="39.759156724183455" lon="8.582504613465959"><ele>9.0</ele><time>2026-04-06T11:18:55Z</time></trkpt><trkpt lat="39.75936460925362" lon="8.582500087307562"><ele>9.0</ele><time>2026-04-06T11:18:56Z</time></trkpt><trkpt lat="39.75956018649127" lon="8.582496250776533"><ele>9.0</ele><time>2026-04-06T11:18:57Z</time></trkpt><trkpt lat="39.75974376037936" lon="8.582493504864798"><ele>8.666666666666666</ele><time>2026-04-06T11:18:58Z</time></trkpt><trkpt lat="39.759938610856416" lon="8.582492781777276"><ele>8.333333333333332</ele><time>2026-04-06T11:18:59Z</time></trkpt><trkpt lat="39.76014511610791" lon="8.582493789048378"><ele>8.0</ele><time>2026-04-06T11:19:00Z</time></trkpt><trkpt lat="39.76037101673342" lon="8.582494975358584"><ele>8.0</ele><time>2026-04-06T11:19:01Z</time></trkpt><trkpt lat="39.76058781335568" lon="8.582495461525344"><ele>8.0</ele><time>2026-04-06T11:19:02Z</time></trkpt><trkpt lat="39.76080319221099" lon="8.58249359923664"><ele>8.0</ele><time>2026-04-06T11:19:03Z</time></trkpt><trkpt lat="39.761017806037216" lon="8.582490513838062"><ele>8.0</ele><time>2026-04-06T11:19:04Z</time></trkpt><trkpt lat="39.761232962298344" lon="8.582486487379693"><ele>8.0</ele><time>2026-04-06T11:19:05Z</time></trkpt><trkpt lat="39.76144905595302" lon="8.5824836092021"><ele>8.0</ele><time>2026-04-06T11:19:06Z</time></trkpt><trkpt lat="39.761665123626315" lon="8.58248267990606"><ele>7.666666666666666</ele><time>2026-04-06T11:19:07Z</time></trkpt><trkpt lat="39.76188108779533" lon="8.582480839205555"><ele>7.333333333333334</ele><time>2026-04-06T11:19:08Z</time></trkpt><trkpt lat="39.76209648227559" lon="8.582476400989407"><ele>7.0</ele><time>2026-04-06T11:19:09Z</time></trkpt><trkpt lat="39.76231099317166" lon="8.582473604133071"><ele>7.0</ele><time>2026-04-06T11:19:10Z</time></trkpt><trkpt lat="39.762526086382586" lon="8.582472017381109"><ele>7.0</ele><time>2026-04-06T11:19:11Z</time></trkpt><trkpt lat="39.76273916024566" lon="8.582470568394161"><ele>7.0</ele><time>2026-04-06T11:19:12Z</time></trkpt><trkpt lat="39.76295667273046" lon="8.582468273233646"><ele>7.333333333333334</ele><time>2026-04-06T11:19:13Z</time></trkpt><trkpt lat="39.76317286663528" lon="8.582466798442827"><ele>7.666666666666666</ele><time>2026-04-06T11:19:14Z</time></trkpt><trkpt lat="39.763390626012246" lon="8.582465329132884"><ele>8.0</ele><time>2026-04-06T11:19:15Z</time></trkpt><trkpt lat="39.763610551219465" lon="8.582465847381217"><ele>8.666666666666666</ele><time>2026-04-06T11:19:16Z</time></trkpt><trkpt lat="39.763827831754156" lon="8.582467236592407"><ele>9.333333333333334</ele><time>2026-04-06T11:19:17Z</time></trkpt><trkpt lat="39.764044351033796" lon="8.582468321194254"><ele>10.0</ele><time>2026-04-06T11:19:18Z</time></trkpt><trkpt lat="39.76426092332372" lon="8.58246662531617"><ele>10.666666666666668</ele><time>2026-04-06T11:19:19Z</time></trkpt><trkpt lat="39.764475856777686" lon="8.582461496883315"><ele>11.333333333333334</ele><time>2026-04-06T11:19:20Z</time></trkpt><trkpt lat="39.76469047711318" lon="8.582458720709498"><ele>12.0</ele><time>2026-04-06T11:19:21Z</time></trkpt><trkpt lat="39.764907048137985" lon="8.582459601222956"><ele>12.0</ele><time>2026-04-06T11:19:22Z</time></trkpt><trkpt lat="39.76512826358859" lon="8.582461558555982"><ele>12.0</ele><time>2026-04-06T11:19:23Z</time></trkpt><trkpt lat="39.76535009394383" lon="8.582460970521916"><ele>12.0</ele><time>2026-04-06T11:19:24Z</time></trkpt><trkpt lat="39.76557383509363" lon="8.582456666848223"><ele>11.0</ele><time>2026-04-06T11:19:25Z</time></trkpt><trkpt lat="39.765799671380236" lon="8.582453099206877"><ele>10.0</ele><time>2026-04-06T11:19:26Z</time></trkpt><trkpt lat="39.766027605881185" lon="8.58244967958594"><ele>10.0</ele><time>2026-04-06T11:19:27Z</time></trkpt><trkpt lat="39.76625366429012" lon="8.582446766812712"><ele>10.0</ele><time>2026-04-06T11:19:28Z</time></trkpt><trkpt lat="39.76648598464109" lon="8.58244301570541"><ele>10.0</ele><time>2026-04-06T11:19:29Z</time></trkpt><trkpt lat="39.76671019199034" lon="8.582436748085916"><ele>10.0</ele><time>2026-04-06T11:19:30Z</time></trkpt><trkpt lat="39.76691370009637" lon="8.582434279095246"><ele>10.0</ele><time>2026-04-06T11:19:31Z</time></trkpt><trkpt lat="39.76709774963377" lon="8.582433830410709"><ele>10.333333333333334</ele><time>2026-04-06T11:19:32Z</time></trkpt><trkpt lat="39.767274734404445" lon="8.582433329273417"><ele>10.666666666666666</ele><time>2026-04-06T11:19:33Z</time></trkpt><trkpt lat="39.767443982345256" lon="8.582433082679334"><ele>11.0</ele><time>2026-04-06T11:19:34Z</time></trkpt><trkpt lat="39.767598590346196" lon="8.582433805507534"><ele>11.200000000000001</ele><time>2026-04-06T11:19:35Z</time></trkpt><trkpt lat="39.76772636172674" lon="8.582436319714446"><ele>11.4</ele><time>2026-04-06T11:19:36Z</time></trkpt><trkpt lat="39.767832724144625" lon="8.582437173765811"><ele>11.6</ele><time>2026-04-06T11:19:37Z</time></trkpt><trkpt lat="39.767928960889115" lon="8.582435872062707"><ele>11.8</ele><time>2026-04-06T11:19:38Z</time></trkpt><trkpt lat="39.76802007881134" lon="8.58243394501011"><ele>12.0</ele><time>2026-04-06T11:19:39Z</time></trkpt><trkpt lat="39.768104131268295" lon="8.582432038924193"><ele>12.0</ele><time>2026-04-06T11:19:40Z</time></trkpt><trkpt lat="39.76819133464079" lon="8.582431898760824"><ele>12.0</ele><time>2026-04-06T11:19:41Z</time></trkpt><trkpt lat="39.7682769247237" lon="8.582433998649856"><ele>12.0</ele><time>2026-04-06T11:19:42Z</time></trkpt><trkpt lat="39.76836539274427" lon="8.582434270806889"><ele>12.0</ele><time>2026-04-06T11:19:43Z</time></trkpt><trkpt lat="39.76845828919157" lon="8.582434828268504"><ele>12.0</ele><time>2026-04-06T11:19:44Z</time></trkpt><trkpt lat="39.768553978786116" lon="8.582433551503813"><ele>11.8</ele><time>2026-04-06T11:19:45Z</time></trkpt><trkpt lat="39.768650781987915" lon="8.582431753381467"><ele>11.6</ele><time>2026-04-06T11:19:46Z</time></trkpt><trkpt lat="39.768754731934536" lon="8.58242981873409"><ele>11.4</ele><time>2026-04-06T11:19:47Z</time></trkpt><trkpt lat="39.76886500668969" lon="8.582431319612583"><ele>11.200000000000001</ele><time>2026-04-06T11:19:48Z</time></trkpt><trkpt lat="39.76898344342183" lon="8.582430353416838"><ele>11.0</ele><time>2026-04-06T11:19:49Z</time></trkpt><trkpt lat="39.7691063973923" lon="8.58243016321684"><ele>11.0</ele><time>2026-04-06T11:19:50Z</time></trkpt><trkpt lat="39.76923142508885" lon="8.582426435683933"><ele>11.0</ele><time>2026-04-06T11:19:51Z</time></trkpt><trkpt lat="39.7693578359844" lon="8.582426888640189"><ele>11.0</ele><time>2026-04-06T11:19:52Z</time></trkpt><trkpt lat="39.769482869064625" lon="8.582428410526973"><ele>11.0</ele><time>2026-04-06T11:19:53Z</time></trkpt><trkpt lat="39.76961203177088" lon="8.582430059368058"><ele>11.0</ele><time>2026-04-06T11:19:54Z</time></trkpt><trkpt lat="39.76973818009002" lon="8.582431707051185"><ele>11.0</ele><time>2026-04-06T11:19:55Z</time></trkpt><trkpt lat="39.76985995251832" lon="8.582429763552888"><ele>11.0</ele><time>2026-04-06T11:19:56Z</time></trkpt><trkpt lat="39.76996858891911" lon="8.582424479580729"><ele>11.0</ele><time>2026-04-06T11:19:57Z</time></trkpt><trkpt lat="39.77005986357289" lon="8.582421020920046"><ele>11.0</ele><time>2026-04-06T11:19:58Z</time></trkpt><trkpt lat="39.770146263125476" lon="8.582422491479145"><ele>10.8</ele><time>2026-04-06T11:19:59Z</time></trkpt><trkpt lat="39.77022503727537" lon="8.582425433339036"><ele>10.600000000000001</ele><time>2026-04-06T11:20:00Z</time></trkpt><trkpt lat="39.77030951682643" lon="8.582428667815176"><ele>10.4</ele><time>2026-04-06T11:20:01Z</time></trkpt><trkpt lat="39.77040805462967" lon="8.582426609772348"><ele>10.2</ele><time>2026-04-06T11:20:02Z</time></trkpt><trkpt lat="39.7705192201075" lon="8.582424148311546"><ele>10.0</ele><time>2026-04-06T11:20:03Z</time></trkpt><trkpt lat="39.77064237953907" lon="8.58241984746975"><ele>10.0</ele><time>2026-04-06T11:20:04Z</time></trkpt><trkpt lat="39.77076658587879" lon="8.582417654298096"><ele>10.0</ele><time>2026-04-06T11:20:05Z</time></trkpt><trkpt lat="39.77087785242037" lon="8.582416560190781"><ele>10.0</ele><time>2026-04-06T11:20:06Z</time></trkpt><trkpt lat="39.770980778350754" lon="8.58241573522147"><ele>10.0</ele><time>2026-04-06T11:20:07Z</time></trkpt><trkpt lat="39.77106870132967" lon="8.582415997794016"><ele>10.0</ele><time>2026-04-06T11:20:08Z</time></trkpt><trkpt lat="39.77114183606313" lon="8.582414760137674"><ele>9.8</ele><time>2026-04-06T11:20:09Z</time></trkpt><trkpt lat="39.7712202504959" lon="8.582412737701862"><ele>9.6</ele><time>2026-04-06T11:20:10Z</time></trkpt><trkpt lat="39.77130709952412" lon="8.582409950028625"><ele>9.4</ele><time>2026-04-06T11:20:11Z</time></trkpt><trkpt lat="39.77141038818374" lon="8.58240926339565"><ele>9.2</ele><time>2026-04-06T11:20:12Z</time></trkpt><trkpt lat="39.77152481000543" lon="8.582411596692802"><ele>9.0</ele><time>2026-04-06T11:20:13Z</time></trkpt><trkpt lat="39.771649672555306" lon="8.582409958883288"><ele>9.0</ele><time>2026-04-06T11:20:14Z</time></trkpt><trkpt lat="39.771787765692224" lon="8.582401755053287"><ele>9.0</ele><time>2026-04-06T11:20:15Z</time></trkpt><trkpt lat="39.77193338355113" lon="8.58239908260174"><ele>9.0</ele><time>2026-04-06T11:20:16Z</time></trkpt><trkpt lat="39.77207726942193" lon="8.582404762076349"><ele>9.0</ele><time>2026-04-06T11:20:17Z</time></trkpt><trkpt lat="39.772204584101274" lon="8.582410551188957"><ele>9.0</ele><time>2026-04-06T11:20:18Z</time></trkpt><trkpt lat="39.77232103114915" lon="8.582414103061248"><ele>9.0</ele><time>2026-04-06T11:20:19Z</time></trkpt><trkpt lat="39.772429215580715" lon="8.58241070326935"><ele>9.0</ele><time>2026-04-06T11:20:20Z</time></trkpt><trkpt lat="39.77252956876492" lon="8.582412849721768"><ele>9.0</ele><time>2026-04-06T11:20:21Z</time></trkpt><trkpt lat="39.77262298851481" lon="8.582410753694884"><ele>9.0</ele><time>2026-04-06T11:20:22Z</time></trkpt><trkpt lat="39.77271346961987" lon="8.582408352154"><ele>9.166666666666666</ele><time>2026-04-06T11:20:23Z</time></trkpt><trkpt lat="39.77279918531036" lon="8.582406950117058"><ele>9.333333333333334</ele><time>2026-04-06T11:20:24Z</time></trkpt><trkpt lat="39.772880073866986" lon="8.582407345047828"><ele>9.5</ele><time>2026-04-06T11:20:25Z</time></trkpt><trkpt lat="39.77295058231878" lon="8.58240525158254"><ele>9.666666666666668</ele><time>2026-04-06T11:20:26Z</time></trkpt><trkpt lat="39.7730444521598" lon="8.582406302260747"><ele>9.833333333333334</ele><time>2026-04-06T11:20:28Z</time></trkpt><trkpt lat="39.77310089226046" lon="8.582450638942861"><ele>10.0</ele><time>2026-04-06T11:22:48.001Z</time></trkpt><trkpt lat="39.77317220693766" lon="8.582434858553786"><ele>10.0</ele><time>2026-04-06T11:23:22.001Z</time></trkpt><trkpt lat="39.77324543894426" lon="8.582423196629728"><ele>10.0</ele><time>2026-04-06T11:23:25.001Z</time></trkpt><trkpt lat="39.77333356274573" lon="8.582414057019186"><ele>10.0</ele><time>2026-04-06T11:24:03Z</time></trkpt><trkpt lat="39.773428939993394" lon="8.582419864762091"><ele>10.0</ele><time>2026-04-06T11:24:05Z</time></trkpt><trkpt lat="39.773501873044104" lon="8.58241550397479"><ele>10.0</ele><time>2026-04-06T11:24:06Z</time></trkpt><trkpt lat="39.77356978019435" lon="8.582414444375445"><ele>10.0</ele><time>2026-04-06T11:24:07Z</time></trkpt><trkpt lat="39.77364970312863" lon="8.582413351156562"><ele>10.333333333333334</ele><time>2026-04-06T11:24:08Z</time></trkpt><trkpt lat="39.77373749848948" lon="8.58241175792394"><ele>10.666666666666668</ele><time>2026-04-06T11:24:09Z</time></trkpt><trkpt lat="39.77382520625967" lon="8.582411364203017"><ele>11.0</ele><time>2026-04-06T11:24:10Z</time></trkpt><trkpt lat="39.77391705086145" lon="8.58241189947362"><ele>11.333333333333334</ele><time>2026-04-06T11:24:11Z</time></trkpt><trkpt lat="39.774007629121016" lon="8.582408709580001"><ele>11.666666666666666</ele><time>2026-04-06T11:24:12Z</time></trkpt><trkpt lat="39.77408579187754" lon="8.582407861563752"><ele>12.0</ele><time>2026-04-06T11:24:13Z</time></trkpt><trkpt lat="39.77416459458695" lon="8.58240602070959"><ele>12.0</ele><time>2026-04-06T11:24:14Z</time></trkpt><trkpt lat="39.774240381570934" lon="8.582406730561814"><ele>12.0</ele><time>2026-04-06T11:24:15Z</time></trkpt><trkpt lat="39.77431650914217" lon="8.582408402767253"><ele>12.0</ele><time>2026-04-06T11:24:16Z</time></trkpt><trkpt lat="39.774391652305006" lon="8.582406109383097"><ele>12.0</ele><time>2026-04-06T11:24:17Z</time></trkpt><trkpt lat="39.77447006748315" lon="8.58240684968341"><ele>12.0</ele><time>2026-04-06T11:24:18Z</time></trkpt><trkpt lat="39.77455297293011" lon="8.58240558394581"><ele>12.0</ele><time>2026-04-06T11:24:19Z</time></trkpt><trkpt lat="39.7746360524312" lon="8.582401293651813"><ele>11.666666666666666</ele><time>2026-04-06T11:24:20Z</time></trkpt><trkpt lat="39.7747235658389" lon="8.58239925263172"><ele>11.333333333333334</ele><time>2026-04-06T11:24:21Z</time></trkpt><trkpt lat="39.77481061924101" lon="8.58239611159114"><ele>11.0</ele><time>2026-04-06T11:24:22Z</time></trkpt><trkpt lat="39.774891079615394" lon="8.582394189756648"><ele>10.666666666666668</ele><time>2026-04-06T11:24:23Z</time></trkpt><trkpt lat="39.77497080912907" lon="8.582393208000205"><ele>10.333333333333334</ele><time>2026-04-06T11:24:24Z</time></trkpt><trkpt lat="39.77505617164183" lon="8.582393590321121"><ele>10.0</ele><time>2026-04-06T11:24:25Z</time></trkpt><trkpt lat="39.77514416534527" lon="8.582395129334456"><ele>10.2</ele><time>2026-04-06T11:24:26Z</time></trkpt><trkpt lat="39.7752323952777" lon="8.582392796010081"><ele>10.4</ele><time>2026-04-06T11:24:27Z</time></trkpt><trkpt lat="39.775315162569726" lon="8.582389922377333"><ele>10.600000000000001</ele><time>2026-04-06T11:24:28Z</time></trkpt><trkpt lat="39.775386153118184" lon="8.582388312178802"><ele>10.8</ele><time>2026-04-06T11:24:29Z</time></trkpt><trkpt lat="39.77551276027887" lon="8.58239019084049"><ele>11.0</ele><time>2026-04-06T11:24:31Z</time></trkpt><trkpt lat="39.77559699138645" lon="8.582389242124039"><ele>11.0</ele><time>2026-04-06T11:24:32Z</time></trkpt><trkpt lat="39.77569093554681" lon="8.582386614501907"><ele>11.0</ele><time>2026-04-06T11:24:33Z</time></trkpt><trkpt lat="39.77579447504376" lon="8.5823836914363"><ele>11.0</ele><time>2026-04-06T11:24:34Z</time></trkpt><trkpt lat="39.775902844692794" lon="8.582379009228683"><ele>11.0</ele><time>2026-04-06T11:24:35Z</time></trkpt><trkpt lat="39.776012762991556" lon="8.582377017808225"><ele>11.0</ele><time>2026-04-06T11:24:36Z</time></trkpt><trkpt lat="39.77612438568108" lon="8.582378136378644"><ele>11.25</ele><time>2026-04-06T11:24:37Z</time></trkpt><trkpt lat="39.776232331792954" lon="8.582380142338353"><ele>11.5</ele><time>2026-04-06T11:24:38Z</time></trkpt><trkpt lat="39.77634347078259" lon="8.582380899962072"><ele>11.75</ele><time>2026-04-06T11:24:39Z</time></trkpt><trkpt lat="39.776464800576164" lon="8.58238073560824"><ele>12.0</ele><time>2026-04-06T11:24:40Z</time></trkpt><trkpt lat="39.7765850163456" lon="8.582375913148434"><ele>12.0</ele><time>2026-04-06T11:24:41Z</time></trkpt><trkpt lat="39.77670642820435" lon="8.582373293201043"><ele>12.0</ele><time>2026-04-06T11:24:42Z</time></trkpt><trkpt lat="39.77683304416867" lon="8.582369610188515"><ele>12.0</ele><time>2026-04-06T11:24:43Z</time></trkpt><trkpt lat="39.776961776674156" lon="8.582365634750104"><ele>12.0</ele><time>2026-04-06T11:24:44Z</time></trkpt><trkpt lat="39.77708352809512" lon="8.58236354239627"><ele>11.5</ele><time>2026-04-06T11:24:45Z</time></trkpt><trkpt lat="39.77720530556835" lon="8.582362643486904"><ele>11.0</ele><time>2026-04-06T11:24:46Z</time></trkpt><trkpt lat="39.777322413201624" lon="8.582360911682649"><ele>10.5</ele><time>2026-04-06T11:24:47Z</time></trkpt><trkpt lat="39.77744507843304" lon="8.582361896196458"><ele>10.0</ele><time>2026-04-06T11:24:48Z</time></trkpt><trkpt lat="39.77756984208466" lon="8.582360947088482"><ele>10.5</ele><time>2026-04-06T11:24:49Z</time></trkpt><trkpt lat="39.77769791789624" lon="8.582357614917965"><ele>11.0</ele><time>2026-04-06T11:24:50Z</time></trkpt><trkpt lat="39.777828774146094" lon="8.582353674711461"><ele>11.5</ele><time>2026-04-06T11:24:51Z</time></trkpt><trkpt lat="39.777961984323426" lon="8.582351177275847"><ele>12.0</ele><time>2026-04-06T11:24:52Z</time></trkpt><trkpt lat="39.77809291632198" lon="8.582352460126208"><ele>12.0</ele><time>2026-04-06T11:24:53Z</time></trkpt><trkpt lat="39.77822558925972" lon="8.582352662679128"><ele>12.0</ele><time>2026-04-06T11:24:54Z</time></trkpt><trkpt lat="39.778356602723576" lon="8.582350636028222"><ele>12.0</ele><time>2026-04-06T11:24:55Z</time></trkpt><trkpt lat="39.77848561487402" lon="8.582349034427326"><ele>12.0</ele><time>2026-04-06T11:24:56Z</time></trkpt><trkpt lat="39.77861111134103" lon="8.582349201498698"><ele>11.5</ele><time>2026-04-06T11:24:57Z</time></trkpt><trkpt lat="39.77873617772131" lon="8.582349521126506"><ele>11.0</ele><time>2026-04-06T11:24:58.001Z</time></trkpt><trkpt lat="39.778863961580996" lon="8.582348420305479"><ele>10.5</ele><time>2026-04-06T11:24:59.001Z</time></trkpt><trkpt lat="39.7789899524509" lon="8.582348295583643"><ele>10.0</ele><time>2026-04-06T11:25:00.001Z</time></trkpt><trkpt lat="39.779115111159236" lon="8.58234828427024"><ele>10.0</ele><time>2026-04-06T11:25:01.001Z</time></trkpt><trkpt lat="39.779241249000115" lon="8.582346966723819"><ele>10.0</ele><time>2026-04-06T11:25:02.001Z</time></trkpt><trkpt lat="39.77936253064725" lon="8.582347593153719"><ele>10.0</ele><time>2026-04-06T11:25:03.001Z</time></trkpt><trkpt lat="39.77947929923856" lon="8.582349404604997"><ele>10.0</ele><time>2026-04-06T11:25:04.001Z</time></trkpt><trkpt lat="39.77959614647674" lon="8.582348325127214"><ele>9.75</ele><time>2026-04-06T11:25:05.001Z</time></trkpt><trkpt lat="39.77971497884252" lon="8.58234701533362"><ele>9.5</ele><time>2026-04-06T11:25:06.001Z</time></trkpt><trkpt lat="39.77983943323268" lon="8.582344362574611"><ele>9.25</ele><time>2026-04-06T11:25:07.001Z</time></trkpt><trkpt lat="39.779974672769036" lon="8.582343054067994"><ele>9.0</ele><time>2026-04-06T11:25:08.001Z</time></trkpt><trkpt lat="39.78011089409938" lon="8.582341992083947"><ele>8.75</ele><time>2026-04-06T11:25:09.001Z</time></trkpt><trkpt lat="39.78025169161901" lon="8.58234276991851"><ele>8.5</ele><time>2026-04-06T11:25:10.001Z</time></trkpt><trkpt lat="39.780396606985704" lon="8.582343750908853"><ele>8.25</ele><time>2026-04-06T11:25:11.001Z</time></trkpt><trkpt lat="39.78054986992905" lon="8.582343659144277"><ele>8.0</ele><time>2026-04-06T11:25:12.001Z</time></trkpt><trkpt lat="39.78070800215994" lon="8.582341986388078"><ele>8.0</ele><time>2026-04-06T11:25:13.001Z</time></trkpt><trkpt lat="39.78087786247855" lon="8.582339656561684"><ele>8.0</ele><time>2026-04-06T11:25:14.001Z</time></trkpt><trkpt lat="39.781055464921124" lon="8.582339629492434"><ele>8.0</ele><time>2026-04-06T11:25:15.001Z</time></trkpt><trkpt lat="39.78122875504987" lon="8.582339722861903"><ele>8.333333333333332</ele><time>2026-04-06T11:25:16.001Z</time></trkpt><trkpt lat="39.78139529648282" lon="8.582338260625425"><ele>8.666666666666666</ele><time>2026-04-06T11:25:17.001Z</time></trkpt><trkpt lat="39.781566585242295" lon="8.582335877802741"><ele>9.0</ele><time>2026-04-06T11:25:18.001Z</time></trkpt><trkpt lat="39.78173926248661" lon="8.582333964947688"><ele>8.333333333333334</ele><time>2026-04-06T11:25:19.001Z</time></trkpt><trkpt lat="39.78191850949063" lon="8.58233196583262"><ele>7.666666666666667</ele><time>2026-04-06T11:25:20.001Z</time></trkpt><trkpt lat="39.782099597068516" lon="8.582330127908163"><ele>7.0</ele><time>2026-04-06T11:25:21.001Z</time></trkpt><trkpt lat="39.78228558002689" lon="8.58232777841687"><ele>7.0</ele><time>2026-04-06T11:25:22.001Z</time></trkpt><trkpt lat="39.78247352082152" lon="8.582327031108408"><ele>7.0</ele><time>2026-04-06T11:25:23.001Z</time></trkpt><trkpt lat="39.78266314018236" lon="8.582326451007717"><ele>7.0</ele><time>2026-04-06T11:25:24.001Z</time></trkpt><trkpt lat="39.78285709814822" lon="8.582325892460172"><ele>7.0</ele><time>2026-04-06T11:25:25.001Z</time></trkpt><trkpt lat="39.78305226963552" lon="8.582325581392638"><ele>7.0</ele><time>2026-04-06T11:25:26.001Z</time></trkpt><trkpt lat="39.783245277348804" lon="8.582324672470486"><ele>7.0</ele><time>2026-04-06T11:25:27.001Z</time></trkpt><trkpt lat="39.78343477682221" lon="8.582323926123554"><ele>6.666666666666667</ele><time>2026-04-06T11:25:28.001Z</time></trkpt><trkpt lat="39.78362091579752" lon="8.582323016625221"><ele>6.333333333333334</ele><time>2026-04-06T11:25:29.001Z</time></trkpt><trkpt lat="39.78380981889339" lon="8.582322571747254"><ele>6.0</ele><time>2026-04-06T11:25:30.001Z</time></trkpt><trkpt lat="39.783998839352996" lon="8.582320564139623"><ele>6.0</ele><time>2026-04-06T11:25:31.001Z</time></trkpt><trkpt lat="39.78418001201668" lon="8.58231979561964"><ele>6.0</ele><time>2026-04-06T11:25:32.001Z</time></trkpt><trkpt lat="39.78435000109696" lon="8.582317685785712"><ele>6.0</ele><time>2026-04-06T11:25:33.001Z</time></trkpt><trkpt lat="39.784519225241425" lon="8.582314307089373"><ele>6.0</ele><time>2026-04-06T11:25:34.001Z</time></trkpt><trkpt lat="39.78468842826761" lon="8.582313158975685"><ele>6.0</ele><time>2026-04-06T11:25:35.001Z</time></trkpt><trkpt lat="39.78485599948251" lon="8.58231382474797"><ele>6.0</ele><time>2026-04-06T11:25:36.001Z</time></trkpt><trkpt lat="39.785024155669895" lon="8.58231598604234"><ele>6.0</ele><time>2026-04-06T11:25:37.001Z</time></trkpt><trkpt lat="39.785193502638485" lon="8.582312754855403"><ele>6.0</ele><time>2026-04-06T11:25:38.001Z</time></trkpt><trkpt lat="39.785360179321074" lon="8.58231325140546"><ele>6.0</ele><time>2026-04-06T11:25:39.001Z</time></trkpt><trkpt lat="39.78552799564313" lon="8.582312882231935"><ele>6.0</ele><time>2026-04-06T11:25:40.001Z</time></trkpt><trkpt lat="39.785687683265984" lon="8.582310681797768"><ele>6.0</ele><time>2026-04-06T11:25:41.001Z</time></trkpt><trkpt lat="39.78583678326823" lon="8.582308553165749"><ele>6.0</ele><time>2026-04-06T11:25:42.001Z</time></trkpt><trkpt lat="39.785979158073474" lon="8.58230878790938"><ele>6.75</ele><time>2026-04-06T11:25:43.001Z</time></trkpt><trkpt lat="39.78611388528459" lon="8.582309698857685"><ele>7.5</ele><time>2026-04-06T11:25:44.001Z</time></trkpt><trkpt lat="39.78624604851048" lon="8.582309682246342"><ele>8.25</ele><time>2026-04-06T11:25:45.001Z</time></trkpt><trkpt lat="39.78638031444299" lon="8.582311491326083"><ele>9.0</ele><time>2026-04-06T11:25:46.001Z</time></trkpt><trkpt lat="39.78652106263309" lon="8.582312151460977"><ele>9.0</ele><time>2026-04-06T11:25:47.001Z</time></trkpt><trkpt lat="39.78666768415215" lon="8.58230942590481"><ele>9.0</ele><time>2026-04-06T11:25:48.001Z</time></trkpt><trkpt lat="39.78682110425017" lon="8.582304808191596"><ele>9.0</ele><time>2026-04-06T11:25:49.001Z</time></trkpt><trkpt lat="39.786976853735865" lon="8.582301701220848"><ele>9.333333333333334</ele><time>2026-04-06T11:25:50.001Z</time></trkpt><trkpt lat="39.787137337661925" lon="8.582299458124035"><ele>9.666666666666668</ele><time>2026-04-06T11:25:51.001Z</time></trkpt><trkpt lat="39.78730194877929" lon="8.582296565623494"><ele>10.0</ele><time>2026-04-06T11:25:52.001Z</time></trkpt><trkpt lat="39.78747430223384" lon="8.582294019759605"><ele>10.0</ele><time>2026-04-06T11:25:53.001Z</time></trkpt><trkpt lat="39.78765484952109" lon="8.582292608723696"><ele>10.0</ele><time>2026-04-06T11:25:54.001Z</time></trkpt><trkpt lat="39.78784410813946" lon="8.582292423110292"><ele>10.0</ele><time>2026-04-06T11:25:55.001Z</time></trkpt><trkpt lat="39.7880431554391" lon="8.582293426276435"><ele>9.666666666666668</ele><time>2026-04-06T11:25:56.001Z</time></trkpt><trkpt lat="39.78825115212315" lon="8.582294851161144"><ele>9.333333333333334</ele><time>2026-04-06T11:25:57.001Z</time></trkpt><trkpt lat="39.788463741631716" lon="8.58229579098876"><ele>9.0</ele><time>2026-04-06T11:25:58.001Z</time></trkpt><trkpt lat="39.78868243434868" lon="8.58229538085287"><ele>9.0</ele><time>2026-04-06T11:25:59.001Z</time></trkpt><trkpt lat="39.78890920988962" lon="8.582294823768786"><ele>9.0</ele><time>2026-04-06T11:26:00.001Z</time></trkpt><trkpt lat="39.78914296564916" lon="8.582293062483714"><ele>8.5</ele><time>2026-04-06T11:26:01.001Z</time></trkpt><trkpt lat="39.78938070155083" lon="8.582291111081291"><ele>8.0</ele><time>2026-04-06T11:26:02.001Z</time></trkpt><trkpt lat="39.78961193362564" lon="8.58228846962249"><ele>8.0</ele><time>2026-04-06T11:26:03.001Z</time></trkpt><trkpt lat="39.78984095680148" lon="8.58228531018852"><ele>8.0</ele><time>2026-04-06T11:26:04.001Z</time></trkpt><trkpt lat="39.79006716475268" lon="8.58228252359443"><ele>8.0</ele><time>2026-04-06T11:26:05.001Z</time></trkpt><trkpt lat="39.79028952124294" lon="8.582279732380599"><ele>8.0</ele><time>2026-04-06T11:26:06.001Z</time></trkpt><trkpt lat="39.790511278976325" lon="8.582276342579862"><ele>8.0</ele><time>2026-04-06T11:26:07Z</time></trkpt><trkpt lat="39.79073277083702" lon="8.582274036300461"><ele>8.0</ele><time>2026-04-06T11:26:08Z</time></trkpt><trkpt lat="39.790950768892245" lon="8.582272573257198"><ele>8.0</ele><time>2026-04-06T11:26:09Z</time></trkpt><trkpt lat="39.791171567717676" lon="8.582269842218246"><ele>8.0</ele><time>2026-04-06T11:26:10Z</time></trkpt><trkpt lat="39.791390734001304" lon="8.582267204198894"><ele>8.0</ele><time>2026-04-06T11:26:11Z</time></trkpt><trkpt lat="39.791610789368576" lon="8.582265041348599"><ele>8.0</ele><time>2026-04-06T11:26:12Z</time></trkpt><trkpt lat="39.79183382964392" lon="8.582263899164866"><ele>8.0</ele><time>2026-04-06T11:26:13Z</time></trkpt><trkpt lat="39.79205893051359" lon="8.582262193075564"><ele>8.0</ele><time>2026-04-06T11:26:14Z</time></trkpt><trkpt lat="39.792283915081214" lon="8.582260612676464"><ele>8.0</ele><time>2026-04-06T11:26:15Z</time></trkpt><trkpt lat="39.792510231601035" lon="8.58226027526754"><ele>8.0</ele><time>2026-04-06T11:26:16Z</time></trkpt><trkpt lat="39.79273873242647" lon="8.58225954533471"><ele>8.0</ele><time>2026-04-06T11:26:17Z</time></trkpt><trkpt lat="39.79296643598019" lon="8.582259536148857"><ele>8.0</ele><time>2026-04-06T11:26:18Z</time></trkpt><trkpt lat="39.79319511758093" lon="8.582259872229068"><ele>8.0</ele><time>2026-04-06T11:26:19Z</time></trkpt><trkpt lat="39.79342032831558" lon="8.582259636735305"><ele>8.666666666666666</ele><time>2026-04-06T11:26:20Z</time></trkpt><trkpt lat="39.79364122104906" lon="8.582259282484038"><ele>9.333333333333334</ele><time>2026-04-06T11:26:21Z</time></trkpt><trkpt lat="39.79386157092848" lon="8.58225811322631"><ele>10.0</ele><time>2026-04-06T11:26:22Z</time></trkpt><trkpt lat="39.79407343745782" lon="8.582256081109389"><ele>10.0</ele><time>2026-04-06T11:26:23Z</time></trkpt><trkpt lat="39.794279033272865" lon="8.582253695664813"><ele>10.0</ele><time>2026-04-06T11:26:24Z</time></trkpt><trkpt lat="39.79448875009454" lon="8.582251504311513"><ele>10.0</ele><time>2026-04-06T11:26:25Z</time></trkpt><trkpt lat="39.79469711543581" lon="8.58224837052624"><ele>11.333333333333334</ele><time>2026-04-06T11:26:26Z</time></trkpt><trkpt lat="39.79490194539848" lon="8.582247102747099"><ele>12.666666666666668</ele><time>2026-04-06T11:26:27Z</time></trkpt><trkpt lat="39.795110468459086" lon="8.582244428093508"><ele>14.0</ele><time>2026-04-06T11:26:28Z</time></trkpt><trkpt lat="39.795320860902365" lon="8.582240134870284"><ele>14.0</ele><time>2026-04-06T11:26:29Z</time></trkpt><trkpt lat="39.79552802785616" lon="8.582236340949839"><ele>14.0</ele><time>2026-04-06T11:26:30Z</time></trkpt><trkpt lat="39.79571762903696" lon="8.582232924553237"><ele>14.0</ele><time>2026-04-06T11:26:31Z</time></trkpt><trkpt lat="39.795892036404275" lon="8.582230621014984"><ele>13.0</ele><time>2026-04-06T11:26:32Z</time></trkpt><trkpt lat="39.79604442365989" lon="8.58223232979923"><ele>12.0</ele><time>2026-04-06T11:26:33Z</time></trkpt><trkpt lat="39.7961774504783" lon="8.582231444749587"><ele>11.0</ele><time>2026-04-06T11:26:34Z</time></trkpt><trkpt lat="39.79629741533092" lon="8.582229024196183"><ele>10.0</ele><time>2026-04-06T11:26:35Z</time></trkpt><trkpt lat="39.79640918713916" lon="8.582225280965707"><ele>10.0</ele><time>2026-04-06T11:26:36Z</time></trkpt><trkpt lat="39.796520247323436" lon="8.58222224597387"><ele>10.0</ele><time>2026-04-06T11:26:37Z</time></trkpt><trkpt lat="39.79663242940338" lon="8.58222565219029"><ele>10.0</ele><time>2026-04-06T11:26:38Z</time></trkpt><trkpt lat="39.79675589769307" lon="8.582227223422713"><ele>10.0</ele><time>2026-04-06T11:26:39Z</time></trkpt><trkpt lat="39.796875097205486" lon="8.582228771253225"><ele>9.75</ele><time>2026-04-06T11:26:40Z</time></trkpt><trkpt lat="39.79699649550217" lon="8.582225005785602"><ele>9.5</ele><time>2026-04-06T11:26:41Z</time></trkpt><trkpt lat="39.79712754558135" lon="8.582220371083112"><ele>9.25</ele><time>2026-04-06T11:26:42Z</time></trkpt><trkpt lat="39.79727275221637" lon="8.582219046895311"><ele>9.0</ele><time>2026-04-06T11:26:43Z</time></trkpt><trkpt lat="39.79743651384949" lon="8.582216618103532"><ele>9.0</ele><time>2026-04-06T11:26:44Z</time></trkpt><trkpt lat="39.79760887821115" lon="8.582220613154927"><ele>9.0</ele><time>2026-04-06T11:26:45Z</time></trkpt><trkpt lat="39.79779046442444" lon="8.58222544995443"><ele>9.0</ele><time>2026-04-06T11:26:46Z</time></trkpt><trkpt lat="39.79798065284214" lon="8.582223723884262"><ele>8.0</ele><time>2026-04-06T11:26:47Z</time></trkpt><trkpt lat="39.79817538060695" lon="8.582220347540137"><ele>7.0</ele><time>2026-04-06T11:26:48Z</time></trkpt><trkpt lat="39.79837567039232" lon="8.582220080754468"><ele>6.0</ele><time>2026-04-06T11:26:49Z</time></trkpt><trkpt lat="39.798585629899414" lon="8.582219352187792"><ele>5.333333333333333</ele><time>2026-04-06T11:26:50Z</time></trkpt><trkpt lat="39.79879981207098" lon="8.582217448532504"><ele>4.666666666666666</ele><time>2026-04-06T11:26:51Z</time></trkpt><trkpt lat="39.79900870344212" lon="8.582214608282639"><ele>4.0</ele><time>2026-04-06T11:26:52Z</time></trkpt><trkpt lat="39.79922470227983" lon="8.582212097863135"><ele>4.333333333333333</ele><time>2026-04-06T11:26:53Z</time></trkpt><trkpt lat="39.79943616414965" lon="8.582210180386411"><ele>4.666666666666667</ele><time>2026-04-06T11:26:54Z</time></trkpt><trkpt lat="39.79963815842243" lon="8.582209477029423"><ele>5.0</ele><time>2026-04-06T11:26:55Z</time></trkpt><trkpt lat="39.799833376303916" lon="8.582208979966687"><ele>5.0</ele><time>2026-04-06T11:26:56Z</time></trkpt><trkpt lat="39.80002712312592" lon="8.582208125286218"><ele>5.0</ele><time>2026-04-06T11:26:57Z</time></trkpt><trkpt lat="39.80021890509623" lon="8.582207374298283"><ele>5.0</ele><time>2026-04-06T11:26:58Z</time></trkpt><trkpt lat="39.80040893265187" lon="8.582206965161042"><ele>5.0</ele><time>2026-04-06T11:26:59Z</time></trkpt><trkpt lat="39.80059828429955" lon="8.582204560461676"><ele>5.0</ele><time>2026-04-06T11:27:00Z</time></trkpt><trkpt lat="39.80078571437631" lon="8.582201736689198"><ele>5.0</ele><time>2026-04-06T11:27:01Z</time></trkpt><trkpt lat="39.80097322190453" lon="8.582198565446255"><ele>5.666666666666667</ele><time>2026-04-06T11:27:02Z</time></trkpt><trkpt lat="39.801157477286665" lon="8.582197127297478"><ele>6.333333333333334</ele><time>2026-04-06T11:27:03Z</time></trkpt><trkpt lat="39.8013395964768" lon="8.582195724115191"><ele>7.0</ele><time>2026-04-06T11:27:04Z</time></trkpt><trkpt lat="39.80149504557582" lon="8.582193758571067"><ele>7.0</ele><time>2026-04-06T11:27:05Z</time></trkpt><trkpt lat="39.80162402660192" lon="8.582192398847715"><ele>6.999999999999999</ele><time>2026-04-06T11:27:06Z</time></trkpt><trkpt lat="39.801728985740915" lon="8.582190232533735"><ele>6.999999999999999</ele><time>2026-04-06T11:27:07Z</time></trkpt><trkpt lat="39.80180461147503" lon="8.58218848922152"><ele>7.0</ele><time>2026-04-06T11:27:08Z</time></trkpt><trkpt lat="39.80188020363331" lon="8.582186653531366"><ele>7.0</ele><time>2026-04-06T11:27:45Z</time></trkpt><trkpt lat="39.80196823942296" lon="8.582193050014432"><ele>6.6</ele><time>2026-04-06T11:27:47Z</time></trkpt><trkpt lat="39.80203829933341" lon="8.582191087164762"><ele>6.199999999999999</ele><time>2026-04-06T11:27:48Z</time></trkpt><trkpt lat="39.802126110598756" lon="8.582186131730127"><ele>5.8</ele><time>2026-04-06T11:27:49Z</time></trkpt><trkpt lat="39.802212846246995" lon="8.5821825973122"><ele>5.4</ele><time>2026-04-06T11:27:50Z</time></trkpt><trkpt lat="39.80231287824819" lon="8.582181491807207"><ele>5.0</ele><time>2026-04-06T11:27:51Z</time></trkpt><trkpt lat="39.802429590097205" lon="8.582179733808301"><ele>5.0</ele><time>2026-04-06T11:27:52Z</time></trkpt><trkpt lat="39.80256346456337" lon="8.582175731752061"><ele>5.0</ele><time>2026-04-06T11:27:53Z</time></trkpt><trkpt lat="39.802697378815246" lon="8.582174140863488"><ele>5.0</ele><time>2026-04-06T11:27:54Z</time></trkpt><trkpt lat="39.80284145231005" lon="8.582175657259745"><ele>5.0</ele><time>2026-04-06T11:27:55Z</time></trkpt><trkpt lat="39.80299825920418" lon="8.582174721620909"><ele>4.666666666666667</ele><time>2026-04-06T11:27:56Z</time></trkpt><trkpt lat="39.80317091680324" lon="8.582172364909848"><ele>4.333333333333333</ele><time>2026-04-06T11:27:57Z</time></trkpt><trkpt lat="39.803345953864124" lon="8.582171576215755"><ele>4.0</ele><time>2026-04-06T11:27:58Z</time></trkpt><trkpt lat="39.80352087706865" lon="8.582169849440088"><ele>4.0</ele><time>2026-04-06T11:27:59Z</time></trkpt><trkpt lat="39.80370109003355" lon="8.58216770008515"><ele>4.0</ele><time>2026-04-06T11:28:00Z</time></trkpt><trkpt lat="39.80383401664849" lon="8.582173379854334"><ele>4.0</ele><time>2026-04-06T11:28:01Z</time></trkpt><trkpt lat="39.804008602056" lon="8.582174353820818"><ele>4.0</ele><time>2026-04-06T11:28:02Z</time></trkpt><trkpt lat="39.80418808492663" lon="8.582174028169028"><ele>4.0</ele><time>2026-04-06T11:28:03Z</time></trkpt><trkpt lat="39.804369165316906" lon="8.582175595368406"><ele>4.0</ele><time>2026-04-06T11:28:04Z</time></trkpt><trkpt lat="39.80455289375052" lon="8.58217745210325"><ele>5.0</ele><time>2026-04-06T11:28:05Z</time></trkpt><trkpt lat="39.80474673661537" lon="8.582174466045874"><ele>6.0</ele><time>2026-04-06T11:28:06Z</time></trkpt><trkpt lat="39.804955554753235" lon="8.582171643341336"><ele>7.0</ele><time>2026-04-06T11:28:07Z</time></trkpt><trkpt lat="39.805147643462774" lon="8.582172016084638"><ele>7.0</ele><time>2026-04-06T11:28:08Z</time></trkpt><trkpt lat="39.80532797686672" lon="8.582175798379462"><ele>7.0</ele><time>2026-04-06T11:28:09Z</time></trkpt><trkpt lat="39.805514039680254" lon="8.582178710401084"><ele>7.0</ele><time>2026-04-06T11:28:10.001Z</time></trkpt><trkpt lat="39.805712464082234" lon="8.582182779450749"><ele>7.0</ele><time>2026-04-06T11:28:11.001Z</time></trkpt><trkpt lat="39.805902546526525" lon="8.5821754809491"><ele>7.0</ele><time>2026-04-06T11:28:12.001Z</time></trkpt><trkpt lat="39.80609893278893" lon="8.582170699929028"><ele>7.0</ele><time>2026-04-06T11:28:13Z</time></trkpt><trkpt lat="39.80630478690617" lon="8.582171501531134"><ele>7.0</ele><time>2026-04-06T11:28:14Z</time></trkpt><trkpt lat="39.80651625027502" lon="8.582174444692285"><ele>7.0</ele><time>2026-04-06T11:28:15Z</time></trkpt><trkpt lat="39.806731637896476" lon="8.58217121783127"><ele>7.0</ele><time>2026-04-06T11:28:16Z</time></trkpt><trkpt lat="39.80694977937506" lon="8.582170798310127"><ele>6.0</ele><time>2026-04-06T11:28:17Z</time></trkpt><trkpt lat="39.80717122578991" lon="8.582168198881252"><ele>5.0</ele><time>2026-04-06T11:28:18Z</time></trkpt><trkpt lat="39.80739923967867" lon="8.58217347603576"><ele>4.0</ele><time>2026-04-06T11:28:19Z</time></trkpt><trkpt lat="39.80763033242053" lon="8.582174111304454"><ele>4.333333333333333</ele><time>2026-04-06T11:28:20Z</time></trkpt><trkpt lat="39.80784192434542" lon="8.582174703911047"><ele>4.666666666666667</ele><time>2026-04-06T11:28:21Z</time></trkpt><trkpt lat="39.8080540445016" lon="8.58217494019141"><ele>5.0</ele><time>2026-04-06T11:28:22Z</time></trkpt><trkpt lat="39.80827393996682" lon="8.582174585511089"><ele>4.5</ele><time>2026-04-06T11:28:23Z</time></trkpt><trkpt lat="39.808498815336506" lon="8.58217888415489"><ele>4.0</ele><time>2026-04-06T11:28:24Z</time></trkpt><trkpt lat="39.80873257744169" lon="8.58217297260177"><ele>4.0</ele><time>2026-04-06T11:28:25Z</time></trkpt><trkpt lat="39.80895430568173" lon="8.582172412065407"><ele>4.0</ele><time>2026-04-06T11:28:26Z</time></trkpt><trkpt lat="39.80915326386676" lon="8.582168956181933"><ele>4.0</ele><time>2026-04-06T11:28:27Z</time></trkpt><trkpt lat="39.80934875445889" lon="8.582163075274439"><ele>4.0</ele><time>2026-04-06T11:28:28Z</time></trkpt><trkpt lat="39.8095360923615" lon="8.58216646314445"><ele>4.0</ele><time>2026-04-06T11:28:29Z</time></trkpt><trkpt lat="39.809712971261646" lon="8.582164763927615"><ele>4.0</ele><time>2026-04-06T11:28:30Z</time></trkpt><trkpt lat="39.80987377199869" lon="8.582143310128997"><ele>4.0</ele><time>2026-04-06T11:28:31Z</time></trkpt><trkpt lat="39.810031325615675" lon="8.582051643779053"><ele>4.0</ele><time>2026-04-06T11:28:32Z</time></trkpt><trkpt lat="39.81019415926379" lon="8.58191675314636"><ele>4.0</ele><time>2026-04-06T11:28:33Z</time></trkpt><trkpt lat="39.81034908267701" lon="8.58175588912222"><ele>4.0</ele><time>2026-04-06T11:28:34Z</time></trkpt><trkpt lat="39.81050827970089" lon="8.58157180701231"><ele>4.0</ele><time>2026-04-06T11:28:35Z</time></trkpt><trkpt lat="39.810676008859616" lon="8.581390615389468"><ele>4.0</ele><time>2026-04-06T11:28:36Z</time></trkpt><trkpt lat="39.81085378480284" lon="8.581210808726805"><ele>2.5</ele><time>2026-04-06T11:28:37Z</time></trkpt><trkpt lat="39.81104050881928" lon="8.58102747485426"><ele>1.0</ele><time>2026-04-06T11:28:38Z</time></trkpt><trkpt lat="39.81123352788551" lon="8.580845842553748"><ele>1.0</ele><time>2026-04-06T11:28:39Z</time></trkpt><trkpt lat="39.8114375550813" lon="8.580666699371065"><ele>1.0</ele><time>2026-04-06T11:28:40Z</time></trkpt><trkpt lat="39.81164506521774" lon="8.580487684985936"><ele>1.5</ele><time>2026-04-06T11:28:41Z</time></trkpt><trkpt lat="39.811849206000815" lon="8.580310558805591"><ele>2.0</ele><time>2026-04-06T11:28:42Z</time></trkpt><trkpt lat="39.81203181664313" lon="8.580151821250597"><ele>2.0</ele><time>2026-04-06T11:28:43Z</time></trkpt><trkpt lat="39.812201947285786" lon="8.580001216386643"><ele>2.0</ele><time>2026-04-06T11:28:44Z</time></trkpt><trkpt lat="39.81236704541958" lon="8.579854164001071"><ele>2.0</ele><time>2026-04-06T11:28:45Z</time></trkpt><trkpt lat="39.812534387818246" lon="8.579708787219563"><ele>1.6666666666666665</ele><time>2026-04-06T11:28:46Z</time></trkpt><trkpt lat="39.812703345376804" lon="8.579560868330015"><ele>1.3333333333333333</ele><time>2026-04-06T11:28:47Z</time></trkpt><trkpt lat="39.81286656501493" lon="8.579395301182593"><ele>1.0</ele><time>2026-04-06T11:28:48Z</time></trkpt><trkpt lat="39.813025343250885" lon="8.579204623102179"><ele>1.0</ele><time>2026-04-06T11:28:49Z</time></trkpt><trkpt lat="39.81317741428163" lon="8.579008465337772"><ele>1.0</ele><time>2026-04-06T11:28:50Z</time></trkpt><trkpt lat="39.813330662275895" lon="8.578803067400589"><ele>1.0</ele><time>2026-04-06T11:28:51Z</time></trkpt><trkpt lat="39.81348375182741" lon="8.578603086098964"><ele>1.0</ele><time>2026-04-06T11:28:52Z</time></trkpt><trkpt lat="39.81362641211565" lon="8.578423412282396"><ele>1.0</ele><time>2026-04-06T11:28:53Z</time></trkpt><trkpt lat="39.81376459194027" lon="8.578252880315793"><ele>1.0</ele><time>2026-04-06T11:28:54Z</time></trkpt><trkpt lat="39.81389722234876" lon="8.578064177786457"><ele>1.6666666666666665</ele><time>2026-04-06T11:28:55Z</time></trkpt><trkpt lat="39.81402094535797" lon="8.577848118147232"><ele>2.3333333333333335</ele><time>2026-04-06T11:28:56Z</time></trkpt><trkpt lat="39.814133909774526" lon="8.57760742184621"><ele>3.0</ele><time>2026-04-06T11:28:57Z</time></trkpt><trkpt lat="39.814245257720785" lon="8.577361173231093"><ele>3.0</ele><time>2026-04-06T11:28:58Z</time></trkpt><trkpt lat="39.8143596924785" lon="8.57710430100334"><ele>3.0</ele><time>2026-04-06T11:28:59Z</time></trkpt><trkpt lat="39.814477074925776" lon="8.57684841035626"><ele>3.0</ele><time>2026-04-06T11:29:00Z</time></trkpt><trkpt lat="39.814599214061694" lon="8.576586166783537"><ele>3.0</ele><time>2026-04-06T11:29:01Z</time></trkpt><trkpt lat="39.81472176018898" lon="8.576321824422386"><ele>3.5</ele><time>2026-04-06T11:29:02Z</time></trkpt><trkpt lat="39.81484548253259" lon="8.576054511590549"><ele>4.0</ele><time>2026-04-06T11:29:03Z</time></trkpt><trkpt lat="39.81497056851106" lon="8.575783882920687"><ele>4.0</ele><time>2026-04-06T11:29:04Z</time></trkpt><trkpt lat="39.81508843366287" lon="8.57551938485229"><ele>4.0</ele><time>2026-04-06T11:29:05Z</time></trkpt><trkpt lat="39.81519135448139" lon="8.57527471402863"><ele>4.0</ele><time>2026-04-06T11:29:06Z</time></trkpt><trkpt lat="39.815289866106276" lon="8.575034072016372"><ele>3.6666666666666665</ele><time>2026-04-06T11:29:07Z</time></trkpt><trkpt lat="39.81539111774496" lon="8.574794926823106"><ele>3.333333333333333</ele><time>2026-04-06T11:29:08Z</time></trkpt><trkpt lat="39.815493739362026" lon="8.574559781949208"><ele>3.0</ele><time>2026-04-06T11:29:09Z</time></trkpt><trkpt lat="39.8155900837771" lon="8.57433997693735"><ele>3.0</ele><time>2026-04-06T11:29:10Z</time></trkpt><trkpt lat="39.81567684609196" lon="8.574137423428944"><ele>3.0</ele><time>2026-04-06T11:29:11Z</time></trkpt><trkpt lat="39.81576948641098" lon="8.573952110966307"><ele>3.0</ele><time>2026-04-06T11:29:12Z</time></trkpt><trkpt lat="39.81588238541209" lon="8.573788320255634"><ele>2.6666666666666665</ele><time>2026-04-06T11:29:13Z</time></trkpt><trkpt lat="39.816012228473504" lon="8.573654167798184"><ele>2.333333333333333</ele><time>2026-04-06T11:29:14Z</time></trkpt><trkpt lat="39.81616574611747" lon="8.573559264836707"><ele>2.0</ele><time>2026-04-06T11:29:15Z</time></trkpt><trkpt lat="39.81633142880096" lon="8.573495024968903"><ele>2.0</ele><time>2026-04-06T11:29:16Z</time></trkpt><trkpt lat="39.81650999357189" lon="8.573473216931994"><ele>2.0</ele><time>2026-04-06T11:29:17Z</time></trkpt><trkpt lat="39.81668669620819" lon="8.573497211237026"><ele>2.0</ele><time>2026-04-06T11:29:18Z</time></trkpt><trkpt lat="39.8168597664427" lon="8.573558952198344"><ele>2.0</ele><time>2026-04-06T11:29:19Z</time></trkpt><trkpt lat="39.81703481901634" lon="8.573655148910857"><ele>2.0</ele><time>2026-04-06T11:29:20Z</time></trkpt><trkpt lat="39.81721054539171" lon="8.573758254551262"><ele>2.0</ele><time>2026-04-06T11:29:21Z</time></trkpt><trkpt lat="39.817396075407" lon="8.57385369282243"><ele>2.0</ele><time>2026-04-06T11:29:22Z</time></trkpt><trkpt lat="39.81758607141973" lon="8.573945757832046"><ele>2.0</ele><time>2026-04-06T11:29:23Z</time></trkpt><trkpt lat="39.817786347086965" lon="8.574040163098537"><ele>2.0</ele><time>2026-04-06T11:29:24Z</time></trkpt><trkpt lat="39.81798609376602" lon="8.574124445388081"><ele>1.6666666666666665</ele><time>2026-04-06T11:29:25Z</time></trkpt><trkpt lat="39.818199873193294" lon="8.574192905180873"><ele>1.3333333333333333</ele><time>2026-04-06T11:29:26Z</time></trkpt><trkpt lat="39.81841921380603" lon="8.574237345110102"><ele>1.0</ele><time>2026-04-06T11:29:27Z</time></trkpt><trkpt lat="39.818637263698875" lon="8.574269480062679"><ele>1.0</ele><time>2026-04-06T11:29:28Z</time></trkpt><trkpt lat="39.81883775528633" lon="8.574296739759173"><ele>1.0</ele><time>2026-04-06T11:29:29Z</time></trkpt><trkpt lat="39.819030647659524" lon="8.574334931516939"><ele>1.0</ele><time>2026-04-06T11:29:30Z</time></trkpt><trkpt lat="39.81921257668666" lon="8.574380168568402"><ele>1.0</ele><time>2026-04-06T11:29:31Z</time></trkpt><trkpt lat="39.81938178508538" lon="8.574442316106412"><ele>1.0</ele><time>2026-04-06T11:29:32Z</time></trkpt><trkpt lat="39.81954369507894" lon="8.574547296058615"><ele>1.0</ele><time>2026-04-06T11:29:33Z</time></trkpt><trkpt lat="39.81969508886013" lon="8.574699420285565"><ele>0.3333333333333333</ele><time>2026-04-06T11:29:34Z</time></trkpt><trkpt lat="39.81983287832129" lon="8.574884534912657"><ele>-0.3333333333333333</ele><time>2026-04-06T11:29:35Z</time></trkpt><trkpt lat="39.81997340688933" lon="8.575075988445429"><ele>-1.0</ele><time>2026-04-06T11:29:36Z</time></trkpt><trkpt lat="39.82012681478894" lon="8.575255158387414"><ele>-0.6666666666666666</ele><time>2026-04-06T11:29:37Z</time></trkpt><trkpt lat="39.82028576407758" lon="8.575429054374869"><ele>-0.3333333333333333</ele><time>2026-04-06T11:29:38Z</time></trkpt><trkpt lat="39.82044518769456" lon="8.575609098199365"><ele>0.0</ele><time>2026-04-06T11:29:39Z</time></trkpt><trkpt lat="39.82060625460754" lon="8.575789585378804"><ele>0.0</ele><time>2026-04-06T11:29:40Z</time></trkpt><trkpt lat="39.820767324559874" lon="8.575971920393505"><ele>0.0</ele><time>2026-04-06T11:29:41Z</time></trkpt><trkpt lat="39.820927048457726" lon="8.576148272532594"><ele>0.0</ele><time>2026-04-06T11:29:42Z</time></trkpt><trkpt lat="39.82108437296172" lon="8.576324966611903"><ele>0.0</ele><time>2026-04-06T11:29:43Z</time></trkpt><trkpt lat="39.82122716360006" lon="8.57649056121572"><ele>0.0</ele><time>2026-04-06T11:29:44Z</time></trkpt><trkpt lat="39.82136373081142" lon="8.576648846764193"><ele>0.0</ele><time>2026-04-06T11:29:45Z</time></trkpt><trkpt lat="39.821507762880486" lon="8.57680169601133"><ele>0.0</ele><time>2026-04-06T11:29:46Z</time></trkpt><trkpt lat="39.82166110320001" lon="8.576928409310423"><ele>0.0</ele><time>2026-04-06T11:29:47Z</time></trkpt><trkpt lat="39.82182933019229" lon="8.577019162266605"><ele>0.0</ele><time>2026-04-06T11:29:48Z</time></trkpt><trkpt lat="39.82200834957447" lon="8.577068559352076"><ele>0.6666666666666666</ele><time>2026-04-06T11:29:49Z</time></trkpt><trkpt lat="39.82219899421375" lon="8.577081842537686"><ele>1.3333333333333333</ele><time>2026-04-06T11:29:50Z</time></trkpt><trkpt lat="39.82240181616561" lon="8.577063589823547"><ele>2.0</ele><time>2026-04-06T11:29:51Z</time></trkpt><trkpt lat="39.82260897377156" lon="8.577019768982339"><ele>1.6666666666666665</ele><time>2026-04-06T11:29:52Z</time></trkpt><trkpt lat="39.822822420418795" lon="8.576965171067044"><ele>1.3333333333333333</ele><time>2026-04-06T11:29:53Z</time></trkpt><trkpt lat="39.82303937414512" lon="8.576914063591852"><ele>1.0</ele><time>2026-04-06T11:29:54Z</time></trkpt><trkpt lat="39.82324874355175" lon="8.576878139574225"><ele>1.0</ele><time>2026-04-06T11:29:55Z</time></trkpt><trkpt lat="39.823439044584795" lon="8.57686326744067"><ele>1.0</ele><time>2026-04-06T11:29:56Z</time></trkpt><trkpt lat="39.82361478748902" lon="8.576885962124395"><ele>1.0</ele><time>2026-04-06T11:29:57Z</time></trkpt><trkpt lat="39.82378984283695" lon="8.576946195892969"><ele>0.6666666666666666</ele><time>2026-04-06T11:29:58Z</time></trkpt><trkpt lat="39.82397258989035" lon="8.577024142348197"><ele>0.3333333333333333</ele><time>2026-04-06T11:29:59Z</time></trkpt><trkpt lat="39.82415729000072" lon="8.577096706745872"><ele>0.0</ele><time>2026-04-06T11:30:00Z</time></trkpt><trkpt lat="39.82434823018721" lon="8.577168546452569"><ele>1.3333333333333333</ele><time>2026-04-06T11:30:01Z</time></trkpt><trkpt lat="39.82452723111004" lon="8.577233534082252"><ele>2.6666666666666665</ele><time>2026-04-06T11:30:02Z</time></trkpt><trkpt lat="39.82469135825209" lon="8.577298648425728"><ele>4.0</ele><time>2026-04-06T11:30:03Z</time></trkpt><trkpt lat="39.82485416790037" lon="8.57738087238558"><ele>4.0</ele><time>2026-04-06T11:30:04.001Z</time></trkpt><trkpt lat="39.825005769590824" lon="8.577495017062795"><ele>4.0</ele><time>2026-04-06T11:30:05.001Z</time></trkpt><trkpt lat="39.825152856578676" lon="8.577644855523692"><ele>4.0</ele><time>2026-04-06T11:30:06.001Z</time></trkpt><trkpt lat="39.82530155257584" lon="8.577813699813683"><ele>4.333333333333333</ele><time>2026-04-06T11:30:07.001Z</time></trkpt><trkpt lat="39.82546043389907" lon="8.57798913145586"><ele>4.666666666666667</ele><time>2026-04-06T11:30:08.001Z</time></trkpt><trkpt lat="39.8256218081505" lon="8.578167818526433"><ele>5.0</ele><time>2026-04-06T11:30:09.001Z</time></trkpt><trkpt lat="39.82578609550591" lon="8.578346732508262"><ele>5.0</ele><time>2026-04-06T11:30:10.001Z</time></trkpt><trkpt lat="39.82594888844004" lon="8.578518006837777"><ele>5.0</ele><time>2026-04-06T11:30:11.001Z</time></trkpt><trkpt lat="39.82611662486358" lon="8.578692940207622"><ele>5.0</ele><time>2026-04-06T11:30:12.001Z</time></trkpt><trkpt lat="39.82627679764539" lon="8.57886306905141"><ele>6.0</ele><time>2026-04-06T11:30:13.001Z</time></trkpt><trkpt lat="39.82643765466228" lon="8.579029121154019"><ele>7.0</ele><time>2026-04-06T11:30:14.001Z</time></trkpt><trkpt lat="39.82660471126494" lon="8.57918280617816"><ele>8.0</ele><time>2026-04-06T11:30:15.001Z</time></trkpt><trkpt lat="39.8267892174973" lon="8.579313315934046"><ele>7.5</ele><time>2026-04-06T11:30:16.001Z</time></trkpt><trkpt lat="39.8269924376173" lon="8.57942809371183"><ele>7.0</ele><time>2026-04-06T11:30:17.001Z</time></trkpt><trkpt lat="39.82720477290352" lon="8.57953791317002"><ele>7.0</ele><time>2026-04-06T11:30:18.001Z</time></trkpt><trkpt lat="39.82741759755114" lon="8.579645333057599"><ele>7.0</ele><time>2026-04-06T11:30:19Z</time></trkpt><trkpt lat="39.827632097319935" lon="8.579758170080956"><ele>7.5</ele><time>2026-04-06T11:30:20Z</time></trkpt><trkpt lat="39.82784619648284" lon="8.579880112758701"><ele>8.0</ele><time>2026-04-06T11:30:21Z</time></trkpt><trkpt lat="39.82806042734324" lon="8.580001848934995"><ele>8.0</ele><time>2026-04-06T11:30:22Z</time></trkpt><trkpt lat="39.82827749057581" lon="8.580122656416277"><ele>8.0</ele><time>2026-04-06T11:30:23Z</time></trkpt><trkpt lat="39.8284957433413" lon="8.580242809525624"><ele>8.5</ele><time>2026-04-06T11:30:24Z</time></trkpt><trkpt lat="39.82871679586735" lon="8.580365341400377"><ele>9.0</ele><time>2026-04-06T11:30:25Z</time></trkpt><trkpt lat="39.82893573442503" lon="8.580486417683803"><ele>9.0</ele><time>2026-04-06T11:30:26Z</time></trkpt><trkpt lat="39.82916042701203" lon="8.580609556644642"><ele>9.0</ele><time>2026-04-06T11:30:27Z</time></trkpt><trkpt lat="39.82938708411337" lon="8.580734503405958"><ele>8.0</ele><time>2026-04-06T11:30:28Z</time></trkpt><trkpt lat="39.82961374405871" lon="8.580859190971774"><ele>7.0</ele><time>2026-04-06T11:30:29Z</time></trkpt><trkpt lat="39.82984133065333" lon="8.580983759002438"><ele>7.0</ele><time>2026-04-06T11:30:30Z</time></trkpt><trkpt lat="39.83007168258955" lon="8.581108732876297"><ele>7.0</ele><time>2026-04-06T11:30:31Z</time></trkpt><trkpt lat="39.83030027657694" lon="8.581232874543623"><ele>6.5</ele><time>2026-04-06T11:30:32Z</time></trkpt><trkpt lat="39.83053078878267" lon="8.58135926665629"><ele>6.0</ele><time>2026-04-06T11:30:33Z</time></trkpt><trkpt lat="39.830761776600845" lon="8.581484787156748"><ele>6.0</ele><time>2026-04-06T11:30:34Z</time></trkpt><trkpt lat="39.83099309880642" lon="8.581610764252934"><ele>6.0</ele><time>2026-04-06T11:30:35Z</time></trkpt><trkpt lat="39.83122341748254" lon="8.581739044982575"><ele>6.0</ele><time>2026-04-06T11:30:36Z</time></trkpt><trkpt lat="39.83144990843138" lon="8.581867529065569"><ele>6.0</ele><time>2026-04-06T11:30:37Z</time></trkpt><trkpt lat="39.83168048371126" lon="8.581996764440516"><ele>5.5</ele><time>2026-04-06T11:30:38Z</time></trkpt><trkpt lat="39.83191345681683" lon="8.582124082949361"><ele>5.0</ele><time>2026-04-06T11:30:39Z</time></trkpt><trkpt lat="39.832146029408456" lon="8.582251358340054"><ele>5.0</ele><time>2026-04-06T11:30:40Z</time></trkpt><trkpt lat="39.83237785820794" lon="8.582379422609737"><ele>5.0</ele><time>2026-04-06T11:30:41Z</time></trkpt><trkpt lat="39.83260877326668" lon="8.582509358081738"><ele>4.5</ele><time>2026-04-06T11:30:42Z</time></trkpt><trkpt lat="39.83284185502543" lon="8.582639752318599"><ele>4.0</ele><time>2026-04-06T11:30:43Z</time></trkpt><trkpt lat="39.83307570517378" lon="8.582768683731466"><ele>3.5</ele><time>2026-04-06T11:30:44Z</time></trkpt><trkpt lat="39.83331147983542" lon="8.58289876759116"><ele>3.0</ele><time>2026-04-06T11:30:45Z</time></trkpt><trkpt lat="39.83354527240327" lon="8.583028384658718"><ele>4.0</ele><time>2026-04-06T11:30:46Z</time></trkpt><trkpt lat="39.833781672418134" lon="8.583158529484816"><ele>5.0</ele><time>2026-04-06T11:30:47Z</time></trkpt><trkpt lat="39.834018393887554" lon="8.58328714028632"><ele>5.0</ele><time>2026-04-06T11:30:48Z</time></trkpt><trkpt lat="39.834253811235804" lon="8.583414791223571"><ele>5.0</ele><time>2026-04-06T11:30:49Z</time></trkpt><trkpt lat="39.83448816890893" lon="8.583543297598315"><ele>5.0</ele><time>2026-04-06T11:30:50Z</time></trkpt><trkpt lat="39.83472534725554" lon="8.583674753133076"><ele>5.0</ele><time>2026-04-06T11:30:51Z</time></trkpt><trkpt lat="39.83496235170933" lon="8.583806793204738"><ele>5.5</ele><time>2026-04-06T11:30:52Z</time></trkpt><trkpt lat="39.835197999171605" lon="8.58393704897401"><ele>6.0</ele><time>2026-04-06T11:30:53Z</time></trkpt><trkpt lat="39.835432502788365" lon="8.58406510164898"><ele>6.0</ele><time>2026-04-06T11:30:54Z</time></trkpt><trkpt lat="39.83566773039313" lon="8.58419349573956"><ele>6.0</ele><time>2026-04-06T11:30:55Z</time></trkpt><trkpt lat="39.8359050254196" lon="8.584321505913023"><ele>5.0</ele><time>2026-04-06T11:30:56Z</time></trkpt><trkpt lat="39.836141950940394" lon="8.584449020408762"><ele>4.0</ele><time>2026-04-06T11:30:57Z</time></trkpt><trkpt lat="39.83637739217983" lon="8.58457448629006"><ele>4.0</ele><time>2026-04-06T11:30:58Z</time></trkpt><trkpt lat="39.83661780545853" lon="8.584694365733153"><ele>4.0</ele><time>2026-04-06T11:30:59Z</time></trkpt><trkpt lat="39.836859933354084" lon="8.584803088328885"><ele>4.0</ele><time>2026-04-06T11:31:00Z</time></trkpt><trkpt lat="39.83710562014066" lon="8.584911647714456"><ele>4.0</ele><time>2026-04-06T11:31:01Z</time></trkpt><trkpt lat="39.83734700378129" lon="8.585020749278144"><ele>4.0</ele><time>2026-04-06T11:31:02Z</time></trkpt><trkpt lat="39.837587817259326" lon="8.58512926635065"><ele>4.0</ele><time>2026-04-06T11:31:03Z</time></trkpt><trkpt lat="39.837827352920016" lon="8.585237290952682"><ele>3.5</ele><time>2026-04-06T11:31:04Z</time></trkpt><trkpt lat="39.838067961941086" lon="8.58534312912322"><ele>3.0</ele><time>2026-04-06T11:31:05Z</time></trkpt><trkpt lat="39.83830564136493" lon="8.585448813299632"><ele>3.5</ele><time>2026-04-06T11:31:06Z</time></trkpt><trkpt lat="39.83854573129158" lon="8.58555613394361"><ele>4.0</ele><time>2026-04-06T11:31:07Z</time></trkpt><trkpt lat="39.838782008946524" lon="8.585663500225047"><ele>4.0</ele><time>2026-04-06T11:31:08Z</time></trkpt><trkpt lat="39.83901953140673" lon="8.58577116834193"><ele>4.0</ele><time>2026-04-06T11:31:09Z</time></trkpt><trkpt lat="39.83925829564346" lon="8.585879812024151"><ele>3.5</ele><time>2026-04-06T11:31:10Z</time></trkpt><trkpt lat="39.83949447528794" lon="8.585985252852996"><ele>3.0</ele><time>2026-04-06T11:31:11Z</time></trkpt><trkpt lat="39.83973208278709" lon="8.586092905436718"><ele>4.0</ele><time>2026-04-06T11:31:12Z</time></trkpt><trkpt lat="39.839970168631275" lon="8.586203223054023"><ele>5.0</ele><time>2026-04-06T11:31:13Z</time></trkpt><trkpt lat="39.840204297393534" lon="8.586309668922674"><ele>5.5</ele><time>2026-04-06T11:31:14Z</time></trkpt><trkpt lat="39.84044463697345" lon="8.586417595332351"><ele>6.0</ele><time>2026-04-06T11:31:15Z</time></trkpt><trkpt lat="39.84068071283021" lon="8.586525407865578"><ele>6.0</ele><time>2026-04-06T11:31:16Z</time></trkpt><trkpt lat="39.84091357181936" lon="8.586626525383851"><ele>6.0</ele><time>2026-04-06T11:31:17Z</time></trkpt><trkpt lat="39.841153825736235" lon="8.586733320441903"><ele>6.0</ele><time>2026-04-06T11:31:18Z</time></trkpt><trkpt lat="39.841390031436376" lon="8.586839454485489"><ele>6.0</ele><time>2026-04-06T11:31:19Z</time></trkpt><trkpt lat="39.8416265922773" lon="8.586949508022416"><ele>5.5</ele><time>2026-04-06T11:31:20Z</time></trkpt><trkpt lat="39.841863720353984" lon="8.587059227861308"><ele>5.0</ele><time>2026-04-06T11:31:21Z</time></trkpt><trkpt lat="39.84210195905572" lon="8.587167473318903"><ele>5.0</ele><time>2026-04-06T11:31:22Z</time></trkpt><trkpt lat="39.84234189989826" lon="8.587274923541749"><ele>5.0</ele><time>2026-04-06T11:31:23Z</time></trkpt><trkpt lat="39.84258017967778" lon="8.587381701455968"><ele>3.5</ele><time>2026-04-06T11:31:24Z</time></trkpt><trkpt lat="39.84282106079228" lon="8.587489278020358"><ele>2.0</ele><time>2026-04-06T11:31:25Z</time></trkpt><trkpt lat="39.843062264988106" lon="8.587597273995097"><ele>2.0</ele><time>2026-04-06T11:31:26Z</time></trkpt><trkpt lat="39.843303276837986" lon="8.587706227334724"><ele>2.0</ele><time>2026-04-06T11:31:27Z</time></trkpt><trkpt lat="39.84354588227434" lon="8.587817064720612"><ele>3.0</ele><time>2026-04-06T11:31:28Z</time></trkpt><trkpt lat="39.8437803490344" lon="8.587925024591948"><ele>4.0</ele><time>2026-04-06T11:31:29Z</time></trkpt><trkpt lat="39.84399986278412" lon="8.588022231103393"><ele>4.0</ele><time>2026-04-06T11:31:30Z</time></trkpt><trkpt lat="39.84421008793263" lon="8.58811603470753"><ele>4.0</ele><time>2026-04-06T11:31:31Z</time></trkpt><trkpt lat="39.844413471416516" lon="8.58820756523892"><ele>4.0</ele><time>2026-04-06T11:31:32Z</time></trkpt><trkpt lat="39.84461978880295" lon="8.5882995459318"><ele>3.6666666666666665</ele><time>2026-04-06T11:31:33Z</time></trkpt><trkpt lat="39.844822947629886" lon="8.588390684637217"><ele>3.333333333333333</ele><time>2026-04-06T11:31:34Z</time></trkpt><trkpt lat="39.84502504838967" lon="8.58848669907408"><ele>3.0</ele><time>2026-04-06T11:31:35Z</time></trkpt><trkpt lat="39.84521036641577" lon="8.588591974330678"><ele>3.333333333333333</ele><time>2026-04-06T11:31:36Z</time></trkpt><trkpt lat="39.84539113278022" lon="8.588715574257051"><ele>3.6666666666666665</ele><time>2026-04-06T11:31:37Z</time></trkpt><trkpt lat="39.845569758623185" lon="8.588857503383721"><ele>4.0</ele><time>2026-04-06T11:31:38Z</time></trkpt><trkpt lat="39.84574954206398" lon="8.589011347019134"><ele>4.0</ele><time>2026-04-06T11:31:39Z</time></trkpt><trkpt lat="39.84593393875921" lon="8.589170760738586"><ele>4.0</ele><time>2026-04-06T11:31:40Z</time></trkpt><trkpt lat="39.84612320201311" lon="8.589333520371104"><ele>4.0</ele><time>2026-04-06T11:31:41Z</time></trkpt><trkpt lat="39.84631322483079" lon="8.58949583969482"><ele>4.0</ele><time>2026-04-06T11:31:42.001Z</time></trkpt><trkpt lat="39.84650265660048" lon="8.589657801611883"><ele>4.0</ele><time>2026-04-06T11:31:43.001Z</time></trkpt><trkpt lat="39.846693177470286" lon="8.589820819705976"><ele>3.6666666666666665</ele><time>2026-04-06T11:31:44.001Z</time></trkpt><trkpt lat="39.84688094911873" lon="8.589979956631712"><ele>3.333333333333333</ele><time>2026-04-06T11:31:45.001Z</time></trkpt><trkpt lat="39.84706614201174" lon="8.590138006120762"><ele>3.0</ele><time>2026-04-06T11:31:46.001Z</time></trkpt><trkpt lat="39.84725100710761" lon="8.590298944615121"><ele>3.333333333333333</ele><time>2026-04-06T11:31:47.001Z</time></trkpt><trkpt lat="39.847421688625595" lon="8.59045809750972"><ele>3.6666666666666665</ele><time>2026-04-06T11:31:48.001Z</time></trkpt><trkpt lat="39.84760338188664" lon="8.590613588598437"><ele>4.0</ele><time>2026-04-06T11:31:49.001Z</time></trkpt><trkpt lat="39.847790550496235" lon="8.590762850851428"><ele>4.0</ele><time>2026-04-06T11:31:50.001Z</time></trkpt><trkpt lat="39.84798052008473" lon="8.590919663098228"><ele>4.0</ele><time>2026-04-06T11:31:51.001Z</time></trkpt><trkpt lat="39.848157302720054" lon="8.591076601669027"><ele>4.0</ele><time>2026-04-06T11:31:52.001Z</time></trkpt><trkpt lat="39.84832156024932" lon="8.591231618585361"><ele>4.666666666666666</ele><time>2026-04-06T11:31:53.001Z</time></trkpt><trkpt lat="39.84848472743379" lon="8.591398407110608"><ele>5.333333333333333</ele><time>2026-04-06T11:31:54.001Z</time></trkpt><trkpt lat="39.84863742323933" lon="8.59157592385916"><ele>6.0</ele><time>2026-04-06T11:31:55.001Z</time></trkpt><trkpt lat="39.84877669140093" lon="8.591765185843439"><ele>6.0</ele><time>2026-04-06T11:31:56.001Z</time></trkpt><trkpt lat="39.84892109448703" lon="8.591974164169914"><ele>6.0</ele><time>2026-04-06T11:31:57.001Z</time></trkpt><trkpt lat="39.849067896481664" lon="8.592184225572375"><ele>6.0</ele><time>2026-04-06T11:31:58.001Z</time></trkpt><trkpt lat="39.84921806146641" lon="8.592397974687117"><ele>4.0</ele><time>2026-04-06T11:31:59.001Z</time></trkpt><trkpt lat="39.84936825039204" lon="8.592612078326912"><ele>2.0</ele><time>2026-04-06T11:32:00.001Z</time></trkpt><trkpt lat="39.84952174717728" lon="8.592829882669204"><ele>2.5</ele><time>2026-04-06T11:32:01.001Z</time></trkpt><trkpt lat="39.84967965577667" lon="8.593047532707548"><ele>3.0</ele><time>2026-04-06T11:32:02.001Z</time></trkpt><trkpt lat="39.84983944835089" lon="8.593263410611161"><ele>3.0</ele><time>2026-04-06T11:32:03.001Z</time></trkpt><trkpt lat="39.8500011916315" lon="8.593486551358207"><ele>3.0</ele><time>2026-04-06T11:32:04.001Z</time></trkpt><trkpt lat="39.850161162159786" lon="8.593710519319055"><ele>3.0</ele><time>2026-04-06T11:32:05.001Z</time></trkpt><trkpt lat="39.85032294172095" lon="8.593938584334724"><ele>3.0</ele><time>2026-04-06T11:32:06.001Z</time></trkpt><trkpt lat="39.85048424099782" lon="8.594166436678517"><ele>3.0</ele><time>2026-04-06T11:32:07.001Z</time></trkpt><trkpt lat="39.850643605616895" lon="8.594394314307"><ele>3.0</ele><time>2026-04-06T11:32:08.001Z</time></trkpt><trkpt lat="39.850795701132746" lon="8.594613226569383"><ele>3.0</ele><time>2026-04-06T11:32:09.001Z</time></trkpt><trkpt lat="39.85094145547981" lon="8.594823314984477"><ele>3.0</ele><time>2026-04-06T11:32:10.001Z</time></trkpt><trkpt lat="39.85108920510147" lon="8.595031305334327"><ele>3.0</ele><time>2026-04-06T11:32:11.001Z</time></trkpt><trkpt lat="39.85123921365108" lon="8.595241271593668"><ele>2.6666666666666665</ele><time>2026-04-06T11:32:12.001Z</time></trkpt><trkpt lat="39.85138922918311" lon="8.595451214743385"><ele>2.333333333333333</ele><time>2026-04-06T11:32:13.001Z</time></trkpt><trkpt lat="39.851539803992345" lon="8.595665265552176"><ele>2.0</ele><time>2026-04-06T11:32:14.001Z</time></trkpt><trkpt lat="39.85168887542093" lon="8.595878305697848"><ele>2.0</ele><time>2026-04-06T11:32:15.001Z</time></trkpt><trkpt lat="39.85183936222311" lon="8.596091112588589"><ele>2.0</ele><time>2026-04-06T11:32:16.001Z</time></trkpt><trkpt lat="39.851993712341596" lon="8.596305234766666"><ele>2.0</ele><time>2026-04-06T11:32:17.001Z</time></trkpt><trkpt lat="39.85214141919888" lon="8.596511910105061"><ele>2.0</ele><time>2026-04-06T11:32:18.001Z</time></trkpt><trkpt lat="39.85228596487805" lon="8.596716968576597"><ele>2.0</ele><time>2026-04-06T11:32:19.001Z</time></trkpt><trkpt lat="39.85242970701713" lon="8.596921471205626"><ele>2.0</ele><time>2026-04-06T11:32:20.001Z</time></trkpt><trkpt lat="39.852576872626415" lon="8.597128827958729"><ele>1.6666666666666665</ele><time>2026-04-06T11:32:21.001Z</time></trkpt><trkpt lat="39.852723715293315" lon="8.59733510040669"><ele>1.3333333333333333</ele><time>2026-04-06T11:32:22.001Z</time></trkpt><trkpt lat="39.852871626077494" lon="8.597540422762343"><ele>1.0</ele><time>2026-04-06T11:32:23.001Z</time></trkpt><trkpt lat="39.85301715440469" lon="8.5977427742343"><ele>1.6666666666666665</ele><time>2026-04-06T11:32:24.001Z</time></trkpt><trkpt lat="39.85315812172759" lon="8.597940521165828"><ele>2.3333333333333335</ele><time>2026-04-06T11:32:25Z</time></trkpt><trkpt lat="39.85330062435901" lon="8.59814113016864"><ele>3.0</ele><time>2026-04-06T11:32:26Z</time></trkpt><trkpt lat="39.85344425400456" lon="8.598335235256544"><ele>3.0</ele><time>2026-04-06T11:32:27Z</time></trkpt><trkpt lat="39.853596924688375" lon="8.598525210394538"><ele>3.0</ele><time>2026-04-06T11:32:28Z</time></trkpt><trkpt lat="39.85375838018629" lon="8.598702035041354"><ele>3.0</ele><time>2026-04-06T11:32:29Z</time></trkpt><trkpt lat="39.85393155066508" lon="8.598873951546175"><ele>3.333333333333333</ele><time>2026-04-06T11:32:30Z</time></trkpt><trkpt lat="39.85410691062058" lon="8.599047335177705"><ele>3.6666666666666665</ele><time>2026-04-06T11:32:31Z</time></trkpt><trkpt lat="39.854282559162776" lon="8.599227416329382"><ele>4.0</ele><time>2026-04-06T11:32:32Z</time></trkpt><trkpt lat="39.85445865353545" lon="8.59941128852475"><ele>4.0</ele><time>2026-04-06T11:32:33Z</time></trkpt><trkpt lat="39.854636443824255" lon="8.599593302672321"><ele>4.0</ele><time>2026-04-06T11:32:34Z</time></trkpt><trkpt lat="39.85481238162888" lon="8.599772397627179"><ele>4.0</ele><time>2026-04-06T11:32:35Z</time></trkpt><trkpt lat="39.85498583833826" lon="8.599948148824744"><ele>4.0</ele><time>2026-04-06T11:32:36Z</time></trkpt><trkpt lat="39.85515602541293" lon="8.600122999391575"><ele>4.0</ele><time>2026-04-06T11:32:37Z</time></trkpt><trkpt lat="39.855327409440136" lon="8.600302576304292"><ele>4.0</ele><time>2026-04-06T11:32:38Z</time></trkpt><trkpt lat="39.85549353347226" lon="8.60047871449295"><ele>4.0</ele><time>2026-04-06T11:32:39Z</time></trkpt><trkpt lat="39.85566395148745" lon="8.600658024993272"><ele>4.0</ele><time>2026-04-06T11:32:40Z</time></trkpt><trkpt lat="39.85583307145116" lon="8.600833890778539"><ele>4.0</ele><time>2026-04-06T11:32:41Z</time></trkpt><trkpt lat="39.856004355385686" lon="8.601012507898666"><ele>3.6666666666666665</ele><time>2026-04-06T11:32:42Z</time></trkpt><trkpt lat="39.85617482113841" lon="8.60118814352443"><ele>3.333333333333333</ele><time>2026-04-06T11:32:43Z</time></trkpt><trkpt lat="39.856345925275605" lon="8.601363787116686"><ele>3.0</ele><time>2026-04-06T11:32:44Z</time></trkpt><trkpt lat="39.856516392097426" lon="8.601540228305703"><ele>3.0</ele><time>2026-04-06T11:32:45Z</time></trkpt><trkpt lat="39.856687798840746" lon="8.601719027227286"><ele>3.0</ele><time>2026-04-06T11:32:46Z</time></trkpt><trkpt lat="39.856861340297165" lon="8.601899306768848"><ele>3.0</ele><time>2026-04-06T11:32:47Z</time></trkpt><trkpt lat="39.857034194026596" lon="8.602078746563647"><ele>3.0</ele><time>2026-04-06T11:32:48Z</time></trkpt><trkpt lat="39.85720968596714" lon="8.602260694856376"><ele>3.0</ele><time>2026-04-06T11:32:49Z</time></trkpt><trkpt lat="39.85738573962066" lon="8.602443121225425"><ele>3.0</ele><time>2026-04-06T11:32:50Z</time></trkpt><trkpt lat="39.85756272835474" lon="8.602625859433"><ele>3.5</ele><time>2026-04-06T11:32:51Z</time></trkpt><trkpt lat="39.857738763481876" lon="8.60281132634888"><ele>4.0</ele><time>2026-04-06T11:32:52Z</time></trkpt><trkpt lat="39.8579151263781" lon="8.602998318139873"><ele>4.0</ele><time>2026-04-06T11:32:53Z</time></trkpt><trkpt lat="39.85809309008194" lon="8.603183789125223"><ele>4.0</ele><time>2026-04-06T11:32:54Z</time></trkpt><trkpt lat="39.858270849945065" lon="8.603367359844727"><ele>4.0</ele><time>2026-04-06T11:32:55Z</time></trkpt><trkpt lat="39.85845080142903" lon="8.603554536108815"><ele>4.0</ele><time>2026-04-06T11:32:56Z</time></trkpt><trkpt lat="39.858628804715046" lon="8.603737305023088"><ele>4.0</ele><time>2026-04-06T11:32:57Z</time></trkpt><trkpt lat="39.858807172846774" lon="8.603921925155717"><ele>4.0</ele><time>2026-04-06T11:32:58Z</time></trkpt><trkpt lat="39.85898461985699" lon="8.604106493755356"><ele>4.0</ele><time>2026-04-06T11:32:59Z</time></trkpt><trkpt lat="39.85916303964714" lon="8.604292628350146"><ele>4.0</ele><time>2026-04-06T11:33:00Z</time></trkpt><trkpt lat="39.8593410941339" lon="8.604476691228895"><ele>4.333333333333333</ele><time>2026-04-06T11:33:01Z</time></trkpt><trkpt lat="39.85951191463907" lon="8.60465600360119"><ele>4.666666666666667</ele><time>2026-04-06T11:33:02Z</time></trkpt><trkpt lat="39.85968096978809" lon="8.604834643277716"><ele>5.0</ele><time>2026-04-06T11:33:03Z</time></trkpt><trkpt lat="39.85984040699198" lon="8.60499521838974"><ele>5.0</ele><time>2026-04-06T11:33:04Z</time></trkpt><trkpt lat="39.860000817067814" lon="8.605140414473988"><ele>5.0</ele><time>2026-04-06T11:33:05Z</time></trkpt><trkpt lat="39.86017422378417" lon="8.605263642957487"><ele>5.0</ele><time>2026-04-06T11:33:06Z</time></trkpt><trkpt lat="39.86036510517242" lon="8.605370937189038"><ele>4.333333333333334</ele><time>2026-04-06T11:33:07Z</time></trkpt><trkpt lat="39.86055931734889" lon="8.605478698479176"><ele>3.666666666666667</ele><time>2026-04-06T11:33:08Z</time></trkpt><trkpt lat="39.86074940858002" lon="8.605585105694901"><ele>3.0</ele><time>2026-04-06T11:33:09Z</time></trkpt><trkpt lat="39.86094594974443" lon="8.605698494448049"><ele>4.0</ele><time>2026-04-06T11:33:10Z</time></trkpt><trkpt lat="39.861142452720294" lon="8.6058119330296"><ele>5.0</ele><time>2026-04-06T11:33:11Z</time></trkpt><trkpt lat="39.86134443464437" lon="8.605929021161494"><ele>6.0</ele><time>2026-04-06T11:33:12Z</time></trkpt><trkpt lat="39.86154730797341" lon="8.606047759293157"><ele>5.333333333333333</ele><time>2026-04-06T11:33:13Z</time></trkpt><trkpt lat="39.86175048315483" lon="8.606167951636662"><ele>4.666666666666666</ele><time>2026-04-06T11:33:14Z</time></trkpt><trkpt lat="39.86195693791332" lon="8.606288243295669"><ele>4.0</ele><time>2026-04-06T11:33:15Z</time></trkpt><trkpt lat="39.86216514992685" lon="8.606407910789699"><ele>4.0</ele><time>2026-04-06T11:33:16Z</time></trkpt><trkpt lat="39.86237132225273" lon="8.606526129706326"><ele>4.0</ele><time>2026-04-06T11:33:17Z</time></trkpt><trkpt lat="39.86257677494434" lon="8.606642873029468"><ele>4.0</ele><time>2026-04-06T11:33:18Z</time></trkpt><trkpt lat="39.862785507425116" lon="8.606754932240767"><ele>3.6666666666666665</ele><time>2026-04-06T11:33:19Z</time></trkpt><trkpt lat="39.86299626267983" lon="8.606858248794317"><ele>3.333333333333333</ele><time>2026-04-06T11:33:20Z</time></trkpt><trkpt lat="39.86320367610021" lon="8.606947898695886"><ele>3.0</ele><time>2026-04-06T11:33:21Z</time></trkpt><trkpt lat="39.86341298166931" lon="8.607037582068445"><ele>2.3333333333333335</ele><time>2026-04-06T11:33:22Z</time></trkpt><trkpt lat="39.863619871071236" lon="8.607125778729696"><ele>1.6666666666666665</ele><time>2026-04-06T11:33:23Z</time></trkpt><trkpt lat="39.86382059975623" lon="8.607209100055849"><ele>1.0</ele><time>2026-04-06T11:33:24Z</time></trkpt><trkpt lat="39.86402660029134" lon="8.607290452277235"><ele>1.0</ele><time>2026-04-06T11:33:25Z</time></trkpt><trkpt lat="39.86422879463611" lon="8.60737281130629"><ele>1.0</ele><time>2026-04-06T11:33:26Z</time></trkpt><trkpt lat="39.8644290799237" lon="8.607456152892675"><ele>1.0</ele><time>2026-04-06T11:33:27Z</time></trkpt><trkpt lat="39.864628434090584" lon="8.607540021145198"><ele>0.6666666666666666</ele><time>2026-04-06T11:33:28Z</time></trkpt><trkpt lat="39.86482211121828" lon="8.6076214111255"><ele>0.3333333333333333</ele><time>2026-04-06T11:33:29Z</time></trkpt><trkpt lat="39.865020097195526" lon="8.607706098843478"><ele>0.0</ele><time>2026-04-06T11:33:30Z</time></trkpt><trkpt lat="39.86521646850092" lon="8.607791624912032"><ele>0.6666666666666666</ele><time>2026-04-06T11:33:31Z</time></trkpt><trkpt lat="39.86541267949151" lon="8.607876953974923"><ele>1.3333333333333333</ele><time>2026-04-06T11:33:32Z</time></trkpt><trkpt lat="39.8656094404341" lon="8.607959938268602"><ele>2.0</ele><time>2026-04-06T11:33:33Z</time></trkpt><trkpt lat="39.86580658270519" lon="8.608042982913233"><ele>1.6666666666666665</ele><time>2026-04-06T11:33:34Z</time></trkpt><trkpt lat="39.86600109704143" lon="8.608124499594789"><ele>1.3333333333333333</ele><time>2026-04-06T11:33:35Z</time></trkpt><trkpt lat="39.866191686045845" lon="8.608204359738483"><ele>1.0</ele><time>2026-04-06T11:33:36Z</time></trkpt><trkpt lat="39.8663823599404" lon="8.60828655549502"><ele>1.0</ele><time>2026-04-06T11:33:37Z</time></trkpt><trkpt lat="39.86656657556796" lon="8.60836411635681"><ele>1.0</ele><time>2026-04-06T11:33:38Z</time></trkpt><trkpt lat="39.86673590907678" lon="8.608438077043978"><ele>1.0</ele><time>2026-04-06T11:33:39Z</time></trkpt><trkpt lat="39.86689603281052" lon="8.608507160383887"><ele>0.3333333333333333</ele><time>2026-04-06T11:33:40Z</time></trkpt><trkpt lat="39.86704788926552" lon="8.60857137491177"><ele>-0.3333333333333333</ele><time>2026-04-06T11:33:41Z</time></trkpt><trkpt lat="39.86719044254284" lon="8.608628593586408"><ele>-1.0</ele><time>2026-04-06T11:33:42.001Z</time></trkpt><trkpt lat="39.86732772243792" lon="8.608684612476203"><ele>0.0</ele><time>2026-04-06T11:33:43.001Z</time></trkpt><trkpt lat="39.86745655560706" lon="8.608740236765065"><ele>1.0</ele><time>2026-04-06T11:33:44.001Z</time></trkpt><trkpt lat="39.86757568823778" lon="8.60879262724071"><ele>2.0</ele><time>2026-04-06T11:33:45.001Z</time></trkpt><trkpt lat="39.86768620022526" lon="8.608841454595241"><ele>3.0</ele><time>2026-04-06T11:33:46.001Z</time></trkpt><trkpt lat="39.867786560932984" lon="8.608891440609462"><ele>3.3333333333333335</ele><time>2026-04-06T11:33:47.001Z</time></trkpt><trkpt lat="39.867874040153275" lon="8.608952545796425"><ele>3.666666666666667</ele><time>2026-04-06T11:33:48.001Z</time></trkpt><trkpt lat="39.86794349013525" lon="8.609024976655782"><ele>4.0</ele><time>2026-04-06T11:33:49.001Z</time></trkpt><trkpt lat="39.86799736741998" lon="8.609101588158417"><ele>4.333333333333334</ele><time>2026-04-06T11:33:50.001Z</time></trkpt><trkpt lat="39.86803640446473" lon="8.609173188823808"><ele>4.666666666666667</ele><time>2026-04-06T11:33:51.001Z</time></trkpt><trkpt lat="39.86808305176244" lon="8.609245282473895"><ele>5.0</ele><time>2026-04-06T11:34:00.001Z</time></trkpt><trkpt lat="39.868207656207375" lon="8.609268688903684"><ele>5.0</ele><time>2026-04-06T11:34:02.001Z</time></trkpt><trkpt lat="39.86829398199235" lon="8.609247514797374"><ele>5.0</ele><time>2026-04-06T11:34:03.001Z</time></trkpt><trkpt lat="39.86836602906082" lon="8.609222164644155"><ele>5.0</ele><time>2026-04-06T11:34:04.001Z</time></trkpt><trkpt lat="39.868456222552986" lon="8.60920013024745"><ele>5.0</ele><time>2026-04-06T11:34:05.001Z</time></trkpt><trkpt lat="39.8685634435641" lon="8.609187150804553"><ele>5.0</ele><time>2026-04-06T11:34:06.001Z</time></trkpt><trkpt lat="39.86867996872472" lon="8.609179103303411"><ele>4.8</ele><time>2026-04-06T11:34:07.001Z</time></trkpt><trkpt lat="39.86878494708707" lon="8.609176399912537"><ele>4.6</ele><time>2026-04-06T11:34:08.001Z</time></trkpt><trkpt lat="39.86889391540702" lon="8.609177018336682"><ele>4.4</ele><time>2026-04-06T11:34:09.001Z</time></trkpt><trkpt lat="39.86900872969626" lon="8.609181073751156"><ele>4.2</ele><time>2026-04-06T11:34:10.001Z</time></trkpt><trkpt lat="39.86912843497514" lon="8.6091955037826"><ele>4.0</ele><time>2026-04-06T11:34:11.001Z</time></trkpt><trkpt lat="39.86923878072606" lon="8.609221665882343"><ele>4.6</ele><time>2026-04-06T11:34:12.001Z</time></trkpt><trkpt lat="39.86933906472428" lon="8.609242710184986"><ele>5.2</ele><time>2026-04-06T11:34:13.001Z</time></trkpt><trkpt lat="39.86943669548036" lon="8.609266583639455"><ele>5.799999999999999</ele><time>2026-04-06T11:34:14.001Z</time></trkpt><trkpt lat="39.869529073257254" lon="8.60929366903514"><ele>6.3999999999999995</ele><time>2026-04-06T11:34:15.001Z</time></trkpt><trkpt lat="39.86961365823966" lon="8.609318938685952"><ele>7.0</ele><time>2026-04-06T11:34:16.001Z</time></trkpt><trkpt lat="39.86974646298675" lon="8.609348719105354"><ele>7.0</ele><time>2026-04-06T11:34:17.001Z</time></trkpt><trkpt lat="39.86983314494759" lon="8.609367666806051"><ele>7.0</ele><time>2026-04-06T11:34:18.001Z</time></trkpt><trkpt lat="39.86992373300032" lon="8.609390557322117"><ele>7.0</ele><time>2026-04-06T11:34:19.001Z</time></trkpt><trkpt lat="39.870112486757826" lon="8.609436510436241"><ele>7.0</ele><time>2026-04-06T11:34:21.001Z</time></trkpt><trkpt lat="39.87020059297254" lon="8.609462605914924"><ele>6.833333333333334</ele><time>2026-04-06T11:34:22.001Z</time></trkpt><trkpt lat="39.87027864364595" lon="8.609486799588694"><ele>6.666666666666667</ele><time>2026-04-06T11:34:23.001Z</time></trkpt><trkpt lat="39.87034797737683" lon="8.60950639237768"><ele>6.5</ele><time>2026-04-06T11:34:24.001Z</time></trkpt><trkpt lat="39.87044271436376" lon="8.60954476412356"><ele>6.333333333333334</ele><time>2026-04-06T11:34:26.001Z</time></trkpt><trkpt lat="39.87041485219293" lon="8.609638380392049"><ele>6.166666666666667</ele><time>2026-04-06T11:36:15.001Z</time></trkpt><trkpt lat="39.87038647468453" lon="8.609720765113423"><ele>6.0</ele><time>2026-04-06T11:36:17.001Z</time></trkpt><trkpt lat="39.870372024824576" lon="8.609829602170052"><ele>5.7142857142857135</ele><time>2026-04-06T11:36:19.001Z</time></trkpt><trkpt lat="39.87035769736242" lon="8.609943033288443"><ele>5.428571428571429</ele><time>2026-04-06T11:36:22.001Z</time></trkpt><trkpt lat="39.87033212291893" lon="8.610042507905943"><ele>5.142857142857142</ele><time>2026-04-06T11:36:25.001Z</time></trkpt><trkpt lat="39.87034822900503" lon="8.609960861875617"><ele>4.857142857142857</ele><time>2026-04-06T11:37:47Z</time></trkpt><trkpt lat="39.87038219211523" lon="8.609878726605343"><ele>4.571428571428571</ele><time>2026-04-06T11:37:52Z</time></trkpt><trkpt lat="39.87043708500799" lon="8.60982551480571"><ele>4.285714285714286</ele><time>2026-04-06T11:38:05Z</time></trkpt><trkpt lat="39.87051304630148" lon="8.609828234232154"><ele>4.0</ele><time>2026-04-06T11:38:18.001Z</time></trkpt><trkpt lat="39.87044846041045" lon="8.609844484953536"><ele>4.0</ele><time>2026-04-06T11:38:31.001Z</time></trkpt><trkpt lat="39.87058920398535" lon="8.609770143559011"><ele>4.0</ele><time>2026-04-06T13:40:27Z</time></trkpt><trkpt lat="39.87079807151035" lon="8.609765565461588"><ele>4.0</ele><time>2026-04-06T13:40:50Z</time></trkpt><trkpt lat="39.87078682079664" lon="8.609854763746247"><ele>4.0</ele><time>2026-04-06T13:41:12Z</time></trkpt><trkpt lat="39.87070215680459" lon="8.609916958700643"><ele>3.9999999999999996</ele><time>2026-04-06T13:41:16Z</time></trkpt><trkpt lat="39.8706409531228" lon="8.609982649479507"><ele>4.0</ele><time>2026-04-06T13:41:18Z</time></trkpt><trkpt lat="39.87057354762421" lon="8.61005468506504"><ele>4.0</ele><time>2026-04-06T13:41:20Z</time></trkpt><trkpt lat="39.87051203029959" lon="8.610084001702418"><ele>4.0</ele><time>2026-04-06T13:41:26Z</time></trkpt><trkpt lat="39.870450437775006" lon="8.610102570205228"><ele>3.9999999999999996</ele><time>2026-04-06T13:41:33Z</time></trkpt><trkpt lat="39.870390768678426" lon="8.610074796338882"><ele>4.0</ele><time>2026-04-06T13:42:17.999Z</time></trkpt><trkpt lat="39.87033450276717" lon="8.610175774255127"><ele>3.9999999999999996</ele><time>2026-04-06T13:46:07.999Z</time></trkpt><trkpt lat="39.870377936236146" lon="8.61010612512551"><ele>4.0</ele><time>2026-04-06T13:46:11.999Z</time></trkpt><trkpt lat="39.87035604592182" lon="8.61000558590735"><ele>4.0</ele><time>2026-04-06T13:46:53.999Z</time></trkpt><trkpt lat="39.87036880006482" lon="8.609900692424315"><ele>4.0</ele><time>2026-04-06T13:46:55.999Z</time></trkpt><trkpt lat="39.870388063155175" lon="8.609805060292684"><ele>3.9999999999999996</ele><time>2026-04-06T13:46:57.999Z</time></trkpt><trkpt lat="39.870399564721865" lon="8.60971250030133"><ele>4.0</ele><time>2026-04-06T13:46:59.999Z</time></trkpt><trkpt lat="39.87041833659354" lon="8.609593791732243"><ele>4.0</ele><time>2026-04-06T13:47:02.999Z</time></trkpt><trkpt lat="39.87041083451901" lon="8.609496026947"><ele>3.9999999999999996</ele><time>2026-04-06T13:47:13.999Z</time></trkpt><trkpt lat="39.87034421492305" lon="8.6094335041284"><ele>4.0</ele><time>2026-04-06T13:47:15.999Z</time></trkpt><trkpt lat="39.87027596123152" lon="8.609415632174793"><ele>4.0</ele><time>2026-04-06T13:47:16.999Z</time></trkpt><trkpt lat="39.870206319618205" lon="8.609403013675616"><ele>3.9999999999999996</ele><time>2026-04-06T13:47:17.999Z</time></trkpt><trkpt lat="39.870141792509244" lon="8.60939193077724"><ele>4.0</ele><time>2026-04-06T13:47:18.999Z</time></trkpt><trkpt lat="39.8700658988744" lon="8.609372306788094"><ele>4.0</ele><time>2026-04-06T13:47:19.999Z</time></trkpt><trkpt lat="39.86997977968388" lon="8.609353218846097"><ele>4.6</ele><time>2026-04-06T13:47:20.999Z</time></trkpt><trkpt lat="39.86988231755244" lon="8.609329353228244"><ele>5.2</ele><time>2026-04-06T13:47:21.999Z</time></trkpt><trkpt lat="39.869779119728435" lon="8.609302556047814"><ele>5.799999999999999</ele><time>2026-04-06T13:47:22.999Z</time></trkpt><trkpt lat="39.869678964786985" lon="8.609280758362798"><ele>6.3999999999999995</ele><time>2026-04-06T13:47:23.999Z</time></trkpt><trkpt lat="39.869589617061465" lon="8.609261648780466"><ele>7.0</ele><time>2026-04-06T13:47:24.999Z</time></trkpt><trkpt lat="39.86949593273423" lon="8.609241809431659"><ele>7.0</ele><time>2026-04-06T13:47:25.999Z</time></trkpt><trkpt lat="39.86939411514543" lon="8.609215959692317"><ele>7.0</ele><time>2026-04-06T13:47:26.999Z</time></trkpt><trkpt lat="39.869285997364116" lon="8.609187416515807"><ele>7.0</ele><time>2026-04-06T13:47:27.999Z</time></trkpt><trkpt lat="39.869166708668864" lon="8.609157668056449"><ele>7.0</ele><time>2026-04-06T13:47:28.999Z</time></trkpt><trkpt lat="39.86890338537647" lon="8.60912526336815"><ele>6.5</ele><time>2026-04-06T13:47:30.999Z</time></trkpt><trkpt lat="39.86878304665035" lon="8.609130188846652"><ele>6.0</ele><time>2026-04-06T13:47:31.999Z</time></trkpt><trkpt lat="39.868658614779086" lon="8.609135510885332"><ele>5.5</ele><time>2026-04-06T13:47:32.999Z</time></trkpt><trkpt lat="39.86853360214355" lon="8.609147962764391"><ele>5.0</ele><time>2026-04-06T13:47:33.999Z</time></trkpt><trkpt lat="39.86842538135257" lon="8.609163872133497"><ele>5.0</ele><time>2026-04-06T13:47:34.999Z</time></trkpt><trkpt lat="39.86833044377337" lon="8.609184758698163"><ele>5.0</ele><time>2026-04-06T13:47:35.999Z</time></trkpt><trkpt lat="39.868257024536994" lon="8.609204792744999"><ele>5.0</ele><time>2026-04-06T13:47:36.999Z</time></trkpt><trkpt lat="39.868155539644555" lon="8.609229509504303"><ele>5.0</ele><time>2026-04-06T13:47:38.999Z</time></trkpt><trkpt lat="39.86807229685598" lon="8.60926867839651"><ele>5.0</ele><time>2026-04-06T13:47:40.999Z</time></trkpt><trkpt lat="39.86808367982823" lon="8.609501736552128"><ele>4.4</ele><time>2026-04-06T13:47:41.999Z</time></trkpt><trkpt lat="39.86805253049333" lon="8.609613456339694"><ele>3.8</ele><time>2026-04-06T13:47:42.999Z</time></trkpt><trkpt lat="39.868017477511074" lon="8.609738576731187"><ele>3.2</ele><time>2026-04-06T13:47:43.999Z</time></trkpt><trkpt lat="39.86797925360019" lon="8.609870275552511"><ele>2.6</ele><time>2026-04-06T13:47:44.999Z</time></trkpt><trkpt lat="39.867942159363196" lon="8.609991945697017"><ele>2.0</ele><time>2026-04-06T13:47:45.999Z</time></trkpt><trkpt lat="39.86790247828683" lon="8.610118836328121"><ele>2.0</ele><time>2026-04-06T13:47:46.999Z</time></trkpt><trkpt lat="39.86786188402341" lon="8.610253526005666"><ele>2.0</ele><time>2026-04-06T13:47:47.999Z</time></trkpt><trkpt lat="39.867817540765415" lon="8.610403496330104"><ele>2.0</ele><time>2026-04-06T13:47:48.999Z</time></trkpt><trkpt lat="39.867768733500164" lon="8.610564822774192"><ele>2.0</ele><time>2026-04-06T13:47:49.999Z</time></trkpt><trkpt lat="39.86771452600556" lon="8.610739929632604"><ele>1.75</ele><time>2026-04-06T13:47:50.999Z</time></trkpt><trkpt lat="39.86765988732851" lon="8.610922852085029"><ele>1.5</ele><time>2026-04-06T13:47:51.999Z</time></trkpt><trkpt lat="39.867610854366006" lon="8.611084891715329"><ele>1.25</ele><time>2026-04-06T13:47:52.999Z</time></trkpt><trkpt lat="39.8675622177522" lon="8.611243755589335"><ele>1.0</ele><time>2026-04-06T13:47:53.999Z</time></trkpt><trkpt lat="39.86750845024908" lon="8.611418660015243"><ele>1.3333333333333333</ele><time>2026-04-06T13:47:54.999Z</time></trkpt><trkpt lat="39.86745141601555" lon="8.611604818238126"><ele>1.6666666666666665</ele><time>2026-04-06T13:47:55.999Z</time></trkpt><trkpt lat="39.86738969045906" lon="8.611811421517723"><ele>2.0</ele><time>2026-04-06T13:47:56.999Z</time></trkpt><trkpt lat="39.86732724655612" lon="8.612025423252401"><ele>2.0</ele><time>2026-04-06T13:47:57.999Z</time></trkpt><trkpt lat="39.867261448538535" lon="8.61224497263287"><ele>2.0</ele><time>2026-04-06T13:47:58.999Z</time></trkpt><trkpt lat="39.86720137747651" lon="8.612445874572924"><ele>2.0</ele><time>2026-04-06T13:47:59.999Z</time></trkpt><trkpt lat="39.8671444470948" lon="8.612632250814146"><ele>2.0</ele><time>2026-04-06T13:48:00.999Z</time></trkpt><trkpt lat="39.86709380221707" lon="8.612798095577075"><ele>2.0</ele><time>2026-04-06T13:48:01.999Z</time></trkpt><trkpt lat="39.86704271549099" lon="8.61295170934346"><ele>2.0</ele><time>2026-04-06T13:48:02.999Z</time></trkpt><trkpt lat="39.86698410594805" lon="8.61309659072385"><ele>2.0</ele><time>2026-04-06T13:48:03.999Z</time></trkpt><trkpt lat="39.86691333943317" lon="8.613223108159021"><ele>2.0</ele><time>2026-04-06T13:48:04.999Z</time></trkpt><trkpt lat="39.86682395250507" lon="8.613333082321121"><ele>2.0</ele><time>2026-04-06T13:48:05.999Z</time></trkpt><trkpt lat="39.86671339740104" lon="8.613427552945115"><ele>2.0</ele><time>2026-04-06T13:48:06.999Z</time></trkpt><trkpt lat="39.86659456591721" lon="8.613490246923211"><ele>2.0</ele><time>2026-04-06T13:48:07.999Z</time></trkpt><trkpt lat="39.86646825740654" lon="8.6135229774336"><ele>2.0</ele><time>2026-04-06T13:48:08.999Z</time></trkpt><trkpt lat="39.8663297249103" lon="8.613532658640848"><ele>2.0</ele><time>2026-04-06T13:48:09.999Z</time></trkpt><trkpt lat="39.866191013093186" lon="8.613511577687301"><ele>2.0</ele><time>2026-04-06T13:48:10.999Z</time></trkpt><trkpt lat="39.86606359256591" lon="8.61344554173599"><ele>2.0</ele><time>2026-04-06T13:48:11.999Z</time></trkpt><trkpt lat="39.86594553297681" lon="8.613347509408772"><ele>2.0</ele><time>2026-04-06T13:48:12.999Z</time></trkpt><trkpt lat="39.865838551984545" lon="8.613225259569258"><ele>2.0</ele><time>2026-04-06T13:48:13.999Z</time></trkpt><trkpt lat="39.86575655156021" lon="8.613069440886834"><ele>2.0</ele><time>2026-04-06T13:48:14.999Z</time></trkpt><trkpt lat="39.86569689192338" lon="8.612895338418591"><ele>2.0</ele><time>2026-04-06T13:48:15.999Z</time></trkpt><trkpt lat="39.86565760833108" lon="8.612708350075144"><ele>2.0</ele><time>2026-04-06T13:48:16.999Z</time></trkpt><trkpt lat="39.86565129085346" lon="8.612526601736212"><ele>2.0</ele><time>2026-04-06T13:48:17.999Z</time></trkpt><trkpt lat="39.86567558922001" lon="8.612347346488157"><ele>2.0</ele><time>2026-04-06T13:48:18.999Z</time></trkpt><trkpt lat="39.86572869892376" lon="8.612169131994014"><ele>2.0</ele><time>2026-04-06T13:48:19.999Z</time></trkpt><trkpt lat="39.865803989224425" lon="8.612011362649847"><ele>2.0</ele><time>2026-04-06T13:48:20.999Z</time></trkpt><trkpt lat="39.86589978975053" lon="8.611879506838928"><ele>2.0</ele><time>2026-04-06T13:48:21.999Z</time></trkpt><trkpt lat="39.86602606980309" lon="8.61178308725835"><ele>2.0</ele><time>2026-04-06T13:48:22.999Z</time></trkpt><trkpt lat="39.86616479016228" lon="8.611710108509365"><ele>2.0</ele><time>2026-04-06T13:48:23.999Z</time></trkpt><trkpt lat="39.86631519624352" lon="8.611674055195026"><ele>2.0</ele><time>2026-04-06T13:48:24.999Z</time></trkpt><trkpt lat="39.86647817815084" lon="8.611664866892802"><ele>2.0</ele><time>2026-04-06T13:48:25.999Z</time></trkpt><trkpt lat="39.86665570000974" lon="8.611676708049908"><ele>2.0</ele><time>2026-04-06T13:48:26.999Z</time></trkpt><trkpt lat="39.86684449288542" lon="8.611685006458318"><ele>2.333333333333333</ele><time>2026-04-06T13:48:27.999Z</time></trkpt><trkpt lat="39.867032747000025" lon="8.611708328362553"><ele>2.6666666666666665</ele><time>2026-04-06T13:48:28.999Z</time></trkpt><trkpt lat="39.86720502038037" lon="8.611733992835342"><ele>3.0</ele><time>2026-04-06T13:48:29.999Z</time></trkpt><trkpt lat="39.867379789650755" lon="8.611761912298192"><ele>3.0</ele><time>2026-04-06T13:48:30.999Z</time></trkpt><trkpt lat="39.86755371976103" lon="8.611777795928248"><ele>3.0</ele><time>2026-04-06T13:48:31.999Z</time></trkpt><trkpt lat="39.86772452337537" lon="8.611778443068816"><ele>3.0</ele><time>2026-04-06T13:48:32.999Z</time></trkpt><trkpt lat="39.86789057713203" lon="8.611765893180298"><ele>3.0</ele><time>2026-04-06T13:48:33.999Z</time></trkpt><trkpt lat="39.86805637624101" lon="8.6117605886367"><ele>3.0</ele><time>2026-04-06T13:48:34.999Z</time></trkpt><trkpt lat="39.86821420736621" lon="8.611776208965942"><ele>3.0</ele><time>2026-04-06T13:48:35.999Z</time></trkpt><trkpt lat="39.86836956857206" lon="8.611818298520703"><ele>3.0</ele><time>2026-04-06T13:48:36.999Z</time></trkpt><trkpt lat="39.86852241506631" lon="8.611877480452367"><ele>3.0</ele><time>2026-04-06T13:48:37.999Z</time></trkpt><trkpt lat="39.86867612647505" lon="8.61194389549417"><ele>3.0</ele><time>2026-04-06T13:48:38.999Z</time></trkpt><trkpt lat="39.868839434364986" lon="8.612019608148247"><ele>3.0</ele><time>2026-04-06T13:48:39.999Z</time></trkpt><trkpt lat="39.86901292502063" lon="8.612103471741182"><ele>3.0</ele><time>2026-04-06T13:48:40.999Z</time></trkpt><trkpt lat="39.8691957071465" lon="8.612195531675956"><ele>3.0</ele><time>2026-04-06T13:48:41.999Z</time></trkpt><trkpt lat="39.86939116140576" lon="8.612292262494929"><ele>3.0</ele><time>2026-04-06T13:48:42.999Z</time></trkpt><trkpt lat="39.86959217140023" lon="8.612388627315763"><ele>3.0</ele><time>2026-04-06T13:48:43.999Z</time></trkpt><trkpt lat="39.86980003651022" lon="8.612493485886414"><ele>3.0</ele><time>2026-04-06T13:48:44.999Z</time></trkpt><trkpt lat="39.87001040672621" lon="8.612616403497961"><ele>3.666666666666667</ele><time>2026-04-06T13:48:45.999Z</time></trkpt><trkpt lat="39.87021663953914" lon="8.612746216505869"><ele>4.333333333333334</ele><time>2026-04-06T13:48:46.999Z</time></trkpt><trkpt lat="39.87041074083638" lon="8.61287345026809"><ele>5.0</ele><time>2026-04-06T13:48:47.997Z</time></trkpt><trkpt lat="39.87060458020054" lon="8.612997683425963"><ele>5.0</ele><time>2026-04-06T13:48:48.997Z</time></trkpt><trkpt lat="39.87079800945068" lon="8.613119682835764"><ele>5.0</ele><time>2026-04-06T13:48:49.997Z</time></trkpt><trkpt lat="39.87099331457897" lon="8.613243738314758"><ele>5.0</ele><time>2026-04-06T13:48:50.997Z</time></trkpt><trkpt lat="39.87119018418812" lon="8.613368866258993"><ele>5.0</ele><time>2026-04-06T13:48:51.997Z</time></trkpt><trkpt lat="39.87138813100835" lon="8.613497117180604"><ele>5.0</ele><time>2026-04-06T13:48:52.997Z</time></trkpt><trkpt lat="39.87158547354129" lon="8.613628110814606"><ele>5.0</ele><time>2026-04-06T13:48:53.998Z</time></trkpt><trkpt lat="39.8717847973629" lon="8.613759604820736"><ele>5.0</ele><time>2026-04-06T13:48:54.998Z</time></trkpt><trkpt lat="39.87198734459894" lon="8.613891166523322"><ele>5.0</ele><time>2026-04-06T13:48:55.998Z</time></trkpt><trkpt lat="39.872196878830835" lon="8.614022586386648"><ele>5.0</ele><time>2026-04-06T13:48:56.998Z</time></trkpt><trkpt lat="39.8724090428407" lon="8.614152001507232"><ele>5.0</ele><time>2026-04-06T13:48:57.998Z</time></trkpt><trkpt lat="39.87262191510651" lon="8.614284586602109"><ele>4.5</ele><time>2026-04-06T13:48:58.998Z</time></trkpt><trkpt lat="39.87283856496794" lon="8.614422651984755"><ele>4.0</ele><time>2026-04-06T13:48:59.998Z</time></trkpt><trkpt lat="39.873065096389844" lon="8.614565179555175"><ele>5.0</ele><time>2026-04-06T13:49:00.998Z</time></trkpt><trkpt lat="39.87328928085511" lon="8.614700518713851"><ele>6.0</ele><time>2026-04-06T13:49:01.998Z</time></trkpt><trkpt lat="39.87351831031492" lon="8.614834755768811"><ele>6.0</ele><time>2026-04-06T13:49:02.998Z</time></trkpt><trkpt lat="39.87375055401779" lon="8.614966865060746"><ele>6.0</ele><time>2026-04-06T13:49:03.998Z</time></trkpt><trkpt lat="39.873985578340196" lon="8.615100481877207"><ele>6.0</ele><time>2026-04-06T13:49:04.998Z</time></trkpt><trkpt lat="39.87422197198219" lon="8.615230547468586"><ele>6.0</ele><time>2026-04-06T13:49:05.998Z</time></trkpt><trkpt lat="39.87445800511873" lon="8.615359122397779"><ele>5.5</ele><time>2026-04-06T13:49:06.998Z</time></trkpt><trkpt lat="39.87469623460535" lon="8.615487767315665"><ele>5.0</ele><time>2026-04-06T13:49:07.998Z</time></trkpt><trkpt lat="39.87493591155177" lon="8.615613101343243"><ele>6.0</ele><time>2026-04-06T13:49:08.998Z</time></trkpt><trkpt lat="39.875174495069764" lon="8.615732555550188"><ele>7.0</ele><time>2026-04-06T13:49:09.998Z</time></trkpt><trkpt lat="39.87541245192113" lon="8.615848871515977"><ele>7.0</ele><time>2026-04-06T13:49:10.998Z</time></trkpt><trkpt lat="39.87564901732023" lon="8.61596293053976"><ele>7.0</ele><time>2026-04-06T13:49:11.998Z</time></trkpt><trkpt lat="39.8758846605408" lon="8.616073535711985"><ele>6.0</ele><time>2026-04-06T13:49:12.998Z</time></trkpt><trkpt lat="39.87612018470619" lon="8.616180330446845"><ele>5.0</ele><time>2026-04-06T13:49:13.998Z</time></trkpt><trkpt lat="39.876357537522686" lon="8.616287685518152"><ele>5.0</ele><time>2026-04-06T13:49:14.998Z</time></trkpt><trkpt lat="39.87659319353228" lon="8.616392845525414"><ele>5.0</ele><time>2026-04-06T13:49:15.998Z</time></trkpt><trkpt lat="39.87682804070332" lon="8.616497511422475"><ele>6.5</ele><time>2026-04-06T13:49:16.998Z</time></trkpt><trkpt lat="39.8770648838388" lon="8.616604260981894"><ele>8.0</ele><time>2026-04-06T13:49:17.998Z</time></trkpt><trkpt lat="39.87730167579888" lon="8.61671167376085"><ele>8.0</ele><time>2026-04-06T13:49:18.998Z</time></trkpt><trkpt lat="39.87753973577027" lon="8.616821545141075"><ele>8.0</ele><time>2026-04-06T13:49:19.998Z</time></trkpt><trkpt lat="39.87777763150989" lon="8.616931713472054"><ele>7.5</ele><time>2026-04-06T13:49:20.998Z</time></trkpt><trkpt lat="39.87801422873581" lon="8.617039963373156"><ele>7.0</ele><time>2026-04-06T13:49:21.998Z</time></trkpt><trkpt lat="39.87825434884096" lon="8.617149176950663"><ele>9.0</ele><time>2026-04-06T13:49:22.998Z</time></trkpt><trkpt lat="39.87849165689495" lon="8.617257289328183"><ele>11.0</ele><time>2026-04-06T13:49:23.998Z</time></trkpt><trkpt lat="39.87873098718915" lon="8.61736685557855"><ele>11.0</ele><time>2026-04-06T13:49:24.998Z</time></trkpt><trkpt lat="39.87897207220091" lon="8.617476965211475"><ele>11.0</ele><time>2026-04-06T13:49:25.998Z</time></trkpt><trkpt lat="39.87921124875765" lon="8.617586016450854"><ele>11.0</ele><time>2026-04-06T13:49:26.998Z</time></trkpt><trkpt lat="39.87945173522861" lon="8.617697466582888"><ele>11.0</ele><time>2026-04-06T13:49:27.998Z</time></trkpt><trkpt lat="39.87969302063319" lon="8.617808570798637"><ele>10.5</ele><time>2026-04-06T13:49:28.998Z</time></trkpt><trkpt lat="39.8799324406471" lon="8.6179159986732"><ele>10.0</ele><time>2026-04-06T13:49:29.998Z</time></trkpt><trkpt lat="39.88017204193993" lon="8.618022781805303"><ele>10.0</ele><time>2026-04-06T13:49:30.998Z</time></trkpt><trkpt lat="39.88041156193606" lon="8.618130594323821"><ele>10.0</ele><time>2026-04-06T13:49:31.998Z</time></trkpt><trkpt lat="39.8806525479047" lon="8.61823872726734"><ele>10.0</ele><time>2026-04-06T13:49:32.998Z</time></trkpt><trkpt lat="39.88088909730512" lon="8.618344277244521"><ele>10.0</ele><time>2026-04-06T13:49:33.998Z</time></trkpt><trkpt lat="39.88112818056747" lon="8.618450682335759"><ele>10.0</ele><time>2026-04-06T13:49:34.998Z</time></trkpt><trkpt lat="39.88136680027878" lon="8.618557594957753"><ele>10.0</ele><time>2026-04-06T13:49:35.998Z</time></trkpt><trkpt lat="39.8816056598212" lon="8.618667081313097"><ele>9.0</ele><time>2026-04-06T13:49:36.998Z</time></trkpt><trkpt lat="39.881843151246656" lon="8.61877890076259"><ele>8.0</ele><time>2026-04-06T13:49:37.998Z</time></trkpt><trkpt lat="39.88208097571144" lon="8.618893626545855"><ele>8.0</ele><time>2026-04-06T13:49:38.998Z</time></trkpt><trkpt lat="39.882318451907175" lon="8.61900840077733"><ele>8.0</ele><time>2026-04-06T13:49:39.998Z</time></trkpt><trkpt lat="39.88255372973281" lon="8.61912183098635"><ele>8.0</ele><time>2026-04-06T13:49:40.998Z</time></trkpt><trkpt lat="39.88279004187181" lon="8.619238338783099"><ele>8.0</ele><time>2026-04-06T13:49:41.998Z</time></trkpt><trkpt lat="39.88302604513922" lon="8.619355796919459"><ele>8.0</ele><time>2026-04-06T13:49:42.998Z</time></trkpt><trkpt lat="39.88326254307792" lon="8.619474622560586"><ele>8.0</ele><time>2026-04-06T13:49:43.998Z</time></trkpt><trkpt lat="39.88349630567876" lon="8.619596987435571"><ele>8.0</ele><time>2026-04-06T13:49:44.998Z</time></trkpt><trkpt lat="39.88373130137737" lon="8.619723798656942"><ele>8.0</ele><time>2026-04-06T13:49:45.998Z</time></trkpt><trkpt lat="39.88396347022523" lon="8.619851571733378"><ele>8.0</ele><time>2026-04-06T13:49:46.998Z</time></trkpt><trkpt lat="39.884199391639704" lon="8.619980942966029"><ele>8.0</ele><time>2026-04-06T13:49:47.998Z</time></trkpt><trkpt lat="39.88443407687142" lon="8.62010995659453"><ele>8.0</ele><time>2026-04-06T13:49:48.998Z</time></trkpt><trkpt lat="39.88466908625784" lon="8.620241449296605"><ele>8.0</ele><time>2026-04-06T13:49:49.998Z</time></trkpt><trkpt lat="39.88490242018947" lon="8.620372044459735"><ele>9.0</ele><time>2026-04-06T13:49:50.998Z</time></trkpt><trkpt lat="39.88513820375517" lon="8.620504287120811"><ele>10.0</ele><time>2026-04-06T13:49:51.998Z</time></trkpt><trkpt lat="39.885372905083194" lon="8.620635439304962"><ele>10.0</ele><time>2026-04-06T13:49:52.998Z</time></trkpt><trkpt lat="39.88560966771646" lon="8.620768112124576"><ele>10.0</ele><time>2026-04-06T13:49:53.998Z</time></trkpt><trkpt lat="39.88584595270168" lon="8.620901062329148"><ele>9.5</ele><time>2026-04-06T13:49:54.998Z</time></trkpt><trkpt lat="39.88608460115666" lon="8.62103532714472"><ele>9.0</ele><time>2026-04-06T13:49:55.998Z</time></trkpt><trkpt lat="39.886324846759955" lon="8.621165970596552"><ele>9.0</ele><time>2026-04-06T13:49:56.998Z</time></trkpt><trkpt lat="39.88656711969611" lon="8.621296850396902"><ele>9.0</ele><time>2026-04-06T13:49:57.998Z</time></trkpt><trkpt lat="39.88680832219312" lon="8.621425133951611"><ele>8.5</ele><time>2026-04-06T13:49:58.998Z</time></trkpt><trkpt lat="39.887048703995546" lon="8.621550638906454"><ele>8.0</ele><time>2026-04-06T13:49:59.998Z</time></trkpt><trkpt lat="39.8872904149548" lon="8.621674752867088"><ele>8.0</ele><time>2026-04-06T13:50:00.998Z</time></trkpt><trkpt lat="39.88753697359004" lon="8.621796906509061"><ele>8.0</ele><time>2026-04-06T13:50:01.998Z</time></trkpt><trkpt lat="39.88778089369785" lon="8.621916171534192"><ele>8.0</ele><time>2026-04-06T13:50:02.998Z</time></trkpt><trkpt lat="39.88802752399514" lon="8.622039460922462"><ele>8.0</ele><time>2026-04-06T13:50:03.998Z</time></trkpt><trkpt lat="39.88826988775115" lon="8.622155062507122"><ele>8.5</ele><time>2026-04-06T13:50:04.998Z</time></trkpt><trkpt lat="39.88851659718547" lon="8.622277744340632"><ele>9.0</ele><time>2026-04-06T13:50:05.998Z</time></trkpt><trkpt lat="39.88875953568814" lon="8.622393836801594"><ele>9.0</ele><time>2026-04-06T13:50:06.998Z</time></trkpt><trkpt lat="39.889002441849776" lon="8.62250840393723"><ele>9.0</ele><time>2026-04-06T13:50:07.998Z</time></trkpt><trkpt lat="39.889243497239285" lon="8.622619062171214"><ele>9.0</ele><time>2026-04-06T13:50:08.998Z</time></trkpt><trkpt lat="39.889487443835336" lon="8.622734815872438"><ele>9.0</ele><time>2026-04-06T13:50:09.998Z</time></trkpt><trkpt lat="39.889729148223765" lon="8.622847739426728"><ele>9.0</ele><time>2026-04-06T13:50:10.998Z</time></trkpt><trkpt lat="39.88996908712416" lon="8.622959641681065"><ele>9.0</ele><time>2026-04-06T13:50:11.998Z</time></trkpt><trkpt lat="39.89020754067527" lon="8.62306880825574"><ele>9.0</ele><time>2026-04-06T13:50:12.998Z</time></trkpt><trkpt lat="39.89044683830755" lon="8.62318429429793"><ele>9.0</ele><time>2026-04-06T13:50:13.998Z</time></trkpt><trkpt lat="39.89068402029377" lon="8.623300811471116"><ele>9.0</ele><time>2026-04-06T13:50:14.998Z</time></trkpt><trkpt lat="39.890919168878" lon="8.623417820121068"><ele>9.0</ele><time>2026-04-06T13:50:15.998Z</time></trkpt><trkpt lat="39.891155441069905" lon="8.623536955003717"><ele>8.0</ele><time>2026-04-06T13:50:16.998Z</time></trkpt><trkpt lat="39.89139237431194" lon="8.623659819362874"><ele>7.0</ele><time>2026-04-06T13:50:17.998Z</time></trkpt><trkpt lat="39.89163031681563" lon="8.623783786787243"><ele>8.0</ele><time>2026-04-06T13:50:18.998Z</time></trkpt><trkpt lat="39.89186567827622" lon="8.623909777482702"><ele>9.0</ele><time>2026-04-06T13:50:19.998Z</time></trkpt><trkpt lat="39.892103317964995" lon="8.624039263815003"><ele>9.0</ele><time>2026-04-06T13:50:20.998Z</time></trkpt><trkpt lat="39.89234110766982" lon="8.624168497540222"><ele>9.0</ele><time>2026-04-06T13:50:21.998Z</time></trkpt><trkpt lat="39.89257904115275" lon="8.624299426408603"><ele>9.0</ele><time>2026-04-06T13:50:22.998Z</time></trkpt><trkpt lat="39.89280829838347" lon="8.62442962718568"><ele>9.0</ele><time>2026-04-06T13:50:23.998Z</time></trkpt><trkpt lat="39.89303691350808" lon="8.624559939693095"><ele>9.0</ele><time>2026-04-06T13:50:24.998Z</time></trkpt><trkpt lat="39.89326624735624" lon="8.624690386923136"><ele>9.0</ele><time>2026-04-06T13:50:25.998Z</time></trkpt><trkpt lat="39.893497621714445" lon="8.624821468401512"><ele>9.0</ele><time>2026-04-06T13:50:26.998Z</time></trkpt><trkpt lat="39.89373355008846" lon="8.624953788872046"><ele>9.0</ele><time>2026-04-06T13:50:27.998Z</time></trkpt><trkpt lat="39.89397157199237" lon="8.625084806844352"><ele>9.0</ele><time>2026-04-06T13:50:28.998Z</time></trkpt><trkpt lat="39.89420529490596" lon="8.625213558121398"><ele>9.0</ele><time>2026-04-06T13:50:29.998Z</time></trkpt><trkpt lat="39.89444312694262" lon="8.625342533017358"><ele>9.0</ele><time>2026-04-06T13:50:30.998Z</time></trkpt><trkpt lat="39.894679312590235" lon="8.62547067335254"><ele>9.0</ele><time>2026-04-06T13:50:31.998Z</time></trkpt><trkpt lat="39.89491699444082" lon="8.625596658734132"><ele>9.5</ele><time>2026-04-06T13:50:32.998Z</time></trkpt><trkpt lat="39.89515812163925" lon="8.625717861322991"><ele>10.0</ele><time>2026-04-06T13:50:33.998Z</time></trkpt><trkpt lat="39.8954001986086" lon="8.62583166033325"><ele>10.0</ele><time>2026-04-06T13:50:34.998Z</time></trkpt><trkpt lat="39.89564631882021" lon="8.625939510124523"><ele>10.0</ele><time>2026-04-06T13:50:35.998Z</time></trkpt><trkpt lat="39.895888874438775" lon="8.626040641540198"><ele>10.0</ele><time>2026-04-06T13:50:36.998Z</time></trkpt><trkpt lat="39.89613444773981" lon="8.626139579574822"><ele>10.0</ele><time>2026-04-06T13:50:37.998Z</time></trkpt><trkpt lat="39.89637991644879" lon="8.626235701691423"><ele>9.5</ele><time>2026-04-06T13:50:38.998Z</time></trkpt><trkpt lat="39.8966268053642" lon="8.626331710784457"><ele>9.0</ele><time>2026-04-06T13:50:39.998Z</time></trkpt><trkpt lat="39.896873714093715" lon="8.62642274400047"><ele>9.0</ele><time>2026-04-06T13:50:40.998Z</time></trkpt><trkpt lat="39.89711997770359" lon="8.626515147624245"><ele>9.0</ele><time>2026-04-06T13:50:41.998Z</time></trkpt><trkpt lat="39.8973632797718" lon="8.626606635673454"><ele>10.0</ele><time>2026-04-06T13:50:42.998Z</time></trkpt><trkpt lat="39.89760665481688" lon="8.62669956495041"><ele>11.0</ele><time>2026-04-06T13:50:43.998Z</time></trkpt><trkpt lat="39.897839492207886" lon="8.626789483070691"><ele>11.0</ele><time>2026-04-06T13:50:44.998Z</time></trkpt><trkpt lat="39.898068324531245" lon="8.626881387834235"><ele>11.0</ele><time>2026-04-06T13:50:45.998Z</time></trkpt><trkpt lat="39.898299686961984" lon="8.626978210329737"><ele>11.0</ele><time>2026-04-06T13:50:46.998Z</time></trkpt><trkpt lat="39.89853192158624" lon="8.627078120898755"><ele>11.0</ele><time>2026-04-06T13:50:47.998Z</time></trkpt><trkpt lat="39.898768080095344" lon="8.627183026912917"><ele>11.0</ele><time>2026-04-06T13:50:48.998Z</time></trkpt><trkpt lat="39.89900355341206" lon="8.627290375752333"><ele>11.0</ele><time>2026-04-06T13:50:49.998Z</time></trkpt><trkpt lat="39.89924196399599" lon="8.627402099987608"><ele>12.0</ele><time>2026-04-06T13:50:50.998Z</time></trkpt><trkpt lat="39.89947887791424" lon="8.62751253484749"><ele>13.0</ele><time>2026-04-06T13:50:51.998Z</time></trkpt><trkpt lat="39.89971731955942" lon="8.62762827235378"><ele>13.0</ele><time>2026-04-06T13:50:52.998Z</time></trkpt><trkpt lat="39.899954410648995" lon="8.62774386139849"><ele>13.0</ele><time>2026-04-06T13:50:53.997Z</time></trkpt><trkpt lat="39.90019064827053" lon="8.627859738574017"><ele>12.5</ele><time>2026-04-06T13:50:54.997Z</time></trkpt><trkpt lat="39.900427887311245" lon="8.627978276914893"><ele>12.0</ele><time>2026-04-06T13:50:55.997Z</time></trkpt><trkpt lat="39.90066190472855" lon="8.628091459852637"><ele>12.0</ele><time>2026-04-06T13:50:56.997Z</time></trkpt><trkpt lat="39.90089703070365" lon="8.62820412573946"><ele>12.0</ele><time>2026-04-06T13:50:57.997Z</time></trkpt><trkpt lat="39.9011309722852" lon="8.62831790907204"><ele>13.0</ele><time>2026-04-06T13:50:58.997Z</time></trkpt><trkpt lat="39.901365695121115" lon="8.628433221767922"><ele>14.0</ele><time>2026-04-06T13:50:59.997Z</time></trkpt><trkpt lat="39.90159849717385" lon="8.628546724874825"><ele>13.5</ele><time>2026-04-06T13:51:00.997Z</time></trkpt><trkpt lat="39.90183327527919" lon="8.628660544515249"><ele>13.0</ele><time>2026-04-06T13:51:01.997Z</time></trkpt><trkpt lat="39.90206940045355" lon="8.62877643031898"><ele>13.0</ele><time>2026-04-06T13:51:02.997Z</time></trkpt><trkpt lat="39.902302673294464" lon="8.628889823818621"><ele>13.0</ele><time>2026-04-06T13:51:03.997Z</time></trkpt><trkpt lat="39.9025362703028" lon="8.629004541403456"><ele>14.0</ele><time>2026-04-06T13:51:04.997Z</time></trkpt><trkpt lat="39.90277166700921" lon="8.629122062309232"><ele>15.0</ele><time>2026-04-06T13:51:05.997Z</time></trkpt><trkpt lat="39.90300650350956" lon="8.62924028854822"><ele>15.0</ele><time>2026-04-06T13:51:06.997Z</time></trkpt><trkpt lat="39.90323982780016" lon="8.629359471038102"><ele>15.0</ele><time>2026-04-06T13:51:07.998Z</time></trkpt><trkpt lat="39.90347312060498" lon="8.629477961675585"><ele>14.0</ele><time>2026-04-06T13:51:08.998Z</time></trkpt><trkpt lat="39.90370428079306" lon="8.629594085904033"><ele>13.0</ele><time>2026-04-06T13:51:09.998Z</time></trkpt><trkpt lat="39.90393711551247" lon="8.629707862973596"><ele>13.0</ele><time>2026-04-06T13:51:10.998Z</time></trkpt><trkpt lat="39.90416935875456" lon="8.629822800939557"><ele>13.0</ele><time>2026-04-06T13:51:11.998Z</time></trkpt><trkpt lat="39.90439993099818" lon="8.629934958437913"><ele>14.0</ele><time>2026-04-06T13:51:12.998Z</time></trkpt><trkpt lat="39.904629905849795" lon="8.630050494667337"><ele>15.0</ele><time>2026-04-06T13:51:13.998Z</time></trkpt><trkpt lat="39.904858781146736" lon="8.630164868145709"><ele>14.5</ele><time>2026-04-06T13:51:14.998Z</time></trkpt><trkpt lat="39.905085682842454" lon="8.630280012252257"><ele>14.0</ele><time>2026-04-06T13:51:15.998Z</time></trkpt><trkpt lat="39.90531290683677" lon="8.63039583569391"><ele>13.5</ele><time>2026-04-06T13:51:16.998Z</time></trkpt><trkpt lat="39.905540111533604" lon="8.630510654045548"><ele>13.0</ele><time>2026-04-06T13:51:17.998Z</time></trkpt><trkpt lat="39.90577157493789" lon="8.6306251547098"><ele>14.0</ele><time>2026-04-06T13:51:18.998Z</time></trkpt><trkpt lat="39.90600366646366" lon="8.630738454335035"><ele>15.0</ele><time>2026-04-06T13:51:19.998Z</time></trkpt><trkpt lat="39.90623441899581" lon="8.630850139120506"><ele>15.0</ele><time>2026-04-06T13:51:20.998Z</time></trkpt><trkpt lat="39.90646591509393" lon="8.630963210762824"><ele>15.0</ele><time>2026-04-06T13:51:21.998Z</time></trkpt><trkpt lat="39.906697392298625" lon="8.631076610277482"><ele>13.5</ele><time>2026-04-06T13:51:22.998Z</time></trkpt><trkpt lat="39.90693097805349" lon="8.631191375196495"><ele>12.0</ele><time>2026-04-06T13:51:23.998Z</time></trkpt><trkpt lat="39.9071635082794" lon="8.631307347288525"><ele>12.0</ele><time>2026-04-06T13:51:24.998Z</time></trkpt><trkpt lat="39.90739730142321" lon="8.63142321802291"><ele>12.0</ele><time>2026-04-06T13:51:25.998Z</time></trkpt><trkpt lat="39.90763253880076" lon="8.631539552542408"><ele>12.5</ele><time>2026-04-06T13:51:26.998Z</time></trkpt><trkpt lat="39.9078686959604" lon="8.631654734690471"><ele>13.0</ele><time>2026-04-06T13:51:27.998Z</time></trkpt><trkpt lat="39.908108321319055" lon="8.631771707812906"><ele>13.0</ele><time>2026-04-06T13:51:28.998Z</time></trkpt><trkpt lat="39.908345049577406" lon="8.631887624195922"><ele>13.0</ele><time>2026-04-06T13:51:29.998Z</time></trkpt><trkpt lat="39.90858289843369" lon="8.632003946335724"><ele>12.0</ele><time>2026-04-06T13:51:30.998Z</time></trkpt><trkpt lat="39.908820689075704" lon="8.632122086722093"><ele>11.0</ele><time>2026-04-06T13:51:31.998Z</time></trkpt><trkpt lat="39.90905756886363" lon="8.632240289063892"><ele>12.5</ele><time>2026-04-06T13:51:32.998Z</time></trkpt><trkpt lat="39.90929606140936" lon="8.632360161165666"><ele>14.0</ele><time>2026-04-06T13:51:33.998Z</time></trkpt><trkpt lat="39.9095312882708" lon="8.632479160107055"><ele>14.0</ele><time>2026-04-06T13:51:34.998Z</time></trkpt><trkpt lat="39.90976662788073" lon="8.632597680731225"><ele>14.0</ele><time>2026-04-06T13:51:35.998Z</time></trkpt><trkpt lat="39.91000369683326" lon="8.632714062948226"><ele>14.0</ele><time>2026-04-06T13:51:36.998Z</time></trkpt><trkpt lat="39.91023965666842" lon="8.632829206138457"><ele>14.0</ele><time>2026-04-06T13:51:37.998Z</time></trkpt><trkpt lat="39.91047704829167" lon="8.632945218162513"><ele>14.0</ele><time>2026-04-06T13:51:38.998Z</time></trkpt><trkpt lat="39.910712280416945" lon="8.633060875018328"><ele>14.0</ele><time>2026-04-06T13:51:39.998Z</time></trkpt><trkpt lat="39.910951528057375" lon="8.6331784115166"><ele>14.0</ele><time>2026-04-06T13:51:40.998Z</time></trkpt><trkpt lat="39.91119025639912" lon="8.633294658197224"><ele>14.0</ele><time>2026-04-06T13:51:41.998Z</time></trkpt><trkpt lat="39.91142836491374" lon="8.633407575724357"><ele>14.0</ele><time>2026-04-06T13:51:42.998Z</time></trkpt><trkpt lat="39.9116685550309" lon="8.633519859352633"><ele>14.0</ele><time>2026-04-06T13:51:43.998Z</time></trkpt><trkpt lat="39.91191054148315" lon="8.633629046232201"><ele>14.0</ele><time>2026-04-06T13:51:44.998Z</time></trkpt><trkpt lat="39.912153510359325" lon="8.633736471727811"><ele>14.0</ele><time>2026-04-06T13:51:45.998Z</time></trkpt><trkpt lat="39.91239792931526" lon="8.63384300859002"><ele>13.5</ele><time>2026-04-06T13:51:46.998Z</time></trkpt><trkpt lat="39.91264430466847" lon="8.633947295983427"><ele>13.0</ele><time>2026-04-06T13:51:47.998Z</time></trkpt><trkpt lat="39.9128868196642" lon="8.634042096457334"><ele>13.0</ele><time>2026-04-06T13:51:48.998Z</time></trkpt><trkpt lat="39.91313340825547" lon="8.634133426577238"><ele>13.0</ele><time>2026-04-06T13:51:49.998Z</time></trkpt><trkpt lat="39.913382648283275" lon="8.63421964687079"><ele>14.0</ele><time>2026-04-06T13:51:50.998Z</time></trkpt><trkpt lat="39.913632276845796" lon="8.634294805583078"><ele>15.0</ele><time>2026-04-06T13:51:51.998Z</time></trkpt><trkpt lat="39.91388482822675" lon="8.634360389003064"><ele>15.0</ele><time>2026-04-06T13:51:52.998Z</time></trkpt><trkpt lat="39.914137147073134" lon="8.634413457999894"><ele>15.0</ele><time>2026-04-06T13:51:53.998Z</time></trkpt><trkpt lat="39.91439046072059" lon="8.63445678201326"><ele>15.0</ele><time>2026-04-06T13:51:54.998Z</time></trkpt><trkpt lat="39.914643454683535" lon="8.634493438222433"><ele>15.0</ele><time>2026-04-06T13:51:55.999Z</time></trkpt><trkpt lat="39.91489316114425" lon="8.634523281855833"><ele>14.0</ele><time>2026-04-06T13:51:56.999Z</time></trkpt><trkpt lat="39.91514723698164" lon="8.634550922844666"><ele>13.0</ele><time>2026-04-06T13:51:57.999Z</time></trkpt><trkpt lat="39.91539409105091" lon="8.634571462888996"><ele>13.0</ele><time>2026-04-06T13:51:58.999Z</time></trkpt><trkpt lat="39.91564445734271" lon="8.634586140577415"><ele>13.0</ele><time>2026-04-06T13:51:59.999Z</time></trkpt><trkpt lat="39.91589456792118" lon="8.634592514948322"><ele>13.0</ele><time>2026-04-06T13:52:00.999Z</time></trkpt><trkpt lat="39.9161450457772" lon="8.634590615313854"><ele>13.0</ele><time>2026-04-06T13:52:01.999Z</time></trkpt><trkpt lat="39.91639337539535" lon="8.634581474213133"><ele>13.0</ele><time>2026-04-06T13:52:02.999Z</time></trkpt><trkpt lat="39.91664361830818" lon="8.63456989705761"><ele>13.0</ele><time>2026-04-06T13:52:03.999Z</time></trkpt><trkpt lat="39.916891654133394" lon="8.634552638468906"><ele>13.0</ele><time>2026-04-06T13:52:04.999Z</time></trkpt><trkpt lat="39.91714183710813" lon="8.634534823046957"><ele>13.0</ele><time>2026-04-06T13:52:05.999Z</time></trkpt><trkpt lat="39.91739131378286" lon="8.634516013343609"><ele>13.0</ele><time>2026-04-06T13:52:06.999Z</time></trkpt><trkpt lat="39.91764046180909" lon="8.634500108172304"><ele>13.0</ele><time>2026-04-06T13:52:07.999Z</time></trkpt><trkpt lat="39.9178877305035" lon="8.634484612729404"><ele>12.5</ele><time>2026-04-06T13:52:08.999Z</time></trkpt><trkpt lat="39.91813718749492" lon="8.634468772483858"><ele>12.0</ele><time>2026-04-06T13:52:09.999Z</time></trkpt><trkpt lat="39.91838922569818" lon="8.63444652788609"><ele>11.5</ele><time>2026-04-06T13:52:10.999Z</time></trkpt><trkpt lat="39.91864544883946" lon="8.634417049188151"><ele>11.0</ele><time>2026-04-06T13:52:11.999Z</time></trkpt><trkpt lat="39.918900346029005" lon="8.634382508788388"><ele>11.0</ele><time>2026-04-06T13:52:12.999Z</time></trkpt><trkpt lat="39.9191534744758" lon="8.634340464596878"><ele>11.0</ele><time>2026-04-06T13:52:13.999Z</time></trkpt><trkpt lat="39.919407236730414" lon="8.634291078297114"><ele>11.0</ele><time>2026-04-06T13:52:14.999Z</time></trkpt><trkpt lat="39.9196616364249" lon="8.63423576720394"><ele>11.0</ele><time>2026-04-06T13:52:15.999Z</time></trkpt><trkpt lat="39.91991251254588" lon="8.634174861983112"><ele>11.0</ele><time>2026-04-06T13:52:16.999Z</time></trkpt><trkpt lat="39.92016584826104" lon="8.634108680225717"><ele>11.0</ele><time>2026-04-06T13:52:17.999Z</time></trkpt><trkpt lat="39.920418557007636" lon="8.634036227452993"><ele>11.0</ele><time>2026-04-06T13:52:18.999Z</time></trkpt><trkpt lat="39.92066841103284" lon="8.633959000980635"><ele>11.0</ele><time>2026-04-06T13:52:19.999Z</time></trkpt><trkpt lat="39.92091911626676" lon="8.633875318116008"><ele>11.0</ele><time>2026-04-06T13:52:20.999Z</time></trkpt><trkpt lat="39.921166873879564" lon="8.633787568236379"><ele>11.0</ele><time>2026-04-06T13:52:21.999Z</time></trkpt><trkpt lat="39.92141289391259" lon="8.633695839397536"><ele>11.0</ele><time>2026-04-06T13:52:22.999Z</time></trkpt><trkpt lat="39.92166084703822" lon="8.633596102806987"><ele>11.0</ele><time>2026-04-06T13:52:23.999Z</time></trkpt><trkpt lat="39.921905480526156" lon="8.633493968848438"><ele>10.5</ele><time>2026-04-06T13:52:24.999Z</time></trkpt><trkpt lat="39.92215051965413" lon="8.63338569368441"><ele>10.0</ele><time>2026-04-06T13:52:25.999Z</time></trkpt><trkpt lat="39.92239078933356" lon="8.633277981205012"><ele>9.5</ele><time>2026-04-06T13:52:26.999Z</time></trkpt><trkpt lat="39.92263127842588" lon="8.633169357027226"><ele>9.0</ele><time>2026-04-06T13:52:27.999Z</time></trkpt><trkpt lat="39.92286944932261" lon="8.633060448481785"><ele>9.0</ele><time>2026-04-06T13:52:28.999Z</time></trkpt><trkpt lat="39.92310793241289" lon="8.632961475843016"><ele>9.0</ele><time>2026-04-06T13:52:29.999Z</time></trkpt><trkpt lat="39.92334322320067" lon="8.63285701040576"><ele>9.0</ele><time>2026-04-06T13:52:30.999Z</time></trkpt><trkpt lat="39.92357726797734" lon="8.632753671186117"><ele>9.0</ele><time>2026-04-06T13:52:31.999Z</time></trkpt><trkpt lat="39.92381322200022" lon="8.63264953610556"><ele>9.0</ele><time>2026-04-06T13:52:32.999Z</time></trkpt><trkpt lat="39.92404783676609" lon="8.63254372176912"><ele>9.0</ele><time>2026-04-06T13:52:33.999Z</time></trkpt><trkpt lat="39.924280002412885" lon="8.632439368551132"><ele>8.5</ele><time>2026-04-06T13:52:34.999Z</time></trkpt><trkpt lat="39.924511073336774" lon="8.632334209192503"><ele>8.0</ele><time>2026-04-06T13:52:35.999Z</time></trkpt><trkpt lat="39.924740911935174" lon="8.632229760488885"><ele>8.0</ele><time>2026-04-06T13:52:36.999Z</time></trkpt><trkpt lat="39.92497636111888" lon="8.632121762630387"><ele>8.0</ele><time>2026-04-06T13:52:37.999Z</time></trkpt><trkpt lat="39.92520890046947" lon="8.632018215396926"><ele>7.5</ele><time>2026-04-06T13:52:38.999Z</time></trkpt><trkpt lat="39.92543849651443" lon="8.631916905724164"><ele>7.0</ele><time>2026-04-06T13:52:39.999Z</time></trkpt><trkpt lat="39.92566941226319" lon="8.631814784777156"><ele>7.0</ele><time>2026-04-06T13:52:40.999Z</time></trkpt><trkpt lat="39.925899994049374" lon="8.631712035696088"><ele>7.0</ele><time>2026-04-06T13:52:41.999Z</time></trkpt><trkpt lat="39.92613193782214" lon="8.631608547976377"><ele>7.0</ele><time>2026-04-06T13:52:42.999Z</time></trkpt><trkpt lat="39.926364144243834" lon="8.631505393800817"><ele>7.0</ele><time>2026-04-06T13:52:43.999Z</time></trkpt><trkpt lat="39.926593288364735" lon="8.63140054791715"><ele>6.5</ele><time>2026-04-06T13:52:44.999Z</time></trkpt><trkpt lat="39.92682509975316" lon="8.631295028555012"><ele>6.0</ele><time>2026-04-06T13:52:45.999Z</time></trkpt><trkpt lat="39.92705861437482" lon="8.63119078432484"><ele>6.5</ele><time>2026-04-06T13:52:46.999Z</time></trkpt><trkpt lat="39.9272911976449" lon="8.631088804998003"><ele>7.0</ele><time>2026-04-06T13:52:47.999Z</time></trkpt><trkpt lat="39.92752730141954" lon="8.630983514004269"><ele>7.0</ele><time>2026-04-06T13:52:48.999Z</time></trkpt><trkpt lat="39.92775959792391" lon="8.630879000968246"><ele>7.0</ele><time>2026-04-06T13:52:49.999Z</time></trkpt><trkpt lat="39.92799081466535" lon="8.630773974450607"><ele>7.0</ele><time>2026-04-06T13:52:50.999Z</time></trkpt><trkpt lat="39.928223669365906" lon="8.630670987115442"><ele>7.0</ele><time>2026-04-06T13:52:51.999Z</time></trkpt><trkpt lat="39.92845527188324" lon="8.630566116162454"><ele>7.5</ele><time>2026-04-06T13:52:52.999Z</time></trkpt><trkpt lat="39.92868920647386" lon="8.630463259210075"><ele>8.0</ele><time>2026-04-06T13:52:53.999Z</time></trkpt><trkpt lat="39.92892175374393" lon="8.630361078293712"><ele>8.5</ele><time>2026-04-06T13:52:54.999Z</time></trkpt><trkpt lat="39.92915967316411" lon="8.630258275383591"><ele>9.0</ele><time>2026-04-06T13:52:55.999Z</time></trkpt><trkpt lat="39.92939092522597" lon="8.630155552351384"><ele>9.0</ele><time>2026-04-06T13:52:56.999Z</time></trkpt><trkpt lat="39.92962596684451" lon="8.630052958411397"><ele>9.0</ele><time>2026-04-06T13:52:57.999Z</time></trkpt><trkpt lat="39.92986272459587" lon="8.629948079536735"><ele>9.0</ele><time>2026-04-06T13:52:58.997Z</time></trkpt><trkpt lat="39.93009802531864" lon="8.629842477283518"><ele>9.0</ele><time>2026-04-06T13:52:59.997Z</time></trkpt><trkpt lat="39.930333898747264" lon="8.629734980471781"><ele>9.0</ele><time>2026-04-06T13:53:00.997Z</time></trkpt><trkpt lat="39.93057143852453" lon="8.629627064681454"><ele>9.0</ele><time>2026-04-06T13:53:01.997Z</time></trkpt><trkpt lat="39.93080999873337" lon="8.629521021758116"><ele>9.0</ele><time>2026-04-06T13:53:02.997Z</time></trkpt><trkpt lat="39.93104756239731" lon="8.629414902817805"><ele>9.0</ele><time>2026-04-06T13:53:03.998Z</time></trkpt><trkpt lat="39.931286127449276" lon="8.62930924659831"><ele>9.0</ele><time>2026-04-06T13:53:04.998Z</time></trkpt><trkpt lat="39.93152385620507" lon="8.629201810507384"><ele>9.0</ele><time>2026-04-06T13:53:05.998Z</time></trkpt><trkpt lat="39.93176593461361" lon="8.629094448192259"><ele>9.0</ele><time>2026-04-06T13:53:06.998Z</time></trkpt><trkpt lat="39.932005436065516" lon="8.62898538643353"><ele>9.0</ele><time>2026-04-06T13:53:07.998Z</time></trkpt><trkpt lat="39.932246531574656" lon="8.628876373158175"><ele>9.0</ele><time>2026-04-06T13:53:08.998Z</time></trkpt><trkpt lat="39.93248722234587" lon="8.628766321630625"><ele>9.0</ele><time>2026-04-06T13:53:09.998Z</time></trkpt><trkpt lat="39.93273175011053" lon="8.62865842226374"><ele>8.5</ele><time>2026-04-06T13:53:10.998Z</time></trkpt><trkpt lat="39.93297476018448" lon="8.628551015033615"><ele>8.0</ele><time>2026-04-06T13:53:11.999Z</time></trkpt><trkpt lat="39.933218003971895" lon="8.628444149375126"><ele>8.0</ele><time>2026-04-06T13:53:12.999Z</time></trkpt><trkpt lat="39.93346002273072" lon="8.628336256381068"><ele>8.0</ele><time>2026-04-06T13:53:13.999Z</time></trkpt><trkpt lat="39.93370296806378" lon="8.628226480971378"><ele>8.0</ele><time>2026-04-06T13:53:14.999Z</time></trkpt><trkpt lat="39.933944919832385" lon="8.628119809799768"><ele>8.0</ele><time>2026-04-06T13:53:15.999Z</time></trkpt><trkpt lat="39.93418593765081" lon="8.628010236565478"><ele>7.5</ele><time>2026-04-06T13:53:16.999Z</time></trkpt><trkpt lat="39.93442690488306" lon="8.627901947060687"><ele>7.0</ele><time>2026-04-06T13:53:17.999Z</time></trkpt><trkpt lat="39.9346680436478" lon="8.627792274346213"><ele>7.0</ele><time>2026-04-06T13:53:18.999Z</time></trkpt><trkpt lat="39.934908113693474" lon="8.627683728533496"><ele>7.0</ele><time>2026-04-06T13:53:19.999Z</time></trkpt><trkpt lat="39.935149727196055" lon="8.627573947491296"><ele>7.5</ele><time>2026-04-06T13:53:20.999Z</time></trkpt><trkpt lat="39.93538998622929" lon="8.627465276314739"><ele>8.0</ele><time>2026-04-06T13:53:21.999Z</time></trkpt><trkpt lat="39.93563247379656" lon="8.62735701571902"><ele>8.0</ele><time>2026-04-06T13:53:22.999Z</time></trkpt><trkpt lat="39.93587112184548" lon="8.62724788018547"><ele>8.0</ele><time>2026-04-06T13:53:23.999Z</time></trkpt><trkpt lat="39.93611304684203" lon="8.627138974968313"><ele>7.5</ele><time>2026-04-06T13:53:24.999Z</time></trkpt><trkpt lat="39.9363563035174" lon="8.627031125023926"><ele>7.0</ele><time>2026-04-06T13:53:25.999Z</time></trkpt><trkpt lat="39.936594596153" lon="8.626921901285696"><ele>7.5</ele><time>2026-04-06T13:53:26.999Z</time></trkpt><trkpt lat="39.93683530114012" lon="8.626813098086156"><ele>8.0</ele><time>2026-04-06T13:53:27.999Z</time></trkpt><trkpt lat="39.93707421489022" lon="8.626704443314146"><ele>8.0</ele><time>2026-04-06T13:53:28.999Z</time></trkpt><trkpt lat="39.93731342127097" lon="8.62659977436277"><ele>8.0</ele><time>2026-04-06T13:53:29.999Z</time></trkpt><trkpt lat="39.93755322251017" lon="8.626492613555905"><ele>7.5</ele><time>2026-04-06T13:53:30.999Z</time></trkpt><trkpt lat="39.93779312998568" lon="8.6263880572395"><ele>7.0</ele><time>2026-04-06T13:53:31.999Z</time></trkpt><trkpt lat="39.93802869495835" lon="8.626284000643578"><ele>7.0</ele><time>2026-04-06T13:53:32.999Z</time></trkpt><trkpt lat="39.938265069221245" lon="8.626178906485396"><ele>7.0</ele><time>2026-04-06T13:53:33.999Z</time></trkpt><trkpt lat="39.93850214867919" lon="8.626074717721208"><ele>7.0</ele><time>2026-04-06T13:53:34.999Z</time></trkpt><trkpt lat="39.938738055707724" lon="8.62597094349369"><ele>7.0</ele><time>2026-04-06T13:53:36Z</time></trkpt><trkpt lat="39.938973151269224" lon="8.625866409970769"><ele>7.0</ele><time>2026-04-06T13:53:37Z</time></trkpt><trkpt lat="39.939208985358796" lon="8.625761521119324"><ele>7.0</ele><time>2026-04-06T13:53:38Z</time></trkpt><trkpt lat="39.939442819667825" lon="8.625657005295883"><ele>8.0</ele><time>2026-04-06T13:53:39Z</time></trkpt><trkpt lat="39.93967696083809" lon="8.62555136847182"><ele>9.0</ele><time>2026-04-06T13:53:40Z</time></trkpt><trkpt lat="39.9399080745739" lon="8.62544837993675"><ele>9.0</ele><time>2026-04-06T13:53:41Z</time></trkpt><trkpt lat="39.94014234135216" lon="8.625343897180334"><ele>9.0</ele><time>2026-04-06T13:53:42Z</time></trkpt><trkpt lat="39.94037532757875" lon="8.625239008696399"><ele>9.0</ele><time>2026-04-06T13:53:43Z</time></trkpt><trkpt lat="39.94061321588142" lon="8.625133282536426"><ele>9.0</ele><time>2026-04-06T13:53:44Z</time></trkpt><trkpt lat="39.940849286252714" lon="8.62502760642623"><ele>8.5</ele><time>2026-04-06T13:53:45Z</time></trkpt><trkpt lat="39.94108722564741" lon="8.624923137672079"><ele>8.0</ele><time>2026-04-06T13:53:46Z</time></trkpt><trkpt lat="39.94132297289983" lon="8.624818562250047"><ele>8.0</ele><time>2026-04-06T13:53:47Z</time></trkpt><trkpt lat="39.94156087105691" lon="8.624712219792254"><ele>8.0</ele><time>2026-04-06T13:53:48Z</time></trkpt><trkpt lat="39.94180181482073" lon="8.624605801546318"><ele>7.5</ele><time>2026-04-06T13:53:49Z</time></trkpt><trkpt lat="39.94204594291097" lon="8.624497567452922"><ele>7.0</ele><time>2026-04-06T13:53:50Z</time></trkpt><trkpt lat="39.94228601796086" lon="8.624390574962634"><ele>7.0</ele><time>2026-04-06T13:53:51Z</time></trkpt><trkpt lat="39.94252580679163" lon="8.624283084348752"><ele>7.0</ele><time>2026-04-06T13:53:52Z</time></trkpt><trkpt lat="39.942767898121005" lon="8.624176470893113"><ele>7.0</ele><time>2026-04-06T13:53:53Z</time></trkpt><trkpt lat="39.94301046636457" lon="8.624070719057556"><ele>7.0</ele><time>2026-04-06T13:53:54Z</time></trkpt><trkpt lat="39.94324887134185" lon="8.62396336823989"><ele>6.5</ele><time>2026-04-06T13:53:55Z</time></trkpt><trkpt lat="39.94349018188867" lon="8.623851307842676"><ele>6.0</ele><time>2026-04-06T13:53:56Z</time></trkpt><trkpt lat="39.94373141284502" lon="8.623740577962193"><ele>6.5</ele><time>2026-04-06T13:53:57Z</time></trkpt><trkpt lat="39.94397543705819" lon="8.623631542152092"><ele>7.0</ele><time>2026-04-06T13:53:58Z</time></trkpt><trkpt lat="39.94421854568772" lon="8.623524188055516"><ele>7.0</ele><time>2026-04-06T13:53:59Z</time></trkpt><trkpt lat="39.944459960168274" lon="8.623417975120823"><ele>7.0</ele><time>2026-04-06T13:54:00Z</time></trkpt><trkpt lat="39.94470376813249" lon="8.623310523738578"><ele>7.0</ele><time>2026-04-06T13:54:01Z</time></trkpt><trkpt lat="39.944945646290115" lon="8.623200106546012"><ele>7.0</ele><time>2026-04-06T13:54:02Z</time></trkpt><trkpt lat="39.94519244740018" lon="8.62308813632337"><ele>6.5</ele><time>2026-04-06T13:54:03Z</time></trkpt><trkpt lat="39.945436957485384" lon="8.622976266123679"><ele>6.0</ele><time>2026-04-06T13:54:04Z</time></trkpt><trkpt lat="39.945679795982535" lon="8.622865365782951"><ele>7.0</ele><time>2026-04-06T13:54:05Z</time></trkpt><trkpt lat="39.94592792078921" lon="8.622748924137259"><ele>8.0</ele><time>2026-04-06T13:54:06Z</time></trkpt><trkpt lat="39.94618100993944" lon="8.62262671332985"><ele>8.0</ele><time>2026-04-06T13:54:07Z</time></trkpt><trkpt lat="39.94643538620674" lon="8.622503492816827"><ele>8.0</ele><time>2026-04-06T13:54:08Z</time></trkpt><trkpt lat="39.9466873412181" lon="8.622380528904788"><ele>8.5</ele><time>2026-04-06T13:54:09Z</time></trkpt><trkpt lat="39.94693806957493" lon="8.622259388692719"><ele>9.0</ele><time>2026-04-06T13:54:10Z</time></trkpt><trkpt lat="39.94718800377532" lon="8.622142405906846"><ele>9.0</ele><time>2026-04-06T13:54:11Z</time></trkpt><trkpt lat="39.94744120311053" lon="8.6220278865423"><ele>9.0</ele><time>2026-04-06T13:54:12Z</time></trkpt><trkpt lat="39.94768953554257" lon="8.62191825720511"><ele>12.0</ele><time>2026-04-06T13:54:13Z</time></trkpt><trkpt lat="39.9479381763185" lon="8.621806808578906"><ele>15.0</ele><time>2026-04-06T13:54:14Z</time></trkpt><trkpt lat="39.94818260136845" lon="8.621697859248123"><ele>18.0</ele><time>2026-04-06T13:54:15Z</time></trkpt><trkpt lat="39.94842072732394" lon="8.621594208665101"><ele>21.0</ele><time>2026-04-06T13:54:16Z</time></trkpt><trkpt lat="39.94865908390861" lon="8.62149355513268"><ele>21.0</ele><time>2026-04-06T13:54:17Z</time></trkpt><trkpt lat="39.948896290429886" lon="8.621398388469428"><ele>21.0</ele><time>2026-04-06T13:54:18Z</time></trkpt><trkpt lat="39.94913484423174" lon="8.621305719925203"><ele>21.5</ele><time>2026-04-06T13:54:19Z</time></trkpt><trkpt lat="39.949367646293425" lon="8.621211552332415"><ele>22.0</ele><time>2026-04-06T13:54:20Z</time></trkpt><trkpt lat="39.94960185155218" lon="8.621115957670783"><ele>22.0</ele><time>2026-04-06T13:54:21Z</time></trkpt><trkpt lat="39.94982602284644" lon="8.621025252857507"><ele>22.0</ele><time>2026-04-06T13:54:22Z</time></trkpt><trkpt lat="39.95005085254668" lon="8.620907504620273"><ele>23.5</ele><time>2026-04-06T13:54:23Z</time></trkpt><trkpt lat="39.95029097188356" lon="8.620805636387113"><ele>25.0</ele><time>2026-04-06T13:54:24Z</time></trkpt><trkpt lat="39.950521822903724" lon="8.620700717585612"><ele>25.0</ele><time>2026-04-06T13:54:25Z</time></trkpt><trkpt lat="39.95075361656135" lon="8.62059036301134"><ele>25.0</ele><time>2026-04-06T13:54:26Z</time></trkpt><trkpt lat="39.950982691243816" lon="8.620473138439"><ele>24.5</ele><time>2026-04-06T13:54:27Z</time></trkpt><trkpt lat="39.95121133505779" lon="8.620345296634893"><ele>24.0</ele><time>2026-04-06T13:54:28Z</time></trkpt><trkpt lat="39.95143468518722" lon="8.620202444010012"><ele>23.5</ele><time>2026-04-06T13:54:29Z</time></trkpt><trkpt lat="39.951658901281036" lon="8.620053847051683"><ele>23.0</ele><time>2026-04-06T13:54:30Z</time></trkpt><trkpt lat="39.95187633405883" lon="8.61989616685458"><ele>23.0</ele><time>2026-04-06T13:54:31Z</time></trkpt><trkpt lat="39.952097329857125" lon="8.619736974704201"><ele>23.0</ele><time>2026-04-06T13:54:32Z</time></trkpt><trkpt lat="39.95232130171763" lon="8.61958007055936"><ele>22.0</ele><time>2026-04-06T13:54:33Z</time></trkpt><trkpt lat="39.95254193233002" lon="8.619422728818554"><ele>21.0</ele><time>2026-04-06T13:54:34Z</time></trkpt><trkpt lat="39.9527640778372" lon="8.619266189866844"><ele>21.0</ele><time>2026-04-06T13:54:35Z</time></trkpt><trkpt lat="39.95298472639848" lon="8.619109112191824"><ele>21.0</ele><time>2026-04-06T13:54:36Z</time></trkpt><trkpt lat="39.9532047957852" lon="8.618948891237077"><ele>21.0</ele><time>2026-04-06T13:54:37Z</time></trkpt><trkpt lat="39.953422979106435" lon="8.618788530997833"><ele>21.0</ele><time>2026-04-06T13:54:38Z</time></trkpt><trkpt lat="39.95364318366837" lon="8.618631107961713"><ele>21.5</ele><time>2026-04-06T13:54:39Z</time></trkpt><trkpt lat="39.95386447331207" lon="8.618478264641523"><ele>22.0</ele><time>2026-04-06T13:54:40Z</time></trkpt><trkpt lat="39.954084019437154" lon="8.61832771360286"><ele>23.0</ele><time>2026-04-06T13:54:41Z</time></trkpt><trkpt lat="39.95430554997385" lon="8.61818028664569"><ele>24.0</ele><time>2026-04-06T13:54:42Z</time></trkpt><trkpt lat="39.95453047385182" lon="8.618038234081894"><ele>24.0</ele><time>2026-04-06T13:54:43Z</time></trkpt><trkpt lat="39.954760310349435" lon="8.617903405005139"><ele>24.0</ele><time>2026-04-06T13:54:44Z</time></trkpt><trkpt lat="39.954988710029454" lon="8.61777486983072"><ele>25.0</ele><time>2026-04-06T13:54:45Z</time></trkpt><trkpt lat="39.955220628500776" lon="8.617653855521645"><ele>26.0</ele><time>2026-04-06T13:54:46Z</time></trkpt><trkpt lat="39.955452154511114" lon="8.617535910265515"><ele>26.0</ele><time>2026-04-06T13:54:47Z</time></trkpt><trkpt lat="39.95566998453931" lon="8.617436655965468"><ele>26.0</ele><time>2026-04-06T13:54:48Z</time></trkpt><trkpt lat="39.95587752090109" lon="8.617348028325312"><ele>26.0</ele><time>2026-04-06T13:54:49Z</time></trkpt><trkpt lat="39.95608932513856" lon="8.617265560663329"><ele>26.666666666666664</ele><time>2026-04-06T13:54:50Z</time></trkpt><trkpt lat="39.95630037483261" lon="8.61719423688668"><ele>27.333333333333336</ele><time>2026-04-06T13:54:51Z</time></trkpt><trkpt lat="39.95651460760675" lon="8.617133639891676"><ele>28.0</ele><time>2026-04-06T13:54:52Z</time></trkpt><trkpt lat="39.95673012924244" lon="8.617082165638116"><ele>28.0</ele><time>2026-04-06T13:54:53Z</time></trkpt><trkpt lat="39.956936992453166" lon="8.61704646737415"><ele>28.0</ele><time>2026-04-06T13:54:54Z</time></trkpt><trkpt lat="39.95714230998811" lon="8.617018253638888"><ele>28.0</ele><time>2026-04-06T13:54:55Z</time></trkpt><trkpt lat="39.95735103974914" lon="8.616993103383964"><ele>28.333333333333336</ele><time>2026-04-06T13:54:56Z</time></trkpt><trkpt lat="39.95756416364624" lon="8.616971493572011"><ele>28.666666666666664</ele><time>2026-04-06T13:54:57Z</time></trkpt><trkpt lat="39.95776115566438" lon="8.616958305533306"><ele>29.0</ele><time>2026-04-06T13:54:58Z</time></trkpt><trkpt lat="39.95793949109426" lon="8.616950130740582"><ele>29.0</ele><time>2026-04-06T13:54:59Z</time></trkpt><trkpt lat="39.95810299417975" lon="8.616946303187614"><ele>29.0</ele><time>2026-04-06T13:55:00Z</time></trkpt><trkpt lat="39.95826030297344" lon="8.616957748799548"><ele>29.0</ele><time>2026-04-06T13:55:01Z</time></trkpt><trkpt lat="39.95840636682453" lon="8.616989361063718"><ele>28.333333333333332</ele><time>2026-04-06T13:55:02Z</time></trkpt><trkpt lat="39.95855774200585" lon="8.617051649898924"><ele>27.666666666666664</ele><time>2026-04-06T13:55:03Z</time></trkpt><trkpt lat="39.95870025480149" lon="8.61714667876688"><ele>27.0</ele><time>2026-04-06T13:55:04Z</time></trkpt><trkpt lat="39.958835839035515" lon="8.617238147406086"><ele>27.0</ele><time>2026-04-06T13:55:04.999Z</time></trkpt><trkpt lat="39.95895293439918" lon="8.617329857949654"><ele>27.0</ele><time>2026-04-06T13:55:05.999Z</time></trkpt><trkpt lat="39.95904971216207" lon="8.617440369079366"><ele>27.0</ele><time>2026-04-06T13:55:06.999Z</time></trkpt><trkpt lat="39.95911960318961" lon="8.617576341239417"><ele>27.0</ele><time>2026-04-06T13:55:07.999Z</time></trkpt><trkpt lat="39.959166759042155" lon="8.617744338876498"><ele>27.25</ele><time>2026-04-06T13:55:08.999Z</time></trkpt><trkpt lat="39.959178417381175" lon="8.617928249210367"><ele>27.5</ele><time>2026-04-06T13:55:09.999Z</time></trkpt><trkpt lat="39.959160422270706" lon="8.618113208652831"><ele>27.75</ele><time>2026-04-06T13:55:10.999Z</time></trkpt><trkpt lat="39.959106639698284" lon="8.618282383846536"><ele>28.0</ele><time>2026-04-06T13:55:11.999Z</time></trkpt><trkpt lat="39.95902906029352" lon="8.61842703973563"><ele>28.0</ele><time>2026-04-06T13:55:12.999Z</time></trkpt><trkpt lat="39.958922145390844" lon="8.618548855220533"><ele>28.0</ele><time>2026-04-06T13:55:13.999Z</time></trkpt><trkpt lat="39.958800054028366" lon="8.618629417896985"><ele>28.0</ele><time>2026-04-06T13:55:14.999Z</time></trkpt><trkpt lat="39.958681707612975" lon="8.6186740144788"><ele>28.0</ele><time>2026-04-06T13:55:15.999Z</time></trkpt><trkpt lat="39.95857419275563" lon="8.618699285939769"><ele>28.0</ele><time>2026-04-06T13:55:16.999Z</time></trkpt><trkpt lat="39.95846916840706" lon="8.618708437615487"><ele>28.0</ele><time>2026-04-06T13:55:17.999Z</time></trkpt><trkpt lat="39.958290877075484" lon="8.618690705025903"><ele>28.0</ele><time>2026-04-06T13:55:19.999Z</time></trkpt><trkpt lat="39.95822915936028" lon="8.618650514868161"><ele>28.0</ele><time>2026-04-06T13:55:20.999Z</time></trkpt><trkpt lat="39.958163395072184" lon="8.618520765333603"><ele>28.0</ele><time>2026-04-06T13:55:22.999Z</time></trkpt><trkpt lat="39.95813268357585" lon="8.61843053865262"><ele>27.999999999999996</ele><time>2026-04-06T13:55:23.999Z</time></trkpt><trkpt lat="39.958107173110875" lon="8.618316847911803"><ele>27.999999999999996</ele><time>2026-04-06T13:55:24.999Z</time></trkpt><trkpt lat="39.95809192457599" lon="8.618182957665416"><ele>28.0</ele><time>2026-04-06T13:55:26Z</time></trkpt><trkpt lat="39.95807612063237" lon="8.618036455878881"><ele>28.0</ele><time>2026-04-06T13:55:27Z</time></trkpt><trkpt lat="39.95806222000774" lon="8.617874140801264"><ele>28.0</ele><time>2026-04-06T13:55:28Z</time></trkpt><trkpt lat="39.958059150526495" lon="8.61772901398807"><ele>28.0</ele><time>2026-04-06T13:55:29Z</time></trkpt><trkpt lat="39.958060865547154" lon="8.617558795335613"><ele>28.0</ele><time>2026-04-06T13:55:30Z</time></trkpt><trkpt lat="39.95807411160931" lon="8.617389896346628"><ele>28.0</ele><time>2026-04-06T13:55:31Z</time></trkpt><trkpt lat="39.95810102527184" lon="8.617205879707361"><ele>28.0</ele><time>2026-04-06T13:55:32Z</time></trkpt><trkpt lat="39.958135236109825" lon="8.617004762715066"><ele>28.0</ele><time>2026-04-06T13:55:33Z</time></trkpt><trkpt lat="39.9581758703285" lon="8.61679965099534"><ele>28.0</ele><time>2026-04-06T13:55:34Z</time></trkpt><trkpt lat="39.95825787203462" lon="8.616401769581763"><ele>28.25</ele><time>2026-04-06T13:55:36Z</time></trkpt><trkpt lat="39.95829359821567" lon="8.616210739341867"><ele>28.5</ele><time>2026-04-06T13:55:37Z</time></trkpt><trkpt lat="39.95832913764926" lon="8.616029452833253"><ele>28.75</ele><time>2026-04-06T13:55:38Z</time></trkpt><trkpt lat="39.958362609553525" lon="8.61586821749236"><ele>29.0</ele><time>2026-04-06T13:55:39Z</time></trkpt><trkpt lat="39.95840251304013" lon="8.615714630725446"><ele>28.25</ele><time>2026-04-06T13:55:40Z</time></trkpt><trkpt lat="39.95845114525438" lon="8.615575177531817"><ele>27.5</ele><time>2026-04-06T13:55:41Z</time></trkpt><trkpt lat="39.95851517778147" lon="8.61545031664652"><ele>26.75</ele><time>2026-04-06T13:55:42Z</time></trkpt><trkpt lat="39.958590438073514" lon="8.615340081432347"><ele>26.0</ele><time>2026-04-06T13:55:43Z</time></trkpt><trkpt lat="39.95869246625373" lon="8.615271097043097"><ele>25.5</ele><time>2026-04-06T13:55:44Z</time></trkpt><trkpt lat="39.9587501953004" lon="8.615160121540576"><ele>25.0</ele><time>2026-04-06T13:55:45Z</time></trkpt><trkpt lat="39.95878183401886" lon="8.615019108580537"><ele>24.5</ele><time>2026-04-06T13:55:46Z</time></trkpt><trkpt lat="39.95880313308138" lon="8.614866330748221"><ele>24.0</ele><time>2026-04-06T13:55:47Z</time></trkpt><trkpt lat="39.95884884991898" lon="8.614725807236757"><ele>24.0</ele><time>2026-04-06T13:55:48Z</time></trkpt><trkpt lat="39.958927804136025" lon="8.614631358052117"><ele>24.0</ele><time>2026-04-06T13:55:49Z</time></trkpt><trkpt lat="39.95903627555471" lon="8.614616304812175"><ele>24.0</ele><time>2026-04-06T13:55:50Z</time></trkpt><trkpt lat="39.95912992036416" lon="8.614604798549273"><ele>24.0</ele><time>2026-04-06T13:55:51Z</time></trkpt><trkpt lat="39.959190119746985" lon="8.614575697872622"><ele>24.0</ele><time>2026-04-06T13:55:52Z</time></trkpt><trkpt lat="39.95929652764904" lon="8.614805336708153"><ele>23.75</ele><time>2026-04-06T13:55:53Z</time></trkpt><trkpt lat="39.95938732136615" lon="8.614923093522194"><ele>23.5</ele><time>2026-04-06T13:55:54Z</time></trkpt><trkpt lat="39.95946695875536" lon="8.615074145197454"><ele>23.25</ele><time>2026-04-06T13:55:55Z</time></trkpt><trkpt lat="39.95955341937238" lon="8.61523449855111"><ele>23.0</ele><time>2026-04-06T13:55:56Z</time></trkpt><trkpt lat="39.95964999586674" lon="8.615404479125262"><ele>23.75</ele><time>2026-04-06T13:55:57Z</time></trkpt><trkpt lat="39.959740462282696" lon="8.615559622595454"><ele>24.5</ele><time>2026-04-06T13:55:58Z</time></trkpt><trkpt lat="39.9598268785265" lon="8.615710035186456"><ele>25.25</ele><time>2026-04-06T13:55:59Z</time></trkpt><trkpt lat="39.95991761221951" lon="8.615867594739523"><ele>26.0</ele><time>2026-04-06T13:56:00Z</time></trkpt><trkpt lat="39.96001113829155" lon="8.616035687327445"><ele>26.666666666666664</ele><time>2026-04-06T13:56:01Z</time></trkpt><trkpt lat="39.960106421550215" lon="8.61621296103522"><ele>27.333333333333336</ele><time>2026-04-06T13:56:02Z</time></trkpt><trkpt lat="39.960207730653785" lon="8.616392733494294"><ele>28.0</ele><time>2026-04-06T13:56:03Z</time></trkpt><trkpt lat="39.9603222213125" lon="8.61656652332791"><ele>28.0</ele><time>2026-04-06T13:56:04Z</time></trkpt><trkpt lat="39.96045859321584" lon="8.616726107232061"><ele>28.0</ele><time>2026-04-06T13:56:05Z</time></trkpt><trkpt lat="39.96061028440739" lon="8.61686374004413"><ele>28.0</ele><time>2026-04-06T13:56:06Z</time></trkpt><trkpt lat="39.96076457323861" lon="8.616981129559914"><ele>29.0</ele><time>2026-04-06T13:56:07Z</time></trkpt><trkpt lat="39.96091926136918" lon="8.617091370375475"><ele>30.0</ele><time>2026-04-06T13:56:08Z</time></trkpt><trkpt lat="39.961077714734095" lon="8.617207923912398"><ele>31.0</ele><time>2026-04-06T13:56:09Z</time></trkpt><trkpt lat="39.961244566526354" lon="8.617335836733067"><ele>31.0</ele><time>2026-04-06T13:56:10Z</time></trkpt><trkpt lat="39.961412919987154" lon="8.617469333555189"><ele>31.0</ele><time>2026-04-06T13:56:11Z</time></trkpt><trkpt lat="39.961582077885865" lon="8.617601624073414"><ele>31.0</ele><time>2026-04-06T13:56:12Z</time></trkpt><trkpt lat="39.96175148749724" lon="8.617730193797726"><ele>31.0</ele><time>2026-04-06T13:56:13Z</time></trkpt><trkpt lat="39.96191980441122" lon="8.61785506105591"><ele>31.0</ele><time>2026-04-06T13:56:14Z</time></trkpt><trkpt lat="39.96208809991322" lon="8.617981018129386"><ele>31.0</ele><time>2026-04-06T13:56:15Z</time></trkpt><trkpt lat="39.96225521715094" lon="8.618105714520572"><ele>31.0</ele><time>2026-04-06T13:56:16Z</time></trkpt><trkpt lat="39.96241953453361" lon="8.618230825527716"><ele>31.0</ele><time>2026-04-06T13:56:17Z</time></trkpt><trkpt lat="39.96258600867045" lon="8.618352639250302"><ele>31.0</ele><time>2026-04-06T13:56:18Z</time></trkpt><trkpt lat="39.962749439732285" lon="8.61845738767107"><ele>31.0</ele><time>2026-04-06T13:56:19Z</time></trkpt><trkpt lat="39.96292358105768" lon="8.618530922978431"><ele>31.0</ele><time>2026-04-06T13:56:20Z</time></trkpt><trkpt lat="39.963109139770324" lon="8.61856423954148"><ele>31.0</ele><time>2026-04-06T13:56:21Z</time></trkpt><trkpt lat="39.96329382755984" lon="8.618586638411013"><ele>31.0</ele><time>2026-04-06T13:56:22Z</time></trkpt><trkpt lat="39.963467304860245" lon="8.61864272834861"><ele>31.0</ele><time>2026-04-06T13:56:23Z</time></trkpt><trkpt lat="39.96362322351797" lon="8.618688027308174"><ele>31.0</ele><time>2026-04-06T13:56:24Z</time></trkpt><trkpt lat="39.963763583964834" lon="8.618751302781542"><ele>31.5</ele><time>2026-04-06T13:56:25Z</time></trkpt><trkpt lat="39.96389400455595" lon="8.618815674654428"><ele>32.0</ele><time>2026-04-06T13:56:26Z</time></trkpt><trkpt lat="39.96399412663046" lon="8.618919655677223"><ele>32.5</ele><time>2026-04-06T13:56:27Z</time></trkpt><trkpt lat="39.96406955165068" lon="8.619039339274119"><ele>33.0</ele><time>2026-04-06T13:56:28Z</time></trkpt><trkpt lat="39.964117805086346" lon="8.619165113419088"><ele>33.0</ele><time>2026-04-06T13:56:29Z</time></trkpt><trkpt lat="39.96414490035116" lon="8.619297038225083"><ele>33.0</ele><time>2026-04-06T13:56:30Z</time></trkpt><trkpt lat="39.96415637155603" lon="8.619440685158903"><ele>33.0</ele><time>2026-04-06T13:56:31Z</time></trkpt><trkpt lat="39.96417149084964" lon="8.619574453527466"><ele>33.0</ele><time>2026-04-06T13:56:32Z</time></trkpt><trkpt lat="39.96421426692908" lon="8.61967956803148"><ele>33.0</ele><time>2026-04-06T13:56:33Z</time></trkpt><trkpt lat="39.96428112671492" lon="8.619754432091556"><ele>32.6</ele><time>2026-04-06T13:56:34Z</time></trkpt><trkpt lat="39.96436764487326" lon="8.619808278077922"><ele>32.199999999999996</ele><time>2026-04-06T13:56:35Z</time></trkpt><trkpt lat="39.964451800504456" lon="8.619851953023229"><ele>31.8</ele><time>2026-04-06T13:56:36Z</time></trkpt><trkpt lat="39.9645516038572" lon="8.619798702495359"><ele>31.4</ele><time>2026-04-06T13:56:37Z</time></trkpt><trkpt lat="39.96464110434271" lon="8.619732204854417"><ele>31.0</ele><time>2026-04-06T13:56:38Z</time></trkpt><trkpt lat="39.96471330143599" lon="8.619630768121336"><ele>31.0</ele><time>2026-04-06T13:56:39Z</time></trkpt><trkpt lat="39.96478178447807" lon="8.619505557526491"><ele>31.0</ele><time>2026-04-06T13:56:40Z</time></trkpt><trkpt lat="39.964867354337116" lon="8.619387972923445"><ele>31.0</ele><time>2026-04-06T13:56:41Z</time></trkpt><trkpt lat="39.964984149259166" lon="8.619301561154694"><ele>31.0</ele><time>2026-04-06T13:56:42Z</time></trkpt><trkpt lat="39.96512687573068" lon="8.619245372814769"><ele>29.666666666666668</ele><time>2026-04-06T13:56:43Z</time></trkpt><trkpt lat="39.96527421724183" lon="8.61919903258596"><ele>28.333333333333336</ele><time>2026-04-06T13:56:44Z</time></trkpt><trkpt lat="39.96541394827516" lon="8.61914898119249"><ele>27.0</ele><time>2026-04-06T13:56:45Z</time></trkpt><trkpt lat="39.965568362408135" lon="8.619085122828029"><ele>27.0</ele><time>2026-04-06T13:56:46Z</time></trkpt><trkpt lat="39.96573301173851" lon="8.61901355524995"><ele>27.0</ele><time>2026-04-06T13:56:47Z</time></trkpt><trkpt lat="39.9659028214455" lon="8.618940276592042"><ele>27.0</ele><time>2026-04-06T13:56:48Z</time></trkpt><trkpt lat="39.966066016419006" lon="8.618867917287464"><ele>26.333333333333336</ele><time>2026-04-06T13:56:49.001Z</time></trkpt><trkpt lat="39.966228653707184" lon="8.618802193323944"><ele>25.666666666666668</ele><time>2026-04-06T13:56:50.001Z</time></trkpt><trkpt lat="39.9664031626101" lon="8.618737922427227"><ele>25.0</ele><time>2026-04-06T13:56:51.001Z</time></trkpt><trkpt lat="39.96658354515416" lon="8.618665309166953"><ele>24.666666666666668</ele><time>2026-04-06T13:56:52.001Z</time></trkpt><trkpt lat="39.96677770334321" lon="8.618581567886144"><ele>24.333333333333336</ele><time>2026-04-06T13:56:53.001Z</time></trkpt><trkpt lat="39.9669819815654" lon="8.618492964482707"><ele>24.0</ele><time>2026-04-06T13:56:54.001Z</time></trkpt><trkpt lat="39.967184765897265" lon="8.618406828451667"><ele>24.0</ele><time>2026-04-06T13:56:55.001Z</time></trkpt><trkpt lat="39.967378729336154" lon="8.618325712061713"><ele>24.0</ele><time>2026-04-06T13:56:56.001Z</time></trkpt><trkpt lat="39.96758001757477" lon="8.618242908119289"><ele>24.0</ele><time>2026-04-06T13:56:57.001Z</time></trkpt><trkpt lat="39.96778466148688" lon="8.618153622109281"><ele>24.0</ele><time>2026-04-06T13:56:58.001Z</time></trkpt><trkpt lat="39.967986942451525" lon="8.618048315707842"><ele>24.0</ele><time>2026-04-06T13:56:59.001Z</time></trkpt><trkpt lat="39.96818850047886" lon="8.617922689760324"><ele>24.0</ele><time>2026-04-06T13:57:00.001Z</time></trkpt><trkpt lat="39.968386818440685" lon="8.617770722498138"><ele>21.5</ele><time>2026-04-06T13:57:01.001Z</time></trkpt><trkpt lat="39.96857912621782" lon="8.617595526837468"><ele>19.0</ele><time>2026-04-06T13:57:02.001Z</time></trkpt><trkpt lat="39.968767795001156" lon="8.617402325966559"><ele>19.0</ele><time>2026-04-06T13:57:03.001Z</time></trkpt><trkpt lat="39.968957656519855" lon="8.617207869984393"><ele>19.0</ele><time>2026-04-06T13:57:04.001Z</time></trkpt><trkpt lat="39.96915018790865" lon="8.617017577961214"><ele>19.5</ele><time>2026-04-06T13:57:05.001Z</time></trkpt><trkpt lat="39.969347611404096" lon="8.616825888572627"><ele>20.0</ele><time>2026-04-06T13:57:06.001Z</time></trkpt><trkpt lat="39.96954316998598" lon="8.616636597360502"><ele>20.0</ele><time>2026-04-06T13:57:07.001Z</time></trkpt><trkpt lat="39.96973399209873" lon="8.616447823723865"><ele>20.0</ele><time>2026-04-06T13:57:08.001Z</time></trkpt><trkpt lat="39.96991341398005" lon="8.616273316234508"><ele>19.666666666666668</ele><time>2026-04-06T13:57:09.001Z</time></trkpt><trkpt lat="39.97008963817082" lon="8.616125640743665"><ele>19.333333333333332</ele><time>2026-04-06T13:57:10.001Z</time></trkpt><trkpt lat="39.97024840808376" lon="8.615957242347244"><ele>19.0</ele><time>2026-04-06T13:57:11Z</time></trkpt><trkpt lat="39.97039278642481" lon="8.615753038001186"><ele>19.0</ele><time>2026-04-06T13:57:12Z</time></trkpt><trkpt lat="39.97054229002657" lon="8.615554747568197"><ele>19.0</ele><time>2026-04-06T13:57:13Z</time></trkpt><trkpt lat="39.97069060241711" lon="8.615342449326006"><ele>19.0</ele><time>2026-04-06T13:57:14Z</time></trkpt><trkpt lat="39.97085442556599" lon="8.61514584895509"><ele>18.0</ele><time>2026-04-06T13:57:15Z</time></trkpt><trkpt lat="39.97101077562363" lon="8.61493001530153"><ele>17.0</ele><time>2026-04-06T13:57:16Z</time></trkpt><trkpt lat="39.97115589772137" lon="8.614700587523958"><ele>16.5</ele><time>2026-04-06T13:57:17Z</time></trkpt><trkpt lat="39.97131579519878" lon="8.614484014897975"><ele>16.0</ele><time>2026-04-06T13:57:18Z</time></trkpt><trkpt lat="39.97147841671353" lon="8.614261076127368"><ele>16.0</ele><time>2026-04-06T13:57:19Z</time></trkpt><trkpt lat="39.971640143075135" lon="8.61403971707627"><ele>16.0</ele><time>2026-04-06T13:57:20Z</time></trkpt><trkpt lat="39.97180405485164" lon="8.613813216598444"><ele>15.0</ele><time>2026-04-06T13:57:21Z</time></trkpt><trkpt lat="39.97196780097375" lon="8.613588525597807"><ele>14.0</ele><time>2026-04-06T13:57:22Z</time></trkpt><trkpt lat="39.972132566792695" lon="8.613363224153668"><ele>14.0</ele><time>2026-04-06T13:57:23Z</time></trkpt><trkpt lat="39.9722989891516" lon="8.61313850568653"><ele>14.0</ele><time>2026-04-06T13:57:24Z</time></trkpt><trkpt lat="39.97246409652586" lon="8.612918205374946"><ele>14.333333333333334</ele><time>2026-04-06T13:57:25Z</time></trkpt><trkpt lat="39.97261664149047" lon="8.61271378691596"><ele>14.666666666666668</ele><time>2026-04-06T13:57:26Z</time></trkpt><trkpt lat="39.97276863082585" lon="8.612533181111363"><ele>15.0</ele><time>2026-04-06T13:57:27Z</time></trkpt><trkpt lat="39.972939715864726" lon="8.612373930962447"><ele>15.0</ele><time>2026-04-06T13:57:28Z</time></trkpt><trkpt lat="39.973139346395705" lon="8.612257256992178"><ele>15.0</ele><time>2026-04-06T13:57:29Z</time></trkpt><trkpt lat="39.97332722503503" lon="8.612111919535721"><ele>15.0</ele><time>2026-04-06T13:57:30Z</time></trkpt><trkpt lat="39.97351530571524" lon="8.611966138730528"><ele>14.0</ele><time>2026-04-06T13:57:31Z</time></trkpt><trkpt lat="39.973704393363796" lon="8.611818948286835"><ele>13.0</ele><time>2026-04-06T13:57:32Z</time></trkpt><trkpt lat="39.97389382417203" lon="8.61167149072346"><ele>12.0</ele><time>2026-04-06T13:57:33Z</time></trkpt><trkpt lat="39.974080561953" lon="8.611505341961033"><ele>11.5</ele><time>2026-04-06T13:57:34Z</time></trkpt><trkpt lat="39.974280728678345" lon="8.611360964728187"><ele>11.0</ele><time>2026-04-06T13:57:35Z</time></trkpt><trkpt lat="39.9744921791834" lon="8.61124723183347"><ele>11.0</ele><time>2026-04-06T13:57:36Z</time></trkpt><trkpt lat="39.97469246714719" lon="8.611097327871063"><ele>11.0</ele><time>2026-04-06T13:57:37Z</time></trkpt><trkpt lat="39.974886512721355" lon="8.610965987844029"><ele>11.0</ele><time>2026-04-06T13:57:38Z</time></trkpt><trkpt lat="39.97506586151527" lon="8.610819454406577"><ele>11.0</ele><time>2026-04-06T13:57:39Z</time></trkpt><trkpt lat="39.97540987826248" lon="8.610467486824676"><ele>11.0</ele><time>2026-04-06T13:57:41Z</time></trkpt><trkpt lat="39.97558545154825" lon="8.610286506977394"><ele>11.0</ele><time>2026-04-06T13:57:42Z</time></trkpt><trkpt lat="39.97577273633137" lon="8.610112847942712"><ele>11.0</ele><time>2026-04-06T13:57:43Z</time></trkpt><trkpt lat="39.97593246173533" lon="8.609894177379985"><ele>11.0</ele><time>2026-04-06T13:57:44Z</time></trkpt><trkpt lat="39.97609310967685" lon="8.60968190448545"><ele>11.0</ele><time>2026-04-06T13:57:45Z</time></trkpt><trkpt lat="39.976256717118936" lon="8.60946082813873"><ele>10.5</ele><time>2026-04-06T13:57:46Z</time></trkpt><trkpt lat="39.976421888969185" lon="8.609241526345398"><ele>10.0</ele><time>2026-04-06T13:57:47Z</time></trkpt><trkpt lat="39.976587490871225" lon="8.609026695446143"><ele>10.0</ele><time>2026-04-06T13:57:48Z</time></trkpt><trkpt lat="39.9767562294488" lon="8.608814177964286"><ele>10.0</ele><time>2026-04-06T13:57:49Z</time></trkpt><trkpt lat="39.97692966090609" lon="8.608604582063359"><ele>10.5</ele><time>2026-04-06T13:57:50Z</time></trkpt><trkpt lat="39.97711004201598" lon="8.608394533564391"><ele>11.0</ele><time>2026-04-06T13:57:51Z</time></trkpt><trkpt lat="39.97729475455484" lon="8.608176747990829"><ele>11.0</ele><time>2026-04-06T13:57:52Z</time></trkpt><trkpt lat="39.97747970612034" lon="8.607960436252053"><ele>11.0</ele><time>2026-04-06T13:57:53Z</time></trkpt><trkpt lat="39.97766481425771" lon="8.607736358517396"><ele>12.0</ele><time>2026-04-06T13:57:54Z</time></trkpt><trkpt lat="39.9778462917818" lon="8.607511140834108"><ele>13.0</ele><time>2026-04-06T13:57:55Z</time></trkpt><trkpt lat="39.9780226319273" lon="8.607285088788142"><ele>13.0</ele><time>2026-04-06T13:57:56Z</time></trkpt><trkpt lat="39.97819844517921" lon="8.607053091171547"><ele>13.0</ele><time>2026-04-06T13:57:57Z</time></trkpt><trkpt lat="39.97837446971809" lon="8.606826177824434"><ele>13.0</ele><time>2026-04-06T13:57:58Z</time></trkpt><trkpt lat="39.978556943097644" lon="8.606598887873208"><ele>13.0</ele><time>2026-04-06T13:57:59Z</time></trkpt><trkpt lat="39.97874046814704" lon="8.606377654683499"><ele>13.0</ele><time>2026-04-06T13:58:00Z</time></trkpt><trkpt lat="39.97892650835996" lon="8.606162042111524"><ele>13.0</ele><time>2026-04-06T13:58:01Z</time></trkpt><trkpt lat="39.97910982791876" lon="8.605949167370479"><ele>13.0</ele><time>2026-04-06T13:58:02Z</time></trkpt><trkpt lat="39.979292366524895" lon="8.605739195532008"><ele>13.0</ele><time>2026-04-06T13:58:03Z</time></trkpt><trkpt lat="39.97947436100745" lon="8.605529375184693"><ele>14.0</ele><time>2026-04-06T13:58:04Z</time></trkpt><trkpt lat="39.979654024366496" lon="8.605319538764965"><ele>15.0</ele><time>2026-04-06T13:58:05Z</time></trkpt><trkpt lat="39.97983505861787" lon="8.6051120752764"><ele>15.0</ele><time>2026-04-06T13:58:06Z</time></trkpt><trkpt lat="39.980013502736895" lon="8.604899144000848"><ele>15.0</ele><time>2026-04-06T13:58:07Z</time></trkpt><trkpt lat="39.98018078860819" lon="8.60468375286887"><ele>16.0</ele><time>2026-04-06T13:58:08Z</time></trkpt><trkpt lat="39.98033231035456" lon="8.604448742435785"><ele>17.0</ele><time>2026-04-06T13:58:09Z</time></trkpt><trkpt lat="39.98046454311033" lon="8.604198715106849"><ele>17.0</ele><time>2026-04-06T13:58:10Z</time></trkpt><trkpt lat="39.98058212948077" lon="8.603958469123699"><ele>17.0</ele><time>2026-04-06T13:58:11.001Z</time></trkpt><trkpt lat="39.98070047903302" lon="8.603749223527819"><ele>17.0</ele><time>2026-04-06T13:58:12.001Z</time></trkpt><trkpt lat="39.980843999059516" lon="8.60356151850453"><ele>17.666666666666668</ele><time>2026-04-06T13:58:13.001Z</time></trkpt><trkpt lat="39.981015965547634" lon="8.603401404403344"><ele>18.333333333333332</ele><time>2026-04-06T13:58:14.001Z</time></trkpt><trkpt lat="39.981197702909284" lon="8.603251899366388"><ele>19.0</ele><time>2026-04-06T13:58:15.001Z</time></trkpt><trkpt lat="39.981383129888556" lon="8.603096719305032"><ele>19.0</ele><time>2026-04-06T13:58:16.001Z</time></trkpt><trkpt lat="39.981571519515995" lon="8.602927194796703"><ele>19.0</ele><time>2026-04-06T13:58:17.001Z</time></trkpt><trkpt lat="39.981760786285676" lon="8.6027501060933"><ele>19.0</ele><time>2026-04-06T13:58:18.001Z</time></trkpt><trkpt lat="39.98195136665957" lon="8.602570049920287"><ele>19.0</ele><time>2026-04-06T13:58:19.001Z</time></trkpt><trkpt lat="39.982149680403474" lon="8.602388048585844"><ele>19.0</ele><time>2026-04-06T13:58:20.001Z</time></trkpt><trkpt lat="39.98234600129091" lon="8.602208095497579"><ele>19.0</ele><time>2026-04-06T13:58:21.001Z</time></trkpt><trkpt lat="39.982540570209316" lon="8.602026431387415"><ele>17.5</ele><time>2026-04-06T13:58:22.001Z</time></trkpt><trkpt lat="39.982728926292054" lon="8.601836839025486"><ele>16.0</ele><time>2026-04-06T13:58:23.001Z</time></trkpt><trkpt lat="39.98290765248522" lon="8.60162514679302"><ele>16.0</ele><time>2026-04-06T13:58:24.001Z</time></trkpt><trkpt lat="39.98307126124324" lon="8.60138834277687"><ele>16.0</ele><time>2026-04-06T13:58:25.001Z</time></trkpt><trkpt lat="39.98322458306826" lon="8.601145861799527"><ele>17.0</ele><time>2026-04-06T13:58:26.001Z</time></trkpt><trkpt lat="39.98337655394465" lon="8.600909528995754"><ele>18.0</ele><time>2026-04-06T13:58:27.001Z</time></trkpt><trkpt lat="39.983535998310614" lon="8.600678942723125"><ele>18.0</ele><time>2026-04-06T13:58:28.001Z</time></trkpt><trkpt lat="39.983703246074995" lon="8.600458671712113"><ele>18.0</ele><time>2026-04-06T13:58:29.001Z</time></trkpt><trkpt lat="39.983879195721805" lon="8.600254616436958"><ele>17.5</ele><time>2026-04-06T13:58:30.001Z</time></trkpt><trkpt lat="39.98406761809624" lon="8.600071855503602"><ele>17.0</ele><time>2026-04-06T13:58:31.001Z</time></trkpt><trkpt lat="39.984264737334506" lon="8.599905492342804"><ele>17.0</ele><time>2026-04-06T13:58:32.001Z</time></trkpt><trkpt lat="39.9844656506813" lon="8.599750005595906"><ele>17.0</ele><time>2026-04-06T13:58:33.001Z</time></trkpt><trkpt lat="39.98466199859895" lon="8.59960308455126"><ele>17.0</ele><time>2026-04-06T13:58:34.001Z</time></trkpt><trkpt lat="39.984843075888826" lon="8.59946784569589"><ele>17.0</ele><time>2026-04-06T13:58:35.001Z</time></trkpt><trkpt lat="39.98501144460041" lon="8.599341318423061"><ele>17.0</ele><time>2026-04-06T13:58:36.001Z</time></trkpt><trkpt lat="39.98517271579562" lon="8.599226341687467"><ele>16.666666666666668</ele><time>2026-04-06T13:58:37.001Z</time></trkpt><trkpt lat="39.98532804258239" lon="8.599123408597304"><ele>16.333333333333332</ele><time>2026-04-06T13:58:38.001Z</time></trkpt><trkpt lat="39.985481369133176" lon="8.599010247277246"><ele>16.0</ele><time>2026-04-06T13:58:39.001Z</time></trkpt><trkpt lat="39.98562404307877" lon="8.598874524440737"><ele>16.0</ele><time>2026-04-06T13:58:40.001Z</time></trkpt><trkpt lat="39.985743772030666" lon="8.59872773170124"><ele>16.0</ele><time>2026-04-06T13:58:41.001Z</time></trkpt><trkpt lat="39.985850798599934" lon="8.598579518770102"><ele>16.0</ele><time>2026-04-06T13:58:42.001Z</time></trkpt><trkpt lat="39.98594987189424" lon="8.598442177964834"><ele>15.5</ele><time>2026-04-06T13:58:43.001Z</time></trkpt><trkpt lat="39.98604785199987" lon="8.598312912483989"><ele>15.0</ele><time>2026-04-06T13:58:44.001Z</time></trkpt><trkpt lat="39.9861395141532" lon="8.598193393910268"><ele>14.5</ele><time>2026-04-06T13:58:45.001Z</time></trkpt><trkpt lat="39.98622510864773" lon="8.59808444074167"><ele>14.0</ele><time>2026-04-06T13:58:46.001Z</time></trkpt><trkpt lat="39.98630854422761" lon="8.597979756968858"><ele>14.0</ele><time>2026-04-06T13:58:47.001Z</time></trkpt><trkpt lat="39.986385665791154" lon="8.5978832391667"><ele>13.999999999999998</ele><time>2026-04-06T13:58:48.001Z</time></trkpt><trkpt lat="39.98645938146856" lon="8.597793047836152"><ele>13.999999999999998</ele><time>2026-04-06T13:58:49.001Z</time></trkpt><trkpt lat="39.9865297855557" lon="8.597705093871301"><ele>14.0</ele><time>2026-04-06T13:58:50.001Z</time></trkpt><trkpt lat="39.98660651345218" lon="8.597604271261707"><ele>14.0</ele><time>2026-04-06T13:58:51.001Z</time></trkpt><trkpt lat="39.986678690639835" lon="8.597506027456436"><ele>13.799999999999999</ele><time>2026-04-06T13:58:52.001Z</time></trkpt><trkpt lat="39.98674887124493" lon="8.59741491534796"><ele>13.599999999999998</ele><time>2026-04-06T13:58:53.001Z</time></trkpt><trkpt lat="39.9868171541069" lon="8.597330882809294"><ele>13.4</ele><time>2026-04-06T13:58:54.001Z</time></trkpt><trkpt lat="39.98688780277408" lon="8.597246625532366"><ele>13.2</ele><time>2026-04-06T13:58:55.001Z</time></trkpt><trkpt lat="39.98696487734793" lon="8.597160045414569"><ele>13.0</ele><time>2026-04-06T13:58:56.001Z</time></trkpt><trkpt lat="39.98705054982781" lon="8.597068969873531"><ele>13.25</ele><time>2026-04-06T13:58:57.001Z</time></trkpt><trkpt lat="39.98715221314127" lon="8.596998841794598"><ele>13.5</ele><time>2026-04-06T13:58:58.001Z</time></trkpt><trkpt lat="39.98724966121094" lon="8.596906885197612"><ele>13.75</ele><time>2026-04-06T13:58:59.001Z</time></trkpt><trkpt lat="39.9873499969554" lon="8.596810516625004"><ele>14.0</ele><time>2026-04-06T13:59:00.001Z</time></trkpt><trkpt lat="39.98744805087812" lon="8.596709614480961"><ele>14.2</ele><time>2026-04-06T13:59:01.001Z</time></trkpt><trkpt lat="39.98753625674217" lon="8.596613323563801"><ele>14.399999999999999</ele><time>2026-04-06T13:59:02.001Z</time></trkpt><trkpt lat="39.98761099345736" lon="8.59653173639512"><ele>14.6</ele><time>2026-04-06T13:59:03.001Z</time></trkpt><trkpt lat="39.98768128557392" lon="8.596455001222134"><ele>14.8</ele><time>2026-04-06T13:59:04.001Z</time></trkpt><trkpt lat="39.987748831278715" lon="8.596381264196353"><ele>15.0</ele><time>2026-04-06T13:59:05.001Z</time></trkpt><trkpt lat="39.987798987484005" lon="8.596299875233553"><ele>15.0</ele><time>2026-04-06T13:59:06.001Z</time></trkpt><trkpt lat="39.98788709412987" lon="8.596213885218326"><ele>15.0</ele><time>2026-04-06T13:59:08.001Z</time></trkpt><trkpt lat="39.98798141688399" lon="8.596133401188357"><ele>15.0</ele><time>2026-04-06T13:59:10.001Z</time></trkpt><trkpt lat="39.98804910890769" lon="8.596085800099928"><ele>15.0</ele><time>2026-04-06T13:59:11.001Z</time></trkpt><trkpt lat="39.988110992153004" lon="8.596033180886895"><ele>15.0</ele><time>2026-04-06T13:59:12.001Z</time></trkpt><trkpt lat="39.98816162664532" lon="8.595956687962696"><ele>15.0</ele><time>2026-04-06T13:59:13.001Z</time></trkpt><trkpt lat="39.98818120883699" lon="8.595857678487393"><ele>15.0</ele><time>2026-04-06T13:59:14.001Z</time></trkpt><trkpt lat="39.9881805201337" lon="8.59574537054638"><ele>15.0</ele><time>2026-04-06T13:59:15.001Z</time></trkpt><trkpt lat="39.98820151367902" lon="8.595624727150758"><ele>15.0</ele><time>2026-04-06T13:59:16.001Z</time></trkpt><trkpt lat="39.98823587276494" lon="8.595508349010977"><ele>15.0</ele><time>2026-04-06T13:59:17.001Z</time></trkpt><trkpt lat="39.98827565908405" lon="8.59540035957413"><ele>15.0</ele><time>2026-04-06T13:59:18.001Z</time></trkpt><trkpt lat="39.98831917386388" lon="8.595278219774423"><ele>15.0</ele><time>2026-04-06T13:59:19.001Z</time></trkpt><trkpt lat="39.988366824583856" lon="8.595146276154829"><ele>15.0</ele><time>2026-04-06T13:59:20.001Z</time></trkpt><trkpt lat="39.988416685196306" lon="8.595009949142554"><ele>15.0</ele><time>2026-04-06T13:59:21.001Z</time></trkpt><trkpt lat="39.98846509778825" lon="8.594867183652385"><ele>15.0</ele><time>2026-04-06T13:59:22.001Z</time></trkpt><trkpt lat="39.98851045914616" lon="8.594726754321252"><ele>15.0</ele><time>2026-04-06T13:59:23.001Z</time></trkpt><trkpt lat="39.988557564755766" lon="8.594579547201496"><ele>15.0</ele><time>2026-04-06T13:59:24.001Z</time></trkpt><trkpt lat="39.98860345330515" lon="8.594447338066193"><ele>15.0</ele><time>2026-04-06T13:59:25.001Z</time></trkpt><trkpt lat="39.98865245234692" lon="8.59432858002105"><ele>15.0</ele><time>2026-04-06T13:59:26.001Z</time></trkpt><trkpt lat="39.98869066332689" lon="8.594211701731755"><ele>15.0</ele><time>2026-04-06T13:59:27.001Z</time></trkpt><trkpt lat="39.98874558166239" lon="8.594087809881929"><ele>14.5</ele><time>2026-04-06T13:59:28.001Z</time></trkpt><trkpt lat="39.98880717059248" lon="8.593952265219833"><ele>14.0</ele><time>2026-04-06T13:59:29.001Z</time></trkpt><trkpt lat="39.98887876498424" lon="8.593801656720295"><ele>13.5</ele><time>2026-04-06T13:59:30.001Z</time></trkpt><trkpt lat="39.98894781133226" lon="8.593651390057044"><ele>13.0</ele><time>2026-04-06T13:59:31.001Z</time></trkpt><trkpt lat="39.9890052975359" lon="8.593529530612813"><ele>12.25</ele><time>2026-04-06T13:59:32.001Z</time></trkpt><trkpt lat="39.98905962760244" lon="8.593409349128464"><ele>11.5</ele><time>2026-04-06T13:59:33.001Z</time></trkpt><trkpt lat="39.98911046114976" lon="8.59328589553367"><ele>10.75</ele><time>2026-04-06T13:59:34.001Z</time></trkpt><trkpt lat="39.98916662410139" lon="8.59314834889514"><ele>10.0</ele><time>2026-04-06T13:59:35.001Z</time></trkpt><trkpt lat="39.98921973580553" lon="8.593006603653086"><ele>9.25</ele><time>2026-04-06T13:59:36.001Z</time></trkpt><trkpt lat="39.98926820148307" lon="8.592860415175931"><ele>8.5</ele><time>2026-04-06T13:59:37.001Z</time></trkpt><trkpt lat="39.989338696128236" lon="8.592727185841834"><ele>7.75</ele><time>2026-04-06T13:59:38.001Z</time></trkpt><trkpt lat="39.98938275897001" lon="8.592577019716838"><ele>7.0</ele><time>2026-04-06T13:59:39.001Z</time></trkpt><trkpt lat="39.989451792458865" lon="8.5924457946877"><ele>7.0</ele><time>2026-04-06T13:59:40.001Z</time></trkpt><trkpt lat="39.98952125344594" lon="8.592316291360383"><ele>7.0</ele><time>2026-04-06T13:59:41.001Z</time></trkpt><trkpt lat="39.98958543148388" lon="8.59219930012806"><ele>7.0</ele><time>2026-04-06T13:59:42.001Z</time></trkpt><trkpt lat="39.98966486232442" lon="8.592100401574786"><ele>7.0</ele><time>2026-04-06T13:59:43.001Z</time></trkpt><trkpt lat="39.98971802588212" lon="8.591963129304377"><ele>6.5</ele><time>2026-04-06T13:59:44.001Z</time></trkpt><trkpt lat="39.989774900017" lon="8.591811607381265"><ele>6.0</ele><time>2026-04-06T13:59:45.001Z</time></trkpt><trkpt lat="39.98982342884736" lon="8.591650965066268"><ele>5.5</ele><time>2026-04-06T13:59:46.001Z</time></trkpt><trkpt lat="39.989878727785296" lon="8.591484950485242"><ele>5.0</ele><time>2026-04-06T13:59:47.001Z</time></trkpt><trkpt lat="39.98993471818297" lon="8.591324162845721"><ele>5.0</ele><time>2026-04-06T13:59:48.001Z</time></trkpt><trkpt lat="39.98998483717815" lon="8.591161100733785"><ele>5.0</ele><time>2026-04-06T13:59:49.001Z</time></trkpt><trkpt lat="39.990043819122434" lon="8.590990746909949"><ele>5.0</ele><time>2026-04-06T13:59:50.001Z</time></trkpt><trkpt lat="39.99011541623335" lon="8.590806326595063"><ele>5.0</ele><time>2026-04-06T13:59:51.001Z</time></trkpt><trkpt lat="39.99017824515716" lon="8.590618178249622"><ele>5.0</ele><time>2026-04-06T13:59:52.001Z</time></trkpt><trkpt lat="39.990243218325254" lon="8.59042147090216"><ele>5.0</ele><time>2026-04-06T13:59:53.001Z</time></trkpt><trkpt lat="39.99031124726924" lon="8.590221119333787"><ele>5.0</ele><time>2026-04-06T13:59:54.001Z</time></trkpt><trkpt lat="39.99038232537138" lon="8.590015937411192"><ele>5.0</ele><time>2026-04-06T13:59:55.001Z</time></trkpt><trkpt lat="39.990455807317026" lon="8.58979962408281"><ele>5.0</ele><time>2026-04-06T13:59:56.001Z</time></trkpt><trkpt lat="39.99053367181664" lon="8.589583333201631"><ele>5.0</ele><time>2026-04-06T13:59:57.001Z</time></trkpt><trkpt lat="39.99060463368322" lon="8.589371687901869"><ele>5.0</ele><time>2026-04-06T13:59:58.001Z</time></trkpt><trkpt lat="39.990675474296175" lon="8.589163238853873"><ele>5.0</ele><time>2026-04-06T13:59:59.001Z</time></trkpt><trkpt lat="39.99073254216471" lon="8.588936636070233"><ele>5.0</ele><time>2026-04-06T14:00:00.001Z</time></trkpt><trkpt lat="39.99075442479091" lon="8.588710145021059"><ele>5.0</ele><time>2026-04-06T14:00:01.001Z</time></trkpt><trkpt lat="39.990741996444136" lon="8.588475381686122"><ele>5.0</ele><time>2026-04-06T14:00:02.001Z</time></trkpt><trkpt lat="39.99072518244411" lon="8.588244906597478"><ele>5.0</ele><time>2026-04-06T14:00:03.001Z</time></trkpt><trkpt lat="39.99070975855293" lon="8.58800265396511"><ele>4.666666666666667</ele><time>2026-04-06T14:00:04.001Z</time></trkpt><trkpt lat="39.9906933214175" lon="8.587763138732404"><ele>4.333333333333333</ele><time>2026-04-06T14:00:05.001Z</time></trkpt><trkpt lat="39.9906763359273" lon="8.587520449857998"><ele>4.0</ele><time>2026-04-06T14:00:06.001Z</time></trkpt><trkpt lat="39.99065892625294" lon="8.587271442593005"><ele>4.0</ele><time>2026-04-06T14:00:07.001Z</time></trkpt><trkpt lat="39.990641635240564" lon="8.58702118920801"><ele>4.0</ele><time>2026-04-06T14:00:08.001Z</time></trkpt><trkpt lat="39.990635737268036" lon="8.586770351111026"><ele>4.0</ele><time>2026-04-06T14:00:09.001Z</time></trkpt><trkpt lat="39.99065211442611" lon="8.586518045755323"><ele>5.666666666666666</ele><time>2026-04-06T14:00:10.001Z</time></trkpt><trkpt lat="39.99068831381702" lon="8.586260180529269"><ele>7.333333333333333</ele><time>2026-04-06T14:00:11.001Z</time></trkpt><trkpt lat="39.99073344703013" lon="8.58599672034505"><ele>9.0</ele><time>2026-04-06T14:00:12.001Z</time></trkpt><trkpt lat="39.990778980443864" lon="8.585745667592391"><ele>9.333333333333334</ele><time>2026-04-06T14:00:13.001Z</time></trkpt><trkpt lat="39.9908216913477" lon="8.585508192969533"><ele>9.666666666666668</ele><time>2026-04-06T14:00:14.001Z</time></trkpt><trkpt lat="39.99086353536447" lon="8.585262955095804"><ele>10.0</ele><time>2026-04-06T14:00:15.001Z</time></trkpt><trkpt lat="39.99090717566018" lon="8.58500951672943"><ele>10.0</ele><time>2026-04-06T14:00:16.001Z</time></trkpt><trkpt lat="39.9909519205224" lon="8.584753032197117"><ele>10.0</ele><time>2026-04-06T14:00:17.001Z</time></trkpt><trkpt lat="39.99099278312103" lon="8.584508601401279"><ele>10.0</ele><time>2026-04-06T14:00:18.001Z</time></trkpt><trkpt lat="39.99102381144624" lon="8.584276020424753"><ele>10.333333333333334</ele><time>2026-04-06T14:00:19.001Z</time></trkpt><trkpt lat="39.991029590611596" lon="8.584036004341336"><ele>10.666666666666666</ele><time>2026-04-06T14:00:20.001Z</time></trkpt><trkpt lat="39.9910068339569" lon="8.583788921858632"><ele>11.0</ele><time>2026-04-06T14:00:21.001Z</time></trkpt><trkpt lat="39.990963985870415" lon="8.583538393193002"><ele>11.0</ele><time>2026-04-06T14:00:22.001Z</time></trkpt><trkpt lat="39.9909266967915" lon="8.58329352931779"><ele>11.0</ele><time>2026-04-06T14:00:23.001Z</time></trkpt><trkpt lat="39.990912990327125" lon="8.58305788196318"><ele>11.0</ele><time>2026-04-06T14:00:24.001Z</time></trkpt><trkpt lat="39.990930498945524" lon="8.582815667596872"><ele>10.333333333333332</ele><time>2026-04-06T14:00:25.001Z</time></trkpt><trkpt lat="39.99097539512292" lon="8.582571634468101"><ele>9.666666666666666</ele><time>2026-04-06T14:00:26.001Z</time></trkpt><trkpt lat="39.99103035038823" lon="8.582328051499436"><ele>9.0</ele><time>2026-04-06T14:00:27.001Z</time></trkpt><trkpt lat="39.991084933243805" lon="8.582076815428868"><ele>8.666666666666666</ele><time>2026-04-06T14:00:28.001Z</time></trkpt><trkpt lat="39.99113710764669" lon="8.581822341652554"><ele>8.333333333333332</ele><time>2026-04-06T14:00:29.001Z</time></trkpt><trkpt lat="39.99119158302953" lon="8.58156181628525"><ele>8.0</ele><time>2026-04-06T14:00:30.001Z</time></trkpt><trkpt lat="39.99124580317658" lon="8.581301240956646"><ele>8.333333333333332</ele><time>2026-04-06T14:00:31.001Z</time></trkpt><trkpt lat="39.99130092538495" lon="8.581039222386948"><ele>8.666666666666666</ele><time>2026-04-06T14:00:32.001Z</time></trkpt><trkpt lat="39.99135478377527" lon="8.580773328155237"><ele>9.0</ele><time>2026-04-06T14:00:33.001Z</time></trkpt><trkpt lat="39.991409932159385" lon="8.58050534607551"><ele>8.666666666666666</ele><time>2026-04-06T14:00:34.001Z</time></trkpt><trkpt lat="39.991465440802266" lon="8.580237976293159"><ele>8.333333333333332</ele><time>2026-04-06T14:00:35.001Z</time></trkpt><trkpt lat="39.99152113190433" lon="8.579966148468618"><ele>8.0</ele><time>2026-04-06T14:00:36.001Z</time></trkpt><trkpt lat="39.99157736176918" lon="8.579692072562308"><ele>8.0</ele><time>2026-04-06T14:00:37.001Z</time></trkpt><trkpt lat="39.991634039801745" lon="8.579424665019445"><ele>8.0</ele><time>2026-04-06T14:00:38.001Z</time></trkpt><trkpt lat="39.99169122695116" lon="8.579171298835073"><ele>8.0</ele><time>2026-04-06T14:00:39.001Z</time></trkpt><trkpt lat="39.99174502340925" lon="8.578918158386744"><ele>8.0</ele><time>2026-04-06T14:00:40.001Z</time></trkpt><trkpt lat="39.99177754312901" lon="8.578678657812958"><ele>8.0</ele><time>2026-04-06T14:00:41.001Z</time></trkpt><trkpt lat="39.99177761549791" lon="8.578438080350578"><ele>8.0</ele><time>2026-04-06T14:00:42.001Z</time></trkpt><trkpt lat="39.991750976902146" lon="8.578194227228767"><ele>8.0</ele><time>2026-04-06T14:00:43.001Z</time></trkpt><trkpt lat="39.991710109723385" lon="8.577949266525911"><ele>8.0</ele><time>2026-04-06T14:00:44.001Z</time></trkpt><trkpt lat="39.99166695030626" lon="8.5777143913201"><ele>8.0</ele><time>2026-04-06T14:00:45.001Z</time></trkpt><trkpt lat="39.99162831469933" lon="8.577487318738486"><ele>8.333333333333332</ele><time>2026-04-06T14:00:46.001Z</time></trkpt><trkpt lat="39.991611209371364" lon="8.577249225141866"><ele>8.666666666666666</ele><time>2026-04-06T14:00:47.001Z</time></trkpt><trkpt lat="39.991611250696884" lon="8.57699922454146"><ele>9.0</ele><time>2026-04-06T14:00:48.001Z</time></trkpt><trkpt lat="39.99161750368196" lon="8.57674331116115"><ele>9.0</ele><time>2026-04-06T14:00:49.001Z</time></trkpt><trkpt lat="39.99162306113049" lon="8.57648249377983"><ele>9.0</ele><time>2026-04-06T14:00:50.001Z</time></trkpt><trkpt lat="39.99163015340219" lon="8.576220622595129"><ele>9.0</ele><time>2026-04-06T14:00:51.001Z</time></trkpt><trkpt lat="39.99164893919743" lon="8.575958173121641"><ele>7.333333333333333</ele><time>2026-04-06T14:00:52.001Z</time></trkpt><trkpt lat="39.99168507143202" lon="8.575694608172002"><ele>5.666666666666666</ele><time>2026-04-06T14:00:53.001Z</time></trkpt><trkpt lat="39.99173876513397" lon="8.575433266511814"><ele>4.0</ele><time>2026-04-06T14:00:54.001Z</time></trkpt><trkpt lat="39.99178779076152" lon="8.575171931233765"><ele>4.0</ele><time>2026-04-06T14:00:55.001Z</time></trkpt><trkpt lat="39.99182176064148" lon="8.574910823595246"><ele>4.0</ele><time>2026-04-06T14:00:56.001Z</time></trkpt><trkpt lat="39.99184171565355" lon="8.574644588736215"><ele>4.0</ele><time>2026-04-06T14:00:57.001Z</time></trkpt><trkpt lat="39.991846970257505" lon="8.574378192317925"><ele>4.0</ele><time>2026-04-06T14:00:58.001Z</time></trkpt><trkpt lat="39.99183457860338" lon="8.574114963744835"><ele>4.0</ele><time>2026-04-06T14:00:59.001Z</time></trkpt><trkpt lat="39.99180645447634" lon="8.57385184297755"><ele>4.0</ele><time>2026-04-06T14:01:00.001Z</time></trkpt><trkpt lat="39.991766458832124" lon="8.573587705498108"><ele>4.333333333333333</ele><time>2026-04-06T14:01:01.001Z</time></trkpt><trkpt lat="39.99173188784893" lon="8.5733199132622"><ele>4.666666666666667</ele><time>2026-04-06T14:01:02.001Z</time></trkpt><trkpt lat="39.99170947788634" lon="8.573049596811897"><ele>5.0</ele><time>2026-04-06T14:01:03.001Z</time></trkpt><trkpt lat="39.99169653812419" lon="8.572778114781563"><ele>5.666666666666667</ele><time>2026-04-06T14:01:04.001Z</time></trkpt><trkpt lat="39.99168786907093" lon="8.572501978792591"><ele>6.333333333333334</ele><time>2026-04-06T14:01:05.001Z</time></trkpt><trkpt lat="39.991681807374725" lon="8.572230579795546"><ele>7.0</ele><time>2026-04-06T14:01:06.001Z</time></trkpt><trkpt lat="39.991670493882914" lon="8.571960820886273"><ele>7.0</ele><time>2026-04-06T14:01:07.001Z</time></trkpt><trkpt lat="39.9916571210592" lon="8.571696389367728"><ele>7.0</ele><time>2026-04-06T14:01:08.001Z</time></trkpt><trkpt lat="39.9916432019373" lon="8.571434861984988"><ele>7.0</ele><time>2026-04-06T14:01:09.001Z</time></trkpt><trkpt lat="39.99163543905308" lon="8.57117584719985"><ele>7.0</ele><time>2026-04-06T14:01:10.001Z</time></trkpt><trkpt lat="39.991638537814" lon="8.570915820907157"><ele>7.0</ele><time>2026-04-06T14:01:11.001Z</time></trkpt><trkpt lat="39.9916532518448" lon="8.570652594165088"><ele>7.0</ele><time>2026-04-06T14:01:12.001Z</time></trkpt><trkpt lat="39.991681049539814" lon="8.570386710598259"><ele>7.333333333333334</ele><time>2026-04-06T14:01:13.001Z</time></trkpt><trkpt lat="39.9917216350339" lon="8.570119585477409"><ele>7.666666666666666</ele><time>2026-04-06T14:01:14.001Z</time></trkpt><trkpt lat="39.991762436415534" lon="8.569849916296159"><ele>8.0</ele><time>2026-04-06T14:01:15.001Z</time></trkpt><trkpt lat="39.991804219135105" lon="8.569585848617626"><ele>7.666666666666666</ele><time>2026-04-06T14:01:16.001Z</time></trkpt><trkpt lat="39.991846707972776" lon="8.569302658489152"><ele>7.333333333333334</ele><time>2026-04-06T14:01:17.001Z</time></trkpt><trkpt lat="39.991885811678856" lon="8.569024477888407"><ele>7.0</ele><time>2026-04-06T14:01:18.001Z</time></trkpt><trkpt lat="39.99192258035495" lon="8.568752417528435"><ele>6.666666666666667</ele><time>2026-04-06T14:01:19.001Z</time></trkpt><trkpt lat="39.991950564635815" lon="8.568501298575287"><ele>6.333333333333334</ele><time>2026-04-06T14:01:20.001Z</time></trkpt><trkpt lat="39.99196163811859" lon="8.568255569816436"><ele>6.0</ele><time>2026-04-06T14:01:21.001Z</time></trkpt><trkpt lat="39.99194939637721" lon="8.568021086631695"><ele>6.0</ele><time>2026-04-06T14:01:22.001Z</time></trkpt><trkpt lat="39.99190690891229" lon="8.5677928368011"><ele>6.0</ele><time>2026-04-06T14:01:23.001Z</time></trkpt><trkpt lat="39.99185026124697" lon="8.567562045686458"><ele>6.0</ele><time>2026-04-06T14:01:24.001Z</time></trkpt><trkpt lat="39.9917920797262" lon="8.567325188636845"><ele>6.0</ele><time>2026-04-06T14:01:25.001Z</time></trkpt><trkpt lat="39.99174831999621" lon="8.567108672716929"><ele>6.0</ele><time>2026-04-06T14:01:26.001Z</time></trkpt><trkpt lat="39.99172707880113" lon="8.566881428893593"><ele>6.0</ele><time>2026-04-06T14:01:27.001Z</time></trkpt><trkpt lat="39.99173776851701" lon="8.566633644452269"><ele>6.0</ele><time>2026-04-06T14:01:28.001Z</time></trkpt><trkpt lat="39.99177581381279" lon="8.56638167550898"><ele>6.0</ele><time>2026-04-06T14:01:29.001Z</time></trkpt><trkpt lat="39.991822497115976" lon="8.566112230349471"><ele>6.0</ele><time>2026-04-06T14:01:30.001Z</time></trkpt><trkpt lat="39.99190465452263" lon="8.566011373350307"><ele>5.666666666666667</ele><time>2026-04-06T14:01:31.001Z</time></trkpt><trkpt lat="39.99198095188848" lon="8.56577888797012"><ele>5.333333333333334</ele><time>2026-04-06T14:01:32.001Z</time></trkpt><trkpt lat="39.99205052449175" lon="8.565551169004623"><ele>5.0</ele><time>2026-04-06T14:01:33.001Z</time></trkpt><trkpt lat="39.992108183864815" lon="8.565343741721716"><ele>5.0</ele><time>2026-04-06T14:01:34.001Z</time></trkpt><trkpt lat="39.99215181199496" lon="8.565139381537621"><ele>5.0</ele><time>2026-04-06T14:01:35.001Z</time></trkpt><trkpt lat="39.99216401866883" lon="8.564925485390674"><ele>5.0</ele><time>2026-04-06T14:01:36.001Z</time></trkpt><trkpt lat="39.992137963279625" lon="8.564706794986087"><ele>5.333333333333334</ele><time>2026-04-06T14:01:37.001Z</time></trkpt><trkpt lat="39.99207311854462" lon="8.564490079528495"><ele>5.666666666666667</ele><time>2026-04-06T14:01:38.001Z</time></trkpt><trkpt lat="39.992006992261544" lon="8.564275140683813"><ele>6.0</ele><time>2026-04-06T14:01:39.001Z</time></trkpt><trkpt lat="39.99196145094223" lon="8.564044892911289"><ele>6.0</ele><time>2026-04-06T14:01:40.001Z</time></trkpt><trkpt lat="39.991949776413016" lon="8.563803499760484"><ele>6.0</ele><time>2026-04-06T14:01:41.001Z</time></trkpt><trkpt lat="39.99196637120824" lon="8.563556438095313"><ele>6.0</ele><time>2026-04-06T14:01:42.001Z</time></trkpt><trkpt lat="39.99201025522079" lon="8.563313711136313"><ele>5.666666666666667</ele><time>2026-04-06T14:01:43.001Z</time></trkpt><trkpt lat="39.99206476716337" lon="8.563099343911794"><ele>5.333333333333334</ele><time>2026-04-06T14:01:44.001Z</time></trkpt><trkpt lat="39.992114580200706" lon="8.562903162434905"><ele>5.0</ele><time>2026-04-06T14:01:45.001Z</time></trkpt><trkpt lat="39.99216512535763" lon="8.562721119429247"><ele>5.5</ele><time>2026-04-06T14:01:46.001Z</time></trkpt><trkpt lat="39.99221066956906" lon="8.562563890358431"><ele>6.0</ele><time>2026-04-06T14:01:47.001Z</time></trkpt><trkpt lat="39.9922509723859" lon="8.562457855056941"><ele>6.5</ele><time>2026-04-06T14:01:48.001Z</time></trkpt><trkpt lat="39.9922826261031" lon="8.562379453843285"><ele>7.0</ele><time>2026-04-06T14:01:49.001Z</time></trkpt><trkpt lat="39.99237279731381" lon="8.562155142125835"><ele>7.0</ele><time>2026-04-06T14:01:52.001Z</time></trkpt><trkpt lat="39.99241579256326" lon="8.562050266960563"><ele>6.999999999999999</ele><time>2026-04-06T14:01:53.001Z</time></trkpt><trkpt lat="39.99246417579977" lon="8.561937099533143"><ele>6.999999999999999</ele><time>2026-04-06T14:01:54.001Z</time></trkpt><trkpt lat="39.992508041685305" lon="8.561815476374854"><ele>7.0</ele><time>2026-04-06T14:01:55.001Z</time></trkpt><trkpt lat="39.99255943138317" lon="8.561688326305093"><ele>7.0</ele><time>2026-04-06T14:01:56.001Z</time></trkpt><trkpt lat="39.99260858733212" lon="8.56156287848338"><ele>6.6</ele><time>2026-04-06T14:01:57.001Z</time></trkpt><trkpt lat="39.99265104626671" lon="8.56144220945695"><ele>6.199999999999999</ele><time>2026-04-06T14:01:58.001Z</time></trkpt><trkpt lat="39.992701142188366" lon="8.561330940589793"><ele>5.8</ele><time>2026-04-06T14:01:59.001Z</time></trkpt><trkpt lat="39.992754619303454" lon="8.56122571972497"><ele>5.4</ele><time>2026-04-06T14:02:00.001Z</time></trkpt><trkpt lat="39.99279149505165" lon="8.561135484996422"><ele>5.0</ele><time>2026-04-06T14:02:01.001Z</time></trkpt><trkpt lat="39.992810172818146" lon="8.561040549270666"><ele>5.0</ele><time>2026-04-06T14:02:02.001Z</time></trkpt><trkpt lat="39.992826609786086" lon="8.560934245855426"><ele>5.0</ele><time>2026-04-06T14:02:03.001Z</time></trkpt><trkpt lat="39.992827921553825" lon="8.560802484033893"><ele>5.0</ele><time>2026-04-06T14:02:04.001Z</time></trkpt><trkpt lat="39.99282405568764" lon="8.56065283947371"><ele>5.0</ele><time>2026-04-06T14:02:05.001Z</time></trkpt><trkpt lat="39.99282596026547" lon="8.56050133826593"><ele>5.0</ele><time>2026-04-06T14:02:06.001Z</time></trkpt><trkpt lat="39.992825534252965" lon="8.56036318054015"><ele>4.833333333333334</ele><time>2026-04-06T14:02:07.001Z</time></trkpt><trkpt lat="39.9928207621474" lon="8.560246938899176"><ele>4.666666666666667</ele><time>2026-04-06T14:02:08.001Z</time></trkpt><trkpt lat="39.992808822601454" lon="8.56013878246991"><ele>4.5</ele><time>2026-04-06T14:02:09.001Z</time></trkpt><trkpt lat="39.99279762622002" lon="8.560039255799255"><ele>4.333333333333333</ele><time>2026-04-06T14:02:10.001Z</time></trkpt><trkpt lat="39.992780558904904" lon="8.559934126984144"><ele>4.166666666666666</ele><time>2026-04-06T14:02:11.001Z</time></trkpt><trkpt lat="39.99276393359925" lon="8.559825104266663"><ele>4.0</ele><time>2026-04-06T14:02:12.001Z</time></trkpt><trkpt lat="39.99274993904694" lon="8.559694955678253"><ele>4.0</ele><time>2026-04-06T14:02:13.001Z</time></trkpt><trkpt lat="39.99274214539373" lon="8.559549981727228"><ele>4.0</ele><time>2026-04-06T14:02:14.001Z</time></trkpt><trkpt lat="39.99273113325551" lon="8.559405942085782"><ele>4.0</ele><time>2026-04-06T14:02:15.001Z</time></trkpt><trkpt lat="39.99272317736179" lon="8.559285329912177"><ele>4.0</ele><time>2026-04-06T14:02:16.001Z</time></trkpt><trkpt lat="39.99271598602568" lon="8.559164562394487"><ele>4.0</ele><time>2026-04-06T14:02:17.001Z</time></trkpt><trkpt lat="39.99270460745233" lon="8.55903659923036"><ele>4.5</ele><time>2026-04-06T14:02:18.001Z</time></trkpt><trkpt lat="39.99268167850986" lon="8.558908054695527"><ele>5.0</ele><time>2026-04-06T14:02:19.001Z</time></trkpt><trkpt lat="39.992662993061955" lon="8.55880060120152"><ele>5.5</ele><time>2026-04-06T14:02:20.001Z</time></trkpt><trkpt lat="39.99265072466513" lon="8.558695656896735"><ele>6.0</ele><time>2026-04-06T14:02:21.001Z</time></trkpt><trkpt lat="39.992639309555145" lon="8.558584795285434"><ele>6.500000000000001</ele><time>2026-04-06T14:02:22.001Z</time></trkpt><trkpt lat="39.992627910485936" lon="8.55848689902743"><ele>7.0</ele><time>2026-04-06T14:02:23.001Z</time></trkpt><trkpt lat="39.99257631246184" lon="8.5583312719754"><ele>7.333333333333334</ele><time>2026-04-06T14:02:25.001Z</time></trkpt><trkpt lat="39.99252471968289" lon="8.558235061796077"><ele>7.666666666666667</ele><time>2026-04-06T14:02:26.001Z</time></trkpt><trkpt lat="39.99247721935998" lon="8.558129652596715"><ele>8.0</ele><time>2026-04-06T14:02:27.001Z</time></trkpt><trkpt lat="39.992438312787215" lon="8.55803024893166"><ele>8.333333333333334</ele><time>2026-04-06T14:02:28.001Z</time></trkpt><trkpt lat="39.99242240475678" lon="8.557946079118263"><ele>8.666666666666666</ele><time>2026-04-06T14:02:29.001Z</time></trkpt><trkpt lat="39.9924276659442" lon="8.557844354087809"><ele>9.0</ele><time>2026-04-06T14:02:30.001Z</time></trkpt><trkpt lat="39.99244195219506" lon="8.557728510573767"><ele>9.2</ele><time>2026-04-06T14:02:31.001Z</time></trkpt><trkpt lat="39.9924457814443" lon="8.557603305708119"><ele>9.4</ele><time>2026-04-06T14:02:32.001Z</time></trkpt><trkpt lat="39.99244527303125" lon="8.557479499404902"><ele>9.6</ele><time>2026-04-06T14:02:33.001Z</time></trkpt><trkpt lat="39.99244665103246" lon="8.557366595228004"><ele>9.8</ele><time>2026-04-06T14:02:34.001Z</time></trkpt><trkpt lat="39.99245685209652" lon="8.55724093032753"><ele>10.0</ele><time>2026-04-06T14:02:35.001Z</time></trkpt><trkpt lat="39.992470673590624" lon="8.557115938530563"><ele>10.0</ele><time>2026-04-06T14:02:36.001Z</time></trkpt><trkpt lat="39.992488412594994" lon="8.556993811419302"><ele>10.0</ele><time>2026-04-06T14:02:37.001Z</time></trkpt><trkpt lat="39.99251590397079" lon="8.556868886826479"><ele>10.0</ele><time>2026-04-06T14:02:38.001Z</time></trkpt><trkpt lat="39.992545065705514" lon="8.556749857920801"><ele>10.0</ele><time>2026-04-06T14:02:39.001Z</time></trkpt><trkpt lat="39.99256514119992" lon="8.556653556112877"><ele>10.0</ele><time>2026-04-06T14:02:40.001Z</time></trkpt><trkpt lat="39.99258232868609" lon="8.556554406114984"><ele>10.0</ele><time>2026-04-06T14:02:41.001Z</time></trkpt><trkpt lat="39.99259776313035" lon="8.556448481146612"><ele>10.0</ele><time>2026-04-06T14:02:42.001Z</time></trkpt><trkpt lat="39.992615406491346" lon="8.556333023746703"><ele>10.0</ele><time>2026-04-06T14:02:43.001Z</time></trkpt><trkpt lat="39.99263133662647" lon="8.556225264864116"><ele>10.0</ele><time>2026-04-06T14:02:44.001Z</time></trkpt><trkpt lat="39.99265238342076" lon="8.556115639893706"><ele>10.0</ele><time>2026-04-06T14:02:45.001Z</time></trkpt><trkpt lat="39.99266859421345" lon="8.556020362630486"><ele>10.0</ele><time>2026-04-06T14:02:46.001Z</time></trkpt><trkpt lat="39.99268746013728" lon="8.55592274373133"><ele>10.0</ele><time>2026-04-06T14:02:47.001Z</time></trkpt><trkpt lat="39.992695417769774" lon="8.555820688726978"><ele>10.0</ele><time>2026-04-06T14:02:48.001Z</time></trkpt><trkpt lat="39.99270767684365" lon="8.555704781077228"><ele>10.0</ele><time>2026-04-06T14:02:49.001Z</time></trkpt><trkpt lat="39.99272808350089" lon="8.555582268452131"><ele>10.0</ele><time>2026-04-06T14:02:50.001Z</time></trkpt><trkpt lat="39.99274486160295" lon="8.555458671689449"><ele>10.0</ele><time>2026-04-06T14:02:51.001Z</time></trkpt><trkpt lat="39.99275394254064" lon="8.55535378667667"><ele>10.0</ele><time>2026-04-06T14:02:52.001Z</time></trkpt><trkpt lat="39.992757601895256" lon="8.555255403162255"><ele>10.0</ele><time>2026-04-06T14:02:53.001Z</time></trkpt><trkpt lat="39.99276274122008" lon="8.555163106711234"><ele>10.333333333333334</ele><time>2026-04-06T14:02:54.001Z</time></trkpt><trkpt lat="39.99277020657248" lon="8.555051353708182"><ele>10.666666666666668</ele><time>2026-04-06T14:02:55.001Z</time></trkpt><trkpt lat="39.99277648774496" lon="8.554940362658682"><ele>11.0</ele><time>2026-04-06T14:02:56.001Z</time></trkpt><trkpt lat="39.992785911531165" lon="8.554845397725316"><ele>11.333333333333334</ele><time>2026-04-06T14:02:57.001Z</time></trkpt><trkpt lat="39.992795504958984" lon="8.55476334357391"><ele>11.666666666666666</ele><time>2026-04-06T14:02:58.001Z</time></trkpt><trkpt lat="39.99279695600242" lon="8.554664047469402"><ele>12.0</ele><time>2026-04-06T14:03:00.001Z</time></trkpt><trkpt lat="39.992804709684435" lon="8.554572363897734"><ele>11.75</ele><time>2026-04-06T14:03:02.001Z</time></trkpt><trkpt lat="39.992819093538714" lon="8.554475509851034"><ele>11.5</ele><time>2026-04-06T14:03:03.001Z</time></trkpt><trkpt lat="39.99283679314132" lon="8.554367934229168"><ele>11.25</ele><time>2026-04-06T14:03:04.001Z</time></trkpt><trkpt lat="39.99285954498212" lon="8.554252204190831"><ele>11.0</ele><time>2026-04-06T14:03:05.001Z</time></trkpt><trkpt lat="39.99292783771956" lon="8.553992593778265"><ele>11.0</ele><time>2026-04-06T14:03:07.001Z</time></trkpt><trkpt lat="39.99295937605715" lon="8.553843199234516"><ele>11.0</ele><time>2026-04-06T14:03:08.001Z</time></trkpt><trkpt lat="39.9929795268938" lon="8.553665171025264"><ele>11.0</ele><time>2026-04-06T14:03:09.001Z</time></trkpt><trkpt lat="39.99301877791505" lon="8.553484257860887"><ele>11.0</ele><time>2026-04-06T14:03:10.001Z</time></trkpt><trkpt lat="39.99305786875438" lon="8.553320025962766"><ele>10.5</ele><time>2026-04-06T14:03:11.001Z</time></trkpt><trkpt lat="39.9930786101263" lon="8.553157096873012"><ele>10.0</ele><time>2026-04-06T14:03:12.001Z</time></trkpt><trkpt lat="39.99312441336489" lon="8.553003170577938"><ele>9.5</ele><time>2026-04-06T14:03:13.001Z</time></trkpt><trkpt lat="39.99315436890837" lon="8.55283537471392"><ele>9.0</ele><time>2026-04-06T14:03:14.001Z</time></trkpt><trkpt lat="39.99318447145887" lon="8.552666755342448"><ele>9.0</ele><time>2026-04-06T14:03:15.001Z</time></trkpt><trkpt lat="39.99321523035846" lon="8.552494459441428"><ele>9.0</ele><time>2026-04-06T14:03:16.001Z</time></trkpt><trkpt lat="39.99324605618933" lon="8.552322029243367"><ele>9.0</ele><time>2026-04-06T14:03:17.001Z</time></trkpt><trkpt lat="39.993264595428315" lon="8.552133990033747"><ele>9.0</ele><time>2026-04-06T14:03:18.001Z</time></trkpt><trkpt lat="39.99330570992881" lon="8.551960694932653"><ele>8.0</ele><time>2026-04-06T14:03:19.001Z</time></trkpt><trkpt lat="39.993341605614816" lon="8.551784671677813"><ele>7.0</ele><time>2026-04-06T14:03:20.001Z</time></trkpt><trkpt lat="39.99337056203498" lon="8.551608760224862"><ele>6.0</ele><time>2026-04-06T14:03:21.001Z</time></trkpt><trkpt lat="39.993401558177275" lon="8.551421745969211"><ele>5.0</ele><time>2026-04-06T14:03:22.001Z</time></trkpt><trkpt lat="39.99344549277715" lon="8.551229996874488"><ele>4.75</ele><time>2026-04-06T14:03:23.001Z</time></trkpt><trkpt lat="39.99348340673793" lon="8.55105509721951"><ele>4.5</ele><time>2026-04-06T14:03:24.001Z</time></trkpt><trkpt lat="39.99352362334356" lon="8.550873051554637"><ele>4.25</ele><time>2026-04-06T14:03:25.001Z</time></trkpt><trkpt lat="39.993554513585146" lon="8.550675659321191"><ele>4.0</ele><time>2026-04-06T14:03:26.001Z</time></trkpt><trkpt lat="39.99358044491594" lon="8.550509088658142"><ele>3.75</ele><time>2026-04-06T14:03:27.001Z</time></trkpt><trkpt lat="39.99360400813559" lon="8.550350333446886"><ele>3.5</ele><time>2026-04-06T14:03:28.001Z</time></trkpt><trkpt lat="39.99363079760866" lon="8.550189141430156"><ele>3.25</ele><time>2026-04-06T14:03:29.001Z</time></trkpt><trkpt lat="39.99366116685577" lon="8.550022745163513"><ele>3.0</ele><time>2026-04-06T14:03:30.001Z</time></trkpt><trkpt lat="39.993694594509066" lon="8.549844386946532"><ele>3.0</ele><time>2026-04-06T14:03:31.001Z</time></trkpt><trkpt lat="39.99373067957012" lon="8.549649746878199"><ele>3.0</ele><time>2026-04-06T14:03:32.001Z</time></trkpt><trkpt lat="39.993766008135225" lon="8.54944524080268"><ele>3.0</ele><time>2026-04-06T14:03:33.001Z</time></trkpt><trkpt lat="39.99380352040537" lon="8.549233111273795"><ele>3.0</ele><time>2026-04-06T14:03:34.001Z</time></trkpt><trkpt lat="39.993836317362536" lon="8.549023385739435"><ele>3.0</ele><time>2026-04-06T14:03:35.001Z</time></trkpt><trkpt lat="39.99385744849386" lon="8.548832385523044"><ele>3.0</ele><time>2026-04-06T14:03:36.001Z</time></trkpt><trkpt lat="39.993871220259166" lon="8.548648971301272"><ele>3.0</ele><time>2026-04-06T14:03:37.001Z</time></trkpt><trkpt lat="39.99388563122143" lon="8.548471179626581"><ele>3.0</ele><time>2026-04-06T14:03:38.001Z</time></trkpt><trkpt lat="39.99389709247173" lon="8.548286336510614"><ele>3.0</ele><time>2026-04-06T14:03:39.001Z</time></trkpt><trkpt lat="39.993907389395" lon="8.548108333647777"><ele>3.0</ele><time>2026-04-06T14:03:40.001Z</time></trkpt><trkpt lat="39.9939175110036" lon="8.547942647363579"><ele>3.25</ele><time>2026-04-06T14:03:41.001Z</time></trkpt><trkpt lat="39.99392721254901" lon="8.54778124952759"><ele>3.5</ele><time>2026-04-06T14:03:42.001Z</time></trkpt><trkpt lat="39.99393299990214" lon="8.54761183146935"><ele>3.75</ele><time>2026-04-06T14:03:43.001Z</time></trkpt><trkpt lat="39.993936337807625" lon="8.547446123232262"><ele>4.0</ele><time>2026-04-06T14:03:44.001Z</time></trkpt><trkpt lat="39.993940064916416" lon="8.547270267992428"><ele>4.0</ele><time>2026-04-06T14:03:45.001Z</time></trkpt><trkpt lat="39.993943493071065" lon="8.547096704005279"><ele>4.0</ele><time>2026-04-06T14:03:46.001Z</time></trkpt><trkpt lat="39.993949713664335" lon="8.546926263462158"><ele>4.0</ele><time>2026-04-06T14:03:47.001Z</time></trkpt><trkpt lat="39.9939562280125" lon="8.54675585267686"><ele>4.0</ele><time>2026-04-06T14:03:48.001Z</time></trkpt><trkpt lat="39.99396311156498" lon="8.546577498393978"><ele>4.25</ele><time>2026-04-06T14:03:49.001Z</time></trkpt><trkpt lat="39.9939724316594" lon="8.546404196183762"><ele>4.5</ele><time>2026-04-06T14:03:50.001Z</time></trkpt><trkpt lat="39.99397825067545" lon="8.54623443580527"><ele>4.75</ele><time>2026-04-06T14:03:51.001Z</time></trkpt><trkpt lat="39.993984588740986" lon="8.546067582181985"><ele>5.0</ele><time>2026-04-06T14:03:52.001Z</time></trkpt><trkpt lat="39.99399860922096" lon="8.545903883819017"><ele>5.25</ele><time>2026-04-06T14:03:53.001Z</time></trkpt><trkpt lat="39.99402983676387" lon="8.545749115951928"><ele>5.5</ele><time>2026-04-06T14:03:54.001Z</time></trkpt><trkpt lat="39.99407354254429" lon="8.545598577620577"><ele>5.75</ele><time>2026-04-06T14:03:55.001Z</time></trkpt><trkpt lat="39.99411518086101" lon="8.54544792655187"><ele>6.0</ele><time>2026-04-06T14:03:56.001Z</time></trkpt><trkpt lat="39.99415046578638" lon="8.545297555766103"><ele>6.0</ele><time>2026-04-06T14:03:57.001Z</time></trkpt><trkpt lat="39.994187980532004" lon="8.545144295559625"><ele>6.0</ele><time>2026-04-06T14:03:58.001Z</time></trkpt><trkpt lat="39.99422888308981" lon="8.544999679253417"><ele>6.0</ele><time>2026-04-06T14:03:59.001Z</time></trkpt><trkpt lat="39.99426763276975" lon="8.544859084393583"><ele>6.0</ele><time>2026-04-06T14:04:00.001Z</time></trkpt><trkpt lat="39.9943042199088" lon="8.544705811301451"><ele>6.0</ele><time>2026-04-06T14:04:01.001Z</time></trkpt><trkpt lat="39.994343161158554" lon="8.544551976947538"><ele>6.0</ele><time>2026-04-06T14:04:02.001Z</time></trkpt><trkpt lat="39.99438761179836" lon="8.54440174589599"><ele>6.0</ele><time>2026-04-06T14:04:03.001Z</time></trkpt><trkpt lat="39.99442886567553" lon="8.544246614207783"><ele>6.0</ele><time>2026-04-06T14:04:04.001Z</time></trkpt><trkpt lat="39.99447470931291" lon="8.544088506351786"><ele>6.25</ele><time>2026-04-06T14:04:05.001Z</time></trkpt><trkpt lat="39.99451888913634" lon="8.543925904196213"><ele>6.5</ele><time>2026-04-06T14:04:06.001Z</time></trkpt><trkpt lat="39.99456326708089" lon="8.543755033532289"><ele>6.75</ele><time>2026-04-06T14:04:07.001Z</time></trkpt><trkpt lat="39.99460553299296" lon="8.543587691495162"><ele>7.0</ele><time>2026-04-06T14:04:08.001Z</time></trkpt><trkpt lat="39.99464375455651" lon="8.543431803804983"><ele>7.0</ele><time>2026-04-06T14:04:09.001Z</time></trkpt><trkpt lat="39.994673868101664" lon="8.543290668311432"><ele>7.0</ele><time>2026-04-06T14:04:10.001Z</time></trkpt><trkpt lat="39.99469971452358" lon="8.543132666465599"><ele>7.0</ele><time>2026-04-06T14:04:11.001Z</time></trkpt><trkpt lat="39.994711425997835" lon="8.54297346776226"><ele>7.0</ele><time>2026-04-06T14:04:12.001Z</time></trkpt><trkpt lat="39.99471876370226" lon="8.542798207104154"><ele>7.25</ele><time>2026-04-06T14:04:13.001Z</time></trkpt><trkpt lat="39.99472340565321" lon="8.542615109195618"><ele>7.5</ele><time>2026-04-06T14:04:14.001Z</time></trkpt><trkpt lat="39.994726010467815" lon="8.542434047970215"><ele>7.75</ele><time>2026-04-06T14:04:15.001Z</time></trkpt><trkpt lat="39.99472933750421" lon="8.542259200229582"><ele>8.0</ele><time>2026-04-06T14:04:16.001Z</time></trkpt><trkpt lat="39.994739444037116" lon="8.542083263520576"><ele>8.0</ele><time>2026-04-06T14:04:17.001Z</time></trkpt><trkpt lat="39.99475319668807" lon="8.54192224539041"><ele>8.0</ele><time>2026-04-06T14:04:18.001Z</time></trkpt><trkpt lat="39.9947702761319" lon="8.54176763316522"><ele>8.0</ele><time>2026-04-06T14:04:19.001Z</time></trkpt><trkpt lat="39.99479365878231" lon="8.541630775765615"><ele>8.0</ele><time>2026-04-06T14:04:20.001Z</time></trkpt><trkpt lat="39.99481523170076" lon="8.541500256163355"><ele>8.0</ele><time>2026-04-06T14:04:21.001Z</time></trkpt><trkpt lat="39.9948492519517" lon="8.541368741572771"><ele>8.0</ele><time>2026-04-06T14:04:22.001Z</time></trkpt><trkpt lat="39.99489783223213" lon="8.54125132740162"><ele>8.0</ele><time>2026-04-06T14:04:23.001Z</time></trkpt><trkpt lat="39.994962300801895" lon="8.54113663572286"><ele>8.0</ele><time>2026-04-06T14:04:24.001Z</time></trkpt><trkpt lat="39.995033671766976" lon="8.541021931990988"><ele>8.0</ele><time>2026-04-06T14:04:25.001Z</time></trkpt><trkpt lat="39.995119503440726" lon="8.540915962255932"><ele>8.200000000000001</ele><time>2026-04-06T14:04:26.001Z</time></trkpt><trkpt lat="39.99519080865671" lon="8.540800538805803"><ele>8.4</ele><time>2026-04-06T14:04:27.001Z</time></trkpt><trkpt lat="39.99524718452198" lon="8.540687423212235"><ele>8.600000000000001</ele><time>2026-04-06T14:04:28.001Z</time></trkpt><trkpt lat="39.99531831730526" lon="8.540580271144032"><ele>8.8</ele><time>2026-04-06T14:04:29.001Z</time></trkpt><trkpt lat="39.99538808822894" lon="8.540468004009922"><ele>9.0</ele><time>2026-04-06T14:04:30.001Z</time></trkpt><trkpt lat="39.99544908653172" lon="8.540354317660311"><ele>9.166666666666666</ele><time>2026-04-06T14:04:31.001Z</time></trkpt><trkpt lat="39.99553120144496" lon="8.54026708895797"><ele>9.333333333333334</ele><time>2026-04-06T14:04:32.001Z</time></trkpt><trkpt lat="39.99558339909365" lon="8.540163187615008"><ele>9.5</ele><time>2026-04-06T14:04:33.001Z</time></trkpt><trkpt lat="39.995645788254336" lon="8.540075082387238"><ele>9.666666666666668</ele><time>2026-04-06T14:04:34.001Z</time></trkpt><trkpt lat="39.99569520059468" lon="8.539997458083468"><ele>9.833333333333334</ele><time>2026-04-06T14:04:35.001Z</time></trkpt><trkpt lat="39.995734779249474" lon="8.539927861558086"><ele>10.0</ele><time>2026-04-06T14:04:36.001Z</time></trkpt><trkpt lat="39.99578300474338" lon="8.539853688081426"><ele>9.4</ele><time>2026-04-06T14:04:37.001Z</time></trkpt><trkpt lat="39.99583803453608" lon="8.539766331296388"><ele>8.8</ele><time>2026-04-06T14:04:38.001Z</time></trkpt><trkpt lat="39.99589563399919" lon="8.539666835385878"><ele>8.2</ele><time>2026-04-06T14:04:39.001Z</time></trkpt><trkpt lat="39.995955501015324" lon="8.53956640318355"><ele>7.6</ele><time>2026-04-06T14:04:40.001Z</time></trkpt><trkpt lat="39.99602091544364" lon="8.539479865638857"><ele>7.0</ele><time>2026-04-06T14:04:41.001Z</time></trkpt><trkpt lat="39.99608864252968" lon="8.539395205506866"><ele>6.666666666666667</ele><time>2026-04-06T14:04:42.001Z</time></trkpt><trkpt lat="39.99616122173831" lon="8.539312896249447"><ele>6.333333333333334</ele><time>2026-04-06T14:04:43.001Z</time></trkpt><trkpt lat="39.99622781464524" lon="8.539251102750704"><ele>6.0</ele><time>2026-04-06T14:04:44.001Z</time></trkpt><trkpt lat="39.99629247786744" lon="8.53919071647351"><ele>5.666666666666667</ele><time>2026-04-06T14:04:45.001Z</time></trkpt><trkpt lat="39.99635480319353" lon="8.53912300796134"><ele>5.333333333333334</ele><time>2026-04-06T14:04:46.001Z</time></trkpt><trkpt lat="39.996407767857384" lon="8.539060596194133"><ele>5.0</ele><time>2026-04-06T14:04:47.001Z</time></trkpt><trkpt lat="39.99650187266422" lon="8.538948970766223"><ele>5.0</ele><time>2026-04-06T14:04:49.001Z</time></trkpt><trkpt lat="39.99657404969302" lon="8.538859568695669"><ele>5.0</ele><time>2026-04-06T14:04:51.001Z</time></trkpt><trkpt lat="39.996631473839024" lon="8.538814695422806"><ele>5.0</ele><time>2026-04-06T14:04:52.001Z</time></trkpt><trkpt lat="39.99670432905146" lon="8.53877694586264"><ele>5.0</ele><time>2026-04-06T14:04:53.001Z</time></trkpt><trkpt lat="39.99679583487644" lon="8.538734608987061"><ele>5.0</ele><time>2026-04-06T14:04:54.001Z</time></trkpt><trkpt lat="39.99689668242191" lon="8.538683963624745"><ele>4.6</ele><time>2026-04-06T14:04:55.001Z</time></trkpt><trkpt lat="39.99700333013308" lon="8.538632318815509"><ele>4.2</ele><time>2026-04-06T14:04:56.001Z</time></trkpt><trkpt lat="39.99709661183389" lon="8.53858806036255"><ele>3.8</ele><time>2026-04-06T14:04:57.001Z</time></trkpt><trkpt lat="39.99719226073" lon="8.538545688821982"><ele>3.4</ele><time>2026-04-06T14:04:58.001Z</time></trkpt><trkpt lat="39.99730368690021" lon="8.53849323064438"><ele>3.0</ele><time>2026-04-06T14:04:59.001Z</time></trkpt><trkpt lat="39.99743298909707" lon="8.538430218379286"><ele>2.75</ele><time>2026-04-06T14:05:00.001Z</time></trkpt><trkpt lat="39.997558628964626" lon="8.538363396868366"><ele>2.5</ele><time>2026-04-06T14:05:01.001Z</time></trkpt><trkpt lat="39.997679755532474" lon="8.538295623304387"><ele>2.25</ele><time>2026-04-06T14:05:02.001Z</time></trkpt><trkpt lat="39.99781155744154" lon="8.538208443442445"><ele>2.0</ele><time>2026-04-06T14:05:03.001Z</time></trkpt><trkpt lat="39.99794207757753" lon="8.538105705348837"><ele>2.0</ele><time>2026-04-06T14:05:04.001Z</time></trkpt><trkpt lat="39.99807343795981" lon="8.537980151259253"><ele>2.0</ele><time>2026-04-06T14:05:05.001Z</time></trkpt><trkpt lat="39.99821089956226" lon="8.537837063345135"><ele>2.0</ele><time>2026-04-06T14:05:06.001Z</time></trkpt><trkpt lat="39.99835354324152" lon="8.53767840798352"><ele>2.0</ele><time>2026-04-06T14:05:07.001Z</time></trkpt><trkpt lat="39.998486503701336" lon="8.537530292871143"><ele>2.0</ele><time>2026-04-06T14:05:08.001Z</time></trkpt><trkpt lat="39.99862000772895" lon="8.537384995818423"><ele>2.0</ele><time>2026-04-06T14:05:09.001Z</time></trkpt><trkpt lat="39.99875229622367" lon="8.537241693922518"><ele>2.0</ele><time>2026-04-06T14:05:10.001Z</time></trkpt><trkpt lat="39.998885018529634" lon="8.537094094552492"><ele>2.0</ele><time>2026-04-06T14:05:11.001Z</time></trkpt><trkpt lat="39.99901725919027" lon="8.536945857494269"><ele>2.0</ele><time>2026-04-06T14:05:12.001Z</time></trkpt><trkpt lat="39.99915250083004" lon="8.536794134931535"><ele>1.0</ele><time>2026-04-06T14:05:13.001Z</time></trkpt><trkpt lat="39.99928308826591" lon="8.536648002319655"><ele>0.0</ele><time>2026-04-06T14:05:14.001Z</time></trkpt><trkpt lat="39.99941169807369" lon="8.53650330686733"><ele>-1.0</ele><time>2026-04-06T14:05:15.001Z</time></trkpt><trkpt lat="39.99954560848656" lon="8.53635411678942"><ele>-0.6666666666666666</ele><time>2026-04-06T14:05:16.001Z</time></trkpt><trkpt lat="39.999680948202084" lon="8.536204615175551"><ele>-0.3333333333333333</ele><time>2026-04-06T14:05:17.001Z</time></trkpt><trkpt lat="39.99981413064829" lon="8.536058313715829"><ele>0.0</ele><time>2026-04-06T14:05:18.001Z</time></trkpt><trkpt lat="39.999958751873855" lon="8.535908291082263"><ele>0.0</ele><time>2026-04-06T14:05:19.001Z</time></trkpt><trkpt lat="40.000124448378486" lon="8.535753193032056"><ele>0.0</ele><time>2026-04-06T14:05:20.001Z</time></trkpt><trkpt lat="40.00031310140847" lon="8.53560821906794"><ele>0.0</ele><time>2026-04-06T14:05:21.001Z</time></trkpt><trkpt lat="40.000494722112705" lon="8.535499196794316"><ele>0.0</ele><time>2026-04-06T14:05:22.001Z</time></trkpt><trkpt lat="40.00066369743805" lon="8.53540763550758"><ele>0.0</ele><time>2026-04-06T14:05:23.001Z</time></trkpt><trkpt lat="40.000828602797824" lon="8.535313306813078"><ele>0.0</ele><time>2026-04-06T14:05:24.001Z</time></trkpt><trkpt lat="40.00098981681779" lon="8.535221030981154"><ele>0.0</ele><time>2026-04-06T14:05:25.001Z</time></trkpt><trkpt lat="40.001155909548494" lon="8.535117457236032"><ele>0.0</ele><time>2026-04-06T14:05:26.001Z</time></trkpt><trkpt lat="40.00132207509773" lon="8.53501272414215"><ele>0.0</ele><time>2026-04-06T14:05:27.001Z</time></trkpt><trkpt lat="40.00148475934649" lon="8.534910562188557"><ele>0.0</ele><time>2026-04-06T14:05:28.001Z</time></trkpt><trkpt lat="40.001648979448774" lon="8.534809019948183"><ele>0.0</ele><time>2026-04-06T14:05:29.001Z</time></trkpt><trkpt lat="40.001804866800995" lon="8.534714113237403"><ele>0.0</ele><time>2026-04-06T14:05:30.001Z</time></trkpt><trkpt lat="40.00195284915856" lon="8.534622929442993"><ele>0.25</ele><time>2026-04-06T14:05:31.001Z</time></trkpt><trkpt lat="40.002087871484946" lon="8.534541703113213"><ele>0.5</ele><time>2026-04-06T14:05:32.001Z</time></trkpt><trkpt lat="40.00221929960105" lon="8.534464942391352"><ele>0.75</ele><time>2026-04-06T14:05:33.001Z</time></trkpt><trkpt lat="40.00234303636479" lon="8.53439607724901"><ele>1.0</ele><time>2026-04-06T14:05:34.001Z</time></trkpt><trkpt lat="40.00244628515944" lon="8.534342292463439"><ele>1.4285714285714284</ele><time>2026-04-06T14:05:35.001Z</time></trkpt><trkpt lat="40.00252524538896" lon="8.53430331587467"><ele>1.857142857142857</ele><time>2026-04-06T14:05:36.001Z</time></trkpt><trkpt lat="40.002592996007664" lon="8.534286279439296"><ele>2.2857142857142856</ele><time>2026-04-06T14:05:37.001Z</time></trkpt><trkpt lat="40.00265972510277" lon="8.534294910929646"><ele>2.714285714285714</ele><time>2026-04-06T14:05:38.001Z</time></trkpt><trkpt lat="40.002728033195666" lon="8.534310376634345"><ele>3.1428571428571423</ele><time>2026-04-06T14:05:39.001Z</time></trkpt><trkpt lat="40.002798028031386" lon="8.534319016605508"><ele>3.571428571428571</ele><time>2026-04-06T14:05:40.001Z</time></trkpt><trkpt lat="40.00288182768567" lon="8.534283109792431"><ele>4.0</ele><time>2026-04-06T14:05:41.001Z</time></trkpt><trkpt lat="40.002952769410605" lon="8.534223982975004"><ele>4.0</ele><time>2026-04-06T14:05:42.001Z</time></trkpt><trkpt lat="40.00302123325777" lon="8.53412975881096"><ele>4.0</ele><time>2026-04-06T14:05:43.001Z</time></trkpt><trkpt lat="40.00308750664851" lon="8.534013270337015"><ele>4.0</ele><time>2026-04-06T14:05:44.001Z</time></trkpt><trkpt lat="40.00318785994558" lon="8.533905615794945"><ele>4.0</ele><time>2026-04-06T14:05:45.001Z</time></trkpt><trkpt lat="40.00331127194185" lon="8.533802847957464"><ele>4.0</ele><time>2026-04-06T14:05:46.001Z</time></trkpt><trkpt lat="40.00343241289392" lon="8.5337151317803"><ele>4.0</ele><time>2026-04-06T14:05:47.001Z</time></trkpt><trkpt lat="40.00356084417126" lon="8.53362424733817"><ele>4.0</ele><time>2026-04-06T14:05:48.001Z</time></trkpt><trkpt lat="40.00370887987702" lon="8.533519667707603"><ele>4.0</ele><time>2026-04-06T14:05:49.001Z</time></trkpt><trkpt lat="40.00387272889566" lon="8.533408951245955"><ele>4.0</ele><time>2026-04-06T14:05:50.001Z</time></trkpt><trkpt lat="40.00404065368343" lon="8.533295061384994"><ele>4.0</ele><time>2026-04-06T14:05:51.001Z</time></trkpt><trkpt lat="40.00420983364487" lon="8.533178988218294"><ele>4.666666666666666</ele><time>2026-04-06T14:05:52.001Z</time></trkpt><trkpt lat="40.00440458626248" lon="8.533064878001131"><ele>5.333333333333333</ele><time>2026-04-06T14:05:53.001Z</time></trkpt><trkpt lat="40.00460700692613" lon="8.532928557457344"><ele>6.0</ele><time>2026-04-06T14:05:54.001Z</time></trkpt><trkpt lat="40.004819122510824" lon="8.532785707881688"><ele>7.5</ele><time>2026-04-06T14:05:55.001Z</time></trkpt><trkpt lat="40.00504151850239" lon="8.532637318202523"><ele>9.0</ele><time>2026-04-06T14:05:56.001Z</time></trkpt><trkpt lat="40.00526022705808" lon="8.532477358569995"><ele>9.0</ele><time>2026-04-06T14:05:57.001Z</time></trkpt><trkpt lat="40.00550214898168" lon="8.532318583336204"><ele>9.0</ele><time>2026-04-06T14:05:58.001Z</time></trkpt><trkpt lat="40.005727410587824" lon="8.532171808609165"><ele>8.0</ele><time>2026-04-06T14:05:59.001Z</time></trkpt><trkpt lat="40.00595275305534" lon="8.532024925794875"><ele>7.0</ele><time>2026-04-06T14:06:00.001Z</time></trkpt><trkpt lat="40.00616745692804" lon="8.531878679732074"><ele>7.0</ele><time>2026-04-06T14:06:01.001Z</time></trkpt><trkpt lat="40.00636946305148" lon="8.531742026779435"><ele>7.0</ele><time>2026-04-06T14:06:02.001Z</time></trkpt><trkpt lat="40.006568187678084" lon="8.53161602894048"><ele>7.0</ele><time>2026-04-06T14:06:03.001Z</time></trkpt><trkpt lat="40.00676742303456" lon="8.531482650802076"><ele>7.666666666666667</ele><time>2026-04-06T14:06:04.001Z</time></trkpt><trkpt lat="40.006951894999496" lon="8.531350486873148"><ele>8.333333333333334</ele><time>2026-04-06T14:06:05.001Z</time></trkpt><trkpt lat="40.007136966208435" lon="8.531226881189786"><ele>9.0</ele><time>2026-04-06T14:06:06.001Z</time></trkpt><trkpt lat="40.00732294811754" lon="8.531103337131501"><ele>9.0</ele><time>2026-04-06T14:06:07.001Z</time></trkpt><trkpt lat="40.007508836721385" lon="8.530977908782642"><ele>9.0</ele><time>2026-04-06T14:06:08.001Z</time></trkpt><trkpt lat="40.00769707292044" lon="8.530847824618522"><ele>9.0</ele><time>2026-04-06T14:06:09.001Z</time></trkpt><trkpt lat="40.00788645487361" lon="8.53072254501469"><ele>9.0</ele><time>2026-04-06T14:06:10.001Z</time></trkpt><trkpt lat="40.008073993119375" lon="8.530594841051396"><ele>9.0</ele><time>2026-04-06T14:06:11.001Z</time></trkpt><trkpt lat="40.00826191958266" lon="8.530467835904801"><ele>9.0</ele><time>2026-04-06T14:06:12.001Z</time></trkpt><trkpt lat="40.00845431806907" lon="8.530334319011335"><ele>9.0</ele><time>2026-04-06T14:06:13.001Z</time></trkpt><trkpt lat="40.00864318049884" lon="8.53020399891229"><ele>9.0</ele><time>2026-04-06T14:06:14.001Z</time></trkpt><trkpt lat="40.008835657603996" lon="8.530076572492487"><ele>9.0</ele><time>2026-04-06T14:06:15.001Z</time></trkpt><trkpt lat="40.009030147674125" lon="8.52995120573516"><ele>9.666666666666666</ele><time>2026-04-06T14:06:16.001Z</time></trkpt><trkpt lat="40.009224634672066" lon="8.529824185869947"><ele>10.333333333333332</ele><time>2026-04-06T14:06:17.001Z</time></trkpt><trkpt lat="40.00941387101159" lon="8.529695583799597"><ele>11.0</ele><time>2026-04-06T14:06:18.001Z</time></trkpt><trkpt lat="40.00959190429397" lon="8.529579146303016"><ele>11.0</ele><time>2026-04-06T14:06:19.001Z</time></trkpt><trkpt lat="40.009751392258366" lon="8.529471610500359"><ele>11.0</ele><time>2026-04-06T14:06:20.001Z</time></trkpt><trkpt lat="40.009917001742096" lon="8.529359425066522"><ele>11.0</ele><time>2026-04-06T14:06:21.001Z</time></trkpt><trkpt lat="40.010081603671814" lon="8.529247778537757"><ele>11.333333333333332</ele><time>2026-04-06T14:06:22.001Z</time></trkpt><trkpt lat="40.01024040638671" lon="8.529141308685753"><ele>11.666666666666666</ele><time>2026-04-06T14:06:23.001Z</time></trkpt><trkpt lat="40.010388049717264" lon="8.529045195399155"><ele>12.0</ele><time>2026-04-06T14:06:24.001Z</time></trkpt><trkpt lat="40.010526617485" lon="8.528954452174846"><ele>12.0</ele><time>2026-04-06T14:06:25.001Z</time></trkpt><trkpt lat="40.010652960281114" lon="8.528864594088107"><ele>12.0</ele><time>2026-04-06T14:06:26.001Z</time></trkpt><trkpt lat="40.01077782127423" lon="8.528778246250441"><ele>12.0</ele><time>2026-04-06T14:06:27.001Z</time></trkpt><trkpt lat="40.010907759056536" lon="8.52869125875131"><ele>12.0</ele><time>2026-04-06T14:06:28.001Z</time></trkpt><trkpt lat="40.011045562258175" lon="8.52860172841423"><ele>12.333333333333332</ele><time>2026-04-06T14:06:29.001Z</time></trkpt><trkpt lat="40.01118786753436" lon="8.528509332999763"><ele>12.666666666666666</ele><time>2026-04-06T14:06:30.001Z</time></trkpt><trkpt lat="40.011337863208944" lon="8.528418365612007"><ele>13.0</ele><time>2026-04-06T14:06:31.001Z</time></trkpt><trkpt lat="40.01148822689705" lon="8.52832332945915"><ele>13.0</ele><time>2026-04-06T14:06:32.001Z</time></trkpt><trkpt lat="40.01164284164959" lon="8.528222882724528"><ele>13.0</ele><time>2026-04-06T14:06:33.001Z</time></trkpt><trkpt lat="40.011798550286166" lon="8.528118266364768"><ele>13.0</ele><time>2026-04-06T14:06:34.001Z</time></trkpt><trkpt lat="40.01195603091083" lon="8.528012258731524"><ele>13.0</ele><time>2026-04-06T14:06:35.001Z</time></trkpt><trkpt lat="40.0121200562523" lon="8.527905325312002"><ele>13.0</ele><time>2026-04-06T14:06:36.001Z</time></trkpt><trkpt lat="40.012290934916564" lon="8.527794027056382"><ele>13.0</ele><time>2026-04-06T14:06:37.001Z</time></trkpt><trkpt lat="40.012469244632904" lon="8.527673287064061"><ele>12.666666666666666</ele><time>2026-04-06T14:06:38.001Z</time></trkpt><trkpt lat="40.012643346320395" lon="8.52755312456919"><ele>12.333333333333332</ele><time>2026-04-06T14:06:39.001Z</time></trkpt><trkpt lat="40.012811098820315" lon="8.52743515968303"><ele>12.0</ele><time>2026-04-06T14:06:40.001Z</time></trkpt><trkpt lat="40.012986867402624" lon="8.527307125062805"><ele>12.0</ele><time>2026-04-06T14:06:41.001Z</time></trkpt><trkpt lat="40.01316912505522" lon="8.527180940674528"><ele>12.0</ele><time>2026-04-06T14:06:42.001Z</time></trkpt><trkpt lat="40.01336118870038" lon="8.52705282683656"><ele>12.0</ele><time>2026-04-06T14:06:43.001Z</time></trkpt><trkpt lat="40.01355900233784" lon="8.526920412609256"><ele>13.0</ele><time>2026-04-06T14:06:44.001Z</time></trkpt><trkpt lat="40.013759292906265" lon="8.526786130900046"><ele>14.0</ele><time>2026-04-06T14:06:45.001Z</time></trkpt><trkpt lat="40.0139653220215" lon="8.526646491297456"><ele>13.5</ele><time>2026-04-06T14:06:46.001Z</time></trkpt><trkpt lat="40.01417437213107" lon="8.526501034746778"><ele>13.0</ele><time>2026-04-06T14:06:47.001Z</time></trkpt><trkpt lat="40.014388739931114" lon="8.526356602534158"><ele>13.5</ele><time>2026-04-06T14:06:48.001Z</time></trkpt><trkpt lat="40.01460200554916" lon="8.52621160166409"><ele>14.0</ele><time>2026-04-06T14:06:49.001Z</time></trkpt><trkpt lat="40.014817039701065" lon="8.52606231236148"><ele>14.5</ele><time>2026-04-06T14:06:50.001Z</time></trkpt><trkpt lat="40.01503424213213" lon="8.525914491882386"><ele>15.0</ele><time>2026-04-06T14:06:51.001Z</time></trkpt><trkpt lat="40.015249245012505" lon="8.525765408779016"><ele>15.0</ele><time>2026-04-06T14:06:52.001Z</time></trkpt><trkpt lat="40.01546904620444" lon="8.525615831531784"><ele>15.0</ele><time>2026-04-06T14:06:53.001Z</time></trkpt><trkpt lat="40.01568810422142" lon="8.525469344273692"><ele>15.5</ele><time>2026-04-06T14:06:54.001Z</time></trkpt><trkpt lat="40.015905772198415" lon="8.52532492168361"><ele>16.0</ele><time>2026-04-06T14:06:55.001Z</time></trkpt><trkpt lat="40.0161235377794" lon="8.525179375879983"><ele>16.0</ele><time>2026-04-06T14:06:56.001Z</time></trkpt><trkpt lat="40.01633903092389" lon="8.525034918168377"><ele>16.0</ele><time>2026-04-06T14:06:57.001Z</time></trkpt><trkpt lat="40.01654940038392" lon="8.524894960265973"><ele>16.0</ele><time>2026-04-06T14:06:58.001Z</time></trkpt><trkpt lat="40.01675116145036" lon="8.524759902080469"><ele>16.0</ele><time>2026-04-06T14:06:59.001Z</time></trkpt><trkpt lat="40.0169427828284" lon="8.524628401895866"><ele>16.0</ele><time>2026-04-06T14:07:00.001Z</time></trkpt><trkpt lat="40.01713724343469" lon="8.524495887415329"><ele>16.0</ele><time>2026-04-06T14:07:01.001Z</time></trkpt><trkpt lat="40.01732816986559" lon="8.524367780601429"><ele>16.0</ele><time>2026-04-06T14:07:02.001Z</time></trkpt><trkpt lat="40.017519152041324" lon="8.524236677174088"><ele>16.0</ele><time>2026-04-06T14:07:03.001Z</time></trkpt><trkpt lat="40.01771581670603" lon="8.5241045569126"><ele>16.0</ele><time>2026-04-06T14:07:04.001Z</time></trkpt><trkpt lat="40.01790959170436" lon="8.523974281994168"><ele>16.0</ele><time>2026-04-06T14:07:05.001Z</time></trkpt><trkpt lat="40.0181036873222" lon="8.523844145548912"><ele>16.0</ele><time>2026-04-06T14:07:06.001Z</time></trkpt><trkpt lat="40.01829478603465" lon="8.523714945186278"><ele>16.666666666666664</ele><time>2026-04-06T14:07:07.001Z</time></trkpt><trkpt lat="40.01847363807928" lon="8.523598153303366"><ele>17.333333333333332</ele><time>2026-04-06T14:07:08.001Z</time></trkpt><trkpt lat="40.01864758036157" lon="8.523485431923469"><ele>18.0</ele><time>2026-04-06T14:07:09.001Z</time></trkpt><trkpt lat="40.018825192877856" lon="8.523370178822413"><ele>18.0</ele><time>2026-04-06T14:07:10.001Z</time></trkpt><trkpt lat="40.018998367393834" lon="8.523254386508373"><ele>18.0</ele><time>2026-04-06T14:07:11.001Z</time></trkpt><trkpt lat="40.01917141206404" lon="8.523135154463345"><ele>18.0</ele><time>2026-04-06T14:07:12.001Z</time></trkpt><trkpt lat="40.019335323322345" lon="8.523019506567893"><ele>18.0</ele><time>2026-04-06T14:07:13.001Z</time></trkpt><trkpt lat="40.019490324919204" lon="8.522911331650777"><ele>18.0</ele><time>2026-04-06T14:07:14.001Z</time></trkpt><trkpt lat="40.019647134934516" lon="8.52280315301683"><ele>18.0</ele><time>2026-04-06T14:07:15.001Z</time></trkpt><trkpt lat="40.019810862942435" lon="8.522694717579308"><ele>18.0</ele><time>2026-04-06T14:07:16.001Z</time></trkpt><trkpt lat="40.019974000830324" lon="8.522588968407668"><ele>18.0</ele><time>2026-04-06T14:07:17.001Z</time></trkpt><trkpt lat="40.020142536328" lon="8.522478746792158"><ele>18.0</ele><time>2026-04-06T14:07:18.001Z</time></trkpt><trkpt lat="40.02030956924401" lon="8.522368116127936"><ele>18.0</ele><time>2026-04-06T14:07:19.001Z</time></trkpt><trkpt lat="40.02048150964949" lon="8.522251236319415"><ele>18.0</ele><time>2026-04-06T14:07:20.001Z</time></trkpt><trkpt lat="40.02065545572729" lon="8.522136080172869"><ele>18.0</ele><time>2026-04-06T14:07:21.001Z</time></trkpt><trkpt lat="40.02082501959904" lon="8.522021648336292"><ele>18.0</ele><time>2026-04-06T14:07:22.001Z</time></trkpt><trkpt lat="40.020983109035676" lon="8.52191232527934"><ele>18.0</ele><time>2026-04-06T14:07:23.001Z</time></trkpt><trkpt lat="40.02113480978591" lon="8.52180998432618"><ele>18.0</ele><time>2026-04-06T14:07:24.001Z</time></trkpt><trkpt lat="40.02128909369954" lon="8.52170765840578"><ele>18.0</ele><time>2026-04-06T14:07:25.001Z</time></trkpt><trkpt lat="40.02144091117879" lon="8.521604382581824"><ele>18.0</ele><time>2026-04-06T14:07:26.001Z</time></trkpt><trkpt lat="40.02159645655681" lon="8.521498103311586"><ele>18.0</ele><time>2026-04-06T14:07:27.001Z</time></trkpt><trkpt lat="40.02175064720133" lon="8.521392823545037"><ele>18.333333333333332</ele><time>2026-04-06T14:07:28.001Z</time></trkpt><trkpt lat="40.021911235765565" lon="8.521281887538056"><ele>18.666666666666664</ele><time>2026-04-06T14:07:29.001Z</time></trkpt><trkpt lat="40.02207254504804" lon="8.521174942554904"><ele>19.0</ele><time>2026-04-06T14:07:30.001Z</time></trkpt><trkpt lat="40.02224151970021" lon="8.52106401843351"><ele>18.333333333333332</ele><time>2026-04-06T14:07:31.001Z</time></trkpt><trkpt lat="40.02240642604763" lon="8.520955790813224"><ele>17.666666666666668</ele><time>2026-04-06T14:07:32.001Z</time></trkpt><trkpt lat="40.022574199461985" lon="8.520842677198093"><ele>17.0</ele><time>2026-04-06T14:07:33.001Z</time></trkpt><trkpt lat="40.022739765874505" lon="8.520730492391612"><ele>17.0</ele><time>2026-04-06T14:07:34.001Z</time></trkpt><trkpt lat="40.02290376304282" lon="8.520619951460276"><ele>17.0</ele><time>2026-04-06T14:07:35.001Z</time></trkpt><trkpt lat="40.02306351785796" lon="8.520514176934704"><ele>17.0</ele><time>2026-04-06T14:07:36.001Z</time></trkpt><trkpt lat="40.023222963300384" lon="8.520408904902494"><ele>17.333333333333336</ele><time>2026-04-06T14:07:37.001Z</time></trkpt><trkpt lat="40.02338924359973" lon="8.520294131130372"><ele>17.666666666666668</ele><time>2026-04-06T14:07:38.001Z</time></trkpt><trkpt lat="40.02356035079393" lon="8.520176260791962"><ele>18.0</ele><time>2026-04-06T14:07:39.001Z</time></trkpt><trkpt lat="40.023724038392174" lon="8.520065086068286"><ele>18.0</ele><time>2026-04-06T14:07:40.001Z</time></trkpt><trkpt lat="40.023878184711236" lon="8.519961552380455"><ele>18.0</ele><time>2026-04-06T14:07:41.001Z</time></trkpt><trkpt lat="40.02402350461109" lon="8.519864281206322"><ele>18.0</ele><time>2026-04-06T14:07:42.001Z</time></trkpt><trkpt lat="40.02416435572392" lon="8.519770240118604"><ele>18.0</ele><time>2026-04-06T14:07:43.001Z</time></trkpt><trkpt lat="40.02430646976361" lon="8.519676427707388"><ele>18.0</ele><time>2026-04-06T14:07:44.001Z</time></trkpt><trkpt lat="40.02444993951854" lon="8.519583407734931"><ele>18.0</ele><time>2026-04-06T14:07:45.001Z</time></trkpt><trkpt lat="40.024596103065186" lon="8.51948641288662"><ele>18.333333333333332</ele><time>2026-04-06T14:07:46.001Z</time></trkpt><trkpt lat="40.02474166848165" lon="8.5193873611678"><ele>18.666666666666664</ele><time>2026-04-06T14:07:47.001Z</time></trkpt><trkpt lat="40.024881453115164" lon="8.519290936585586"><ele>19.0</ele><time>2026-04-06T14:07:48.001Z</time></trkpt><trkpt lat="40.02501192636425" lon="8.519202403737037"><ele>20.0</ele><time>2026-04-06T14:07:49.001Z</time></trkpt><trkpt lat="40.02514260269273" lon="8.519115362431213"><ele>21.0</ele><time>2026-04-06T14:07:50Z</time></trkpt><trkpt lat="40.025280434407705" lon="8.519022589681779"><ele>22.0</ele><time>2026-04-06T14:07:51Z</time></trkpt><trkpt lat="40.02542031546001" lon="8.518929135213414"><ele>22.0</ele><time>2026-04-06T14:07:52Z</time></trkpt><trkpt lat="40.02556984855154" lon="8.518828070162588"><ele>22.0</ele><time>2026-04-06T14:07:53Z</time></trkpt><trkpt lat="40.02571937945363" lon="8.518727684931495"><ele>22.0</ele><time>2026-04-06T14:07:54Z</time></trkpt><trkpt lat="40.02586750448758" lon="8.518627062667873"><ele>23.0</ele><time>2026-04-06T14:07:55Z</time></trkpt><trkpt lat="40.026020270040846" lon="8.51852722892713"><ele>24.0</ele><time>2026-04-06T14:07:56Z</time></trkpt><trkpt lat="40.02617668599492" lon="8.518426540010902"><ele>25.0</ele><time>2026-04-06T14:07:57Z</time></trkpt><trkpt lat="40.02634553076841" lon="8.518335414077455"><ele>25.0</ele><time>2026-04-06T14:07:58Z</time></trkpt><trkpt lat="40.02652178050728" lon="8.5182512995227"><ele>25.0</ele><time>2026-04-06T14:07:59Z</time></trkpt><trkpt lat="40.02669931338155" lon="8.518185587362304"><ele>25.0</ele><time>2026-04-06T14:08:00Z</time></trkpt><trkpt lat="40.02688090945531" lon="8.518156926015788"><ele>25.0</ele><time>2026-04-06T14:08:01Z</time></trkpt><trkpt lat="40.02706673930313" lon="8.51810992611776"><ele>25.0</ele><time>2026-04-06T14:08:02Z</time></trkpt><trkpt lat="40.02724887451716" lon="8.518043903058578"><ele>25.0</ele><time>2026-04-06T14:08:03Z</time></trkpt><trkpt lat="40.02744760592853" lon="8.517996265350396"><ele>26.0</ele><time>2026-04-06T14:08:04Z</time></trkpt><trkpt lat="40.027670390349876" lon="8.517958659123128"><ele>27.0</ele><time>2026-04-06T14:08:05Z</time></trkpt><trkpt lat="40.02789941409917" lon="8.517901347987111"><ele>27.5</ele><time>2026-04-06T14:08:06Z</time></trkpt><trkpt lat="40.02814771031431" lon="8.51783921408993"><ele>28.0</ele><time>2026-04-06T14:08:07Z</time></trkpt><trkpt lat="40.02840542325574" lon="8.517774723738597"><ele>29.0</ele><time>2026-04-06T14:08:08Z</time></trkpt><trkpt lat="40.02866997391651" lon="8.51770852231085"><ele>30.0</ele><time>2026-04-06T14:08:09Z</time></trkpt><trkpt lat="40.02892593852355" lon="8.517631335834036"><ele>32.5</ele><time>2026-04-06T14:08:10Z</time></trkpt><trkpt lat="40.02918407518195" lon="8.517568445300421"><ele>35.0</ele><time>2026-04-06T14:08:11Z</time></trkpt><trkpt lat="40.02944776113512" lon="8.517500519235815"><ele>35.0</ele><time>2026-04-06T14:08:12Z</time></trkpt><trkpt lat="40.02971711466569" lon="8.51741427233937"><ele>35.0</ele><time>2026-04-06T14:08:13Z</time></trkpt><trkpt lat="40.02998164992976" lon="8.517294623312548"><ele>38.0</ele><time>2026-04-06T14:08:14Z</time></trkpt><trkpt lat="40.030231366165694" lon="8.517166914657743"><ele>41.0</ele><time>2026-04-06T14:08:15Z</time></trkpt><trkpt lat="40.030451361919155" lon="8.517048165322933"><ele>41.0</ele><time>2026-04-06T14:08:16Z</time></trkpt><trkpt lat="40.03064576072967" lon="8.516937228657493"><ele>41.0</ele><time>2026-04-06T14:08:17Z</time></trkpt><trkpt lat="40.030828589289385" lon="8.516835790051601"><ele>41.0</ele><time>2026-04-06T14:08:18Z</time></trkpt><trkpt lat="40.031023693015165" lon="8.516726366986461"><ele>41.5</ele><time>2026-04-06T14:08:19Z</time></trkpt><trkpt lat="40.031229276776926" lon="8.516612712843346"><ele>42.0</ele><time>2026-04-06T14:08:20Z</time></trkpt><trkpt lat="40.03144157036964" lon="8.51649400903556"><ele>42.5</ele><time>2026-04-06T14:08:21Z</time></trkpt><trkpt lat="40.031663742892846" lon="8.516370183513786"><ele>43.0</ele><time>2026-04-06T14:08:22Z</time></trkpt><trkpt lat="40.03189208341706" lon="8.51624238796023"><ele>42.0</ele><time>2026-04-06T14:08:23Z</time></trkpt><trkpt lat="40.03212544133723" lon="8.516114940005362"><ele>41.0</ele><time>2026-04-06T14:08:24Z</time></trkpt><trkpt lat="40.032364854381576" lon="8.5159860548529"><ele>42.5</ele><time>2026-04-06T14:08:25Z</time></trkpt><trkpt lat="40.03260674153366" lon="8.515853385239762"><ele>44.0</ele><time>2026-04-06T14:08:26Z</time></trkpt><trkpt lat="40.032851376984055" lon="8.515718522300931"><ele>44.0</ele><time>2026-04-06T14:08:27Z</time></trkpt><trkpt lat="40.033097145630634" lon="8.515580499878924"><ele>44.0</ele><time>2026-04-06T14:08:28Z</time></trkpt><trkpt lat="40.03334184405989" lon="8.515442569203588"><ele>44.0</ele><time>2026-04-06T14:08:29Z</time></trkpt><trkpt lat="40.033592948803076" lon="8.51530070925119"><ele>44.0</ele><time>2026-04-06T14:08:30Z</time></trkpt><trkpt lat="40.03383927017826" lon="8.51516254598933"><ele>44.0</ele><time>2026-04-06T14:08:31Z</time></trkpt><trkpt lat="40.03408729520753" lon="8.515022987184542"><ele>44.0</ele><time>2026-04-06T14:08:32Z</time></trkpt><trkpt lat="40.03433206061793" lon="8.514886468506273"><ele>45.0</ele><time>2026-04-06T14:08:33Z</time></trkpt><trkpt lat="40.03457535831935" lon="8.514750606169132"><ele>46.0</ele><time>2026-04-06T14:08:34Z</time></trkpt><trkpt lat="40.03482402027861" lon="8.514611946627356"><ele>45.0</ele><time>2026-04-06T14:08:35Z</time></trkpt><trkpt lat="40.03507183964196" lon="8.514472995865395"><ele>44.0</ele><time>2026-04-06T14:08:36Z</time></trkpt><trkpt lat="40.03531822654788" lon="8.514336229352779"><ele>44.0</ele><time>2026-04-06T14:08:37Z</time></trkpt><trkpt lat="40.03556570650281" lon="8.51419783579132"><ele>44.0</ele><time>2026-04-06T14:08:38Z</time></trkpt><trkpt lat="40.03581317411331" lon="8.514064077220073"><ele>44.5</ele><time>2026-04-06T14:08:39Z</time></trkpt><trkpt lat="40.036059779982104" lon="8.513929858797628"><ele>45.0</ele><time>2026-04-06T14:08:40Z</time></trkpt><trkpt lat="40.03630888220723" lon="8.513798420328213"><ele>46.0</ele><time>2026-04-06T14:08:41Z</time></trkpt><trkpt lat="40.03655982093937" lon="8.513675921902005"><ele>47.0</ele><time>2026-04-06T14:08:42Z</time></trkpt><trkpt lat="40.03681866479474" lon="8.513566170475118"><ele>47.5</ele><time>2026-04-06T14:08:43Z</time></trkpt><trkpt lat="40.03707711983539" lon="8.51346739613568"><ele>48.0</ele><time>2026-04-06T14:08:44Z</time></trkpt><trkpt lat="40.03733855282272" lon="8.513368774833374"><ele>48.5</ele><time>2026-04-06T14:08:45Z</time></trkpt><trkpt lat="40.037598798665975" lon="8.513270207327738"><ele>49.0</ele><time>2026-04-06T14:08:46Z</time></trkpt><trkpt lat="40.037857773223244" lon="8.51316892709979"><ele>49.0</ele><time>2026-04-06T14:08:47Z</time></trkpt><trkpt lat="40.03811496110087" lon="8.51306603929383"><ele>49.0</ele><time>2026-04-06T14:08:48Z</time></trkpt><trkpt lat="40.03837544205002" lon="8.512964213424913"><ele>49.5</ele><time>2026-04-06T14:08:49Z</time></trkpt><trkpt lat="40.03863322121287" lon="8.512866422588438"><ele>50.0</ele><time>2026-04-06T14:08:50Z</time></trkpt><trkpt lat="40.03889232844737" lon="8.512769422104167"><ele>50.5</ele><time>2026-04-06T14:08:51Z</time></trkpt><trkpt lat="40.039153162112825" lon="8.512669934725846"><ele>51.0</ele><time>2026-04-06T14:08:52Z</time></trkpt><trkpt lat="40.039410692554924" lon="8.512568638732963"><ele>51.0</ele><time>2026-04-06T14:08:53Z</time></trkpt><trkpt lat="40.0396706259291" lon="8.512464449073752"><ele>51.0</ele><time>2026-04-06T14:08:54Z</time></trkpt><trkpt lat="40.03992803759986" lon="8.512363774036153"><ele>52.0</ele><time>2026-04-06T14:08:55Z</time></trkpt><trkpt lat="40.040185686903115" lon="8.512263172404765"><ele>53.0</ele><time>2026-04-06T14:08:56Z</time></trkpt><trkpt lat="40.04044479911381" lon="8.512164615339003"><ele>53.0</ele><time>2026-04-06T14:08:57Z</time></trkpt><trkpt lat="40.040700883109956" lon="8.512066080738148"><ele>53.0</ele><time>2026-04-06T14:08:58Z</time></trkpt><trkpt lat="40.040957896632435" lon="8.511968188769988"><ele>53.5</ele><time>2026-04-06T14:08:59Z</time></trkpt><trkpt lat="40.04121453744221" lon="8.511870891249329"><ele>54.0</ele><time>2026-04-06T14:09:00Z</time></trkpt><trkpt lat="40.04147024245739" lon="8.511773462614281"><ele>55.0</ele><time>2026-04-06T14:09:01Z</time></trkpt><trkpt lat="40.04172366772636" lon="8.51166599014768"><ele>56.0</ele><time>2026-04-06T14:09:02Z</time></trkpt><trkpt lat="40.041975088152086" lon="8.511542105678599"><ele>56.0</ele><time>2026-04-06T14:09:03Z</time></trkpt><trkpt lat="40.04221818906483" lon="8.511396952901805"><ele>56.0</ele><time>2026-04-06T14:09:04Z</time></trkpt><trkpt lat="40.04245599537384" lon="8.511237520938645"><ele>54.0</ele><time>2026-04-06T14:09:05Z</time></trkpt><trkpt lat="40.04269315498471" lon="8.51106925373318"><ele>52.0</ele><time>2026-04-06T14:09:06Z</time></trkpt><trkpt lat="40.042925167154436" lon="8.510897906448564"><ele>52.0</ele><time>2026-04-06T14:09:07Z</time></trkpt><trkpt lat="40.04315637770313" lon="8.510731071308832"><ele>52.0</ele><time>2026-04-06T14:09:08Z</time></trkpt><trkpt lat="40.04339086584741" lon="8.510567680203643"><ele>52.0</ele><time>2026-04-06T14:09:09Z</time></trkpt><trkpt lat="40.043613967095766" lon="8.510414954959945"><ele>52.0</ele><time>2026-04-06T14:09:10Z</time></trkpt><trkpt lat="40.04382672898715" lon="8.51027352563421"><ele>51.5</ele><time>2026-04-06T14:09:11Z</time></trkpt><trkpt lat="40.044034778748625" lon="8.510130788938355"><ele>51.0</ele><time>2026-04-06T14:09:12Z</time></trkpt><trkpt lat="40.04423686815837" lon="8.509991383320527"><ele>52.0</ele><time>2026-04-06T14:09:13Z</time></trkpt><trkpt lat="40.04442870214865" lon="8.509859838297448"><ele>53.0</ele><time>2026-04-06T14:09:14Z</time></trkpt><trkpt lat="40.04461639174857" lon="8.509732042495997"><ele>54.0</ele><time>2026-04-06T14:09:15Z</time></trkpt><trkpt lat="40.04478940264792" lon="8.509614900333482"><ele>54.66666666666667</ele><time>2026-04-06T14:09:16Z</time></trkpt><trkpt lat="40.04495923878234" lon="8.509499042247871"><ele>55.333333333333336</ele><time>2026-04-06T14:09:17Z</time></trkpt><trkpt lat="40.0451229850766" lon="8.509387182879212"><ele>56.0</ele><time>2026-04-06T14:09:18Z</time></trkpt><trkpt lat="40.045280316218104" lon="8.509279579933937"><ele>57.333333333333336</ele><time>2026-04-06T14:09:19Z</time></trkpt><trkpt lat="40.0454417533277" lon="8.509167699267437"><ele>58.66666666666667</ele><time>2026-04-06T14:09:20Z</time></trkpt><trkpt lat="40.045603175870895" lon="8.509058345123266"><ele>60.0</ele><time>2026-04-06T14:09:21Z</time></trkpt><trkpt lat="40.04576144515623" lon="8.508951661382651"><ele>60.33333333333333</ele><time>2026-04-06T14:09:22Z</time></trkpt><trkpt lat="40.04592123933869" lon="8.508845952292564"><ele>60.666666666666664</ele><time>2026-04-06T14:09:23Z</time></trkpt><trkpt lat="40.04607890012958" lon="8.508740357520999"><ele>61.0</ele><time>2026-04-06T14:09:24Z</time></trkpt><trkpt lat="40.046233040569895" lon="8.508635567370606"><ele>60.33333333333333</ele><time>2026-04-06T14:09:25Z</time></trkpt><trkpt lat="40.04638212257257" lon="8.508534322132906"><ele>59.66666666666667</ele><time>2026-04-06T14:09:26Z</time></trkpt><trkpt lat="40.046533299101206" lon="8.50843250207356"><ele>59.0</ele><time>2026-04-06T14:09:27Z</time></trkpt><trkpt lat="40.04668826277763" lon="8.508326882639997"><ele>60.333333333333336</ele><time>2026-04-06T14:09:28Z</time></trkpt><trkpt lat="40.04684652099528" lon="8.50821198571227"><ele>61.66666666666667</ele><time>2026-04-06T14:09:29Z</time></trkpt><trkpt lat="40.04701175619686" lon="8.508085052458188"><ele>63.0</ele><time>2026-04-06T14:09:30Z</time></trkpt><trkpt lat="40.047184866757846" lon="8.507927673837216"><ele>63.0</ele><time>2026-04-06T14:09:31Z</time></trkpt><trkpt lat="40.04736742953456" lon="8.507749954535413"><ele>63.0</ele><time>2026-04-06T14:09:32Z</time></trkpt><trkpt lat="40.04756740264451" lon="8.507584632861517"><ele>64.5</ele><time>2026-04-06T14:09:33Z</time></trkpt><trkpt lat="40.047782676152394" lon="8.507422029568106"><ele>66.0</ele><time>2026-04-06T14:09:34Z</time></trkpt><trkpt lat="40.04799965622036" lon="8.50724679088862"><ele>67.0</ele><time>2026-04-06T14:09:35.001Z</time></trkpt><trkpt lat="40.0482209752661" lon="8.507054957055669"><ele>68.0</ele><time>2026-04-06T14:09:36.001Z</time></trkpt><trkpt lat="40.04844051970894" lon="8.506866091119507"><ele>71.0</ele><time>2026-04-06T14:09:37.001Z</time></trkpt><trkpt lat="40.04863289799603" lon="8.506698304700507"><ele>74.0</ele><time>2026-04-06T14:09:38.001Z</time></trkpt><trkpt lat="40.04882555211525" lon="8.506532329416679"><ele>74.0</ele><time>2026-04-06T14:09:39.001Z</time></trkpt><trkpt lat="40.049016145638376" lon="8.506364140976343"><ele>74.0</ele><time>2026-04-06T14:09:40.001Z</time></trkpt><trkpt lat="40.04918601005552" lon="8.506216710831325"><ele>74.0</ele><time>2026-04-06T14:09:41.001Z</time></trkpt><trkpt lat="40.0493503776447" lon="8.506083400978003"><ele>75.66666666666667</ele><time>2026-04-06T14:09:42.001Z</time></trkpt><trkpt lat="40.049524417738155" lon="8.505958893189765"><ele>77.33333333333333</ele><time>2026-04-06T14:09:43.001Z</time></trkpt><trkpt lat="40.049720244878515" lon="8.5058404446586"><ele>79.0</ele><time>2026-04-06T14:09:44.001Z</time></trkpt><trkpt lat="40.04993687544078" lon="8.505742205397327"><ele>79.0</ele><time>2026-04-06T14:09:45.001Z</time></trkpt><trkpt lat="40.05016925926692" lon="8.50568056908188"><ele>79.0</ele><time>2026-04-06T14:09:46.001Z</time></trkpt><trkpt lat="40.05040091450007" lon="8.505578406610809"><ele>79.0</ele><time>2026-04-06T14:09:47Z</time></trkpt><trkpt lat="40.05064302358852" lon="8.505490633717653"><ele>79.0</ele><time>2026-04-06T14:09:48Z</time></trkpt><trkpt lat="40.05088649956383" lon="8.505400656004314"><ele>77.0</ele><time>2026-04-06T14:09:49Z</time></trkpt><trkpt lat="40.051130404154314" lon="8.505311499974122"><ele>75.0</ele><time>2026-04-06T14:09:50Z</time></trkpt><trkpt lat="40.05137906761621" lon="8.505221935497824"><ele>72.0</ele><time>2026-04-06T14:09:51Z</time></trkpt><trkpt lat="40.05162919266487" lon="8.505129886399539"><ele>69.0</ele><time>2026-04-06T14:09:52Z</time></trkpt><trkpt lat="40.05188072756117" lon="8.505031076003368"><ele>69.0</ele><time>2026-04-06T14:09:53Z</time></trkpt><trkpt lat="40.052124415413004" lon="8.504919587659131"><ele>69.0</ele><time>2026-04-06T14:09:54Z</time></trkpt><trkpt lat="40.052361129850375" lon="8.504783594478939"><ele>66.5</ele><time>2026-04-06T14:09:55Z</time></trkpt><trkpt lat="40.05259485268927" lon="8.504622417122397"><ele>64.0</ele><time>2026-04-06T14:09:56Z</time></trkpt><trkpt lat="40.05284264977684" lon="8.504454099285953"><ele>63.0</ele><time>2026-04-06T14:09:57Z</time></trkpt><trkpt lat="40.053099172439964" lon="8.504282471651985"><ele>62.0</ele><time>2026-04-06T14:09:58Z</time></trkpt><trkpt lat="40.05336374630372" lon="8.504109085059527"><ele>60.0</ele><time>2026-04-06T14:09:59Z</time></trkpt><trkpt lat="40.05362534746154" lon="8.503938438591874"><ele>58.0</ele><time>2026-04-06T14:10:00Z</time></trkpt><trkpt lat="40.05388661410919" lon="8.503765860596614"><ele>61.0</ele><time>2026-04-06T14:10:01Z</time></trkpt><trkpt lat="40.05414409584659" lon="8.503590350244298"><ele>64.0</ele><time>2026-04-06T14:10:02Z</time></trkpt><trkpt lat="40.05439885575882" lon="8.503415037090868"><ele>64.0</ele><time>2026-04-06T14:10:03Z</time></trkpt><trkpt lat="40.05465264864701" lon="8.503237614855344"><ele>64.0</ele><time>2026-04-06T14:10:04Z</time></trkpt><trkpt lat="40.05490459372763" lon="8.503058249178498"><ele>66.0</ele><time>2026-04-06T14:10:05Z</time></trkpt><trkpt lat="40.05515663872447" lon="8.502877637980864"><ele>68.0</ele><time>2026-04-06T14:10:06Z</time></trkpt><trkpt lat="40.05540751060738" lon="8.502698193606482"><ele>68.0</ele><time>2026-04-06T14:10:07Z</time></trkpt><trkpt lat="40.055662435791795" lon="8.50251945876322"><ele>68.0</ele><time>2026-04-06T14:10:08Z</time></trkpt><trkpt lat="40.05591164646133" lon="8.502343688346397"><ele>70.0</ele><time>2026-04-06T14:10:09Z</time></trkpt><trkpt lat="40.056160719033265" lon="8.502169803369608"><ele>72.0</ele><time>2026-04-06T14:10:10Z</time></trkpt><trkpt lat="40.056411131451476" lon="8.501999834264575"><ele>74.0</ele><time>2026-04-06T14:10:11Z</time></trkpt><trkpt lat="40.05666320532475" lon="8.5018322556561"><ele>76.0</ele><time>2026-04-06T14:10:12Z</time></trkpt><trkpt lat="40.05690710381173" lon="8.501673999056283"><ele>76.0</ele><time>2026-04-06T14:10:13Z</time></trkpt><trkpt lat="40.057126772086974" lon="8.501531898737001"><ele>76.0</ele><time>2026-04-06T14:10:14Z</time></trkpt><trkpt lat="40.05733445185389" lon="8.50139672189522"><ele>76.5</ele><time>2026-04-06T14:10:15Z</time></trkpt><trkpt lat="40.057545982637954" lon="8.501263947318302"><ele>77.0</ele><time>2026-04-06T14:10:16Z</time></trkpt><trkpt lat="40.05776395161566" lon="8.501123486240068"><ele>77.0</ele><time>2026-04-06T14:10:17Z</time></trkpt><trkpt lat="40.05798321118639" lon="8.500980855618382"><ele>77.0</ele><time>2026-04-06T14:10:18Z</time></trkpt><trkpt lat="40.058206103041584" lon="8.50083838163196"><ele>78.0</ele><time>2026-04-06T14:10:19Z</time></trkpt><trkpt lat="40.05843048954445" lon="8.500696346242252"><ele>79.0</ele><time>2026-04-06T14:10:20Z</time></trkpt><trkpt lat="40.0586506027328" lon="8.500557251200288"><ele>77.0</ele><time>2026-04-06T14:10:21Z</time></trkpt><trkpt lat="40.058873944594815" lon="8.500416201195208"><ele>75.0</ele><time>2026-04-06T14:10:22Z</time></trkpt><trkpt lat="40.059095391894054" lon="8.500272750247285"><ele>75.5</ele><time>2026-04-06T14:10:23Z</time></trkpt><trkpt lat="40.05931645042439" lon="8.500126899498909"><ele>76.0</ele><time>2026-04-06T14:10:24Z</time></trkpt><trkpt lat="40.05953515658904" lon="8.499985458512668"><ele>76.0</ele><time>2026-04-06T14:10:25Z</time></trkpt><trkpt lat="40.059754848942795" lon="8.499843997253416"><ele>76.0</ele><time>2026-04-06T14:10:26Z</time></trkpt><trkpt lat="40.05997533049208" lon="8.499706529782513"><ele>76.5</ele><time>2026-04-06T14:10:27Z</time></trkpt><trkpt lat="40.06019035991366" lon="8.499574836701733"><ele>77.0</ele><time>2026-04-06T14:10:28Z</time></trkpt><trkpt lat="40.060391334989816" lon="8.49946214135059"><ele>77.0</ele><time>2026-04-06T14:10:29Z</time></trkpt><trkpt lat="40.06059469279542" lon="8.499368824366984"><ele>77.0</ele><time>2026-04-06T14:10:30Z</time></trkpt><trkpt lat="40.060803428637584" lon="8.499301877938722"><ele>77.0</ele><time>2026-04-06T14:10:31Z</time></trkpt><trkpt lat="40.06102571059542" lon="8.499264133519949"><ele>75.5</ele><time>2026-04-06T14:10:32Z</time></trkpt><trkpt lat="40.06125640127401" lon="8.499261224259032"><ele>74.0</ele><time>2026-04-06T14:10:33Z</time></trkpt><trkpt lat="40.06148807911563" lon="8.499229097575714"><ele>73.5</ele><time>2026-04-06T14:10:34Z</time></trkpt><trkpt lat="40.06173510307064" lon="8.499303737032347"><ele>73.0</ele><time>2026-04-06T14:10:35Z</time></trkpt><trkpt lat="40.061981041210814" lon="8.49932720437244"><ele>73.0</ele><time>2026-04-06T14:10:36Z</time></trkpt><trkpt lat="40.062226968648986" lon="8.499349757037445"><ele>73.0</ele><time>2026-04-06T14:10:37Z</time></trkpt><trkpt lat="40.06246863513108" lon="8.499371478889659"><ele>72.33333333333333</ele><time>2026-04-06T14:10:38Z</time></trkpt><trkpt lat="40.06269239316381" lon="8.499390933707202"><ele>71.66666666666667</ele><time>2026-04-06T14:10:39Z</time></trkpt><trkpt lat="40.06290423491432" lon="8.499406040484612"><ele>71.0</ele><time>2026-04-06T14:10:40Z</time></trkpt><trkpt lat="40.06310002796327" lon="8.49942056636489"><ele>71.0</ele><time>2026-04-06T14:10:41Z</time></trkpt><trkpt lat="40.06327442342057" lon="8.499435246467064"><ele>71.0</ele><time>2026-04-06T14:10:42Z</time></trkpt><trkpt lat="40.06343272706681" lon="8.499470066795823"><ele>71.0</ele><time>2026-04-06T14:10:43Z</time></trkpt><trkpt lat="40.06357191517449" lon="8.49954681379958"><ele>70.33333333333334</ele><time>2026-04-06T14:10:44Z</time></trkpt><trkpt lat="40.063680645222014" lon="8.499684271580035"><ele>69.66666666666667</ele><time>2026-04-06T14:10:45Z</time></trkpt><trkpt lat="40.06377346364764" lon="8.499856040961971"><ele>69.0</ele><time>2026-04-06T14:10:46Z</time></trkpt><trkpt lat="40.06383207434694" lon="8.500063807691388"><ele>69.0</ele><time>2026-04-06T14:10:47Z</time></trkpt><trkpt lat="40.063850217512986" lon="8.500284609432297"><ele>69.0</ele><time>2026-04-06T14:10:48Z</time></trkpt><trkpt lat="40.06382877130334" lon="8.500513602418406"><ele>69.0</ele><time>2026-04-06T14:10:49Z</time></trkpt><trkpt lat="40.06379578425704" lon="8.500749185392642"><ele>68.66666666666667</ele><time>2026-04-06T14:10:50Z</time></trkpt><trkpt lat="40.06378737521192" lon="8.50099359726084"><ele>68.33333333333334</ele><time>2026-04-06T14:10:51Z</time></trkpt><trkpt lat="40.06382283279788" lon="8.501184160620916"><ele>68.0</ele><time>2026-04-06T14:10:52Z</time></trkpt><trkpt lat="40.06389531084754" lon="8.501383038876252"><ele>68.0</ele><time>2026-04-06T14:10:53Z</time></trkpt><trkpt lat="40.06399934539136" lon="8.501546658130817"><ele>68.0</ele><time>2026-04-06T14:10:54Z</time></trkpt><trkpt lat="40.06413416557763" lon="8.501683722495526"><ele>68.0</ele><time>2026-04-06T14:10:55Z</time></trkpt><trkpt lat="40.06428988860616" lon="8.50178147360016"><ele>62.66666666666667</ele><time>2026-04-06T14:10:56Z</time></trkpt><trkpt lat="40.06445014163493" lon="8.50183737206995"><ele>57.33333333333333</ele><time>2026-04-06T14:10:57Z</time></trkpt><trkpt lat="40.064622121746005" lon="8.501860585565053"><ele>52.0</ele><time>2026-04-06T14:10:58Z</time></trkpt><trkpt lat="40.064794679537606" lon="8.501837573759822"><ele>47.0</ele><time>2026-04-06T14:10:59Z</time></trkpt><trkpt lat="40.064961831500675" lon="8.501762785469586"><ele>42.0</ele><time>2026-04-06T14:11:00Z</time></trkpt><trkpt lat="40.06512127643867" lon="8.501662070869777"><ele>37.0</ele><time>2026-04-06T14:11:01Z</time></trkpt><trkpt lat="40.0652832498369" lon="8.501512944876213"><ele>37.0</ele><time>2026-04-06T14:11:02Z</time></trkpt><trkpt lat="40.065455632568515" lon="8.50132957435234"><ele>37.0</ele><time>2026-04-06T14:11:03Z</time></trkpt><trkpt lat="40.065640596356616" lon="8.50114151529049"><ele>36.5</ele><time>2026-04-06T14:11:04Z</time></trkpt><trkpt lat="40.065826763769074" lon="8.500950225716112"><ele>36.0</ele><time>2026-04-06T14:11:05Z</time></trkpt><trkpt lat="40.0660110285165" lon="8.500757353133082"><ele>36.0</ele><time>2026-04-06T14:11:06Z</time></trkpt><trkpt lat="40.06620240261769" lon="8.500550064287388"><ele>36.0</ele><time>2026-04-06T14:11:07Z</time></trkpt><trkpt lat="40.06639598527713" lon="8.500337663318048"><ele>37.0</ele><time>2026-04-06T14:11:08Z</time></trkpt><trkpt lat="40.06657784389901" lon="8.50013173680509"><ele>38.0</ele><time>2026-04-06T14:11:09Z</time></trkpt><trkpt lat="40.06675345368743" lon="8.499924965147875"><ele>38.0</ele><time>2026-04-06T14:11:10Z</time></trkpt><trkpt lat="40.06693250316141" lon="8.499706178909983"><ele>38.0</ele><time>2026-04-06T14:11:11Z</time></trkpt><trkpt lat="40.06711437183155" lon="8.499487907208419"><ele>34.5</ele><time>2026-04-06T14:11:12Z</time></trkpt><trkpt lat="40.06730220814471" lon="8.499260815777124"><ele>31.0</ele><time>2026-04-06T14:11:13Z</time></trkpt><trkpt lat="40.067489977643724" lon="8.4990336969646"><ele>31.0</ele><time>2026-04-06T14:11:14Z</time></trkpt><trkpt lat="40.067682258785794" lon="8.498802797455193"><ele>31.0</ele><time>2026-04-06T14:11:15Z</time></trkpt><trkpt lat="40.06787522689475" lon="8.498567511915288"><ele>26.5</ele><time>2026-04-06T14:11:16Z</time></trkpt><trkpt lat="40.06806922648316" lon="8.498331985916405"><ele>22.0</ele><time>2026-04-06T14:11:17Z</time></trkpt><trkpt lat="40.06826360921615" lon="8.498094454706456"><ele>23.5</ele><time>2026-04-06T14:11:18Z</time></trkpt><trkpt lat="40.06845480275267" lon="8.49785980811878"><ele>25.0</ele><time>2026-04-06T14:11:19Z</time></trkpt><trkpt lat="40.06864262326827" lon="8.49762786788752"><ele>25.0</ele><time>2026-04-06T14:11:20Z</time></trkpt><trkpt lat="40.06882949749627" lon="8.497393602144024"><ele>25.0</ele><time>2026-04-06T14:11:21Z</time></trkpt><trkpt lat="40.06901251959425" lon="8.4971681560155"><ele>25.5</ele><time>2026-04-06T14:11:22Z</time></trkpt><trkpt lat="40.06919646347973" lon="8.49694909294069"><ele>26.0</ele><time>2026-04-06T14:11:23Z</time></trkpt><trkpt lat="40.06937741412681" lon="8.496725266011318"><ele>26.0</ele><time>2026-04-06T14:11:24Z</time></trkpt><trkpt lat="40.06955891292106" lon="8.496503288579417"><ele>26.0</ele><time>2026-04-06T14:11:25Z</time></trkpt><trkpt lat="40.069741515528975" lon="8.496277924749322"><ele>25.5</ele><time>2026-04-06T14:11:26Z</time></trkpt><trkpt lat="40.06992449505935" lon="8.496050442860488"><ele>25.0</ele><time>2026-04-06T14:11:27Z</time></trkpt><trkpt lat="40.07010993583732" lon="8.495823739062475"><ele>26.5</ele><time>2026-04-06T14:11:28Z</time></trkpt><trkpt lat="40.0702944021885" lon="8.495599390791392"><ele>28.0</ele><time>2026-04-06T14:11:29Z</time></trkpt><trkpt lat="40.070479942476915" lon="8.49537123417415"><ele>29.0</ele><time>2026-04-06T14:11:30Z</time></trkpt><trkpt lat="40.07066516799406" lon="8.495142022137362"><ele>30.0</ele><time>2026-04-06T14:11:31Z</time></trkpt><trkpt lat="40.07085124271099" lon="8.494911838245498"><ele>30.0</ele><time>2026-04-06T14:11:32Z</time></trkpt><trkpt lat="40.07103677499377" lon="8.494683684873786"><ele>30.0</ele><time>2026-04-06T14:11:33Z</time></trkpt><trkpt lat="40.0712198030779" lon="8.49445881977481"><ele>28.666666666666664</ele><time>2026-04-06T14:11:34Z</time></trkpt><trkpt lat="40.07138980916089" lon="8.49424824078013"><ele>27.333333333333332</ele><time>2026-04-06T14:11:35Z</time></trkpt><trkpt lat="40.07154482010829" lon="8.494058249117748"><ele>26.0</ele><time>2026-04-06T14:11:36Z</time></trkpt><trkpt lat="40.07169589779998" lon="8.493885290762664"><ele>26.666666666666664</ele><time>2026-04-06T14:11:37Z</time></trkpt><trkpt lat="40.0718450426282" lon="8.493736620953682"><ele>27.333333333333336</ele><time>2026-04-06T14:11:38Z</time></trkpt><trkpt lat="40.071993145073" lon="8.493621302644222"><ele>28.0</ele><time>2026-04-06T14:11:39Z</time></trkpt><trkpt lat="40.07214942950601" lon="8.493539049690614"><ele>28.0</ele><time>2026-04-06T14:11:40Z</time></trkpt><trkpt lat="40.07229888709826" lon="8.493510518238566"><ele>28.0</ele><time>2026-04-06T14:11:41Z</time></trkpt><trkpt lat="40.07243420166244" lon="8.493538000511405"><ele>28.0</ele><time>2026-04-06T14:11:42Z</time></trkpt><trkpt lat="40.072557645260524" lon="8.49361738468309"><ele>28.0</ele><time>2026-04-06T14:11:43Z</time></trkpt><trkpt lat="40.0726747668669" lon="8.493756075134039"><ele>30.25</ele><time>2026-04-06T14:11:44Z</time></trkpt><trkpt lat="40.07277955807863" lon="8.493908327431706"><ele>32.5</ele><time>2026-04-06T14:11:45Z</time></trkpt><trkpt lat="40.07284587417471" lon="8.494070896276876"><ele>34.75</ele><time>2026-04-06T14:11:46Z</time></trkpt><trkpt lat="40.07287156927361" lon="8.49425553344564"><ele>37.0</ele><time>2026-04-06T14:11:47Z</time></trkpt><trkpt lat="40.07286253172129" lon="8.494450738150798"><ele>37.0</ele><time>2026-04-06T14:11:48Z</time></trkpt><trkpt lat="40.07281431274921" lon="8.494646987791766"><ele>37.0</ele><time>2026-04-06T14:11:49Z</time></trkpt><trkpt lat="40.07273608610247" lon="8.494850320118669"><ele>37.0</ele><time>2026-04-06T14:11:50Z</time></trkpt><trkpt lat="40.072634381591875" lon="8.49505835843211"><ele>37.0</ele><time>2026-04-06T14:11:51Z</time></trkpt><trkpt lat="40.0725341620302" lon="8.495248419155752"><ele>37.0</ele><time>2026-04-06T14:11:52Z</time></trkpt><trkpt lat="40.07244577835956" lon="8.495409771834243"><ele>37.0</ele><time>2026-04-06T14:11:53Z</time></trkpt><trkpt lat="40.072383508765405" lon="8.495565479149057"><ele>37.0</ele><time>2026-04-06T14:11:54Z</time></trkpt><trkpt lat="40.07237827537869" lon="8.495713656735543"><ele>37.0</ele><time>2026-04-06T14:11:55Z</time></trkpt><trkpt lat="40.07239964647252" lon="8.495873655118466"><ele>37.0</ele><time>2026-04-06T14:11:56Z</time></trkpt><trkpt lat="40.072468458044476" lon="8.496035596783775"><ele>37.0</ele><time>2026-04-06T14:11:57Z</time></trkpt><trkpt lat="40.07256082813712" lon="8.496173377071392"><ele>35.4</ele><time>2026-04-06T14:11:58Z</time></trkpt><trkpt lat="40.072664461487626" lon="8.496240290021774"><ele>33.800000000000004</ele><time>2026-04-06T14:11:59Z</time></trkpt><trkpt lat="40.0727781025039" lon="8.496244277102049"><ele>32.2</ele><time>2026-04-06T14:12:00Z</time></trkpt><trkpt lat="40.07286017134262" lon="8.496144932534822"><ele>30.6</ele><time>2026-04-06T14:12:01Z</time></trkpt><trkpt lat="40.07294993782432" lon="8.496067083830628"><ele>29.0</ele><time>2026-04-06T14:12:02Z</time></trkpt><trkpt lat="40.07305864521086" lon="8.495967905830748"><ele>29.0</ele><time>2026-04-06T14:12:03Z</time></trkpt><trkpt lat="40.07318521931604" lon="8.49585978252356"><ele>29.0</ele><time>2026-04-06T14:12:04Z</time></trkpt><trkpt lat="40.07333013346648" lon="8.495733643775592"><ele>29.0</ele><time>2026-04-06T14:12:05Z</time></trkpt><trkpt lat="40.073493704701065" lon="8.495588739078915"><ele>28.0</ele><time>2026-04-06T14:12:06Z</time></trkpt><trkpt lat="40.07366483800415" lon="8.49541750299375"><ele>27.0</ele><time>2026-04-06T14:12:07Z</time></trkpt><trkpt lat="40.07383972693217" lon="8.495211703456969"><ele>27.0</ele><time>2026-04-06T14:12:08Z</time></trkpt><trkpt lat="40.074003918806746" lon="8.495002515031238"><ele>27.0</ele><time>2026-04-06T14:12:09Z</time></trkpt><trkpt lat="40.07417150089194" lon="8.494789639105642"><ele>27.0</ele><time>2026-04-06T14:12:10Z</time></trkpt><trkpt lat="40.074518708770285" lon="8.49436138285221"><ele>27.0</ele><time>2026-04-06T14:12:12Z</time></trkpt><trkpt lat="40.07467368806556" lon="8.494169295075485"><ele>27.0</ele><time>2026-04-06T14:12:13Z</time></trkpt><trkpt lat="40.074814375195395" lon="8.493997980552905"><ele>27.0</ele><time>2026-04-06T14:12:14Z</time></trkpt><trkpt lat="40.074952346761684" lon="8.49385138197284"><ele>27.0</ele><time>2026-04-06T14:12:15Z</time></trkpt><trkpt lat="40.07511410522223" lon="8.493751025723075"><ele>27.0</ele><time>2026-04-06T14:12:16Z</time></trkpt><trkpt lat="40.07527466749731" lon="8.4936414824723"><ele>27.0</ele><time>2026-04-06T14:12:17Z</time></trkpt><trkpt lat="40.075437663269554" lon="8.493516671280785"><ele>27.0</ele><time>2026-04-06T14:12:18Z</time></trkpt><trkpt lat="40.07561503009917" lon="8.493406454329504"><ele>27.0</ele><time>2026-04-06T14:12:19Z</time></trkpt><trkpt lat="40.07580006406846" lon="8.493287647973196"><ele>27.0</ele><time>2026-04-06T14:12:20Z</time></trkpt><trkpt lat="40.07598684752465" lon="8.493163621222845"><ele>27.666666666666664</ele><time>2026-04-06T14:12:21Z</time></trkpt><trkpt lat="40.07616933207821" lon="8.493042623423351"><ele>28.333333333333332</ele><time>2026-04-06T14:12:22Z</time></trkpt><trkpt lat="40.07634512424797" lon="8.492926046840466"><ele>29.0</ele><time>2026-04-06T14:12:23Z</time></trkpt><trkpt lat="40.076528332130664" lon="8.492805238958862"><ele>25.0</ele><time>2026-04-06T14:12:24Z</time></trkpt><trkpt lat="40.07671374935279" lon="8.492682456824967"><ele>21.0</ele><time>2026-04-06T14:12:25Z</time></trkpt><trkpt lat="40.077095554457856" lon="8.492429572628017"><ele>21.0</ele><time>2026-04-06T14:12:27Z</time></trkpt><trkpt lat="40.077288483826905" lon="8.492303510628396"><ele>21.0</ele><time>2026-04-06T14:12:28Z</time></trkpt><trkpt lat="40.077480419448456" lon="8.492179526575498"><ele>21.0</ele><time>2026-04-06T14:12:29Z</time></trkpt><trkpt lat="40.07766081576373" lon="8.492065474588776"><ele>19.666666666666668</ele><time>2026-04-06T14:12:30Z</time></trkpt><trkpt lat="40.077835778387715" lon="8.49195615509629"><ele>18.333333333333336</ele><time>2026-04-06T14:12:31Z</time></trkpt><trkpt lat="40.078020118756235" lon="8.491857614264877"><ele>17.0</ele><time>2026-04-06T14:12:32Z</time></trkpt><trkpt lat="40.07820556695794" lon="8.491790116628568"><ele>17.0</ele><time>2026-04-06T14:12:33Z</time></trkpt><trkpt lat="40.0783987224397" lon="8.491768547841273"><ele>17.0</ele><time>2026-04-06T14:12:34Z</time></trkpt><trkpt lat="40.07859698872406" lon="8.491781761035686"><ele>17.0</ele><time>2026-04-06T14:12:35Z</time></trkpt><trkpt lat="40.078805219753804" lon="8.491815410892572"><ele>17.0</ele><time>2026-04-06T14:12:36Z</time></trkpt><trkpt lat="40.07901718231979" lon="8.49186027016219"><ele>17.0</ele><time>2026-04-06T14:12:37Z</time></trkpt><trkpt lat="40.07923315195847" lon="8.491900994117835"><ele>17.0</ele><time>2026-04-06T14:12:38Z</time></trkpt><trkpt lat="40.07943732811823" lon="8.49193762595827"><ele>17.0</ele><time>2026-04-06T14:12:39Z</time></trkpt><trkpt lat="40.079626597362534" lon="8.491968829845929"><ele>17.0</ele><time>2026-04-06T14:12:40Z</time></trkpt><trkpt lat="40.07980990463541" lon="8.491998802868316"><ele>17.0</ele><time>2026-04-06T14:12:41Z</time></trkpt><trkpt lat="40.079994529914266" lon="8.492029277749632"><ele>16.666666666666668</ele><time>2026-04-06T14:12:42Z</time></trkpt><trkpt lat="40.0801831002747" lon="8.492045134924359"><ele>16.333333333333332</ele><time>2026-04-06T14:12:43Z</time></trkpt><trkpt lat="40.08035633085314" lon="8.492040755238659"><ele>16.0</ele><time>2026-04-06T14:12:44Z</time></trkpt><trkpt lat="40.0805187073882" lon="8.492022660157625"><ele>16.0</ele><time>2026-04-06T14:12:45Z</time></trkpt><trkpt lat="40.080671018002455" lon="8.491995148428128"><ele>16.0</ele><time>2026-04-06T14:12:46Z</time></trkpt><trkpt lat="40.080815507230525" lon="8.491961035224001"><ele>16.0</ele><time>2026-04-06T14:12:47Z</time></trkpt><trkpt lat="40.080946849965244" lon="8.491926099015638"><ele>16.0</ele><time>2026-04-06T14:12:48Z</time></trkpt><trkpt lat="40.08107428437792" lon="8.491891258417539"><ele>16.25</ele><time>2026-04-06T14:12:49Z</time></trkpt><trkpt lat="40.0811956494102" lon="8.49185889788943"><ele>16.5</ele><time>2026-04-06T14:12:50Z</time></trkpt><trkpt lat="40.08132285452124" lon="8.491826747938731"><ele>16.75</ele><time>2026-04-06T14:12:51Z</time></trkpt><trkpt lat="40.081450970416675" lon="8.49179652104607"><ele>17.0</ele><time>2026-04-06T14:12:52Z</time></trkpt><trkpt lat="40.081580234485905" lon="8.491766640236893"><ele>17.25</ele><time>2026-04-06T14:12:53Z</time></trkpt><trkpt lat="40.081714815548025" lon="8.491732865822557"><ele>17.5</ele><time>2026-04-06T14:12:54Z</time></trkpt><trkpt lat="40.081856788555896" lon="8.491703287183064"><ele>17.75</ele><time>2026-04-06T14:12:55Z</time></trkpt><trkpt lat="40.082003851750194" lon="8.491687559905571"><ele>18.0</ele><time>2026-04-06T14:12:56Z</time></trkpt><trkpt lat="40.08215382230908" lon="8.491681108597568"><ele>18.0</ele><time>2026-04-06T14:12:57Z</time></trkpt><trkpt lat="40.082309340661105" lon="8.491683015496072"><ele>18.0</ele><time>2026-04-06T14:12:58Z</time></trkpt><trkpt lat="40.08246398693055" lon="8.491683873294479"><ele>18.0</ele><time>2026-04-06T14:12:59Z</time></trkpt><trkpt lat="40.08261700808521" lon="8.491683539821853"><ele>18.333333333333332</ele><time>2026-04-06T14:13:00Z</time></trkpt><trkpt lat="40.082771132654415" lon="8.491685947793815"><ele>18.666666666666664</ele><time>2026-04-06T14:13:01Z</time></trkpt><trkpt lat="40.082924502165426" lon="8.491690252834102"><ele>19.0</ele><time>2026-04-06T14:13:02Z</time></trkpt><trkpt lat="40.08307964644959" lon="8.491690351232082"><ele>19.0</ele><time>2026-04-06T14:13:03Z</time></trkpt><trkpt lat="40.08323034472421" lon="8.491693286967434"><ele>19.0</ele><time>2026-04-06T14:13:04Z</time></trkpt><trkpt lat="40.08337897439716" lon="8.491693920166098"><ele>19.0</ele><time>2026-04-06T14:13:05Z</time></trkpt><trkpt lat="40.08352126003869" lon="8.491696908268892"><ele>19.0</ele><time>2026-04-06T14:13:06Z</time></trkpt><trkpt lat="40.08366165315648" lon="8.491701590381235"><ele>19.25</ele><time>2026-04-06T14:13:07Z</time></trkpt><trkpt lat="40.083800065448216" lon="8.491706585614931"><ele>19.5</ele><time>2026-04-06T14:13:08Z</time></trkpt><trkpt lat="40.08393466085171" lon="8.491708505952854"><ele>19.75</ele><time>2026-04-06T14:13:09Z</time></trkpt><trkpt lat="40.084067137675355" lon="8.491712770650961"><ele>20.0</ele><time>2026-04-06T14:13:10Z</time></trkpt><trkpt lat="40.08419873121808" lon="8.49171914923417"><ele>20.25</ele><time>2026-04-06T14:13:11Z</time></trkpt><trkpt lat="40.08432650405309" lon="8.491730664437018"><ele>20.5</ele><time>2026-04-06T14:13:12Z</time></trkpt><trkpt lat="40.08445022404682" lon="8.491748264673577"><ele>20.75</ele><time>2026-04-06T14:13:13Z</time></trkpt><trkpt lat="40.08457375638359" lon="8.491771111828118"><ele>21.0</ele><time>2026-04-06T14:13:14Z</time></trkpt><trkpt lat="40.08469339375169" lon="8.491791933446255"><ele>21.0</ele><time>2026-04-06T14:13:15Z</time></trkpt><trkpt lat="40.08481224980448" lon="8.49181186824894"><ele>21.0</ele><time>2026-04-06T14:13:16Z</time></trkpt><trkpt lat="40.08493216361614" lon="8.491841244637781"><ele>21.0</ele><time>2026-04-06T14:13:17Z</time></trkpt><trkpt lat="40.08505321725161" lon="8.491868917518936"><ele>21.0</ele><time>2026-04-06T14:13:18Z</time></trkpt><trkpt lat="40.0851752090976" lon="8.49189472835336"><ele>20.75</ele><time>2026-04-06T14:13:19Z</time></trkpt><trkpt lat="40.08529473777001" lon="8.491941858679198"><ele>20.5</ele><time>2026-04-06T14:13:20Z</time></trkpt><trkpt lat="40.085421599752586" lon="8.491975446847247"><ele>20.25</ele><time>2026-04-06T14:13:21Z</time></trkpt><trkpt lat="40.08554240424995" lon="8.492021335842702"><ele>20.0</ele><time>2026-04-06T14:13:22Z</time></trkpt><trkpt lat="40.08565114311426" lon="8.49208000743215"><ele>20.6</ele><time>2026-04-06T14:13:23Z</time></trkpt><trkpt lat="40.08575300541309" lon="8.492143336273296"><ele>21.2</ele><time>2026-04-06T14:13:24Z</time></trkpt><trkpt lat="40.08583195266045" lon="8.492248041463386"><ele>21.799999999999997</ele><time>2026-04-06T14:13:25Z</time></trkpt><trkpt lat="40.085886642950946" lon="8.492371674268137"><ele>22.4</ele><time>2026-04-06T14:13:26Z</time></trkpt><trkpt lat="40.08587741480272" lon="8.492513137340481"><ele>23.0</ele><time>2026-04-06T14:13:27Z</time></trkpt><trkpt lat="40.08589349701243" lon="8.492653381664665"><ele>23.0</ele><time>2026-04-06T14:13:28Z</time></trkpt><trkpt lat="40.0858822752471" lon="8.492792303983435"><ele>23.0</ele><time>2026-04-06T14:13:29Z</time></trkpt><trkpt lat="40.0859155231597" lon="8.492912586042962"><ele>23.0</ele><time>2026-04-06T14:13:30Z</time></trkpt><trkpt lat="40.0859738195779" lon="8.493004321770227"><ele>23.0</ele><time>2026-04-06T14:13:31Z</time></trkpt><trkpt lat="40.0860527310447" lon="8.49304442418578"><ele>23.0</ele><time>2026-04-06T14:13:32Z</time></trkpt><trkpt lat="40.086150962110004" lon="8.493068178566952"><ele>24.25</ele><time>2026-04-06T14:13:33Z</time></trkpt><trkpt lat="40.08626096480412" lon="8.493111607278285"><ele>25.5</ele><time>2026-04-06T14:13:34Z</time></trkpt><trkpt lat="40.086387233901426" lon="8.493137458002497"><ele>26.75</ele><time>2026-04-06T14:13:35Z</time></trkpt><trkpt lat="40.0865075181302" lon="8.493162695332355"><ele>28.0</ele><time>2026-04-06T14:13:36Z</time></trkpt><trkpt lat="40.0866168112871" lon="8.493185241316283"><ele>28.0</ele><time>2026-04-06T14:13:37Z</time></trkpt><trkpt lat="40.08671885772239" lon="8.493187218058909"><ele>27.999999999999996</ele><time>2026-04-06T14:13:38Z</time></trkpt><trkpt lat="40.086822828540015" lon="8.493213340750883"><ele>27.999999999999996</ele><time>2026-04-06T14:13:39Z</time></trkpt><trkpt lat="40.08692944768177" lon="8.493236418175307"><ele>28.0</ele><time>2026-04-06T14:13:40Z</time></trkpt><trkpt lat="40.087037229636856" lon="8.493257464503044"><ele>28.0</ele><time>2026-04-06T14:13:41Z</time></trkpt><trkpt lat="40.08713469866847" lon="8.49327334215364"><ele>28.0</ele><time>2026-04-06T14:13:42Z</time></trkpt><trkpt lat="40.087231013027875" lon="8.493280353847789"><ele>27.999999999999996</ele><time>2026-04-06T14:13:43Z</time></trkpt><trkpt lat="40.087328790093586" lon="8.493279131102469"><ele>27.999999999999996</ele><time>2026-04-06T14:13:44Z</time></trkpt><trkpt lat="40.08742076196467" lon="8.493260736265674"><ele>28.0</ele><time>2026-04-06T14:13:45Z</time></trkpt><trkpt lat="40.08750869000506" lon="8.493242770522711"><ele>28.0</ele><time>2026-04-06T14:13:46Z</time></trkpt><trkpt lat="40.08759199469332" lon="8.493226192517552"><ele>26.166666666666668</ele><time>2026-04-06T14:13:47Z</time></trkpt><trkpt lat="40.08767557220733" lon="8.493210839377538"><ele>24.333333333333336</ele><time>2026-04-06T14:13:48Z</time></trkpt><trkpt lat="40.08776993209019" lon="8.493196934824278"><ele>22.5</ele><time>2026-04-06T14:13:49Z</time></trkpt><trkpt lat="40.08786498430107" lon="8.493202838488738"><ele>20.666666666666668</ele><time>2026-04-06T14:13:50Z</time></trkpt><trkpt lat="40.08794808945805" lon="8.493238965663258"><ele>18.833333333333336</ele><time>2026-04-06T14:13:51Z</time></trkpt><trkpt lat="40.08801600970445" lon="8.493305544800508"><ele>17.0</ele><time>2026-04-06T14:13:52Z</time></trkpt><trkpt lat="40.08805566751581" lon="8.493404868043687"><ele>17.0</ele><time>2026-04-06T14:13:53Z</time></trkpt><trkpt lat="40.088056707611415" lon="8.49352025057628"><ele>17.0</ele><time>2026-04-06T14:13:54Z</time></trkpt><trkpt lat="40.088012206520354" lon="8.493653724528672"><ele>17.0</ele><time>2026-04-06T14:13:55Z</time></trkpt><trkpt lat="40.087939285469254" lon="8.493798305763072"><ele>17.0</ele><time>2026-04-06T14:13:56Z</time></trkpt><trkpt lat="40.08784726668406" lon="8.49397042400798"><ele>17.25</ele><time>2026-04-06T14:13:57Z</time></trkpt><trkpt lat="40.08777440765566" lon="8.49413184815583"><ele>17.5</ele><time>2026-04-06T14:13:58Z</time></trkpt><trkpt lat="40.087713664490465" lon="8.494282085997927"><ele>17.75</ele><time>2026-04-06T14:13:59Z</time></trkpt><trkpt lat="40.087680265418584" lon="8.494420893848748"><ele>18.0</ele><time>2026-04-06T14:14:00Z</time></trkpt><trkpt lat="40.08768760662851" lon="8.49455660745081"><ele>17.25</ele><time>2026-04-06T14:14:01Z</time></trkpt><trkpt lat="40.08773991721881" lon="8.494670641767406"><ele>16.5</ele><time>2026-04-06T14:14:02Z</time></trkpt><trkpt lat="40.087829980141045" lon="8.49475283948172"><ele>15.75</ele><time>2026-04-06T14:14:03Z</time></trkpt><trkpt lat="40.08794679753919" lon="8.494803149952858"><ele>15.0</ele><time>2026-04-06T14:14:04Z</time></trkpt><trkpt lat="40.08809827965842" lon="8.494827938190658"><ele>15.0</ele><time>2026-04-06T14:14:05Z</time></trkpt><trkpt lat="40.088250616703746" lon="8.49485029894013"><ele>15.0</ele><time>2026-04-06T14:14:06Z</time></trkpt><trkpt lat="40.088377075071236" lon="8.494902606283205"><ele>15.0</ele><time>2026-04-06T14:14:07Z</time></trkpt><trkpt lat="40.088498153882696" lon="8.4949102679123"><ele>15.0</ele><time>2026-04-06T14:14:08Z</time></trkpt><trkpt lat="40.08860400783838" lon="8.494931389629546"><ele>13.8</ele><time>2026-04-06T14:14:09Z</time></trkpt><trkpt lat="40.08869276110971" lon="8.494913805206611"><ele>12.6</ele><time>2026-04-06T14:14:10Z</time></trkpt><trkpt lat="40.08876783912939" lon="8.494843129671981"><ele>11.4</ele><time>2026-04-06T14:14:11Z</time></trkpt><trkpt lat="40.08881954538206" lon="8.49472636517999"><ele>10.2</ele><time>2026-04-06T14:14:12Z</time></trkpt><trkpt lat="40.08885219154848" lon="8.49459470227556"><ele>9.0</ele><time>2026-04-06T14:14:13Z</time></trkpt><trkpt lat="40.08888278272591" lon="8.494461155989042"><ele>9.0</ele><time>2026-04-06T14:14:14Z</time></trkpt><trkpt lat="40.08893621672846" lon="8.494337311178096"><ele>9.0</ele><time>2026-04-06T14:14:15Z</time></trkpt><trkpt lat="40.08896295098644" lon="8.494202154119249"><ele>9.0</ele><time>2026-04-06T14:14:16Z</time></trkpt><trkpt lat="40.089007570218044" lon="8.494075033443288"><ele>9.0</ele><time>2026-04-06T14:14:17Z</time></trkpt><trkpt lat="40.0890563244903" lon="8.49393656903808"><ele>9.0</ele><time>2026-04-06T14:14:18Z</time></trkpt><trkpt lat="40.08910664495813" lon="8.493785350806986"><ele>9.6</ele><time>2026-04-06T14:14:19Z</time></trkpt><trkpt lat="40.08916291657342" lon="8.49363331783104"><ele>10.2</ele><time>2026-04-06T14:14:20Z</time></trkpt><trkpt lat="40.0892179848684" lon="8.493510582548547"><ele>10.799999999999999</ele><time>2026-04-06T14:14:21Z</time></trkpt><trkpt lat="40.089270690205865" lon="8.493397714311602"><ele>11.4</ele><time>2026-04-06T14:14:22Z</time></trkpt><trkpt lat="40.08932902467238" lon="8.493289106276764"><ele>12.0</ele><time>2026-04-06T14:14:23Z</time></trkpt><trkpt lat="40.08939934235184" lon="8.493181055456557"><ele>12.0</ele><time>2026-04-06T14:14:24Z</time></trkpt><trkpt lat="40.08948075162584" lon="8.493084264229966"><ele>12.0</ele><time>2026-04-06T14:14:25Z</time></trkpt><trkpt lat="40.08956669371874" lon="8.492990912611253"><ele>12.0</ele><time>2026-04-06T14:14:26Z</time></trkpt><trkpt lat="40.08965406635658" lon="8.492891263589575"><ele>12.0</ele><time>2026-04-06T14:14:27Z</time></trkpt><trkpt lat="40.089745455477306" lon="8.492790236137747"><ele>11.25</ele><time>2026-04-06T14:14:28Z</time></trkpt><trkpt lat="40.08984067361925" lon="8.492695480610486"><ele>10.5</ele><time>2026-04-06T14:14:29Z</time></trkpt><trkpt lat="40.089946502537785" lon="8.492610406794572"><ele>9.75</ele><time>2026-04-06T14:14:30Z</time></trkpt><trkpt lat="40.09006116638974" lon="8.49255287125536"><ele>9.0</ele><time>2026-04-06T14:14:31Z</time></trkpt><trkpt lat="40.090180412752446" lon="8.49251641476249"><ele>10.5</ele><time>2026-04-06T14:14:32Z</time></trkpt><trkpt lat="40.09030355306658" lon="8.49250089075245"><ele>12.0</ele><time>2026-04-06T14:14:33Z</time></trkpt><trkpt lat="40.09042471842349" lon="8.492492262658356"><ele>13.5</ele><time>2026-04-06T14:14:34Z</time></trkpt><trkpt lat="40.09054848867522" lon="8.49248327917657"><ele>15.0</ele><time>2026-04-06T14:14:35Z</time></trkpt><trkpt lat="40.090671022788925" lon="8.492477422447458"><ele>16.0</ele><time>2026-04-06T14:14:36Z</time></trkpt><trkpt lat="40.09078817542232" lon="8.492481130359026"><ele>17.0</ele><time>2026-04-06T14:14:37Z</time></trkpt><trkpt lat="40.090906474779764" lon="8.49249578994764"><ele>18.0</ele><time>2026-04-06T14:14:38Z</time></trkpt><trkpt lat="40.091030608297274" lon="8.492516487906567"><ele>19.0</ele><time>2026-04-06T14:14:39Z</time></trkpt><trkpt lat="40.09115780318993" lon="8.492556948585655"><ele>19.0</ele><time>2026-04-06T14:14:40Z</time></trkpt><trkpt lat="40.09129276349398" lon="8.492534733076928"><ele>19.0</ele><time>2026-04-06T14:14:41Z</time></trkpt><trkpt lat="40.09143037757013" lon="8.492522801014974"><ele>19.0</ele><time>2026-04-06T14:14:42Z</time></trkpt><trkpt lat="40.091574475456895" lon="8.492506447693529"><ele>19.0</ele><time>2026-04-06T14:14:43Z</time></trkpt><trkpt lat="40.091721971384" lon="8.492488141924467"><ele>19.333333333333332</ele><time>2026-04-06T14:14:44Z</time></trkpt><trkpt lat="40.09187977151861" lon="8.49247116525491"><ele>19.666666666666668</ele><time>2026-04-06T14:14:45Z</time></trkpt><trkpt lat="40.092026559392316" lon="8.492454527474337"><ele>20.0</ele><time>2026-04-06T14:14:46Z</time></trkpt><trkpt lat="40.092188402235315" lon="8.492437380228209"><ele>20.0</ele><time>2026-04-06T14:14:47Z</time></trkpt><trkpt lat="40.092340692163184" lon="8.492415244782276"><ele>20.0</ele><time>2026-04-06T14:14:48Z</time></trkpt><trkpt lat="40.09249363282579" lon="8.492396406436171"><ele>20.0</ele><time>2026-04-06T14:14:49Z</time></trkpt><trkpt lat="40.092640347147" lon="8.492374453977064"><ele>21.0</ele><time>2026-04-06T14:14:50Z</time></trkpt><trkpt lat="40.092786969460015" lon="8.49237681469215"><ele>22.0</ele><time>2026-04-06T14:14:51Z</time></trkpt><trkpt lat="40.092922574781824" lon="8.492357659385666"><ele>23.0</ele><time>2026-04-06T14:14:52Z</time></trkpt><trkpt lat="40.09317200893798" lon="8.492305471066768"><ele>23.5</ele><time>2026-04-06T14:14:53Z</time></trkpt><trkpt lat="40.09332237781026" lon="8.492280799024106"><ele>24.0</ele><time>2026-04-06T14:14:54Z</time></trkpt><trkpt lat="40.09345395663875" lon="8.492262946809541"><ele>24.5</ele><time>2026-04-06T14:14:55Z</time></trkpt><trkpt lat="40.093573417391454" lon="8.492282428175397"><ele>25.0</ele><time>2026-04-06T14:14:56Z</time></trkpt><trkpt lat="40.093679315196695" lon="8.49231148117969"><ele>25.0</ele><time>2026-04-06T14:14:57Z</time></trkpt><trkpt lat="40.09377564428591" lon="8.492392811052577"><ele>25.0</ele><time>2026-04-06T14:14:58Z</time></trkpt><trkpt lat="40.09383139727169" lon="8.492511088102479"><ele>25.0</ele><time>2026-04-06T14:14:59Z</time></trkpt><trkpt lat="40.09387531622403" lon="8.492649730041862"><ele>25.0</ele><time>2026-04-06T14:15:00Z</time></trkpt><trkpt lat="40.09388145775379" lon="8.492814501984633"><ele>27.0</ele><time>2026-04-06T14:15:01Z</time></trkpt><trkpt lat="40.09386303502576" lon="8.49300339805014"><ele>29.0</ele><time>2026-04-06T14:15:02Z</time></trkpt><trkpt lat="40.09381423095712" lon="8.49321996435757"><ele>31.0</ele><time>2026-04-06T14:15:03Z</time></trkpt><trkpt lat="40.09376551342252" lon="8.493422802791914"><ele>31.0</ele><time>2026-04-06T14:15:04Z</time></trkpt><trkpt lat="40.09373415960933" lon="8.493623413091086"><ele>31.0</ele><time>2026-04-06T14:15:05Z</time></trkpt><trkpt lat="40.09375205578023" lon="8.493853811415002"><ele>31.0</ele><time>2026-04-06T14:15:06Z</time></trkpt><trkpt lat="40.0938023663589" lon="8.494103431713366"><ele>32.333333333333336</ele><time>2026-04-06T14:15:07Z</time></trkpt><trkpt lat="40.093872936246015" lon="8.494353893026078"><ele>33.666666666666664</ele><time>2026-04-06T14:15:08Z</time></trkpt><trkpt lat="40.09393910831188" lon="8.494564515327898"><ele>35.0</ele><time>2026-04-06T14:15:09Z</time></trkpt><trkpt lat="40.09402681889489" lon="8.494814689624171"><ele>33.0</ele><time>2026-04-06T14:15:10Z</time></trkpt><trkpt lat="40.09413774572902" lon="8.495042620966919"><ele>31.0</ele><time>2026-04-06T14:15:11Z</time></trkpt><trkpt lat="40.09429772775329" lon="8.495232915689503"><ele>29.0</ele><time>2026-04-06T14:15:12Z</time></trkpt><trkpt lat="40.09447440989211" lon="8.495413354107846"><ele>30.333333333333332</ele><time>2026-04-06T14:15:13Z</time></trkpt><trkpt lat="40.094631881725626" lon="8.495610891377826"><ele>31.666666666666664</ele><time>2026-04-06T14:15:14Z</time></trkpt><trkpt lat="40.094791950644876" lon="8.49578307176882"><ele>33.0</ele><time>2026-04-06T14:15:15Z</time></trkpt><trkpt lat="40.09495816811063" lon="8.495963280403018"><ele>33.666666666666664</ele><time>2026-04-06T14:15:16Z</time></trkpt><trkpt lat="40.095154107663504" lon="8.496097203828164"><ele>34.33333333333333</ele><time>2026-04-06T14:15:17Z</time></trkpt><trkpt lat="40.09534775256768" lon="8.496241016224067"><ele>35.0</ele><time>2026-04-06T14:15:18Z</time></trkpt><trkpt lat="40.09553566245105" lon="8.496406985840604"><ele>37.0</ele><time>2026-04-06T14:15:19Z</time></trkpt><trkpt lat="40.095714231689534" lon="8.496561034321607"><ele>39.0</ele><time>2026-04-06T14:15:20Z</time></trkpt><trkpt lat="40.095892797576965" lon="8.496691968037421"><ele>41.0</ele><time>2026-04-06T14:15:21Z</time></trkpt><trkpt lat="40.096097738398015" lon="8.496776450907461"><ele>41.0</ele><time>2026-04-06T14:15:22Z</time></trkpt><trkpt lat="40.09631636385608" lon="8.496842781670829"><ele>41.0</ele><time>2026-04-06T14:15:23Z</time></trkpt><trkpt lat="40.096550440784334" lon="8.496894097233643"><ele>41.5</ele><time>2026-04-06T14:15:24Z</time></trkpt><trkpt lat="40.0967904070179" lon="8.496954319997407"><ele>42.0</ele><time>2026-04-06T14:15:25Z</time></trkpt><trkpt lat="40.097026679711945" lon="8.49701835181344"><ele>42.0</ele><time>2026-04-06T14:15:26Z</time></trkpt><trkpt lat="40.09723871095322" lon="8.497079741274527"><ele>42.0</ele><time>2026-04-06T14:15:27Z</time></trkpt><trkpt lat="40.09743201661134" lon="8.497132593557552"><ele>42.0</ele><time>2026-04-06T14:15:28Z</time></trkpt><trkpt lat="40.09760485049098" lon="8.497182581611312"><ele>43.75</ele><time>2026-04-06T14:15:29Z</time></trkpt><trkpt lat="40.09776279724388" lon="8.497229523754518"><ele>45.5</ele><time>2026-04-06T14:15:30Z</time></trkpt><trkpt lat="40.097902711623995" lon="8.497271085496543"><ele>47.25</ele><time>2026-04-06T14:15:31Z</time></trkpt><trkpt lat="40.09802598178854" lon="8.497305815848797"><ele>49.0</ele><time>2026-04-06T14:15:32Z</time></trkpt><trkpt lat="40.09813485197297" lon="8.497328826708587"><ele>48.99999999999999</ele><time>2026-04-06T14:15:33Z</time></trkpt><trkpt lat="40.09823270382852" lon="8.497331091485899"><ele>49.0</ele><time>2026-04-06T14:15:34Z</time></trkpt><trkpt lat="40.098318281655885" lon="8.497312603475411"><ele>49.0</ele><time>2026-04-06T14:15:35Z</time></trkpt><trkpt lat="40.09839106510456" lon="8.497278413316177"><ele>49.0</ele><time>2026-04-06T14:15:36Z</time></trkpt><trkpt lat="40.09845851135134" lon="8.49723344142879"><ele>48.99999999999999</ele><time>2026-04-06T14:15:37Z</time></trkpt><trkpt lat="40.09853527897566" lon="8.497176330100437"><ele>49.0</ele><time>2026-04-06T14:15:38Z</time></trkpt><trkpt lat="40.09862087764126" lon="8.497112365761257"><ele>49.5</ele><time>2026-04-06T14:15:39Z</time></trkpt><trkpt lat="40.09871621692256" lon="8.49703750542483"><ele>50.0</ele><time>2026-04-06T14:15:40Z</time></trkpt><trkpt lat="40.09882563788687" lon="8.496942781905929"><ele>50.5</ele><time>2026-04-06T14:15:41Z</time></trkpt><trkpt lat="40.098939244545896" lon="8.49684213593633"><ele>51.0</ele><time>2026-04-06T14:15:42Z</time></trkpt><trkpt lat="40.09904066710676" lon="8.496747384023127"><ele>50.0</ele><time>2026-04-06T14:15:43Z</time></trkpt><trkpt lat="40.09913257820322" lon="8.496645291494119"><ele>49.0</ele><time>2026-04-06T14:15:44Z</time></trkpt><trkpt lat="40.09921965546307" lon="8.496526974722151"><ele>48.0</ele><time>2026-04-06T14:15:45Z</time></trkpt><trkpt lat="40.09929939932599" lon="8.496401689664447"><ele>47.0</ele><time>2026-04-06T14:15:46Z</time></trkpt><trkpt lat="40.099376008311374" lon="8.496280304463019"><ele>48.2</ele><time>2026-04-06T14:15:47Z</time></trkpt><trkpt lat="40.09944887039012" lon="8.496170488845362"><ele>49.400000000000006</ele><time>2026-04-06T14:15:48Z</time></trkpt><trkpt lat="40.099528927707496" lon="8.496079387011905"><ele>50.599999999999994</ele><time>2026-04-06T14:15:49Z</time></trkpt><trkpt lat="40.09962621953272" lon="8.496034440583742"><ele>51.8</ele><time>2026-04-06T14:15:50Z</time></trkpt><trkpt lat="40.099717271518564" lon="8.496000846318056"><ele>53.0</ele><time>2026-04-06T14:15:51Z</time></trkpt><trkpt lat="40.09980550863859" lon="8.495987008174383"><ele>53.0</ele><time>2026-04-06T14:15:52Z</time></trkpt><trkpt lat="40.099890327905484" lon="8.495998274047851"><ele>53.0</ele><time>2026-04-06T14:15:53Z</time></trkpt><trkpt lat="40.0999709640018" lon="8.496039054767788"><ele>53.0</ele><time>2026-04-06T14:15:54Z</time></trkpt><trkpt lat="40.100053611813145" lon="8.496088198836711"><ele>53.0</ele><time>2026-04-06T14:15:55Z</time></trkpt><trkpt lat="40.100149328341224" lon="8.49613311231954"><ele>53.0</ele><time>2026-04-06T14:15:56Z</time></trkpt><trkpt lat="40.100248561937896" lon="8.496200738835492"><ele>52.0</ele><time>2026-04-06T14:15:57Z</time></trkpt><trkpt lat="40.1003530452554" lon="8.496249878672105"><ele>51.0</ele><time>2026-04-06T14:15:58Z</time></trkpt><trkpt lat="40.10045574890463" lon="8.496279242853742"><ele>50.0</ele><time>2026-04-06T14:15:59Z</time></trkpt><trkpt lat="40.10056164029707" lon="8.496291453937875"><ele>49.0</ele><time>2026-04-06T14:16:00Z</time></trkpt><trkpt lat="40.100665924841124" lon="8.496287275708472"><ele>48.0</ele><time>2026-04-06T14:16:01Z</time></trkpt><trkpt lat="40.10076451315479" lon="8.496264522599855"><ele>46.199999999999996</ele><time>2026-04-06T14:16:02Z</time></trkpt><trkpt lat="40.10085854938074" lon="8.496217260158714"><ele>44.4</ele><time>2026-04-06T14:16:03Z</time></trkpt><trkpt lat="40.10094282570672" lon="8.496150542151089"><ele>42.599999999999994</ele><time>2026-04-06T14:16:04Z</time></trkpt><trkpt lat="40.10099758042791" lon="8.4960551897873"><ele>40.8</ele><time>2026-04-06T14:16:05Z</time></trkpt><trkpt lat="40.10103268761248" lon="8.495944870620464"><ele>39.0</ele><time>2026-04-06T14:16:06Z</time></trkpt><trkpt lat="40.10105062557415" lon="8.495834306806158"><ele>39.0</ele><time>2026-04-06T14:16:07Z</time></trkpt><trkpt lat="40.101054217370596" lon="8.495727803783346"><ele>39.0</ele><time>2026-04-06T14:16:08Z</time></trkpt><trkpt lat="40.10104238284631" lon="8.49562323878674"><ele>39.0</ele><time>2026-04-06T14:16:09Z</time></trkpt><trkpt lat="40.10102124627951" lon="8.495522146165909"><ele>39.0</ele><time>2026-04-06T14:16:10Z</time></trkpt><trkpt lat="40.10099046161671" lon="8.495411714142842"><ele>39.0</ele><time>2026-04-06T14:16:11Z</time></trkpt><trkpt lat="40.10095644582312" lon="8.495284282454943"><ele>39.0</ele><time>2026-04-06T14:16:12Z</time></trkpt><trkpt lat="40.10091971036852" lon="8.495144670289857"><ele>39.25</ele><time>2026-04-06T14:16:13Z</time></trkpt><trkpt lat="40.10087794898616" lon="8.49499339990173"><ele>39.5</ele><time>2026-04-06T14:16:14Z</time></trkpt><trkpt lat="40.100829884516685" lon="8.494832589657173"><ele>39.75</ele><time>2026-04-06T14:16:15Z</time></trkpt><trkpt lat="40.100784881963214" lon="8.494679397825589"><ele>40.0</ele><time>2026-04-06T14:16:16Z</time></trkpt><trkpt lat="40.100744573542215" lon="8.494536669669975"><ele>40.0</ele><time>2026-04-06T14:16:17Z</time></trkpt><trkpt lat="40.10070789887568" lon="8.494407819540585"><ele>40.0</ele><time>2026-04-06T14:16:18Z</time></trkpt><trkpt lat="40.100674635161845" lon="8.494293881187042"><ele>40.0</ele><time>2026-04-06T14:16:19Z</time></trkpt><trkpt lat="40.10064903075406" lon="8.494207075095465"><ele>40.0</ele><time>2026-04-06T14:16:20Z</time></trkpt><trkpt lat="40.100639741205036" lon="8.494059796994538"><ele>40.0</ele><time>2026-04-06T14:16:22Z</time></trkpt><trkpt lat="40.10073685624878" lon="8.49395140281365"><ele>37.6</ele><time>2026-04-06T14:16:24Z</time></trkpt><trkpt lat="40.100805818817655" lon="8.493944241946412"><ele>35.2</ele><time>2026-04-06T14:16:25Z</time></trkpt><trkpt lat="40.10088147311277" lon="8.49395331394966"><ele>32.8</ele><time>2026-04-06T14:16:26Z</time></trkpt><trkpt lat="40.100963593850246" lon="8.493958947496825"><ele>30.4</ele><time>2026-04-06T14:16:27Z</time></trkpt><trkpt lat="40.10106144193151" lon="8.4939498191267"><ele>28.0</ele><time>2026-04-06T14:16:28Z</time></trkpt><trkpt lat="40.10118485120645" lon="8.49393289283958"><ele>28.0</ele><time>2026-04-06T14:16:29Z</time></trkpt><trkpt lat="40.10131008548262" lon="8.4939062777116"><ele>28.0</ele><time>2026-04-06T14:16:30Z</time></trkpt><trkpt lat="40.10143561027017" lon="8.493861850493069"><ele>28.0</ele><time>2026-04-06T14:16:31Z</time></trkpt><trkpt lat="40.101543718914016" lon="8.493792903788366"><ele>28.0</ele><time>2026-04-06T14:16:32Z</time></trkpt><trkpt lat="40.101646419543535" lon="8.49370550428432"><ele>27.5</ele><time>2026-04-06T14:16:33Z</time></trkpt><trkpt lat="40.10175778741976" lon="8.493613713011031"><ele>27.0</ele><time>2026-04-06T14:16:34Z</time></trkpt><trkpt lat="40.10186368748644" lon="8.493486993196257"><ele>26.5</ele><time>2026-04-06T14:16:35Z</time></trkpt><trkpt lat="40.10196269989655" lon="8.493336486841029"><ele>26.0</ele><time>2026-04-06T14:16:36Z</time></trkpt><trkpt lat="40.102054500931445" lon="8.493196178544261"><ele>26.0</ele><time>2026-04-06T14:16:37Z</time></trkpt><trkpt lat="40.102143720509254" lon="8.493068147696489"><ele>26.0</ele><time>2026-04-06T14:16:38Z</time></trkpt><trkpt lat="40.10223170709799" lon="8.492951679357878"><ele>26.0</ele><time>2026-04-06T14:16:39Z</time></trkpt><trkpt lat="40.102315438945816" lon="8.492839049467763"><ele>26.0</ele><time>2026-04-06T14:16:40Z</time></trkpt><trkpt lat="40.10239309407242" lon="8.492735196545556"><ele>23.2</ele><time>2026-04-06T14:16:41Z</time></trkpt><trkpt lat="40.10246451788999" lon="8.492640203779658"><ele>20.400000000000002</ele><time>2026-04-06T14:16:42Z</time></trkpt><trkpt lat="40.10253508640317" lon="8.492550879306835"><ele>17.6</ele><time>2026-04-06T14:16:43Z</time></trkpt><trkpt lat="40.10261911001084" lon="8.492495293106256"><ele>14.8</ele><time>2026-04-06T14:16:44Z</time></trkpt><trkpt lat="40.10270173710622" lon="8.492447341763812"><ele>12.0</ele><time>2026-04-06T14:16:45Z</time></trkpt><trkpt lat="40.10278596495313" lon="8.492400705343007"><ele>12.0</ele><time>2026-04-06T14:16:46Z</time></trkpt><trkpt lat="40.1028765882754" lon="8.492386210958054"><ele>12.0</ele><time>2026-04-06T14:16:47Z</time></trkpt><trkpt lat="40.10296827530539" lon="8.49237371263571"><ele>12.0</ele><time>2026-04-06T14:16:48Z</time></trkpt><trkpt lat="40.103067217186585" lon="8.492359092501683"><ele>12.0</ele><time>2026-04-06T14:16:49Z</time></trkpt><trkpt lat="40.10316680714184" lon="8.49234354907549"><ele>12.0</ele><time>2026-04-06T14:16:50Z</time></trkpt><trkpt lat="40.10327115854159" lon="8.492328537174698"><ele>11.2</ele><time>2026-04-06T14:16:51Z</time></trkpt><trkpt lat="40.10338166975887" lon="8.492317261706217"><ele>10.399999999999999</ele><time>2026-04-06T14:16:52Z</time></trkpt><trkpt lat="40.10349683654942" lon="8.49230179770958"><ele>9.600000000000001</ele><time>2026-04-06T14:16:53Z</time></trkpt><trkpt lat="40.10360335405104" lon="8.492284374992087"><ele>8.8</ele><time>2026-04-06T14:16:54Z</time></trkpt><trkpt lat="40.10368278756708" lon="8.492265454450987"><ele>8.0</ele><time>2026-04-06T14:16:55Z</time></trkpt><trkpt lat="40.103751481790354" lon="8.492241825581448"><ele>7.999999999999999</ele><time>2026-04-06T14:16:56Z</time></trkpt><trkpt lat="40.103834140797595" lon="8.492180389398255"><ele>8.0</ele><time>2026-04-06T14:16:58Z</time></trkpt><trkpt lat="40.1039056211552" lon="8.49208811192633"><ele>8.0</ele><time>2026-04-06T14:17:00Z</time></trkpt><trkpt lat="40.103948403106585" lon="8.492022874825741"><ele>8.0</ele><time>2026-04-06T14:17:01Z</time></trkpt><trkpt lat="40.1039866360168" lon="8.491946355497177"><ele>7.999999999999999</ele><time>2026-04-06T14:17:02Z</time></trkpt><trkpt lat="40.104039542240706" lon="8.491871819211582"><ele>8.0</ele><time>2026-04-06T14:17:03Z</time></trkpt><trkpt lat="40.10409227677929" lon="8.491801774460043"><ele>8.166666666666666</ele><time>2026-04-06T14:17:04Z</time></trkpt><trkpt lat="40.10413301736471" lon="8.49173503391545"><ele>8.333333333333332</ele><time>2026-04-06T14:17:05Z</time></trkpt><trkpt lat="40.10417947878407" lon="8.491665193387755"><ele>8.5</ele><time>2026-04-06T14:17:06Z</time></trkpt><trkpt lat="40.104228740936726" lon="8.491595442666942"><ele>8.666666666666666</ele><time>2026-04-06T14:17:07Z</time></trkpt><trkpt lat="40.10427735309748" lon="8.491530151747927"><ele>8.833333333333334</ele><time>2026-04-06T14:17:08Z</time></trkpt><trkpt lat="40.10436870970466" lon="8.491443985760382"><ele>9.0</ele><time>2026-04-06T14:17:10Z</time></trkpt><trkpt lat="40.10442166952277" lon="8.491391746810852"><ele>9.0</ele><time>2026-04-06T14:17:11Z</time></trkpt><trkpt lat="40.10448500191455" lon="8.491333086824348"><ele>9.0</ele><time>2026-04-06T14:17:12Z</time></trkpt><trkpt lat="40.104561651376336" lon="8.491273132063446"><ele>9.0</ele><time>2026-04-06T14:17:13Z</time></trkpt><trkpt lat="40.10463912191488" lon="8.491221964567696"><ele>9.0</ele><time>2026-04-06T14:17:14Z</time></trkpt><trkpt lat="40.104715420316424" lon="8.491172932978907"><ele>9.0</ele><time>2026-04-06T14:17:15Z</time></trkpt><trkpt lat="40.10479698603617" lon="8.491118850378957"><ele>9.0</ele><time>2026-04-06T14:17:16Z</time></trkpt><trkpt lat="40.10488263952908" lon="8.491062353593392"><ele>8.2</ele><time>2026-04-06T14:17:17Z</time></trkpt><trkpt lat="40.10497028326401" lon="8.491007754910589"><ele>7.4</ele><time>2026-04-06T14:17:18Z</time></trkpt><trkpt lat="40.10506279480029" lon="8.490949322198329"><ele>6.6</ele><time>2026-04-06T14:17:19Z</time></trkpt><trkpt lat="40.10515218633685" lon="8.49089378596806"><ele>5.8</ele><time>2026-04-06T14:17:20Z</time></trkpt><trkpt lat="40.10523985009021" lon="8.49083698079551"><ele>5.0</ele><time>2026-04-06T14:17:21Z</time></trkpt><trkpt lat="40.10533224566918" lon="8.490783060122444"><ele>5.0</ele><time>2026-04-06T14:17:22Z</time></trkpt><trkpt lat="40.10541991587384" lon="8.490730494604854"><ele>5.0</ele><time>2026-04-06T14:17:23Z</time></trkpt><trkpt lat="40.10551152370889" lon="8.49067757512552"><ele>5.0</ele><time>2026-04-06T14:17:24Z</time></trkpt><trkpt lat="40.10560282579718" lon="8.490623172206554"><ele>5.0</ele><time>2026-04-06T14:17:25Z</time></trkpt><trkpt lat="40.105699497109725" lon="8.490569748142562"><ele>5.0</ele><time>2026-04-06T14:17:26Z</time></trkpt><trkpt lat="40.105806616717466" lon="8.490521766686962"><ele>5.25</ele><time>2026-04-06T14:17:27Z</time></trkpt><trkpt lat="40.10592103850372" lon="8.490486195382882"><ele>5.5</ele><time>2026-04-06T14:17:28Z</time></trkpt><trkpt lat="40.10606184785119" lon="8.490469333326208"><ele>5.75</ele><time>2026-04-06T14:17:29Z</time></trkpt><trkpt lat="40.10620279609482" lon="8.490472690203282"><ele>6.0</ele><time>2026-04-06T14:17:30Z</time></trkpt><trkpt lat="40.10635593332577" lon="8.49057151823576"><ele>6.0</ele><time>2026-04-06T14:17:31Z</time></trkpt><trkpt lat="40.10652732678634" lon="8.490675482160798"><ele>6.0</ele><time>2026-04-06T14:17:32Z</time></trkpt><trkpt lat="40.106722414467804" lon="8.490782431146423"><ele>6.0</ele><time>2026-04-06T14:17:33Z</time></trkpt><trkpt lat="40.106892717556846" lon="8.490912012069204"><ele>9.333333333333332</ele><time>2026-04-06T14:17:34Z</time></trkpt><trkpt lat="40.10707864954474" lon="8.491013137525075"><ele>12.666666666666666</ele><time>2026-04-06T14:17:35Z</time></trkpt><trkpt lat="40.107268392681114" lon="8.491137282552339"><ele>16.0</ele><time>2026-04-06T14:17:36Z</time></trkpt><trkpt lat="40.1074361753751" lon="8.49124701103049"><ele>16.75</ele><time>2026-04-06T14:17:37Z</time></trkpt><trkpt lat="40.10758015762617" lon="8.491333965187673"><ele>17.5</ele><time>2026-04-06T14:17:38Z</time></trkpt><trkpt lat="40.107700244258346" lon="8.491394355920564"><ele>18.25</ele><time>2026-04-06T14:17:39Z</time></trkpt><trkpt lat="40.10781458204095" lon="8.491434339365075"><ele>19.0</ele><time>2026-04-06T14:17:40Z</time></trkpt><trkpt lat="40.107944525510625" lon="8.491444503318247"><ele>19.0</ele><time>2026-04-06T14:17:41Z</time></trkpt><trkpt lat="40.10807746242931" lon="8.491439347665494"><ele>19.0</ele><time>2026-04-06T14:17:42Z</time></trkpt><trkpt lat="40.10822547382343" lon="8.49140144211673"><ele>19.0</ele><time>2026-04-06T14:17:43Z</time></trkpt><trkpt lat="40.10836983170262" lon="8.491344448931846"><ele>19.0</ele><time>2026-04-06T14:17:44Z</time></trkpt><trkpt lat="40.10849976226252" lon="8.491287798937929"><ele>22.0</ele><time>2026-04-06T14:17:45Z</time></trkpt><trkpt lat="40.10862380151454" lon="8.491239891999463"><ele>25.0</ele><time>2026-04-06T14:17:46Z</time></trkpt><trkpt lat="40.108755132714904" lon="8.491190268160667"><ele>28.0</ele><time>2026-04-06T14:17:47.001Z</time></trkpt><trkpt lat="40.10888855932953" lon="8.491134932198353"><ele>31.0</ele><time>2026-04-06T14:17:48.001Z</time></trkpt><trkpt lat="40.109026612487284" lon="8.491078097244658"><ele>31.25</ele><time>2026-04-06T14:17:49.001Z</time></trkpt><trkpt lat="40.10916801729664" lon="8.491017527600716"><ele>31.5</ele><time>2026-04-06T14:17:50.001Z</time></trkpt><trkpt lat="40.10931056065153" lon="8.490955579089714"><ele>31.75</ele><time>2026-04-06T14:17:51.001Z</time></trkpt><trkpt lat="40.10945303150774" lon="8.4908945059576"><ele>32.0</ele><time>2026-04-06T14:17:52.001Z</time></trkpt><trkpt lat="40.10959322597239" lon="8.490838141806405"><ele>32.0</ele><time>2026-04-06T14:17:53.001Z</time></trkpt><trkpt lat="40.109732366475676" lon="8.490785278767417"><ele>32.0</ele><time>2026-04-06T14:17:54.001Z</time></trkpt><trkpt lat="40.10986813149376" lon="8.490733327317198"><ele>32.0</ele><time>2026-04-06T14:17:55.001Z</time></trkpt><trkpt lat="40.10998861090606" lon="8.490684484186051"><ele>32.0</ele><time>2026-04-06T14:17:56.001Z</time></trkpt><trkpt lat="40.11011885786249" lon="8.490634349374233"><ele>32.666666666666664</ele><time>2026-04-06T14:17:57.001Z</time></trkpt><trkpt lat="40.11025941295461" lon="8.490585532713688"><ele>33.333333333333336</ele><time>2026-04-06T14:17:58.001Z</time></trkpt><trkpt lat="40.110414228367475" lon="8.49051927141022"><ele>34.0</ele><time>2026-04-06T14:17:59.001Z</time></trkpt><trkpt lat="40.110575376650615" lon="8.4904491776221"><ele>34.66666666666667</ele><time>2026-04-06T14:18:00.001Z</time></trkpt><trkpt lat="40.11073752180726" lon="8.490384343132291"><ele>35.333333333333336</ele><time>2026-04-06T14:18:01.001Z</time></trkpt><trkpt lat="40.11089848018102" lon="8.490322088033057"><ele>36.0</ele><time>2026-04-06T14:18:02.001Z</time></trkpt><trkpt lat="40.111043364232145" lon="8.490264273284582"><ele>36.25</ele><time>2026-04-06T14:18:03.001Z</time></trkpt><trkpt lat="40.11117575508504" lon="8.490213026172981"><ele>36.5</ele><time>2026-04-06T14:18:04.001Z</time></trkpt><trkpt lat="40.11129892018047" lon="8.490165319405337"><ele>36.75</ele><time>2026-04-06T14:18:05.001Z</time></trkpt><trkpt lat="40.111426144536985" lon="8.490116087211051"><ele>37.0</ele><time>2026-04-06T14:18:06.001Z</time></trkpt><trkpt lat="40.111556691089575" lon="8.49006495093933"><ele>38.5</ele><time>2026-04-06T14:18:07.001Z</time></trkpt><trkpt lat="40.11168545025297" lon="8.490012263709664"><ele>40.0</ele><time>2026-04-06T14:18:08.001Z</time></trkpt><trkpt lat="40.11181773988185" lon="8.489957978769686"><ele>41.5</ele><time>2026-04-06T14:18:09.001Z</time></trkpt><trkpt lat="40.11195878825537" lon="8.48990121066399"><ele>43.0</ele><time>2026-04-06T14:18:10.001Z</time></trkpt><trkpt lat="40.1121118422333" lon="8.489841194979892"><ele>43.0</ele><time>2026-04-06T14:18:11.001Z</time></trkpt><trkpt lat="40.112275340918956" lon="8.489775381111452"><ele>43.0</ele><time>2026-04-06T14:18:12.001Z</time></trkpt><trkpt lat="40.112446433409474" lon="8.489704059159607"><ele>43.0</ele><time>2026-04-06T14:18:13.001Z</time></trkpt><trkpt lat="40.112624389454716" lon="8.489630945877899"><ele>44.66666666666667</ele><time>2026-04-06T14:18:14.001Z</time></trkpt><trkpt lat="40.112800550073" lon="8.489557772233258"><ele>46.333333333333336</ele><time>2026-04-06T14:18:15.001Z</time></trkpt><trkpt lat="40.11297828660125" lon="8.489489717215898"><ele>48.0</ele><time>2026-04-06T14:18:16.001Z</time></trkpt><trkpt lat="40.11314874574037" lon="8.48942958228447"><ele>48.5</ele><time>2026-04-06T14:18:17.001Z</time></trkpt><trkpt lat="40.11330110610365" lon="8.489378795187587"><ele>49.0</ele><time>2026-04-06T14:18:18.001Z</time></trkpt><trkpt lat="40.11344109033091" lon="8.489345990708363"><ele>49.5</ele><time>2026-04-06T14:18:19.001Z</time></trkpt><trkpt lat="40.11357703597389" lon="8.489343600229583"><ele>50.0</ele><time>2026-04-06T14:18:20.001Z</time></trkpt><trkpt lat="40.11372130456062" lon="8.48936965127146"><ele>50.0</ele><time>2026-04-06T14:18:21.001Z</time></trkpt><trkpt lat="40.113870942788225" lon="8.489422470716242"><ele>50.0</ele><time>2026-04-06T14:18:22.001Z</time></trkpt><trkpt lat="40.114025959217294" lon="8.489490021382522"><ele>50.0</ele><time>2026-04-06T14:18:23.001Z</time></trkpt><trkpt lat="40.11418087838252" lon="8.489558072552379"><ele>52.333333333333336</ele><time>2026-04-06T14:18:24.001Z</time></trkpt><trkpt lat="40.114343226803314" lon="8.489623978970759"><ele>54.66666666666667</ele><time>2026-04-06T14:18:25.001Z</time></trkpt><trkpt lat="40.1145097959246" lon="8.489688909408946"><ele>57.0</ele><time>2026-04-06T14:18:26.001Z</time></trkpt><trkpt lat="40.1146828162733" lon="8.489756213498108"><ele>57.0</ele><time>2026-04-06T14:18:27.001Z</time></trkpt><trkpt lat="40.114862064350135" lon="8.489830202076345"><ele>57.0</ele><time>2026-04-06T14:18:28.001Z</time></trkpt><trkpt lat="40.115060117062036" lon="8.489913902460271"><ele>57.0</ele><time>2026-04-06T14:18:29.001Z</time></trkpt><trkpt lat="40.11527261573008" lon="8.490001740519716"><ele>57.0</ele><time>2026-04-06T14:18:30.001Z</time></trkpt><trkpt lat="40.11549297710175" lon="8.490094154234773"><ele>57.0</ele><time>2026-04-06T14:18:31.001Z</time></trkpt><trkpt lat="40.115695907774025" lon="8.490179634420599"><ele>57.0</ele><time>2026-04-06T14:18:32.001Z</time></trkpt><trkpt lat="40.11589788756175" lon="8.49026101825366"><ele>57.66666666666667</ele><time>2026-04-06T14:18:33.001Z</time></trkpt><trkpt lat="40.11610162818638" lon="8.490342584871994"><ele>58.333333333333336</ele><time>2026-04-06T14:18:34.001Z</time></trkpt><trkpt lat="40.11630302121532" lon="8.490424895677823"><ele>59.0</ele><time>2026-04-06T14:18:35.001Z</time></trkpt><trkpt lat="40.116496811354295" lon="8.490503089116999"><ele>60.333333333333336</ele><time>2026-04-06T14:18:36.001Z</time></trkpt><trkpt lat="40.11669340599599" lon="8.490583222824844"><ele>61.66666666666667</ele><time>2026-04-06T14:18:37.001Z</time></trkpt><trkpt lat="40.11689257737038" lon="8.490663770327927"><ele>63.0</ele><time>2026-04-06T14:18:38.001Z</time></trkpt><trkpt lat="40.117082313488936" lon="8.490743091704834"><ele>63.0</ele><time>2026-04-06T14:18:39.001Z</time></trkpt><trkpt lat="40.1172771076502" lon="8.490825871971522"><ele>63.0</ele><time>2026-04-06T14:18:40.001Z</time></trkpt><trkpt lat="40.11747345666913" lon="8.49090814744147"><ele>63.0</ele><time>2026-04-06T14:18:41.001Z</time></trkpt><trkpt lat="40.117672316260794" lon="8.490989731405623"><ele>63.0</ele><time>2026-04-06T14:18:42.001Z</time></trkpt><trkpt lat="40.11787878064705" lon="8.491076072591737"><ele>63.0</ele><time>2026-04-06T14:18:43.001Z</time></trkpt><trkpt lat="40.118083997958024" lon="8.49116152482445"><ele>63.0</ele><time>2026-04-06T14:18:44.001Z</time></trkpt><trkpt lat="40.11829362110136" lon="8.491267699582348"><ele>65.0</ele><time>2026-04-06T14:18:45.001Z</time></trkpt><trkpt lat="40.11852649989114" lon="8.49136444957298"><ele>67.0</ele><time>2026-04-06T14:18:46.001Z</time></trkpt><trkpt lat="40.118772159751735" lon="8.491466507692914"><ele>67.0</ele><time>2026-04-06T14:18:47.001Z</time></trkpt><trkpt lat="40.11902883541225" lon="8.49157314249215"><ele>67.0</ele><time>2026-04-06T14:18:48.001Z</time></trkpt><trkpt lat="40.11929505533795" lon="8.491683960986837"><ele>67.5</ele><time>2026-04-06T14:18:49.001Z</time></trkpt><trkpt lat="40.11957221551727" lon="8.491778980075344"><ele>68.0</ele><time>2026-04-06T14:18:50.001Z</time></trkpt><trkpt lat="40.11985379669676" lon="8.49190106569529"><ele>69.5</ele><time>2026-04-06T14:18:51.001Z</time></trkpt><trkpt lat="40.12013516501436" lon="8.492017309458781"><ele>71.0</ele><time>2026-04-06T14:18:52.001Z</time></trkpt><trkpt lat="40.120402698334495" lon="8.492124627331838"><ele>72.0</ele><time>2026-04-06T14:18:53.001Z</time></trkpt><trkpt lat="40.12068133526641" lon="8.492237578753324"><ele>73.0</ele><time>2026-04-06T14:18:54.001Z</time></trkpt><trkpt lat="40.12096762082269" lon="8.492355920903268"><ele>74.5</ele><time>2026-04-06T14:18:55.001Z</time></trkpt><trkpt lat="40.12125479631078" lon="8.4924773452215"><ele>76.0</ele><time>2026-04-06T14:18:56.001Z</time></trkpt><trkpt lat="40.1215431211859" lon="8.49259501090015"><ele>77.0</ele><time>2026-04-06T14:18:57.001Z</time></trkpt><trkpt lat="40.1218264160971" lon="8.49273330449868"><ele>78.0</ele><time>2026-04-06T14:18:58.001Z</time></trkpt><trkpt lat="40.12211043627282" lon="8.492851625007694"><ele>79.5</ele><time>2026-04-06T14:18:59.001Z</time></trkpt><trkpt lat="40.12240269225498" lon="8.492972370329216"><ele>81.0</ele><time>2026-04-06T14:19:00.001Z</time></trkpt><trkpt lat="40.12270519274311" lon="8.493096716726782"><ele>81.0</ele><time>2026-04-06T14:19:01.001Z</time></trkpt><trkpt lat="40.123010037274426" lon="8.493223821903952"><ele>81.0</ele><time>2026-04-06T14:19:02.001Z</time></trkpt><trkpt lat="40.12331713865223" lon="8.493352096806033"><ele>82.5</ele><time>2026-04-06T14:19:03.001Z</time></trkpt><trkpt lat="40.12360106254431" lon="8.493450913607749"><ele>84.0</ele><time>2026-04-06T14:19:04.001Z</time></trkpt><trkpt lat="40.123855340075885" lon="8.493556125788546"><ele>84.5</ele><time>2026-04-06T14:19:05.001Z</time></trkpt><trkpt lat="40.1240929904242" lon="8.493655257913492"><ele>85.0</ele><time>2026-04-06T14:19:06.001Z</time></trkpt><trkpt lat="40.12432481509456" lon="8.493756780908575"><ele>85.5</ele><time>2026-04-06T14:19:07.001Z</time></trkpt><trkpt lat="40.12456302818284" lon="8.493857715589897"><ele>86.0</ele><time>2026-04-06T14:19:08.001Z</time></trkpt><trkpt lat="40.12480363965659" lon="8.493954950649005"><ele>86.0</ele><time>2026-04-06T14:19:09.001Z</time></trkpt><trkpt lat="40.12504156599491" lon="8.494050286280453"><ele>86.0</ele><time>2026-04-06T14:19:10.001Z</time></trkpt><trkpt lat="40.12527950121125" lon="8.494148197299157"><ele>86.0</ele><time>2026-04-06T14:19:11.001Z</time></trkpt><trkpt lat="40.12550520578696" lon="8.49424015213154"><ele>86.0</ele><time>2026-04-06T14:19:12.001Z</time></trkpt><trkpt lat="40.12572127631656" lon="8.49435265326358"><ele>87.5</ele><time>2026-04-06T14:19:13.001Z</time></trkpt><trkpt lat="40.125945321134694" lon="8.494445917828065"><ele>89.0</ele><time>2026-04-06T14:19:14.001Z</time></trkpt><trkpt lat="40.126172009066764" lon="8.494540282628302"><ele>87.5</ele><time>2026-04-06T14:19:15.001Z</time></trkpt><trkpt lat="40.12639951555331" lon="8.494634988192054"><ele>86.0</ele><time>2026-04-06T14:19:16.001Z</time></trkpt><trkpt lat="40.126635001139356" lon="8.494710715227374"><ele>89.0</ele><time>2026-04-06T14:19:17.001Z</time></trkpt><trkpt lat="40.12686095518058" lon="8.494827074590269"><ele>92.0</ele><time>2026-04-06T14:19:18.001Z</time></trkpt><trkpt lat="40.12708891732424" lon="8.494921969849992"><ele>92.0</ele><time>2026-04-06T14:19:19.001Z</time></trkpt><trkpt lat="40.12731593446207" lon="8.495016471706258"><ele>92.0</ele><time>2026-04-06T14:19:20.001Z</time></trkpt><trkpt lat="40.12754597299506" lon="8.495112231267328"><ele>94.0</ele><time>2026-04-06T14:19:21.001Z</time></trkpt><trkpt lat="40.127786151412735" lon="8.495190065777585"><ele>96.0</ele><time>2026-04-06T14:19:22.001Z</time></trkpt><trkpt lat="40.12802849467816" lon="8.49529242224042"><ele>96.5</ele><time>2026-04-06T14:19:23.001Z</time></trkpt><trkpt lat="40.128274496852384" lon="8.49539694266416"><ele>97.0</ele><time>2026-04-06T14:19:24.001Z</time></trkpt><trkpt lat="40.12851024957234" lon="8.495497061076476"><ele>98.0</ele><time>2026-04-06T14:19:25.001Z</time></trkpt><trkpt lat="40.128740427245944" lon="8.495593544158067"><ele>99.0</ele><time>2026-04-06T14:19:26.001Z</time></trkpt><trkpt lat="40.12897555307486" lon="8.49569132431096"><ele>100.0</ele><time>2026-04-06T14:19:27.001Z</time></trkpt><trkpt lat="40.12920397993804" lon="8.495782172557474"><ele>101.0</ele><time>2026-04-06T14:19:28.001Z</time></trkpt><trkpt lat="40.12943963804202" lon="8.495878955347626"><ele>101.0</ele><time>2026-04-06T14:19:29.001Z</time></trkpt><trkpt lat="40.12966651338933" lon="8.49597416417336"><ele>101.0</ele><time>2026-04-06T14:19:30.001Z</time></trkpt><trkpt lat="40.12989725637645" lon="8.496071244774813"><ele>102.5</ele><time>2026-04-06T14:19:31.001Z</time></trkpt><trkpt lat="40.13013016809753" lon="8.49617120933807"><ele>104.0</ele><time>2026-04-06T14:19:32.001Z</time></trkpt><trkpt lat="40.13036448414066" lon="8.496272548463317"><ele>105.0</ele><time>2026-04-06T14:19:33.001Z</time></trkpt><trkpt lat="40.130596393404225" lon="8.496368276556272"><ele>106.0</ele><time>2026-04-06T14:19:34.001Z</time></trkpt><trkpt lat="40.13082886283187" lon="8.496461503218395"><ele>106.66666666666667</ele><time>2026-04-06T14:19:35.001Z</time></trkpt><trkpt lat="40.131039215026284" lon="8.496545080788866"><ele>107.33333333333334</ele><time>2026-04-06T14:19:36.001Z</time></trkpt><trkpt lat="40.13123953663729" lon="8.496628109239941"><ele>108.0</ele><time>2026-04-06T14:19:37.001Z</time></trkpt><trkpt lat="40.13143597378317" lon="8.496714030902794"><ele>108.66666666666666</ele><time>2026-04-06T14:19:38.001Z</time></trkpt><trkpt lat="40.131629371809616" lon="8.496814752533812"><ele>109.33333333333333</ele><time>2026-04-06T14:19:39.001Z</time></trkpt><trkpt lat="40.131816465622165" lon="8.496930104417983"><ele>110.0</ele><time>2026-04-06T14:19:40.001Z</time></trkpt><trkpt lat="40.131990080368745" lon="8.497079295090487"><ele>110.66666666666666</ele><time>2026-04-06T14:19:41.001Z</time></trkpt><trkpt lat="40.13214293816268" lon="8.497255198295225"><ele>111.33333333333334</ele><time>2026-04-06T14:19:42.001Z</time></trkpt><trkpt lat="40.132285141249696" lon="8.497461699652998"><ele>112.0</ele><time>2026-04-06T14:19:43.001Z</time></trkpt><trkpt lat="40.132406517636156" lon="8.497699164070955"><ele>113.0</ele><time>2026-04-06T14:19:44.001Z</time></trkpt><trkpt lat="40.13252045207858" lon="8.497938509373402"><ele>114.0</ele><time>2026-04-06T14:19:45.001Z</time></trkpt><trkpt lat="40.132642229763945" lon="8.498181824478245"><ele>115.0</ele><time>2026-04-06T14:19:46.001Z</time></trkpt><trkpt lat="40.13276559078722" lon="8.498424026248118"><ele>115.0</ele><time>2026-04-06T14:19:47.001Z</time></trkpt><trkpt lat="40.13289023865494" lon="8.498671076572311"><ele>115.0</ele><time>2026-04-06T14:19:48.001Z</time></trkpt><trkpt lat="40.13301568013393" lon="8.498921707794162"><ele>116.0</ele><time>2026-04-06T14:19:49.001Z</time></trkpt><trkpt lat="40.13313885522191" lon="8.499171777989213"><ele>117.0</ele><time>2026-04-06T14:19:50.001Z</time></trkpt><trkpt lat="40.13326757100113" lon="8.499428667554545"><ele>119.5</ele><time>2026-04-06T14:19:51.001Z</time></trkpt><trkpt lat="40.13339731712268" lon="8.499690383125923"><ele>122.0</ele><time>2026-04-06T14:19:52.001Z</time></trkpt><trkpt lat="40.133528318283716" lon="8.499949644266168"><ele>122.0</ele><time>2026-04-06T14:19:53.001Z</time></trkpt><trkpt lat="40.133665035184485" lon="8.500212147974322"><ele>122.0</ele><time>2026-04-06T14:19:54.001Z</time></trkpt><trkpt lat="40.13380241039966" lon="8.500477393403047"><ele>122.0</ele><time>2026-04-06T14:19:55.001Z</time></trkpt><trkpt lat="40.13393884155974" lon="8.500747478537363"><ele>122.0</ele><time>2026-04-06T14:19:56.001Z</time></trkpt><trkpt lat="40.134073224493505" lon="8.501015563656575"><ele>124.5</ele><time>2026-04-06T14:19:57.001Z</time></trkpt><trkpt lat="40.13420957542231" lon="8.50128659859673"><ele>127.0</ele><time>2026-04-06T14:19:58.001Z</time></trkpt><trkpt lat="40.13434730691462" lon="8.501553791536043"><ele>127.0</ele><time>2026-04-06T14:19:59.001Z</time></trkpt><trkpt lat="40.13448114783178" lon="8.501812758182671"><ele>127.0</ele><time>2026-04-06T14:20:00.001Z</time></trkpt><trkpt lat="40.134614386006355" lon="8.502071039406562"><ele>127.5</ele><time>2026-04-06T14:20:01.001Z</time></trkpt><trkpt lat="40.13474613906137" lon="8.502327626295365"><ele>128.0</ele><time>2026-04-06T14:20:02.001Z</time></trkpt><trkpt lat="40.13487267072821" lon="8.502584376335648"><ele>130.0</ele><time>2026-04-06T14:20:03.001Z</time></trkpt><trkpt lat="40.1350030159559" lon="8.50284425762235"><ele>132.0</ele><time>2026-04-06T14:20:04Z</time></trkpt><trkpt lat="40.13513152429563" lon="8.503096919968712"><ele>133.0</ele><time>2026-04-06T14:20:05Z</time></trkpt><trkpt lat="40.13526501588905" lon="8.503355362711709"><ele>134.0</ele><time>2026-04-06T14:20:06Z</time></trkpt><trkpt lat="40.135394547836896" lon="8.503611411608071"><ele>133.5</ele><time>2026-04-06T14:20:07Z</time></trkpt><trkpt lat="40.135522099780204" lon="8.503865978576943"><ele>133.0</ele><time>2026-04-06T14:20:08Z</time></trkpt><trkpt lat="40.13565135453601" lon="8.504124102028706"><ele>134.5</ele><time>2026-04-06T14:20:09Z</time></trkpt><trkpt lat="40.135781184581454" lon="8.504381491154822"><ele>136.0</ele><time>2026-04-06T14:20:10Z</time></trkpt><trkpt lat="40.13591088700426" lon="8.504637261103047"><ele>137.5</ele><time>2026-04-06T14:20:11Z</time></trkpt><trkpt lat="40.13604289447784" lon="8.504895844065954"><ele>139.0</ele><time>2026-04-06T14:20:12Z</time></trkpt><trkpt lat="40.136174817792266" lon="8.505152817593784"><ele>139.0</ele><time>2026-04-06T14:20:13Z</time></trkpt><trkpt lat="40.13630683260364" lon="8.505409063815746"><ele>139.0</ele><time>2026-04-06T14:20:14Z</time></trkpt><trkpt lat="40.136438445544634" lon="8.505667354563949"><ele>141.0</ele><time>2026-04-06T14:20:15Z</time></trkpt><trkpt lat="40.13656811011686" lon="8.505928184556579"><ele>143.0</ele><time>2026-04-06T14:20:16.001Z</time></trkpt><trkpt lat="40.13669874475072" lon="8.506186815052528"><ele>143.5</ele><time>2026-04-06T14:20:17.001Z</time></trkpt><trkpt lat="40.13683219045701" lon="8.506448843794645"><ele>144.0</ele><time>2026-04-06T14:20:18.001Z</time></trkpt><trkpt lat="40.13696227723714" lon="8.506705169219469"><ele>144.0</ele><time>2026-04-06T14:20:19.001Z</time></trkpt><trkpt lat="40.1370924653796" lon="8.506964106416488"><ele>144.0</ele><time>2026-04-06T14:20:20.001Z</time></trkpt><trkpt lat="40.1372249653258" lon="8.507222635951624"><ele>144.0</ele><time>2026-04-06T14:20:21.001Z</time></trkpt><trkpt lat="40.13735789803554" lon="8.507479877326807"><ele>144.0</ele><time>2026-04-06T14:20:22.001Z</time></trkpt><trkpt lat="40.137489434179834" lon="8.507739862896493"><ele>146.5</ele><time>2026-04-06T14:20:23.001Z</time></trkpt><trkpt lat="40.13761967664725" lon="8.507996941735447"><ele>149.0</ele><time>2026-04-06T14:20:24.001Z</time></trkpt><trkpt lat="40.13775089441267" lon="8.508253403411326"><ele>149.0</ele><time>2026-04-06T14:20:25.001Z</time></trkpt><trkpt lat="40.137879281048555" lon="8.508508038019428"><ele>149.0</ele><time>2026-04-06T14:20:26.001Z</time></trkpt><trkpt lat="40.1380088310576" lon="8.50876514889736"><ele>147.0</ele><time>2026-04-06T14:20:27.001Z</time></trkpt><trkpt lat="40.138139797454514" lon="8.509022533457069"><ele>145.0</ele><time>2026-04-06T14:20:28.001Z</time></trkpt><trkpt lat="40.13827211556704" lon="8.509279556583802"><ele>150.0</ele><time>2026-04-06T14:20:29.001Z</time></trkpt><trkpt lat="40.1384039352261" lon="8.509539306891815"><ele>155.0</ele><time>2026-04-06T14:20:30.001Z</time></trkpt><trkpt lat="40.1385310082895" lon="8.509795496027255"><ele>155.0</ele><time>2026-04-06T14:20:31.001Z</time></trkpt><trkpt lat="40.13866163456959" lon="8.510053487242265"><ele>155.0</ele><time>2026-04-06T14:20:32.001Z</time></trkpt><trkpt lat="40.138793567344024" lon="8.510311986805716"><ele>153.0</ele><time>2026-04-06T14:20:33.001Z</time></trkpt><trkpt lat="40.1389270031108" lon="8.510571243674441"><ele>151.0</ele><time>2026-04-06T14:20:34.001Z</time></trkpt><trkpt lat="40.139061951754144" lon="8.510831755819796"><ele>156.0</ele><time>2026-04-06T14:20:35.001Z</time></trkpt><trkpt lat="40.13919531653925" lon="8.511096708414485"><ele>161.0</ele><time>2026-04-06T14:20:36.001Z</time></trkpt><trkpt lat="40.13932811096721" lon="8.51136108639623"><ele>161.0</ele><time>2026-04-06T14:20:37.001Z</time></trkpt><trkpt lat="40.13946216973318" lon="8.51162532998368"><ele>161.0</ele><time>2026-04-06T14:20:38.001Z</time></trkpt><trkpt lat="40.139597082819364" lon="8.511892867919851"><ele>159.0</ele><time>2026-04-06T14:20:39.001Z</time></trkpt><trkpt lat="40.139730127624766" lon="8.512159413906613"><ele>157.0</ele><time>2026-04-06T14:20:40.001Z</time></trkpt><trkpt lat="40.13986786313998" lon="8.51242964344648"><ele>164.0</ele><time>2026-04-06T14:20:41.001Z</time></trkpt><trkpt lat="40.14000501896196" lon="8.512695828319233"><ele>171.0</ele><time>2026-04-06T14:20:42.001Z</time></trkpt><trkpt lat="40.14014052507616" lon="8.51296014581458"><ele>172.5</ele><time>2026-04-06T14:20:43.001Z</time></trkpt><trkpt lat="40.140275498477315" lon="8.513224964183285"><ele>174.0</ele><time>2026-04-06T14:20:44.001Z</time></trkpt><trkpt lat="40.14040829042267" lon="8.513485763354586"><ele>174.5</ele><time>2026-04-06T14:20:45.001Z</time></trkpt><trkpt lat="40.14054234229691" lon="8.513745672594673"><ele>175.0</ele><time>2026-04-06T14:20:46.001Z</time></trkpt><trkpt lat="40.14067294158305" lon="8.514002237929766"><ele>177.5</ele><time>2026-04-06T14:20:47.001Z</time></trkpt><trkpt lat="40.14080199276491" lon="8.514261643780701"><ele>180.0</ele><time>2026-04-06T14:20:48.001Z</time></trkpt><trkpt lat="40.14093368704352" lon="8.514525683893167"><ele>181.33333333333334</ele><time>2026-04-06T14:20:49.001Z</time></trkpt><trkpt lat="40.141061290425796" lon="8.514780332370952"><ele>182.66666666666669</ele><time>2026-04-06T14:20:50.001Z</time></trkpt><trkpt lat="40.14118500895685" lon="8.515012483128322"><ele>184.0</ele><time>2026-04-06T14:20:51.001Z</time></trkpt><trkpt lat="40.14128625891188" lon="8.515248386329008"><ele>185.5</ele><time>2026-04-06T14:20:52.001Z</time></trkpt><trkpt lat="40.14141089261988" lon="8.515494016034657"><ele>187.0</ele><time>2026-04-06T14:20:53.001Z</time></trkpt><trkpt lat="40.141544760118926" lon="8.515757843600676"><ele>187.5</ele><time>2026-04-06T14:20:54Z</time></trkpt><trkpt lat="40.14168302564408" lon="8.516030339015538"><ele>188.0</ele><time>2026-04-06T14:20:55Z</time></trkpt><trkpt lat="40.14182402808254" lon="8.516308228421988"><ele>190.0</ele><time>2026-04-06T14:20:56Z</time></trkpt><trkpt lat="40.14197559438068" lon="8.51658686172996"><ele>192.0</ele><time>2026-04-06T14:20:57Z</time></trkpt><trkpt lat="40.14211992427885" lon="8.51687743214885"><ele>194.5</ele><time>2026-04-06T14:20:58Z</time></trkpt><trkpt lat="40.142269651346595" lon="8.517171994791985"><ele>197.0</ele><time>2026-04-06T14:20:59Z</time></trkpt><trkpt lat="40.14242015310077" lon="8.51746518595213"><ele>198.0</ele><time>2026-04-06T14:21:00Z</time></trkpt><trkpt lat="40.14257208666428" lon="8.517763517701425"><ele>199.0</ele><time>2026-04-06T14:21:01Z</time></trkpt><trkpt lat="40.142723902101864" lon="8.518061534630501"><ele>200.5</ele><time>2026-04-06T14:21:02Z</time></trkpt><trkpt lat="40.142875559481936" lon="8.51835770455493"><ele>202.0</ele><time>2026-04-06T14:21:03Z</time></trkpt><trkpt lat="40.14302191091884" lon="8.51864131105668"><ele>203.5</ele><time>2026-04-06T14:21:04Z</time></trkpt><trkpt lat="40.14316572062774" lon="8.518923768707944"><ele>205.0</ele><time>2026-04-06T14:21:05Z</time></trkpt><trkpt lat="40.14330552698275" lon="8.519204107213804"><ele>205.0</ele><time>2026-04-06T14:21:06Z</time></trkpt><trkpt lat="40.14344350025335" lon="8.519479216719144"><ele>205.0</ele><time>2026-04-06T14:21:07Z</time></trkpt><trkpt lat="40.14358088516057" lon="8.519753243252142"><ele>208.0</ele><time>2026-04-06T14:21:08Z</time></trkpt><trkpt lat="40.143717903422015" lon="8.520023184949833"><ele>211.0</ele><time>2026-04-06T14:21:09Z</time></trkpt><trkpt lat="40.14385525697056" lon="8.520290785247761"><ele>213.0</ele><time>2026-04-06T14:21:10Z</time></trkpt><trkpt lat="40.1439931804581" lon="8.520559912954687"><ele>215.0</ele><time>2026-04-06T14:21:11Z</time></trkpt><trkpt lat="40.1441284871359" lon="8.520827149108559"><ele>216.5</ele><time>2026-04-06T14:21:12Z</time></trkpt><trkpt lat="40.14426297014722" lon="8.521095101983743"><ele>218.0</ele><time>2026-04-06T14:21:13Z</time></trkpt><trkpt lat="40.14439583589705" lon="8.521352726755923"><ele>219.5</ele><time>2026-04-06T14:21:14Z</time></trkpt><trkpt lat="40.144532125898166" lon="8.521630236733191"><ele>221.0</ele><time>2026-04-06T14:21:15Z</time></trkpt><trkpt lat="40.14466712910685" lon="8.521892464505399"><ele>223.5</ele><time>2026-04-06T14:21:16Z</time></trkpt><trkpt lat="40.14480268017917" lon="8.522159031079385"><ele>226.0</ele><time>2026-04-06T14:21:17Z</time></trkpt><trkpt lat="40.144930054694825" lon="8.522417745168696"><ele>226.33333333333331</ele><time>2026-04-06T14:21:18Z</time></trkpt><trkpt lat="40.14504984602195" lon="8.522653721111654"><ele>226.66666666666669</ele><time>2026-04-06T14:21:19Z</time></trkpt><trkpt lat="40.14516097086409" lon="8.52287366245633"><ele>227.0</ele><time>2026-04-06T14:21:20Z</time></trkpt><trkpt lat="40.14526736316128" lon="8.523080046430673"><ele>228.33333333333334</ele><time>2026-04-06T14:21:21Z</time></trkpt><trkpt lat="40.14536329181326" lon="8.523288859289734"><ele>229.66666666666669</ele><time>2026-04-06T14:21:22Z</time></trkpt><trkpt lat="40.145467024728646" lon="8.523490621520407"><ele>231.0</ele><time>2026-04-06T14:21:23Z</time></trkpt><trkpt lat="40.14563957522629" lon="8.523609018968138"><ele>233.0</ele><time>2026-04-06T14:21:24Z</time></trkpt><trkpt lat="40.145797112511346" lon="8.523730380809411"><ele>235.0</ele><time>2026-04-06T14:21:25Z</time></trkpt><trkpt lat="40.14597129192769" lon="8.52381887847119"><ele>237.0</ele><time>2026-04-06T14:21:26Z</time></trkpt><trkpt lat="40.146158453868125" lon="8.523880085875177"><ele>237.0</ele><time>2026-04-06T14:21:27Z</time></trkpt><trkpt lat="40.146355692305896" lon="8.523928378580145"><ele>237.0</ele><time>2026-04-06T14:21:28Z</time></trkpt><trkpt lat="40.146557723805195" lon="8.523979040022704"><ele>237.0</ele><time>2026-04-06T14:21:29Z</time></trkpt><trkpt lat="40.1467649922884" lon="8.524034612584105"><ele>237.33333333333331</ele><time>2026-04-06T14:21:30Z</time></trkpt><trkpt lat="40.14697724075104" lon="8.524093289143226"><ele>237.66666666666666</ele><time>2026-04-06T14:21:31Z</time></trkpt><trkpt lat="40.14718986766139" lon="8.52415074791885"><ele>238.0</ele><time>2026-04-06T14:21:32Z</time></trkpt><trkpt lat="40.14740673491964" lon="8.524210008372796"><ele>238.0</ele><time>2026-04-06T14:21:33Z</time></trkpt><trkpt lat="40.14762474566334" lon="8.52426865631033"><ele>238.0</ele><time>2026-04-06T14:21:34Z</time></trkpt><trkpt lat="40.14783979971425" lon="8.52432924107"><ele>238.0</ele><time>2026-04-06T14:21:35Z</time></trkpt><trkpt lat="40.14805619329284" lon="8.52438754856536"><ele>237.0</ele><time>2026-04-06T14:21:36Z</time></trkpt><trkpt lat="40.14825861222546" lon="8.524443139675695"><ele>236.0</ele><time>2026-04-06T14:21:37Z</time></trkpt><trkpt lat="40.1484570181038" lon="8.524496743870836"><ele>235.0</ele><time>2026-04-06T14:21:38Z</time></trkpt><trkpt lat="40.14865265750668" lon="8.524549542281294"><ele>236.33333333333331</ele><time>2026-04-06T14:21:39Z</time></trkpt><trkpt lat="40.148846817301965" lon="8.524602217175934"><ele>237.66666666666669</ele><time>2026-04-06T14:21:40Z</time></trkpt><trkpt lat="40.149037168646274" lon="8.524650702840708"><ele>239.0</ele><time>2026-04-06T14:21:41Z</time></trkpt><trkpt lat="40.14923459563109" lon="8.524700912292023"><ele>239.0</ele><time>2026-04-06T14:21:42Z</time></trkpt><trkpt lat="40.14942572162775" lon="8.524751975822202"><ele>239.0</ele><time>2026-04-06T14:21:43Z</time></trkpt><trkpt lat="40.14961658490047" lon="8.524803759226533"><ele>239.0</ele><time>2026-04-06T14:21:44Z</time></trkpt><trkpt lat="40.14981271626787" lon="8.524857734255345"><ele>239.0</ele><time>2026-04-06T14:21:45Z</time></trkpt><trkpt lat="40.15001120268854" lon="8.52491281452703"><ele>239.0</ele><time>2026-04-06T14:21:46Z</time></trkpt><trkpt lat="40.15021537095444" lon="8.52497084847448"><ele>239.0</ele><time>2026-04-06T14:21:47Z</time></trkpt><trkpt lat="40.15042473666316" lon="8.525029684264952"><ele>239.0</ele><time>2026-04-06T14:21:48Z</time></trkpt><trkpt lat="40.15063853758139" lon="8.52508838720858"><ele>239.0</ele><time>2026-04-06T14:21:49Z</time></trkpt><trkpt lat="40.15085329236806" lon="8.525146730317683"><ele>239.0</ele><time>2026-04-06T14:21:50Z</time></trkpt><trkpt lat="40.15107498556814" lon="8.525205670692735"><ele>238.5</ele><time>2026-04-06T14:21:51Z</time></trkpt><trkpt lat="40.15129230608198" lon="8.525263297728408"><ele>238.0</ele><time>2026-04-06T14:21:52Z</time></trkpt><trkpt lat="40.151517383238954" lon="8.525319831789593"><ele>238.0</ele><time>2026-04-06T14:21:53Z</time></trkpt><trkpt lat="40.15174444104317" lon="8.525380535535929"><ele>238.0</ele><time>2026-04-06T14:21:54Z</time></trkpt><trkpt lat="40.151968342725176" lon="8.525446691276539"><ele>237.66666666666666</ele><time>2026-04-06T14:21:55Z</time></trkpt><trkpt lat="40.15218961552851" lon="8.525509452050525"><ele>237.33333333333331</ele><time>2026-04-06T14:21:56Z</time></trkpt><trkpt lat="40.15239546272989" lon="8.525563252065897"><ele>237.0</ele><time>2026-04-06T14:21:57Z</time></trkpt><trkpt lat="40.15260453161889" lon="8.525621823605611"><ele>237.0</ele><time>2026-04-06T14:21:58Z</time></trkpt><trkpt lat="40.1528104357858" lon="8.525679655420513"><ele>237.0</ele><time>2026-04-06T14:21:59Z</time></trkpt><trkpt lat="40.153018035234" lon="8.525740900594315"><ele>237.0</ele><time>2026-04-06T14:22:00Z</time></trkpt><trkpt lat="40.15323098433281" lon="8.52579967836497"><ele>236.0</ele><time>2026-04-06T14:22:01Z</time></trkpt><trkpt lat="40.15344818321986" lon="8.525854209876458"><ele>235.0</ele><time>2026-04-06T14:22:02Z</time></trkpt><trkpt lat="40.153672032042756" lon="8.525910044755923"><ele>234.0</ele><time>2026-04-06T14:22:03Z</time></trkpt><trkpt lat="40.15389273337474" lon="8.52596811493077"><ele>237.0</ele><time>2026-04-06T14:22:04Z</time></trkpt><trkpt lat="40.154118572005665" lon="8.526029259035337"><ele>240.0</ele><time>2026-04-06T14:22:05Z</time></trkpt><trkpt lat="40.154346441820586" lon="8.52609326937905"><ele>240.0</ele><time>2026-04-06T14:22:06Z</time></trkpt><trkpt lat="40.15457460782515" lon="8.526153326113809"><ele>240.0</ele><time>2026-04-06T14:22:07Z</time></trkpt><trkpt lat="40.15480801159995" lon="8.526210979203034"><ele>243.0</ele><time>2026-04-06T14:22:08Z</time></trkpt><trkpt lat="40.15504216541284" lon="8.526269526663382"><ele>246.0</ele><time>2026-04-06T14:22:09Z</time></trkpt><trkpt lat="40.15527881442144" lon="8.526333532645724"><ele>246.0</ele><time>2026-04-06T14:22:10Z</time></trkpt><trkpt lat="40.15551171080953" lon="8.526403213005569"><ele>246.0</ele><time>2026-04-06T14:22:11Z</time></trkpt><trkpt lat="40.155744831833815" lon="8.526473474261852"><ele>244.5</ele><time>2026-04-06T14:22:12Z</time></trkpt><trkpt lat="40.15597832592542" lon="8.526539694004809"><ele>243.0</ele><time>2026-04-06T14:22:13Z</time></trkpt><trkpt lat="40.15620790037542" lon="8.526603082004943"><ele>247.0</ele><time>2026-04-06T14:22:14Z</time></trkpt><trkpt lat="40.15666128982125" lon="8.526728558345777"><ele>247.0</ele><time>2026-04-06T14:22:16Z</time></trkpt><trkpt lat="40.15688070668867" lon="8.52678662005864"><ele>247.0</ele><time>2026-04-06T14:22:17Z</time></trkpt><trkpt lat="40.15709025907474" lon="8.526842727028923"><ele>247.0</ele><time>2026-04-06T14:22:18Z</time></trkpt><trkpt lat="40.157299923670216" lon="8.526898779677838"><ele>248.66666666666666</ele><time>2026-04-06T14:22:19Z</time></trkpt><trkpt lat="40.157510881881755" lon="8.526956404177305"><ele>250.33333333333331</ele><time>2026-04-06T14:22:20Z</time></trkpt><trkpt lat="40.15772443734551" lon="8.52701377646023"><ele>252.0</ele><time>2026-04-06T14:22:21Z</time></trkpt><trkpt lat="40.15794318359192" lon="8.52706938590803"><ele>255.0</ele><time>2026-04-06T14:22:22Z</time></trkpt><trkpt lat="40.15816844412025" lon="8.527129263120495"><ele>258.0</ele><time>2026-04-06T14:22:23Z</time></trkpt><trkpt lat="40.15839516463974" lon="8.527190933524086"><ele>259.5</ele><time>2026-04-06T14:22:24Z</time></trkpt><trkpt lat="40.15862783628885" lon="8.527253396414343"><ele>261.0</ele><time>2026-04-06T14:22:25Z</time></trkpt><trkpt lat="40.15886091394027" lon="8.527314147350666"><ele>262.0</ele><time>2026-04-06T14:22:26Z</time></trkpt><trkpt lat="40.159100475694835" lon="8.527376634006183"><ele>263.0</ele><time>2026-04-06T14:22:27Z</time></trkpt><trkpt lat="40.15934090724225" lon="8.527440731599366"><ele>263.0</ele><time>2026-04-06T14:22:28Z</time></trkpt><trkpt lat="40.159584714333754" lon="8.527504731098759"><ele>263.0</ele><time>2026-04-06T14:22:29Z</time></trkpt><trkpt lat="40.159830025101975" lon="8.5275715564355"><ele>264.0</ele><time>2026-04-06T14:22:30Z</time></trkpt><trkpt lat="40.160077409377635" lon="8.527639846043703"><ele>265.0</ele><time>2026-04-06T14:22:31Z</time></trkpt><trkpt lat="40.16032069580699" lon="8.527708421919279"><ele>265.0</ele><time>2026-04-06T14:22:32Z</time></trkpt><trkpt lat="40.16056580677837" lon="8.527778096791394"><ele>265.0</ele><time>2026-04-06T14:22:33Z</time></trkpt><trkpt lat="40.16080972258097" lon="8.527844181795713"><ele>269.0</ele><time>2026-04-06T14:22:34Z</time></trkpt><trkpt lat="40.16105261152662" lon="8.527908128949"><ele>273.0</ele><time>2026-04-06T14:22:35Z</time></trkpt><trkpt lat="40.161295329111425" lon="8.52797288495764"><ele>273.0</ele><time>2026-04-06T14:22:36Z</time></trkpt><trkpt lat="40.16154005223934" lon="8.528037858965096"><ele>273.0</ele><time>2026-04-06T14:22:37Z</time></trkpt><trkpt lat="40.16178943523365" lon="8.528103677201566"><ele>273.0</ele><time>2026-04-06T14:22:38Z</time></trkpt><trkpt lat="40.16203065253059" lon="8.528166744664304"><ele>273.0</ele><time>2026-04-06T14:22:39Z</time></trkpt><trkpt lat="40.16226007910235" lon="8.528227093150168"><ele>270.5</ele><time>2026-04-06T14:22:40Z</time></trkpt><trkpt lat="40.16248873717221" lon="8.528287858569762"><ele>268.0</ele><time>2026-04-06T14:22:41Z</time></trkpt><trkpt lat="40.16271883099866" lon="8.528354070075395"><ele>268.0</ele><time>2026-04-06T14:22:42Z</time></trkpt><trkpt lat="40.162948696345275" lon="8.52841607929457"><ele>268.0</ele><time>2026-04-06T14:22:43Z</time></trkpt><trkpt lat="40.16318483608037" lon="8.528477295249346"><ele>266.5</ele><time>2026-04-06T14:22:44Z</time></trkpt><trkpt lat="40.16342120148601" lon="8.528536820111393"><ele>265.0</ele><time>2026-04-06T14:22:45Z</time></trkpt><trkpt lat="40.16365974376564" lon="8.52859879241569"><ele>265.0</ele><time>2026-04-06T14:22:46Z</time></trkpt><trkpt lat="40.16389555263891" lon="8.528663090624578"><ele>265.0</ele><time>2026-04-06T14:22:47Z</time></trkpt><trkpt lat="40.16412688948176" lon="8.528726731878397"><ele>266.5</ele><time>2026-04-06T14:22:48Z</time></trkpt><trkpt lat="40.16435516242015" lon="8.528785462928553"><ele>268.0</ele><time>2026-04-06T14:22:49Z</time></trkpt><trkpt lat="40.16458440214926" lon="8.52884580143611"><ele>268.0</ele><time>2026-04-06T14:22:50Z</time></trkpt><trkpt lat="40.164798545333014" lon="8.52890412673248"><ele>268.0</ele><time>2026-04-06T14:22:51Z</time></trkpt><trkpt lat="40.16500863470061" lon="8.528958344387583"><ele>268.0</ele><time>2026-04-06T14:22:52Z</time></trkpt><trkpt lat="40.165212871294905" lon="8.529009082620194"><ele>268.0</ele><time>2026-04-06T14:22:53Z</time></trkpt><trkpt lat="40.16541946908627" lon="8.529085905220349"><ele>268.0</ele><time>2026-04-06T14:22:54Z</time></trkpt><trkpt lat="40.16562677709218" lon="8.529142836526692"><ele>268.0</ele><time>2026-04-06T14:22:55Z</time></trkpt><trkpt lat="40.165834704373474" lon="8.529199177836878"><ele>267.66666666666663</ele><time>2026-04-06T14:22:56Z</time></trkpt><trkpt lat="40.166037563110486" lon="8.529253400341169"><ele>267.3333333333333</ele><time>2026-04-06T14:22:57Z</time></trkpt><trkpt lat="40.16622604271079" lon="8.52930377941275"><ele>267.0</ele><time>2026-04-06T14:22:58Z</time></trkpt><trkpt lat="40.1664050521976" lon="8.529330835969919"><ele>267.0</ele><time>2026-04-06T14:22:59Z</time></trkpt><trkpt lat="40.1665766233439" lon="8.529378766219484"><ele>267.0</ele><time>2026-04-06T14:23:00Z</time></trkpt><trkpt lat="40.166737143707564" lon="8.529424427165033"><ele>267.0</ele><time>2026-04-06T14:23:01Z</time></trkpt><trkpt lat="40.16688921763349" lon="8.529466490795528"><ele>267.0</ele><time>2026-04-06T14:23:02Z</time></trkpt><trkpt lat="40.16704669521716" lon="8.529511473901309"><ele>267.0</ele><time>2026-04-06T14:23:03Z</time></trkpt><trkpt lat="40.16720912214507" lon="8.529563061548362"><ele>267.0</ele><time>2026-04-06T14:23:04Z</time></trkpt><trkpt lat="40.16736946901245" lon="8.52962123711411"><ele>268.3333333333333</ele><time>2026-04-06T14:23:05Z</time></trkpt><trkpt lat="40.16752915093812" lon="8.529692146832124"><ele>269.66666666666663</ele><time>2026-04-06T14:23:06Z</time></trkpt><trkpt lat="40.16768410325876" lon="8.529776702676081"><ele>271.0</ele><time>2026-04-06T14:23:07Z</time></trkpt><trkpt lat="40.167837279385786" lon="8.529875389895158"><ele>271.0</ele><time>2026-04-06T14:23:08Z</time></trkpt><trkpt lat="40.167982363311985" lon="8.529972416997419"><ele>271.0</ele><time>2026-04-06T14:23:09Z</time></trkpt><trkpt lat="40.16811413620305" lon="8.530061092620466"><ele>271.0</ele><time>2026-04-06T14:23:10Z</time></trkpt><trkpt lat="40.16823403769841" lon="8.530141983824127"><ele>271.0</ele><time>2026-04-06T14:23:11Z</time></trkpt><trkpt lat="40.16834811630645" lon="8.530220068957368"><ele>270.5</ele><time>2026-04-06T14:23:12Z</time></trkpt><trkpt lat="40.16846299775466" lon="8.530302309235614"><ele>270.0</ele><time>2026-04-06T14:23:13Z</time></trkpt><trkpt lat="40.16859488730632" lon="8.530392775835761"><ele>269.5</ele><time>2026-04-06T14:23:14Z</time></trkpt><trkpt lat="40.16873595955193" lon="8.530487518587224"><ele>269.0</ele><time>2026-04-06T14:23:15Z</time></trkpt><trkpt lat="40.168876748631824" lon="8.530586317134269"><ele>270.0</ele><time>2026-04-06T14:23:16Z</time></trkpt><trkpt lat="40.169016223031306" lon="8.53068169552776"><ele>271.0</ele><time>2026-04-06T14:23:17Z</time></trkpt><trkpt lat="40.16915431312572" lon="8.530776003311985"><ele>272.0</ele><time>2026-04-06T14:23:18Z</time></trkpt><trkpt lat="40.169284581300204" lon="8.530890196031267"><ele>272.0</ele><time>2026-04-06T14:23:19Z</time></trkpt><trkpt lat="40.169422541232734" lon="8.530985390609606"><ele>272.0</ele><time>2026-04-06T14:23:20Z</time></trkpt><trkpt lat="40.16956837363393" lon="8.53108627608755"><ele>272.0</ele><time>2026-04-06T14:23:21Z</time></trkpt><trkpt lat="40.16971845039703" lon="8.531167838249592"><ele>272.5</ele><time>2026-04-06T14:23:22Z</time></trkpt><trkpt lat="40.16984714554183" lon="8.531257941081734"><ele>273.0</ele><time>2026-04-06T14:23:23Z</time></trkpt><trkpt lat="40.16997171560513" lon="8.531344188850543"><ele>273.5</ele><time>2026-04-06T14:23:24Z</time></trkpt><trkpt lat="40.17010165530059" lon="8.531432342769767"><ele>274.0</ele><time>2026-04-06T14:23:25Z</time></trkpt><trkpt lat="40.170241495283236" lon="8.531526389066194"><ele>274.0</ele><time>2026-04-06T14:23:26Z</time></trkpt><trkpt lat="40.170385367285135" lon="8.531627123116255"><ele>274.0</ele><time>2026-04-06T14:23:27Z</time></trkpt><trkpt lat="40.17053975094421" lon="8.53173409726246"><ele>274.0</ele><time>2026-04-06T14:23:28Z</time></trkpt><trkpt lat="40.170692643629046" lon="8.53183994106714"><ele>274.0</ele><time>2026-04-06T14:23:29Z</time></trkpt><trkpt lat="40.1708517568977" lon="8.53195396127347"><ele>274.0</ele><time>2026-04-06T14:23:30Z</time></trkpt><trkpt lat="40.17100540685353" lon="8.532062426244732"><ele>274.0</ele><time>2026-04-06T14:23:31Z</time></trkpt><trkpt lat="40.171156474922746" lon="8.532168899493275"><ele>274.0</ele><time>2026-04-06T14:23:32Z</time></trkpt><trkpt lat="40.171312123510106" lon="8.532273154016996"><ele>274.0</ele><time>2026-04-06T14:23:33Z</time></trkpt><trkpt lat="40.17147096148279" lon="8.532377688549449"><ele>274.0</ele><time>2026-04-06T14:23:34Z</time></trkpt><trkpt lat="40.17163576873171" lon="8.532489063239773"><ele>273.66666666666663</ele><time>2026-04-06T14:23:35Z</time></trkpt><trkpt lat="40.17180213355497" lon="8.532602232072252"><ele>273.3333333333333</ele><time>2026-04-06T14:23:36Z</time></trkpt><trkpt lat="40.171957565774" lon="8.53270889554058"><ele>273.0</ele><time>2026-04-06T14:23:37Z</time></trkpt><trkpt lat="40.17209890643472" lon="8.532806876355657"><ele>274.0</ele><time>2026-04-06T14:23:38Z</time></trkpt><trkpt lat="40.17224343618405" lon="8.532906187261807"><ele>275.0</ele><time>2026-04-06T14:23:39Z</time></trkpt><trkpt lat="40.172392508553095" lon="8.533011968765862"><ele>276.0</ele><time>2026-04-06T14:23:40Z</time></trkpt><trkpt lat="40.17254707379778" lon="8.533117462594781"><ele>276.0</ele><time>2026-04-06T14:23:41Z</time></trkpt><trkpt lat="40.17270314525411" lon="8.533225110410749"><ele>276.0</ele><time>2026-04-06T14:23:42Z</time></trkpt><trkpt lat="40.17285754621877" lon="8.53333343345968"><ele>276.0</ele><time>2026-04-06T14:23:43Z</time></trkpt><trkpt lat="40.17300337759381" lon="8.533431551916301"><ele>276.0</ele><time>2026-04-06T14:23:44Z</time></trkpt><trkpt lat="40.173149905674684" lon="8.533527833359773"><ele>276.0</ele><time>2026-04-06T14:23:45Z</time></trkpt><trkpt lat="40.17329680631611" lon="8.533625840456633"><ele>276.0</ele><time>2026-04-06T14:23:46Z</time></trkpt><trkpt lat="40.17344322330495" lon="8.53372728168806"><ele>278.0</ele><time>2026-04-06T14:23:47Z</time></trkpt><trkpt lat="40.173591573537564" lon="8.533829437878355"><ele>280.0</ele><time>2026-04-06T14:23:48Z</time></trkpt><trkpt lat="40.173747787573596" lon="8.53393551579108"><ele>282.0</ele><time>2026-04-06T14:23:49Z</time></trkpt><trkpt lat="40.17391337045851" lon="8.53404468376073"><ele>281.3333333333333</ele><time>2026-04-06T14:23:50Z</time></trkpt><trkpt lat="40.17407293900122" lon="8.534155631172926"><ele>280.66666666666663</ele><time>2026-04-06T14:23:51Z</time></trkpt><trkpt lat="40.17422663842074" lon="8.534262505270792"><ele>280.0</ele><time>2026-04-06T14:23:52Z</time></trkpt><trkpt lat="40.17437183819815" lon="8.53435637315808"><ele>280.0</ele><time>2026-04-06T14:23:53Z</time></trkpt><trkpt lat="40.174505450264625" lon="8.534444845453347"><ele>280.0</ele><time>2026-04-06T14:23:54Z</time></trkpt><trkpt lat="40.17464000760544" lon="8.534535592555725"><ele>280.0</ele><time>2026-04-06T14:23:55Z</time></trkpt><trkpt lat="40.17478171746687" lon="8.534631347295528"><ele>280.3333333333333</ele><time>2026-04-06T14:23:56Z</time></trkpt><trkpt lat="40.17492812034001" lon="8.53473054016761"><ele>280.6666666666667</ele><time>2026-04-06T14:23:57Z</time></trkpt><trkpt lat="40.17508391910726" lon="8.534834158206099"><ele>281.0</ele><time>2026-04-06T14:23:58Z</time></trkpt><trkpt lat="40.175233215561185" lon="8.534933501056571"><ele>281.0</ele><time>2026-04-06T14:23:59Z</time></trkpt><trkpt lat="40.17538224668548" lon="8.535031522154764"><ele>281.0</ele><time>2026-04-06T14:24:00Z</time></trkpt><trkpt lat="40.175521238194065" lon="8.535124245943983"><ele>281.0</ele><time>2026-04-06T14:24:01Z</time></trkpt><trkpt lat="40.175661208832935" lon="8.535214646989"><ele>280.0</ele><time>2026-04-06T14:24:02Z</time></trkpt><trkpt lat="40.1758100802447" lon="8.53531334893755"><ele>279.0</ele><time>2026-04-06T14:24:03Z</time></trkpt><trkpt lat="40.17596818028247" lon="8.53541777160895"><ele>278.0</ele><time>2026-04-06T14:24:04Z</time></trkpt><trkpt lat="40.176137631907565" lon="8.535522878875698"><ele>277.6666666666667</ele><time>2026-04-06T14:24:05Z</time></trkpt><trkpt lat="40.17631885637678" lon="8.535633256352343"><ele>277.3333333333333</ele><time>2026-04-06T14:24:06Z</time></trkpt><trkpt lat="40.176517192834204" lon="8.535765728252915"><ele>277.0</ele><time>2026-04-06T14:24:07Z</time></trkpt><trkpt lat="40.17671120845504" lon="8.535905889475709"><ele>277.0</ele><time>2026-04-06T14:24:08Z</time></trkpt><trkpt lat="40.17689040534615" lon="8.536032954581096"><ele>277.0</ele><time>2026-04-06T14:24:09Z</time></trkpt><trkpt lat="40.17706051091767" lon="8.536153141201122"><ele>277.0</ele><time>2026-04-06T14:24:10Z</time></trkpt><trkpt lat="40.17723001523196" lon="8.536270157043104"><ele>277.0</ele><time>2026-04-06T14:24:11Z</time></trkpt><trkpt lat="40.17740563956319" lon="8.536389720339931"><ele>277.0</ele><time>2026-04-06T14:24:12Z</time></trkpt><trkpt lat="40.17758422350472" lon="8.536508782098085"><ele>277.0</ele><time>2026-04-06T14:24:13Z</time></trkpt><trkpt lat="40.17775812927394" lon="8.536623497471137"><ele>277.0</ele><time>2026-04-06T14:24:14Z</time></trkpt><trkpt lat="40.17791687703549" lon="8.536729548498752"><ele>277.0</ele><time>2026-04-06T14:24:15Z</time></trkpt><trkpt lat="40.17806900419335" lon="8.536831792648446"><ele>277.0</ele><time>2026-04-06T14:24:16Z</time></trkpt><trkpt lat="40.1782200542478" lon="8.536932228328732"><ele>277.0</ele><time>2026-04-06T14:24:17Z</time></trkpt><trkpt lat="40.17836801908821" lon="8.537032010057338"><ele>277.0</ele><time>2026-04-06T14:24:18Z</time></trkpt><trkpt lat="40.17850472972179" lon="8.537124369115652"><ele>277.0</ele><time>2026-04-06T14:24:19Z</time></trkpt><trkpt lat="40.17862909910176" lon="8.537206230908817"><ele>277.0</ele><time>2026-04-06T14:24:20Z</time></trkpt><trkpt lat="40.178736338377874" lon="8.537300359172788"><ele>277.0</ele><time>2026-04-06T14:24:21Z</time></trkpt><trkpt lat="40.1788366577687" lon="8.537376560810412"><ele>277.0</ele><time>2026-04-06T14:24:22Z</time></trkpt><trkpt lat="40.17893287965063" lon="8.53745101816278"><ele>277.0</ele><time>2026-04-06T14:24:23Z</time></trkpt><trkpt lat="40.178992839057614" lon="8.537581901263817"><ele>277.0</ele><time>2026-04-06T14:24:24Z</time></trkpt><trkpt lat="40.17908594912145" lon="8.537699618684167"><ele>277.0</ele><time>2026-04-06T14:24:25Z</time></trkpt><trkpt lat="40.17917911986067" lon="8.537850408002171"><ele>277.0</ele><time>2026-04-06T14:24:26Z</time></trkpt><trkpt lat="40.179268517284434" lon="8.538028384410286"><ele>277.0</ele><time>2026-04-06T14:24:27Z</time></trkpt><trkpt lat="40.17937863415634" lon="8.538205037322914"><ele>277.0</ele><time>2026-04-06T14:24:28Z</time></trkpt><trkpt lat="40.17950071646816" lon="8.538400885611098"><ele>277.0</ele><time>2026-04-06T14:24:29Z</time></trkpt><trkpt lat="40.17964029206659" lon="8.538624485855031"><ele>277.0</ele><time>2026-04-06T14:24:30Z</time></trkpt><trkpt lat="40.17978734633485" lon="8.538859221394135"><ele>275.3333333333333</ele><time>2026-04-06T14:24:31Z</time></trkpt><trkpt lat="40.1799272792621" lon="8.5390825894908"><ele>273.6666666666667</ele><time>2026-04-06T14:24:32Z</time></trkpt><trkpt lat="40.180075098632386" lon="8.539298817919144"><ele>272.0</ele><time>2026-04-06T14:24:33Z</time></trkpt><trkpt lat="40.180219073446914" lon="8.539535804142082"><ele>273.5</ele><time>2026-04-06T14:24:34Z</time></trkpt><trkpt lat="40.18036724630954" lon="8.539772898477395"><ele>275.0</ele><time>2026-04-06T14:24:35Z</time></trkpt><trkpt lat="40.18067486376199" lon="8.540266591391823"><ele>274.5</ele><time>2026-04-06T14:24:37Z</time></trkpt><trkpt lat="40.180829912838426" lon="8.540518323976896"><ele>274.0</ele><time>2026-04-06T14:24:38Z</time></trkpt><trkpt lat="40.180980996284255" lon="8.540757897631488"><ele>274.0</ele><time>2026-04-06T14:24:39Z</time></trkpt><trkpt lat="40.1811306175405" lon="8.540990843061703"><ele>274.0</ele><time>2026-04-06T14:24:40Z</time></trkpt><trkpt lat="40.1812786202925" lon="8.541228118225131"><ele>275.0</ele><time>2026-04-06T14:24:41Z</time></trkpt><trkpt lat="40.181429256477855" lon="8.541475023132197"><ele>276.0</ele><time>2026-04-06T14:24:42Z</time></trkpt><trkpt lat="40.181580321181755" lon="8.541721504853486"><ele>276.0</ele><time>2026-04-06T14:24:43Z</time></trkpt><trkpt lat="40.18173331335689" lon="8.54196650388705"><ele>276.0</ele><time>2026-04-06T14:24:44Z</time></trkpt><trkpt lat="40.18188688701536" lon="8.542212778513136"><ele>279.0</ele><time>2026-04-06T14:24:45Z</time></trkpt><trkpt lat="40.1820383943587" lon="8.542456573280047"><ele>282.0</ele><time>2026-04-06T14:24:46Z</time></trkpt><trkpt lat="40.18218855081685" lon="8.542702142591184"><ele>285.0</ele><time>2026-04-06T14:24:47Z</time></trkpt><trkpt lat="40.18233871930767" lon="8.542945117199372"><ele>288.0</ele><time>2026-04-06T14:24:48Z</time></trkpt><trkpt lat="40.18248941452787" lon="8.543186232338213"><ele>288.0</ele><time>2026-04-06T14:24:49Z</time></trkpt><trkpt lat="40.182640391574196" lon="8.543432784091681"><ele>288.0</ele><time>2026-04-06T14:24:50Z</time></trkpt><trkpt lat="40.18279070512288" lon="8.543675988945665"><ele>291.5</ele><time>2026-04-06T14:24:51Z</time></trkpt><trkpt lat="40.18294337279916" lon="8.543918912725072"><ele>295.0</ele><time>2026-04-06T14:24:52Z</time></trkpt><trkpt lat="40.1830967100038" lon="8.544162017861826"><ele>296.0</ele><time>2026-04-06T14:24:53Z</time></trkpt><trkpt lat="40.18325242492716" lon="8.544402948610417"><ele>297.0</ele><time>2026-04-06T14:24:54Z</time></trkpt><trkpt lat="40.183404553351686" lon="8.544641409506395"><ele>299.5</ele><time>2026-04-06T14:24:55Z</time></trkpt><trkpt lat="40.18355314878182" lon="8.544879138233997"><ele>302.0</ele><time>2026-04-06T14:24:56Z</time></trkpt><trkpt lat="40.18369926215103" lon="8.545112019426735"><ele>302.0</ele><time>2026-04-06T14:24:57Z</time></trkpt><trkpt lat="40.18384257039212" lon="8.545342379086215"><ele>302.0</ele><time>2026-04-06T14:24:58Z</time></trkpt><trkpt lat="40.18398592287323" lon="8.545572162434127"><ele>305.0</ele><time>2026-04-06T14:24:59Z</time></trkpt><trkpt lat="40.18412856808554" lon="8.54580263474022"><ele>308.0</ele><time>2026-04-06T14:25:00Z</time></trkpt><trkpt lat="40.18427165080398" lon="8.546034874592378"><ele>310.33333333333337</ele><time>2026-04-06T14:25:01Z</time></trkpt><trkpt lat="40.1844115396371" lon="8.546263513662753"><ele>312.6666666666667</ele><time>2026-04-06T14:25:02Z</time></trkpt><trkpt lat="40.18455129048326" lon="8.54648798754503"><ele>315.0</ele><time>2026-04-06T14:25:03Z</time></trkpt><trkpt lat="40.18467599194438" lon="8.546686896520752"><ele>315.0</ele><time>2026-04-06T14:25:04Z</time></trkpt><trkpt lat="40.184794319931875" lon="8.546869898664971"><ele>315.0</ele><time>2026-04-06T14:25:05Z</time></trkpt><trkpt lat="40.184890992158664" lon="8.547025962936646"><ele>315.0</ele><time>2026-04-06T14:25:06Z</time></trkpt><trkpt lat="40.18495867349223" lon="8.547170227944548"><ele>315.75</ele><time>2026-04-06T14:25:07Z</time></trkpt><trkpt lat="40.185021444830866" lon="8.547304194210097"><ele>316.5</ele><time>2026-04-06T14:25:08Z</time></trkpt><trkpt lat="40.18506980423406" lon="8.54743533129709"><ele>317.25</ele><time>2026-04-06T14:25:09Z</time></trkpt><trkpt lat="40.185072755387964" lon="8.54760177062998"><ele>318.0</ele><time>2026-04-06T14:25:10Z</time></trkpt><trkpt lat="40.1851193949908" lon="8.547725402300957"><ele>317.0</ele><time>2026-04-06T14:25:11Z</time></trkpt><trkpt lat="40.1849991235417" lon="8.547991799674206"><ele>316.0</ele><time>2026-04-06T14:25:12Z</time></trkpt><trkpt lat="40.18496942986003" lon="8.548212600200165"><ele>315.0</ele><time>2026-04-06T14:25:13Z</time></trkpt><trkpt lat="40.18494312078568" lon="8.548436926679521"><ele>315.0</ele><time>2026-04-06T14:25:14Z</time></trkpt><trkpt lat="40.18491545750279" lon="8.548666061842598"><ele>315.0</ele><time>2026-04-06T14:25:15Z</time></trkpt><trkpt lat="40.18488434045127" lon="8.548897770137856"><ele>315.0</ele><time>2026-04-06T14:25:16Z</time></trkpt><trkpt lat="40.18485402519159" lon="8.549129949340758"><ele>316.6666666666667</ele><time>2026-04-06T14:25:17Z</time></trkpt><trkpt lat="40.184824490542844" lon="8.549345414888506"><ele>318.33333333333337</ele><time>2026-04-06T14:25:18Z</time></trkpt><trkpt lat="40.18478202846558" lon="8.549545322140224"><ele>320.0</ele><time>2026-04-06T14:25:19Z</time></trkpt><trkpt lat="40.18471404116365" lon="8.549736420760475"><ele>320.0</ele><time>2026-04-06T14:25:20Z</time></trkpt><trkpt lat="40.18462174651798" lon="8.549918897309999"><ele>320.0</ele><time>2026-04-06T14:25:21Z</time></trkpt><trkpt lat="40.18451528167649" lon="8.550078835073949"><ele>320.0</ele><time>2026-04-06T14:25:22Z</time></trkpt><trkpt lat="40.18440118478821" lon="8.550228290600757"><ele>320.0</ele><time>2026-04-06T14:25:23Z</time></trkpt><trkpt lat="40.18429026323807" lon="8.550361779592457"><ele>320.0</ele><time>2026-04-06T14:25:24Z</time></trkpt><trkpt lat="40.18418019663917" lon="8.550501181945204"><ele>320.0</ele><time>2026-04-06T14:25:25Z</time></trkpt><trkpt lat="40.18408387751332" lon="8.550662338419036"><ele>323.0</ele><time>2026-04-06T14:25:26Z</time></trkpt><trkpt lat="40.18401604172481" lon="8.550849412847676"><ele>326.0</ele><time>2026-04-06T14:25:27Z</time></trkpt><trkpt lat="40.183969403172156" lon="8.551054941684432"><ele>329.0</ele><time>2026-04-06T14:25:28Z</time></trkpt><trkpt lat="40.183931825681796" lon="8.551269827574083"><ele>330.0</ele><time>2026-04-06T14:25:29Z</time></trkpt><trkpt lat="40.183914368697934" lon="8.551486165992525"><ele>331.0</ele><time>2026-04-06T14:25:30Z</time></trkpt><trkpt lat="40.18391398647257" lon="8.551692027544542"><ele>332.0</ele><time>2026-04-06T14:25:31Z</time></trkpt><trkpt lat="40.18392169587877" lon="8.551893769952205"><ele>333.0</ele><time>2026-04-06T14:25:32Z</time></trkpt><trkpt lat="40.18395701252568" lon="8.552093864329002"><ele>334.0</ele><time>2026-04-06T14:25:33Z</time></trkpt><trkpt lat="40.18399535493801" lon="8.552278450778457"><ele>335.0</ele><time>2026-04-06T14:25:34Z</time></trkpt><trkpt lat="40.18400833213758" lon="8.55245649413464"><ele>336.0</ele><time>2026-04-06T14:25:35Z</time></trkpt><trkpt lat="40.183983705227675" lon="8.552653376175886"><ele>336.0</ele><time>2026-04-06T14:25:36Z</time></trkpt><trkpt lat="40.18394447029743" lon="8.55286383804612"><ele>336.0</ele><time>2026-04-06T14:25:37Z</time></trkpt><trkpt lat="40.183890925833" lon="8.55309408253741"><ele>336.0</ele><time>2026-04-06T14:25:38Z</time></trkpt><trkpt lat="40.183834445343464" lon="8.553338687477211"><ele>336.3333333333333</ele><time>2026-04-06T14:25:39Z</time></trkpt><trkpt lat="40.18377555515035" lon="8.553592995115613"><ele>336.66666666666663</ele><time>2026-04-06T14:25:40Z</time></trkpt><trkpt lat="40.18371412272814" lon="8.553859933853223"><ele>337.0</ele><time>2026-04-06T14:25:41Z</time></trkpt><trkpt lat="40.18365507899249" lon="8.554118688289256"><ele>335.66666666666663</ele><time>2026-04-06T14:25:42Z</time></trkpt><trkpt lat="40.18359762135722" lon="8.554381800776031"><ele>334.3333333333333</ele><time>2026-04-06T14:25:43Z</time></trkpt><trkpt lat="40.18354573898196" lon="8.554623529055505"><ele>333.0</ele><time>2026-04-06T14:25:44Z</time></trkpt><trkpt lat="40.18349577350046" lon="8.554861520917068"><ele>330.6666666666667</ele><time>2026-04-06T14:25:45Z</time></trkpt><trkpt lat="40.18345817239707" lon="8.555100403793821"><ele>328.33333333333337</ele><time>2026-04-06T14:25:46Z</time></trkpt><trkpt lat="40.183453957172894" lon="8.555347828207855"><ele>326.0</ele><time>2026-04-06T14:25:47Z</time></trkpt><trkpt lat="40.18348954384059" lon="8.555600595039653"><ele>324.33333333333337</ele><time>2026-04-06T14:25:48Z</time></trkpt><trkpt lat="40.183539676813474" lon="8.555853588433427"><ele>322.6666666666667</ele><time>2026-04-06T14:25:49Z</time></trkpt><trkpt lat="40.183585055289434" lon="8.556086851904233"><ele>321.0</ele><time>2026-04-06T14:25:50Z</time></trkpt><trkpt lat="40.18362109353296" lon="8.556302166187852"><ele>321.0</ele><time>2026-04-06T14:25:51Z</time></trkpt><trkpt lat="40.18364573687075" lon="8.556510235735018"><ele>321.0</ele><time>2026-04-06T14:25:52Z</time></trkpt><trkpt lat="40.18365467719351" lon="8.556716710922949"><ele>321.0</ele><time>2026-04-06T14:25:53Z</time></trkpt><trkpt lat="40.18362082138344" lon="8.556932444440337"><ele>320.0</ele><time>2026-04-06T14:25:54Z</time></trkpt><trkpt lat="40.18355478374193" lon="8.557142638487848"><ele>319.0</ele><time>2026-04-06T14:25:55Z</time></trkpt><trkpt lat="40.18347381312116" lon="8.55736210191593"><ele>318.0</ele><time>2026-04-06T14:25:56Z</time></trkpt><trkpt lat="40.183392338537494" lon="8.557582007761923"><ele>318.0</ele><time>2026-04-06T14:25:57Z</time></trkpt><trkpt lat="40.183307333374486" lon="8.557812804213905"><ele>318.0</ele><time>2026-04-06T14:25:58Z</time></trkpt><trkpt lat="40.1832239693307" lon="8.558056502913956"><ele>318.0</ele><time>2026-04-06T14:25:59Z</time></trkpt><trkpt lat="40.18313485293997" lon="8.558311209698495"><ele>322.3333333333333</ele><time>2026-04-06T14:26:00Z</time></trkpt><trkpt lat="40.18303831965656" lon="8.55856400506202"><ele>326.66666666666663</ele><time>2026-04-06T14:26:01Z</time></trkpt><trkpt lat="40.182935423258726" lon="8.558804722325446"><ele>331.0</ele><time>2026-04-06T14:26:02Z</time></trkpt><trkpt lat="40.18282820441972" lon="8.559019161543604"><ele>331.0</ele><time>2026-04-06T14:26:03Z</time></trkpt><trkpt lat="40.18273961487879" lon="8.559225421667284"><ele>331.0</ele><time>2026-04-06T14:26:04Z</time></trkpt><trkpt lat="40.182669149208664" lon="8.559449471859834"><ele>331.0</ele><time>2026-04-06T14:26:05Z</time></trkpt><trkpt lat="40.18262535885007" lon="8.559685699262175"><ele>328.66666666666663</ele><time>2026-04-06T14:26:06Z</time></trkpt><trkpt lat="40.1825909679578" lon="8.55993414552293"><ele>326.3333333333333</ele><time>2026-04-06T14:26:07Z</time></trkpt><trkpt lat="40.18256240795842" lon="8.560184722044442"><ele>324.0</ele><time>2026-04-06T14:26:08Z</time></trkpt><trkpt lat="40.18252837377814" lon="8.560410174214763"><ele>323.6666666666667</ele><time>2026-04-06T14:26:09Z</time></trkpt><trkpt lat="40.18249445158469" lon="8.560625573226348"><ele>323.33333333333337</ele><time>2026-04-06T14:26:10Z</time></trkpt><trkpt lat="40.18246873100932" lon="8.560839804309483"><ele>323.0</ele><time>2026-04-06T14:26:11Z</time></trkpt><trkpt lat="40.182451435328026" lon="8.561034167856677"><ele>324.0</ele><time>2026-04-06T14:26:12Z</time></trkpt><trkpt lat="40.18245123739413" lon="8.56121463635705"><ele>325.0</ele><time>2026-04-06T14:26:13Z</time></trkpt><trkpt lat="40.18246856518462" lon="8.561376227329873"><ele>326.0</ele><time>2026-04-06T14:26:14Z</time></trkpt><trkpt lat="40.182501958160714" lon="8.561513939030599"><ele>327.0</ele><time>2026-04-06T14:26:15Z</time></trkpt><trkpt lat="40.18257689336738" lon="8.561625469192917"><ele>327.0</ele><time>2026-04-06T14:26:16Z</time></trkpt><trkpt lat="40.18268938286003" lon="8.561704376763167"><ele>327.0</ele><time>2026-04-06T14:26:17Z</time></trkpt><trkpt lat="40.18282418235041" lon="8.561744885436928"><ele>327.0</ele><time>2026-04-06T14:26:18Z</time></trkpt><trkpt lat="40.182975282335725" lon="8.56172537646487"><ele>327.0</ele><time>2026-04-06T14:26:19Z</time></trkpt><trkpt lat="40.18312558612732" lon="8.56165123336197"><ele>331.0</ele><time>2026-04-06T14:26:20Z</time></trkpt><trkpt lat="40.18326372422119" lon="8.561527832443252"><ele>335.0</ele><time>2026-04-06T14:26:21Z</time></trkpt><trkpt lat="40.18339344142772" lon="8.561375000023359"><ele>339.0</ele><time>2026-04-06T14:26:22Z</time></trkpt><trkpt lat="40.183531046227316" lon="8.561225536638439"><ele>335.0</ele><time>2026-04-06T14:26:23Z</time></trkpt><trkpt lat="40.183680517897535" lon="8.561077889445174"><ele>331.0</ele><time>2026-04-06T14:26:24Z</time></trkpt><trkpt lat="40.18384102792011" lon="8.56092526087896"><ele>327.0</ele><time>2026-04-06T14:26:25Z</time></trkpt><trkpt lat="40.18399316548141" lon="8.560757073208507"><ele>331.0</ele><time>2026-04-06T14:26:26Z</time></trkpt><trkpt lat="40.18411382418824" lon="8.560559543475579"><ele>335.0</ele><time>2026-04-06T14:26:27Z</time></trkpt><trkpt lat="40.18419358748444" lon="8.560325923641047"><ele>339.0</ele><time>2026-04-06T14:26:28Z</time></trkpt><trkpt lat="40.184241405012855" lon="8.560071881257478"><ele>339.0</ele><time>2026-04-06T14:26:29Z</time></trkpt><trkpt lat="40.184270128067176" lon="8.559817371298173"><ele>339.0</ele><time>2026-04-06T14:26:30Z</time></trkpt><trkpt lat="40.184309533179196" lon="8.55958875822499"><ele>339.0</ele><time>2026-04-06T14:26:31Z</time></trkpt><trkpt lat="40.18436583931223" lon="8.559393516348425"><ele>337.0</ele><time>2026-04-06T14:26:32Z</time></trkpt><trkpt lat="40.184462720953434" lon="8.559201482859553"><ele>335.0</ele><time>2026-04-06T14:26:33Z</time></trkpt><trkpt lat="40.18455019588015" lon="8.558977516878324"><ele>333.0</ele><time>2026-04-06T14:26:34Z</time></trkpt><trkpt lat="40.18466388599508" lon="8.558757955811329"><ele>330.3333333333333</ele><time>2026-04-06T14:26:35Z</time></trkpt><trkpt lat="40.18476310344036" lon="8.558533770442503"><ele>327.66666666666663</ele><time>2026-04-06T14:26:36Z</time></trkpt><trkpt lat="40.18483719931029" lon="8.55833461825944"><ele>325.0</ele><time>2026-04-06T14:26:37Z</time></trkpt><trkpt lat="40.184900522152844" lon="8.558155626110828"><ele>328.8</ele><time>2026-04-06T14:26:38Z</time></trkpt><trkpt lat="40.18496184733409" lon="8.558007913584051"><ele>332.6</ele><time>2026-04-06T14:26:39Z</time></trkpt><trkpt lat="40.18504913079365" lon="8.557905746054434"><ele>336.4</ele><time>2026-04-06T14:26:40Z</time></trkpt><trkpt lat="40.185146644267405" lon="8.557855142841465"><ele>340.2</ele><time>2026-04-06T14:26:41Z</time></trkpt><trkpt lat="40.18524428786885" lon="8.557833279749444"><ele>344.0</ele><time>2026-04-06T14:26:42Z</time></trkpt><trkpt lat="40.18534759244357" lon="8.55791910572052"><ele>345.0</ele><time>2026-04-06T14:26:43Z</time></trkpt><trkpt lat="40.18545159695958" lon="8.557990877655218"><ele>346.0</ele><time>2026-04-06T14:26:44Z</time></trkpt><trkpt lat="40.18554423903866" lon="8.558037081822956"><ele>347.0</ele><time>2026-04-06T14:26:45Z</time></trkpt><trkpt lat="40.18561055619322" lon="8.558122091883874"><ele>348.0</ele><time>2026-04-06T14:26:46Z</time></trkpt><trkpt lat="40.185658513827455" lon="8.558221513697992"><ele>349.0</ele><time>2026-04-06T14:26:47Z</time></trkpt><trkpt lat="40.18567411578235" lon="8.558350529335142"><ele>348.75</ele><time>2026-04-06T14:26:48Z</time></trkpt><trkpt lat="40.18577733377686" lon="8.558581703693651"><ele>348.5</ele><time>2026-04-06T14:26:50Z</time></trkpt><trkpt lat="40.1858590706771" lon="8.55860602617673"><ele>348.25</ele><time>2026-04-06T14:26:51Z</time></trkpt><trkpt lat="40.18595340687809" lon="8.558605416562235"><ele>348.0</ele><time>2026-04-06T14:26:52Z</time></trkpt><trkpt lat="40.186037749548255" lon="8.558557511686082"><ele>348.0</ele><time>2026-04-06T14:26:53Z</time></trkpt><trkpt lat="40.18611363602117" lon="8.558479395079218"><ele>348.0</ele><time>2026-04-06T14:26:54Z</time></trkpt><trkpt lat="40.18618778661306" lon="8.558375662349412"><ele>348.0</ele><time>2026-04-06T14:26:55Z</time></trkpt><trkpt lat="40.186285038889544" lon="8.55828395238327"><ele>348.0</ele><time>2026-04-06T14:26:56Z</time></trkpt><trkpt lat="40.18640989683856" lon="8.558317017821691"><ele>344.6666666666667</ele><time>2026-04-06T14:26:57Z</time></trkpt><trkpt lat="40.186555591265176" lon="8.558320793750221"><ele>341.33333333333337</ele><time>2026-04-06T14:26:58Z</time></trkpt><trkpt lat="40.18672521719144" lon="8.558311556404743"><ele>338.0</ele><time>2026-04-06T14:26:59Z</time></trkpt><trkpt lat="40.186910020350986" lon="8.558307250233765"><ele>338.0</ele><time>2026-04-06T14:27:00Z</time></trkpt><trkpt lat="40.187091314588294" lon="8.558251232225695"><ele>338.0</ele><time>2026-04-06T14:27:01Z</time></trkpt><trkpt lat="40.187296063331104" lon="8.558145351867582"><ele>338.0</ele><time>2026-04-06T14:27:02Z</time></trkpt><trkpt lat="40.18750441127799" lon="8.557993969173124"><ele>331.5</ele><time>2026-04-06T14:27:03Z</time></trkpt><trkpt lat="40.18769218989596" lon="8.557833113652809"><ele>325.0</ele><time>2026-04-06T14:27:04Z</time></trkpt><trkpt lat="40.18789555853993" lon="8.557694374677853"><ele>325.0</ele><time>2026-04-06T14:27:05Z</time></trkpt><trkpt lat="40.188105949223946" lon="8.557553979499282"><ele>325.0</ele><time>2026-04-06T14:27:06Z</time></trkpt><trkpt lat="40.1883280613036" lon="8.557418994331908"><ele>321.0</ele><time>2026-04-06T14:27:07Z</time></trkpt><trkpt lat="40.188555643420635" lon="8.557317905374033"><ele>317.0</ele><time>2026-04-06T14:27:08Z</time></trkpt><trkpt lat="40.18877605495384" lon="8.557251080302693"><ele>317.5</ele><time>2026-04-06T14:27:09Z</time></trkpt><trkpt lat="40.18901746570393" lon="8.557211743761856"><ele>318.0</ele><time>2026-04-06T14:27:10Z</time></trkpt><trkpt lat="40.189266962929764" lon="8.557204422815962"><ele>318.0</ele><time>2026-04-06T14:27:11Z</time></trkpt><trkpt lat="40.18952469839298" lon="8.557231013635631"><ele>318.0</ele><time>2026-04-06T14:27:12Z</time></trkpt><trkpt lat="40.189777427334676" lon="8.557276729853267"><ele>315.5</ele><time>2026-04-06T14:27:13Z</time></trkpt><trkpt lat="40.19003183606947" lon="8.557320030051597"><ele>313.0</ele><time>2026-04-06T14:27:14Z</time></trkpt><trkpt lat="40.19027840647985" lon="8.557382016487175"><ele>313.0</ele><time>2026-04-06T14:27:15Z</time></trkpt><trkpt lat="40.19052694207469" lon="8.55743285191925"><ele>313.0</ele><time>2026-04-06T14:27:16Z</time></trkpt><trkpt lat="40.19077185768165" lon="8.557507153741685"><ele>314.0</ele><time>2026-04-06T14:27:17Z</time></trkpt><trkpt lat="40.19101629728446" lon="8.557546878815929"><ele>315.0</ele><time>2026-04-06T14:27:18Z</time></trkpt><trkpt lat="40.19125190595663" lon="8.557609391721849"><ele>315.0</ele><time>2026-04-06T14:27:19Z</time></trkpt><trkpt lat="40.19148332746054" lon="8.557669519543044"><ele>315.0</ele><time>2026-04-06T14:27:20Z</time></trkpt><trkpt lat="40.191718308793796" lon="8.557726589371795"><ele>314.0</ele><time>2026-04-06T14:27:21Z</time></trkpt><trkpt lat="40.19195116231906" lon="8.557781760743728"><ele>313.0</ele><time>2026-04-06T14:27:22Z</time></trkpt><trkpt lat="40.192183909398445" lon="8.557836064904189"><ele>317.3333333333333</ele><time>2026-04-06T14:27:23Z</time></trkpt><trkpt lat="40.19240923992164" lon="8.557885032108151"><ele>321.6666666666667</ele><time>2026-04-06T14:27:24Z</time></trkpt><trkpt lat="40.19261543244402" lon="8.55792112887748"><ele>326.0</ele><time>2026-04-06T14:27:25Z</time></trkpt><trkpt lat="40.192806618904235" lon="8.557956437394594"><ele>326.0</ele><time>2026-04-06T14:27:26Z</time></trkpt><trkpt lat="40.19297067561455" lon="8.558039856104443"><ele>326.0</ele><time>2026-04-06T14:27:27Z</time></trkpt><trkpt lat="40.193110703319746" lon="8.558127821576479"><ele>326.0</ele><time>2026-04-06T14:27:28Z</time></trkpt><trkpt lat="40.19323841674223" lon="8.558243935414191"><ele>328.0</ele><time>2026-04-06T14:27:29Z</time></trkpt><trkpt lat="40.193345653812635" lon="8.55839978917692"><ele>330.0</ele><time>2026-04-06T14:27:30Z</time></trkpt><trkpt lat="40.19344649338563" lon="8.558571973205146"><ele>332.0</ele><time>2026-04-06T14:27:31Z</time></trkpt><trkpt lat="40.1935012448242" lon="8.558776799012094"><ele>334.0</ele><time>2026-04-06T14:27:32Z</time></trkpt><trkpt lat="40.19352379988064" lon="8.558990682654064"><ele>336.0</ele><time>2026-04-06T14:27:33Z</time></trkpt><trkpt lat="40.19351824537636" lon="8.55920380442759"><ele>338.0</ele><time>2026-04-06T14:27:34Z</time></trkpt><trkpt lat="40.1934861058996" lon="8.559409525290176"><ele>338.0</ele><time>2026-04-06T14:27:35Z</time></trkpt><trkpt lat="40.1934253738169" lon="8.559609190856243"><ele>338.0</ele><time>2026-04-06T14:27:36Z</time></trkpt><trkpt lat="40.19333570892437" lon="8.559803921315119"><ele>338.0</ele><time>2026-04-06T14:27:37Z</time></trkpt><trkpt lat="40.19323415762328" lon="8.55999921083801"><ele>342.33333333333337</ele><time>2026-04-06T14:27:38Z</time></trkpt><trkpt lat="40.19312994758457" lon="8.560207010667884"><ele>346.6666666666667</ele><time>2026-04-06T14:27:39Z</time></trkpt><trkpt lat="40.1930210596228" lon="8.560425123372088"><ele>351.0</ele><time>2026-04-06T14:27:40Z</time></trkpt><trkpt lat="40.192910655857" lon="8.560648988599874"><ele>351.6666666666667</ele><time>2026-04-06T14:27:41Z</time></trkpt><trkpt lat="40.19279115959018" lon="8.560889365969109"><ele>352.33333333333337</ele><time>2026-04-06T14:27:42Z</time></trkpt><trkpt lat="40.192662873179316" lon="8.561127957903938"><ele>353.0</ele><time>2026-04-06T14:27:43Z</time></trkpt><trkpt lat="40.19252150975293" lon="8.56137547494662"><ele>353.0</ele><time>2026-04-06T14:27:44Z</time></trkpt><trkpt lat="40.1923901252844" lon="8.561614381648656"><ele>353.0</ele><time>2026-04-06T14:27:45Z</time></trkpt><trkpt lat="40.192264069718746" lon="8.561831602911772"><ele>353.0</ele><time>2026-04-06T14:27:46Z</time></trkpt><trkpt lat="40.19214552668995" lon="8.562039794589094"><ele>361.6666666666667</ele><time>2026-04-06T14:27:47Z</time></trkpt><trkpt lat="40.19203651341602" lon="8.562242533358791"><ele>370.3333333333333</ele><time>2026-04-06T14:27:48Z</time></trkpt><trkpt lat="40.19194411083111" lon="8.562431344287683"><ele>379.0</ele><time>2026-04-06T14:27:49Z</time></trkpt><trkpt lat="40.19186747999922" lon="8.56262575807939"><ele>379.0</ele><time>2026-04-06T14:27:50Z</time></trkpt><trkpt lat="40.191811256379246" lon="8.562835632335961"><ele>379.0</ele><time>2026-04-06T14:27:51Z</time></trkpt><trkpt lat="40.19178030745074" lon="8.563063114835272"><ele>379.0</ele><time>2026-04-06T14:27:52Z</time></trkpt><trkpt lat="40.19178304973329" lon="8.56329879654226"><ele>379.66666666666663</ele><time>2026-04-06T14:27:53Z</time></trkpt><trkpt lat="40.19181317211652" lon="8.563543220266503"><ele>380.3333333333333</ele><time>2026-04-06T14:27:54Z</time></trkpt><trkpt lat="40.19187948073759" lon="8.5637777462175"><ele>381.0</ele><time>2026-04-06T14:27:55Z</time></trkpt><trkpt lat="40.19197709311692" lon="8.564021766503064"><ele>382.0</ele><time>2026-04-06T14:27:56Z</time></trkpt><trkpt lat="40.192094367450984" lon="8.56426359374983"><ele>383.0</ele><time>2026-04-06T14:27:57Z</time></trkpt><trkpt lat="40.192218171152845" lon="8.564512723988381"><ele>384.0</ele><time>2026-04-06T14:27:58Z</time></trkpt><trkpt lat="40.192343540866815" lon="8.564772300618024"><ele>384.0</ele><time>2026-04-06T14:27:59Z</time></trkpt><trkpt lat="40.192453590703295" lon="8.565007140647378"><ele>384.0</ele><time>2026-04-06T14:28:00Z</time></trkpt><trkpt lat="40.19254931902247" lon="8.565232807322166"><ele>384.0</ele><time>2026-04-06T14:28:01Z</time></trkpt><trkpt lat="40.192633738067606" lon="8.565467913721426"><ele>388.33333333333337</ele><time>2026-04-06T14:28:02Z</time></trkpt><trkpt lat="40.192705988594874" lon="8.565710300159834"><ele>392.6666666666667</ele><time>2026-04-06T14:28:03Z</time></trkpt><trkpt lat="40.19276429498077" lon="8.565953245446345"><ele>397.0</ele><time>2026-04-06T14:28:04Z</time></trkpt><trkpt lat="40.192805257409816" lon="8.566209602546126"><ele>401.0</ele><time>2026-04-06T14:28:05Z</time></trkpt><trkpt lat="40.192834678119" lon="8.566481300733296"><ele>405.0</ele><time>2026-04-06T14:28:06Z</time></trkpt><trkpt lat="40.19284804577363" lon="8.566758927234916"><ele>409.0</ele><time>2026-04-06T14:28:07Z</time></trkpt><trkpt lat="40.19285851548732" lon="8.5670455904426"><ele>411.5</ele><time>2026-04-06T14:28:08Z</time></trkpt><trkpt lat="40.19286752215865" lon="8.567341512178581"><ele>414.0</ele><time>2026-04-06T14:28:09Z</time></trkpt><trkpt lat="40.19287508881559" lon="8.56764651915466"><ele>412.5</ele><time>2026-04-06T14:28:10Z</time></trkpt><trkpt lat="40.19288136567463" lon="8.567959502930963"><ele>411.0</ele><time>2026-04-06T14:28:11Z</time></trkpt><trkpt lat="40.192891877627204" lon="8.568256216312664"><ele>411.0</ele><time>2026-04-06T14:28:12Z</time></trkpt><trkpt lat="40.19290353591075" lon="8.568550005517075"><ele>411.0</ele><time>2026-04-06T14:28:13Z</time></trkpt><trkpt lat="40.19292316120243" lon="8.568843435984075"><ele>409.0</ele><time>2026-04-06T14:28:14Z</time></trkpt><trkpt lat="40.192956742840614" lon="8.56913997142683"><ele>407.0</ele><time>2026-04-06T14:28:15Z</time></trkpt><trkpt lat="40.193006593344" lon="8.569434434400431"><ele>409.5</ele><time>2026-04-06T14:28:16Z</time></trkpt><trkpt lat="40.1930717544354" lon="8.569729225883243"><ele>412.0</ele><time>2026-04-06T14:28:17Z</time></trkpt><trkpt lat="40.19313509506218" lon="8.570018071393656"><ele>411.33333333333337</ele><time>2026-04-06T14:28:18Z</time></trkpt><trkpt lat="40.19319273574171" lon="8.570283600867791"><ele>410.66666666666663</ele><time>2026-04-06T14:28:19Z</time></trkpt><trkpt lat="40.19324644807437" lon="8.570533776852983"><ele>410.0</ele><time>2026-04-06T14:28:20Z</time></trkpt><trkpt lat="40.19329282150354" lon="8.570765643302813"><ele>410.0</ele><time>2026-04-06T14:28:21Z</time></trkpt><trkpt lat="40.193335367690345" lon="8.57098401210558"><ele>410.0</ele><time>2026-04-06T14:28:22Z</time></trkpt><trkpt lat="40.193375496901496" lon="8.571203228683157"><ele>410.0</ele><time>2026-04-06T14:28:23Z</time></trkpt><trkpt lat="40.193399844063194" lon="8.571420462031165"><ele>410.0</ele><time>2026-04-06T14:28:24Z</time></trkpt><trkpt lat="40.1934081491535" lon="8.571638619151486"><ele>410.0</ele><time>2026-04-06T14:28:25Z</time></trkpt><trkpt lat="40.193395950164785" lon="8.571835027591607"><ele>410.0</ele><time>2026-04-06T14:28:26Z</time></trkpt><trkpt lat="40.1933776098647" lon="8.572022531560473"><ele>409.25</ele><time>2026-04-06T14:28:27Z</time></trkpt><trkpt lat="40.193353508915614" lon="8.572203517867877"><ele>408.5</ele><time>2026-04-06T14:28:28Z</time></trkpt><trkpt lat="40.1933346373063" lon="8.572374097871037"><ele>407.75</ele><time>2026-04-06T14:28:29Z</time></trkpt><trkpt lat="40.1933172922381" lon="8.572527102989438"><ele>407.0</ele><time>2026-04-06T14:28:30Z</time></trkpt><trkpt lat="40.19329347165316" lon="8.572669314329994"><ele>407.0</ele><time>2026-04-06T14:28:31Z</time></trkpt><trkpt lat="40.19325346521428" lon="8.572786434782051"><ele>407.0</ele><time>2026-04-06T14:28:32Z</time></trkpt><trkpt lat="40.193184852328436" lon="8.57287846966552"><ele>407.0</ele><time>2026-04-06T14:28:33Z</time></trkpt><trkpt lat="40.19309568988346" lon="8.57295126220096"><ele>407.0</ele><time>2026-04-06T14:28:34Z</time></trkpt><trkpt lat="40.19302787923285" lon="8.573042375555028"><ele>407.0</ele><time>2026-04-06T14:28:35Z</time></trkpt><trkpt lat="40.19301354091701" lon="8.573163358832598"><ele>408.5</ele><time>2026-04-06T14:28:36Z</time></trkpt><trkpt lat="40.19303298883671" lon="8.57329246401865"><ele>410.0</ele><time>2026-04-06T14:28:37Z</time></trkpt><trkpt lat="40.19309800611608" lon="8.573401026138388"><ele>411.5</ele><time>2026-04-06T14:28:38Z</time></trkpt><trkpt lat="40.193294543350106" lon="8.573466964733536"><ele>413.0</ele><time>2026-04-06T14:28:40Z</time></trkpt><trkpt lat="40.19340435221622" lon="8.573434737419193"><ele>413.0</ele><time>2026-04-06T14:28:41Z</time></trkpt><trkpt lat="40.19349240434517" lon="8.573344312722567"><ele>413.0</ele><time>2026-04-06T14:28:42Z</time></trkpt><trkpt lat="40.193581513524016" lon="8.57322282393899"><ele>413.0</ele><time>2026-04-06T14:28:43Z</time></trkpt><trkpt lat="40.19368959480195" lon="8.57314579152076"><ele>413.0</ele><time>2026-04-06T14:28:44Z</time></trkpt><trkpt lat="40.193833858796964" lon="8.573125129853262"><ele>413.0</ele><time>2026-04-06T14:28:45Z</time></trkpt><trkpt lat="40.19397249689379" lon="8.57316657068203"><ele>413.0</ele><time>2026-04-06T14:28:46Z</time></trkpt><trkpt lat="40.194107720053964" lon="8.573222015185845"><ele>413.0</ele><time>2026-04-06T14:28:47Z</time></trkpt><trkpt lat="40.194243002940176" lon="8.5732040085213"><ele>413.0</ele><time>2026-04-06T14:28:48Z</time></trkpt><trkpt lat="40.19437083441281" lon="8.573122296183158"><ele>411.66666666666663</ele><time>2026-04-06T14:28:49Z</time></trkpt><trkpt lat="40.19448769175983" lon="8.57298005930536"><ele>410.33333333333337</ele><time>2026-04-06T14:28:50Z</time></trkpt><trkpt lat="40.19459337510185" lon="8.572814455040561"><ele>409.0</ele><time>2026-04-06T14:28:51Z</time></trkpt><trkpt lat="40.19472091643709" lon="8.572660036658508"><ele>405.33333333333337</ele><time>2026-04-06T14:28:52Z</time></trkpt><trkpt lat="40.19483579930033" lon="8.57247453224928"><ele>401.66666666666663</ele><time>2026-04-06T14:28:53Z</time></trkpt><trkpt lat="40.194949434147865" lon="8.572324516984057"><ele>398.0</ele><time>2026-04-06T14:28:54Z</time></trkpt><trkpt lat="40.19505169449742" lon="8.572223011492548"><ele>398.0</ele><time>2026-04-06T14:28:55Z</time></trkpt><trkpt lat="40.19516052916607" lon="8.572160437730547"><ele>398.0</ele><time>2026-04-06T14:28:56Z</time></trkpt><trkpt lat="40.19528041739157" lon="8.572199959628197"><ele>398.0</ele><time>2026-04-06T14:28:57Z</time></trkpt><trkpt lat="40.19541108903097" lon="8.572258225393494"><ele>398.0</ele><time>2026-04-06T14:28:58Z</time></trkpt><trkpt lat="40.195540606143894" lon="8.572391741982367"><ele>395.3333333333333</ele><time>2026-04-06T14:28:59Z</time></trkpt><trkpt lat="40.19567398684881" lon="8.572504968957244"><ele>392.66666666666663</ele><time>2026-04-06T14:29:00Z</time></trkpt><trkpt lat="40.195817419042214" lon="8.572634040798627"><ele>390.0</ele><time>2026-04-06T14:29:01Z</time></trkpt><trkpt lat="40.19595408744661" lon="8.572768697664788"><ele>393.25</ele><time>2026-04-06T14:29:02Z</time></trkpt><trkpt lat="40.19606978309272" lon="8.572876510336739"><ele>396.5</ele><time>2026-04-06T14:29:03Z</time></trkpt><trkpt lat="40.19615768967188" lon="8.57298416165451"><ele>399.75</ele><time>2026-04-06T14:29:04Z</time></trkpt><trkpt lat="40.19624237918832" lon="8.57307869851597"><ele>403.0</ele><time>2026-04-06T14:29:05Z</time></trkpt><trkpt lat="40.19632081641848" lon="8.573173289441955"><ele>403.0</ele><time>2026-04-06T14:29:06Z</time></trkpt><trkpt lat="40.196367410942386" lon="8.573292397610487"><ele>403.0</ele><time>2026-04-06T14:29:07Z</time></trkpt><trkpt lat="40.19638504486888" lon="8.573445346854735"><ele>403.0</ele><time>2026-04-06T14:29:08Z</time></trkpt><trkpt lat="40.19637507776628" lon="8.573603298162338"><ele>403.0</ele><time>2026-04-06T14:29:09Z</time></trkpt><trkpt lat="40.19634474236342" lon="8.573746768692644"><ele>402.59999999999997</ele><time>2026-04-06T14:29:10Z</time></trkpt><trkpt lat="40.19630507052401" lon="8.57388132230888"><ele>402.2</ele><time>2026-04-06T14:29:11Z</time></trkpt><trkpt lat="40.196266999932796" lon="8.574019256302787"><ele>401.8</ele><time>2026-04-06T14:29:12Z</time></trkpt><trkpt lat="40.19623920864468" lon="8.574161491229077"><ele>401.4</ele><time>2026-04-06T14:29:13Z</time></trkpt><trkpt lat="40.19622052483458" lon="8.574305181658334"><ele>401.0</ele><time>2026-04-06T14:29:14Z</time></trkpt><trkpt lat="40.19621822988007" lon="8.57444227648598"><ele>400.25</ele><time>2026-04-06T14:29:15Z</time></trkpt><trkpt lat="40.196230720500765" lon="8.574580091631862"><ele>399.5</ele><time>2026-04-06T14:29:16Z</time></trkpt><trkpt lat="40.196251626219585" lon="8.57472461003185"><ele>398.75</ele><time>2026-04-06T14:29:17Z</time></trkpt><trkpt lat="40.196275084552084" lon="8.574882530547965"><ele>398.0</ele><time>2026-04-06T14:29:18Z</time></trkpt><trkpt lat="40.1962960972415" lon="8.57504947527288"><ele>398.0</ele><time>2026-04-06T14:29:19Z</time></trkpt><trkpt lat="40.19631827444891" lon="8.575226262581277"><ele>398.0</ele><time>2026-04-06T14:29:20Z</time></trkpt><trkpt lat="40.196339628543484" lon="8.57540858719961"><ele>398.0</ele><time>2026-04-06T14:29:21Z</time></trkpt><trkpt lat="40.1963619311233" lon="8.575600228170199"><ele>398.0</ele><time>2026-04-06T14:29:22Z</time></trkpt><trkpt lat="40.19638906992575" lon="8.575803598661418"><ele>397.66666666666663</ele><time>2026-04-06T14:29:23Z</time></trkpt><trkpt lat="40.19641636539971" lon="8.575997656529104"><ele>397.33333333333337</ele><time>2026-04-06T14:29:24Z</time></trkpt><trkpt lat="40.196440543143716" lon="8.576196684504135"><ele>397.0</ele><time>2026-04-06T14:29:25Z</time></trkpt><trkpt lat="40.196468413256106" lon="8.576397472185953"><ele>397.0</ele><time>2026-04-06T14:29:26Z</time></trkpt><trkpt lat="40.196494261608635" lon="8.576603167745315"><ele>397.0</ele><time>2026-04-06T14:29:27Z</time></trkpt><trkpt lat="40.1965208728431" lon="8.576811186207403"><ele>397.0</ele><time>2026-04-06T14:29:28Z</time></trkpt><trkpt lat="40.19654402679942" lon="8.577001893750706"><ele>392.0</ele><time>2026-04-06T14:29:29Z</time></trkpt><trkpt lat="40.19656495219959" lon="8.577174963207021"><ele>387.0</ele><time>2026-04-06T14:29:30Z</time></trkpt><trkpt lat="40.19658997752597" lon="8.577342057443786"><ele>382.0</ele><time>2026-04-06T14:29:31Z</time></trkpt><trkpt lat="40.19662587133681" lon="8.577496236840151"><ele>377.0</ele><time>2026-04-06T14:29:32Z</time></trkpt><trkpt lat="40.196675963401624" lon="8.577631850436916"><ele>377.0</ele><time>2026-04-06T14:29:33Z</time></trkpt><trkpt lat="40.19674352123349" lon="8.57773686461423"><ele>377.0</ele><time>2026-04-06T14:29:34Z</time></trkpt><trkpt lat="40.19682454036529" lon="8.577820044339948"><ele>377.0</ele><time>2026-04-06T14:29:35Z</time></trkpt><trkpt lat="40.19691637237562" lon="8.577882194162473"><ele>377.0</ele><time>2026-04-06T14:29:36Z</time></trkpt><trkpt lat="40.1970233886796" lon="8.57792154736278"><ele>377.0</ele><time>2026-04-06T14:29:37Z</time></trkpt><trkpt lat="40.19714563944528" lon="8.577946094725407"><ele>376.5</ele><time>2026-04-06T14:29:38Z</time></trkpt><trkpt lat="40.19728090700042" lon="8.577962291968872"><ele>376.0</ele><time>2026-04-06T14:29:39Z</time></trkpt><trkpt lat="40.19742302088179" lon="8.577969989012516"><ele>375.5</ele><time>2026-04-06T14:29:40Z</time></trkpt><trkpt lat="40.197570558974114" lon="8.577979432760312"><ele>375.0</ele><time>2026-04-06T14:29:41Z</time></trkpt><trkpt lat="40.19770560721551" lon="8.57798302306959"><ele>375.0</ele><time>2026-04-06T14:29:42Z</time></trkpt><trkpt lat="40.19784042155921" lon="8.577989007903982"><ele>375.0</ele><time>2026-04-06T14:29:43Z</time></trkpt><trkpt lat="40.19796983935222" lon="8.577963832949541"><ele>375.0</ele><time>2026-04-06T14:29:44Z</time></trkpt><trkpt lat="40.198083472561294" lon="8.577891932018332"><ele>375.0</ele><time>2026-04-06T14:29:45Z</time></trkpt><trkpt lat="40.198166632823884" lon="8.577784682569524"><ele>374.25</ele><time>2026-04-06T14:29:46Z</time></trkpt><trkpt lat="40.198225978020346" lon="8.577654938889792"><ele>373.5</ele><time>2026-04-06T14:29:47Z</time></trkpt><trkpt lat="40.19829407417357" lon="8.57749067782225"><ele>372.75</ele><time>2026-04-06T14:29:48Z</time></trkpt><trkpt lat="40.19836631611789" lon="8.577286992751878"><ele>372.0</ele><time>2026-04-06T14:29:49Z</time></trkpt><trkpt lat="40.19844879922831" lon="8.577061686208504"><ele>366.5</ele><time>2026-04-06T14:29:50Z</time></trkpt><trkpt lat="40.19854292469961" lon="8.576804578105333"><ele>361.0</ele><time>2026-04-06T14:29:51Z</time></trkpt><trkpt lat="40.19864995624532" lon="8.57651221626936"><ele>361.0</ele><time>2026-04-06T14:29:52Z</time></trkpt><trkpt lat="40.198753423167396" lon="8.576188036569912"><ele>361.0</ele><time>2026-04-06T14:29:53Z</time></trkpt><trkpt lat="40.19886590117161" lon="8.575872601014211"><ele>358.0</ele><time>2026-04-06T14:29:54Z</time></trkpt><trkpt lat="40.198981130746404" lon="8.575554887856196"><ele>355.0</ele><time>2026-04-06T14:29:55Z</time></trkpt><trkpt lat="40.19908143305508" lon="8.575276001330279"><ele>355.0</ele><time>2026-04-06T14:29:56Z</time></trkpt><trkpt lat="40.1991812422917" lon="8.575051206735091"><ele>355.0</ele><time>2026-04-06T14:29:57Z</time></trkpt><trkpt lat="40.199255316174515" lon="8.574846734233523"><ele>355.0</ele><time>2026-04-06T14:29:58Z</time></trkpt><trkpt lat="40.199323384041506" lon="8.574671163339302"><ele>353.0</ele><time>2026-04-06T14:29:59Z</time></trkpt><trkpt lat="40.19936649399191" lon="8.57451339456207"><ele>351.0</ele><time>2026-04-06T14:30:00Z</time></trkpt><trkpt lat="40.1994553409403" lon="8.574408599015781"><ele>349.0</ele><time>2026-04-06T14:30:01Z</time></trkpt><trkpt lat="40.199552876399586" lon="8.574320727414452"><ele>347.0</ele><time>2026-04-06T14:30:02Z</time></trkpt><trkpt lat="40.19967218273231" lon="8.574285344100094"><ele>347.0</ele><time>2026-04-06T14:30:03Z</time></trkpt><trkpt lat="40.1998180809402" lon="8.574288259785869"><ele>347.0</ele><time>2026-04-06T14:30:04Z</time></trkpt><trkpt lat="40.19999505224687" lon="8.574295619121676"><ele>347.0</ele><time>2026-04-06T14:30:05Z</time></trkpt><trkpt lat="40.20019334360486" lon="8.574292530608831"><ele>347.33333333333337</ele><time>2026-04-06T14:30:06Z</time></trkpt><trkpt lat="40.2003720589405" lon="8.574302075638139"><ele>347.6666666666667</ele><time>2026-04-06T14:30:07Z</time></trkpt><trkpt lat="40.200532461663904" lon="8.574302022069272"><ele>348.0</ele><time>2026-04-06T14:30:08Z</time></trkpt><trkpt lat="40.20066726925211" lon="8.574271053369422"><ele>348.0</ele><time>2026-04-06T14:30:09Z</time></trkpt><trkpt lat="40.20078763105351" lon="8.574189497699976"><ele>348.0</ele><time>2026-04-06T14:30:10Z</time></trkpt><trkpt lat="40.20090173437791" lon="8.574047564193183"><ele>348.0</ele><time>2026-04-06T14:30:11Z</time></trkpt><trkpt lat="40.201005909590066" lon="8.573829453190967"><ele>342.0</ele><time>2026-04-06T14:30:12Z</time></trkpt><trkpt lat="40.201112745800806" lon="8.573585996510326"><ele>336.0</ele><time>2026-04-06T14:30:13Z</time></trkpt><trkpt lat="40.201239710117434" lon="8.573321885080324"><ele>336.0</ele><time>2026-04-06T14:30:14Z</time></trkpt><trkpt lat="40.20136621137881" lon="8.57306777065273"><ele>336.0</ele><time>2026-04-06T14:30:15Z</time></trkpt><trkpt lat="40.20148853580899" lon="8.572824045548169"><ele>338.0</ele><time>2026-04-06T14:30:16Z</time></trkpt><trkpt lat="40.20159841521168" lon="8.57260060359425"><ele>340.0</ele><time>2026-04-06T14:30:17Z</time></trkpt><trkpt lat="40.2016904998377" lon="8.572394378423354"><ele>342.0</ele><time>2026-04-06T14:30:18Z</time></trkpt><trkpt lat="40.2017530894667" lon="8.572177143667034"><ele>339.0</ele><time>2026-04-06T14:30:19Z</time></trkpt><trkpt lat="40.201784825236125" lon="8.571935742068568"><ele>336.0</ele><time>2026-04-06T14:30:20Z</time></trkpt><trkpt lat="40.201805864840374" lon="8.57170378072892"><ele>333.0</ele><time>2026-04-06T14:30:21Z</time></trkpt><trkpt lat="40.201839623571416" lon="8.571482857575226"><ele>333.0</ele><time>2026-04-06T14:30:22Z</time></trkpt><trkpt lat="40.20189029948702" lon="8.57127046597615"><ele>333.0</ele><time>2026-04-06T14:30:23Z</time></trkpt><trkpt lat="40.20196301311433" lon="8.571084114542126"><ele>333.0</ele><time>2026-04-06T14:30:24Z</time></trkpt><trkpt lat="40.202046308097025" lon="8.57091593983427"><ele>330.0</ele><time>2026-04-06T14:30:25Z</time></trkpt><trkpt lat="40.2021267126557" lon="8.57076835612417"><ele>327.0</ele><time>2026-04-06T14:30:26Z</time></trkpt><trkpt lat="40.202128635861456" lon="8.570561752113571"><ele>324.0</ele><time>2026-04-06T14:30:27Z</time></trkpt><trkpt lat="40.202101581972386" lon="8.57035228834552"><ele>321.3333333333333</ele><time>2026-04-06T14:30:28Z</time></trkpt><trkpt lat="40.20205514560728" lon="8.570145991755732"><ele>318.66666666666663</ele><time>2026-04-06T14:30:29Z</time></trkpt><trkpt lat="40.202041278266485" lon="8.56995883202374"><ele>316.0</ele><time>2026-04-06T14:30:30Z</time></trkpt><trkpt lat="40.20205721018181" lon="8.569766622601403"><ele>316.0</ele><time>2026-04-06T14:30:31Z</time></trkpt><trkpt lat="40.202119739323415" lon="8.56958474389513"><ele>316.0</ele><time>2026-04-06T14:30:32Z</time></trkpt><trkpt lat="40.20222030849016" lon="8.569412599803641"><ele>316.0</ele><time>2026-04-06T14:30:33Z</time></trkpt><trkpt lat="40.20236897247433" lon="8.56927982462308"><ele>316.66666666666663</ele><time>2026-04-06T14:30:34Z</time></trkpt><trkpt lat="40.20254087698642" lon="8.569145420132283"><ele>317.3333333333333</ele><time>2026-04-06T14:30:35Z</time></trkpt><trkpt lat="40.2027031417891" lon="8.569004906255604"><ele>318.0</ele><time>2026-04-06T14:30:36Z</time></trkpt><trkpt lat="40.202853263401394" lon="8.568812464816277"><ele>310.5</ele><time>2026-04-06T14:30:37Z</time></trkpt><trkpt lat="40.203012231997846" lon="8.568586361849988"><ele>303.0</ele><time>2026-04-06T14:30:38Z</time></trkpt><trkpt lat="40.20316162811135" lon="8.568357462374674"><ele>310.5</ele><time>2026-04-06T14:30:39Z</time></trkpt><trkpt lat="40.20330767662059" lon="8.568132370634661"><ele>318.0</ele><time>2026-04-06T14:30:40Z</time></trkpt><trkpt lat="40.20346752121485" lon="8.567924023082101"><ele>313.6666666666667</ele><time>2026-04-06T14:30:41Z</time></trkpt><trkpt lat="40.20360737950296" lon="8.567717811158348"><ele>309.33333333333337</ele><time>2026-04-06T14:30:42Z</time></trkpt><trkpt lat="40.20373324184622" lon="8.567506336276919"><ele>305.0</ele><time>2026-04-06T14:30:43Z</time></trkpt><trkpt lat="40.203868786900344" lon="8.567315104717933"><ele>305.0</ele><time>2026-04-06T14:30:44Z</time></trkpt><trkpt lat="40.204003062060124" lon="8.567123252437822"><ele>305.0</ele><time>2026-04-06T14:30:45Z</time></trkpt><trkpt lat="40.20413932364525" lon="8.56691927312715"><ele>305.0</ele><time>2026-04-06T14:30:46Z</time></trkpt><trkpt lat="40.20427345051728" lon="8.56672281601104"><ele>305.0</ele><time>2026-04-06T14:30:47Z</time></trkpt><trkpt lat="40.20440445568503" lon="8.566525686587738"><ele>305.0</ele><time>2026-04-06T14:30:48Z</time></trkpt><trkpt lat="40.20453346877865" lon="8.566335535977826"><ele>305.0</ele><time>2026-04-06T14:30:49Z</time></trkpt><trkpt lat="40.2046728545729" lon="8.566163363822948"><ele>301.6666666666667</ele><time>2026-04-06T14:30:50Z</time></trkpt><trkpt lat="40.20483822892559" lon="8.566025023473841"><ele>298.3333333333333</ele><time>2026-04-06T14:30:51Z</time></trkpt><trkpt lat="40.20500306223132" lon="8.565891173011885"><ele>295.0</ele><time>2026-04-06T14:30:52Z</time></trkpt><trkpt lat="40.20517129921781" lon="8.5657892023273"><ele>295.0</ele><time>2026-04-06T14:30:53Z</time></trkpt><trkpt lat="40.205354208198564" lon="8.565708778004831"><ele>295.0</ele><time>2026-04-06T14:30:54Z</time></trkpt><trkpt lat="40.20555569015859" lon="8.565648150149658"><ele>295.0</ele><time>2026-04-06T14:30:55Z</time></trkpt><trkpt lat="40.20577405108039" lon="8.565603370095394"><ele>294.5</ele><time>2026-04-06T14:30:56Z</time></trkpt><trkpt lat="40.206004630233245" lon="8.56556117459573"><ele>294.0</ele><time>2026-04-06T14:30:57Z</time></trkpt><trkpt lat="40.20623844908696" lon="8.565497458570341"><ele>294.0</ele><time>2026-04-06T14:30:58Z</time></trkpt><trkpt lat="40.206474694027136" lon="8.565475728367957"><ele>294.0</ele><time>2026-04-06T14:30:59Z</time></trkpt><trkpt lat="40.206702233798396" lon="8.565434746323529"><ele>293.3333333333333</ele><time>2026-04-06T14:31:00Z</time></trkpt><trkpt lat="40.206919804612575" lon="8.5653955597335"><ele>292.66666666666663</ele><time>2026-04-06T14:31:01Z</time></trkpt><trkpt lat="40.207136059768686" lon="8.565356610101752"><ele>292.0</ele><time>2026-04-06T14:31:02Z</time></trkpt><trkpt lat="40.20735182671781" lon="8.56531323946606"><ele>282.5</ele><time>2026-04-06T14:31:03Z</time></trkpt><trkpt lat="40.207578953834094" lon="8.565312879803658"><ele>273.0</ele><time>2026-04-06T14:31:04Z</time></trkpt><trkpt lat="40.20780992690146" lon="8.565330526627765"><ele>273.0</ele><time>2026-04-06T14:31:05Z</time></trkpt><trkpt lat="40.2080371295106" lon="8.565354120500036"><ele>273.0</ele><time>2026-04-06T14:31:06Z</time></trkpt><trkpt lat="40.208252428115486" lon="8.565376892082487"><ele>273.0</ele><time>2026-04-06T14:31:07Z</time></trkpt><trkpt lat="40.20843804963238" lon="8.565418384301243"><ele>272.3333333333333</ele><time>2026-04-06T14:31:08Z</time></trkpt><trkpt lat="40.20859618245124" lon="8.565419036123838"><ele>271.66666666666663</ele><time>2026-04-06T14:31:09Z</time></trkpt><trkpt lat="40.208736097035676" lon="8.565477036944955"><ele>271.0</ele><time>2026-04-06T14:31:10Z</time></trkpt><trkpt lat="40.20887343510105" lon="8.565547220639237"><ele>271.0</ele><time>2026-04-06T14:31:11Z</time></trkpt><trkpt lat="40.20899033476177" lon="8.565654010685657"><ele>271.0</ele><time>2026-04-06T14:31:12Z</time></trkpt><trkpt lat="40.20907939781606" lon="8.565801766982641"><ele>271.0</ele><time>2026-04-06T14:31:13Z</time></trkpt><trkpt lat="40.20918230517797" lon="8.56592966718525"><ele>271.0</ele><time>2026-04-06T14:31:14Z</time></trkpt><trkpt lat="40.20928443063329" lon="8.566023687474368"><ele>269.5</ele><time>2026-04-06T14:31:15Z</time></trkpt><trkpt lat="40.209402456357374" lon="8.566054372071406"><ele>268.0</ele><time>2026-04-06T14:31:16Z</time></trkpt><trkpt lat="40.20952536825958" lon="8.566030748228439"><ele>266.5</ele><time>2026-04-06T14:31:17Z</time></trkpt><trkpt lat="40.20962618905727" lon="8.5659570565331"><ele>265.0</ele><time>2026-04-06T14:31:18Z</time></trkpt><trkpt lat="40.2096862921034" lon="8.565845584376545"><ele>265.0</ele><time>2026-04-06T14:31:19Z</time></trkpt><trkpt lat="40.20971562227767" lon="8.56572134699793"><ele>265.0</ele><time>2026-04-06T14:31:20Z</time></trkpt><trkpt lat="40.20970970287139" lon="8.565567415299416"><ele>265.0</ele><time>2026-04-06T14:31:21Z</time></trkpt><trkpt lat="40.209672042803106" lon="8.565392587853687"><ele>265.0</ele><time>2026-04-06T14:31:22Z</time></trkpt><trkpt lat="40.20961166636791" lon="8.565197081653404"><ele>263.66666666666663</ele><time>2026-04-06T14:31:23Z</time></trkpt><trkpt lat="40.20954935383266" lon="8.564990107320481"><ele>262.3333333333333</ele><time>2026-04-06T14:31:24Z</time></trkpt><trkpt lat="40.20949863291724" lon="8.564807263693067"><ele>261.0</ele><time>2026-04-06T14:31:25Z</time></trkpt><trkpt lat="40.209459782150816" lon="8.564620742311938"><ele>259.6666666666667</ele><time>2026-04-06T14:31:26Z</time></trkpt><trkpt lat="40.20945550373591" lon="8.564421219194793"><ele>258.33333333333337</ele><time>2026-04-06T14:31:27Z</time></trkpt><trkpt lat="40.20949493277486" lon="8.564209044306281"><ele>257.0</ele><time>2026-04-06T14:31:28Z</time></trkpt><trkpt lat="40.20956011584382" lon="8.56399029990264"><ele>257.0</ele><time>2026-04-06T14:31:29Z</time></trkpt><trkpt lat="40.20965358176685" lon="8.563769054330752"><ele>257.0</ele><time>2026-04-06T14:31:30Z</time></trkpt><trkpt lat="40.209762101695006" lon="8.563564924535187"><ele>257.0</ele><time>2026-04-06T14:31:31Z</time></trkpt><trkpt lat="40.209891974847736" lon="8.563382658516625"><ele>257.0</ele><time>2026-04-06T14:31:32Z</time></trkpt><trkpt lat="40.21003481777151" lon="8.563198933553451"><ele>257.0</ele><time>2026-04-06T14:31:33Z</time></trkpt><trkpt lat="40.210182296683854" lon="8.56300275309813"><ele>257.0</ele><time>2026-04-06T14:31:34Z</time></trkpt><trkpt lat="40.21033354769309" lon="8.562797217719028"><ele>257.0</ele><time>2026-04-06T14:31:35Z</time></trkpt><trkpt lat="40.2104889733933" lon="8.56258451635166"><ele>257.0</ele><time>2026-04-06T14:31:36Z</time></trkpt><trkpt lat="40.21064092011433" lon="8.562385518988224"><ele>257.0</ele><time>2026-04-06T14:31:37Z</time></trkpt><trkpt lat="40.210805204313395" lon="8.562192869239565"><ele>253.0</ele><time>2026-04-06T14:31:38Z</time></trkpt><trkpt lat="40.21098169039045" lon="8.562016686034271"><ele>249.0</ele><time>2026-04-06T14:31:39Z</time></trkpt><trkpt lat="40.21116009204443" lon="8.56187419034375"><ele>245.0</ele><time>2026-04-06T14:31:40Z</time></trkpt><trkpt lat="40.211342530813404" lon="8.561764370163043"><ele>244.33333333333334</ele><time>2026-04-06T14:31:41Z</time></trkpt><trkpt lat="40.21153656132119" lon="8.561678215849964"><ele>243.66666666666669</ele><time>2026-04-06T14:31:42Z</time></trkpt><trkpt lat="40.211739302815594" lon="8.56160384888966"><ele>243.0</ele><time>2026-04-06T14:31:43Z</time></trkpt><trkpt lat="40.21194813975398" lon="8.561530533289423"><ele>243.0</ele><time>2026-04-06T14:31:44Z</time></trkpt><trkpt lat="40.21214675205688" lon="8.561457254437022"><ele>243.0</ele><time>2026-04-06T14:31:45Z</time></trkpt><trkpt lat="40.21233372087256" lon="8.561387436571826"><ele>243.0</ele><time>2026-04-06T14:31:46Z</time></trkpt><trkpt lat="40.212503897846055" lon="8.56132562307967"><ele>242.75</ele><time>2026-04-06T14:31:47Z</time></trkpt><trkpt lat="40.212647632503746" lon="8.561261634539274"><ele>242.5</ele><time>2026-04-06T14:31:48Z</time></trkpt><trkpt lat="40.2127671574049" lon="8.561199158297484"><ele>242.25</ele><time>2026-04-06T14:31:49Z</time></trkpt><trkpt lat="40.21283337966315" lon="8.561055613223774"><ele>242.0</ele><time>2026-04-06T14:31:50Z</time></trkpt><trkpt lat="40.212867205793756" lon="8.560904442734957"><ele>241.75</ele><time>2026-04-06T14:31:51Z</time></trkpt><trkpt lat="40.212862570654224" lon="8.560742121980855"><ele>241.5</ele><time>2026-04-06T14:31:52Z</time></trkpt><trkpt lat="40.21282183143346" lon="8.560563631162001"><ele>241.25</ele><time>2026-04-06T14:31:53Z</time></trkpt><trkpt lat="40.21276991601208" lon="8.560375209978547"><ele>241.0</ele><time>2026-04-06T14:31:54Z</time></trkpt><trkpt lat="40.212724550359475" lon="8.560179171088254"><ele>241.0</ele><time>2026-04-06T14:31:55Z</time></trkpt><trkpt lat="40.21270141695649" lon="8.55999620427568"><ele>241.0</ele><time>2026-04-06T14:31:56Z</time></trkpt><trkpt lat="40.212708288668125" lon="8.559821268819867"><ele>241.0</ele><time>2026-04-06T14:31:57Z</time></trkpt><trkpt lat="40.21275176837966" lon="8.559661742993958"><ele>241.0</ele><time>2026-04-06T14:31:58Z</time></trkpt><trkpt lat="40.21284751234293" lon="8.559530496405426"><ele>242.0</ele><time>2026-04-06T14:31:59Z</time></trkpt><trkpt lat="40.2129495982781" lon="8.55937585623225"><ele>243.0</ele><time>2026-04-06T14:32:00Z</time></trkpt><trkpt lat="40.213075627582754" lon="8.55921643471496"><ele>244.0</ele><time>2026-04-06T14:32:01Z</time></trkpt><trkpt lat="40.21320086522728" lon="8.559037266852634"><ele>247.0</ele><time>2026-04-06T14:32:02Z</time></trkpt><trkpt lat="40.2133311975111" lon="8.558854898488715"><ele>250.0</ele><time>2026-04-06T14:32:03Z</time></trkpt><trkpt lat="40.21345251980863" lon="8.558686883051491"><ele>253.0</ele><time>2026-04-06T14:32:04Z</time></trkpt><trkpt lat="40.21357433878249" lon="8.5585166159471"><ele>253.0</ele><time>2026-04-06T14:32:05Z</time></trkpt><trkpt lat="40.21369540109152" lon="8.558346135375086"><ele>253.0</ele><time>2026-04-06T14:32:06Z</time></trkpt><trkpt lat="40.21380103001278" lon="8.558210276722047"><ele>253.0</ele><time>2026-04-06T14:32:07Z</time></trkpt><trkpt lat="40.21390077408047" lon="8.558127304889496"><ele>253.0</ele><time>2026-04-06T14:32:08Z</time></trkpt><trkpt lat="40.214017868526746" lon="8.558160923567765"><ele>254.8</ele><time>2026-04-06T14:32:09Z</time></trkpt><trkpt lat="40.214111146203884" lon="8.55811699149404"><ele>256.6</ele><time>2026-04-06T14:32:10Z</time></trkpt><trkpt lat="40.21420168189468" lon="8.558067842780037"><ele>258.4</ele><time>2026-04-06T14:32:11Z</time></trkpt><trkpt lat="40.214262756978215" lon="8.557952693644133"><ele>260.2</ele><time>2026-04-06T14:32:12Z</time></trkpt><trkpt lat="40.21427069674902" lon="8.557796319118092"><ele>262.0</ele><time>2026-04-06T14:32:13Z</time></trkpt><trkpt lat="40.21424025755215" lon="8.557630621846704"><ele>262.0</ele><time>2026-04-06T14:32:14Z</time></trkpt><trkpt lat="40.21416593231457" lon="8.557455545033264"><ele>262.0</ele><time>2026-04-06T14:32:15Z</time></trkpt><trkpt lat="40.21407902910147" lon="8.55726927872383"><ele>262.0</ele><time>2026-04-06T14:32:16Z</time></trkpt><trkpt lat="40.213992892441254" lon="8.557072315579134"><ele>264.0</ele><time>2026-04-06T14:32:17Z</time></trkpt><trkpt lat="40.21389037713928" lon="8.556876057119036"><ele>266.0</ele><time>2026-04-06T14:32:18Z</time></trkpt><trkpt lat="40.213748441197545" lon="8.5567033213341"><ele>268.0</ele><time>2026-04-06T14:32:19Z</time></trkpt><trkpt lat="40.213590680532484" lon="8.556567509776631"><ele>268.0</ele><time>2026-04-06T14:32:20Z</time></trkpt><trkpt lat="40.21343808123971" lon="8.556470802470857"><ele>268.0</ele><time>2026-04-06T14:32:21Z</time></trkpt><trkpt lat="40.21331606249769" lon="8.556377865064306"><ele>268.0</ele><time>2026-04-06T14:32:22Z</time></trkpt><trkpt lat="40.213225763370545" lon="8.556259372474837"><ele>268.0</ele><time>2026-04-06T14:32:23Z</time></trkpt><trkpt lat="40.21317529779157" lon="8.556114211722086"><ele>268.66666666666663</ele><time>2026-04-06T14:32:24Z</time></trkpt><trkpt lat="40.21312257521508" lon="8.555997823507399"><ele>269.3333333333333</ele><time>2026-04-06T14:32:25Z</time></trkpt><trkpt lat="40.213095682772995" lon="8.555887507998635"><ele>270.0</ele><time>2026-04-06T14:32:26Z</time></trkpt><trkpt lat="40.21307045332981" lon="8.555786262844537"><ele>270.6666666666667</ele><time>2026-04-06T14:32:27Z</time></trkpt><trkpt lat="40.21305564356406" lon="8.555679743149046"><ele>271.33333333333337</ele><time>2026-04-06T14:32:28Z</time></trkpt><trkpt lat="40.2130459966756" lon="8.555561242536053"><ele>272.0</ele><time>2026-04-06T14:32:29Z</time></trkpt><trkpt lat="40.21306085818937" lon="8.55544124392913"><ele>271.8</ele><time>2026-04-06T14:32:30Z</time></trkpt><trkpt lat="40.21309724865258" lon="8.555322580304365"><ele>271.6</ele><time>2026-04-06T14:32:31Z</time></trkpt><trkpt lat="40.21317456398747" lon="8.555224426325225"><ele>271.40000000000003</ele><time>2026-04-06T14:32:32Z</time></trkpt><trkpt lat="40.21323981312105" lon="8.555108836504953"><ele>271.2</ele><time>2026-04-06T14:32:33Z</time></trkpt><trkpt lat="40.21330970429614" lon="8.554974043131391"><ele>271.0</ele><time>2026-04-06T14:32:34Z</time></trkpt><trkpt lat="40.21339195802589" lon="8.554838939900197"><ele>271.0</ele><time>2026-04-06T14:32:35Z</time></trkpt><trkpt lat="40.21347408587061" lon="8.554697281934947"><ele>271.0</ele><time>2026-04-06T14:32:36Z</time></trkpt><trkpt lat="40.213555939880735" lon="8.55455039511671"><ele>271.0</ele><time>2026-04-06T14:32:37Z</time></trkpt><trkpt lat="40.213644442893106" lon="8.554397712256383"><ele>271.0</ele><time>2026-04-06T14:32:38Z</time></trkpt><trkpt lat="40.21374120996793" lon="8.554242078064728"><ele>271.0</ele><time>2026-04-06T14:32:39Z</time></trkpt><trkpt lat="40.21384086872231" lon="8.554081644577453"><ele>271.0</ele><time>2026-04-06T14:32:40Z</time></trkpt><trkpt lat="40.213940934764274" lon="8.553917693668119"><ele>271.0</ele><time>2026-04-06T14:32:41Z</time></trkpt><trkpt lat="40.21404900240808" lon="8.553732060102066"><ele>271.3333333333333</ele><time>2026-04-06T14:32:42Z</time></trkpt><trkpt lat="40.21415622646312" lon="8.553544232771362"><ele>271.6666666666667</ele><time>2026-04-06T14:32:43Z</time></trkpt><trkpt lat="40.21427131212598" lon="8.553352902786322"><ele>272.0</ele><time>2026-04-06T14:32:44Z</time></trkpt><trkpt lat="40.2143752454486" lon="8.553174964743395"><ele>272.0</ele><time>2026-04-06T14:32:45Z</time></trkpt><trkpt lat="40.21449262444582" lon="8.553012624602417"><ele>272.0</ele><time>2026-04-06T14:32:46Z</time></trkpt><trkpt lat="40.21459254144297" lon="8.552818938426107"><ele>272.0</ele><time>2026-04-06T14:32:47Z</time></trkpt><trkpt lat="40.21471421674075" lon="8.552646961709677"><ele>273.6666666666667</ele><time>2026-04-06T14:32:48Z</time></trkpt><trkpt lat="40.21484277472496" lon="8.552486400919804"><ele>275.3333333333333</ele><time>2026-04-06T14:32:49Z</time></trkpt><trkpt lat="40.21497507232084" lon="8.552338175823651"><ele>277.0</ele><time>2026-04-06T14:32:50Z</time></trkpt><trkpt lat="40.21511906029179" lon="8.552221904041446"><ele>277.0</ele><time>2026-04-06T14:32:51Z</time></trkpt><trkpt lat="40.215259303788756" lon="8.552103641359421"><ele>277.0</ele><time>2026-04-06T14:32:52Z</time></trkpt><trkpt lat="40.21540046970732" lon="8.551973724326519"><ele>277.0</ele><time>2026-04-06T14:32:53Z</time></trkpt><trkpt lat="40.21555801889969" lon="8.551878340613598"><ele>277.3333333333333</ele><time>2026-04-06T14:32:54Z</time></trkpt><trkpt lat="40.215724886804274" lon="8.551790623606095"><ele>277.6666666666667</ele><time>2026-04-06T14:32:55Z</time></trkpt><trkpt lat="40.21589339083197" lon="8.551711798179868"><ele>278.0</ele><time>2026-04-06T14:32:56Z</time></trkpt><trkpt lat="40.2160723764723" lon="8.551646552678347"><ele>278.0</ele><time>2026-04-06T14:32:57Z</time></trkpt><trkpt lat="40.216259389665765" lon="8.551593087949117"><ele>278.0</ele><time>2026-04-06T14:32:58Z</time></trkpt><trkpt lat="40.216466047171906" lon="8.55157601497459"><ele>278.0</ele><time>2026-04-06T14:32:59Z</time></trkpt><trkpt lat="40.21668730780685" lon="8.551526079523736"><ele>277.5</ele><time>2026-04-06T14:33:00Z</time></trkpt><trkpt lat="40.216925578448496" lon="8.551503888714986"><ele>277.0</ele><time>2026-04-06T14:33:01Z</time></trkpt><trkpt lat="40.21716325909355" lon="8.551473576428243"><ele>277.0</ele><time>2026-04-06T14:33:02Z</time></trkpt><trkpt lat="40.21738555213884" lon="8.55144730984476"><ele>277.0</ele><time>2026-04-06T14:33:03Z</time></trkpt><trkpt lat="40.21760184039471" lon="8.551422472833194"><ele>277.0</ele><time>2026-04-06T14:33:04Z</time></trkpt><trkpt lat="40.217821649080214" lon="8.551399342360805"><ele>277.0</ele><time>2026-04-06T14:33:05Z</time></trkpt><trkpt lat="40.21804503484203" lon="8.55137043518802"><ele>277.0</ele><time>2026-04-06T14:33:06Z</time></trkpt><trkpt lat="40.218263771428845" lon="8.55134259686029"><ele>277.0</ele><time>2026-04-06T14:33:07Z</time></trkpt><trkpt lat="40.218483880808925" lon="8.551316663450152"><ele>277.0</ele><time>2026-04-06T14:33:08Z</time></trkpt><trkpt lat="40.21870427981992" lon="8.55129397966502"><ele>277.0</ele><time>2026-04-06T14:33:09Z</time></trkpt><trkpt lat="40.21892325635475" lon="8.551269485781344"><ele>277.0</ele><time>2026-04-06T14:33:10Z</time></trkpt><trkpt lat="40.2191403069664" lon="8.55124670948332"><ele>277.0</ele><time>2026-04-06T14:33:11Z</time></trkpt><trkpt lat="40.21935420242407" lon="8.551219797251703"><ele>277.0</ele><time>2026-04-06T14:33:12Z</time></trkpt><trkpt lat="40.21956139755813" lon="8.551172999534705"><ele>277.0</ele><time>2026-04-06T14:33:13Z</time></trkpt><trkpt lat="40.21975874353395" lon="8.551093431152845"><ele>277.3333333333333</ele><time>2026-04-06T14:33:14Z</time></trkpt><trkpt lat="40.219937374809824" lon="8.550987135638067"><ele>277.6666666666667</ele><time>2026-04-06T14:33:15Z</time></trkpt><trkpt lat="40.22010133604301" lon="8.550845661527363"><ele>278.0</ele><time>2026-04-06T14:33:16Z</time></trkpt><trkpt lat="40.22024648790866" lon="8.550672784181472"><ele>278.0</ele><time>2026-04-06T14:33:17Z</time></trkpt><trkpt lat="40.22036740656278" lon="8.550477299792727"><ele>278.0</ele><time>2026-04-06T14:33:18Z</time></trkpt><trkpt lat="40.22047435023648" lon="8.55025687773143"><ele>278.0</ele><time>2026-04-06T14:33:19Z</time></trkpt><trkpt lat="40.220567839418365" lon="8.550010992111025"><ele>278.0</ele><time>2026-04-06T14:33:20Z</time></trkpt><trkpt lat="40.220656717234654" lon="8.549740173637586"><ele>278.0</ele><time>2026-04-06T14:33:21Z</time></trkpt><trkpt lat="40.22074763112777" lon="8.549461780715635"><ele>278.0</ele><time>2026-04-06T14:33:22Z</time></trkpt><trkpt lat="40.22084438365331" lon="8.549176569339574"><ele>278.0</ele><time>2026-04-06T14:33:23Z</time></trkpt><trkpt lat="40.22094481449672" lon="8.548889526945933"><ele>276.5</ele><time>2026-04-06T14:33:24Z</time></trkpt><trkpt lat="40.22104186632442" lon="8.548608512854964"><ele>275.0</ele><time>2026-04-06T14:33:25Z</time></trkpt><trkpt lat="40.22113332905122" lon="8.548342109033294"><ele>275.0</ele><time>2026-04-06T14:33:26Z</time></trkpt><trkpt lat="40.22122714665394" lon="8.548071879200233"><ele>275.0</ele><time>2026-04-06T14:33:27Z</time></trkpt><trkpt lat="40.22132339750953" lon="8.547797653042135"><ele>276.0</ele><time>2026-04-06T14:33:28Z</time></trkpt><trkpt lat="40.22142298111978" lon="8.547519987595479"><ele>277.0</ele><time>2026-04-06T14:33:29Z</time></trkpt><trkpt lat="40.22152071334122" lon="8.547238171719881"><ele>276.0</ele><time>2026-04-06T14:33:30Z</time></trkpt><trkpt lat="40.22161946498213" lon="8.546949133618757"><ele>275.0</ele><time>2026-04-06T14:33:31Z</time></trkpt><trkpt lat="40.22171913237801" lon="8.546663349495496"><ele>275.0</ele><time>2026-04-06T14:33:32Z</time></trkpt><trkpt lat="40.221818752839646" lon="8.546377211763554"><ele>275.0</ele><time>2026-04-06T14:33:33Z</time></trkpt><trkpt lat="40.22191504643071" lon="8.546100215992361"><ele>274.33333333333337</ele><time>2026-04-06T14:33:34Z</time></trkpt><trkpt lat="40.222005272103665" lon="8.545833349955899"><ele>273.6666666666667</ele><time>2026-04-06T14:33:35Z</time></trkpt><trkpt lat="40.222089709211815" lon="8.545586968287605"><ele>273.0</ele><time>2026-04-06T14:33:36Z</time></trkpt><trkpt lat="40.22218892509469" lon="8.54536659849054"><ele>272.6666666666667</ele><time>2026-04-06T14:33:37Z</time></trkpt><trkpt lat="40.222261869882985" lon="8.54513236241572"><ele>272.33333333333337</ele><time>2026-04-06T14:33:38Z</time></trkpt><trkpt lat="40.222376018814515" lon="8.54492791572462"><ele>272.0</ele><time>2026-04-06T14:33:39Z</time></trkpt><trkpt lat="40.22248787664123" lon="8.544720913173448"><ele>272.6666666666667</ele><time>2026-04-06T14:33:40Z</time></trkpt><trkpt lat="40.22260958972992" lon="8.544527390151773"><ele>273.3333333333333</ele><time>2026-04-06T14:33:41Z</time></trkpt><trkpt lat="40.22273124902236" lon="8.544319031433652"><ele>274.0</ele><time>2026-04-06T14:33:42Z</time></trkpt><trkpt lat="40.222877467625565" lon="8.544140649237866"><ele>274.0</ele><time>2026-04-06T14:33:43Z</time></trkpt><trkpt lat="40.22304378478898" lon="8.543983883994505"><ele>274.0</ele><time>2026-04-06T14:33:44Z</time></trkpt><trkpt lat="40.22320538932353" lon="8.543811432868415"><ele>274.0</ele><time>2026-04-06T14:33:45Z</time></trkpt><trkpt lat="40.22335904841767" lon="8.543622405723603"><ele>275.0</ele><time>2026-04-06T14:33:46Z</time></trkpt><trkpt lat="40.223521380982575" lon="8.543448400728453"><ele>276.0</ele><time>2026-04-06T14:33:47Z</time></trkpt><trkpt lat="40.22368666861433" lon="8.543272526371075"><ele>277.0</ele><time>2026-04-06T14:33:48Z</time></trkpt><trkpt lat="40.22384707443415" lon="8.543103450053637"><ele>276.66666666666663</ele><time>2026-04-06T14:33:49Z</time></trkpt><trkpt lat="40.22399543955895" lon="8.542946368063644"><ele>276.3333333333333</ele><time>2026-04-06T14:33:50Z</time></trkpt><trkpt lat="40.22413907191282" lon="8.54279546305116"><ele>276.0</ele><time>2026-04-06T14:33:51Z</time></trkpt><trkpt lat="40.224277617642855" lon="8.542645889843422"><ele>276.0</ele><time>2026-04-06T14:33:52Z</time></trkpt><trkpt lat="40.22443076743774" lon="8.542509176091913"><ele>276.0</ele><time>2026-04-06T14:33:53Z</time></trkpt><trkpt lat="40.22456705790901" lon="8.542338154427123"><ele>276.0</ele><time>2026-04-06T14:33:54Z</time></trkpt><trkpt lat="40.22471559881786" lon="8.542179570255932"><ele>275.6666666666667</ele><time>2026-04-06T14:33:55Z</time></trkpt><trkpt lat="40.22486621909724" lon="8.542018857868314"><ele>275.33333333333337</ele><time>2026-04-06T14:33:56Z</time></trkpt><trkpt lat="40.22503162954946" lon="8.541868639392606"><ele>275.0</ele><time>2026-04-06T14:33:57Z</time></trkpt><trkpt lat="40.22519886956337" lon="8.54169109192778"><ele>275.0</ele><time>2026-04-06T14:33:58Z</time></trkpt><trkpt lat="40.22537696836859" lon="8.541502016348032"><ele>275.0</ele><time>2026-04-06T14:33:59Z</time></trkpt><trkpt lat="40.2255654194886" lon="8.541301950635338"><ele>274.5</ele><time>2026-04-06T14:34:00Z</time></trkpt><trkpt lat="40.22576341100977" lon="8.541091756220812"><ele>274.0</ele><time>2026-04-06T14:34:01Z</time></trkpt><trkpt lat="40.225972879355595" lon="8.54086937862291"><ele>274.0</ele><time>2026-04-06T14:34:02Z</time></trkpt><trkpt lat="40.22619333068342" lon="8.540635171069313"><ele>274.0</ele><time>2026-04-06T14:34:03Z</time></trkpt><trkpt lat="40.22641873225505" lon="8.54039518625949"><ele>273.5</ele><time>2026-04-06T14:34:04Z</time></trkpt><trkpt lat="40.22664761111425" lon="8.54015149889185"><ele>273.0</ele><time>2026-04-06T14:34:05Z</time></trkpt><trkpt lat="40.22687439293804" lon="8.539910562611615"><ele>273.0</ele><time>2026-04-06T14:34:06Z</time></trkpt><trkpt lat="40.22709637239669" lon="8.539675898683683"><ele>273.0</ele><time>2026-04-06T14:34:07Z</time></trkpt><trkpt lat="40.22729772813314" lon="8.539462517407705"><ele>274.0</ele><time>2026-04-06T14:34:08Z</time></trkpt><trkpt lat="40.22749039081769" lon="8.539258220003534"><ele>275.0</ele><time>2026-04-06T14:34:09Z</time></trkpt><trkpt lat="40.227671862488435" lon="8.539038886947768"><ele>275.0</ele><time>2026-04-06T14:34:10Z</time></trkpt><trkpt lat="40.227867937082856" lon="8.538832016119985"><ele>275.0</ele><time>2026-04-06T14:34:11Z</time></trkpt><trkpt lat="40.228057722009254" lon="8.538628768178931"><ele>275.0</ele><time>2026-04-06T14:34:12Z</time></trkpt><trkpt lat="40.22824914472816" lon="8.538451654139658"><ele>275.0</ele><time>2026-04-06T14:34:13Z</time></trkpt><trkpt lat="40.228427987588525" lon="8.538261541629925"><ele>275.0</ele><time>2026-04-06T14:34:14Z</time></trkpt><trkpt lat="40.228603316893555" lon="8.538075158278396"><ele>275.0</ele><time>2026-04-06T14:34:15Z</time></trkpt><trkpt lat="40.22877702714915" lon="8.537890495478043"><ele>275.0</ele><time>2026-04-06T14:34:16Z</time></trkpt><trkpt lat="40.228941210961494" lon="8.537683125283536"><ele>275.0</ele><time>2026-04-06T14:34:17Z</time></trkpt><trkpt lat="40.22911777714954" lon="8.537494340684034"><ele>275.0</ele><time>2026-04-06T14:34:18Z</time></trkpt><trkpt lat="40.22929467867461" lon="8.537300742767291"><ele>275.0</ele><time>2026-04-06T14:34:19Z</time></trkpt><trkpt lat="40.229477269785356" lon="8.537101999052586"><ele>273.0</ele><time>2026-04-06T14:34:20Z</time></trkpt><trkpt lat="40.229661558662706" lon="8.53690349193261"><ele>271.0</ele><time>2026-04-06T14:34:21Z</time></trkpt><trkpt lat="40.22985046482357" lon="8.536699801577091"><ele>271.0</ele><time>2026-04-06T14:34:22Z</time></trkpt><trkpt lat="40.230029041164094" lon="8.536507691350884"><ele>271.0</ele><time>2026-04-06T14:34:23Z</time></trkpt><trkpt lat="40.23019900746028" lon="8.536325104453644"><ele>270.0</ele><time>2026-04-06T14:34:24Z</time></trkpt><trkpt lat="40.2303547813827" lon="8.536157014112911"><ele>269.0</ele><time>2026-04-06T14:34:25Z</time></trkpt><trkpt lat="40.230506356029245" lon="8.535993773190897"><ele>268.0</ele><time>2026-04-06T14:34:26Z</time></trkpt><trkpt lat="40.230650378225846" lon="8.535840628763067"><ele>268.0</ele><time>2026-04-06T14:34:27Z</time></trkpt><trkpt lat="40.23078032508003" lon="8.535708711308374"><ele>268.0</ele><time>2026-04-06T14:34:28Z</time></trkpt><trkpt lat="40.23091265287235" lon="8.535592172838886"><ele>268.0</ele><time>2026-04-06T14:34:29Z</time></trkpt><trkpt lat="40.23104904426105" lon="8.535501951227264"><ele>268.0</ele><time>2026-04-06T14:34:30Z</time></trkpt><trkpt lat="40.2311989619307" lon="8.53545220294691"><ele>268.0</ele><time>2026-04-06T14:34:31Z</time></trkpt><trkpt lat="40.231358196070076" lon="8.535430816449047"><ele>268.0</ele><time>2026-04-06T14:34:32Z</time></trkpt><trkpt lat="40.231515882622816" lon="8.535457195675184"><ele>265.66666666666663</ele><time>2026-04-06T14:34:33Z</time></trkpt><trkpt lat="40.23168192084779" lon="8.535533692118042"><ele>263.3333333333333</ele><time>2026-04-06T14:34:34Z</time></trkpt><trkpt lat="40.23185256492341" lon="8.535637804077654"><ele>261.0</ele><time>2026-04-06T14:34:35Z</time></trkpt><trkpt lat="40.2320167261498" lon="8.535757480047707"><ele>261.0</ele><time>2026-04-06T14:34:36Z</time></trkpt><trkpt lat="40.23214951274459" lon="8.535858503936883"><ele>261.0</ele><time>2026-04-06T14:34:37Z</time></trkpt><trkpt lat="40.232252240007135" lon="8.535954078059815"><ele>261.0</ele><time>2026-04-06T14:34:38Z</time></trkpt><trkpt lat="40.232326926543834" lon="8.536080661762924"><ele>261.0</ele><time>2026-04-06T14:34:39Z</time></trkpt><trkpt lat="40.232381598958675" lon="8.536256782298095"><ele>255.66666666666669</ele><time>2026-04-06T14:34:40Z</time></trkpt><trkpt lat="40.23241018881862" lon="8.536473470834645"><ele>250.33333333333334</ele><time>2026-04-06T14:34:41Z</time></trkpt><trkpt lat="40.232429331817016" lon="8.536711519005015"><ele>245.0</ele><time>2026-04-06T14:34:42Z</time></trkpt><trkpt lat="40.23244936898705" lon="8.536944628723854"><ele>245.0</ele><time>2026-04-06T14:34:43Z</time></trkpt><trkpt lat="40.23247370438962" lon="8.537158873266273"><ele>245.0</ele><time>2026-04-06T14:34:44Z</time></trkpt><trkpt lat="40.232502319967985" lon="8.537363672978856"><ele>245.0</ele><time>2026-04-06T14:34:45Z</time></trkpt><trkpt lat="40.23253464364757" lon="8.537583216912079"><ele>245.0</ele><time>2026-04-06T14:34:46Z</time></trkpt><trkpt lat="40.232556788301416" lon="8.537788996772262"><ele>245.0</ele><time>2026-04-06T14:34:47Z</time></trkpt><trkpt lat="40.23256175597339" lon="8.538004796460928"><ele>245.0</ele><time>2026-04-06T14:34:48Z</time></trkpt><trkpt lat="40.23252671392741" lon="8.538226428297147"><ele>242.66666666666669</ele><time>2026-04-06T14:34:49Z</time></trkpt><trkpt lat="40.23246506459995" lon="8.538465411883806"><ele>240.33333333333331</ele><time>2026-04-06T14:34:50Z</time></trkpt><trkpt lat="40.23239378010193" lon="8.53869998427327"><ele>238.0</ele><time>2026-04-06T14:34:51Z</time></trkpt><trkpt lat="40.23233548657644" lon="8.538905687763712"><ele>237.0</ele><time>2026-04-06T14:34:52Z</time></trkpt><trkpt lat="40.23229306426533" lon="8.539069278732436"><ele>236.0</ele><time>2026-04-06T14:34:53Z</time></trkpt><trkpt lat="40.23226481044192" lon="8.539204149841195"><ele>235.0</ele><time>2026-04-06T14:34:54Z</time></trkpt><trkpt lat="40.232274851326615" lon="8.539326803564402"><ele>234.0</ele><time>2026-04-06T14:34:55Z</time></trkpt><trkpt lat="40.23232043609971" lon="8.539437038651485"><ele>233.0</ele><time>2026-04-06T14:34:56Z</time></trkpt><trkpt lat="40.232410041585624" lon="8.539510133850838"><ele>233.0</ele><time>2026-04-06T14:34:57Z</time></trkpt><trkpt lat="40.23252173556055" lon="8.539562330630815"><ele>233.0</ele><time>2026-04-06T14:34:58Z</time></trkpt><trkpt lat="40.23262832999046" lon="8.539634823830804"><ele>233.0</ele><time>2026-04-06T14:34:59Z</time></trkpt><trkpt lat="40.23274238994521" lon="8.539671389240771"><ele>233.0</ele><time>2026-04-06T14:35:00Z</time></trkpt><trkpt lat="40.232843950347565" lon="8.539646472105408"><ele>233.0</ele><time>2026-04-06T14:35:01Z</time></trkpt><trkpt lat="40.23294392558401" lon="8.539565804915073"><ele>233.0</ele><time>2026-04-06T14:35:02Z</time></trkpt><trkpt lat="40.23303091001213" lon="8.539435941680074"><ele>233.0</ele><time>2026-04-06T14:35:03Z</time></trkpt><trkpt lat="40.23312664685345" lon="8.539274966292922"><ele>233.0</ele><time>2026-04-06T14:35:04Z</time></trkpt><trkpt lat="40.23323888034398" lon="8.53911464520825"><ele>232.33333333333334</ele><time>2026-04-06T14:35:05Z</time></trkpt><trkpt lat="40.23335952647083" lon="8.538941891995467"><ele>231.66666666666669</ele><time>2026-04-06T14:35:06Z</time></trkpt><trkpt lat="40.23348022180269" lon="8.538762968547188"><ele>231.0</ele><time>2026-04-06T14:35:07Z</time></trkpt><trkpt lat="40.23358217330215" lon="8.538605182672281"><ele>231.0</ele><time>2026-04-06T14:35:08Z</time></trkpt><trkpt lat="40.23370549593363" lon="8.538425363953682"><ele>231.0</ele><time>2026-04-06T14:35:09Z</time></trkpt><trkpt lat="40.23383470026642" lon="8.538225240791819"><ele>231.0</ele><time>2026-04-06T14:35:10Z</time></trkpt><trkpt lat="40.23395859989964" lon="8.5380045056833"><ele>236.0</ele><time>2026-04-06T14:35:11Z</time></trkpt><trkpt lat="40.23407692121833" lon="8.53776481261671"><ele>241.0</ele><time>2026-04-06T14:35:12Z</time></trkpt><trkpt lat="40.23418002078537" lon="8.537535220685914"><ele>246.0</ele><time>2026-04-06T14:35:13Z</time></trkpt><trkpt lat="40.23428041128036" lon="8.537325138413706"><ele>246.0</ele><time>2026-04-06T14:35:14Z</time></trkpt><trkpt lat="40.23437022834411" lon="8.537099589577192"><ele>246.0</ele><time>2026-04-06T14:35:15Z</time></trkpt><trkpt lat="40.23443381979745" lon="8.536859804598134"><ele>246.0</ele><time>2026-04-06T14:35:16Z</time></trkpt><trkpt lat="40.234490003840726" lon="8.536640117773132"><ele>244.75</ele><time>2026-04-06T14:35:17Z</time></trkpt><trkpt lat="40.23454162836694" lon="8.536447799280046"><ele>243.5</ele><time>2026-04-06T14:35:18Z</time></trkpt><trkpt lat="40.234586355623826" lon="8.536269650436997"><ele>242.25</ele><time>2026-04-06T14:35:19Z</time></trkpt><trkpt lat="40.23464089386238" lon="8.536088449319381"><ele>241.0</ele><time>2026-04-06T14:35:20Z</time></trkpt><trkpt lat="40.23471527147252" lon="8.53590568623933"><ele>241.33333333333331</ele><time>2026-04-06T14:35:21Z</time></trkpt><trkpt lat="40.2348257745786" lon="8.535730470177324"><ele>241.66666666666669</ele><time>2026-04-06T14:35:22Z</time></trkpt><trkpt lat="40.234922416657845" lon="8.535535444175835"><ele>242.0</ele><time>2026-04-06T14:35:23Z</time></trkpt><trkpt lat="40.23502525402097" lon="8.535343389752555"><ele>242.0</ele><time>2026-04-06T14:35:24Z</time></trkpt><trkpt lat="40.235140453971354" lon="8.535158893386095"><ele>242.0</ele><time>2026-04-06T14:35:25Z</time></trkpt><trkpt lat="40.235273943235704" lon="8.534994804862688"><ele>242.0</ele><time>2026-04-06T14:35:26Z</time></trkpt><trkpt lat="40.23542592942682" lon="8.534859183776307"><ele>242.0</ele><time>2026-04-06T14:35:27Z</time></trkpt><trkpt lat="40.23558590902247" lon="8.534731181366515"><ele>242.0</ele><time>2026-04-06T14:35:28Z</time></trkpt><trkpt lat="40.23572967320888" lon="8.534588561861387"><ele>242.0</ele><time>2026-04-06T14:35:29Z</time></trkpt><trkpt lat="40.235881555562536" lon="8.534455878620324"><ele>244.33333333333334</ele><time>2026-04-06T14:35:30Z</time></trkpt><trkpt lat="40.236013249775255" lon="8.53428946929225"><ele>246.66666666666669</ele><time>2026-04-06T14:35:31Z</time></trkpt><trkpt lat="40.236132211302184" lon="8.534097256260795"><ele>249.0</ele><time>2026-04-06T14:35:32Z</time></trkpt><trkpt lat="40.23623962907376" lon="8.533894414679114"><ele>249.33333333333331</ele><time>2026-04-06T14:35:33Z</time></trkpt><trkpt lat="40.23634381828043" lon="8.533680493339869"><ele>249.66666666666666</ele><time>2026-04-06T14:35:34Z</time></trkpt><trkpt lat="40.236448480137774" lon="8.53347211383216"><ele>250.0</ele><time>2026-04-06T14:35:35Z</time></trkpt><trkpt lat="40.23656058586811" lon="8.533255365616375"><ele>250.0</ele><time>2026-04-06T14:35:36Z</time></trkpt><trkpt lat="40.23667897545747" lon="8.533035800042715"><ele>250.0</ele><time>2026-04-06T14:35:37Z</time></trkpt><trkpt lat="40.236807444360444" lon="8.532808903721737"><ele>250.0</ele><time>2026-04-06T14:35:38Z</time></trkpt><trkpt lat="40.23693919753186" lon="8.532590515702749"><ele>250.33333333333331</ele><time>2026-04-06T14:35:39Z</time></trkpt><trkpt lat="40.23707800979252" lon="8.532368848229027"><ele>250.66666666666669</ele><time>2026-04-06T14:35:40Z</time></trkpt><trkpt lat="40.23721604343571" lon="8.532147008011332"><ele>251.0</ele><time>2026-04-06T14:35:41Z</time></trkpt><trkpt lat="40.237353799254834" lon="8.531920588083024"><ele>248.33333333333334</ele><time>2026-04-06T14:35:42Z</time></trkpt><trkpt lat="40.23749503096638" lon="8.531694637062614"><ele>245.66666666666669</ele><time>2026-04-06T14:35:43Z</time></trkpt><trkpt lat="40.237637818641396" lon="8.531474026913338"><ele>243.0</ele><time>2026-04-06T14:35:44Z</time></trkpt><trkpt lat="40.23778068365335" lon="8.53124795073843"><ele>244.66666666666669</ele><time>2026-04-06T14:35:45Z</time></trkpt><trkpt lat="40.23792000120298" lon="8.531020717959889"><ele>246.33333333333334</ele><time>2026-04-06T14:35:46Z</time></trkpt><trkpt lat="40.23806308402281" lon="8.530791683308445"><ele>248.0</ele><time>2026-04-06T14:35:47Z</time></trkpt><trkpt lat="40.23820744379553" lon="8.53056387711629"><ele>243.5</ele><time>2026-04-06T14:35:48Z</time></trkpt><trkpt lat="40.23834936758103" lon="8.530334560335598"><ele>239.0</ele><time>2026-04-06T14:35:49Z</time></trkpt><trkpt lat="40.238490686601324" lon="8.53010199824556"><ele>239.0</ele><time>2026-04-06T14:35:50Z</time></trkpt><trkpt lat="40.238634092016625" lon="8.529873547794011"><ele>239.0</ele><time>2026-04-06T14:35:51Z</time></trkpt><trkpt lat="40.23878216145434" lon="8.5296443624016"><ele>239.0</ele><time>2026-04-06T14:35:52Z</time></trkpt><trkpt lat="40.23892512197092" lon="8.529420681738088"><ele>239.0</ele><time>2026-04-06T14:35:53Z</time></trkpt><trkpt lat="40.23906471571626" lon="8.529195206563635"><ele>239.0</ele><time>2026-04-06T14:35:54Z</time></trkpt><trkpt lat="40.239194310817005" lon="8.528984707933452"><ele>237.33333333333334</ele><time>2026-04-06T14:35:55Z</time></trkpt><trkpt lat="40.2393289021787" lon="8.528800851018332"><ele>235.66666666666669</ele><time>2026-04-06T14:35:56Z</time></trkpt><trkpt lat="40.23944753450985" lon="8.528618092264141"><ele>234.0</ele><time>2026-04-06T14:35:57Z</time></trkpt><trkpt lat="40.2395648813943" lon="8.528459592580056"><ele>234.0</ele><time>2026-04-06T14:35:58Z</time></trkpt><trkpt lat="40.23969625123235" lon="8.52832157081054"><ele>234.0</ele><time>2026-04-06T14:35:59Z</time></trkpt><trkpt lat="40.23985029940361" lon="8.528207081734767"><ele>234.0</ele><time>2026-04-06T14:36:00Z</time></trkpt><trkpt lat="40.240020567445704" lon="8.528125758582325"><ele>234.33333333333331</ele><time>2026-04-06T14:36:01Z</time></trkpt><trkpt lat="40.24021148653888" lon="8.528057537073723"><ele>234.66666666666666</ele><time>2026-04-06T14:36:02Z</time></trkpt><trkpt lat="40.24039448008442" lon="8.527969223965203"><ele>235.0</ele><time>2026-04-06T14:36:03Z</time></trkpt><trkpt lat="40.24057057879663" lon="8.52789595153399"><ele>236.66666666666666</ele><time>2026-04-06T14:36:04Z</time></trkpt><trkpt lat="40.2407289943749" lon="8.527776322134471"><ele>238.33333333333331</ele><time>2026-04-06T14:36:05Z</time></trkpt><trkpt lat="40.24088794402227" lon="8.527621426365215"><ele>240.0</ele><time>2026-04-06T14:36:06Z</time></trkpt><trkpt lat="40.241033019414864" lon="8.527421826644117"><ele>240.0</ele><time>2026-04-06T14:36:07Z</time></trkpt><trkpt lat="40.241176685510936" lon="8.527205137165161"><ele>240.0</ele><time>2026-04-06T14:36:08Z</time></trkpt><trkpt lat="40.24132122956517" lon="8.526973775732515"><ele>240.0</ele><time>2026-04-06T14:36:09Z</time></trkpt><trkpt lat="40.241467518245955" lon="8.526758725338444"><ele>240.66666666666669</ele><time>2026-04-06T14:36:10Z</time></trkpt><trkpt lat="40.241598914968336" lon="8.526568957180288"><ele>241.33333333333334</ele><time>2026-04-06T14:36:11Z</time></trkpt><trkpt lat="40.2417196709579" lon="8.526393044421443"><ele>242.0</ele><time>2026-04-06T14:36:12Z</time></trkpt><trkpt lat="40.24183328659448" lon="8.526226784238915"><ele>243.75</ele><time>2026-04-06T14:36:13Z</time></trkpt><trkpt lat="40.241940643433594" lon="8.526074390501268"><ele>245.5</ele><time>2026-04-06T14:36:14Z</time></trkpt><trkpt lat="40.242044395487916" lon="8.52593958924313"><ele>247.25</ele><time>2026-04-06T14:36:15Z</time></trkpt><trkpt lat="40.24215263468522" lon="8.525839609802969"><ele>249.0</ele><time>2026-04-06T14:36:16Z</time></trkpt><trkpt lat="40.2422674467837" lon="8.525764297999332"><ele>248.2</ele><time>2026-04-06T14:36:17Z</time></trkpt><trkpt lat="40.242379337655734" lon="8.52571222570065"><ele>247.39999999999998</ele><time>2026-04-06T14:36:18Z</time></trkpt><trkpt lat="40.24246879436006" lon="8.525649151741696"><ele>246.6</ele><time>2026-04-06T14:36:19Z</time></trkpt><trkpt lat="40.24253611303062" lon="8.525557298140384"><ele>245.8</ele><time>2026-04-06T14:36:20Z</time></trkpt><trkpt lat="40.242599513938934" lon="8.52545806943801"><ele>245.0</ele><time>2026-04-06T14:36:21Z</time></trkpt><trkpt lat="40.24268941986303" lon="8.525395749114818"><ele>245.0</ele><time>2026-04-06T14:36:22Z</time></trkpt><trkpt lat="40.24281077390252" lon="8.525391894330046"><ele>245.0</ele><time>2026-04-06T14:36:23Z</time></trkpt><trkpt lat="40.24295560907776" lon="8.52543860302454"><ele>245.0</ele><time>2026-04-06T14:36:24Z</time></trkpt><trkpt lat="40.24310910379823" lon="8.525489956691581"><ele>245.0</ele><time>2026-04-06T14:36:25Z</time></trkpt><trkpt lat="40.24327128419247" lon="8.525552504831174"><ele>245.5</ele><time>2026-04-06T14:36:26Z</time></trkpt><trkpt lat="40.24341672983609" lon="8.52562221843737"><ele>246.0</ele><time>2026-04-06T14:36:27Z</time></trkpt><trkpt lat="40.243544789226576" lon="8.52568782331538"><ele>246.5</ele><time>2026-04-06T14:36:28Z</time></trkpt><trkpt lat="40.24367460252499" lon="8.525755543478544"><ele>247.0</ele><time>2026-04-06T14:36:29Z</time></trkpt><trkpt lat="40.24380436490877" lon="8.525819539476908"><ele>247.0</ele><time>2026-04-06T14:36:30Z</time></trkpt><trkpt lat="40.2439076303234" lon="8.525863366463842"><ele>247.0</ele><time>2026-04-06T14:36:31Z</time></trkpt><trkpt lat="40.243999746220155" lon="8.52586626683108"><ele>247.0</ele><time>2026-04-06T14:36:32Z</time></trkpt><trkpt lat="40.244088968194085" lon="8.525811031246265"><ele>247.0</ele><time>2026-04-06T14:36:33Z</time></trkpt><trkpt lat="40.2441729169462" lon="8.525709588637008"><ele>247.0</ele><time>2026-04-06T14:36:34Z</time></trkpt><trkpt lat="40.24424195642209" lon="8.525573394445146"><ele>247.5</ele><time>2026-04-06T14:36:35Z</time></trkpt><trkpt lat="40.244304869263914" lon="8.52541610298626"><ele>248.0</ele><time>2026-04-06T14:36:36Z</time></trkpt><trkpt lat="40.24436810863848" lon="8.525253642591789"><ele>248.5</ele><time>2026-04-06T14:36:37Z</time></trkpt><trkpt lat="40.244431282617036" lon="8.525080932100083"><ele>249.0</ele><time>2026-04-06T14:36:38Z</time></trkpt><trkpt lat="40.244493605453556" lon="8.524884125987999"><ele>251.33333333333331</ele><time>2026-04-06T14:36:39Z</time></trkpt><trkpt lat="40.2445379172896" lon="8.52466119212652"><ele>253.66666666666666</ele><time>2026-04-06T14:36:40Z</time></trkpt><trkpt lat="40.24455420299329" lon="8.524427071921345"><ele>256.0</ele><time>2026-04-06T14:36:41Z</time></trkpt><trkpt lat="40.24456316448567" lon="8.524210348666402"><ele>257.0</ele><time>2026-04-06T14:36:42Z</time></trkpt><trkpt lat="40.244585252427875" lon="8.52399460897582"><ele>258.0</ele><time>2026-04-06T14:36:43Z</time></trkpt><trkpt lat="40.24461633504559" lon="8.523773453922784"><ele>259.0</ele><time>2026-04-06T14:36:44Z</time></trkpt><trkpt lat="40.24466398205384" lon="8.523570662730828"><ele>260.3333333333333</ele><time>2026-04-06T14:36:45Z</time></trkpt><trkpt lat="40.24473801618587" lon="8.523376271012"><ele>261.6666666666667</ele><time>2026-04-06T14:36:46Z</time></trkpt><trkpt lat="40.244833338923655" lon="8.52318276659332"><ele>263.0</ele><time>2026-04-06T14:36:47Z</time></trkpt><trkpt lat="40.24494638384467" lon="8.522996248861329"><ele>261.33333333333337</ele><time>2026-04-06T14:36:48Z</time></trkpt><trkpt lat="40.24506992399096" lon="8.522830590140364"><ele>259.6666666666667</ele><time>2026-04-06T14:36:49Z</time></trkpt><trkpt lat="40.24520872479476" lon="8.52269898079256"><ele>258.0</ele><time>2026-04-06T14:36:50Z</time></trkpt><trkpt lat="40.245367526603886" lon="8.522607320073227"><ele>258.0</ele><time>2026-04-06T14:36:51Z</time></trkpt><trkpt lat="40.24554056158555" lon="8.522561453867747"><ele>258.0</ele><time>2026-04-06T14:36:52Z</time></trkpt><trkpt lat="40.24572060890093" lon="8.522553326815576"><ele>258.0</ele><time>2026-04-06T14:36:53Z</time></trkpt><trkpt lat="40.24590393846585" lon="8.522545015303665"><ele>256.0</ele><time>2026-04-06T14:36:54Z</time></trkpt><trkpt lat="40.2460902688512" lon="8.522500876197416"><ele>254.0</ele><time>2026-04-06T14:36:55Z</time></trkpt><trkpt lat="40.24627577665033" lon="8.52243192086694"><ele>252.0</ele><time>2026-04-06T14:36:56Z</time></trkpt><trkpt lat="40.24646099792259" lon="8.52236052251309"><ele>251.33333333333331</ele><time>2026-04-06T14:36:57Z</time></trkpt><trkpt lat="40.246630428101035" lon="8.522291076909658"><ele>250.66666666666666</ele><time>2026-04-06T14:36:58Z</time></trkpt><trkpt lat="40.246790227409065" lon="8.52222060939196"><ele>250.0</ele><time>2026-04-06T14:36:59Z</time></trkpt><trkpt lat="40.246951546942306" lon="8.52215214741556"><ele>250.0</ele><time>2026-04-06T14:37:00Z</time></trkpt><trkpt lat="40.247118836289204" lon="8.522085582109954"><ele>250.0</ele><time>2026-04-06T14:37:01Z</time></trkpt><trkpt lat="40.24729338872972" lon="8.522016540842564"><ele>250.0</ele><time>2026-04-06T14:37:02Z</time></trkpt><trkpt lat="40.24745051103855" lon="8.521953080791333"><ele>252.33333333333331</ele><time>2026-04-06T14:37:03Z</time></trkpt><trkpt lat="40.24760581649162" lon="8.521887084287016"><ele>254.66666666666669</ele><time>2026-04-06T14:37:04Z</time></trkpt><trkpt lat="40.24775459743759" lon="8.521827885878087"><ele>257.0</ele><time>2026-04-06T14:37:05Z</time></trkpt><trkpt lat="40.24790484919663" lon="8.521768574890936"><ele>257.0</ele><time>2026-04-06T14:37:06Z</time></trkpt><trkpt lat="40.24805922732204" lon="8.521705729013235"><ele>257.0</ele><time>2026-04-06T14:37:07Z</time></trkpt><trkpt lat="40.248209370646826" lon="8.521644237568491"><ele>257.0</ele><time>2026-04-06T14:37:08Z</time></trkpt><trkpt lat="40.24835694918342" lon="8.521585933861596"><ele>255.66666666666669</ele><time>2026-04-06T14:37:09Z</time></trkpt><trkpt lat="40.24850384789512" lon="8.521527273016634"><ele>254.33333333333331</ele><time>2026-04-06T14:37:10Z</time></trkpt><trkpt lat="40.248651280639514" lon="8.52146550913979"><ele>253.0</ele><time>2026-04-06T14:37:11Z</time></trkpt><trkpt lat="40.248793859041015" lon="8.521404115457743"><ele>253.0</ele><time>2026-04-06T14:37:12Z</time></trkpt><trkpt lat="40.24893176781706" lon="8.521336731849946"><ele>253.0</ele><time>2026-04-06T14:37:13Z</time></trkpt><trkpt lat="40.24906265220104" lon="8.521259196082305"><ele>253.0</ele><time>2026-04-06T14:37:14Z</time></trkpt><trkpt lat="40.24919649497894" lon="8.521173977784805"><ele>253.0</ele><time>2026-04-06T14:37:15Z</time></trkpt><trkpt lat="40.24931817323269" lon="8.521065079106293"><ele>254.0</ele><time>2026-04-06T14:37:16Z</time></trkpt><trkpt lat="40.2494344522889" lon="8.520963616074747"><ele>255.0</ele><time>2026-04-06T14:37:17Z</time></trkpt><trkpt lat="40.24954339227595" lon="8.520868726281837"><ele>256.0</ele><time>2026-04-06T14:37:18Z</time></trkpt><trkpt lat="40.249646408133415" lon="8.520783586058887"><ele>257.0</ele><time>2026-04-06T14:37:19Z</time></trkpt><trkpt lat="40.24974682516671" lon="8.520713626502824"><ele>256.25</ele><time>2026-04-06T14:37:20Z</time></trkpt><trkpt lat="40.24985177871027" lon="8.520641594088472"><ele>255.5</ele><time>2026-04-06T14:37:21Z</time></trkpt><trkpt lat="40.24996307695752" lon="8.52057469012031"><ele>254.75</ele><time>2026-04-06T14:37:22Z</time></trkpt><trkpt lat="40.250070665611645" lon="8.520512386666232"><ele>254.0</ele><time>2026-04-06T14:37:23Z</time></trkpt><trkpt lat="40.25017560868324" lon="8.520450948241422"><ele>255.2</ele><time>2026-04-06T14:37:24Z</time></trkpt><trkpt lat="40.25027455180527" lon="8.520390778952107"><ele>256.4</ele><time>2026-04-06T14:37:25Z</time></trkpt><trkpt lat="40.25036546755509" lon="8.520335228148143"><ele>257.6</ele><time>2026-04-06T14:37:26Z</time></trkpt><trkpt lat="40.25045175779764" lon="8.520289847356958"><ele>258.8</ele><time>2026-04-06T14:37:27Z</time></trkpt><trkpt lat="40.250531133040944" lon="8.520243393202993"><ele>260.0</ele><time>2026-04-06T14:37:28Z</time></trkpt><trkpt lat="40.25061279800364" lon="8.520194469148832"><ele>259.6</ele><time>2026-04-06T14:37:29Z</time></trkpt><trkpt lat="40.250700116788515" lon="8.52014236324314"><ele>259.2</ele><time>2026-04-06T14:37:30Z</time></trkpt><trkpt lat="40.25078786199265" lon="8.520089936546286"><ele>258.8</ele><time>2026-04-06T14:37:31Z</time></trkpt><trkpt lat="40.25087622598896" lon="8.520025563195524"><ele>258.4</ele><time>2026-04-06T14:37:32Z</time></trkpt><trkpt lat="40.25095877599179" lon="8.51994499609446"><ele>258.0</ele><time>2026-04-06T14:37:33Z</time></trkpt><trkpt lat="40.251036586361195" lon="8.519852894209567"><ele>258.0</ele><time>2026-04-06T14:37:34Z</time></trkpt><trkpt lat="40.25111094297531" lon="8.519765637965397"><ele>258.0</ele><time>2026-04-06T14:37:35Z</time></trkpt><trkpt lat="40.25119043546178" lon="8.51974037825461"><ele>258.0</ele><time>2026-04-06T14:37:36Z</time></trkpt><trkpt lat="40.25126103004629" lon="8.519717462455503"><ele>258.0</ele><time>2026-04-06T14:37:37Z</time></trkpt><trkpt lat="40.25132529510781" lon="8.519710187700607"><ele>258.0</ele><time>2026-04-06T14:37:38Z</time></trkpt><trkpt lat="40.25144275579722" lon="8.51976136570544"><ele>258.0</ele><time>2026-04-06T14:37:40Z</time></trkpt><trkpt lat="40.25149889118798" lon="8.519805484715688"><ele>258.3333333333333</ele><time>2026-04-06T14:37:41Z</time></trkpt><trkpt lat="40.25154843681601" lon="8.519900292276976"><ele>258.6666666666667</ele><time>2026-04-06T14:37:42Z</time></trkpt><trkpt lat="40.25159756477163" lon="8.51997523203708"><ele>259.0</ele><time>2026-04-06T14:37:43Z</time></trkpt><trkpt lat="40.25166370002107" lon="8.520047786209252"><ele>259.33333333333337</ele><time>2026-04-06T14:37:44Z</time></trkpt><trkpt lat="40.251717100066294" lon="8.52013175242427"><ele>259.6666666666667</ele><time>2026-04-06T14:37:45Z</time></trkpt><trkpt lat="40.25177538633074" lon="8.520216491731748"><ele>260.0</ele><time>2026-04-06T14:37:46Z</time></trkpt><trkpt lat="40.25183260738847" lon="8.520314930455188"><ele>259.6</ele><time>2026-04-06T14:37:47Z</time></trkpt><trkpt lat="40.25189762565089" lon="8.52040552145338"><ele>259.2</ele><time>2026-04-06T14:37:48Z</time></trkpt><trkpt lat="40.251973406091146" lon="8.520486286687431"><ele>258.8</ele><time>2026-04-06T14:37:49Z</time></trkpt><trkpt lat="40.25203577215838" lon="8.520587721123485"><ele>258.4</ele><time>2026-04-06T14:37:50Z</time></trkpt><trkpt lat="40.25209961218246" lon="8.520685320372145"><ele>258.0</ele><time>2026-04-06T14:37:51Z</time></trkpt><trkpt lat="40.252149608764334" lon="8.520773426789592"><ele>258.0</ele><time>2026-04-06T14:37:52Z</time></trkpt><trkpt lat="40.25220637980253" lon="8.520868347964319"><ele>258.0</ele><time>2026-04-06T14:37:53Z</time></trkpt><trkpt lat="40.25224551947778" lon="8.520988956579227"><ele>258.0</ele><time>2026-04-06T14:37:54Z</time></trkpt><trkpt lat="40.25228575513393" lon="8.52109472286028"><ele>258.0</ele><time>2026-04-06T14:37:55Z</time></trkpt><trkpt lat="40.25233078867896" lon="8.52120136511205"><ele>258.0</ele><time>2026-04-06T14:37:56Z</time></trkpt><trkpt lat="40.25238307257825" lon="8.52129192203157"><ele>258.6</ele><time>2026-04-06T14:37:57Z</time></trkpt><trkpt lat="40.25245451025448" lon="8.521368137186661"><ele>259.20000000000005</ele><time>2026-04-06T14:37:58Z</time></trkpt><trkpt lat="40.25252962091412" lon="8.521449431511765"><ele>259.8</ele><time>2026-04-06T14:37:59Z</time></trkpt><trkpt lat="40.252617428894126" lon="8.521525836644567"><ele>260.40000000000003</ele><time>2026-04-06T14:38:00Z</time></trkpt><trkpt lat="40.25270737565317" lon="8.521601417323957"><ele>261.0</ele><time>2026-04-06T14:38:01Z</time></trkpt><trkpt lat="40.25279596033316" lon="8.521660496060719"><ele>261.0</ele><time>2026-04-06T14:38:02Z</time></trkpt><trkpt lat="40.252885465430516" lon="8.521747145784424"><ele>261.0</ele><time>2026-04-06T14:38:03Z</time></trkpt><trkpt lat="40.25298977339706" lon="8.521825894768696"><ele>261.0</ele><time>2026-04-06T14:38:04Z</time></trkpt><trkpt lat="40.253099662663274" lon="8.521879695742632"><ele>261.0</ele><time>2026-04-06T14:38:05Z</time></trkpt><trkpt lat="40.253213080470026" lon="8.521953595332224"><ele>262.0</ele><time>2026-04-06T14:38:06Z</time></trkpt><trkpt lat="40.25331661717391" lon="8.522001619800413"><ele>263.0</ele><time>2026-04-06T14:38:07Z</time></trkpt><trkpt lat="40.25341392869524" lon="8.52203650763395"><ele>264.0</ele><time>2026-04-06T14:38:08Z</time></trkpt><trkpt lat="40.25351297106002" lon="8.522080985246271"><ele>265.0</ele><time>2026-04-06T14:38:09Z</time></trkpt><trkpt lat="40.253588267024966" lon="8.522108316786257"><ele>266.0</ele><time>2026-04-06T14:38:10Z</time></trkpt><trkpt lat="40.253669285328904" lon="8.522129865758018"><ele>266.0</ele><time>2026-04-06T14:38:11Z</time></trkpt><trkpt lat="40.253759051730235" lon="8.522160583454912"><ele>266.0</ele><time>2026-04-06T14:38:12Z</time></trkpt><trkpt lat="40.253859030616724" lon="8.52218580820293"><ele>266.0</ele><time>2026-04-06T14:38:13Z</time></trkpt><trkpt lat="40.253959165824774" lon="8.522185872886435"><ele>266.0</ele><time>2026-04-06T14:38:14Z</time></trkpt><trkpt lat="40.254057964443" lon="8.522198107153713"><ele>266.0</ele><time>2026-04-06T14:38:15Z</time></trkpt><trkpt lat="40.25414256305259" lon="8.522194314077835"><ele>266.40000000000003</ele><time>2026-04-06T14:38:16Z</time></trkpt><trkpt lat="40.254227384193676" lon="8.52218280109355"><ele>266.8</ele><time>2026-04-06T14:38:17Z</time></trkpt><trkpt lat="40.254322504279635" lon="8.52219619194206"><ele>267.20000000000005</ele><time>2026-04-06T14:38:18Z</time></trkpt><trkpt lat="40.25442040741124" lon="8.522205933391707"><ele>267.6</ele><time>2026-04-06T14:38:19Z</time></trkpt><trkpt lat="40.254511718860066" lon="8.522197519730524"><ele>268.0</ele><time>2026-04-06T14:38:20Z</time></trkpt><trkpt lat="40.25460740600437" lon="8.522183612067813"><ele>268.0</ele><time>2026-04-06T14:38:21Z</time></trkpt><trkpt lat="40.25469987952699" lon="8.522179334282722"><ele>268.0</ele><time>2026-04-06T14:38:22Z</time></trkpt><trkpt lat="40.254795117400874" lon="8.522161247726057"><ele>268.0</ele><time>2026-04-06T14:38:23Z</time></trkpt><trkpt lat="40.254897956695444" lon="8.522162582045643"><ele>268.0</ele><time>2026-04-06T14:38:24Z</time></trkpt><trkpt lat="40.254995020186456" lon="8.522150934045246"><ele>268.0</ele><time>2026-04-06T14:38:25Z</time></trkpt><trkpt lat="40.25510112078551" lon="8.52216070044525"><ele>268.0</ele><time>2026-04-06T14:38:26Z</time></trkpt><trkpt lat="40.25520664472303" lon="8.522190954250766"><ele>268.0</ele><time>2026-04-06T14:38:27Z</time></trkpt><trkpt lat="40.25530481993633" lon="8.522262952080919"><ele>268.0</ele><time>2026-04-06T14:38:28Z</time></trkpt><trkpt lat="40.25540730473041" lon="8.522331369255646"><ele>268.0</ele><time>2026-04-06T14:38:29Z</time></trkpt><trkpt lat="40.25551417272121" lon="8.522392090644088"><ele>268.0</ele><time>2026-04-06T14:38:30Z</time></trkpt><trkpt lat="40.25560094505171" lon="8.522466873488918"><ele>268.0</ele><time>2026-04-06T14:38:31Z</time></trkpt><trkpt lat="40.25568139363414" lon="8.522529657672832"><ele>268.0</ele><time>2026-04-06T14:38:32Z</time></trkpt><trkpt lat="40.2557580166563" lon="8.522587328111237"><ele>268.0</ele><time>2026-04-06T14:38:33Z</time></trkpt><trkpt lat="40.25583436360918" lon="8.522646000910603"><ele>268.0</ele><time>2026-04-06T14:38:34Z</time></trkpt><trkpt lat="40.25591281818984" lon="8.522715512298666"><ele>267.5</ele><time>2026-04-06T14:38:35Z</time></trkpt><trkpt lat="40.25599134961641" lon="8.522795347035443"><ele>267.0</ele><time>2026-04-06T14:38:36Z</time></trkpt><trkpt lat="40.25606966543034" lon="8.522886977546522"><ele>266.5</ele><time>2026-04-06T14:38:37Z</time></trkpt><trkpt lat="40.25614756131132" lon="8.523002539120256"><ele>266.0</ele><time>2026-04-06T14:38:38Z</time></trkpt><trkpt lat="40.256227730144076" lon="8.523136036793238"><ele>266.0</ele><time>2026-04-06T14:38:39Z</time></trkpt><trkpt lat="40.256307741080654" lon="8.523265560596379"><ele>266.0</ele><time>2026-04-06T14:38:40Z</time></trkpt><trkpt lat="40.256385566485235" lon="8.523388690267314"><ele>266.0</ele><time>2026-04-06T14:38:41Z</time></trkpt><trkpt lat="40.25645064733417" lon="8.523510727409631"><ele>266.0</ele><time>2026-04-06T14:38:42Z</time></trkpt><trkpt lat="40.25651348888473" lon="8.523635355816861"><ele>265.75</ele><time>2026-04-06T14:38:43Z</time></trkpt><trkpt lat="40.256573095389506" lon="8.523760152593399"><ele>265.5</ele><time>2026-04-06T14:38:44Z</time></trkpt><trkpt lat="40.25664090072049" lon="8.523881160587004"><ele>265.25</ele><time>2026-04-06T14:38:45Z</time></trkpt><trkpt lat="40.25670611020658" lon="8.524003799286866"><ele>265.0</ele><time>2026-04-06T14:38:46Z</time></trkpt><trkpt lat="40.2567715140192" lon="8.524131341211412"><ele>265.0</ele><time>2026-04-06T14:38:47Z</time></trkpt><trkpt lat="40.256852238993" lon="8.524269022922827"><ele>265.0</ele><time>2026-04-06T14:38:48Z</time></trkpt><trkpt lat="40.25694918334972" lon="8.524406816120884"><ele>265.0</ele><time>2026-04-06T14:38:49Z</time></trkpt><trkpt lat="40.25705313326072" lon="8.524526487667558"><ele>265.0</ele><time>2026-04-06T14:38:50Z</time></trkpt><trkpt lat="40.25716220471639" lon="8.524615182014369"><ele>265.0</ele><time>2026-04-06T14:38:51Z</time></trkpt><trkpt lat="40.25728352970566" lon="8.524685918493144"><ele>265.0</ele><time>2026-04-06T14:38:52Z</time></trkpt><trkpt lat="40.25741821356645" lon="8.524745735784443"><ele>265.0</ele><time>2026-04-06T14:38:53Z</time></trkpt><trkpt lat="40.25755451048714" lon="8.52480046833861"><ele>265.0</ele><time>2026-04-06T14:38:54Z</time></trkpt><trkpt lat="40.25769553785427" lon="8.524855985062299"><ele>265.0</ele><time>2026-04-06T14:38:55Z</time></trkpt><trkpt lat="40.25783358998685" lon="8.524907245840986"><ele>265.0</ele><time>2026-04-06T14:38:56Z</time></trkpt><trkpt lat="40.25797018140968" lon="8.524954713932978"><ele>265.0</ele><time>2026-04-06T14:38:57Z</time></trkpt><trkpt lat="40.2581105977677" lon="8.52500423299403"><ele>265.0</ele><time>2026-04-06T14:38:58Z</time></trkpt><trkpt lat="40.25824904838988" lon="8.525053619927776"><ele>264.25</ele><time>2026-04-06T14:38:59Z</time></trkpt><trkpt lat="40.258383243052684" lon="8.525105971428292"><ele>263.5</ele><time>2026-04-06T14:39:00Z</time></trkpt><trkpt lat="40.258517142735094" lon="8.525156992055345"><ele>262.75</ele><time>2026-04-06T14:39:01Z</time></trkpt><trkpt lat="40.258645509111" lon="8.525198919669437"><ele>262.0</ele><time>2026-04-06T14:39:02Z</time></trkpt><trkpt lat="40.258775138527255" lon="8.525239862814153"><ele>262.0</ele><time>2026-04-06T14:39:03Z</time></trkpt><trkpt lat="40.25890938687039" lon="8.525283813462472"><ele>262.0</ele><time>2026-04-06T14:39:04Z</time></trkpt><trkpt lat="40.25904077000229" lon="8.52533049228801"><ele>262.0</ele><time>2026-04-06T14:39:05Z</time></trkpt><trkpt lat="40.25916519993938" lon="8.525379164967374"><ele>262.0</ele><time>2026-04-06T14:39:06Z</time></trkpt><trkpt lat="40.25927389931594" lon="8.525428355112142"><ele>262.16666666666663</ele><time>2026-04-06T14:39:07Z</time></trkpt><trkpt lat="40.259363013939605" lon="8.525480397637148"><ele>262.3333333333333</ele><time>2026-04-06T14:39:08Z</time></trkpt><trkpt lat="40.259439738810514" lon="8.525522816493414"><ele>262.5</ele><time>2026-04-06T14:39:09Z</time></trkpt><trkpt lat="40.25951424498794" lon="8.525540955604887"><ele>262.6666666666667</ele><time>2026-04-06T14:39:10Z</time></trkpt><trkpt lat="40.25959280496803" lon="8.525551348443727"><ele>262.83333333333337</ele><time>2026-04-06T14:39:11Z</time></trkpt><trkpt lat="40.25967242074692" lon="8.525567994195562"><ele>263.0</ele><time>2026-04-06T14:39:12Z</time></trkpt><trkpt lat="40.25975282312171" lon="8.525591054481575"><ele>262.8</ele><time>2026-04-06T14:39:13Z</time></trkpt><trkpt lat="40.25984522274089" lon="8.525620286877484"><ele>262.6</ele><time>2026-04-06T14:39:14Z</time></trkpt><trkpt lat="40.25994216665264" lon="8.525648034158625"><ele>262.4</ele><time>2026-04-06T14:39:15Z</time></trkpt><trkpt lat="40.26004068336865" lon="8.525680095053957"><ele>262.2</ele><time>2026-04-06T14:39:16Z</time></trkpt><trkpt lat="40.26012770759258" lon="8.52573411029811"><ele>262.0</ele><time>2026-04-06T14:39:17Z</time></trkpt><trkpt lat="40.2602143281824" lon="8.525767469832681"><ele>262.0</ele><time>2026-04-06T14:39:18Z</time></trkpt><trkpt lat="40.260295308153154" lon="8.525798657038283"><ele>262.0</ele><time>2026-04-06T14:39:19Z</time></trkpt><trkpt lat="40.26037323406059" lon="8.525809941385047"><ele>262.0</ele><time>2026-04-06T14:39:20Z</time></trkpt><trkpt lat="40.26044083657513" lon="8.525840928873292"><ele>262.0</ele><time>2026-04-06T14:39:21Z</time></trkpt><trkpt lat="40.260512859208134" lon="8.525871460017365"><ele>262.0</ele><time>2026-04-06T14:39:22Z</time></trkpt><trkpt lat="40.260594565869596" lon="8.525898729987533"><ele>262.0</ele><time>2026-04-06T14:39:23Z</time></trkpt><trkpt lat="40.260687897941615" lon="8.525930319559876"><ele>260.75</ele><time>2026-04-06T14:39:24Z</time></trkpt><trkpt lat="40.26078296605762" lon="8.525959445050383"><ele>259.5</ele><time>2026-04-06T14:39:25Z</time></trkpt><trkpt lat="40.2608613860942" lon="8.526009099360184"><ele>258.25</ele><time>2026-04-06T14:39:26Z</time></trkpt><trkpt lat="40.260945867401134" lon="8.526038601292138"><ele>257.0</ele><time>2026-04-06T14:39:27Z</time></trkpt><trkpt lat="40.261129412828" lon="8.526101944139112"><ele>257.0</ele><time>2026-04-06T14:39:29Z</time></trkpt><trkpt lat="40.261228906497564" lon="8.526136353255442"><ele>257.0</ele><time>2026-04-06T14:39:30Z</time></trkpt><trkpt lat="40.26133233622183" lon="8.526172123629438"><ele>257.0</ele><time>2026-04-06T14:39:31Z</time></trkpt><trkpt lat="40.26144866722114" lon="8.52619280863784"><ele>257.0</ele><time>2026-04-06T14:39:32Z</time></trkpt><trkpt lat="40.26156997839431" lon="8.526234243187144"><ele>257.75</ele><time>2026-04-06T14:39:33Z</time></trkpt><trkpt lat="40.26169395211435" lon="8.526281249573454"><ele>258.5</ele><time>2026-04-06T14:39:34Z</time></trkpt><trkpt lat="40.261817362095655" lon="8.526329072102024"><ele>259.25</ele><time>2026-04-06T14:39:35Z</time></trkpt><trkpt lat="40.2619419356162" lon="8.526380949971172"><ele>260.0</ele><time>2026-04-06T14:39:36Z</time></trkpt><trkpt lat="40.2620558589966" lon="8.526425059191412"><ele>260.0</ele><time>2026-04-06T14:39:37Z</time></trkpt><trkpt lat="40.26217156128836" lon="8.526460823171284"><ele>260.0</ele><time>2026-04-06T14:39:38Z</time></trkpt><trkpt lat="40.26228227445033" lon="8.526511830571732"><ele>260.0</ele><time>2026-04-06T14:39:39Z</time></trkpt><trkpt lat="40.26241508447197" lon="8.526507734410897"><ele>260.0</ele><time>2026-04-06T14:39:40Z</time></trkpt><trkpt lat="40.262542864298496" lon="8.526504791052428"><ele>258.75</ele><time>2026-04-06T14:39:41Z</time></trkpt><trkpt lat="40.2626694455559" lon="8.526483372652145"><ele>257.5</ele><time>2026-04-06T14:39:42Z</time></trkpt><trkpt lat="40.26278468913157" lon="8.526458302673854"><ele>256.25</ele><time>2026-04-06T14:39:43Z</time></trkpt><trkpt lat="40.26289675731646" lon="8.526424195045005"><ele>255.0</ele><time>2026-04-06T14:39:44Z</time></trkpt><trkpt lat="40.263007157454226" lon="8.52639283633801"><ele>255.2</ele><time>2026-04-06T14:39:45Z</time></trkpt><trkpt lat="40.26311468960378" lon="8.526360491721965"><ele>255.4</ele><time>2026-04-06T14:39:46Z</time></trkpt><trkpt lat="40.26322253066267" lon="8.526320788262849"><ele>255.60000000000002</ele><time>2026-04-06T14:39:47Z</time></trkpt><trkpt lat="40.26332294612377" lon="8.526279888548574"><ele>255.8</ele><time>2026-04-06T14:39:48Z</time></trkpt><trkpt lat="40.26342299353472" lon="8.526240606284755"><ele>256.0</ele><time>2026-04-06T14:39:49Z</time></trkpt><trkpt lat="40.263522557734795" lon="8.52619063736987"><ele>254.5</ele><time>2026-04-06T14:39:50Z</time></trkpt><trkpt lat="40.26362561312472" lon="8.526113117278248"><ele>253.0</ele><time>2026-04-06T14:39:51Z</time></trkpt><trkpt lat="40.263721744911024" lon="8.526017473054953"><ele>251.5</ele><time>2026-04-06T14:39:52Z</time></trkpt><trkpt lat="40.26381406063527" lon="8.525906749102806"><ele>250.0</ele><time>2026-04-06T14:39:53Z</time></trkpt><trkpt lat="40.26391171450307" lon="8.525810627315384"><ele>250.83333333333331</ele><time>2026-04-06T14:39:54Z</time></trkpt><trkpt lat="40.26398900918901" lon="8.52570829954514"><ele>251.66666666666666</ele><time>2026-04-06T14:39:55Z</time></trkpt><trkpt lat="40.2640535130409" lon="8.525617920923306"><ele>252.5</ele><time>2026-04-06T14:39:56Z</time></trkpt><trkpt lat="40.2641006973302" lon="8.525521774834596"><ele>253.33333333333331</ele><time>2026-04-06T14:39:57Z</time></trkpt><trkpt lat="40.264169909476514" lon="8.525488273529145"><ele>254.16666666666666</ele><time>2026-04-06T14:39:58Z</time></trkpt><trkpt lat="40.26424897672745" lon="8.525509445939708"><ele>255.0</ele><time>2026-04-06T14:39:59Z</time></trkpt><trkpt lat="40.264392111040834" lon="8.525649869128651"><ele>255.0</ele><time>2026-04-06T14:40:01Z</time></trkpt><trkpt lat="40.264477174177145" lon="8.525697638779862"><ele>255.0</ele><time>2026-04-06T14:40:02Z</time></trkpt><trkpt lat="40.264574172270635" lon="8.525697508522303"><ele>255.0</ele><time>2026-04-06T14:40:03Z</time></trkpt><trkpt lat="40.264654941850544" lon="8.525656842497169"><ele>255.0</ele><time>2026-04-06T14:40:04Z</time></trkpt><trkpt lat="40.264721877931194" lon="8.52560999749581"><ele>255.0</ele><time>2026-04-06T14:40:05Z</time></trkpt><trkpt lat="40.26479617320858" lon="8.525593447414469"><ele>255.0</ele><time>2026-04-06T14:40:06Z</time></trkpt><trkpt lat="40.264876938601" lon="8.525618441988573"><ele>255.0</ele><time>2026-04-06T14:40:07Z</time></trkpt><trkpt lat="40.26493654686376" lon="8.525682891638244"><ele>255.0</ele><time>2026-04-06T14:40:08Z</time></trkpt><trkpt lat="40.26505316557837" lon="8.525837170167135"><ele>255.0</ele><time>2026-04-06T14:40:10Z</time></trkpt><trkpt lat="40.26512001891431" lon="8.525924262152348"><ele>255.0</ele><time>2026-04-06T14:40:11Z</time></trkpt><trkpt lat="40.265206736765755" lon="8.52603174599588"><ele>255.0</ele><time>2026-04-06T14:40:12Z</time></trkpt><trkpt lat="40.26530933924438" lon="8.526159584491277"><ele>255.0</ele><time>2026-04-06T14:40:13Z</time></trkpt><trkpt lat="40.265403971110324" lon="8.526268436865294"><ele>255.0</ele><time>2026-04-06T14:40:14Z</time></trkpt><trkpt lat="40.26550232682152" lon="8.526367264915239"><ele>255.0</ele><time>2026-04-06T14:40:15Z</time></trkpt><trkpt lat="40.265615725331074" lon="8.526446312673725"><ele>256.5</ele><time>2026-04-06T14:40:16Z</time></trkpt><trkpt lat="40.26573002774808" lon="8.526492550888818"><ele>258.0</ele><time>2026-04-06T14:40:17Z</time></trkpt><trkpt lat="40.265847104096416" lon="8.526503159828978"><ele>259.5</ele><time>2026-04-06T14:40:18Z</time></trkpt><trkpt lat="40.2659712670602" lon="8.52647326308432"><ele>261.0</ele><time>2026-04-06T14:40:19Z</time></trkpt><trkpt lat="40.2660887316319" lon="8.526410650855066"><ele>261.0</ele><time>2026-04-06T14:40:20Z</time></trkpt><trkpt lat="40.266184145221885" lon="8.526357634424874"><ele>261.0</ele><time>2026-04-06T14:40:21Z</time></trkpt><trkpt lat="40.26627129641317" lon="8.526351084084196"><ele>261.0</ele><time>2026-04-06T14:40:22Z</time></trkpt><trkpt lat="40.26633872255948" lon="8.526425643132004"><ele>261.0</ele><time>2026-04-06T14:40:23Z</time></trkpt><trkpt lat="40.266380776042645" lon="8.526526371306732"><ele>261.0</ele><time>2026-04-06T14:40:24Z</time></trkpt><trkpt lat="40.266402119241654" lon="8.52665963030489"><ele>261.0</ele><time>2026-04-06T14:40:25Z</time></trkpt><trkpt lat="40.266420635467924" lon="8.526817074172511"><ele>261.0</ele><time>2026-04-06T14:40:26Z</time></trkpt><trkpt lat="40.266476256872245" lon="8.526961228581657"><ele>261.0</ele><time>2026-04-06T14:40:27Z</time></trkpt><trkpt lat="40.266561321615015" lon="8.527096290918582"><ele>261.0</ele><time>2026-04-06T14:40:28Z</time></trkpt><trkpt lat="40.266651676853826" lon="8.52721951245869"><ele>260.75</ele><time>2026-04-06T14:40:29Z</time></trkpt><trkpt lat="40.26676573531617" lon="8.527292123527133"><ele>260.5</ele><time>2026-04-06T14:40:30Z</time></trkpt><trkpt lat="40.26688540518708" lon="8.527346704057143"><ele>260.25</ele><time>2026-04-06T14:40:31Z</time></trkpt><trkpt lat="40.26701157616772" lon="8.52738441894866"><ele>260.0</ele><time>2026-04-06T14:40:32Z</time></trkpt><trkpt lat="40.26716067860258" lon="8.527406861819477"><ele>254.66666666666669</ele><time>2026-04-06T14:40:33Z</time></trkpt><trkpt lat="40.26732121055761" lon="8.527407595605775"><ele>249.33333333333331</ele><time>2026-04-06T14:40:34Z</time></trkpt><trkpt lat="40.26749029460114" lon="8.527390641719807"><ele>244.0</ele><time>2026-04-06T14:40:35Z</time></trkpt><trkpt lat="40.267651353329484" lon="8.52738769655806"><ele>244.0</ele><time>2026-04-06T14:40:36Z</time></trkpt><trkpt lat="40.26780178031535" lon="8.52741607459168"><ele>244.0</ele><time>2026-04-06T14:40:37Z</time></trkpt><trkpt lat="40.26796528152414" lon="8.527481918465"><ele>244.0</ele><time>2026-04-06T14:40:38Z</time></trkpt><trkpt lat="40.26811860235312" lon="8.527560875307804"><ele>239.66666666666666</ele><time>2026-04-06T14:40:39Z</time></trkpt><trkpt lat="40.268274317748194" lon="8.527632706337451"><ele>235.33333333333331</ele><time>2026-04-06T14:40:40Z</time></trkpt><trkpt lat="40.26843193182413" lon="8.527704952398308"><ele>231.0</ele><time>2026-04-06T14:40:41Z</time></trkpt><trkpt lat="40.26859258187304" lon="8.527779961313495"><ele>231.0</ele><time>2026-04-06T14:40:42Z</time></trkpt><trkpt lat="40.26875116602735" lon="8.527865247168664"><ele>231.0</ele><time>2026-04-06T14:40:43Z</time></trkpt><trkpt lat="40.26890999873938" lon="8.52796270924199"><ele>231.0</ele><time>2026-04-06T14:40:44Z</time></trkpt><trkpt lat="40.269066848120715" lon="8.528068647238113"><ele>232.66666666666669</ele><time>2026-04-06T14:40:45Z</time></trkpt><trkpt lat="40.2692161891109" lon="8.528172860315335"><ele>234.33333333333334</ele><time>2026-04-06T14:40:46Z</time></trkpt><trkpt lat="40.26935950512382" lon="8.528282980915929"><ele>236.0</ele><time>2026-04-06T14:40:47Z</time></trkpt><trkpt lat="40.26949638090332" lon="8.528401204890274"><ele>236.0</ele><time>2026-04-06T14:40:48Z</time></trkpt><trkpt lat="40.269632068593296" lon="8.528527508345357"><ele>236.0</ele><time>2026-04-06T14:40:49Z</time></trkpt><trkpt lat="40.26976201718927" lon="8.528651224550202"><ele>236.0</ele><time>2026-04-06T14:40:50Z</time></trkpt><trkpt lat="40.269886775952145" lon="8.528776503078136"><ele>233.66666666666669</ele><time>2026-04-06T14:40:51Z</time></trkpt><trkpt lat="40.270009893879056" lon="8.528911610798238"><ele>231.33333333333331</ele><time>2026-04-06T14:40:52Z</time></trkpt><trkpt lat="40.27013213449283" lon="8.529056108654352"><ele>229.0</ele><time>2026-04-06T14:40:53Z</time></trkpt><trkpt lat="40.2702545855018" lon="8.529210189491206"><ele>229.0</ele><time>2026-04-06T14:40:54Z</time></trkpt><trkpt lat="40.2703776673306" lon="8.529371231053128"><ele>229.0</ele><time>2026-04-06T14:40:55Z</time></trkpt><trkpt lat="40.27049972183461" lon="8.529545231967132"><ele>229.0</ele><time>2026-04-06T14:40:56Z</time></trkpt><trkpt lat="40.27062479031536" lon="8.529722993580123"><ele>224.0</ele><time>2026-04-06T14:40:57Z</time></trkpt><trkpt lat="40.2707507489545" lon="8.529894844747535"><ele>219.0</ele><time>2026-04-06T14:40:58Z</time></trkpt><trkpt lat="40.27087195522215" lon="8.530057884705538"><ele>214.0</ele><time>2026-04-06T14:40:59Z</time></trkpt><trkpt lat="40.2709819139304" lon="8.530205850641407"><ele>214.0</ele><time>2026-04-06T14:41:00Z</time></trkpt><trkpt lat="40.271068451654436" lon="8.53036520599556"><ele>214.0</ele><time>2026-04-06T14:41:01Z</time></trkpt><trkpt lat="40.271126798734095" lon="8.53054133992757"><ele>214.0</ele><time>2026-04-06T14:41:02Z</time></trkpt><trkpt lat="40.27118495847726" lon="8.530715447374732"><ele>214.0</ele><time>2026-04-06T14:41:03Z</time></trkpt><trkpt lat="40.27128319630285" lon="8.53094244612229"><ele>211.79999999999998</ele><time>2026-04-06T14:41:04Z</time></trkpt><trkpt lat="40.271342723164956" lon="8.531111020607208"><ele>209.59999999999997</ele><time>2026-04-06T14:41:05Z</time></trkpt><trkpt lat="40.271395002882834" lon="8.531241185716087"><ele>207.4</ele><time>2026-04-06T14:41:06Z</time></trkpt><trkpt lat="40.27145360135733" lon="8.531332929679188"><ele>205.2</ele><time>2026-04-06T14:41:07Z</time></trkpt><trkpt lat="40.27154935144463" lon="8.531382435818198"><ele>203.0</ele><time>2026-04-06T14:41:08Z</time></trkpt><trkpt lat="40.271672441782805" lon="8.531375668384873"><ele>203.0</ele><time>2026-04-06T14:41:09Z</time></trkpt><trkpt lat="40.271809361792485" lon="8.53134607781012"><ele>203.0</ele><time>2026-04-06T14:41:10Z</time></trkpt><trkpt lat="40.27194836452366" lon="8.531329359580207"><ele>203.0</ele><time>2026-04-06T14:41:11Z</time></trkpt><trkpt lat="40.27207363687405" lon="8.531331593028852"><ele>203.0</ele><time>2026-04-06T14:41:12Z</time></trkpt><trkpt lat="40.27216043123634" lon="8.531316117051999"><ele>203.00000000000003</ele><time>2026-04-06T14:41:13Z</time></trkpt><trkpt lat="40.27222711723941" lon="8.531263162954309"><ele>203.0</ele><time>2026-04-06T14:41:14Z</time></trkpt><trkpt lat="40.27227346065493" lon="8.531173537605902"><ele>203.0</ele><time>2026-04-06T14:41:15Z</time></trkpt><trkpt lat="40.27228034784392" lon="8.531052987417336"><ele>203.0</ele><time>2026-04-06T14:41:16Z</time></trkpt><trkpt lat="40.27225057245638" lon="8.530940472647597"><ele>203.00000000000003</ele><time>2026-04-06T14:41:17Z</time></trkpt><trkpt lat="40.27218536550779" lon="8.530855218795068"><ele>203.0</ele><time>2026-04-06T14:41:18Z</time></trkpt><trkpt lat="40.27209887591264" lon="8.530806338587894"><ele>203.25</ele><time>2026-04-06T14:41:18.999Z</time></trkpt><trkpt lat="40.271994843415875" lon="8.530790653032483"><ele>203.5</ele><time>2026-04-06T14:41:20Z</time></trkpt><trkpt lat="40.271877481190515" lon="8.530798773007438"><ele>203.75</ele><time>2026-04-06T14:41:20.999Z</time></trkpt><trkpt lat="40.27175418224521" lon="8.530797424678537"><ele>204.0</ele><time>2026-04-06T14:41:21.999Z</time></trkpt><trkpt lat="40.27163655876072" lon="8.530787004352032"><ele>204.0</ele><time>2026-04-06T14:41:23Z</time></trkpt><trkpt lat="40.271539029352645" lon="8.530745422725477"><ele>204.0</ele><time>2026-04-06T14:41:23.999Z</time></trkpt><trkpt lat="40.27146252155347" lon="8.53064558524999"><ele>204.0</ele><time>2026-04-06T14:41:24.999Z</time></trkpt><trkpt lat="40.27148306427599" lon="8.530489495371109"><ele>204.0</ele><time>2026-04-06T14:41:25.999Z</time></trkpt><trkpt lat="40.27145594656179" lon="8.53033995972715"><ele>204.0</ele><time>2026-04-06T14:41:26.999Z</time></trkpt><trkpt lat="40.27145015273622" lon="8.53017243804684"><ele>203.5</ele><time>2026-04-06T14:41:27.999Z</time></trkpt><trkpt lat="40.271429511079965" lon="8.529977016169395"><ele>203.0</ele><time>2026-04-06T14:41:28.999Z</time></trkpt><trkpt lat="40.27140780517155" lon="8.52977739699509"><ele>202.5</ele><time>2026-04-06T14:41:29.999Z</time></trkpt><trkpt lat="40.271385977181886" lon="8.529590827394522"><ele>202.0</ele><time>2026-04-06T14:41:30.999Z</time></trkpt><trkpt lat="40.27134248692048" lon="8.529426732411364"><ele>202.0</ele><time>2026-04-06T14:41:31.999Z</time></trkpt><trkpt lat="40.27126156148376" lon="8.5292567818705"><ele>202.0</ele><time>2026-04-06T14:41:32.999Z</time></trkpt><trkpt lat="40.271178534988636" lon="8.529081879645064"><ele>202.0</ele><time>2026-04-06T14:41:33.999Z</time></trkpt><trkpt lat="40.2710983610089" lon="8.528916306758104"><ele>202.0</ele><time>2026-04-06T14:41:34.999Z</time></trkpt><trkpt lat="40.27101021587099" lon="8.528731793142194"><ele>202.0</ele><time>2026-04-06T14:41:35.999Z</time></trkpt><trkpt lat="40.27091768320904" lon="8.52853923470356"><ele>202.0</ele><time>2026-04-06T14:41:36.999Z</time></trkpt><trkpt lat="40.27082468429261" lon="8.528344122421482"><ele>201.0</ele><time>2026-04-06T14:41:37.999Z</time></trkpt><trkpt lat="40.27073992881084" lon="8.528165871025992"><ele>200.0</ele><time>2026-04-06T14:41:38.999Z</time></trkpt><trkpt lat="40.2706439113876" lon="8.52800686477444"><ele>199.0</ele><time>2026-04-06T14:41:39.999Z</time></trkpt><trkpt lat="40.27053201862857" lon="8.527867234796323"><ele>199.0</ele><time>2026-04-06T14:41:40.999Z</time></trkpt><trkpt lat="40.27042813038147" lon="8.527753304670098"><ele>199.0</ele><time>2026-04-06T14:41:41.999Z</time></trkpt><trkpt lat="40.27035137343217" lon="8.527660744832486"><ele>199.0</ele><time>2026-04-06T14:41:42.999Z</time></trkpt><trkpt lat="40.270316975183256" lon="8.527577753756749"><ele>199.0</ele><time>2026-04-06T14:41:43.999Z</time></trkpt><trkpt lat="40.27032925540565" lon="8.5274884064095"><ele>199.0</ele><time>2026-04-06T14:41:44.999Z</time></trkpt><trkpt lat="40.270375397791" lon="8.527405592956198"><ele>199.0</ele><time>2026-04-06T14:41:45.999Z</time></trkpt><trkpt lat="40.270451942248926" lon="8.527363317560157"><ele>199.0</ele><time>2026-04-06T14:41:46.999Z</time></trkpt><trkpt lat="40.27054171287018" lon="8.527369737357537"><ele>199.0</ele><time>2026-04-06T14:41:47.999Z</time></trkpt><trkpt lat="40.270620098466885" lon="8.527436472085942"><ele>199.0</ele><time>2026-04-06T14:41:48.999Z</time></trkpt><trkpt lat="40.27064576848495" lon="8.527564675686785"><ele>199.0</ele><time>2026-04-06T14:41:49.999Z</time></trkpt><trkpt lat="40.27070918724795" lon="8.527686107488575"><ele>196.0</ele><time>2026-04-06T14:41:50.999Z</time></trkpt><trkpt lat="40.27079686973736" lon="8.52782198956785"><ele>193.0</ele><time>2026-04-06T14:41:51.999Z</time></trkpt><trkpt lat="40.270880397115434" lon="8.527984290674041"><ele>190.0</ele><time>2026-04-06T14:41:52.999Z</time></trkpt><trkpt lat="40.27095818172946" lon="8.528135223876335"><ele>187.0</ele><time>2026-04-06T14:41:53.999Z</time></trkpt><trkpt lat="40.271034462797864" lon="8.52826500754749"><ele>187.0</ele><time>2026-04-06T14:41:54.999Z</time></trkpt><trkpt lat="40.271131173206356" lon="8.528366894947757"><ele>187.0</ele><time>2026-04-06T14:41:55.999Z</time></trkpt><trkpt lat="40.271268869368235" lon="8.52843851386909"><ele>187.0</ele><time>2026-04-06T14:41:56.999Z</time></trkpt><trkpt lat="40.271418889295546" lon="8.528498122309715"><ele>187.0</ele><time>2026-04-06T14:41:57.999Z</time></trkpt><trkpt lat="40.27154924739043" lon="8.528552172393793"><ele>185.2</ele><time>2026-04-06T14:41:58.999Z</time></trkpt><trkpt lat="40.27163690187663" lon="8.528627391887953"><ele>183.39999999999998</ele><time>2026-04-06T14:41:59.999Z</time></trkpt><trkpt lat="40.271692629131714" lon="8.52872961499514"><ele>181.60000000000002</ele><time>2026-04-06T14:42:00.999Z</time></trkpt><trkpt lat="40.27173391203279" lon="8.528849901014729"><ele>179.8</ele><time>2026-04-06T14:42:01.999Z</time></trkpt><trkpt lat="40.27176093897012" lon="8.528979881653344"><ele>178.0</ele><time>2026-04-06T14:42:02.999Z</time></trkpt><trkpt lat="40.27178564379853" lon="8.529109831414159"><ele>178.0</ele><time>2026-04-06T14:42:03.999Z</time></trkpt><trkpt lat="40.27182861565774" lon="8.529218475870106"><ele>178.0</ele><time>2026-04-06T14:42:04.999Z</time></trkpt><trkpt lat="40.271895812695654" lon="8.529301641242283"><ele>178.0</ele><time>2026-04-06T14:42:05.999Z</time></trkpt><trkpt lat="40.271990354735436" lon="8.52936063407684"><ele>178.0</ele><time>2026-04-06T14:42:06.999Z</time></trkpt><trkpt lat="40.27210249071406" lon="8.529367403994693"><ele>178.0</ele><time>2026-04-06T14:42:07.999Z</time></trkpt><trkpt lat="40.27221110684395" lon="8.529315753954636"><ele>176.25</ele><time>2026-04-06T14:42:08.999Z</time></trkpt><trkpt lat="40.27231572729656" lon="8.529211152742583"><ele>174.5</ele><time>2026-04-06T14:42:09.999Z</time></trkpt><trkpt lat="40.2724156158422" lon="8.52908880739771"><ele>172.75</ele><time>2026-04-06T14:42:10.999Z</time></trkpt><trkpt lat="40.27252703882787" lon="8.528959224510649"><ele>171.0</ele><time>2026-04-06T14:42:11.999Z</time></trkpt><trkpt lat="40.272634497776934" lon="8.52885520750012"><ele>171.0</ele><time>2026-04-06T14:42:12.999Z</time></trkpt><trkpt lat="40.27273930286884" lon="8.52875643380091"><ele>171.0</ele><time>2026-04-06T14:42:13.999Z</time></trkpt><trkpt lat="40.27283713823211" lon="8.528662980615696"><ele>171.0</ele><time>2026-04-06T14:42:14.999Z</time></trkpt><trkpt lat="40.272926935548085" lon="8.528573799418385"><ele>171.0</ele><time>2026-04-06T14:42:15.999Z</time></trkpt><trkpt lat="40.273014513620886" lon="8.528486122921"><ele>168.20000000000002</ele><time>2026-04-06T14:42:16.999Z</time></trkpt><trkpt lat="40.27309829422371" lon="8.528407918747673"><ele>165.4</ele><time>2026-04-06T14:42:17.999Z</time></trkpt><trkpt lat="40.27318113948046" lon="8.528363106885289"><ele>162.6</ele><time>2026-04-06T14:42:18.999Z</time></trkpt><trkpt lat="40.27325598796293" lon="8.528380683405896"><ele>159.8</ele><time>2026-04-06T14:42:19.999Z</time></trkpt><trkpt lat="40.27332283641623" lon="8.528465313310443"><ele>157.0</ele><time>2026-04-06T14:42:20.999Z</time></trkpt><trkpt lat="40.27337486973062" lon="8.528559468938237"><ele>157.4</ele><time>2026-04-06T14:42:21.999Z</time></trkpt><trkpt lat="40.27343728718412" lon="8.528676902459619"><ele>157.79999999999998</ele><time>2026-04-06T14:42:22.999Z</time></trkpt><trkpt lat="40.273509435874104" lon="8.528784149701819"><ele>158.2</ele><time>2026-04-06T14:42:23.999Z</time></trkpt><trkpt lat="40.27354494285139" lon="8.528903192674294"><ele>158.6</ele><time>2026-04-06T14:42:24.999Z</time></trkpt><trkpt lat="40.27353048571861" lon="8.52902615439303"><ele>159.0</ele><time>2026-04-06T14:42:25.999Z</time></trkpt><trkpt lat="40.27350621741921" lon="8.529152779820397"><ele>159.0</ele><time>2026-04-06T14:42:26.999Z</time></trkpt><trkpt lat="40.27348613791931" lon="8.529277442338195"><ele>159.0</ele><time>2026-04-06T14:42:27.999Z</time></trkpt><trkpt lat="40.27344751825072" lon="8.52938377799971"><ele>159.0</ele><time>2026-04-06T14:42:28.999Z</time></trkpt><trkpt lat="40.27344822700327" lon="8.52948848126794"><ele>159.0</ele><time>2026-04-06T14:42:29.999Z</time></trkpt><trkpt lat="40.2734839244905" lon="8.529598483651057"><ele>159.0</ele><time>2026-04-06T14:42:30.999Z</time></trkpt><trkpt lat="40.273535327513635" lon="8.529714446039256"><ele>160.0</ele><time>2026-04-06T14:42:31.999Z</time></trkpt><trkpt lat="40.27364571550292" lon="8.529781778174437"><ele>161.0</ele><time>2026-04-06T14:42:32.999Z</time></trkpt><trkpt lat="40.27375269456848" lon="8.529855401742244"><ele>162.0</ele><time>2026-04-06T14:42:33.999Z</time></trkpt><trkpt lat="40.27385223074329" lon="8.52992745378614"><ele>163.0</ele><time>2026-04-06T14:42:34.999Z</time></trkpt><trkpt lat="40.27393591592125" lon="8.530001427619236"><ele>159.25</ele><time>2026-04-06T14:42:35.999Z</time></trkpt><trkpt lat="40.27400255330959" lon="8.530078061549137"><ele>155.5</ele><time>2026-04-06T14:42:36.999Z</time></trkpt><trkpt lat="40.27404694112085" lon="8.53017382763608"><ele>151.75</ele><time>2026-04-06T14:42:37.999Z</time></trkpt><trkpt lat="40.27406828615849" lon="8.530288754423689"><ele>148.0</ele><time>2026-04-06T14:42:38.999Z</time></trkpt><trkpt lat="40.27401315864399" lon="8.530539949508986"><ele>148.0</ele><time>2026-04-06T14:42:40.999Z</time></trkpt><trkpt lat="40.2739871895809" lon="8.530697554137047"><ele>148.0</ele><time>2026-04-06T14:42:41.999Z</time></trkpt><trkpt lat="40.27394211413107" lon="8.53085986583529"><ele>148.0</ele><time>2026-04-06T14:42:43Z</time></trkpt><trkpt lat="40.27389657021542" lon="8.53103053899119"><ele>148.0</ele><time>2026-04-06T14:42:44Z</time></trkpt><trkpt lat="40.27386186519853" lon="8.531186512159037"><ele>150.60000000000002</ele><time>2026-04-06T14:42:45Z</time></trkpt><trkpt lat="40.27382576662124" lon="8.531341752381149"><ele>153.20000000000002</ele><time>2026-04-06T14:42:46Z</time></trkpt><trkpt lat="40.27379475234189" lon="8.531483225782491"><ele>155.8</ele><time>2026-04-06T14:42:47Z</time></trkpt><trkpt lat="40.27377447376294" lon="8.531605141811944"><ele>158.4</ele><time>2026-04-06T14:42:48Z</time></trkpt><trkpt lat="40.27375799380996" lon="8.531717886161433"><ele>161.0</ele><time>2026-04-06T14:42:49Z</time></trkpt><trkpt lat="40.27381979177207" lon="8.531815673377867"><ele>161.0</ele><time>2026-04-06T14:42:50Z</time></trkpt><trkpt lat="40.273887048078834" lon="8.531887871880606"><ele>161.0</ele><time>2026-04-06T14:42:51Z</time></trkpt><trkpt lat="40.27397659096376" lon="8.53191668516748"><ele>161.0</ele><time>2026-04-06T14:42:52Z</time></trkpt><trkpt lat="40.27405870235485" lon="8.531903924259678"><ele>161.0</ele><time>2026-04-06T14:42:53Z</time></trkpt><trkpt lat="40.27412617337409" lon="8.531850519324031"><ele>161.0</ele><time>2026-04-06T14:42:54Z</time></trkpt><trkpt lat="40.274180641304106" lon="8.531762631353432"><ele>161.0</ele><time>2026-04-06T14:42:55Z</time></trkpt><trkpt lat="40.27423514886132" lon="8.531638728256773"><ele>157.75</ele><time>2026-04-06T14:42:56Z</time></trkpt><trkpt lat="40.274274868846234" lon="8.531481864251866"><ele>154.5</ele><time>2026-04-06T14:42:57Z</time></trkpt><trkpt lat="40.274326994500086" lon="8.531303691278257"><ele>151.25</ele><time>2026-04-06T14:42:58Z</time></trkpt><trkpt lat="40.27437297119797" lon="8.531118877990565"><ele>148.0</ele><time>2026-04-06T14:42:59Z</time></trkpt><trkpt lat="40.27439975062582" lon="8.530943911861684"><ele>148.0</ele><time>2026-04-06T14:43:00Z</time></trkpt><trkpt lat="40.27441337300631" lon="8.530776167263273"><ele>148.0</ele><time>2026-04-06T14:43:01Z</time></trkpt><trkpt lat="40.274426931223985" lon="8.530609929048774"><ele>148.0</ele><time>2026-04-06T14:43:02Z</time></trkpt><trkpt lat="40.274454048638674" lon="8.530453263872472"><ele>148.0</ele><time>2026-04-06T14:43:03Z</time></trkpt><trkpt lat="40.27450523164095" lon="8.530313389950049"><ele>148.0</ele><time>2026-04-06T14:43:04Z</time></trkpt><trkpt lat="40.274577456899536" lon="8.530177130981286"><ele>148.0</ele><time>2026-04-06T14:43:05Z</time></trkpt><trkpt lat="40.27465500580138" lon="8.53004870511933"><ele>148.0</ele><time>2026-04-06T14:43:06Z</time></trkpt><trkpt lat="40.274727524557534" lon="8.529925604503502"><ele>148.0</ele><time>2026-04-06T14:43:07Z</time></trkpt><trkpt lat="40.27479061306946" lon="8.529812418891126"><ele>145.20000000000002</ele><time>2026-04-06T14:43:08Z</time></trkpt><trkpt lat="40.27483828966384" lon="8.529708592518414"><ele>142.4</ele><time>2026-04-06T14:43:09Z</time></trkpt><trkpt lat="40.27486871550135" lon="8.529631633385955"><ele>139.60000000000002</ele><time>2026-04-06T14:43:10Z</time></trkpt><trkpt lat="40.27490739498778" lon="8.529527546128094"><ele>136.8</ele><time>2026-04-06T14:43:12Z</time></trkpt><trkpt lat="40.27491840502069" lon="8.529389832146274"><ele>134.0</ele><time>2026-04-06T14:43:14Z</time></trkpt><trkpt lat="40.274865094100655" lon="8.529250158975938"><ele>133.8</ele><time>2026-04-06T14:43:16Z</time></trkpt><trkpt lat="40.27480773991832" lon="8.52911513433836"><ele>133.60000000000002</ele><time>2026-04-06T14:43:18Z</time></trkpt><trkpt lat="40.27474625702053" lon="8.528983660092392"><ele>133.4</ele><time>2026-04-06T14:43:20Z</time></trkpt><trkpt lat="40.27470570724671" lon="8.528870644066716"><ele>133.20000000000002</ele><time>2026-04-06T14:43:22Z</time></trkpt><trkpt lat="40.27474758905013" lon="8.528741363552564"><ele>133.0</ele><time>2026-04-06T14:43:24Z</time></trkpt><trkpt lat="40.274791461128515" lon="8.528671868606393"><ele>131.8</ele><time>2026-04-06T14:43:25Z</time></trkpt><trkpt lat="40.27483295846374" lon="8.528593879013819"><ele>130.60000000000002</ele><time>2026-04-06T14:43:26Z</time></trkpt><trkpt lat="40.2748840508067" lon="8.528493907740641"><ele>129.39999999999998</ele><time>2026-04-06T14:43:27Z</time></trkpt><trkpt lat="40.274946031902395" lon="8.528377210294417"><ele>128.2</ele><time>2026-04-06T14:43:28Z</time></trkpt><trkpt lat="40.275012415268016" lon="8.528274507069185"><ele>127.0</ele><time>2026-04-06T14:43:29Z</time></trkpt><trkpt lat="40.2750820912064" lon="8.528188135944268"><ele>127.0</ele><time>2026-04-06T14:43:30Z</time></trkpt><trkpt lat="40.27521312705492" lon="8.528006369254186"><ele>127.0</ele><time>2026-04-06T14:43:32Z</time></trkpt><trkpt lat="40.2752431429701" lon="8.52789704302375"><ele>127.0</ele><time>2026-04-06T14:43:33Z</time></trkpt><trkpt lat="40.27523363617816" lon="8.527767762402098"><ele>127.0</ele><time>2026-04-06T14:43:34Z</time></trkpt><trkpt lat="40.27519606176151" lon="8.527628158029069"><ele>125.0</ele><time>2026-04-06T14:43:35Z</time></trkpt><trkpt lat="40.27512491072044" lon="8.527473915793301"><ele>123.0</ele><time>2026-04-06T14:43:36Z</time></trkpt><trkpt lat="40.27505525432434" lon="8.527311711656697"><ele>121.0</ele><time>2026-04-06T14:43:37Z</time></trkpt><trkpt lat="40.274987782615106" lon="8.527170541443503"><ele>119.0</ele><time>2026-04-06T14:43:38Z</time></trkpt><trkpt lat="40.27490330404353" lon="8.527037803867469"><ele>118.33333333333333</ele><time>2026-04-06T14:43:39Z</time></trkpt><trkpt lat="40.27479011137809" lon="8.526909276616669"><ele>117.66666666666666</ele><time>2026-04-06T14:43:40Z</time></trkpt><trkpt lat="40.27464291881073" lon="8.526786544697021"><ele>117.0</ele><time>2026-04-06T14:43:41Z</time></trkpt><trkpt lat="40.27448272080558" lon="8.526657711876469"><ele>117.0</ele><time>2026-04-06T14:43:42Z</time></trkpt><trkpt lat="40.27433362836992" lon="8.526531231880105"><ele>117.0</ele><time>2026-04-06T14:43:43Z</time></trkpt><trkpt lat="40.27418893302493" lon="8.526390256689114"><ele>117.0</ele><time>2026-04-06T14:43:44Z</time></trkpt><trkpt lat="40.27404765472578" lon="8.526234986442175"><ele>117.0</ele><time>2026-04-06T14:43:45Z</time></trkpt><trkpt lat="40.27391557165612" lon="8.526085701646739"><ele>117.0</ele><time>2026-04-06T14:43:46Z</time></trkpt><trkpt lat="40.27379369846016" lon="8.525945605785415"><ele>117.0</ele><time>2026-04-06T14:43:47Z</time></trkpt><trkpt lat="40.27368457626201" lon="8.525816392439651"><ele>117.0</ele><time>2026-04-06T14:43:48Z</time></trkpt><trkpt lat="40.27361033002988" lon="8.52567589962478"><ele>117.0</ele><time>2026-04-06T14:43:49Z</time></trkpt><trkpt lat="40.27355169898543" lon="8.52553899774563"><ele>117.0</ele><time>2026-04-06T14:43:50.001Z</time></trkpt><trkpt lat="40.27352909065822" lon="8.525379494205835"><ele>117.0</ele><time>2026-04-06T14:43:51.001Z</time></trkpt><trkpt lat="40.27354427861082" lon="8.525195717483456"><ele>114.33333333333334</ele><time>2026-04-06T14:43:52.001Z</time></trkpt><trkpt lat="40.27355673938545" lon="8.52498329974051"><ele>111.66666666666667</ele><time>2026-04-06T14:43:53.001Z</time></trkpt><trkpt lat="40.273563020224465" lon="8.524750747371897"><ele>109.0</ele><time>2026-04-06T14:43:54.001Z</time></trkpt><trkpt lat="40.27356560770144" lon="8.524533556198266"><ele>107.0</ele><time>2026-04-06T14:43:55.001Z</time></trkpt><trkpt lat="40.27354009157362" lon="8.52431969000181"><ele>105.0</ele><time>2026-04-06T14:43:56.001Z</time></trkpt><trkpt lat="40.27350107556256" lon="8.524092952205846"><ele>103.0</ele><time>2026-04-06T14:43:57.001Z</time></trkpt><trkpt lat="40.27345013436757" lon="8.52385433939266"><ele>99.66666666666667</ele><time>2026-04-06T14:43:58.001Z</time></trkpt><trkpt lat="40.27338913287541" lon="8.523606376910138"><ele>96.33333333333334</ele><time>2026-04-06T14:43:59.001Z</time></trkpt><trkpt lat="40.273312428293075" lon="8.523356170561122"><ele>93.0</ele><time>2026-04-06T14:44:00.001Z</time></trkpt><trkpt lat="40.273227770021954" lon="8.523106430094474"><ele>95.33333333333334</ele><time>2026-04-06T14:44:01.001Z</time></trkpt><trkpt lat="40.27314061800073" lon="8.522865944534804"><ele>97.66666666666667</ele><time>2026-04-06T14:44:02.001Z</time></trkpt><trkpt lat="40.27305672067801" lon="8.522640138639952"><ele>100.0</ele><time>2026-04-06T14:44:03.001Z</time></trkpt><trkpt lat="40.272994418968516" lon="8.52241927887904"><ele>100.0</ele><time>2026-04-06T14:44:04.001Z</time></trkpt><trkpt lat="40.272921064469884" lon="8.522203166546355"><ele>100.0</ele><time>2026-04-06T14:44:05.001Z</time></trkpt><trkpt lat="40.27291798963752" lon="8.521949644579685"><ele>100.0</ele><time>2026-04-06T14:44:06.001Z</time></trkpt><trkpt lat="40.27289827347419" lon="8.521667832139533"><ele>96.0</ele><time>2026-04-06T14:44:07.001Z</time></trkpt><trkpt lat="40.272879078809055" lon="8.521380713353038"><ele>92.0</ele><time>2026-04-06T14:44:08.001Z</time></trkpt><trkpt lat="40.2728421184528" lon="8.521095085092032"><ele>88.0</ele><time>2026-04-06T14:44:09.001Z</time></trkpt><trkpt lat="40.272826092503166" lon="8.520827652588052"><ele>87.0</ele><time>2026-04-06T14:44:10.001Z</time></trkpt><trkpt lat="40.27281154600636" lon="8.520575437893152"><ele>86.0</ele><time>2026-04-06T14:44:11.001Z</time></trkpt><trkpt lat="40.27279901341745" lon="8.520331224630164"><ele>85.0</ele><time>2026-04-06T14:44:12.001Z</time></trkpt><trkpt lat="40.27277295605354" lon="8.519846565955229"><ele>85.0</ele><time>2026-04-06T14:44:14.001Z</time></trkpt><trkpt lat="40.272760537696854" lon="8.519621878156064"><ele>85.0</ele><time>2026-04-06T14:44:15.001Z</time></trkpt><trkpt lat="40.27274390091918" lon="8.519414393524517"><ele>85.0</ele><time>2026-04-06T14:44:16.001Z</time></trkpt><trkpt lat="40.27270686160021" lon="8.519211044849914"><ele>83.66666666666666</ele><time>2026-04-06T14:44:17.001Z</time></trkpt><trkpt lat="40.2726577716356" lon="8.519005304712795"><ele>82.33333333333333</ele><time>2026-04-06T14:44:18.001Z</time></trkpt><trkpt lat="40.27260261949837" lon="8.51878791800189"><ele>81.0</ele><time>2026-04-06T14:44:19.001Z</time></trkpt><trkpt lat="40.27254559439924" lon="8.518556354665494"><ele>79.0</ele><time>2026-04-06T14:44:20.001Z</time></trkpt><trkpt lat="40.27251024960406" lon="8.51832985364807"><ele>77.0</ele><time>2026-04-06T14:44:21.001Z</time></trkpt><trkpt lat="40.272461151153536" lon="8.518121803178744"><ele>75.0</ele><time>2026-04-06T14:44:22.001Z</time></trkpt><trkpt lat="40.27241126362223" lon="8.517913805741301"><ele>73.33333333333333</ele><time>2026-04-06T14:44:23.001Z</time></trkpt><trkpt lat="40.2723463581789" lon="8.517706518397004"><ele>71.66666666666666</ele><time>2026-04-06T14:44:24.001Z</time></trkpt><trkpt lat="40.27229750774896" lon="8.517490892106776"><ele>70.0</ele><time>2026-04-06T14:44:25.001Z</time></trkpt><trkpt lat="40.272236176133276" lon="8.517298553675543"><ele>70.75</ele><time>2026-04-06T14:44:26.001Z</time></trkpt><trkpt lat="40.27216001254445" lon="8.51713009521003"><ele>71.5</ele><time>2026-04-06T14:44:27.001Z</time></trkpt><trkpt lat="40.27207746701225" lon="8.517000242576785"><ele>72.25</ele><time>2026-04-06T14:44:28.001Z</time></trkpt><trkpt lat="40.27202811576704" lon="8.516873526256056"><ele>73.0</ele><time>2026-04-06T14:44:29.001Z</time></trkpt><trkpt lat="40.27199973699462" lon="8.516749471978494"><ele>73.0</ele><time>2026-04-06T14:44:30.001Z</time></trkpt><trkpt lat="40.27197866332665" lon="8.516618845856105"><ele>73.0</ele><time>2026-04-06T14:44:31.001Z</time></trkpt><trkpt lat="40.27201518812301" lon="8.51650034016591"><ele>73.0</ele><time>2026-04-06T14:44:32.001Z</time></trkpt><trkpt lat="40.27208100788735" lon="8.516413984097147"><ele>73.0</ele><time>2026-04-06T14:44:33.001Z</time></trkpt><trkpt lat="40.27216502707238" lon="8.516337692672533"><ele>73.0</ele><time>2026-04-06T14:44:34.001Z</time></trkpt><trkpt lat="40.27225873314743" lon="8.51625525275715"><ele>72.8</ele><time>2026-04-06T14:44:35.001Z</time></trkpt><trkpt lat="40.27235625303051" lon="8.516157919950277"><ele>72.6</ele><time>2026-04-06T14:44:36.001Z</time></trkpt><trkpt lat="40.27243823996832" lon="8.51605409002319"><ele>72.4</ele><time>2026-04-06T14:44:37.001Z</time></trkpt><trkpt lat="40.272492700044324" lon="8.515932431017799"><ele>72.2</ele><time>2026-04-06T14:44:38.001Z</time></trkpt><trkpt lat="40.27253014409113" lon="8.515809667832343"><ele>72.0</ele><time>2026-04-06T14:44:39.001Z</time></trkpt><trkpt lat="40.27250125102967" lon="8.515656557313822"><ele>72.0</ele><time>2026-04-06T14:44:40.001Z</time></trkpt><trkpt lat="40.27245863212418" lon="8.515506106777195"><ele>72.0</ele><time>2026-04-06T14:44:41.001Z</time></trkpt><trkpt lat="40.27239538287816" lon="8.515340895214244"><ele>72.0</ele><time>2026-04-06T14:44:42.001Z</time></trkpt><trkpt lat="40.27232780348327" lon="8.515170707330284"><ele>72.0</ele><time>2026-04-06T14:44:43.001Z</time></trkpt><trkpt lat="40.272243051812964" lon="8.515008025741423"><ele>72.0</ele><time>2026-04-06T14:44:44.001Z</time></trkpt><trkpt lat="40.27213089721635" lon="8.51485880308128"><ele>72.0</ele><time>2026-04-06T14:44:45.001Z</time></trkpt><trkpt lat="40.27193122181547" lon="8.514612549224305"><ele>72.0</ele><time>2026-04-06T14:44:47.001Z</time></trkpt><trkpt lat="40.27186055431432" lon="8.514507403213099"><ele>72.0</ele><time>2026-04-06T14:44:48.001Z</time></trkpt><trkpt lat="40.2718073183552" lon="8.514395534827788"><ele>72.0</ele><time>2026-04-06T14:44:49.001Z</time></trkpt><trkpt lat="40.27178251449638" lon="8.514271891333928"><ele>72.0</ele><time>2026-04-06T14:44:50.001Z</time></trkpt><trkpt lat="40.271790972413" lon="8.51413724468998"><ele>72.0</ele><time>2026-04-06T14:44:51.001Z</time></trkpt><trkpt lat="40.27183313094634" lon="8.514005539630658"><ele>72.0</ele><time>2026-04-06T14:44:52.001Z</time></trkpt><trkpt lat="40.271893923488285" lon="8.513900570418583"><ele>72.0</ele><time>2026-04-06T14:44:53.001Z</time></trkpt><trkpt lat="40.27196786383993" lon="8.513813772739676"><ele>72.0</ele><time>2026-04-06T14:44:54.001Z</time></trkpt><trkpt lat="40.272057316134855" lon="8.513737864117536"><ele>72.0</ele><time>2026-04-06T14:44:55.001Z</time></trkpt><trkpt lat="40.27215609948008" lon="8.513658243281682"><ele>72.0</ele><time>2026-04-06T14:44:56.001Z</time></trkpt><trkpt lat="40.272259551255324" lon="8.513550768722558"><ele>77.0</ele><time>2026-04-06T14:44:57.001Z</time></trkpt><trkpt lat="40.272366977253604" lon="8.513414660136782"><ele>82.0</ele><time>2026-04-06T14:44:58.001Z</time></trkpt><trkpt lat="40.27248059737198" lon="8.51326117641633"><ele>87.0</ele><time>2026-04-06T14:44:59.001Z</time></trkpt><trkpt lat="40.272593369789355" lon="8.513100877861564"><ele>87.0</ele><time>2026-04-06T14:45:00.001Z</time></trkpt><trkpt lat="40.27269461955423" lon="8.512956221006824"><ele>87.0</ele><time>2026-04-06T14:45:01.001Z</time></trkpt><trkpt lat="40.27279667826729" lon="8.512807602023807"><ele>87.0</ele><time>2026-04-06T14:45:02.001Z</time></trkpt><trkpt lat="40.272898317945504" lon="8.512637461948607"><ele>88.0</ele><time>2026-04-06T14:45:03.001Z</time></trkpt><trkpt lat="40.27299937059109" lon="8.512456020707843"><ele>89.0</ele><time>2026-04-06T14:45:04.001Z</time></trkpt><trkpt lat="40.27309664348088" lon="8.512268862554869"><ele>90.0</ele><time>2026-04-06T14:45:05.001Z</time></trkpt><trkpt lat="40.27318925164504" lon="8.512074055573194"><ele>86.25</ele><time>2026-04-06T14:45:06.001Z</time></trkpt><trkpt lat="40.27327103620772" lon="8.511898686123871"><ele>82.5</ele><time>2026-04-06T14:45:07.001Z</time></trkpt><trkpt lat="40.27334229639445" lon="8.511754466932196"><ele>78.75</ele><time>2026-04-06T14:45:08.001Z</time></trkpt><trkpt lat="40.273418678930916" lon="8.5116370130125"><ele>75.0</ele><time>2026-04-06T14:45:09.001Z</time></trkpt><trkpt lat="40.27351421822617" lon="8.51155911920925"><ele>75.0</ele><time>2026-04-06T14:45:10.001Z</time></trkpt><trkpt lat="40.2736227224153" lon="8.511537453739797"><ele>75.0</ele><time>2026-04-06T14:45:11.001Z</time></trkpt><trkpt lat="40.27373845027767" lon="8.511552489331155"><ele>75.0</ele><time>2026-04-06T14:45:12.001Z</time></trkpt><trkpt lat="40.27386150398324" lon="8.511598209652268"><ele>75.0</ele><time>2026-04-06T14:45:13.001Z</time></trkpt><trkpt lat="40.273997139528696" lon="8.51166873726437"><ele>76.33333333333333</ele><time>2026-04-06T14:45:14.001Z</time></trkpt><trkpt lat="40.274143212506274" lon="8.511747837909097"><ele>77.66666666666666</ele><time>2026-04-06T14:45:15.001Z</time></trkpt><trkpt lat="40.27430599218335" lon="8.511831729566593"><ele>79.0</ele><time>2026-04-06T14:45:16.001Z</time></trkpt><trkpt lat="40.27446688520344" lon="8.511909962368383"><ele>79.0</ele><time>2026-04-06T14:45:17.001Z</time></trkpt><trkpt lat="40.27461573177411" lon="8.511979588203443"><ele>79.0</ele><time>2026-04-06T14:45:18.001Z</time></trkpt><trkpt lat="40.274759338582456" lon="8.512050100987294"><ele>79.0</ele><time>2026-04-06T14:45:19.001Z</time></trkpt><trkpt lat="40.27489361631685" lon="8.512120069633442"><ele>82.0</ele><time>2026-04-06T14:45:20.001Z</time></trkpt><trkpt lat="40.27501646057816" lon="8.512194551602672"><ele>85.0</ele><time>2026-04-06T14:45:21.001Z</time></trkpt><trkpt lat="40.27511344788503" lon="8.512279157768786"><ele>88.0</ele><time>2026-04-06T14:45:22.001Z</time></trkpt><trkpt lat="40.275203855056866" lon="8.512396456235857"><ele>91.0</ele><time>2026-04-06T14:45:23.001Z</time></trkpt><trkpt lat="40.27528682686797" lon="8.51254392403699"><ele>91.0</ele><time>2026-04-06T14:45:24.001Z</time></trkpt><trkpt lat="40.27537430008249" lon="8.51270868586912"><ele>91.0</ele><time>2026-04-06T14:45:25.001Z</time></trkpt><trkpt lat="40.27546485326417" lon="8.512869855453124"><ele>91.0</ele><time>2026-04-06T14:45:26.001Z</time></trkpt><trkpt lat="40.27556965031879" lon="8.513010684755447"><ele>92.5</ele><time>2026-04-06T14:45:27.001Z</time></trkpt><trkpt lat="40.27569416563806" lon="8.513115893454511"><ele>94.0</ele><time>2026-04-06T14:45:28.001Z</time></trkpt><trkpt lat="40.2758262269291" lon="8.513194627076702"><ele>95.5</ele><time>2026-04-06T14:45:29.001Z</time></trkpt><trkpt lat="40.275959149050216" lon="8.513274334886207"><ele>97.0</ele><time>2026-04-06T14:45:30.001Z</time></trkpt><trkpt lat="40.2760885618588" lon="8.513353784377694"><ele>97.0</ele><time>2026-04-06T14:45:31.001Z</time></trkpt><trkpt lat="40.2762061140887" lon="8.513436908609412"><ele>97.0</ele><time>2026-04-06T14:45:32.001Z</time></trkpt><trkpt lat="40.27631229844574" lon="8.513535610249193"><ele>97.0</ele><time>2026-04-06T14:45:33.001Z</time></trkpt><trkpt lat="40.27641122665658" lon="8.513666404187598"><ele>97.0</ele><time>2026-04-06T14:45:34.001Z</time></trkpt><trkpt lat="40.27650155747209" lon="8.513828481693828"><ele>97.25</ele><time>2026-04-06T14:45:35.001Z</time></trkpt><trkpt lat="40.2765810147697" lon="8.513989587424046"><ele>97.5</ele><time>2026-04-06T14:45:36.001Z</time></trkpt><trkpt lat="40.27664016556084" lon="8.514136131535773"><ele>97.75</ele><time>2026-04-06T14:45:37.001Z</time></trkpt><trkpt lat="40.27668200022712" lon="8.514315728978442"><ele>98.0</ele><time>2026-04-06T14:45:38.001Z</time></trkpt><trkpt lat="40.27671745993257" lon="8.514499305443419"><ele>101.66666666666666</ele><time>2026-04-06T14:45:39.001Z</time></trkpt><trkpt lat="40.2767542004402" lon="8.51470691021999"><ele>105.33333333333334</ele><time>2026-04-06T14:45:40.001Z</time></trkpt><trkpt lat="40.276794360577945" lon="8.514930184407945"><ele>109.0</ele><time>2026-04-06T14:45:41.001Z</time></trkpt><trkpt lat="40.27684835991813" lon="8.515177124766018"><ele>114.66666666666667</ele><time>2026-04-06T14:45:42.001Z</time></trkpt><trkpt lat="40.276913741305975" lon="8.515419619198697"><ele>120.33333333333334</ele><time>2026-04-06T14:45:43.001Z</time></trkpt><trkpt lat="40.27696479055607" lon="8.515628031572733"><ele>126.0</ele><time>2026-04-06T14:45:44.001Z</time></trkpt><trkpt lat="40.27701336350424" lon="8.515794989609024"><ele>126.0</ele><time>2026-04-06T14:45:45.001Z</time></trkpt><trkpt lat="40.27706542267312" lon="8.51593725291904"><ele>126.0</ele><time>2026-04-06T14:45:46.001Z</time></trkpt><trkpt lat="40.27712765194885" lon="8.51607337514268"><ele>126.0</ele><time>2026-04-06T14:45:47.001Z</time></trkpt><trkpt lat="40.27722434603157" lon="8.516176003446727"><ele>126.0</ele><time>2026-04-06T14:45:48.001Z</time></trkpt><trkpt lat="40.27733615853856" lon="8.51626267441515"><ele>124.8</ele><time>2026-04-06T14:45:49.001Z</time></trkpt><trkpt lat="40.277431542297435" lon="8.51632958447689"><ele>123.6</ele><time>2026-04-06T14:45:50.001Z</time></trkpt><trkpt lat="40.277515748543586" lon="8.516385789712734"><ele>122.4</ele><time>2026-04-06T14:45:51.001Z</time></trkpt><trkpt lat="40.27759846648034" lon="8.516430102381145"><ele>121.2</ele><time>2026-04-06T14:45:52.001Z</time></trkpt><trkpt lat="40.27769413219948" lon="8.516447070805423"><ele>120.0</ele><time>2026-04-06T14:45:53.001Z</time></trkpt><trkpt lat="40.27780324709344" lon="8.516464655194236"><ele>120.0</ele><time>2026-04-06T14:45:54.001Z</time></trkpt><trkpt lat="40.277927563520976" lon="8.516416719621308"><ele>120.0</ele><time>2026-04-06T14:45:55.001Z</time></trkpt><trkpt lat="40.27804865125576" lon="8.516322927610005"><ele>120.0</ele><time>2026-04-06T14:45:56.001Z</time></trkpt><trkpt lat="40.27816733181549" lon="8.516230429967273"><ele>120.0</ele><time>2026-04-06T14:45:57.001Z</time></trkpt><trkpt lat="40.278263991330014" lon="8.516137753162083"><ele>119.25</ele><time>2026-04-06T14:45:58.001Z</time></trkpt><trkpt lat="40.27835488171302" lon="8.516055582075799"><ele>118.5</ele><time>2026-04-06T14:45:59.001Z</time></trkpt><trkpt lat="40.2784129330565" lon="8.515932424498581"><ele>117.75</ele><time>2026-04-06T14:46:00.001Z</time></trkpt><trkpt lat="40.27843578168412" lon="8.515774391214183"><ele>117.0</ele><time>2026-04-06T14:46:01.001Z</time></trkpt><trkpt lat="40.27842774648382" lon="8.515600351308628"><ele>117.0</ele><time>2026-04-06T14:46:02.001Z</time></trkpt><trkpt lat="40.27841306294925" lon="8.515410288450092"><ele>117.0</ele><time>2026-04-06T14:46:03.001Z</time></trkpt><trkpt lat="40.278398031671614" lon="8.515221460326572"><ele>117.0</ele><time>2026-04-06T14:46:04.001Z</time></trkpt><trkpt lat="40.27838574587995" lon="8.515050916435161"><ele>117.0</ele><time>2026-04-06T14:46:05.001Z</time></trkpt><trkpt lat="40.278395713637366" lon="8.514884512395042"><ele>115.66666666666666</ele><time>2026-04-06T14:46:06.001Z</time></trkpt><trkpt lat="40.278424768220184" lon="8.514725083170202"><ele>114.33333333333333</ele><time>2026-04-06T14:46:07.001Z</time></trkpt><trkpt lat="40.27849643418822" lon="8.51455947964233"><ele>113.0</ele><time>2026-04-06T14:46:08.001Z</time></trkpt><trkpt lat="40.278601031902696" lon="8.514368243327155"><ele>110.66666666666666</ele><time>2026-04-06T14:46:09.001Z</time></trkpt><trkpt lat="40.278700823173736" lon="8.514149057162111"><ele>108.33333333333334</ele><time>2026-04-06T14:46:10.001Z</time></trkpt><trkpt lat="40.278774277640494" lon="8.513964738376677"><ele>106.0</ele><time>2026-04-06T14:46:11.001Z</time></trkpt><trkpt lat="40.27884572232543" lon="8.513822909779742"><ele>106.8</ele><time>2026-04-06T14:46:12.001Z</time></trkpt><trkpt lat="40.27891345736064" lon="8.51373669446858"><ele>107.6</ele><time>2026-04-06T14:46:13.001Z</time></trkpt><trkpt lat="40.27898200922867" lon="8.51369121451336"><ele>108.4</ele><time>2026-04-06T14:46:14.001Z</time></trkpt><trkpt lat="40.279063483018895" lon="8.513719151326658"><ele>109.2</ele><time>2026-04-06T14:46:15.001Z</time></trkpt><trkpt lat="40.27917257475299" lon="8.513742386460635"><ele>110.0</ele><time>2026-04-06T14:46:16.001Z</time></trkpt><trkpt lat="40.27929686124734" lon="8.513790199372579"><ele>117.0</ele><time>2026-04-06T14:46:17.001Z</time></trkpt><trkpt lat="40.27943212474323" lon="8.51385553990023"><ele>124.0</ele><time>2026-04-06T14:46:18.001Z</time></trkpt><trkpt lat="40.279746746163305" lon="8.513998609488958"><ele>124.0</ele><time>2026-04-06T14:46:20.001Z</time></trkpt><trkpt lat="40.279890527865064" lon="8.51406921398968"><ele>124.0</ele><time>2026-04-06T14:46:21.001Z</time></trkpt><trkpt lat="40.280023200444276" lon="8.51412044781742"><ele>124.0</ele><time>2026-04-06T14:46:22.001Z</time></trkpt><trkpt lat="40.280172715970494" lon="8.514142802316714"><ele>124.0</ele><time>2026-04-06T14:46:23.001Z</time></trkpt><trkpt lat="40.280318589570435" lon="8.514141530010168"><ele>124.0</ele><time>2026-04-06T14:46:24.001Z</time></trkpt><trkpt lat="40.280478418203046" lon="8.514141327849902"><ele>124.0</ele><time>2026-04-06T14:46:25.001Z</time></trkpt><trkpt lat="40.28063389965651" lon="8.514134329456102"><ele>124.0</ele><time>2026-04-06T14:46:26.001Z</time></trkpt><trkpt lat="40.28079162838808" lon="8.514115526093919"><ele>122.66666666666667</ele><time>2026-04-06T14:46:27.001Z</time></trkpt><trkpt lat="40.28097274385508" lon="8.514089055626886"><ele>121.33333333333334</ele><time>2026-04-06T14:46:28.001Z</time></trkpt><trkpt lat="40.281162312039974" lon="8.514054910014275"><ele>120.0</ele><time>2026-04-06T14:46:29.001Z</time></trkpt><trkpt lat="40.28135832154001" lon="8.514027991599233"><ele>121.0</ele><time>2026-04-06T14:46:30.001Z</time></trkpt><trkpt lat="40.281536484560455" lon="8.513984725487923"><ele>122.0</ele><time>2026-04-06T14:46:31.001Z</time></trkpt><trkpt lat="40.28169216870119" lon="8.513938239531297"><ele>123.0</ele><time>2026-04-06T14:46:32.001Z</time></trkpt><trkpt lat="40.281834240367296" lon="8.513886381164369"><ele>123.0</ele><time>2026-04-06T14:46:33.001Z</time></trkpt><trkpt lat="40.281961269161116" lon="8.513830041686335"><ele>123.00000000000001</ele><time>2026-04-06T14:46:34.001Z</time></trkpt><trkpt lat="40.282078418541744" lon="8.5137788963877"><ele>123.00000000000001</ele><time>2026-04-06T14:46:35.001Z</time></trkpt><trkpt lat="40.28217468545244" lon="8.513741722186795"><ele>123.0</ele><time>2026-04-06T14:46:36.001Z</time></trkpt><trkpt lat="40.28224173832688" lon="8.513713768000885"><ele>123.0</ele><time>2026-04-06T14:46:37.001Z</time></trkpt><trkpt lat="40.2823157679718" lon="8.5137082741766"><ele>123.0</ele><time>2026-04-06T14:46:40.001Z</time></trkpt><trkpt lat="40.28239847954097" lon="8.513655168959648"><ele>123.00000000000001</ele><time>2026-04-06T14:46:42.001Z</time></trkpt><trkpt lat="40.2824532809859" lon="8.513579208558673"><ele>123.00000000000001</ele><time>2026-04-06T14:46:43.001Z</time></trkpt><trkpt lat="40.282530991879426" lon="8.5134626263637"><ele>123.0</ele><time>2026-04-06T14:46:44.001Z</time></trkpt><trkpt lat="40.28260221849845" lon="8.513351467259469"><ele>123.0</ele><time>2026-04-06T14:46:45.001Z</time></trkpt><trkpt lat="40.28269748987865" lon="8.513221188340824"><ele>123.0</ele><time>2026-04-06T14:46:46.001Z</time></trkpt><trkpt lat="40.282800970379476" lon="8.513107334587161"><ele>123.0</ele><time>2026-04-06T14:46:47.001Z</time></trkpt><trkpt lat="40.28291577991712" lon="8.513011206312825"><ele>123.0</ele><time>2026-04-06T14:46:48.001Z</time></trkpt><trkpt lat="40.28305255881462" lon="8.512936084784293"><ele>123.0</ele><time>2026-04-06T14:46:49.001Z</time></trkpt><trkpt lat="40.283214297044644" lon="8.512940287460161"><ele>121.33333333333334</ele><time>2026-04-06T14:46:50Z</time></trkpt><trkpt lat="40.28335796476109" lon="8.512932872681152"><ele>119.66666666666667</ele><time>2026-04-06T14:46:51Z</time></trkpt><trkpt lat="40.28351902761704" lon="8.512922012196046"><ele>118.0</ele><time>2026-04-06T14:46:52Z</time></trkpt><trkpt lat="40.28369897820087" lon="8.512930204666096"><ele>118.0</ele><time>2026-04-06T14:46:53Z</time></trkpt><trkpt lat="40.283851290784014" lon="8.512925505551726"><ele>118.0</ele><time>2026-04-06T14:46:54Z</time></trkpt><trkpt lat="40.283971155538154" lon="8.512888992712753"><ele>118.0</ele><time>2026-04-06T14:46:55Z</time></trkpt><trkpt lat="40.28407599399145" lon="8.512796063226896"><ele>118.0</ele><time>2026-04-06T14:46:56Z</time></trkpt><trkpt lat="40.28418001288646" lon="8.512642057514071"><ele>117.0</ele><time>2026-04-06T14:46:57Z</time></trkpt><trkpt lat="40.284287640233984" lon="8.51245578986039"><ele>116.0</ele><time>2026-04-06T14:46:58Z</time></trkpt><trkpt lat="40.28441593126995" lon="8.512252181848837"><ele>115.0</ele><time>2026-04-06T14:46:59Z</time></trkpt><trkpt lat="40.28454100969212" lon="8.512053844072858"><ele>117.66666666666667</ele><time>2026-04-06T14:47:00Z</time></trkpt><trkpt lat="40.2846716334571" lon="8.51186245720139"><ele>120.33333333333334</ele><time>2026-04-06T14:47:01Z</time></trkpt><trkpt lat="40.28481329558279" lon="8.511652979763781"><ele>123.0</ele><time>2026-04-06T14:47:02Z</time></trkpt><trkpt lat="40.28494414323816" lon="8.511451191888796"><ele>119.0</ele><time>2026-04-06T14:47:03Z</time></trkpt><trkpt lat="40.28505623928434" lon="8.511260236150038"><ele>115.0</ele><time>2026-04-06T14:47:04Z</time></trkpt><trkpt lat="40.28516795227215" lon="8.511088045027039"><ele>111.0</ele><time>2026-04-06T14:47:05Z</time></trkpt><trkpt lat="40.28529839026806" lon="8.510938538596298"><ele>111.0</ele><time>2026-04-06T14:47:06Z</time></trkpt><trkpt lat="40.285477658773004" lon="8.510840694347985"><ele>111.0</ele><time>2026-04-06T14:47:07Z</time></trkpt><trkpt lat="40.28565719541466" lon="8.510693490880705"><ele>111.0</ele><time>2026-04-06T14:47:08Z</time></trkpt><trkpt lat="40.285858362609595" lon="8.510543500667833"><ele>110.0</ele><time>2026-04-06T14:47:09Z</time></trkpt><trkpt lat="40.28604156550318" lon="8.510363979430993"><ele>109.0</ele><time>2026-04-06T14:47:10Z</time></trkpt><trkpt lat="40.286214673290175" lon="8.510168030736226"><ele>109.0</ele><time>2026-04-06T14:47:11Z</time></trkpt><trkpt lat="40.28638982560902" lon="8.509970059127957"><ele>109.0</ele><time>2026-04-06T14:47:12Z</time></trkpt><trkpt lat="40.286572703663516" lon="8.509768075600984"><ele>105.66666666666667</ele><time>2026-04-06T14:47:13Z</time></trkpt><trkpt lat="40.28674776561917" lon="8.509591253195776"><ele>102.33333333333334</ele><time>2026-04-06T14:47:14Z</time></trkpt><trkpt lat="40.2869211997781" lon="8.509437542342951"><ele>99.0</ele><time>2026-04-06T14:47:15Z</time></trkpt><trkpt lat="40.28707767542001" lon="8.509291107328975"><ele>99.0</ele><time>2026-04-06T14:47:16Z</time></trkpt><trkpt lat="40.287206879782914" lon="8.509153231370012"><ele>99.0</ele><time>2026-04-06T14:47:17Z</time></trkpt><trkpt lat="40.28729985292779" lon="8.509007429971994"><ele>99.0</ele><time>2026-04-06T14:47:18Z</time></trkpt><trkpt lat="40.28735284984869" lon="8.508854235936706"><ele>99.0</ele><time>2026-04-06T14:47:19Z</time></trkpt><trkpt lat="40.2873724418151" lon="8.508687014918738"><ele>92.33333333333333</ele><time>2026-04-06T14:47:20Z</time></trkpt><trkpt lat="40.287356145640786" lon="8.508495071538125"><ele>85.66666666666666</ele><time>2026-04-06T14:47:21Z</time></trkpt><trkpt lat="40.287327145160496" lon="8.508268239587562"><ele>79.0</ele><time>2026-04-06T14:47:22Z</time></trkpt><trkpt lat="40.28730430018454" lon="8.50802509902131"><ele>76.33333333333333</ele><time>2026-04-06T14:47:23Z</time></trkpt><trkpt lat="40.28728023023976" lon="8.50775887036813"><ele>73.66666666666667</ele><time>2026-04-06T14:47:24Z</time></trkpt><trkpt lat="40.287258501861636" lon="8.507506063517228"><ele>71.0</ele><time>2026-04-06T14:47:25Z</time></trkpt><trkpt lat="40.287237328680476" lon="8.507249956047403"><ele>82.0</ele><time>2026-04-06T14:47:26Z</time></trkpt><trkpt lat="40.28722085385858" lon="8.506983188655388"><ele>93.0</ele><time>2026-04-06T14:47:27Z</time></trkpt><trkpt lat="40.28720807075842" lon="8.506701498388173"><ele>104.0</ele><time>2026-04-06T14:47:28Z</time></trkpt><trkpt lat="40.287218895401175" lon="8.506410397938271"><ele>102.33333333333333</ele><time>2026-04-06T14:47:29Z</time></trkpt><trkpt lat="40.28721596127093" lon="8.506136123371958"><ele>100.66666666666666</ele><time>2026-04-06T14:47:30Z</time></trkpt><trkpt lat="40.28719955585568" lon="8.50587998145369"><ele>99.0</ele><time>2026-04-06T14:47:31Z</time></trkpt><trkpt lat="40.28719823200823" lon="8.5056273454434"><ele>99.33333333333334</ele><time>2026-04-06T14:47:32Z</time></trkpt><trkpt lat="40.28720388265093" lon="8.505375127280804"><ele>99.66666666666667</ele><time>2026-04-06T14:47:33.001Z</time></trkpt><trkpt lat="40.287230768422276" lon="8.505114998609798"><ele>100.0</ele><time>2026-04-06T14:47:34.001Z</time></trkpt><trkpt lat="40.28730633639553" lon="8.504870361545937"><ele>89.66666666666667</ele><time>2026-04-06T14:47:35.001Z</time></trkpt><trkpt lat="40.28739431615329" lon="8.504643238843961"><ele>79.33333333333334</ele><time>2026-04-06T14:47:36.001Z</time></trkpt><trkpt lat="40.287502913554626" lon="8.504434665168686"><ele>69.0</ele><time>2026-04-06T14:47:37.001Z</time></trkpt><trkpt lat="40.28763583652218" lon="8.50425866656554"><ele>69.0</ele><time>2026-04-06T14:47:38.001Z</time></trkpt><trkpt lat="40.287777726877756" lon="8.504060447708428"><ele>69.0</ele><time>2026-04-06T14:47:39.001Z</time></trkpt><trkpt lat="40.28794763204847" lon="8.503885782010993"><ele>69.0</ele><time>2026-04-06T14:47:40.001Z</time></trkpt><trkpt lat="40.288111845067185" lon="8.503712244591675"><ele>64.0</ele><time>2026-04-06T14:47:41Z</time></trkpt><trkpt lat="40.28825616115103" lon="8.503565354860369"><ele>59.0</ele><time>2026-04-06T14:47:42Z</time></trkpt><trkpt lat="40.28838894036485" lon="8.50341943846673"><ele>54.0</ele><time>2026-04-06T14:47:43Z</time></trkpt><trkpt lat="40.288485776849335" lon="8.503272321502557"><ele>54.0</ele><time>2026-04-06T14:47:44Z</time></trkpt><trkpt lat="40.28853302409373" lon="8.503095533763677"><ele>54.00000000000001</ele><time>2026-04-06T14:47:45Z</time></trkpt><trkpt lat="40.288548732814185" lon="8.502918392522103"><ele>54.00000000000001</ele><time>2026-04-06T14:47:46Z</time></trkpt><trkpt lat="40.28855087243924" lon="8.502786880988461"><ele>54.0</ele><time>2026-04-06T14:47:47Z</time></trkpt><trkpt lat="40.288587046817554" lon="8.502711261333454"><ele>54.0</ele><time>2026-04-06T14:47:48Z</time></trkpt><trkpt lat="40.28870101846906" lon="8.50267038359383"><ele>54.0</ele><time>2026-04-06T14:47:50Z</time></trkpt><trkpt lat="40.288766117364396" lon="8.502742780433513"><ele>54.0</ele><time>2026-04-06T14:47:51Z</time></trkpt><trkpt lat="40.288808182442956" lon="8.502884276042339"><ele>54.0</ele><time>2026-04-06T14:47:52Z</time></trkpt><trkpt lat="40.28882573127867" lon="8.503087666359598"><ele>54.0</ele><time>2026-04-06T14:47:53Z</time></trkpt><trkpt lat="40.288836672411726" lon="8.50332574300825"><ele>54.0</ele><time>2026-04-06T14:47:54Z</time></trkpt><trkpt lat="40.28884536101461" lon="8.503587581524805"><ele>54.0</ele><time>2026-04-06T14:47:55Z</time></trkpt><trkpt lat="40.288850773315765" lon="8.503840837057108"><ele>54.0</ele><time>2026-04-06T14:47:56Z</time></trkpt><trkpt lat="40.28885747926059" lon="8.504120549789164"><ele>51.0</ele><time>2026-04-06T14:47:57Z</time></trkpt><trkpt lat="40.28886327723887" lon="8.504422735636654"><ele>48.0</ele><time>2026-04-06T14:47:58Z</time></trkpt><trkpt lat="40.28886690530854" lon="8.504704431032806"><ele>45.0</ele><time>2026-04-06T14:47:59Z</time></trkpt><trkpt lat="40.2888719295075" lon="8.504984980163899"><ele>44.666666666666664</ele><time>2026-04-06T14:48:00Z</time></trkpt><trkpt lat="40.28887775108456" lon="8.505245728963477"><ele>44.33333333333333</ele><time>2026-04-06T14:48:01Z</time></trkpt><trkpt lat="40.28887486959344" lon="8.50547992685396"><ele>44.0</ele><time>2026-04-06T14:48:02Z</time></trkpt><trkpt lat="40.28886000721927" lon="8.505680609889955"><ele>42.800000000000004</ele><time>2026-04-06T14:48:03Z</time></trkpt><trkpt lat="40.28884613958023" lon="8.505836514502773"><ele>41.6</ele><time>2026-04-06T14:48:04Z</time></trkpt><trkpt lat="40.288853041246696" lon="8.505964044912348"><ele>40.4</ele><time>2026-04-06T14:48:05Z</time></trkpt><trkpt lat="40.28889363889348" lon="8.506071527099309"><ele>39.2</ele><time>2026-04-06T14:48:06Z</time></trkpt><trkpt lat="40.288965323092164" lon="8.506160595536894"><ele>38.0</ele><time>2026-04-06T14:48:07Z</time></trkpt><trkpt lat="40.28905334973421" lon="8.506205850661564"><ele>36.4</ele><time>2026-04-06T14:48:08Z</time></trkpt><trkpt lat="40.28916405098767" lon="8.50620763332653"><ele>34.8</ele><time>2026-04-06T14:48:09Z</time></trkpt><trkpt lat="40.289276928098836" lon="8.506186995275755"><ele>33.2</ele><time>2026-04-06T14:48:10Z</time></trkpt><trkpt lat="40.289370962903185" lon="8.506112870564502"><ele>31.6</ele><time>2026-04-06T14:48:11Z</time></trkpt><trkpt lat="40.28942712763394" lon="8.50599915020454"><ele>30.0</ele><time>2026-04-06T14:48:12Z</time></trkpt><trkpt lat="40.28945538847434" lon="8.505844912266447"><ele>30.0</ele><time>2026-04-06T14:48:13Z</time></trkpt><trkpt lat="40.28947040294443" lon="8.50564865606837"><ele>30.0</ele><time>2026-04-06T14:48:14Z</time></trkpt><trkpt lat="40.289486858646974" lon="8.505421907251103"><ele>30.0</ele><time>2026-04-06T14:48:15Z</time></trkpt><trkpt lat="40.28951544959779" lon="8.505202500241014"><ele>30.0</ele><time>2026-04-06T14:48:16Z</time></trkpt><trkpt lat="40.289585249970514" lon="8.5049957829906"><ele>30.0</ele><time>2026-04-06T14:48:17Z</time></trkpt><trkpt lat="40.2896614641073" lon="8.504762981550568"><ele>30.0</ele><time>2026-04-06T14:48:18Z</time></trkpt><trkpt lat="40.28974381185736" lon="8.50452828005094"><ele>24.333333333333332</ele><time>2026-04-06T14:48:19Z</time></trkpt><trkpt lat="40.28980812762857" lon="8.504305783295537"><ele>18.666666666666664</ele><time>2026-04-06T14:48:20Z</time></trkpt><trkpt lat="40.2898854767517" lon="8.504101328367542"><ele>13.0</ele><time>2026-04-06T14:48:21Z</time></trkpt><trkpt lat="40.289959002614815" lon="8.503909146146041"><ele>13.666666666666666</ele><time>2026-04-06T14:48:22Z</time></trkpt><trkpt lat="40.29004254872951" lon="8.503730363586442"><ele>14.333333333333332</ele><time>2026-04-06T14:48:23Z</time></trkpt><trkpt lat="40.29015773028671" lon="8.50358559794276"><ele>15.0</ele><time>2026-04-06T14:48:24Z</time></trkpt><trkpt lat="40.29029929704549" lon="8.503462549538318"><ele>15.0</ele><time>2026-04-06T14:48:25Z</time></trkpt><trkpt lat="40.290447107434254" lon="8.503362554827078"><ele>15.0</ele><time>2026-04-06T14:48:26Z</time></trkpt><trkpt lat="40.29059419816412" lon="8.503310242422113"><ele>15.0</ele><time>2026-04-06T14:48:27Z</time></trkpt><trkpt lat="40.290753815219446" lon="8.503273586486033"><ele>12.75</ele><time>2026-04-06T14:48:28Z</time></trkpt><trkpt lat="40.29091950102803" lon="8.503280384139272"><ele>10.5</ele><time>2026-04-06T14:48:29Z</time></trkpt><trkpt lat="40.291065727823124" lon="8.503293723239985"><ele>8.25</ele><time>2026-04-06T14:48:30Z</time></trkpt><trkpt lat="40.291196321045575" lon="8.503302886432584"><ele>6.0</ele><time>2026-04-06T14:48:31Z</time></trkpt><trkpt lat="40.29132230424686" lon="8.503311943118282"><ele>5.8</ele><time>2026-04-06T14:48:32Z</time></trkpt><trkpt lat="40.29143890881338" lon="8.503319667306648"><ele>5.6</ele><time>2026-04-06T14:48:33Z</time></trkpt><trkpt lat="40.29155068476034" lon="8.503324991212866"><ele>5.4</ele><time>2026-04-06T14:48:34Z</time></trkpt><trkpt lat="40.29165449410167" lon="8.503331277984586"><ele>5.2</ele><time>2026-04-06T14:48:35Z</time></trkpt><trkpt lat="40.29175061267307" lon="8.503337964115527"><ele>5.0</ele><time>2026-04-06T14:48:36Z</time></trkpt><trkpt lat="40.291841526549604" lon="8.503345807591913"><ele>5.0</ele><time>2026-04-06T14:48:37Z</time></trkpt><trkpt lat="40.29192562280328" lon="8.5033491537503"><ele>5.0</ele><time>2026-04-06T14:48:38Z</time></trkpt><trkpt lat="40.29201319348522" lon="8.503352166298615"><ele>5.0</ele><time>2026-04-06T14:48:39Z</time></trkpt><trkpt lat="40.292103144768966" lon="8.503357578382662"><ele>5.0</ele><time>2026-04-06T14:48:40Z</time></trkpt><trkpt lat="40.29219675031965" lon="8.50336085895236"><ele>5.0</ele><time>2026-04-06T14:48:41Z</time></trkpt><trkpt lat="40.2922832983047" lon="8.503364653745649"><ele>5.0</ele><time>2026-04-06T14:48:42Z</time></trkpt><trkpt lat="40.292357839901776" lon="8.503369072069416"><ele>5.0</ele><time>2026-04-06T14:48:43Z</time></trkpt><trkpt lat="40.292427936706375" lon="8.503375666414792"><ele>5.0</ele><time>2026-04-06T14:48:44Z</time></trkpt><trkpt lat="40.29249559290913" lon="8.503383507977222"><ele>5.0</ele><time>2026-04-06T14:48:45Z</time></trkpt><trkpt lat="40.29257346094244" lon="8.503391726732172"><ele>5.0</ele><time>2026-04-06T14:48:46Z</time></trkpt><trkpt lat="40.292649673230244" lon="8.50339577528273"><ele>5.0</ele><time>2026-04-06T14:48:47Z</time></trkpt><trkpt lat="40.29272533785461" lon="8.503403003207225"><ele>5.0</ele><time>2026-04-06T14:48:48Z</time></trkpt><trkpt lat="40.29280182770852" lon="8.50341476176803"><ele>5.0</ele><time>2026-04-06T14:48:49Z</time></trkpt><trkpt lat="40.292879053575" lon="8.503416118307005"><ele>5.0</ele><time>2026-04-06T14:48:50Z</time></trkpt><trkpt lat="40.292953305777836" lon="8.503415192665214"><ele>5.0</ele><time>2026-04-06T14:48:51Z</time></trkpt><trkpt lat="40.29302008637632" lon="8.5034196631836"><ele>5.0</ele><time>2026-04-06T14:48:52.001Z</time></trkpt><trkpt lat="40.29311043365258" lon="8.503421853353133"><ele>5.0</ele><time>2026-04-06T14:48:54Z</time></trkpt><trkpt lat="40.29319784589381" lon="8.503424842044167"><ele>5.0</ele><time>2026-04-06T14:48:56Z</time></trkpt><trkpt lat="40.29329177824472" lon="8.503446812633422"><ele>5.0</ele><time>2026-04-06T14:48:58Z</time></trkpt><trkpt lat="40.29336108055125" lon="8.503432503096482"><ele>5.333333333333334</ele><time>2026-04-06T14:49:00Z</time></trkpt><trkpt lat="40.29342998156432" lon="8.503455675731797"><ele>5.666666666666667</ele><time>2026-04-06T14:49:02Z</time></trkpt><trkpt lat="40.293515445229815" lon="8.50346139206884"><ele>6.0</ele><time>2026-04-06T14:49:05Z</time></trkpt><trkpt lat="40.29358736311476" lon="8.503466213364229"><ele>6.333333333333334</ele><time>2026-04-06T14:49:22Z</time></trkpt><trkpt lat="40.29368057648066" lon="8.503473450492299"><ele>6.666666666666667</ele><time>2026-04-06T14:49:24Z</time></trkpt><trkpt lat="40.29374661303725" lon="8.503479278084217"><ele>7.0</ele><time>2026-04-06T14:49:26Z</time></trkpt><trkpt lat="40.2938457116392" lon="8.503490437771633"><ele>6.833333333333334</ele><time>2026-04-06T14:49:29Z</time></trkpt><trkpt lat="40.29392349178946" lon="8.503500737762355"><ele>6.666666666666667</ele><time>2026-04-06T14:49:31Z</time></trkpt><trkpt lat="40.29400390314663" lon="8.503513465306366"><ele>6.5</ele><time>2026-04-06T14:49:33Z</time></trkpt><trkpt lat="40.29409431508376" lon="8.503526936244992"><ele>6.333333333333334</ele><time>2026-04-06T14:49:35Z</time></trkpt><trkpt lat="40.29418051664594" lon="8.503539723562055"><ele>6.166666666666667</ele><time>2026-04-06T14:49:37Z</time></trkpt><trkpt lat="40.29424684965368" lon="8.503549024041899"><ele>6.0</ele><time>2026-04-06T14:49:39Z</time></trkpt><trkpt lat="40.29431321426709" lon="8.503558207710075"><ele>6.0</ele><time>2026-04-06T14:49:41Z</time></trkpt><trkpt lat="40.294405695990136" lon="8.50357100552462"><ele>6.0</ele><time>2026-04-06T14:49:44Z</time></trkpt><trkpt lat="40.294482495977526" lon="8.503581633266219"><ele>6.0</ele><time>2026-04-06T14:49:46Z</time></trkpt><trkpt lat="40.294554845037865" lon="8.503589852262218"><ele>6.0</ele><time>2026-04-06T14:49:48Z</time></trkpt><trkpt lat="40.29463385874833" lon="8.503582319602163"><ele>6.0</ele><time>2026-04-06T14:49:51Z</time></trkpt><trkpt lat="40.29470683103591" lon="8.503582331694206"><ele>6.0</ele><time>2026-04-06T14:49:54Z</time></trkpt><trkpt lat="40.29477635142793" lon="8.503593260073322"><ele>6.6</ele><time>2026-04-06T14:49:56Z</time></trkpt><trkpt lat="40.29487519610951" lon="8.50362098072233"><ele>7.199999999999999</ele><time>2026-04-06T14:49:58Z</time></trkpt><trkpt lat="40.29493008879168" lon="8.50347490099584"><ele>7.800000000000001</ele><time>2026-04-06T14:50:01Z</time></trkpt><trkpt lat="40.294951686840655" lon="8.503363321765518"><ele>8.4</ele><time>2026-04-06T14:50:04Z</time></trkpt><trkpt lat="40.29494721402657" lon="8.503251017974602"><ele>9.0</ele><time>2026-04-06T14:50:07Z</time></trkpt><trkpt lat="40.294942752854496" lon="8.503167561829299"><ele>9.0</ele><time>2026-04-06T14:50:09Z</time></trkpt><trkpt lat="40.2949393608712" lon="8.503081351622903"><ele>9.0</ele><time>2026-04-06T14:50:11Z</time></trkpt><trkpt lat="40.29493183603387" lon="8.502955564884447"><ele>9.0</ele><time>2026-04-06T14:50:13Z</time></trkpt><trkpt lat="40.29494553992623" lon="8.502832702695907"><ele>9.0</ele><time>2026-04-06T14:50:15Z</time></trkpt><trkpt lat="40.29496372920734" lon="8.502725526737233"><ele>9.0</ele><time>2026-04-06T14:50:17Z</time></trkpt><trkpt lat="40.29498186240036" lon="8.502617861108565"><ele>9.0</ele><time>2026-04-06T14:50:19Z</time></trkpt><trkpt lat="40.29500091564803" lon="8.502475443678078"><ele>8.8</ele><time>2026-04-06T14:50:21Z</time></trkpt><trkpt lat="40.29502342951334" lon="8.502321367035037"><ele>8.600000000000001</ele><time>2026-04-06T14:50:23Z</time></trkpt><trkpt lat="40.295049765111884" lon="8.502187914419185"><ele>8.4</ele><time>2026-04-06T14:50:25Z</time></trkpt><trkpt lat="40.29506948367544" lon="8.502042013485099"><ele>8.200000000000001</ele><time>2026-04-06T14:50:27Z</time></trkpt><trkpt lat="40.29509376528877" lon="8.501901703583277"><ele>8.0</ele><time>2026-04-06T14:50:29Z</time></trkpt><trkpt lat="40.29511495889009" lon="8.501761260876542"><ele>7.25</ele><time>2026-04-06T14:50:31Z</time></trkpt><trkpt lat="40.2951354251081" lon="8.501620011207617"><ele>6.5</ele><time>2026-04-06T14:50:33Z</time></trkpt><trkpt lat="40.295165145044756" lon="8.501469142493763"><ele>5.75</ele><time>2026-04-06T14:50:35Z</time></trkpt><trkpt lat="40.295190631663445" lon="8.501314196004445"><ele>5.0</ele><time>2026-04-06T14:50:37Z</time></trkpt><trkpt lat="40.2952151520996" lon="8.501179590070198"><ele>5.0</ele><time>2026-04-06T14:50:39Z</time></trkpt><trkpt lat="40.29522862983545" lon="8.501076633445836"><ele>5.0</ele><time>2026-04-06T14:50:41Z</time></trkpt><trkpt lat="40.29524530564079" lon="8.500996464301508"><ele>5.0</ele><time>2026-04-06T14:50:48Z</time></trkpt><trkpt lat="40.29526311919751" lon="8.500859979203769"><ele>5.0</ele><time>2026-04-06T14:50:50Z</time></trkpt><trkpt lat="40.295275373671515" lon="8.500764067257158"><ele>5.0</ele><time>2026-04-06T14:50:51Z</time></trkpt><trkpt lat="40.295288352060396" lon="8.500673456555576"><ele>5.0</ele><time>2026-04-06T14:50:52Z</time></trkpt><trkpt lat="40.295305061945044" lon="8.500573146204918"><ele>5.0</ele><time>2026-04-06T14:50:53Z</time></trkpt><trkpt lat="40.295321981546586" lon="8.500478179087043"><ele>5.0</ele><time>2026-04-06T14:50:54Z</time></trkpt><trkpt lat="40.295340617658866" lon="8.500396840527765"><ele>5.0</ele><time>2026-04-06T14:50:55Z</time></trkpt><trkpt lat="40.29537837706079" lon="8.50025116569252"><ele>5.0</ele><time>2026-04-06T14:50:57Z</time></trkpt><trkpt lat="40.29541469151299" lon="8.500135508326945"><ele>5.0</ele><time>2026-04-06T14:50:59Z</time></trkpt><trkpt lat="40.29543188660329" lon="8.500044136218582"><ele>5.0</ele><time>2026-04-06T14:51:01Z</time></trkpt><trkpt lat="40.295446745272876" lon="8.499960318038449"><ele>5.0</ele><time>2026-04-06T14:51:03Z</time></trkpt><trkpt lat="40.295467178633636" lon="8.499873984391277"><ele>5.0</ele><time>2026-04-06T14:51:05Z</time></trkpt><trkpt lat="40.295508088182494" lon="8.499745313718586"><ele>5.0</ele><time>2026-04-06T14:51:07Z</time></trkpt><trkpt lat="40.295533325963945" lon="8.49966310396938"><ele>5.0</ele><time>2026-04-06T14:51:08Z</time></trkpt><trkpt lat="40.295558181822074" lon="8.499579165912547"><ele>5.0</ele><time>2026-04-06T14:51:09Z</time></trkpt><trkpt lat="40.29560474434224" lon="8.499454907131463"><ele>5.0</ele><time>2026-04-06T14:51:11Z</time></trkpt><trkpt lat="40.29565471974902" lon="8.4993415460919"><ele>5.166666666666667</ele><time>2026-04-06T14:51:13Z</time></trkpt><trkpt lat="40.29569476736749" lon="8.49923040805476"><ele>5.333333333333334</ele><time>2026-04-06T14:51:15Z</time></trkpt><trkpt lat="40.295718441520584" lon="8.499149480311903"><ele>5.5</ele><time>2026-04-06T14:51:17Z</time></trkpt><trkpt lat="40.29574282443349" lon="8.499050270034617"><ele>5.666666666666667</ele><time>2026-04-06T14:51:27Z</time></trkpt><trkpt lat="40.295772375617624" lon="8.498955222541632"><ele>5.833333333333333</ele><time>2026-04-06T14:51:29Z</time></trkpt><trkpt lat="40.29581569719449" lon="8.498813489931068"><ele>6.0</ele><time>2026-04-06T14:51:31Z</time></trkpt><trkpt lat="40.29583536875201" lon="8.49872951177845"><ele>6.0</ele><time>2026-04-06T14:51:32Z</time></trkpt><trkpt lat="40.295855296695855" lon="8.498641594361512"><ele>6.0</ele><time>2026-04-06T14:51:33Z</time></trkpt><trkpt lat="40.29588260101219" lon="8.498550163561074"><ele>6.0</ele><time>2026-04-06T14:51:34Z</time></trkpt><trkpt lat="40.295908861909034" lon="8.498458126880093"><ele>6.0</ele><time>2026-04-06T14:51:35Z</time></trkpt><trkpt lat="40.295928466647474" lon="8.498371519044428"><ele>6.0</ele><time>2026-04-06T14:51:36Z</time></trkpt><trkpt lat="40.29592751165625" lon="8.498258406255259"><ele>6.0</ele><time>2026-04-06T14:51:37Z</time></trkpt><trkpt lat="40.29591865418045" lon="8.498138319894172"><ele>6.0</ele><time>2026-04-06T14:51:38Z</time></trkpt><trkpt lat="40.29591693680692" lon="8.498013033664417"><ele>6.0</ele><time>2026-04-06T14:51:39Z</time></trkpt><trkpt lat="40.29590671102225" lon="8.497897572696912"><ele>6.0</ele><time>2026-04-06T14:51:40Z</time></trkpt><trkpt lat="40.295901628824346" lon="8.497790413928744"><ele>6.0</ele><time>2026-04-06T14:51:41Z</time></trkpt><trkpt lat="40.29589830986415" lon="8.49770029833846"><ele>6.0</ele><time>2026-04-06T14:51:42Z</time></trkpt><trkpt lat="40.29589297217121" lon="8.497602126925974"><ele>6.0</ele><time>2026-04-06T14:51:43Z</time></trkpt><trkpt lat="40.29588526753747" lon="8.497486726715401"><ele>5.6</ele><time>2026-04-06T14:51:44Z</time></trkpt><trkpt lat="40.295872884394754" lon="8.497362931505126"><ele>5.199999999999999</ele><time>2026-04-06T14:51:45Z</time></trkpt><trkpt lat="40.29585933021142" lon="8.497234113386972"><ele>4.800000000000001</ele><time>2026-04-06T14:51:46Z</time></trkpt><trkpt lat="40.295844333242236" lon="8.497110736963554"><ele>4.4</ele><time>2026-04-06T14:51:47Z</time></trkpt><trkpt lat="40.29582741215804" lon="8.497001151817475"><ele>4.0</ele><time>2026-04-06T14:51:48Z</time></trkpt><trkpt lat="40.295812336411764" lon="8.49689994405798"><ele>3.6666666666666665</ele><time>2026-04-06T14:51:49Z</time></trkpt><trkpt lat="40.2957945996025" lon="8.496800200408225"><ele>3.333333333333333</ele><time>2026-04-06T14:51:50Z</time></trkpt><trkpt lat="40.2957739336778" lon="8.496698808163357"><ele>3.0</ele><time>2026-04-06T14:51:51Z</time></trkpt><trkpt lat="40.29574896781029" lon="8.496597516295475"><ele>2.6666666666666665</ele><time>2026-04-06T14:51:52Z</time></trkpt><trkpt lat="40.295720176697216" lon="8.49649793951658"><ele>2.333333333333333</ele><time>2026-04-06T14:51:53Z</time></trkpt><trkpt lat="40.295694252313226" lon="8.49641467645611"><ele>2.0</ele><time>2026-04-06T14:51:54Z</time></trkpt><trkpt lat="40.29566969859145" lon="8.49633750731741"><ele>1.9999999999999998</ele><time>2026-04-06T14:51:55Z</time></trkpt><trkpt lat="40.295643062111125" lon="8.496219669236812"><ele>2.0</ele><time>2026-04-06T14:51:57Z</time></trkpt><trkpt lat="40.295601694818096" lon="8.496145418251025"><ele>2.0</ele><time>2026-04-06T15:11:22Z</time></trkpt><trkpt lat="40.29554573159423" lon="8.496042195014573"><ele>2.0</ele><time>2026-04-06T15:11:26Z</time></trkpt><trkpt lat="40.29548601266739" lon="8.49594889714098"><ele>1.9999999999999998</ele><time>2026-04-06T15:11:28Z</time></trkpt><trkpt lat="40.295436908191455" lon="8.495859939907351"><ele>2.0</ele><time>2026-04-06T15:11:30Z</time></trkpt><trkpt lat="40.29538894864894" lon="8.495790284434651"><ele>1.9999999999999998</ele><time>2026-04-06T15:11:32Z</time></trkpt><trkpt lat="40.29534034879197" lon="8.495720426463407"><ele>2.0</ele><time>2026-04-06T15:11:34Z</time></trkpt><trkpt lat="40.295290085921295" lon="8.495651601963147"><ele>2.0</ele><time>2026-04-06T15:11:36Z</time></trkpt><trkpt lat="40.295226566800366" lon="8.495558370375404"><ele>2.0</ele><time>2026-04-06T15:11:38Z</time></trkpt><trkpt lat="40.29517861844324" lon="8.49550401436496"><ele>1.9999999999999998</ele><time>2026-04-06T15:11:39Z</time></trkpt><trkpt lat="40.29512647446109" lon="8.495447687118068"><ele>2.0</ele><time>2026-04-06T15:11:40Z</time></trkpt><trkpt lat="40.29506361898558" lon="8.495381302540002"><ele>2.2</ele><time>2026-04-06T15:11:41Z</time></trkpt><trkpt lat="40.294997261852124" lon="8.495311132690494"><ele>2.4000000000000004</ele><time>2026-04-06T15:11:42Z</time></trkpt><trkpt lat="40.294921643380995" lon="8.49523206268428"><ele>2.5999999999999996</ele><time>2026-04-06T15:11:43Z</time></trkpt><trkpt lat="40.29484531579181" lon="8.495156215443442"><ele>2.8</ele><time>2026-04-06T15:11:44Z</time></trkpt><trkpt lat="40.294774848341966" lon="8.49508413319496"><ele>3.0</ele><time>2026-04-06T15:11:45Z</time></trkpt><trkpt lat="40.294703323307196" lon="8.495004821447862"><ele>3.0</ele><time>2026-04-06T15:11:46Z</time></trkpt><trkpt lat="40.2946408081524" lon="8.49493069869978"><ele>3.0</ele><time>2026-04-06T15:11:47Z</time></trkpt><trkpt lat="40.29458515225316" lon="8.494867346061307"><ele>3.0</ele><time>2026-04-06T15:11:48Z</time></trkpt><trkpt lat="40.29451683119574" lon="8.494794873091003"><ele>3.0</ele><time>2026-04-06T15:11:49Z</time></trkpt><trkpt lat="40.29443859735504" lon="8.494715984964849"><ele>3.0</ele><time>2026-04-06T15:11:50Z</time></trkpt><trkpt lat="40.29436414937805" lon="8.494616906711244"><ele>3.0</ele><time>2026-04-06T15:11:51Z</time></trkpt><trkpt lat="40.2942870825356" lon="8.494533615123725"><ele>3.0</ele><time>2026-04-06T15:11:52Z</time></trkpt><trkpt lat="40.294215215869585" lon="8.49445744324609"><ele>3.0</ele><time>2026-04-06T15:11:53Z</time></trkpt><trkpt lat="40.294133133267884" lon="8.494382298948032"><ele>3.0</ele><time>2026-04-06T15:11:54Z</time></trkpt><trkpt lat="40.29404566972001" lon="8.494290033939398"><ele>3.0</ele><time>2026-04-06T15:11:55Z</time></trkpt><trkpt lat="40.2939475678971" lon="8.4941777219367"><ele>3.0</ele><time>2026-04-06T15:11:56Z</time></trkpt><trkpt lat="40.29384137192281" lon="8.494065880277555"><ele>3.0</ele><time>2026-04-06T15:11:57Z</time></trkpt><trkpt lat="40.29374939027632" lon="8.493967553769048"><ele>3.0</ele><time>2026-04-06T15:11:58Z</time></trkpt><trkpt lat="40.293668152698686" lon="8.493881227480468"><ele>3.0</ele><time>2026-04-06T15:11:59Z</time></trkpt><trkpt lat="40.2935819051818" lon="8.493788675185002"><ele>3.25</ele><time>2026-04-06T15:12:00Z</time></trkpt><trkpt lat="40.29349135333309" lon="8.493694121239718"><ele>3.5</ele><time>2026-04-06T15:12:01Z</time></trkpt><trkpt lat="40.29339680818109" lon="8.493597352641613"><ele>3.75</ele><time>2026-04-06T15:12:02Z</time></trkpt><trkpt lat="40.29330154411914" lon="8.493497556887814"><ele>4.0</ele><time>2026-04-06T15:12:03Z</time></trkpt><trkpt lat="40.29320648358853" lon="8.493396279217308"><ele>4.0</ele><time>2026-04-06T15:12:04Z</time></trkpt><trkpt lat="40.29311595431974" lon="8.493291368266718"><ele>4.0</ele><time>2026-04-06T15:12:05Z</time></trkpt><trkpt lat="40.29302385795102" lon="8.493191252237969"><ele>4.0</ele><time>2026-04-06T15:12:06Z</time></trkpt><trkpt lat="40.292938978489396" lon="8.49308942964833"><ele>4.0</ele><time>2026-04-06T15:12:07Z</time></trkpt><trkpt lat="40.29286298641528" lon="8.49296930246389"><ele>3.8000000000000003</ele><time>2026-04-06T15:12:08Z</time></trkpt><trkpt lat="40.29281552810933" lon="8.492827460398242"><ele>3.6000000000000005</ele><time>2026-04-06T15:12:09Z</time></trkpt><trkpt lat="40.292769664163885" lon="8.492707080426076"><ele>3.4</ele><time>2026-04-06T15:12:10Z</time></trkpt><trkpt lat="40.292755340928174" lon="8.49257892365999"><ele>3.2</ele><time>2026-04-06T15:12:11Z</time></trkpt><trkpt lat="40.29274950435601" lon="8.492432611697737"><ele>3.0</ele><time>2026-04-06T15:12:12Z</time></trkpt><trkpt lat="40.29276252958406" lon="8.492283525017264"><ele>3.0</ele><time>2026-04-06T15:12:13Z</time></trkpt><trkpt lat="40.29278084950341" lon="8.492118804179565"><ele>3.0</ele><time>2026-04-06T15:12:14Z</time></trkpt><trkpt lat="40.29280329930521" lon="8.49192720607789"><ele>3.0</ele><time>2026-04-06T15:12:15Z</time></trkpt><trkpt lat="40.29282728242419" lon="8.491728245746309"><ele>3.0</ele><time>2026-04-06T15:12:16Z</time></trkpt><trkpt lat="40.29285004416702" lon="8.491542156045282"><ele>3.333333333333333</ele><time>2026-04-06T15:12:17Z</time></trkpt><trkpt lat="40.29285775438305" lon="8.49134639509312"><ele>3.6666666666666665</ele><time>2026-04-06T15:12:18Z</time></trkpt><trkpt lat="40.29289942886652" lon="8.491146136576946"><ele>4.0</ele><time>2026-04-06T15:12:19Z</time></trkpt><trkpt lat="40.29290940793798" lon="8.49093030602636"><ele>4.0</ele><time>2026-04-06T15:12:20Z</time></trkpt><trkpt lat="40.29295284236863" lon="8.490714307045199"><ele>4.0</ele><time>2026-04-06T15:12:21Z</time></trkpt><trkpt lat="40.292980205363044" lon="8.490492952144946"><ele>4.0</ele><time>2026-04-06T15:12:22Z</time></trkpt><trkpt lat="40.29300432798602" lon="8.490297810621396"><ele>3.75</ele><time>2026-04-06T15:12:23Z</time></trkpt><trkpt lat="40.29302811894745" lon="8.490102558743667"><ele>3.5</ele><time>2026-04-06T15:12:24Z</time></trkpt><trkpt lat="40.29304925518247" lon="8.48991966705034"><ele>3.25</ele><time>2026-04-06T15:12:25Z</time></trkpt><trkpt lat="40.29306851303304" lon="8.489753028828318"><ele>3.0</ele><time>2026-04-06T15:12:26Z</time></trkpt><trkpt lat="40.2930706893489" lon="8.489596135427647"><ele>2.75</ele><time>2026-04-06T15:12:27Z</time></trkpt><trkpt lat="40.29309268104556" lon="8.489451072231375"><ele>2.5</ele><time>2026-04-06T15:12:28Z</time></trkpt><trkpt lat="40.29313408441048" lon="8.489305455818501"><ele>2.25</ele><time>2026-04-06T15:12:29Z</time></trkpt><trkpt lat="40.29317141437348" lon="8.489150846173239"><ele>2.0</ele><time>2026-04-06T15:12:30Z</time></trkpt><trkpt lat="40.29321637872187" lon="8.48898440057223"><ele>2.0</ele><time>2026-04-06T15:12:31Z</time></trkpt><trkpt lat="40.29326756798643" lon="8.488810878918175"><ele>2.0</ele><time>2026-04-06T15:12:32Z</time></trkpt><trkpt lat="40.293326069623824" lon="8.488621717252203"><ele>2.0</ele><time>2026-04-06T15:12:33Z</time></trkpt><trkpt lat="40.29338489551856" lon="8.488426981768756"><ele>2.333333333333333</ele><time>2026-04-06T15:12:34Z</time></trkpt><trkpt lat="40.2934320927034" lon="8.488211450789352"><ele>2.6666666666666665</ele><time>2026-04-06T15:12:35Z</time></trkpt><trkpt lat="40.293494845444215" lon="8.48801694571457"><ele>3.0</ele><time>2026-04-06T15:12:36Z</time></trkpt><trkpt lat="40.293549771951504" lon="8.487822835543213"><ele>3.0</ele><time>2026-04-06T15:12:37Z</time></trkpt><trkpt lat="40.29361987938923" lon="8.48763967671697"><ele>3.0</ele><time>2026-04-06T15:12:38Z</time></trkpt><trkpt lat="40.293673764234015" lon="8.487459960213954"><ele>3.0</ele><time>2026-04-06T15:12:39Z</time></trkpt><trkpt lat="40.29373488263254" lon="8.48725353601336"><ele>2.6666666666666665</ele><time>2026-04-06T15:12:40Z</time></trkpt><trkpt lat="40.29379473535517" lon="8.487050529932741"><ele>2.333333333333333</ele><time>2026-04-06T15:12:41Z</time></trkpt><trkpt lat="40.29385938257091" lon="8.48684685189908"><ele>2.0</ele><time>2026-04-06T15:12:42Z</time></trkpt><trkpt lat="40.29393516250825" lon="8.486642289050156"><ele>2.0</ele><time>2026-04-06T15:12:43Z</time></trkpt><trkpt lat="40.29401222203124" lon="8.486454935034994"><ele>2.0</ele><time>2026-04-06T15:12:44Z</time></trkpt><trkpt lat="40.29408056367805" lon="8.486259134738514"><ele>2.0</ele><time>2026-04-06T15:12:45Z</time></trkpt><trkpt lat="40.2941651980992" lon="8.486087941670716"><ele>2.0</ele><time>2026-04-06T15:12:46Z</time></trkpt><trkpt lat="40.294241197258984" lon="8.485941556629538"><ele>2.0</ele><time>2026-04-06T15:12:47Z</time></trkpt><trkpt lat="40.29431050281856" lon="8.485809472801527"><ele>2.0</ele><time>2026-04-06T15:12:48Z</time></trkpt><trkpt lat="40.29437718974575" lon="8.485698509103644"><ele>2.0</ele><time>2026-04-06T15:12:49Z</time></trkpt><trkpt lat="40.29444675405674" lon="8.485610219435463"><ele>1.9999999999999998</ele><time>2026-04-06T15:12:50Z</time></trkpt><trkpt lat="40.294513538120476" lon="8.485537973309262"><ele>2.0</ele><time>2026-04-06T15:12:51Z</time></trkpt><trkpt lat="40.294576119752165" lon="8.485475351261755"><ele>2.0</ele><time>2026-04-06T15:12:52Z</time></trkpt><trkpt lat="40.29463605003431" lon="8.485422930457167"><ele>2.0</ele><time>2026-04-06T15:12:53Z</time></trkpt><trkpt lat="40.29469027237921" lon="8.485376975204533"><ele>1.9999999999999998</ele><time>2026-04-06T15:12:54Z</time></trkpt><trkpt lat="40.29478966181059" lon="8.485296172265434"><ele>2.0</ele><time>2026-04-06T15:12:56Z</time></trkpt><trkpt lat="40.29488730019257" lon="8.485241412160253"><ele>2.0</ele><time>2026-04-06T15:12:58Z</time></trkpt><trkpt lat="40.29498794715262" lon="8.485210004621237"><ele>2.0</ele><time>2026-04-06T15:13:00Z</time></trkpt><trkpt lat="40.29508583856804" lon="8.485206364389311"><ele>2.0</ele><time>2026-04-06T15:13:02Z</time></trkpt><trkpt lat="40.29516363118007" lon="8.48520664036501"><ele>2.0</ele><time>2026-04-06T15:13:04Z</time></trkpt><trkpt lat="40.29523647811488" lon="8.48520248068295"><ele>2.0</ele><time>2026-04-06T15:13:06Z</time></trkpt><trkpt lat="40.29535301352944" lon="8.485190579939351"><ele>1.9999999999999998</ele><time>2026-04-06T15:13:08Z</time></trkpt><trkpt lat="40.295432934967664" lon="8.485184851610647"><ele>2.0</ele><time>2026-04-06T15:13:09Z</time></trkpt><trkpt lat="40.295526048389625" lon="8.485181322079116"><ele>2.0</ele><time>2026-04-06T15:13:10Z</time></trkpt><trkpt lat="40.29562268403404" lon="8.485177102857598"><ele>2.0</ele><time>2026-04-06T15:13:11Z</time></trkpt><trkpt lat="40.295715269468424" lon="8.485168845306703"><ele>1.9999999999999998</ele><time>2026-04-06T15:13:12Z</time></trkpt><trkpt lat="40.295797465558344" lon="8.485161163165555"><ele>2.0</ele><time>2026-04-06T15:13:13Z</time></trkpt><trkpt lat="40.29587376297498" lon="8.485154011739988"><ele>1.9999999999999998</ele><time>2026-04-06T15:13:14Z</time></trkpt><trkpt lat="40.29594838670155" lon="8.485149690198496"><ele>2.0</ele><time>2026-04-06T15:13:15Z</time></trkpt><trkpt lat="40.296017823971376" lon="8.485144986521384"><ele>2.0</ele><time>2026-04-06T15:13:16Z</time></trkpt><trkpt lat="40.29608442053328" lon="8.485141999853935"><ele>2.0</ele><time>2026-04-06T15:13:17Z</time></trkpt><trkpt lat="40.29620788459019" lon="8.485134776760267"><ele>1.9999999999999998</ele><time>2026-04-06T15:13:19Z</time></trkpt><trkpt lat="40.29627125780217" lon="8.485131135504353"><ele>2.0</ele><time>2026-04-06T15:13:20Z</time></trkpt><trkpt lat="40.29637357381012" lon="8.485114227257736"><ele>2.1666666666666665</ele><time>2026-04-06T15:13:22Z</time></trkpt><trkpt lat="40.296445305298334" lon="8.485080747871827"><ele>2.333333333333333</ele><time>2026-04-06T15:13:24Z</time></trkpt><trkpt lat="40.29652373362484" lon="8.485009431400957"><ele>2.5</ele><time>2026-04-06T15:13:37Z</time></trkpt><trkpt lat="40.29660374355907" lon="8.485024673197906"><ele>2.6666666666666665</ele><time>2026-04-06T15:13:38Z</time></trkpt><trkpt lat="40.29668500139377" lon="8.485018518007143"><ele>2.8333333333333335</ele><time>2026-04-06T15:13:39Z</time></trkpt><trkpt lat="40.29675895042111" lon="8.485014359700457"><ele>3.0</ele><time>2026-04-06T15:13:40Z</time></trkpt><trkpt lat="40.296831586187814" lon="8.485011389107187"><ele>3.0</ele><time>2026-04-06T15:13:41Z</time></trkpt><trkpt lat="40.29691417637841" lon="8.485004178051138"><ele>3.0</ele><time>2026-04-06T15:13:42Z</time></trkpt><trkpt lat="40.297017919582366" lon="8.485005583448432"><ele>3.0</ele><time>2026-04-06T15:13:44Z</time></trkpt><trkpt lat="40.29711860077409" lon="8.485031843136266"><ele>3.0</ele><time>2026-04-06T15:13:46Z</time></trkpt><trkpt lat="40.297188837003326" lon="8.48502741977629"><ele>3.0</ele><time>2026-04-06T15:13:47Z</time></trkpt><trkpt lat="40.297254873427" lon="8.484999154502825"><ele>3.0</ele><time>2026-04-06T15:13:48Z</time></trkpt><trkpt lat="40.29731874851898" lon="8.484970921948811"><ele>3.0</ele><time>2026-04-06T15:13:49Z</time></trkpt><trkpt lat="40.29739092159122" lon="8.484952436862734"><ele>3.0</ele><time>2026-04-06T15:13:50Z</time></trkpt><trkpt lat="40.297476823781224" lon="8.484963820942566"><ele>3.0</ele><time>2026-04-06T15:13:51Z</time></trkpt><trkpt lat="40.29756028540401" lon="8.48495534190873"><ele>3.0</ele><time>2026-04-06T15:13:52Z</time></trkpt><trkpt lat="40.29763299929095" lon="8.48492980718953"><ele>3.0</ele><time>2026-04-06T15:13:53Z</time></trkpt><trkpt lat="40.2977075308396" lon="8.484926949919828"><ele>3.0</ele><time>2026-04-06T15:13:54Z</time></trkpt><trkpt lat="40.29778038692987" lon="8.484925256691374"><ele>3.0</ele><time>2026-04-06T15:13:55Z</time></trkpt><trkpt lat="40.297855245955304" lon="8.484916754233495"><ele>3.0</ele><time>2026-04-06T15:13:56Z</time></trkpt><trkpt lat="40.29797299104529" lon="8.484904389323596"><ele>3.0</ele><time>2026-04-06T15:13:57Z</time></trkpt><trkpt lat="40.298081150589795" lon="8.484898944593716"><ele>3.0</ele><time>2026-04-06T15:13:58Z</time></trkpt><trkpt lat="40.2981841574098" lon="8.484894926426955"><ele>3.0</ele><time>2026-04-06T15:13:59Z</time></trkpt><trkpt lat="40.29828684643805" lon="8.48488695541174"><ele>3.0</ele><time>2026-04-06T15:14:00Z</time></trkpt><trkpt lat="40.29838218944986" lon="8.484883334877733"><ele>3.0</ele><time>2026-04-06T15:14:01Z</time></trkpt><trkpt lat="40.298480107061216" lon="8.484878412316695"><ele>3.0</ele><time>2026-04-06T15:14:02Z</time></trkpt><trkpt lat="40.298580809138194" lon="8.484871654525026"><ele>3.0</ele><time>2026-04-06T15:14:03Z</time></trkpt><trkpt lat="40.29866915477967" lon="8.484863836772114"><ele>3.0</ele><time>2026-04-06T15:14:04Z</time></trkpt><trkpt lat="40.29874803816118" lon="8.484857331728872"><ele>3.0</ele><time>2026-04-06T15:14:05Z</time></trkpt><trkpt lat="40.29883263087431" lon="8.484854658435355"><ele>3.0</ele><time>2026-04-06T15:14:06Z</time></trkpt><trkpt lat="40.29894157915922" lon="8.48484971699447"><ele>3.0</ele><time>2026-04-06T15:14:07Z</time></trkpt><trkpt lat="40.29905989020159" lon="8.484840604542923"><ele>3.0</ele><time>2026-04-06T15:14:08Z</time></trkpt><trkpt lat="40.29918582386773" lon="8.484826999757122"><ele>3.0</ele><time>2026-04-06T15:14:09Z</time></trkpt><trkpt lat="40.29930349803845" lon="8.484841545136664"><ele>3.4</ele><time>2026-04-06T15:14:10Z</time></trkpt><trkpt lat="40.299404418286" lon="8.484835750018165"><ele>3.8</ele><time>2026-04-06T15:14:11Z</time></trkpt><trkpt lat="40.29949669238404" lon="8.484828517157297"><ele>4.2</ele><time>2026-04-06T15:14:12Z</time></trkpt><trkpt lat="40.29958486175227" lon="8.484822286497044"><ele>4.6</ele><time>2026-04-06T15:14:13Z</time></trkpt><trkpt lat="40.299671680757136" lon="8.484815943118125"><ele>5.0</ele><time>2026-04-06T15:14:14Z</time></trkpt><trkpt lat="40.29975473468109" lon="8.484809874851145"><ele>5.0</ele><time>2026-04-06T15:14:15Z</time></trkpt><trkpt lat="40.29984737724065" lon="8.484803483929937"><ele>5.0</ele><time>2026-04-06T15:14:16Z</time></trkpt><trkpt lat="40.29997308154909" lon="8.484797704945699"><ele>5.0</ele><time>2026-04-06T15:14:17Z</time></trkpt><trkpt lat="40.3001161618266" lon="8.484796059492194"><ele>5.0</ele><time>2026-04-06T15:14:18Z</time></trkpt><trkpt lat="40.30028166296788" lon="8.484799023969428"><ele>5.0</ele><time>2026-04-06T15:14:19Z</time></trkpt><trkpt lat="40.30044325940728" lon="8.484805749320062"><ele>5.0</ele><time>2026-04-06T15:14:20Z</time></trkpt><trkpt lat="40.30060162906938" lon="8.484792258033746"><ele>5.0</ele><time>2026-04-06T15:14:21Z</time></trkpt><trkpt lat="40.30076981491515" lon="8.48480510421634"><ele>5.333333333333334</ele><time>2026-04-06T15:14:22Z</time></trkpt><trkpt lat="40.30094352383631" lon="8.48481262381166"><ele>5.666666666666667</ele><time>2026-04-06T15:14:23Z</time></trkpt><trkpt lat="40.301124032135775" lon="8.484821211778643"><ele>6.0</ele><time>2026-04-06T15:14:24Z</time></trkpt><trkpt lat="40.30130573039915" lon="8.484833533676854"><ele>7.0</ele><time>2026-04-06T15:14:25Z</time></trkpt><trkpt lat="40.30148604443541" lon="8.484844955388848"><ele>8.0</ele><time>2026-04-06T15:14:26Z</time></trkpt><trkpt lat="40.30165209173655" lon="8.484844265721767"><ele>9.0</ele><time>2026-04-06T15:14:27Z</time></trkpt><trkpt lat="40.30181830315939" lon="8.484820849861856"><ele>9.0</ele><time>2026-04-06T15:14:28Z</time></trkpt><trkpt lat="40.30198726078288" lon="8.484779011192204"><ele>9.0</ele><time>2026-04-06T15:14:29Z</time></trkpt><trkpt lat="40.302147174552985" lon="8.48465900093392"><ele>9.0</ele><time>2026-04-06T15:14:30Z</time></trkpt><trkpt lat="40.30230474806205" lon="8.484533638135362"><ele>13.0</ele><time>2026-04-06T15:14:31Z</time></trkpt><trkpt lat="40.3024790097592" lon="8.4844279408012"><ele>17.0</ele><time>2026-04-06T15:14:32Z</time></trkpt><trkpt lat="40.30265561333724" lon="8.484329325663145"><ele>21.0</ele><time>2026-04-06T15:14:33Z</time></trkpt><trkpt lat="40.3028452448905" lon="8.484270681645196"><ele>21.0</ele><time>2026-04-06T15:14:34Z</time></trkpt><trkpt lat="40.303041533138675" lon="8.48421760404075"><ele>21.0</ele><time>2026-04-06T15:14:35Z</time></trkpt><trkpt lat="40.303242526678474" lon="8.484164018711475"><ele>21.0</ele><time>2026-04-06T15:14:36Z</time></trkpt><trkpt lat="40.303435856293795" lon="8.484092631467597"><ele>20.666666666666668</ele><time>2026-04-06T15:14:37Z</time></trkpt><trkpt lat="40.30364273507345" lon="8.484068724103803"><ele>20.333333333333336</ele><time>2026-04-06T15:14:38Z</time></trkpt><trkpt lat="40.30383676750463" lon="8.484046328104528"><ele>20.0</ele><time>2026-04-06T15:14:39Z</time></trkpt><trkpt lat="40.30402847486994" lon="8.484040960008608"><ele>20.666666666666668</ele><time>2026-04-06T15:14:40Z</time></trkpt><trkpt lat="40.30421264066625" lon="8.484053012396219"><ele>21.333333333333332</ele><time>2026-04-06T15:14:41Z</time></trkpt><trkpt lat="40.304397242797" lon="8.484071110749413"><ele>22.0</ele><time>2026-04-06T15:14:42Z</time></trkpt><trkpt lat="40.304582862799045" lon="8.484094699409441"><ele>23.0</ele><time>2026-04-06T15:14:43Z</time></trkpt><trkpt lat="40.30477115795385" lon="8.48409604744994"><ele>24.0</ele><time>2026-04-06T15:14:44Z</time></trkpt><trkpt lat="40.304954337645405" lon="8.48411823018652"><ele>25.0</ele><time>2026-04-06T15:14:45Z</time></trkpt><trkpt lat="40.30514218613998" lon="8.484148126959264"><ele>25.0</ele><time>2026-04-06T15:14:46Z</time></trkpt><trkpt lat="40.30532792125921" lon="8.48417227369654"><ele>25.0</ele><time>2026-04-06T15:14:47Z</time></trkpt><trkpt lat="40.30551074155979" lon="8.484188822867905"><ele>25.0</ele><time>2026-04-06T15:14:48Z</time></trkpt><trkpt lat="40.30567512896485" lon="8.484205459401954"><ele>28.0</ele><time>2026-04-06T15:14:49Z</time></trkpt><trkpt lat="40.305841210919894" lon="8.484230127438359"><ele>31.0</ele><time>2026-04-06T15:14:50Z</time></trkpt><trkpt lat="40.30601037840805" lon="8.484245947829502"><ele>34.0</ele><time>2026-04-06T15:14:51Z</time></trkpt><trkpt lat="40.30618075485867" lon="8.484266959639113"><ele>34.0</ele><time>2026-04-06T15:14:52Z</time></trkpt><trkpt lat="40.30634069665125" lon="8.484326991560422"><ele>34.0</ele><time>2026-04-06T15:14:53Z</time></trkpt><trkpt lat="40.306491848184066" lon="8.484387931323681"><ele>34.0</ele><time>2026-04-06T15:14:54Z</time></trkpt><trkpt lat="40.306628719731044" lon="8.48444494739013"><ele>32.5</ele><time>2026-04-06T15:14:55Z</time></trkpt><trkpt lat="40.306766032954066" lon="8.484481888948226"><ele>31.0</ele><time>2026-04-06T15:14:56Z</time></trkpt><trkpt lat="40.30689623823361" lon="8.484541404128747"><ele>29.5</ele><time>2026-04-06T15:14:57Z</time></trkpt><trkpt lat="40.30702277705771" lon="8.484609875700999"><ele>28.0</ele><time>2026-04-06T15:14:58Z</time></trkpt><trkpt lat="40.30715070566479" lon="8.484664625212995"><ele>31.5</ele><time>2026-04-06T15:14:59Z</time></trkpt><trkpt lat="40.30727776496386" lon="8.484728486389997"><ele>35.0</ele><time>2026-04-06T15:15:00Z</time></trkpt><trkpt lat="40.30738399448293" lon="8.484817905142064"><ele>38.5</ele><time>2026-04-06T15:15:01Z</time></trkpt><trkpt lat="40.307470896653335" lon="8.484932542771032"><ele>42.0</ele><time>2026-04-06T15:15:02Z</time></trkpt><trkpt lat="40.307554788889284" lon="8.485082717058823"><ele>42.0</ele><time>2026-04-06T15:15:03Z</time></trkpt><trkpt lat="40.30764218558518" lon="8.485220523267529"><ele>42.0</ele><time>2026-04-06T15:15:04Z</time></trkpt><trkpt lat="40.307710967952595" lon="8.485365623760389"><ele>42.0</ele><time>2026-04-06T15:15:05Z</time></trkpt><trkpt lat="40.307778142722384" lon="8.485502367922615"><ele>42.0</ele><time>2026-04-06T15:15:06Z</time></trkpt><trkpt lat="40.30785016470596" lon="8.485642551584112"><ele>40.0</ele><time>2026-04-06T15:15:07Z</time></trkpt><trkpt lat="40.3079287139705" lon="8.485766251040923"><ele>38.0</ele><time>2026-04-06T15:15:08Z</time></trkpt><trkpt lat="40.30803994974788" lon="8.485858929758862"><ele>36.0</ele><time>2026-04-06T15:15:08.999Z</time></trkpt><trkpt lat="40.30817474728072" lon="8.48593665824087"><ele>34.0</ele><time>2026-04-06T15:15:09.999Z</time></trkpt><trkpt lat="40.30829925243633" lon="8.486025733477721"><ele>35.25</ele><time>2026-04-06T15:15:10.999Z</time></trkpt><trkpt lat="40.308423915061816" lon="8.486084690781855"><ele>36.5</ele><time>2026-04-06T15:15:11.999Z</time></trkpt><trkpt lat="40.3085344820878" lon="8.486162488521382"><ele>37.75</ele><time>2026-04-06T15:15:12.999Z</time></trkpt><trkpt lat="40.30864599145471" lon="8.486233560308786"><ele>39.0</ele><time>2026-04-06T15:15:13.999Z</time></trkpt><trkpt lat="40.30876088391637" lon="8.486301094125032"><ele>39.0</ele><time>2026-04-06T15:15:14.999Z</time></trkpt><trkpt lat="40.30887805166642" lon="8.486376257223004"><ele>39.0</ele><time>2026-04-06T15:15:15.999Z</time></trkpt><trkpt lat="40.30899717350294" lon="8.4864495324943"><ele>39.0</ele><time>2026-04-06T15:15:16.999Z</time></trkpt><trkpt lat="40.309117935086526" lon="8.48652916617746"><ele>39.0</ele><time>2026-04-06T15:15:17.999Z</time></trkpt><trkpt lat="40.309239702431356" lon="8.486609072522858"><ele>39.75</ele><time>2026-04-06T15:15:18.999Z</time></trkpt><trkpt lat="40.30935998708022" lon="8.48669718062082"><ele>40.5</ele><time>2026-04-06T15:15:19.999Z</time></trkpt><trkpt lat="40.309462116482386" lon="8.486822751977325"><ele>41.25</ele><time>2026-04-06T15:15:20.999Z</time></trkpt><trkpt lat="40.30956237098007" lon="8.486956720311934"><ele>42.0</ele><time>2026-04-06T15:15:21.999Z</time></trkpt><trkpt lat="40.30966197265823" lon="8.487103012507532"><ele>47.25</ele><time>2026-04-06T15:15:22.999Z</time></trkpt><trkpt lat="40.30976594769012" lon="8.487231294827053"><ele>52.5</ele><time>2026-04-06T15:15:23.999Z</time></trkpt><trkpt lat="40.30985099857033" lon="8.487372148708888"><ele>57.75</ele><time>2026-04-06T15:15:24.999Z</time></trkpt><trkpt lat="40.30993551988288" lon="8.487505196700653"><ele>63.0</ele><time>2026-04-06T15:15:25.999Z</time></trkpt><trkpt lat="40.31002155626328" lon="8.487630770262184"><ele>63.0</ele><time>2026-04-06T15:15:26.999Z</time></trkpt><trkpt lat="40.310106914894895" lon="8.487753794350613"><ele>63.0</ele><time>2026-04-06T15:15:27.999Z</time></trkpt><trkpt lat="40.31019048292313" lon="8.487878963917609"><ele>63.0</ele><time>2026-04-06T15:15:28.999Z</time></trkpt><trkpt lat="40.310272129437706" lon="8.488002192499648"><ele>63.0</ele><time>2026-04-06T15:15:29.999Z</time></trkpt><trkpt lat="40.31035946435349" lon="8.488130002221284"><ele>61.25</ele><time>2026-04-06T15:15:30.999Z</time></trkpt><trkpt lat="40.3104485024844" lon="8.488263413566873"><ele>59.5</ele><time>2026-04-06T15:15:31.999Z</time></trkpt><trkpt lat="40.31053858911499" lon="8.488391789674512"><ele>57.75</ele><time>2026-04-06T15:15:32.999Z</time></trkpt><trkpt lat="40.31062799003787" lon="8.488486014632015"><ele>56.0</ele><time>2026-04-06T15:15:33.999Z</time></trkpt><trkpt lat="40.31073515536695" lon="8.488543863597464"><ele>59.75</ele><time>2026-04-06T15:15:34.999Z</time></trkpt><trkpt lat="40.3108582710972" lon="8.488574396066683"><ele>63.5</ele><time>2026-04-06T15:15:35.999Z</time></trkpt><trkpt lat="40.3109944508089" lon="8.488587876805344"><ele>67.25</ele><time>2026-04-06T15:15:36.999Z</time></trkpt><trkpt lat="40.31114541933007" lon="8.488606464717185"><ele>71.0</ele><time>2026-04-06T15:15:37.999Z</time></trkpt><trkpt lat="40.31130716671277" lon="8.488631997455572"><ele>72.75</ele><time>2026-04-06T15:15:38.999Z</time></trkpt><trkpt lat="40.31144967323261" lon="8.488654445660009"><ele>74.5</ele><time>2026-04-06T15:15:39.999Z</time></trkpt><trkpt lat="40.31157522636572" lon="8.488668572154412"><ele>76.25</ele><time>2026-04-06T15:15:40.999Z</time></trkpt><trkpt lat="40.311700939381296" lon="8.48866836596235"><ele>78.0</ele><time>2026-04-06T15:15:41.999Z</time></trkpt><trkpt lat="40.31183371787391" lon="8.48862690654135"><ele>78.0</ele><time>2026-04-06T15:15:42.999Z</time></trkpt><trkpt lat="40.311962831583266" lon="8.488552933108723"><ele>78.0</ele><time>2026-04-06T15:15:43.999Z</time></trkpt><trkpt lat="40.312079164522146" lon="8.488449834184363"><ele>78.0</ele><time>2026-04-06T15:15:44.999Z</time></trkpt><trkpt lat="40.312177852924805" lon="8.48835961257071"><ele>78.0</ele><time>2026-04-06T15:15:45.999Z</time></trkpt><trkpt lat="40.31227378950253" lon="8.488281532072874"><ele>78.25</ele><time>2026-04-06T15:15:46.999Z</time></trkpt><trkpt lat="40.31236926423385" lon="8.48819078102992"><ele>78.5</ele><time>2026-04-06T15:15:47.999Z</time></trkpt><trkpt lat="40.312468146731" lon="8.488071732705137"><ele>78.75</ele><time>2026-04-06T15:15:48.999Z</time></trkpt><trkpt lat="40.31256174506448" lon="8.487933424499326"><ele>79.0</ele><time>2026-04-06T15:15:49.999Z</time></trkpt><trkpt lat="40.31264500539164" lon="8.487756694135399"><ele>79.0</ele><time>2026-04-06T15:15:50.999Z</time></trkpt><trkpt lat="40.312743891508326" lon="8.487582433640345"><ele>79.0</ele><time>2026-04-06T15:15:51.999Z</time></trkpt><trkpt lat="40.31283505725492" lon="8.48739621808195"><ele>79.0</ele><time>2026-04-06T15:15:52.999Z</time></trkpt><trkpt lat="40.312922691580674" lon="8.487215807809555"><ele>78.0</ele><time>2026-04-06T15:15:53.999Z</time></trkpt><trkpt lat="40.31300708065211" lon="8.48704207807629"><ele>77.0</ele><time>2026-04-06T15:15:54.999Z</time></trkpt><trkpt lat="40.313093051021774" lon="8.486863875089028"><ele>76.0</ele><time>2026-04-06T15:15:55.999Z</time></trkpt><trkpt lat="40.31317498051023" lon="8.486692398325694"><ele>76.0</ele><time>2026-04-06T15:15:56.999Z</time></trkpt><trkpt lat="40.313257049476505" lon="8.486522291900885"><ele>76.0</ele><time>2026-04-06T15:15:57.999Z</time></trkpt><trkpt lat="40.31334067642272" lon="8.486351692662625"><ele>76.0</ele><time>2026-04-06T15:15:58.999Z</time></trkpt><trkpt lat="40.31342409558017" lon="8.48618175938072"><ele>78.33333333333333</ele><time>2026-04-06T15:15:59.999Z</time></trkpt><trkpt lat="40.31351348492055" lon="8.48599873372574"><ele>80.66666666666667</ele><time>2026-04-06T15:16:00.999Z</time></trkpt><trkpt lat="40.31360971216683" lon="8.485798344499548"><ele>83.0</ele><time>2026-04-06T15:16:01.999Z</time></trkpt><trkpt lat="40.313696762013585" lon="8.485615201276897"><ele>84.66666666666667</ele><time>2026-04-06T15:16:02.999Z</time></trkpt><trkpt lat="40.3137643501582" lon="8.48542287764942"><ele>86.33333333333333</ele><time>2026-04-06T15:16:03.999Z</time></trkpt><trkpt lat="40.31383922220423" lon="8.485227404146046"><ele>88.0</ele><time>2026-04-06T15:16:04.999Z</time></trkpt><trkpt lat="40.31388841918031" lon="8.484993095089578"><ele>84.0</ele><time>2026-04-06T15:16:05.999Z</time></trkpt><trkpt lat="40.313925566197916" lon="8.484718180326622"><ele>80.0</ele><time>2026-04-06T15:16:06.999Z</time></trkpt><trkpt lat="40.31399459070619" lon="8.484424001201548"><ele>76.0</ele><time>2026-04-06T15:16:07.999Z</time></trkpt><trkpt lat="40.31405096403998" lon="8.484108082662306"><ele>71.5</ele><time>2026-04-06T15:16:08.999Z</time></trkpt><trkpt lat="40.31411058448147" lon="8.483765757148126"><ele>67.0</ele><time>2026-04-06T15:16:09.999Z</time></trkpt><trkpt lat="40.31417050905493" lon="8.483422730370084"><ele>63.0</ele><time>2026-04-06T15:16:10.999Z</time></trkpt><trkpt lat="40.31423150751354" lon="8.483074115520484"><ele>59.0</ele><time>2026-04-06T15:16:11.999Z</time></trkpt><trkpt lat="40.31429489134979" lon="8.48271186824296"><ele>59.0</ele><time>2026-04-06T15:16:12.999Z</time></trkpt><trkpt lat="40.31436054169534" lon="8.482341914558766"><ele>59.0</ele><time>2026-04-06T15:16:13.999Z</time></trkpt><trkpt lat="40.314423711372115" lon="8.48198628002007"><ele>59.0</ele><time>2026-04-06T15:16:14.999Z</time></trkpt><trkpt lat="40.31448204031384" lon="8.481657897367233"><ele>59.0</ele><time>2026-04-06T15:16:15.999Z</time></trkpt><trkpt lat="40.31452388126231" lon="8.481333392423561"><ele>59.0</ele><time>2026-04-06T15:16:16.999Z</time></trkpt><trkpt lat="40.314580188808314" lon="8.481042114616551"><ele>59.0</ele><time>2026-04-06T15:16:17.999Z</time></trkpt><trkpt lat="40.314628415409246" lon="8.480779423537172"><ele>59.0</ele><time>2026-04-06T15:16:18.999Z</time></trkpt><trkpt lat="40.31468140623878" lon="8.480536547259288"><ele>56.66666666666667</ele><time>2026-04-06T15:16:19.999Z</time></trkpt><trkpt lat="40.31478101731336" lon="8.480303178120739"><ele>54.33333333333333</ele><time>2026-04-06T15:16:20.999Z</time></trkpt><trkpt lat="40.3148920875225" lon="8.480046159663862"><ele>52.0</ele><time>2026-04-06T15:16:21.999Z</time></trkpt><trkpt lat="40.315009867662035" lon="8.479773925432992"><ele>48.0</ele><time>2026-04-06T15:16:22.999Z</time></trkpt><trkpt lat="40.3151196481357" lon="8.479485066032293"><ele>44.0</ele><time>2026-04-06T15:16:23.999Z</time></trkpt><trkpt lat="40.31523726302909" lon="8.479217732272202"><ele>44.0</ele><time>2026-04-06T15:16:24.999Z</time></trkpt><trkpt lat="40.315351013346266" lon="8.478948744301462"><ele>44.0</ele><time>2026-04-06T15:16:25.999Z</time></trkpt><trkpt lat="40.31546836120602" lon="8.478673859752499"><ele>43.5</ele><time>2026-04-06T15:16:26.999Z</time></trkpt><trkpt lat="40.31558934142525" lon="8.478395628145991"><ele>43.0</ele><time>2026-04-06T15:16:27.999Z</time></trkpt><trkpt lat="40.3157105483962" lon="8.478118247672013"><ele>41.333333333333336</ele><time>2026-04-06T15:16:28.999Z</time></trkpt><trkpt lat="40.31582785286471" lon="8.477848179304575"><ele>39.666666666666664</ele><time>2026-04-06T15:16:29.999Z</time></trkpt><trkpt lat="40.31592790912586" lon="8.477618386560737"><ele>38.0</ele><time>2026-04-06T15:16:30.999Z</time></trkpt><trkpt lat="40.31601167139741" lon="8.477411528318614"><ele>38.0</ele><time>2026-04-06T15:16:31.999Z</time></trkpt><trkpt lat="40.316068478349344" lon="8.477196595842178"><ele>38.0</ele><time>2026-04-06T15:16:32.999Z</time></trkpt><trkpt lat="40.31610707990494" lon="8.476958990453127"><ele>38.0</ele><time>2026-04-06T15:16:33.999Z</time></trkpt><trkpt lat="40.31612834839217" lon="8.476693849193198"><ele>37.33333333333333</ele><time>2026-04-06T15:16:34.999Z</time></trkpt><trkpt lat="40.316155173348434" lon="8.47641207453716"><ele>36.666666666666664</ele><time>2026-04-06T15:16:35.999Z</time></trkpt><trkpt lat="40.31621734126823" lon="8.476124155370064"><ele>36.0</ele><time>2026-04-06T15:16:36.999Z</time></trkpt><trkpt lat="40.316280997835705" lon="8.47583035254014"><ele>34.5</ele><time>2026-04-06T15:16:37.999Z</time></trkpt><trkpt lat="40.31633524600663" lon="8.475526484220913"><ele>33.0</ele><time>2026-04-06T15:16:38.999Z</time></trkpt><trkpt lat="40.316400734199334" lon="8.475230098704639"><ele>35.5</ele><time>2026-04-06T15:16:39.999Z</time></trkpt><trkpt lat="40.31644771278065" lon="8.474926258534607"><ele>38.0</ele><time>2026-04-06T15:16:40.999Z</time></trkpt><trkpt lat="40.31646269035055" lon="8.474626306707409"><ele>37.33333333333333</ele><time>2026-04-06T15:16:41.999Z</time></trkpt><trkpt lat="40.31645877640846" lon="8.47434840775401"><ele>36.666666666666664</ele><time>2026-04-06T15:16:42.999Z</time></trkpt><trkpt lat="40.316478740828444" lon="8.474093467466675"><ele>36.0</ele><time>2026-04-06T15:16:43.999Z</time></trkpt><trkpt lat="40.31648072087863" lon="8.473855686487221"><ele>35.0</ele><time>2026-04-06T15:16:44.999Z</time></trkpt><trkpt lat="40.31654718880928" lon="8.473624528049733"><ele>34.0</ele><time>2026-04-06T15:16:45.999Z</time></trkpt><trkpt lat="40.31661696914581" lon="8.473378763911967"><ele>33.0</ele><time>2026-04-06T15:16:46.999Z</time></trkpt><trkpt lat="40.316687477480215" lon="8.4731352076077"><ele>31.333333333333336</ele><time>2026-04-06T15:16:47.999Z</time></trkpt><trkpt lat="40.316756035041365" lon="8.472857864577161"><ele>29.666666666666668</ele><time>2026-04-06T15:16:48.999Z</time></trkpt><trkpt lat="40.31682789713394" lon="8.472608065281051"><ele>28.0</ele><time>2026-04-06T15:16:49.999Z</time></trkpt><trkpt lat="40.31687061502069" lon="8.472381422259774"><ele>28.0</ele><time>2026-04-06T15:16:50.999Z</time></trkpt><trkpt lat="40.31687189695465" lon="8.472141286323478"><ele>28.0</ele><time>2026-04-06T15:16:51.999Z</time></trkpt><trkpt lat="40.31683907426291" lon="8.471896563851695"><ele>28.0</ele><time>2026-04-06T15:16:52.999Z</time></trkpt><trkpt lat="40.31679562122505" lon="8.471661607150608"><ele>26.666666666666668</ele><time>2026-04-06T15:16:53.999Z</time></trkpt><trkpt lat="40.31678832198664" lon="8.471440358474528"><ele>25.333333333333336</ele><time>2026-04-06T15:16:54.999Z</time></trkpt><trkpt lat="40.31681554302216" lon="8.471226390998957"><ele>24.0</ele><time>2026-04-06T15:16:55.999Z</time></trkpt><trkpt lat="40.31686978776251" lon="8.4709937815528"><ele>23.0</ele><time>2026-04-06T15:16:56.999Z</time></trkpt><trkpt lat="40.316916299023106" lon="8.470733380053948"><ele>22.0</ele><time>2026-04-06T15:16:57.999Z</time></trkpt><trkpt lat="40.31698402885409" lon="8.470456888278683"><ele>21.0</ele><time>2026-04-06T15:16:58.999Z</time></trkpt><trkpt lat="40.31704736282259" lon="8.47016428276008"><ele>20.5</ele><time>2026-04-06T15:16:59.999Z</time></trkpt><trkpt lat="40.317128727784095" lon="8.469883365417882"><ele>20.0</ele><time>2026-04-06T15:17:00.999Z</time></trkpt><trkpt lat="40.31719379704797" lon="8.469603452940541"><ele>21.0</ele><time>2026-04-06T15:17:01.999Z</time></trkpt><trkpt lat="40.31724742583154" lon="8.469305608851423"><ele>22.0</ele><time>2026-04-06T15:17:02.999Z</time></trkpt><trkpt lat="40.317318707297986" lon="8.46900316127184"><ele>20.5</ele><time>2026-04-06T15:17:03.999Z</time></trkpt><trkpt lat="40.31738932133223" lon="8.468690397869683"><ele>19.0</ele><time>2026-04-06T15:17:04.999Z</time></trkpt><trkpt lat="40.31746112985337" lon="8.468373108078469"><ele>19.0</ele><time>2026-04-06T15:17:05.999Z</time></trkpt><trkpt lat="40.317532575688105" lon="8.468072893440029"><ele>19.0</ele><time>2026-04-06T15:17:06.999Z</time></trkpt><trkpt lat="40.31760474529732" lon="8.467798615048949"><ele>17.0</ele><time>2026-04-06T15:17:07.999Z</time></trkpt><trkpt lat="40.31769430860436" lon="8.46752351823352"><ele>15.0</ele><time>2026-04-06T15:17:08.999Z</time></trkpt><trkpt lat="40.31780323390487" lon="8.467251306473939"><ele>14.5</ele><time>2026-04-06T15:17:09.999Z</time></trkpt><trkpt lat="40.31791872057469" lon="8.466978147028804"><ele>14.0</ele><time>2026-04-06T15:17:10.999Z</time></trkpt><trkpt lat="40.318032065843816" lon="8.466701714208469"><ele>15.666666666666668</ele><time>2026-04-06T15:17:11.999Z</time></trkpt><trkpt lat="40.318142939728524" lon="8.466431788578815"><ele>17.333333333333332</ele><time>2026-04-06T15:17:12.999Z</time></trkpt><trkpt lat="40.31822837762304" lon="8.466179862785173"><ele>19.0</ele><time>2026-04-06T15:17:13.999Z</time></trkpt><trkpt lat="40.31828457761746" lon="8.465935242438372"><ele>19.333333333333332</ele><time>2026-04-06T15:17:14.999Z</time></trkpt><trkpt lat="40.31831499112637" lon="8.465701915746365"><ele>19.666666666666668</ele><time>2026-04-06T15:17:15.999Z</time></trkpt><trkpt lat="40.31834053876377" lon="8.465468750900428"><ele>20.0</ele><time>2026-04-06T15:17:16.999Z</time></trkpt><trkpt lat="40.318367488949555" lon="8.46524060697824"><ele>20.333333333333336</ele><time>2026-04-06T15:17:17.999Z</time></trkpt><trkpt lat="40.31840802326833" lon="8.465013181828136"><ele>20.666666666666668</ele><time>2026-04-06T15:17:18.999Z</time></trkpt><trkpt lat="40.31844771751563" lon="8.464786534920238"><ele>21.0</ele><time>2026-04-06T15:17:19.999Z</time></trkpt><trkpt lat="40.318481895387464" lon="8.464557590768456"><ele>21.0</ele><time>2026-04-06T15:17:20.999Z</time></trkpt><trkpt lat="40.318516123537805" lon="8.464320132221525"><ele>21.0</ele><time>2026-04-06T15:17:22Z</time></trkpt><trkpt lat="40.31854835061568" lon="8.4640888188632"><ele>21.0</ele><time>2026-04-06T15:17:23Z</time></trkpt><trkpt lat="40.31857704246598" lon="8.463878295722894"><ele>20.666666666666668</ele><time>2026-04-06T15:17:24Z</time></trkpt><trkpt lat="40.31861115133828" lon="8.463678184212666"><ele>20.333333333333336</ele><time>2026-04-06T15:17:25Z</time></trkpt><trkpt lat="40.318662807855276" lon="8.463477153597495"><ele>20.0</ele><time>2026-04-06T15:17:26Z</time></trkpt><trkpt lat="40.318733330056986" lon="8.463274120902183"><ele>20.0</ele><time>2026-04-06T15:17:27Z</time></trkpt><trkpt lat="40.31881683802595" lon="8.463075369901823"><ele>20.0</ele><time>2026-04-06T15:17:28Z</time></trkpt><trkpt lat="40.318911154320986" lon="8.46287995973982"><ele>20.0</ele><time>2026-04-06T15:17:29Z</time></trkpt><trkpt lat="40.31901185576658" lon="8.46268284782105"><ele>22.666666666666668</ele><time>2026-04-06T15:17:30Z</time></trkpt><trkpt lat="40.319108136812595" lon="8.462478763078366"><ele>25.333333333333336</ele><time>2026-04-06T15:17:31Z</time></trkpt><trkpt lat="40.31919097628163" lon="8.462255985307173"><ele>28.0</ele><time>2026-04-06T15:17:32Z</time></trkpt><trkpt lat="40.31926168060825" lon="8.462027920966413"><ele>28.0</ele><time>2026-04-06T15:17:33Z</time></trkpt><trkpt lat="40.3193305939945" lon="8.461797593261128"><ele>28.0</ele><time>2026-04-06T15:17:34Z</time></trkpt><trkpt lat="40.31939719717788" lon="8.461566303347881"><ele>28.0</ele><time>2026-04-06T15:17:35Z</time></trkpt><trkpt lat="40.319464963951795" lon="8.461339230488228"><ele>27.0</ele><time>2026-04-06T15:17:36Z</time></trkpt><trkpt lat="40.31953728796316" lon="8.461111861353983"><ele>26.0</ele><time>2026-04-06T15:17:37Z</time></trkpt><trkpt lat="40.319618707023054" lon="8.460880991846993"><ele>25.0</ele><time>2026-04-06T15:17:38Z</time></trkpt><trkpt lat="40.31970572271805" lon="8.460660654937877"><ele>29.333333333333336</ele><time>2026-04-06T15:17:39Z</time></trkpt><trkpt lat="40.319788825034806" lon="8.460465969414035"><ele>33.666666666666664</ele><time>2026-04-06T15:17:40Z</time></trkpt><trkpt lat="40.31986372033572" lon="8.460290598954224"><ele>38.0</ele><time>2026-04-06T15:17:41Z</time></trkpt><trkpt lat="40.31993919242379" lon="8.460131496960132"><ele>38.0</ele><time>2026-04-06T15:17:42Z</time></trkpt><trkpt lat="40.32002852062675" lon="8.460004249506635"><ele>38.0</ele><time>2026-04-06T15:17:43Z</time></trkpt><trkpt lat="40.32014582726981" lon="8.459908722927164"><ele>38.0</ele><time>2026-04-06T15:17:44Z</time></trkpt><trkpt lat="40.32027824226199" lon="8.459822921997086"><ele>38.0</ele><time>2026-04-06T15:17:45Z</time></trkpt><trkpt lat="40.32040162274267" lon="8.459707952959736"><ele>43.0</ele><time>2026-04-06T15:17:46Z</time></trkpt><trkpt lat="40.32050535256643" lon="8.459558002027888"><ele>48.0</ele><time>2026-04-06T15:17:47Z</time></trkpt><trkpt lat="40.320577754257904" lon="8.45936777583527"><ele>53.0</ele><time>2026-04-06T15:17:48Z</time></trkpt><trkpt lat="40.32063926005588" lon="8.459158347898162"><ele>53.0</ele><time>2026-04-06T15:17:49Z</time></trkpt><trkpt lat="40.3207023266161" lon="8.458948651254964"><ele>53.0</ele><time>2026-04-06T15:17:50Z</time></trkpt><trkpt lat="40.32077385025648" lon="8.458747470978189"><ele>53.0</ele><time>2026-04-06T15:17:51Z</time></trkpt><trkpt lat="40.320845063390664" lon="8.458558527359445"><ele>49.5</ele><time>2026-04-06T15:17:52Z</time></trkpt><trkpt lat="40.32091900752674" lon="8.45839297011723"><ele>46.0</ele><time>2026-04-06T15:17:53Z</time></trkpt><trkpt lat="40.32100569511847" lon="8.458242120640467"><ele>42.5</ele><time>2026-04-06T15:17:54Z</time></trkpt><trkpt lat="40.32110924476878" lon="8.45810406595403"><ele>39.0</ele><time>2026-04-06T15:17:55Z</time></trkpt><trkpt lat="40.32120196966154" lon="8.457974709444903"><ele>37.0</ele><time>2026-04-06T15:17:56Z</time></trkpt><trkpt lat="40.3212649433017" lon="8.457837172519922"><ele>35.0</ele><time>2026-04-06T15:17:57Z</time></trkpt><trkpt lat="40.321292594274766" lon="8.457688417544691"><ele>33.0</ele><time>2026-04-06T15:17:58Z</time></trkpt><trkpt lat="40.32132520711555" lon="8.457533808903262"><ele>31.0</ele><time>2026-04-06T15:17:59Z</time></trkpt><trkpt lat="40.32137608034306" lon="8.457376853386037"><ele>34.4</ele><time>2026-04-06T15:18:00Z</time></trkpt><trkpt lat="40.32143973134246" lon="8.457240916904537"><ele>37.8</ele><time>2026-04-06T15:18:01Z</time></trkpt><trkpt lat="40.32149753263528" lon="8.457124330312805"><ele>41.199999999999996</ele><time>2026-04-06T15:18:02Z</time></trkpt><trkpt lat="40.321548805118304" lon="8.457017592031535"><ele>44.6</ele><time>2026-04-06T15:18:03Z</time></trkpt><trkpt lat="40.321596162300885" lon="8.456922578242008"><ele>48.0</ele><time>2026-04-06T15:18:04Z</time></trkpt><trkpt lat="40.32164146189817" lon="8.456829058505903"><ele>48.0</ele><time>2026-04-06T15:18:05Z</time></trkpt><trkpt lat="40.321710084365996" lon="8.456721170163064"><ele>48.0</ele><time>2026-04-06T15:18:06Z</time></trkpt><trkpt lat="40.32179653967999" lon="8.456627748575384"><ele>48.0</ele><time>2026-04-06T15:18:07Z</time></trkpt><trkpt lat="40.32190467240723" lon="8.45653646074733"><ele>48.0</ele><time>2026-04-06T15:18:08Z</time></trkpt><trkpt lat="40.322028394083766" lon="8.45645001273866"><ele>48.0</ele><time>2026-04-06T15:18:09Z</time></trkpt><trkpt lat="40.3221551936402" lon="8.456359626041525"><ele>48.0</ele><time>2026-04-06T15:18:10Z</time></trkpt><trkpt lat="40.322250778038786" lon="8.456269214302045"><ele>48.0</ele><time>2026-04-06T15:18:11Z</time></trkpt><trkpt lat="40.32233608153056" lon="8.456168116957945"><ele>48.0</ele><time>2026-04-06T15:18:12Z</time></trkpt><trkpt lat="40.322427566482745" lon="8.456083791015589"><ele>49.5</ele><time>2026-04-06T15:18:13Z</time></trkpt><trkpt lat="40.32250840669104" lon="8.455957864524951"><ele>51.0</ele><time>2026-04-06T15:18:14Z</time></trkpt><trkpt lat="40.322611318650914" lon="8.455840427180405"><ele>52.5</ele><time>2026-04-06T15:18:15Z</time></trkpt><trkpt lat="40.32272596548617" lon="8.455713153512873"><ele>54.0</ele><time>2026-04-06T15:18:16Z</time></trkpt><trkpt lat="40.322828564870626" lon="8.455589810059793"><ele>54.0</ele><time>2026-04-06T15:18:17Z</time></trkpt><trkpt lat="40.322909984617006" lon="8.455483795763445"><ele>54.0</ele><time>2026-04-06T15:18:18Z</time></trkpt><trkpt lat="40.322995653226734" lon="8.455369146439747"><ele>54.0</ele><time>2026-04-06T15:18:19Z</time></trkpt><trkpt lat="40.32308307082595" lon="8.455246176189672"><ele>54.0</ele><time>2026-04-06T15:18:20Z</time></trkpt><trkpt lat="40.32316137026686" lon="8.45510048279286"><ele>55.25</ele><time>2026-04-06T15:18:21Z</time></trkpt><trkpt lat="40.32322436660065" lon="8.454949827879803"><ele>56.5</ele><time>2026-04-06T15:18:22Z</time></trkpt><trkpt lat="40.32327829952921" lon="8.454785379097201"><ele>57.75</ele><time>2026-04-06T15:18:23Z</time></trkpt><trkpt lat="40.32332625950556" lon="8.454588078168094"><ele>59.0</ele><time>2026-04-06T15:18:24Z</time></trkpt><trkpt lat="40.32336124526305" lon="8.45441082499314"><ele>59.0</ele><time>2026-04-06T15:18:25Z</time></trkpt><trkpt lat="40.32339585150402" lon="8.454228141972164"><ele>59.0</ele><time>2026-04-06T15:18:26Z</time></trkpt><trkpt lat="40.3234402878625" lon="8.454043747568482"><ele>59.0</ele><time>2026-04-06T15:18:27Z</time></trkpt><trkpt lat="40.32348193929775" lon="8.453865895054522"><ele>59.0</ele><time>2026-04-06T15:18:28Z</time></trkpt><trkpt lat="40.3235334389689" lon="8.453716061631305"><ele>58.400000000000006</ele><time>2026-04-06T15:18:29Z</time></trkpt><trkpt lat="40.323565394726536" lon="8.453579091191644"><ele>57.800000000000004</ele><time>2026-04-06T15:18:30Z</time></trkpt><trkpt lat="40.32357954239805" lon="8.453442590037806"><ele>57.199999999999996</ele><time>2026-04-06T15:18:31Z</time></trkpt><trkpt lat="40.323613775310506" lon="8.453319594075037"><ele>56.599999999999994</ele><time>2026-04-06T15:18:32Z</time></trkpt><trkpt lat="40.323645743842384" lon="8.453186938775103"><ele>56.0</ele><time>2026-04-06T15:18:33Z</time></trkpt><trkpt lat="40.323681392996406" lon="8.453034122335417"><ele>55.75</ele><time>2026-04-06T15:18:34Z</time></trkpt><trkpt lat="40.32374613141213" lon="8.452878197836078"><ele>55.5</ele><time>2026-04-06T15:18:35Z</time></trkpt><trkpt lat="40.3238092597091" lon="8.452733641586372"><ele>55.25</ele><time>2026-04-06T15:18:36Z</time></trkpt><trkpt lat="40.32387165474959" lon="8.452603598421398"><ele>55.0</ele><time>2026-04-06T15:18:37Z</time></trkpt><trkpt lat="40.323934126915645" lon="8.452479165145037"><ele>55.0</ele><time>2026-04-06T15:18:38Z</time></trkpt><trkpt lat="40.3239932368508" lon="8.45236915149607"><ele>55.0</ele><time>2026-04-06T15:18:39Z</time></trkpt><trkpt lat="40.32406094845713" lon="8.452273303458899"><ele>55.0</ele><time>2026-04-06T15:18:40Z</time></trkpt><trkpt lat="40.32414953512268" lon="8.452181520338137"><ele>55.0</ele><time>2026-04-06T15:18:41Z</time></trkpt><trkpt lat="40.324261978957885" lon="8.452119474372855"><ele>55.0</ele><time>2026-04-06T15:18:42Z</time></trkpt><trkpt lat="40.32440283272373" lon="8.452059550310173"><ele>53.666666666666664</ele><time>2026-04-06T15:18:43Z</time></trkpt><trkpt lat="40.324565201405825" lon="8.451990166392482"><ele>52.33333333333333</ele><time>2026-04-06T15:18:44Z</time></trkpt><trkpt lat="40.32474403350512" lon="8.451920921952562"><ele>51.0</ele><time>2026-04-06T15:18:45Z</time></trkpt><trkpt lat="40.32493759204842" lon="8.451825059023953"><ele>51.0</ele><time>2026-04-06T15:18:45.999Z</time></trkpt><trkpt lat="40.325125969072225" lon="8.45171394419759"><ele>51.0</ele><time>2026-04-06T15:18:46.999Z</time></trkpt><trkpt lat="40.325335225056946" lon="8.451600896264623"><ele>51.0</ele><time>2026-04-06T15:18:47.999Z</time></trkpt><trkpt lat="40.325519310146035" lon="8.451489631780541"><ele>50.66666666666667</ele><time>2026-04-06T15:18:48.999Z</time></trkpt><trkpt lat="40.32568570515638" lon="8.451394633030377"><ele>50.333333333333336</ele><time>2026-04-06T15:18:49.999Z</time></trkpt><trkpt lat="40.32583395074019" lon="8.451318107464262"><ele>50.0</ele><time>2026-04-06T15:18:50.999Z</time></trkpt><trkpt lat="40.3259500867344" lon="8.451247824956045"><ele>49.5</ele><time>2026-04-06T15:18:51.999Z</time></trkpt><trkpt lat="40.32604250216369" lon="8.451141219096355"><ele>49.0</ele><time>2026-04-06T15:18:52.999Z</time></trkpt><trkpt lat="40.32610476187429" lon="8.450987159327408"><ele>48.5</ele><time>2026-04-06T15:18:53.999Z</time></trkpt><trkpt lat="40.32612841350649" lon="8.450794586728446"><ele>48.0</ele><time>2026-04-06T15:18:54.999Z</time></trkpt><trkpt lat="40.32612356576297" lon="8.45057307652018"><ele>47.333333333333336</ele><time>2026-04-06T15:18:55.999Z</time></trkpt><trkpt lat="40.32611323568584" lon="8.450318781645622"><ele>46.66666666666667</ele><time>2026-04-06T15:18:56.999Z</time></trkpt><trkpt lat="40.32610952000107" lon="8.450047490625524"><ele>46.0</ele><time>2026-04-06T15:18:57.999Z</time></trkpt><trkpt lat="40.32610580100612" lon="8.449780315156113"><ele>45.333333333333336</ele><time>2026-04-06T15:18:58.999Z</time></trkpt><trkpt lat="40.32610599037143" lon="8.449542844023734"><ele>44.666666666666664</ele><time>2026-04-06T15:18:59.999Z</time></trkpt><trkpt lat="40.326103894182324" lon="8.449294850681778"><ele>44.0</ele><time>2026-04-06T15:19:00.999Z</time></trkpt><trkpt lat="40.326104366465024" lon="8.449059624966416"><ele>44.0</ele><time>2026-04-06T15:19:02Z</time></trkpt><trkpt lat="40.32611093789042" lon="8.44886843461594"><ele>44.0</ele><time>2026-04-06T15:19:03Z</time></trkpt><trkpt lat="40.326134727063135" lon="8.44868728485728"><ele>44.0</ele><time>2026-04-06T15:19:04Z</time></trkpt><trkpt lat="40.32618446785121" lon="8.44848187967148"><ele>43.666666666666664</ele><time>2026-04-06T15:19:05Z</time></trkpt><trkpt lat="40.32625374978062" lon="8.44825726885687"><ele>43.333333333333336</ele><time>2026-04-06T15:19:06Z</time></trkpt><trkpt lat="40.32633223506091" lon="8.448017078758145"><ele>43.0</ele><time>2026-04-06T15:19:07Z</time></trkpt><trkpt lat="40.326410835074405" lon="8.447763364158025"><ele>43.0</ele><time>2026-04-06T15:19:08Z</time></trkpt><trkpt lat="40.32648114648088" lon="8.44752274129117"><ele>43.0</ele><time>2026-04-06T15:19:09Z</time></trkpt><trkpt lat="40.32654546155607" lon="8.447295050771949"><ele>43.0</ele><time>2026-04-06T15:19:10Z</time></trkpt><trkpt lat="40.326626492114166" lon="8.447087688414479"><ele>43.0</ele><time>2026-04-06T15:19:11Z</time></trkpt><trkpt lat="40.32667850579274" lon="8.446861238022995"><ele>43.0</ele><time>2026-04-06T15:19:12Z</time></trkpt><trkpt lat="40.32675077702068" lon="8.446635023597764"><ele>43.0</ele><time>2026-04-06T15:19:13Z</time></trkpt><trkpt lat="40.32682557881407" lon="8.446394288717112"><ele>44.0</ele><time>2026-04-06T15:19:14Z</time></trkpt><trkpt lat="40.32690234501088" lon="8.446149259725079"><ele>45.0</ele><time>2026-04-06T15:19:15Z</time></trkpt><trkpt lat="40.326981513881215" lon="8.445893551285348"><ele>46.0</ele><time>2026-04-06T15:19:16Z</time></trkpt><trkpt lat="40.32705342373463" lon="8.445659210578645"><ele>44.66666666666667</ele><time>2026-04-06T15:19:17Z</time></trkpt><trkpt lat="40.32710931811975" lon="8.445448735229423"><ele>43.333333333333336</ele><time>2026-04-06T15:19:18Z</time></trkpt><trkpt lat="40.32713658997932" lon="8.44524139024703"><ele>42.0</ele><time>2026-04-06T15:19:19Z</time></trkpt><trkpt lat="40.32712476881956" lon="8.445023216589147"><ele>42.0</ele><time>2026-04-06T15:19:20Z</time></trkpt><trkpt lat="40.32708458716346" lon="8.44478458833877"><ele>42.0</ele><time>2026-04-06T15:19:21Z</time></trkpt><trkpt lat="40.327021031373405" lon="8.444520886016837"><ele>42.0</ele><time>2026-04-06T15:19:22Z</time></trkpt><trkpt lat="40.326974321708526" lon="8.444246474671303"><ele>38.333333333333336</ele><time>2026-04-06T15:19:23Z</time></trkpt><trkpt lat="40.32692203420598" lon="8.443983571304535"><ele>34.66666666666667</ele><time>2026-04-06T15:19:24Z</time></trkpt><trkpt lat="40.32685866163584" lon="8.443739523186084"><ele>31.0</ele><time>2026-04-06T15:19:25Z</time></trkpt><trkpt lat="40.32681449491612" lon="8.44349779229385"><ele>31.333333333333336</ele><time>2026-04-06T15:19:26Z</time></trkpt><trkpt lat="40.326770887858466" lon="8.443261207041587"><ele>31.666666666666664</ele><time>2026-04-06T15:19:27Z</time></trkpt><trkpt lat="40.326728468740455" lon="8.443040632370147"><ele>32.0</ele><time>2026-04-06T15:19:28Z</time></trkpt><trkpt lat="40.32669705188863" lon="8.44285523740817"><ele>32.0</ele><time>2026-04-06T15:19:29Z</time></trkpt><trkpt lat="40.326660316585716" lon="8.442666735709471"><ele>32.0</ele><time>2026-04-06T15:19:30Z</time></trkpt><trkpt lat="40.326642320744575" lon="8.442485237861808"><ele>32.0</ele><time>2026-04-06T15:19:31Z</time></trkpt><trkpt lat="40.326640103195416" lon="8.442305463997684"><ele>32.0</ele><time>2026-04-06T15:19:32Z</time></trkpt><trkpt lat="40.32667030148659" lon="8.442116649516315"><ele>33.0</ele><time>2026-04-06T15:19:33Z</time></trkpt><trkpt lat="40.32667178185993" lon="8.441907490486015"><ele>34.0</ele><time>2026-04-06T15:19:34Z</time></trkpt><trkpt lat="40.326692020281044" lon="8.441689313090716"><ele>35.0</ele><time>2026-04-06T15:19:35Z</time></trkpt><trkpt lat="40.32670823304942" lon="8.441456343135226"><ele>35.666666666666664</ele><time>2026-04-06T15:19:36Z</time></trkpt><trkpt lat="40.32672180465278" lon="8.441244109400515"><ele>36.333333333333336</ele><time>2026-04-06T15:19:37Z</time></trkpt><trkpt lat="40.32673326445138" lon="8.44104778347357"><ele>37.0</ele><time>2026-04-06T15:19:38Z</time></trkpt><trkpt lat="40.32674489394403" lon="8.440857763183939"><ele>37.0</ele><time>2026-04-06T15:19:39Z</time></trkpt><trkpt lat="40.32675714475246" lon="8.440674448904185"><ele>37.0</ele><time>2026-04-06T15:19:40Z</time></trkpt><trkpt lat="40.326767430095856" lon="8.440509872472001"><ele>37.0</ele><time>2026-04-06T15:19:41Z</time></trkpt><trkpt lat="40.32677836780602" lon="8.440356582867858"><ele>37.0</ele><time>2026-04-06T15:19:42Z</time></trkpt><trkpt lat="40.32678968860423" lon="8.440214308065288"><ele>36.5</ele><time>2026-04-06T15:19:43Z</time></trkpt><trkpt lat="40.32680435961927" lon="8.440064946977213"><ele>36.0</ele><time>2026-04-06T15:19:44Z</time></trkpt><trkpt lat="40.32683050351927" lon="8.439905103648476"><ele>35.5</ele><time>2026-04-06T15:19:45Z</time></trkpt><trkpt lat="40.32686835652934" lon="8.439761760795353"><ele>35.0</ele><time>2026-04-06T15:19:46Z</time></trkpt><trkpt lat="40.32693229162992" lon="8.439584129326535"><ele>33.0</ele><time>2026-04-06T15:19:47Z</time></trkpt><trkpt lat="40.32701962746185" lon="8.43940098268113"><ele>31.0</ele><time>2026-04-06T15:19:48Z</time></trkpt><trkpt lat="40.327128788573724" lon="8.439219343868832"><ele>29.0</ele><time>2026-04-06T15:19:49Z</time></trkpt><trkpt lat="40.327243040719836" lon="8.43898854344353"><ele>31.0</ele><time>2026-04-06T15:19:50Z</time></trkpt><trkpt lat="40.3273727859373" lon="8.438726445004932"><ele>33.0</ele><time>2026-04-06T15:19:51Z</time></trkpt><trkpt lat="40.32749278772783" lon="8.438455600680813"><ele>33.0</ele><time>2026-04-06T15:19:52Z</time></trkpt><trkpt lat="40.32762345980444" lon="8.438211108438654"><ele>33.0</ele><time>2026-04-06T15:19:53Z</time></trkpt><trkpt lat="40.327747007701234" lon="8.437979159378585"><ele>33.0</ele><time>2026-04-06T15:19:54Z</time></trkpt><trkpt lat="40.32788555412422" lon="8.43778909817252"><ele>33.333333333333336</ele><time>2026-04-06T15:19:55Z</time></trkpt><trkpt lat="40.32801576689162" lon="8.437593950976781"><ele>33.66666666666667</ele><time>2026-04-06T15:19:56Z</time></trkpt><trkpt lat="40.32815262694789" lon="8.437390910202518"><ele>34.0</ele><time>2026-04-06T15:19:57Z</time></trkpt><trkpt lat="40.32828463871622" lon="8.437166746934121"><ele>33.0</ele><time>2026-04-06T15:19:58Z</time></trkpt><trkpt lat="40.3284346410075" lon="8.436944625891325"><ele>32.0</ele><time>2026-04-06T15:19:59Z</time></trkpt><trkpt lat="40.328586776530905" lon="8.436716572552234"><ele>32.0</ele><time>2026-04-06T15:20:00Z</time></trkpt><trkpt lat="40.32873053621617" lon="8.43650592195269"><ele>32.0</ele><time>2026-04-06T15:20:01Z</time></trkpt><trkpt lat="40.328860978716946" lon="8.43632530656513"><ele>32.0</ele><time>2026-04-06T15:20:02Z</time></trkpt><trkpt lat="40.32898777980204" lon="8.436176659134414"><ele>33.0</ele><time>2026-04-06T15:20:03Z</time></trkpt><trkpt lat="40.32912535558811" lon="8.436069483896633"><ele>34.0</ele><time>2026-04-06T15:20:04Z</time></trkpt><trkpt lat="40.329285924495565" lon="8.436025494763014"><ele>35.0</ele><time>2026-04-06T15:20:05Z</time></trkpt><trkpt lat="40.329444511498544" lon="8.435998161368703"><ele>35.0</ele><time>2026-04-06T15:20:06Z</time></trkpt><trkpt lat="40.329599747256715" lon="8.436009735109325"><ele>35.0</ele><time>2026-04-06T15:20:07Z</time></trkpt><trkpt lat="40.329760556539476" lon="8.436037549901327"><ele>35.0</ele><time>2026-04-06T15:20:08Z</time></trkpt><trkpt lat="40.329921121937225" lon="8.436128460931247"><ele>37.666666666666664</ele><time>2026-04-06T15:20:09Z</time></trkpt><trkpt lat="40.33006787810586" lon="8.43627969884195"><ele>40.333333333333336</ele><time>2026-04-06T15:20:10Z</time></trkpt><trkpt lat="40.330236190110554" lon="8.436419118724825"><ele>43.0</ele><time>2026-04-06T15:20:11Z</time></trkpt><trkpt lat="40.33039212328659" lon="8.436586491792674"><ele>43.0</ele><time>2026-04-06T15:20:12Z</time></trkpt><trkpt lat="40.330540661741885" lon="8.436721239545436"><ele>43.0</ele><time>2026-04-06T15:20:13Z</time></trkpt><trkpt lat="40.330686296766004" lon="8.436815158222137"><ele>43.0</ele><time>2026-04-06T15:20:14Z</time></trkpt><trkpt lat="40.33083576314863" lon="8.43687779756575"><ele>46.25</ele><time>2026-04-06T15:20:15Z</time></trkpt><trkpt lat="40.33099124788127" lon="8.436909171267024"><ele>49.5</ele><time>2026-04-06T15:20:16Z</time></trkpt><trkpt lat="40.33113975227898" lon="8.43691534009253"><ele>52.75</ele><time>2026-04-06T15:20:17Z</time></trkpt><trkpt lat="40.331271806504084" lon="8.436905084891674"><ele>56.0</ele><time>2026-04-06T15:20:18Z</time></trkpt><trkpt lat="40.33139170628852" lon="8.436874168729071"><ele>58.25</ele><time>2026-04-06T15:20:19Z</time></trkpt><trkpt lat="40.33151580887528" lon="8.436828542360063"><ele>60.5</ele><time>2026-04-06T15:20:20Z</time></trkpt><trkpt lat="40.33164090142893" lon="8.436764991063418"><ele>62.75</ele><time>2026-04-06T15:20:21Z</time></trkpt><trkpt lat="40.33175638389793" lon="8.43667603399696"><ele>65.0</ele><time>2026-04-06T15:20:22Z</time></trkpt><trkpt lat="40.33188590135375" lon="8.4365740232556"><ele>65.0</ele><time>2026-04-06T15:20:23Z</time></trkpt><trkpt lat="40.33201143547916" lon="8.436397148159628"><ele>65.0</ele><time>2026-04-06T15:20:24Z</time></trkpt><trkpt lat="40.332163917576004" lon="8.436243700807072"><ele>65.0</ele><time>2026-04-06T15:20:25Z</time></trkpt><trkpt lat="40.33230876396568" lon="8.436047207193647"><ele>71.5</ele><time>2026-04-06T15:20:26Z</time></trkpt><trkpt lat="40.33248130770347" lon="8.435852393491363"><ele>78.0</ele><time>2026-04-06T15:20:27Z</time></trkpt><trkpt lat="40.332658761588604" lon="8.435644690486294"><ele>80.5</ele><time>2026-04-06T15:20:28Z</time></trkpt><trkpt lat="40.33283211658115" lon="8.435437002378123"><ele>83.0</ele><time>2026-04-06T15:20:29Z</time></trkpt><trkpt lat="40.33299310670627" lon="8.435242547515923"><ele>83.66666666666667</ele><time>2026-04-06T15:20:30Z</time></trkpt><trkpt lat="40.33315497578787" lon="8.435048193567685"><ele>84.33333333333333</ele><time>2026-04-06T15:20:31Z</time></trkpt><trkpt lat="40.33331860286692" lon="8.434863346210594"><ele>85.0</ele><time>2026-04-06T15:20:32Z</time></trkpt><trkpt lat="40.333495627545865" lon="8.43467933890839"><ele>77.0</ele><time>2026-04-06T15:20:33Z</time></trkpt><trkpt lat="40.33368009513632" lon="8.434507880592927"><ele>69.0</ele><time>2026-04-06T15:20:34Z</time></trkpt><trkpt lat="40.33387489745938" lon="8.434339279699724"><ele>76.33333333333333</ele><time>2026-04-06T15:20:35Z</time></trkpt><trkpt lat="40.33406011652078" lon="8.434176201469626"><ele>83.66666666666666</ele><time>2026-04-06T15:20:36Z</time></trkpt><trkpt lat="40.334230341695196" lon="8.434024223800723"><ele>91.0</ele><time>2026-04-06T15:20:37Z</time></trkpt><trkpt lat="40.334385802206164" lon="8.433890166662264"><ele>92.33333333333333</ele><time>2026-04-06T15:20:38Z</time></trkpt><trkpt lat="40.33452989030033" lon="8.433757579255971"><ele>93.66666666666667</ele><time>2026-04-06T15:20:39Z</time></trkpt><trkpt lat="40.33465925535686" lon="8.433622656808058"><ele>95.0</ele><time>2026-04-06T15:20:40Z</time></trkpt><trkpt lat="40.33476435985948" lon="8.43346146234123"><ele>95.0</ele><time>2026-04-06T15:20:41Z</time></trkpt><trkpt lat="40.33483468880575" lon="8.433273984151317"><ele>95.0</ele><time>2026-04-06T15:20:42Z</time></trkpt><trkpt lat="40.334869439991124" lon="8.43305782747653"><ele>95.0</ele><time>2026-04-06T15:20:43Z</time></trkpt><trkpt lat="40.334879124027886" lon="8.432833381387137"><ele>92.33333333333334</ele><time>2026-04-06T15:20:44Z</time></trkpt><trkpt lat="40.33489256094254" lon="8.432605743651099"><ele>89.66666666666667</ele><time>2026-04-06T15:20:45Z</time></trkpt><trkpt lat="40.3349667761872" lon="8.432385802813233"><ele>87.0</ele><time>2026-04-06T15:20:46Z</time></trkpt><trkpt lat="40.33505361647428" lon="8.432152779491197"><ele>83.33333333333333</ele><time>2026-04-06T15:20:47Z</time></trkpt><trkpt lat="40.33513815740126" lon="8.431901666391543"><ele>79.66666666666666</ele><time>2026-04-06T15:20:48Z</time></trkpt><trkpt lat="40.335251658647344" lon="8.431645769767893"><ele>76.0</ele><time>2026-04-06T15:20:49Z</time></trkpt><trkpt lat="40.33536437342576" lon="8.431379967087162"><ele>72.5</ele><time>2026-04-06T15:20:50Z</time></trkpt><trkpt lat="40.33548032860443" lon="8.431101446845707"><ele>69.0</ele><time>2026-04-06T15:20:51Z</time></trkpt><trkpt lat="40.33558325084507" lon="8.430833385437346"><ele>71.66666666666667</ele><time>2026-04-06T15:20:52Z</time></trkpt><trkpt lat="40.33569151848989" lon="8.43060879594691"><ele>74.33333333333334</ele><time>2026-04-06T15:20:53Z</time></trkpt><trkpt lat="40.33578844560875" lon="8.430414714014802"><ele>77.0</ele><time>2026-04-06T15:20:54Z</time></trkpt><trkpt lat="40.3359038465601" lon="8.430264254036459"><ele>77.0</ele><time>2026-04-06T15:20:55Z</time></trkpt><trkpt lat="40.3360401002583" lon="8.430140118116242"><ele>77.0</ele><time>2026-04-06T15:20:56Z</time></trkpt><trkpt lat="40.33620448603017" lon="8.43005662568455"><ele>77.0</ele><time>2026-04-06T15:20:57Z</time></trkpt><trkpt lat="40.336393899368204" lon="8.43000001450976"><ele>82.66666666666667</ele><time>2026-04-06T15:20:58Z</time></trkpt><trkpt lat="40.33660675122351" lon="8.429939479675232"><ele>88.33333333333333</ele><time>2026-04-06T15:20:59Z</time></trkpt><trkpt lat="40.33682495401524" lon="8.429855305459835"><ele>94.0</ele><time>2026-04-06T15:21:00Z</time></trkpt><trkpt lat="40.33702860282614" lon="8.429819815335017"><ele>94.0</ele><time>2026-04-06T15:21:01Z</time></trkpt><trkpt lat="40.33719633911255" lon="8.429776298386892"><ele>94.0</ele><time>2026-04-06T15:21:02Z</time></trkpt><trkpt lat="40.337358173457154" lon="8.42977435250387"><ele>94.0</ele><time>2026-04-06T15:21:03Z</time></trkpt><trkpt lat="40.337507586679386" lon="8.429826610521747"><ele>95.33333333333333</ele><time>2026-04-06T15:21:04Z</time></trkpt><trkpt lat="40.337660372882745" lon="8.429913565962575"><ele>96.66666666666666</ele><time>2026-04-06T15:21:05Z</time></trkpt><trkpt lat="40.33783104335815" lon="8.43004158729951"><ele>98.0</ele><time>2026-04-06T15:21:06Z</time></trkpt><trkpt lat="40.33799765172276" lon="8.430217023618944"><ele>102.5</ele><time>2026-04-06T15:21:07Z</time></trkpt><trkpt lat="40.33817049891711" lon="8.430408496058723"><ele>107.0</ele><time>2026-04-06T15:21:08Z</time></trkpt><trkpt lat="40.33834439868051" lon="8.430616856721945"><ele>107.0</ele><time>2026-04-06T15:21:09Z</time></trkpt><trkpt lat="40.338511489932266" lon="8.430834514570467"><ele>107.0</ele><time>2026-04-06T15:21:10Z</time></trkpt><trkpt lat="40.338652196149795" lon="8.431027200840633"><ele>107.0</ele><time>2026-04-06T15:21:11Z</time></trkpt><trkpt lat="40.33877517091399" lon="8.431185866340032"><ele>104.0</ele><time>2026-04-06T15:21:12Z</time></trkpt><trkpt lat="40.33889574167828" lon="8.431305842300738"><ele>101.0</ele><time>2026-04-06T15:21:13Z</time></trkpt><trkpt lat="40.33904042276774" lon="8.43137007798264"><ele>98.0</ele><time>2026-04-06T15:21:14Z</time></trkpt><trkpt lat="40.33920274025811" lon="8.431397257879151"><ele>106.33333333333333</ele><time>2026-04-06T15:21:15Z</time></trkpt><trkpt lat="40.33938767290501" lon="8.431388562872081"><ele>114.66666666666666</ele><time>2026-04-06T15:21:16Z</time></trkpt><trkpt lat="40.3395763751657" lon="8.431369613554631"><ele>123.0</ele><time>2026-04-06T15:21:17Z</time></trkpt><trkpt lat="40.339736902199355" lon="8.431347453380226"><ele>119.66666666666666</ele><time>2026-04-06T15:21:18Z</time></trkpt><trkpt lat="40.339872923238175" lon="8.431275118345871"><ele>116.33333333333333</ele><time>2026-04-06T15:21:19Z</time></trkpt><trkpt lat="40.33998800933514" lon="8.431144597401618"><ele>113.0</ele><time>2026-04-06T15:21:20Z</time></trkpt><trkpt lat="40.34007480198967" lon="8.43096800523117"><ele>113.0</ele><time>2026-04-06T15:21:21Z</time></trkpt><trkpt lat="40.34012481716864" lon="8.4307650227856"><ele>113.0</ele><time>2026-04-06T15:21:22Z</time></trkpt><trkpt lat="40.3401337246885" lon="8.430534066805166"><ele>113.0</ele><time>2026-04-06T15:21:23Z</time></trkpt><trkpt lat="40.340101350609764" lon="8.43029755209876"><ele>114.66666666666666</ele><time>2026-04-06T15:21:24Z</time></trkpt><trkpt lat="40.34004950801497" lon="8.430054840308065"><ele>116.33333333333334</ele><time>2026-04-06T15:21:25Z</time></trkpt><trkpt lat="40.33999121635673" lon="8.429811328228551"><ele>118.0</ele><time>2026-04-06T15:21:26Z</time></trkpt><trkpt lat="40.33998362866317" lon="8.42959612651639"><ele>118.25</ele><time>2026-04-06T15:21:27Z</time></trkpt><trkpt lat="40.339980918834854" lon="8.429415222716377"><ele>118.5</ele><time>2026-04-06T15:21:28Z</time></trkpt><trkpt lat="40.340029366203936" lon="8.429235094376638"><ele>118.75</ele><time>2026-04-06T15:21:29Z</time></trkpt><trkpt lat="40.34012474195578" lon="8.429086669182885"><ele>119.0</ele><time>2026-04-06T15:21:30Z</time></trkpt><trkpt lat="40.34023430138306" lon="8.428980613459485"><ele>119.0</ele><time>2026-04-06T15:21:31Z</time></trkpt><trkpt lat="40.34036129036662" lon="8.428904293742958"><ele>119.0</ele><time>2026-04-06T15:21:32Z</time></trkpt><trkpt lat="40.340502897449824" lon="8.428867831733928"><ele>119.0</ele><time>2026-04-06T15:21:33Z</time></trkpt><trkpt lat="40.34066155428056" lon="8.428874320216167"><ele>119.0</ele><time>2026-04-06T15:21:34Z</time></trkpt><trkpt lat="40.34083003357692" lon="8.42893044255631"><ele>125.0</ele><time>2026-04-06T15:21:35Z</time></trkpt><trkpt lat="40.34101190976658" lon="8.42900409954175"><ele>131.0</ele><time>2026-04-06T15:21:36Z</time></trkpt><trkpt lat="40.34117662916034" lon="8.42905963022034"><ele>137.0</ele><time>2026-04-06T15:21:37Z</time></trkpt><trkpt lat="40.341315492614086" lon="8.429096582567515"><ele>139.0</ele><time>2026-04-06T15:21:38Z</time></trkpt><trkpt lat="40.3414526084863" lon="8.429095060337"><ele>141.0</ele><time>2026-04-06T15:21:39Z</time></trkpt><trkpt lat="40.3415756049562" lon="8.429052585632096"><ele>143.0</ele><time>2026-04-06T15:21:40Z</time></trkpt><trkpt lat="40.34170017450769" lon="8.428975305110914"><ele>145.0</ele><time>2026-04-06T15:21:41Z</time></trkpt><trkpt lat="40.34181660047357" lon="8.428888322106701"><ele>142.0</ele><time>2026-04-06T15:21:42Z</time></trkpt><trkpt lat="40.341897290167026" lon="8.428724256849499"><ele>139.0</ele><time>2026-04-06T15:21:43Z</time></trkpt><trkpt lat="40.3419643836035" lon="8.428586130417617"><ele>136.0</ele><time>2026-04-06T15:21:44Z</time></trkpt><trkpt lat="40.342045115230555" lon="8.428468994846671"><ele>133.0</ele><time>2026-04-06T15:21:45Z</time></trkpt><trkpt lat="40.342124821788836" lon="8.428352576567145"><ele>139.5</ele><time>2026-04-06T15:21:46Z</time></trkpt><trkpt lat="40.3422257073217" lon="8.428241169991395"><ele>146.0</ele><time>2026-04-06T15:21:47Z</time></trkpt><trkpt lat="40.342341312596844" lon="8.428140250622928"><ele>152.5</ele><time>2026-04-06T15:21:48Z</time></trkpt><trkpt lat="40.34246592306872" lon="8.428061651560995"><ele>159.0</ele><time>2026-04-06T15:21:49Z</time></trkpt><trkpt lat="40.34260063695765" lon="8.428008363772951"><ele>158.25</ele><time>2026-04-06T15:21:50Z</time></trkpt><trkpt lat="40.34274370299302" lon="8.427962247294811"><ele>157.5</ele><time>2026-04-06T15:21:51Z</time></trkpt><trkpt lat="40.34288223086848" lon="8.427906817092092"><ele>156.75</ele><time>2026-04-06T15:21:52Z</time></trkpt><trkpt lat="40.34300003600251" lon="8.427870520223877"><ele>156.0</ele><time>2026-04-06T15:21:53Z</time></trkpt><trkpt lat="40.343108716189" lon="8.427833449127323"><ele>156.0</ele><time>2026-04-06T15:21:54Z</time></trkpt><trkpt lat="40.34321703471953" lon="8.427793272707314"><ele>156.0</ele><time>2026-04-06T15:21:55Z</time></trkpt><trkpt lat="40.34331843460731" lon="8.427749804907297"><ele>156.0</ele><time>2026-04-06T15:21:56Z</time></trkpt><trkpt lat="40.343415676958614" lon="8.427698253744275"><ele>156.0</ele><time>2026-04-06T15:21:57Z</time></trkpt><trkpt lat="40.34351728664033" lon="8.427615996447445"><ele>156.0</ele><time>2026-04-06T15:21:58Z</time></trkpt><trkpt lat="40.34361726483761" lon="8.427497100442888"><ele>156.0</ele><time>2026-04-06T15:21:59Z</time></trkpt><trkpt lat="40.3437073191122" lon="8.42734970519865"><ele>156.0</ele><time>2026-04-06T15:22:00Z</time></trkpt><trkpt lat="40.34378266541605" lon="8.427162712569787"><ele>156.0</ele><time>2026-04-06T15:22:01Z</time></trkpt><trkpt lat="40.34384333071974" lon="8.426957811884108"><ele>162.25</ele><time>2026-04-06T15:22:02Z</time></trkpt><trkpt lat="40.343890585447454" lon="8.426775090830642"><ele>168.5</ele><time>2026-04-06T15:22:03Z</time></trkpt><trkpt lat="40.34393674954544" lon="8.426616818847744"><ele>174.75</ele><time>2026-04-06T15:22:04Z</time></trkpt><trkpt lat="40.3439747774965" lon="8.426472243816901"><ele>181.0</ele><time>2026-04-06T15:22:05Z</time></trkpt><trkpt lat="40.34399392823521" lon="8.426326418618105"><ele>184.25</ele><time>2026-04-06T15:22:06Z</time></trkpt><trkpt lat="40.343983024649525" lon="8.426170853490177"><ele>187.5</ele><time>2026-04-06T15:22:07Z</time></trkpt><trkpt lat="40.343957138727035" lon="8.426008272659313"><ele>190.75</ele><time>2026-04-06T15:22:08Z</time></trkpt><trkpt lat="40.34390722218952" lon="8.425840553749648"><ele>194.0</ele><time>2026-04-06T15:22:09Z</time></trkpt><trkpt lat="40.34384293762799" lon="8.425670971126985"><ele>187.0</ele><time>2026-04-06T15:22:10Z</time></trkpt><trkpt lat="40.34376501223077" lon="8.425504900581538"><ele>180.0</ele><time>2026-04-06T15:22:11Z</time></trkpt><trkpt lat="40.34368610633359" lon="8.425342052355536"><ele>173.0</ele><time>2026-04-06T15:22:12Z</time></trkpt><trkpt lat="40.34362632125782" lon="8.425178865359122"><ele>166.0</ele><time>2026-04-06T15:22:13Z</time></trkpt><trkpt lat="40.34358333801724" lon="8.425005143747342"><ele>166.0</ele><time>2026-04-06T15:22:14Z</time></trkpt><trkpt lat="40.343560574756665" lon="8.424836906140452"><ele>166.0</ele><time>2026-04-06T15:22:15Z</time></trkpt><trkpt lat="40.343552136022836" lon="8.424672684464529"><ele>166.0</ele><time>2026-04-06T15:22:16Z</time></trkpt><trkpt lat="40.34355164039408" lon="8.424506022411274"><ele>166.0</ele><time>2026-04-06T15:22:17Z</time></trkpt><trkpt lat="40.343558308491694" lon="8.42433792436749"><ele>166.75</ele><time>2026-04-06T15:22:18Z</time></trkpt><trkpt lat="40.34357219430186" lon="8.424163473035724"><ele>167.5</ele><time>2026-04-06T15:22:19Z</time></trkpt><trkpt lat="40.34359187475191" lon="8.423983356809737"><ele>168.25</ele><time>2026-04-06T15:22:20Z</time></trkpt><trkpt lat="40.34362158754531" lon="8.423795549924652"><ele>169.0</ele><time>2026-04-06T15:22:21Z</time></trkpt><trkpt lat="40.34367401033806" lon="8.423609758055116"><ele>169.0</ele><time>2026-04-06T15:22:22Z</time></trkpt><trkpt lat="40.34376955331562" lon="8.423468965952166"><ele>169.0</ele><time>2026-04-06T15:22:23Z</time></trkpt><trkpt lat="40.343858083067175" lon="8.423325649429646"><ele>169.0</ele><time>2026-04-06T15:22:24Z</time></trkpt><trkpt lat="40.34399902970539" lon="8.423237967112458"><ele>169.0</ele><time>2026-04-06T15:22:25Z</time></trkpt><trkpt lat="40.34413720996899" lon="8.42313705221783"><ele>171.75</ele><time>2026-04-06T15:22:26Z</time></trkpt><trkpt lat="40.34426736015645" lon="8.423033586490956"><ele>174.5</ele><time>2026-04-06T15:22:27Z</time></trkpt><trkpt lat="40.344401549240494" lon="8.422945822404097"><ele>177.25</ele><time>2026-04-06T15:22:28Z</time></trkpt><trkpt lat="40.34453382321497" lon="8.422902795008271"><ele>180.0</ele><time>2026-04-06T15:22:29Z</time></trkpt><trkpt lat="40.344664756394955" lon="8.42285648885872"><ele>183.75</ele><time>2026-04-06T15:22:30Z</time></trkpt><trkpt lat="40.344804814973536" lon="8.422826482036456"><ele>187.5</ele><time>2026-04-06T15:22:31Z</time></trkpt><trkpt lat="40.34494471305676" lon="8.42282017305975"><ele>191.25</ele><time>2026-04-06T15:22:32Z</time></trkpt><trkpt lat="40.345074185845455" lon="8.422815806106296"><ele>195.0</ele><time>2026-04-06T15:22:33Z</time></trkpt><trkpt lat="40.34518151800815" lon="8.422884396059287"><ele>195.0</ele><time>2026-04-06T15:22:34Z</time></trkpt><trkpt lat="40.345302265078615" lon="8.422938097258815"><ele>195.0</ele><time>2026-04-06T15:22:35Z</time></trkpt><trkpt lat="40.3454114171536" lon="8.423050966929836"><ele>195.0</ele><time>2026-04-06T15:22:36Z</time></trkpt><trkpt lat="40.34551541170044" lon="8.423213887423685"><ele>195.0</ele><time>2026-04-06T15:22:37Z</time></trkpt><trkpt lat="40.345641893268066" lon="8.423394285094409"><ele>194.0</ele><time>2026-04-06T15:22:38Z</time></trkpt><trkpt lat="40.34578453143421" lon="8.423599057407618"><ele>193.0</ele><time>2026-04-06T15:22:39Z</time></trkpt><trkpt lat="40.34593871499688" lon="8.423823062683377"><ele>192.0</ele><time>2026-04-06T15:22:40Z</time></trkpt><trkpt lat="40.34608038210962" lon="8.424028917204765"><ele>191.0</ele><time>2026-04-06T15:22:41Z</time></trkpt><trkpt lat="40.34621806428251" lon="8.424205752902335"><ele>190.0</ele><time>2026-04-06T15:22:42Z</time></trkpt><trkpt lat="40.34635385520085" lon="8.424398849523774"><ele>189.0</ele><time>2026-04-06T15:22:43Z</time></trkpt><trkpt lat="40.34649980135788" lon="8.42463712527609"><ele>197.0</ele><time>2026-04-06T15:22:44Z</time></trkpt><trkpt lat="40.346666356219856" lon="8.424879473208158"><ele>205.0</ele><time>2026-04-06T15:22:45Z</time></trkpt><trkpt lat="40.34684076408286" lon="8.425133559765033"><ele>205.0</ele><time>2026-04-06T15:22:46Z</time></trkpt><trkpt lat="40.34701174512528" lon="8.425382450346197"><ele>205.0</ele><time>2026-04-06T15:22:47Z</time></trkpt><trkpt lat="40.34718969652827" lon="8.425641902710893"><ele>208.5</ele><time>2026-04-06T15:22:48Z</time></trkpt><trkpt lat="40.347352244564384" lon="8.425885425623136"><ele>212.0</ele><time>2026-04-06T15:22:49Z</time></trkpt><trkpt lat="40.34748682390424" lon="8.42611111183264"><ele>216.66666666666669</ele><time>2026-04-06T15:22:50Z</time></trkpt><trkpt lat="40.34762347600249" lon="8.42633484024943"><ele>221.33333333333331</ele><time>2026-04-06T15:22:51Z</time></trkpt><trkpt lat="40.34773873306677" lon="8.426592424787525"><ele>226.0</ele><time>2026-04-06T15:22:52Z</time></trkpt><trkpt lat="40.34785571591823" lon="8.426856256180837"><ele>226.0</ele><time>2026-04-06T15:22:53Z</time></trkpt><trkpt lat="40.34797858884849" lon="8.427121359790636"><ele>226.0</ele><time>2026-04-06T15:22:54Z</time></trkpt><trkpt lat="40.348103075947485" lon="8.42740109601171"><ele>220.0</ele><time>2026-04-06T15:22:55Z</time></trkpt><trkpt lat="40.348218587465304" lon="8.427681654853584"><ele>214.0</ele><time>2026-04-06T15:22:56Z</time></trkpt><trkpt lat="40.34831427656926" lon="8.427957536890846"><ele>219.0</ele><time>2026-04-06T15:22:57Z</time></trkpt><trkpt lat="40.3483998332628" lon="8.428222993048413"><ele>224.0</ele><time>2026-04-06T15:22:58Z</time></trkpt><trkpt lat="40.34847599600714" lon="8.428463532556542"><ele>229.0</ele><time>2026-04-06T15:22:59Z</time></trkpt><trkpt lat="40.34854145005684" lon="8.4286801153176"><ele>235.66666666666666</ele><time>2026-04-06T15:23:00Z</time></trkpt><trkpt lat="40.34859756703086" lon="8.428874361524112"><ele>242.33333333333331</ele><time>2026-04-06T15:23:01Z</time></trkpt><trkpt lat="40.34865755514227" lon="8.429048314821404"><ele>249.0</ele><time>2026-04-06T15:23:02Z</time></trkpt><trkpt lat="40.348743325013636" lon="8.429208190937889"><ele>249.0</ele><time>2026-04-06T15:23:03Z</time></trkpt><trkpt lat="40.3488596693079" lon="8.429352615489128"><ele>249.0</ele><time>2026-04-06T15:23:04Z</time></trkpt><trkpt lat="40.349019702057554" lon="8.4294581340039"><ele>249.0</ele><time>2026-04-06T15:23:05Z</time></trkpt><trkpt lat="40.34918766760263" lon="8.429546287037201"><ele>250.33333333333331</ele><time>2026-04-06T15:23:06Z</time></trkpt><trkpt lat="40.34938335987972" lon="8.42958237649891"><ele>251.66666666666666</ele><time>2026-04-06T15:23:07Z</time></trkpt><trkpt lat="40.34957898286504" lon="8.429602628179522"><ele>253.0</ele><time>2026-04-06T15:23:08Z</time></trkpt><trkpt lat="40.349777622633184" lon="8.429667412766882"><ele>253.0</ele><time>2026-04-06T15:23:09Z</time></trkpt><trkpt lat="40.34998659727607" lon="8.42971237616772"><ele>253.0</ele><time>2026-04-06T15:23:10Z</time></trkpt><trkpt lat="40.35019360995293" lon="8.429755121001419"><ele>253.0</ele><time>2026-04-06T15:23:11Z</time></trkpt><trkpt lat="40.35039509132481" lon="8.429795057950964"><ele>254.66666666666666</ele><time>2026-04-06T15:23:12Z</time></trkpt><trkpt lat="40.35059566389112" lon="8.429836074521042"><ele>256.3333333333333</ele><time>2026-04-06T15:23:13Z</time></trkpt><trkpt lat="40.35078584048787" lon="8.429875844434882"><ele>258.0</ele><time>2026-04-06T15:23:14Z</time></trkpt><trkpt lat="40.350973419719644" lon="8.42991507119452"><ele>258.0</ele><time>2026-04-06T15:23:15Z</time></trkpt><trkpt lat="40.35115194243333" lon="8.429949478304424"><ele>258.0</ele><time>2026-04-06T15:23:16Z</time></trkpt><trkpt lat="40.35131433753271" lon="8.429979557995905"><ele>258.0</ele><time>2026-04-06T15:23:17Z</time></trkpt><trkpt lat="40.351476356156574" lon="8.429982226550901"><ele>260.3333333333333</ele><time>2026-04-06T15:23:18Z</time></trkpt><trkpt lat="40.35163698283752" lon="8.429976945863464"><ele>262.66666666666663</ele><time>2026-04-06T15:23:19Z</time></trkpt><trkpt lat="40.351799883552225" lon="8.429936389731287"><ele>265.0</ele><time>2026-04-06T15:23:20Z</time></trkpt><trkpt lat="40.351957282855444" lon="8.429891762865594"><ele>265.0</ele><time>2026-04-06T15:23:21Z</time></trkpt><trkpt lat="40.35209647149226" lon="8.429763115800588"><ele>265.0</ele><time>2026-04-06T15:23:22Z</time></trkpt><trkpt lat="40.352230668285415" lon="8.42962380176115"><ele>265.0</ele><time>2026-04-06T15:23:23Z</time></trkpt><trkpt lat="40.35235997774181" lon="8.42943879145489"><ele>262.3333333333333</ele><time>2026-04-06T15:23:24Z</time></trkpt><trkpt lat="40.35247722377917" lon="8.429212756199478"><ele>259.6666666666667</ele><time>2026-04-06T15:23:25Z</time></trkpt><trkpt lat="40.35261380585289" lon="8.428975866810251"><ele>257.0</ele><time>2026-04-06T15:23:26Z</time></trkpt><trkpt lat="40.352748381112235" lon="8.428730192719017"><ele>251.0</ele><time>2026-04-06T15:23:27Z</time></trkpt><trkpt lat="40.35289470479343" lon="8.428464053871402"><ele>245.0</ele><time>2026-04-06T15:23:28Z</time></trkpt><trkpt lat="40.35304759487972" lon="8.428184065084022"><ele>254.5</ele><time>2026-04-06T15:23:29Z</time></trkpt><trkpt lat="40.353205966634704" lon="8.427892605263553"><ele>264.0</ele><time>2026-04-06T15:23:30Z</time></trkpt><trkpt lat="40.353370700716006" lon="8.427591782092154"><ele>264.0</ele><time>2026-04-06T15:23:31Z</time></trkpt><trkpt lat="40.3535273841017" lon="8.42727463624792"><ele>264.0</ele><time>2026-04-06T15:23:32Z</time></trkpt><trkpt lat="40.35370113108401" lon="8.426963557037057"><ele>274.5</ele><time>2026-04-06T15:23:33Z</time></trkpt><trkpt lat="40.35387759636124" lon="8.426641430178027"><ele>285.0</ele><time>2026-04-06T15:23:34Z</time></trkpt><trkpt lat="40.354056011632665" lon="8.426318923929367"><ele>279.5</ele><time>2026-04-06T15:23:35Z</time></trkpt><trkpt lat="40.35423061284957" lon="8.425996677856809"><ele>274.0</ele><time>2026-04-06T15:23:36Z</time></trkpt><trkpt lat="40.35440653319315" lon="8.425671664567147"><ele>269.0</ele><time>2026-04-06T15:23:37Z</time></trkpt><trkpt lat="40.35456636517855" lon="8.425379415151601"><ele>264.0</ele><time>2026-04-06T15:23:38Z</time></trkpt><trkpt lat="40.35471173875967" lon="8.425111930759176"><ele>277.0</ele><time>2026-04-06T15:23:39Z</time></trkpt><trkpt lat="40.354844049522534" lon="8.424867145374026"><ele>290.0</ele><time>2026-04-06T15:23:40Z</time></trkpt><trkpt lat="40.3549754357617" lon="8.424625094047169"><ele>290.0</ele><time>2026-04-06T15:23:41Z</time></trkpt><trkpt lat="40.35510153837327" lon="8.424398441510476"><ele>290.0</ele><time>2026-04-06T15:23:42Z</time></trkpt><trkpt lat="40.35521701332028" lon="8.424190999098867"><ele>290.0</ele><time>2026-04-06T15:23:43Z</time></trkpt><trkpt lat="40.355328367074755" lon="8.423986744866404"><ele>287.33333333333337</ele><time>2026-04-06T15:23:44Z</time></trkpt><trkpt lat="40.35544044656295" lon="8.423776622524153"><ele>284.6666666666667</ele><time>2026-04-06T15:23:45Z</time></trkpt><trkpt lat="40.355547719811064" lon="8.423571357580295"><ele>282.0</ele><time>2026-04-06T15:23:46Z</time></trkpt><trkpt lat="40.35564901610634" lon="8.423382643498755"><ele>286.3333333333333</ele><time>2026-04-06T15:23:47Z</time></trkpt><trkpt lat="40.35575157795745" lon="8.42320151580004"><ele>290.66666666666663</ele><time>2026-04-06T15:23:48Z</time></trkpt><trkpt lat="40.355854120997854" lon="8.423020379025122"><ele>295.0</ele><time>2026-04-06T15:23:49Z</time></trkpt><trkpt lat="40.355953035500846" lon="8.42284126817256"><ele>295.0</ele><time>2026-04-06T15:23:50Z</time></trkpt><trkpt lat="40.35605447112307" lon="8.422652612695678"><ele>295.0</ele><time>2026-04-06T15:23:51Z</time></trkpt><trkpt lat="40.356159530695265" lon="8.422455802578497"><ele>295.0</ele><time>2026-04-06T15:23:52Z</time></trkpt><trkpt lat="40.356278922833354" lon="8.422242796325754"><ele>294.3333333333333</ele><time>2026-04-06T15:23:53Z</time></trkpt><trkpt lat="40.35640122898312" lon="8.422037236037784"><ele>293.6666666666667</ele><time>2026-04-06T15:23:54Z</time></trkpt><trkpt lat="40.356519963546" lon="8.421847800888186"><ele>293.0</ele><time>2026-04-06T15:23:55Z</time></trkpt><trkpt lat="40.35664294258547" lon="8.421680462545236"><ele>293.0</ele><time>2026-04-06T15:23:56Z</time></trkpt><trkpt lat="40.35677855019041" lon="8.421527598423406"><ele>293.0</ele><time>2026-04-06T15:23:57Z</time></trkpt><trkpt lat="40.35692779057435" lon="8.421396659492867"><ele>293.0</ele><time>2026-04-06T15:23:58Z</time></trkpt><trkpt lat="40.35708663824763" lon="8.421294076869804"><ele>284.33333333333337</ele><time>2026-04-06T15:23:59Z</time></trkpt><trkpt lat="40.35725044391382" lon="8.421230297434407"><ele>275.6666666666667</ele><time>2026-04-06T15:24:00Z</time></trkpt><trkpt lat="40.35740081904851" lon="8.421200712298143"><ele>267.0</ele><time>2026-04-06T15:24:01Z</time></trkpt><trkpt lat="40.35754371836149" lon="8.421203600313614"><ele>267.0</ele><time>2026-04-06T15:24:02Z</time></trkpt><trkpt lat="40.35768667785382" lon="8.421221251183574"><ele>267.0</ele><time>2026-04-06T15:24:03Z</time></trkpt><trkpt lat="40.357836753060475" lon="8.421221229708472"><ele>267.0</ele><time>2026-04-06T15:24:04Z</time></trkpt><trkpt lat="40.35798964188611" lon="8.421188031491608"><ele>267.0</ele><time>2026-04-06T15:24:05Z</time></trkpt><trkpt lat="40.358138066027244" lon="8.421111637002364"><ele>270.0</ele><time>2026-04-06T15:24:06Z</time></trkpt><trkpt lat="40.35828514130292" lon="8.421001954860122"><ele>273.0</ele><time>2026-04-06T15:24:07Z</time></trkpt><trkpt lat="40.35842129574192" lon="8.420859266314174"><ele>276.0</ele><time>2026-04-06T15:24:08Z</time></trkpt><trkpt lat="40.358548770938675" lon="8.420673798227552"><ele>273.0</ele><time>2026-04-06T15:24:09Z</time></trkpt><trkpt lat="40.35866185603928" lon="8.420447897218471"><ele>270.0</ele><time>2026-04-06T15:24:10Z</time></trkpt><trkpt lat="40.35877009821244" lon="8.420197064904558"><ele>267.0</ele><time>2026-04-06T15:24:11Z</time></trkpt><trkpt lat="40.3588854666212" lon="8.419941686109626"><ele>274.5</ele><time>2026-04-06T15:24:12Z</time></trkpt><trkpt lat="40.35900838617677" lon="8.419687746571114"><ele>282.0</ele><time>2026-04-06T15:24:13Z</time></trkpt><trkpt lat="40.35913048451833" lon="8.419439643363024"><ele>282.0</ele><time>2026-04-06T15:24:14Z</time></trkpt><trkpt lat="40.359248789949405" lon="8.419166929992983"><ele>282.0</ele><time>2026-04-06T15:24:15Z</time></trkpt><trkpt lat="40.359378994888466" lon="8.418873186794979"><ele>278.5</ele><time>2026-04-06T15:24:16Z</time></trkpt><trkpt lat="40.359531472138535" lon="8.418577415707585"><ele>275.0</ele><time>2026-04-06T15:24:17Z</time></trkpt><trkpt lat="40.35969197586706" lon="8.418284135464168"><ele>282.5</ele><time>2026-04-06T15:24:18Z</time></trkpt><trkpt lat="40.359847093226875" lon="8.417982559593904"><ele>290.0</ele><time>2026-04-06T15:24:19Z</time></trkpt><trkpt lat="40.35999297789015" lon="8.417682991370626"><ele>290.0</ele><time>2026-04-06T15:24:20Z</time></trkpt><trkpt lat="40.36013814852312" lon="8.417378949264249"><ele>290.0</ele><time>2026-04-06T15:24:21Z</time></trkpt><trkpt lat="40.36028967544849" lon="8.41707587395019"><ele>286.0</ele><time>2026-04-06T15:24:22Z</time></trkpt><trkpt lat="40.360446721027635" lon="8.416782273357144"><ele>282.0</ele><time>2026-04-06T15:24:23Z</time></trkpt><trkpt lat="40.36060729474549" lon="8.416518200200798"><ele>284.0</ele><time>2026-04-06T15:24:24Z</time></trkpt><trkpt lat="40.36078715759313" lon="8.416256718703984"><ele>286.0</ele><time>2026-04-06T15:24:25Z</time></trkpt><trkpt lat="40.36098078131188" lon="8.415996283721741"><ele>286.0</ele><time>2026-04-06T15:24:26Z</time></trkpt><trkpt lat="40.361180715163314" lon="8.41572435920803"><ele>286.0</ele><time>2026-04-06T15:24:27Z</time></trkpt><trkpt lat="40.36137750545416" lon="8.415445312829027"><ele>290.0</ele><time>2026-04-06T15:24:28Z</time></trkpt><trkpt lat="40.361579885714974" lon="8.415160838383345"><ele>294.0</ele><time>2026-04-06T15:24:29Z</time></trkpt><trkpt lat="40.36178918279455" lon="8.414871422650547"><ele>293.0</ele><time>2026-04-06T15:24:30Z</time></trkpt><trkpt lat="40.36199798020925" lon="8.414585928735997"><ele>292.0</ele><time>2026-04-06T15:24:31Z</time></trkpt><trkpt lat="40.36220716737134" lon="8.414283750327918"><ele>295.5</ele><time>2026-04-06T15:24:32Z</time></trkpt><trkpt lat="40.36241827428303" lon="8.413977069369647"><ele>299.0</ele><time>2026-04-06T15:24:33Z</time></trkpt><trkpt lat="40.362632628381036" lon="8.413682103756644"><ele>299.0</ele><time>2026-04-06T15:24:34Z</time></trkpt><trkpt lat="40.36285773536166" lon="8.413394588288192"><ele>299.0</ele><time>2026-04-06T15:24:35Z</time></trkpt><trkpt lat="40.363080825705204" lon="8.413105537778327"><ele>302.5</ele><time>2026-04-06T15:24:36Z</time></trkpt><trkpt lat="40.36329651488267" lon="8.41280797485366"><ele>306.0</ele><time>2026-04-06T15:24:37Z</time></trkpt><trkpt lat="40.363512117301035" lon="8.412503087339646"><ele>306.0</ele><time>2026-04-06T15:24:38Z</time></trkpt><trkpt lat="40.363727207108575" lon="8.412202031081602"><ele>306.0</ele><time>2026-04-06T15:24:39Z</time></trkpt><trkpt lat="40.363940997506774" lon="8.411903456824632"><ele>307.0</ele><time>2026-04-06T15:24:40Z</time></trkpt><trkpt lat="40.36415427751468" lon="8.411604338585285"><ele>308.0</ele><time>2026-04-06T15:24:41Z</time></trkpt><trkpt lat="40.36435383816584" lon="8.411323308521578"><ele>308.0</ele><time>2026-04-06T15:24:42Z</time></trkpt><trkpt lat="40.364532400056525" lon="8.411077396770496"><ele>308.0</ele><time>2026-04-06T15:24:43Z</time></trkpt><trkpt lat="40.364687492102014" lon="8.410861520695727"><ele>311.6666666666667</ele><time>2026-04-06T15:24:44Z</time></trkpt><trkpt lat="40.36482611181883" lon="8.410685639684054"><ele>315.3333333333333</ele><time>2026-04-06T15:24:45Z</time></trkpt><trkpt lat="40.364967489940085" lon="8.410550375392202"><ele>319.0</ele><time>2026-04-06T15:24:46Z</time></trkpt><trkpt lat="40.36512584930323" lon="8.410450258051458"><ele>319.0</ele><time>2026-04-06T15:24:47Z</time></trkpt><trkpt lat="40.36531052729522" lon="8.41039058860489"><ele>319.0</ele><time>2026-04-06T15:24:48Z</time></trkpt><trkpt lat="40.36549117639425" lon="8.410279759647056"><ele>319.0</ele><time>2026-04-06T15:24:49Z</time></trkpt><trkpt lat="40.365678020837144" lon="8.410181300798785"><ele>323.66666666666663</ele><time>2026-04-06T15:24:50Z</time></trkpt><trkpt lat="40.36585047630013" lon="8.410080940359219"><ele>328.3333333333333</ele><time>2026-04-06T15:24:51Z</time></trkpt><trkpt lat="40.36601062106334" lon="8.409970347983188"><ele>333.0</ele><time>2026-04-06T15:24:52Z</time></trkpt><trkpt lat="40.36614209619791" lon="8.409841743172713"><ele>333.0</ele><time>2026-04-06T15:24:53Z</time></trkpt><trkpt lat="40.36624958957345" lon="8.409695670266652"><ele>333.0</ele><time>2026-04-06T15:24:54Z</time></trkpt><trkpt lat="40.36632476651062" lon="8.409526420138771"><ele>333.0</ele><time>2026-04-06T15:24:55Z</time></trkpt><trkpt lat="40.36637758290553" lon="8.409331337628522"><ele>334.6666666666667</ele><time>2026-04-06T15:24:56Z</time></trkpt><trkpt lat="40.36640369150141" lon="8.409101725085295"><ele>336.33333333333337</ele><time>2026-04-06T15:24:57Z</time></trkpt><trkpt lat="40.3664033128703" lon="8.40884823807242"><ele>338.0</ele><time>2026-04-06T15:24:58Z</time></trkpt><trkpt lat="40.366380863248864" lon="8.408587778642412"><ele>341.6666666666667</ele><time>2026-04-06T15:24:59Z</time></trkpt><trkpt lat="40.366350857624994" lon="8.40831370186502"><ele>345.3333333333333</ele><time>2026-04-06T15:25:00Z</time></trkpt><trkpt lat="40.36634462272392" lon="8.40806639107283"><ele>349.0</ele><time>2026-04-06T15:25:01Z</time></trkpt><trkpt lat="40.366382914346346" lon="8.407860332649573"><ele>349.0</ele><time>2026-04-06T15:25:02Z</time></trkpt><trkpt lat="40.366419595482235" lon="8.407662990221365"><ele>349.0</ele><time>2026-04-06T15:25:03Z</time></trkpt><trkpt lat="40.36653312780882" lon="8.407482003191006"><ele>349.0</ele><time>2026-04-06T15:25:04Z</time></trkpt><trkpt lat="40.366651237501806" lon="8.407291113417369"><ele>345.66666666666663</ele><time>2026-04-06T15:25:05Z</time></trkpt><trkpt lat="40.366767564911555" lon="8.40707393030876"><ele>342.3333333333333</ele><time>2026-04-06T15:25:06Z</time></trkpt><trkpt lat="40.36690123526654" lon="8.406863119987984"><ele>339.0</ele><time>2026-04-06T15:25:07Z</time></trkpt><trkpt lat="40.36704177584194" lon="8.406640707299841"><ele>339.0</ele><time>2026-04-06T15:25:08Z</time></trkpt><trkpt lat="40.36716943882687" lon="8.406439046981877"><ele>339.0</ele><time>2026-04-06T15:25:09Z</time></trkpt><trkpt lat="40.36728074041703" lon="8.406257956779411"><ele>339.0</ele><time>2026-04-06T15:25:10Z</time></trkpt><trkpt lat="40.36736283061165" lon="8.406094120191542"><ele>344.0</ele><time>2026-04-06T15:25:11Z</time></trkpt><trkpt lat="40.3674056275191" lon="8.405926774196509"><ele>349.0</ele><time>2026-04-06T15:25:12Z</time></trkpt><trkpt lat="40.36740339924311" lon="8.405757331829934"><ele>354.0</ele><time>2026-04-06T15:25:13Z</time></trkpt><trkpt lat="40.36736872123945" lon="8.405585956171729"><ele>359.0</ele><time>2026-04-06T15:25:14Z</time></trkpt><trkpt lat="40.36731158422726" lon="8.40543008909987"><ele>359.0</ele><time>2026-04-06T15:25:15Z</time></trkpt><trkpt lat="40.36723349083681" lon="8.405299839894056"><ele>359.0</ele><time>2026-04-06T15:25:16Z</time></trkpt><trkpt lat="40.367136891841334" lon="8.405187303757014"><ele>359.0</ele><time>2026-04-06T15:25:17Z</time></trkpt><trkpt lat="40.367022471384715" lon="8.40509143918044"><ele>359.0</ele><time>2026-04-06T15:25:18Z</time></trkpt><trkpt lat="40.366893948707016" lon="8.405012336661532"><ele>359.0</ele><time>2026-04-06T15:25:19Z</time></trkpt><trkpt lat="40.366778957359195" lon="8.40495540325523"><ele>359.0</ele><time>2026-04-06T15:25:20Z</time></trkpt><trkpt lat="40.36667069681466" lon="8.40488430456728"><ele>359.0</ele><time>2026-04-06T15:25:21Z</time></trkpt><trkpt lat="40.3665689382379" lon="8.404783317343519"><ele>359.0</ele><time>2026-04-06T15:25:22Z</time></trkpt><trkpt lat="40.366471205355694" lon="8.404653656797285"><ele>360.33333333333337</ele><time>2026-04-06T15:25:23Z</time></trkpt><trkpt lat="40.36637515263234" lon="8.404509515120212"><ele>361.6666666666667</ele><time>2026-04-06T15:25:24Z</time></trkpt><trkpt lat="40.36627054861793" lon="8.404360901229946"><ele>363.0</ele><time>2026-04-06T15:25:25Z</time></trkpt><trkpt lat="40.36615713238897" lon="8.40421890206389"><ele>363.0</ele><time>2026-04-06T15:25:26Z</time></trkpt><trkpt lat="40.366033097332924" lon="8.404079097149529"><ele>363.0</ele><time>2026-04-06T15:25:27Z</time></trkpt><trkpt lat="40.365899975797966" lon="8.403954892446032"><ele>363.0</ele><time>2026-04-06T15:25:28Z</time></trkpt><trkpt lat="40.36575539229455" lon="8.40385070264085"><ele>364.6666666666667</ele><time>2026-04-06T15:25:29Z</time></trkpt><trkpt lat="40.36560462468809" lon="8.403764382137657"><ele>366.33333333333337</ele><time>2026-04-06T15:25:30Z</time></trkpt><trkpt lat="40.36544810931538" lon="8.403690614110147"><ele>368.0</ele><time>2026-04-06T15:25:31Z</time></trkpt><trkpt lat="40.3653016080797" lon="8.403623472183687"><ele>368.0</ele><time>2026-04-06T15:25:32Z</time></trkpt><trkpt lat="40.36515472586778" lon="8.403550185531687"><ele>368.0</ele><time>2026-04-06T15:25:33Z</time></trkpt><trkpt lat="40.36500657347545" lon="8.403452705538632"><ele>368.0</ele><time>2026-04-06T15:25:34Z</time></trkpt><trkpt lat="40.36486132957859" lon="8.403340416426433"><ele>368.0</ele><time>2026-04-06T15:25:35Z</time></trkpt><trkpt lat="40.364742149459985" lon="8.403216271308002"><ele>368.0</ele><time>2026-04-06T15:25:36Z</time></trkpt><trkpt lat="40.36467380924536" lon="8.40308569971864"><ele>368.0</ele><time>2026-04-06T15:25:37Z</time></trkpt><trkpt lat="40.364663908773515" lon="8.402937672472904"><ele>368.0</ele><time>2026-04-06T15:25:38Z</time></trkpt><trkpt lat="40.36466258912519" lon="8.402779487119714"><ele>368.5</ele><time>2026-04-06T15:25:39Z</time></trkpt><trkpt lat="40.36466810942402" lon="8.402598270084818"><ele>369.0</ele><time>2026-04-06T15:25:40Z</time></trkpt><trkpt lat="40.36471691566576" lon="8.402431593216885"><ele>369.5</ele><time>2026-04-06T15:25:41Z</time></trkpt><trkpt lat="40.364779245276964" lon="8.402287445200477"><ele>370.0</ele><time>2026-04-06T15:25:42Z</time></trkpt><trkpt lat="40.364858488965304" lon="8.40217132093205"><ele>363.75</ele><time>2026-04-06T15:25:43Z</time></trkpt><trkpt lat="40.364971155776246" lon="8.402098444037735"><ele>357.5</ele><time>2026-04-06T15:25:44Z</time></trkpt><trkpt lat="40.36508662218714" lon="8.402035996200262"><ele>351.25</ele><time>2026-04-06T15:25:45Z</time></trkpt><trkpt lat="40.365238365468336" lon="8.401999242572417"><ele>345.0</ele><time>2026-04-06T15:25:46Z</time></trkpt><trkpt lat="40.36542257768791" lon="8.401981864627746"><ele>348.3333333333333</ele><time>2026-04-06T15:25:47Z</time></trkpt><trkpt lat="40.36563466233367" lon="8.401970007638901"><ele>351.66666666666663</ele><time>2026-04-06T15:25:48Z</time></trkpt><trkpt lat="40.36583689411733" lon="8.40192850523082"><ele>355.0</ele><time>2026-04-06T15:25:49Z</time></trkpt><trkpt lat="40.36599538796263" lon="8.401825885678395"><ele>355.0</ele><time>2026-04-06T15:25:50Z</time></trkpt><trkpt lat="40.36611728605074" lon="8.40169479800179"><ele>355.0</ele><time>2026-04-06T15:25:51Z</time></trkpt><trkpt lat="40.3662208530067" lon="8.401541579592218"><ele>355.0</ele><time>2026-04-06T15:25:52Z</time></trkpt><trkpt lat="40.36631803957652" lon="8.401388575020821"><ele>352.0</ele><time>2026-04-06T15:25:53Z</time></trkpt><trkpt lat="40.366447971228965" lon="8.401310918163382"><ele>349.0</ele><time>2026-04-06T15:25:54Z</time></trkpt><trkpt lat="40.366599127820244" lon="8.401260499912436"><ele>346.0</ele><time>2026-04-06T15:25:55Z</time></trkpt><trkpt lat="40.366757105019566" lon="8.401259598407218"><ele>346.0</ele><time>2026-04-06T15:25:56Z</time></trkpt><trkpt lat="40.36691188684664" lon="8.40130810139802"><ele>346.0</ele><time>2026-04-06T15:25:57Z</time></trkpt><trkpt lat="40.367092551558216" lon="8.401398141594582"><ele>346.0</ele><time>2026-04-06T15:25:58Z</time></trkpt><trkpt lat="40.36728909079732" lon="8.401499489093329"><ele>353.0</ele><time>2026-04-06T15:25:59Z</time></trkpt><trkpt lat="40.36748856456624" lon="8.401575502478064"><ele>360.0</ele><time>2026-04-06T15:26:00Z</time></trkpt><trkpt lat="40.36769095472159" lon="8.401648297692871"><ele>367.0</ele><time>2026-04-06T15:26:01Z</time></trkpt><trkpt lat="40.36790168816368" lon="8.401674561914362"><ele>366.0</ele><time>2026-04-06T15:26:02Z</time></trkpt><trkpt lat="40.36813689647826" lon="8.401679243542679"><ele>365.0</ele><time>2026-04-06T15:26:03Z</time></trkpt><trkpt lat="40.36837807541742" lon="8.401667017594734"><ele>365.0</ele><time>2026-04-06T15:26:04Z</time></trkpt><trkpt lat="40.36863603696281" lon="8.401650529323213"><ele>365.0</ele><time>2026-04-06T15:26:05Z</time></trkpt><trkpt lat="40.36889579038826" lon="8.401639631280148"><ele>365.0</ele><time>2026-04-06T15:26:06Z</time></trkpt><trkpt lat="40.369141085712" lon="8.401669649208987"><ele>365.0</ele><time>2026-04-06T15:26:07Z</time></trkpt><trkpt lat="40.36939125996487" lon="8.401672133858872"><ele>365.0</ele><time>2026-04-06T15:26:08Z</time></trkpt><trkpt lat="40.369650629857645" lon="8.401708671763286"><ele>365.0</ele><time>2026-04-06T15:26:09Z</time></trkpt><trkpt lat="40.36990994740795" lon="8.401743409272875"><ele>362.0</ele><time>2026-04-06T15:26:10Z</time></trkpt><trkpt lat="40.37017445964471" lon="8.401773933368984"><ele>359.0</ele><time>2026-04-06T15:26:11Z</time></trkpt><trkpt lat="40.370439987109" lon="8.401801119427116"><ele>359.0</ele><time>2026-04-06T15:26:12Z</time></trkpt><trkpt lat="40.37070320573328" lon="8.401828437457855"><ele>359.0</ele><time>2026-04-06T15:26:13Z</time></trkpt><trkpt lat="40.37096731447603" lon="8.401881497828054"><ele>359.0</ele><time>2026-04-06T15:26:14Z</time></trkpt><trkpt lat="40.371232313105025" lon="8.401912489285866"><ele>359.0</ele><time>2026-04-06T15:26:15Z</time></trkpt><trkpt lat="40.3714944633676" lon="8.401941196692567"><ele>357.0</ele><time>2026-04-06T15:26:16Z</time></trkpt><trkpt lat="40.37175347024858" lon="8.401971907641046"><ele>355.0</ele><time>2026-04-06T15:26:17Z</time></trkpt><trkpt lat="40.371996862826386" lon="8.402000321118898"><ele>357.3333333333333</ele><time>2026-04-06T15:26:18Z</time></trkpt><trkpt lat="40.37221528204314" lon="8.402004227871535"><ele>359.6666666666667</ele><time>2026-04-06T15:26:19Z</time></trkpt><trkpt lat="40.372397587647924" lon="8.402035075230913"><ele>362.0</ele><time>2026-04-06T15:26:20Z</time></trkpt><trkpt lat="40.37253198656992" lon="8.4021064417529"><ele>365.0</ele><time>2026-04-06T15:26:21Z</time></trkpt><trkpt lat="40.37264120391432" lon="8.402187389515813"><ele>368.0</ele><time>2026-04-06T15:26:22Z</time></trkpt><trkpt lat="40.37275688975181" lon="8.402286976249522"><ele>371.0</ele><time>2026-04-06T15:26:23Z</time></trkpt><trkpt lat="40.37283581903745" lon="8.402464687691433"><ele>374.0</ele><time>2026-04-06T15:26:24Z</time></trkpt><trkpt lat="40.37289393428586" lon="8.402667919120251"><ele>374.0</ele><time>2026-04-06T15:26:25Z</time></trkpt><trkpt lat="40.37292911899501" lon="8.40289633398497"><ele>374.0</ele><time>2026-04-06T15:26:26Z</time></trkpt><trkpt lat="40.37295923179967" lon="8.40315550963848"><ele>374.0</ele><time>2026-04-06T15:26:27Z</time></trkpt><trkpt lat="40.372980895003366" lon="8.40341991724989"><ele>377.0</ele><time>2026-04-06T15:26:28Z</time></trkpt><trkpt lat="40.372958638373426" lon="8.403653130221366"><ele>380.0</ele><time>2026-04-06T15:26:29Z</time></trkpt><trkpt lat="40.37295041504476" lon="8.403882608966223"><ele>383.0</ele><time>2026-04-06T15:26:30Z</time></trkpt><trkpt lat="40.37291973126172" lon="8.404090150792609"><ele>383.25</ele><time>2026-04-06T15:26:31Z</time></trkpt><trkpt lat="40.37291397826304" lon="8.404288434532452"><ele>383.5</ele><time>2026-04-06T15:26:32Z</time></trkpt><trkpt lat="40.37293636502311" lon="8.404482917424962"><ele>383.75</ele><time>2026-04-06T15:26:33Z</time></trkpt><trkpt lat="40.372997301709724" lon="8.404656314197034"><ele>384.0</ele><time>2026-04-06T15:26:34Z</time></trkpt><trkpt lat="40.373084871743345" lon="8.404813741775257"><ele>378.3333333333333</ele><time>2026-04-06T15:26:35Z</time></trkpt><trkpt lat="40.37320299232855" lon="8.404954528366668"><ele>372.66666666666663</ele><time>2026-04-06T15:26:36Z</time></trkpt><trkpt lat="40.37333627497244" lon="8.405059144534869"><ele>367.0</ele><time>2026-04-06T15:26:37Z</time></trkpt><trkpt lat="40.37348699405479" lon="8.405118706562357"><ele>367.0</ele><time>2026-04-06T15:26:38Z</time></trkpt><trkpt lat="40.373659360878364" lon="8.405146547180404"><ele>367.0</ele><time>2026-04-06T15:26:39Z</time></trkpt><trkpt lat="40.37385247352662" lon="8.40517529905959"><ele>367.0</ele><time>2026-04-06T15:26:40Z</time></trkpt><trkpt lat="40.37406314479616" lon="8.405220368932898"><ele>363.0</ele><time>2026-04-06T15:26:41Z</time></trkpt><trkpt lat="40.37427118115864" lon="8.40526739285452"><ele>359.0</ele><time>2026-04-06T15:26:42Z</time></trkpt><trkpt lat="40.37445446163348" lon="8.405330975596462"><ele>355.0</ele><time>2026-04-06T15:26:43Z</time></trkpt><trkpt lat="40.374621403424044" lon="8.405347504589791"><ele>354.0</ele><time>2026-04-06T15:26:44Z</time></trkpt><trkpt lat="40.37477563276787" lon="8.405355392271582"><ele>353.0</ele><time>2026-04-06T15:26:45Z</time></trkpt><trkpt lat="40.37491518263566" lon="8.405310739452064"><ele>352.0</ele><time>2026-04-06T15:26:46Z</time></trkpt><trkpt lat="40.375040703918216" lon="8.405221109503481"><ele>351.0</ele><time>2026-04-06T15:26:47Z</time></trkpt><trkpt lat="40.375147353017894" lon="8.405102588413714"><ele>351.0</ele><time>2026-04-06T15:26:48Z</time></trkpt><trkpt lat="40.37524061152733" lon="8.40493554530315"><ele>351.0</ele><time>2026-04-06T15:26:49Z</time></trkpt><trkpt lat="40.37532109863322" lon="8.404746401566374"><ele>351.0</ele><time>2026-04-06T15:26:50Z</time></trkpt><trkpt lat="40.37538609317348" lon="8.404559313652083"><ele>350.5</ele><time>2026-04-06T15:26:51Z</time></trkpt><trkpt lat="40.37546570458908" lon="8.404395814264523"><ele>350.0</ele><time>2026-04-06T15:26:52Z</time></trkpt><trkpt lat="40.375571418326665" lon="8.40426934516299"><ele>349.5</ele><time>2026-04-06T15:26:53Z</time></trkpt><trkpt lat="40.37570446397638" lon="8.404166338695525"><ele>349.0</ele><time>2026-04-06T15:26:54Z</time></trkpt><trkpt lat="40.375862939070764" lon="8.404123054083088"><ele>349.0</ele><time>2026-04-06T15:26:55Z</time></trkpt><trkpt lat="40.37602306602451" lon="8.40411104703392"><ele>349.0</ele><time>2026-04-06T15:26:56Z</time></trkpt><trkpt lat="40.37620773067729" lon="8.40411303388675"><ele>349.0</ele><time>2026-04-06T15:26:57Z</time></trkpt><trkpt lat="40.376420038908265" lon="8.404096668635983"><ele>348.3333333333333</ele><time>2026-04-06T15:26:58Z</time></trkpt><trkpt lat="40.37662868804641" lon="8.404106734842172"><ele>347.6666666666667</ele><time>2026-04-06T15:26:59Z</time></trkpt><trkpt lat="40.37683807672411" lon="8.404110202438767"><ele>347.0</ele><time>2026-04-06T15:27:00Z</time></trkpt><trkpt lat="40.37703658878042" lon="8.40411542806"><ele>346.0</ele><time>2026-04-06T15:27:01Z</time></trkpt><trkpt lat="40.377218826110294" lon="8.404130384534719"><ele>345.0</ele><time>2026-04-06T15:27:02Z</time></trkpt><trkpt lat="40.3773784293124" lon="8.40417047777208"><ele>344.0</ele><time>2026-04-06T15:27:03Z</time></trkpt><trkpt lat="40.37750943664338" lon="8.404265317717133"><ele>344.0</ele><time>2026-04-06T15:27:04Z</time></trkpt><trkpt lat="40.37762730142271" lon="8.404378172600557"><ele>344.0</ele><time>2026-04-06T15:27:05Z</time></trkpt><trkpt lat="40.37772298741782" lon="8.404520853468426"><ele>344.0</ele><time>2026-04-06T15:27:06Z</time></trkpt><trkpt lat="40.377797456406384" lon="8.404691494273605"><ele>344.0</ele><time>2026-04-06T15:27:07Z</time></trkpt><trkpt lat="40.37785588723002" lon="8.404908044667302"><ele>345.33333333333337</ele><time>2026-04-06T15:27:08Z</time></trkpt><trkpt lat="40.37791024827486" lon="8.405161473942304"><ele>346.6666666666667</ele><time>2026-04-06T15:27:09Z</time></trkpt><trkpt lat="40.37797322583702" lon="8.405399365812253"><ele>348.0</ele><time>2026-04-06T15:27:10Z</time></trkpt><trkpt lat="40.378036292731004" lon="8.405614441080335"><ele>338.6666666666667</ele><time>2026-04-06T15:27:11Z</time></trkpt><trkpt lat="40.37811469770683" lon="8.40580827505174"><ele>329.33333333333337</ele><time>2026-04-06T15:27:12Z</time></trkpt><trkpt lat="40.37820373640152" lon="8.405973883666114"><ele>320.0</ele><time>2026-04-06T15:27:13Z</time></trkpt><trkpt lat="40.37830636764149" lon="8.406101197485462"><ele>320.0</ele><time>2026-04-06T15:27:14Z</time></trkpt><trkpt lat="40.378427373195954" lon="8.406203580701039"><ele>320.0</ele><time>2026-04-06T15:27:15Z</time></trkpt><trkpt lat="40.3785684835887" lon="8.40627728483378"><ele>320.0</ele><time>2026-04-06T15:27:16Z</time></trkpt><trkpt lat="40.37872036739874" lon="8.406316541098075"><ele>318.6666666666667</ele><time>2026-04-06T15:27:17Z</time></trkpt><trkpt lat="40.37888313137069" lon="8.406328865059871"><ele>317.3333333333333</ele><time>2026-04-06T15:27:18Z</time></trkpt><trkpt lat="40.37903410864394" lon="8.40635601231464"><ele>316.0</ele><time>2026-04-06T15:27:19Z</time></trkpt><trkpt lat="40.37915892476269" lon="8.406451181631926"><ele>316.0</ele><time>2026-04-06T15:27:20Z</time></trkpt><trkpt lat="40.37926828215662" lon="8.406566336928757"><ele>316.0</ele><time>2026-04-06T15:27:21Z</time></trkpt><trkpt lat="40.379359144304374" lon="8.406700128155137"><ele>316.0</ele><time>2026-04-06T15:27:22Z</time></trkpt><trkpt lat="40.37944922717702" lon="8.406819740263222"><ele>316.0</ele><time>2026-04-06T15:27:23Z</time></trkpt><trkpt lat="40.37952504262215" lon="8.406949210963885"><ele>316.0</ele><time>2026-04-06T15:27:24Z</time></trkpt><trkpt lat="40.37961022133754" lon="8.407066780269293"><ele>316.0</ele><time>2026-04-06T15:27:25Z</time></trkpt><trkpt lat="40.37969189278484" lon="8.407177035841"><ele>316.0</ele><time>2026-04-06T15:27:26Z</time></trkpt><trkpt lat="40.379769483084274" lon="8.40728953032793"><ele>316.0</ele><time>2026-04-06T15:27:27Z</time></trkpt><trkpt lat="40.37984428509727" lon="8.407392825275336"><ele>314.2</ele><time>2026-04-06T15:27:28Z</time></trkpt><trkpt lat="40.37991892654135" lon="8.40747185299504"><ele>312.40000000000003</ele><time>2026-04-06T15:27:29Z</time></trkpt><trkpt lat="40.38000100477278" lon="8.407529496743537"><ele>310.6</ele><time>2026-04-06T15:27:30Z</time></trkpt><trkpt lat="40.38009078354957" lon="8.407567218172623"><ele>308.8</ele><time>2026-04-06T15:27:31Z</time></trkpt><trkpt lat="40.38018893322166" lon="8.407580449453157"><ele>307.0</ele><time>2026-04-06T15:27:32Z</time></trkpt><trkpt lat="40.3803075440174" lon="8.407574119050102"><ele>307.0</ele><time>2026-04-06T15:27:33Z</time></trkpt><trkpt lat="40.38042690679782" lon="8.407550033596069"><ele>307.0</ele><time>2026-04-06T15:27:34Z</time></trkpt><trkpt lat="40.38054127768853" lon="8.407491085472548"><ele>307.0</ele><time>2026-04-06T15:27:35Z</time></trkpt><trkpt lat="40.380651571992146" lon="8.407406206105243"><ele>307.0</ele><time>2026-04-06T15:27:36Z</time></trkpt><trkpt lat="40.38074738081347" lon="8.407277540024252"><ele>301.0</ele><time>2026-04-06T15:27:37Z</time></trkpt><trkpt lat="40.38082532521262" lon="8.407106708250454"><ele>295.0</ele><time>2026-04-06T15:27:38Z</time></trkpt><trkpt lat="40.38089784203397" lon="8.406894543712434"><ele>289.0</ele><time>2026-04-06T15:27:39Z</time></trkpt><trkpt lat="40.380993635661916" lon="8.406660424429214"><ele>289.0</ele><time>2026-04-06T15:27:40Z</time></trkpt><trkpt lat="40.381085844325185" lon="8.406408393556148"><ele>289.0</ele><time>2026-04-06T15:27:41Z</time></trkpt><trkpt lat="40.38118997099291" lon="8.40613789403987"><ele>289.0</ele><time>2026-04-06T15:27:42Z</time></trkpt><trkpt lat="40.38130886834788" lon="8.405848776843857"><ele>285.0</ele><time>2026-04-06T15:27:43Z</time></trkpt><trkpt lat="40.381449529615125" lon="8.40554481709623"><ele>281.0</ele><time>2026-04-06T15:27:44Z</time></trkpt><trkpt lat="40.38160333109704" lon="8.405226275897649"><ele>281.0</ele><time>2026-04-06T15:27:45Z</time></trkpt><trkpt lat="40.38174666537083" lon="8.404893588658913"><ele>281.0</ele><time>2026-04-06T15:27:46Z</time></trkpt><trkpt lat="40.38189742620673" lon="8.404608397887081"><ele>280.6666666666667</ele><time>2026-04-06T15:27:47Z</time></trkpt><trkpt lat="40.38201436681242" lon="8.404372018195252"><ele>280.3333333333333</ele><time>2026-04-06T15:27:48Z</time></trkpt><trkpt lat="40.38211424601299" lon="8.404169924147405"><ele>280.0</ele><time>2026-04-06T15:27:49Z</time></trkpt><trkpt lat="40.38221244238372" lon="8.403986784309811"><ele>280.0</ele><time>2026-04-06T15:27:50Z</time></trkpt><trkpt lat="40.38230785405683" lon="8.403837099687456"><ele>280.0</ele><time>2026-04-06T15:27:51Z</time></trkpt><trkpt lat="40.382424002329834" lon="8.40374364329052"><ele>280.0</ele><time>2026-04-06T15:27:52Z</time></trkpt><trkpt lat="40.38254455153566" lon="8.403672299961226"><ele>280.0</ele><time>2026-04-06T15:27:53Z</time></trkpt><trkpt lat="40.38267861782954" lon="8.403613617311478"><ele>272.0</ele><time>2026-04-06T15:27:54Z</time></trkpt><trkpt lat="40.382832896434294" lon="8.403642329577664"><ele>264.0</ele><time>2026-04-06T15:27:55Z</time></trkpt><trkpt lat="40.38298464799483" lon="8.403688956313882"><ele>256.0</ele><time>2026-04-06T15:27:56Z</time></trkpt><trkpt lat="40.38311426152349" lon="8.403773101304484"><ele>258.0</ele><time>2026-04-06T15:27:57Z</time></trkpt><trkpt lat="40.38321948026777" lon="8.403885038660311"><ele>260.0</ele><time>2026-04-06T15:27:58Z</time></trkpt><trkpt lat="40.38330529368611" lon="8.404032724787974"><ele>262.0</ele><time>2026-04-06T15:27:59Z</time></trkpt><trkpt lat="40.38340150899169" lon="8.404202610988742"><ele>264.0</ele><time>2026-04-06T15:28:00Z</time></trkpt><trkpt lat="40.38351831032886" lon="8.404353873507851"><ele>264.0</ele><time>2026-04-06T15:28:01Z</time></trkpt><trkpt lat="40.38364484345584" lon="8.404467201832972"><ele>264.0</ele><time>2026-04-06T15:28:02Z</time></trkpt><trkpt lat="40.38379876102284" lon="8.40453916669739"><ele>264.0</ele><time>2026-04-06T15:28:03Z</time></trkpt><trkpt lat="40.3839647491508" lon="8.404561428438155"><ele>259.6666666666667</ele><time>2026-04-06T15:28:04Z</time></trkpt><trkpt lat="40.38412733079905" lon="8.404534674164262"><ele>255.33333333333334</ele><time>2026-04-06T15:28:05Z</time></trkpt><trkpt lat="40.38427927780928" lon="8.404459588029592"><ele>251.0</ele><time>2026-04-06T15:28:06Z</time></trkpt><trkpt lat="40.38441447838231" lon="8.404345219558529"><ele>251.0</ele><time>2026-04-06T15:28:07Z</time></trkpt><trkpt lat="40.38453098263828" lon="8.404187180557932"><ele>251.0</ele><time>2026-04-06T15:28:08Z</time></trkpt><trkpt lat="40.38462966963465" lon="8.403975855604687"><ele>251.0</ele><time>2026-04-06T15:28:09Z</time></trkpt><trkpt lat="40.38472312225679" lon="8.403718816535326"><ele>249.33333333333334</ele><time>2026-04-06T15:28:10Z</time></trkpt><trkpt lat="40.38481501750867" lon="8.403469351797037"><ele>247.66666666666669</ele><time>2026-04-06T15:28:11Z</time></trkpt><trkpt lat="40.38490464517839" lon="8.403263610927272"><ele>246.0</ele><time>2026-04-06T15:28:12Z</time></trkpt><trkpt lat="40.3849981845232" lon="8.403103134717751"><ele>246.0</ele><time>2026-04-06T15:28:13Z</time></trkpt><trkpt lat="40.38512013500144" lon="8.403011438714325"><ele>246.0</ele><time>2026-04-06T15:28:14Z</time></trkpt><trkpt lat="40.385250284470224" lon="8.402975896102987"><ele>246.0</ele><time>2026-04-06T15:28:15Z</time></trkpt><trkpt lat="40.38541720162412" lon="8.402952362907872"><ele>246.0</ele><time>2026-04-06T15:28:16Z</time></trkpt><trkpt lat="40.38562289449654" lon="8.402906099253642"><ele>235.5</ele><time>2026-04-06T15:28:17Z</time></trkpt><trkpt lat="40.385864647388004" lon="8.40288883139388"><ele>225.0</ele><time>2026-04-06T15:28:18Z</time></trkpt><trkpt lat="40.38611318555922" lon="8.4028582043463"><ele>219.5</ele><time>2026-04-06T15:28:19Z</time></trkpt><trkpt lat="40.38637927744362" lon="8.402821217342819"><ele>214.0</ele><time>2026-04-06T15:28:20Z</time></trkpt><trkpt lat="40.386649212579584" lon="8.402786750792304"><ele>214.0</ele><time>2026-04-06T15:28:21Z</time></trkpt><trkpt lat="40.3869277373413" lon="8.402758085173062"><ele>214.0</ele><time>2026-04-06T15:28:22Z</time></trkpt><trkpt lat="40.3872207922818" lon="8.402741561578098"><ele>215.0</ele><time>2026-04-06T15:28:23Z</time></trkpt><trkpt lat="40.38750933700444" lon="8.40273692435375"><ele>216.0</ele><time>2026-04-06T15:28:24Z</time></trkpt><trkpt lat="40.3878026647369" lon="8.402765261334798"><ele>213.5</ele><time>2026-04-06T15:28:25Z</time></trkpt><trkpt lat="40.38810296340343" lon="8.402756437474505"><ele>211.0</ele><time>2026-04-06T15:28:26Z</time></trkpt><trkpt lat="40.38838036872455" lon="8.40276727033886"><ele>211.0</ele><time>2026-04-06T15:28:27Z</time></trkpt><trkpt lat="40.3886306440348" lon="8.402774325111933"><ele>211.0</ele><time>2026-04-06T15:28:28Z</time></trkpt><trkpt lat="40.38886840637872" lon="8.40278423669144"><ele>211.0</ele><time>2026-04-06T15:28:29Z</time></trkpt><trkpt lat="40.38908990842779" lon="8.402810228665091"><ele>211.0</ele><time>2026-04-06T15:28:30Z</time></trkpt><trkpt lat="40.38928300442841" lon="8.40281832993075"><ele>211.0</ele><time>2026-04-06T15:28:31Z</time></trkpt><trkpt lat="40.38945340642293" lon="8.402838284189276"><ele>211.0</ele><time>2026-04-06T15:28:32Z</time></trkpt><trkpt lat="40.38959356048986" lon="8.402888791851188"><ele>211.0</ele><time>2026-04-06T15:28:33Z</time></trkpt><trkpt lat="40.389712728724206" lon="8.402961853947769"><ele>211.0</ele><time>2026-04-06T15:28:34Z</time></trkpt><trkpt lat="40.38982735639772" lon="8.40305907051094"><ele>211.0</ele><time>2026-04-06T15:28:35Z</time></trkpt><trkpt lat="40.389909164530685" lon="8.403212707373484"><ele>214.75</ele><time>2026-04-06T15:28:36Z</time></trkpt><trkpt lat="40.38993743300826" lon="8.403380354519106"><ele>218.5</ele><time>2026-04-06T15:28:37Z</time></trkpt><trkpt lat="40.38994215640112" lon="8.403553326121836"><ele>222.25</ele><time>2026-04-06T15:28:38Z</time></trkpt><trkpt lat="40.389936332088126" lon="8.4037622551492"><ele>226.0</ele><time>2026-04-06T15:28:39Z</time></trkpt><trkpt lat="40.38992698964319" lon="8.40400426281305"><ele>227.0</ele><time>2026-04-06T15:28:40Z</time></trkpt><trkpt lat="40.38991967939673" lon="8.404227607893626"><ele>228.0</ele><time>2026-04-06T15:28:41Z</time></trkpt><trkpt lat="40.38995045111729" lon="8.404424801328908"><ele>229.0</ele><time>2026-04-06T15:28:42Z</time></trkpt><trkpt lat="40.390006696290314" lon="8.404609677001485"><ele>230.75</ele><time>2026-04-06T15:28:43Z</time></trkpt><trkpt lat="40.390080952222114" lon="8.404777884997571"><ele>232.5</ele><time>2026-04-06T15:28:44Z</time></trkpt><trkpt lat="40.390181451316735" lon="8.404915522613496"><ele>234.25</ele><time>2026-04-06T15:28:45Z</time></trkpt><trkpt lat="40.39031382538443" lon="8.405001254478316"><ele>236.0</ele><time>2026-04-06T15:28:46Z</time></trkpt><trkpt lat="40.39046799349188" lon="8.405060668839349"><ele>235.0</ele><time>2026-04-06T15:28:47Z</time></trkpt><trkpt lat="40.3906303342957" lon="8.405085397180901"><ele>234.0</ele><time>2026-04-06T15:28:48Z</time></trkpt><trkpt lat="40.39079036783254" lon="8.405050426356487"><ele>233.0</ele><time>2026-04-06T15:28:49Z</time></trkpt><trkpt lat="40.39093831497093" lon="8.404971892521132"><ele>233.0</ele><time>2026-04-06T15:28:50Z</time></trkpt><trkpt lat="40.39107007118698" lon="8.404829827495982"><ele>233.0</ele><time>2026-04-06T15:28:51Z</time></trkpt><trkpt lat="40.39117628401593" lon="8.404667462466486"><ele>233.0</ele><time>2026-04-06T15:28:52Z</time></trkpt><trkpt lat="40.39128271347256" lon="8.404546709827638"><ele>227.75</ele><time>2026-04-06T15:28:53Z</time></trkpt><trkpt lat="40.39140461681372" lon="8.404480366987997"><ele>222.5</ele><time>2026-04-06T15:28:54Z</time></trkpt><trkpt lat="40.39154933237809" lon="8.404447432973047"><ele>217.25</ele><time>2026-04-06T15:28:55Z</time></trkpt><trkpt lat="40.391717914581996" lon="8.404461293675023"><ele>212.0</ele><time>2026-04-06T15:28:56Z</time></trkpt><trkpt lat="40.391913140133916" lon="8.404530026711413"><ele>212.0</ele><time>2026-04-06T15:28:57Z</time></trkpt><trkpt lat="40.3921357140804" lon="8.404621121720046"><ele>212.0</ele><time>2026-04-06T15:28:58Z</time></trkpt><trkpt lat="40.39236794182444" lon="8.404714917831026"><ele>223.5</ele><time>2026-04-06T15:28:59Z</time></trkpt><trkpt lat="40.39258980704696" lon="8.404800794917728"><ele>235.0</ele><time>2026-04-06T15:29:00Z</time></trkpt><trkpt lat="40.39280499410054" lon="8.404860616900933"><ele>231.0</ele><time>2026-04-06T15:29:01Z</time></trkpt><trkpt lat="40.393017868492876" lon="8.404917832453147"><ele>227.0</ele><time>2026-04-06T15:29:02Z</time></trkpt><trkpt lat="40.3932421890964" lon="8.404932961857495"><ele>223.0</ele><time>2026-04-06T15:29:03Z</time></trkpt><trkpt lat="40.39349009529518" lon="8.404907869971325"><ele>223.0</ele><time>2026-04-06T15:29:04Z</time></trkpt><trkpt lat="40.39375252814247" lon="8.404900937811957"><ele>223.0</ele><time>2026-04-06T15:29:05Z</time></trkpt><trkpt lat="40.39402432781335" lon="8.404888795559563"><ele>222.5</ele><time>2026-04-06T15:29:06Z</time></trkpt><trkpt lat="40.394281339992204" lon="8.404877313875346"><ele>222.0</ele><time>2026-04-06T15:29:07Z</time></trkpt><trkpt lat="40.394532867536974" lon="8.40484657919073"><ele>221.5</ele><time>2026-04-06T15:29:08Z</time></trkpt><trkpt lat="40.394794967632606" lon="8.404837990012956"><ele>221.0</ele><time>2026-04-06T15:29:09Z</time></trkpt><trkpt lat="40.39504628028158" lon="8.404831182551762"><ele>221.0</ele><time>2026-04-06T15:29:10Z</time></trkpt><trkpt lat="40.395283769963" lon="8.404833385894296"><ele>221.0</ele><time>2026-04-06T15:29:11Z</time></trkpt><trkpt lat="40.395497031938724" lon="8.404888645950177"><ele>221.66666666666669</ele><time>2026-04-06T15:29:12Z</time></trkpt><trkpt lat="40.395697872381525" lon="8.404942445234205"><ele>222.33333333333331</ele><time>2026-04-06T15:29:13Z</time></trkpt><trkpt lat="40.39587265712762" lon="8.404946184897822"><ele>223.0</ele><time>2026-04-06T15:29:13.999Z</time></trkpt><trkpt lat="40.396029751949776" lon="8.404913796063157"><ele>223.0</ele><time>2026-04-06T15:29:14.999Z</time></trkpt><trkpt lat="40.396189217708105" lon="8.404815899774698"><ele>223.0</ele><time>2026-04-06T15:29:15.999Z</time></trkpt><trkpt lat="40.3963354359912" lon="8.404662708112955"><ele>223.0</ele><time>2026-04-06T15:29:16.999Z</time></trkpt><trkpt lat="40.396439710300555" lon="8.404464478816967"><ele>219.66666666666666</ele><time>2026-04-06T15:29:17.999Z</time></trkpt><trkpt lat="40.396527901686305" lon="8.404233621363641"><ele>216.33333333333331</ele><time>2026-04-06T15:29:18.999Z</time></trkpt><trkpt lat="40.39663569083776" lon="8.403998997656148"><ele>213.0</ele><time>2026-04-06T15:29:19.999Z</time></trkpt><trkpt lat="40.39677396707032" lon="8.403771285673296"><ele>211.66666666666669</ele><time>2026-04-06T15:29:20.999Z</time></trkpt><trkpt lat="40.39694390860766" lon="8.40359208668573"><ele>210.33333333333334</ele><time>2026-04-06T15:29:21.999Z</time></trkpt><trkpt lat="40.39710954599148" lon="8.403444820070181"><ele>209.0</ele><time>2026-04-06T15:29:22.999Z</time></trkpt><trkpt lat="40.397274223167116" lon="8.40332619627382"><ele>212.0</ele><time>2026-04-06T15:29:23.999Z</time></trkpt><trkpt lat="40.39745582182168" lon="8.403261731197723"><ele>215.0</ele><time>2026-04-06T15:29:24.999Z</time></trkpt><trkpt lat="40.397632043499506" lon="8.403260542184142"><ele>218.0</ele><time>2026-04-06T15:29:25.999Z</time></trkpt><trkpt lat="40.397810218486754" lon="8.403242888074084"><ele>214.0</ele><time>2026-04-06T15:29:26.999Z</time></trkpt><trkpt lat="40.39800274354738" lon="8.40327666142747"><ele>210.0</ele><time>2026-04-06T15:29:27.999Z</time></trkpt><trkpt lat="40.3981857121635" lon="8.403367839028055"><ele>206.0</ele><time>2026-04-06T15:29:28.999Z</time></trkpt><trkpt lat="40.39834729921813" lon="8.403483862744478"><ele>206.0</ele><time>2026-04-06T15:29:29.999Z</time></trkpt><trkpt lat="40.39850090436385" lon="8.403626691012143"><ele>206.0</ele><time>2026-04-06T15:29:30.999Z</time></trkpt><trkpt lat="40.398628264576075" lon="8.403810504941267"><ele>206.0</ele><time>2026-04-06T15:29:32Z</time></trkpt><trkpt lat="40.39871499242152" lon="8.404018903057432"><ele>213.33333333333334</ele><time>2026-04-06T15:29:33Z</time></trkpt><trkpt lat="40.39874954076047" lon="8.404231308869935"><ele>220.66666666666669</ele><time>2026-04-06T15:29:34Z</time></trkpt><trkpt lat="40.39877059445996" lon="8.404462351883737"><ele>228.0</ele><time>2026-04-06T15:29:35Z</time></trkpt><trkpt lat="40.39880814828039" lon="8.404722563644697"><ele>212.5</ele><time>2026-04-06T15:29:36Z</time></trkpt><trkpt lat="40.39884612658089" lon="8.40502125467319"><ele>197.0</ele><time>2026-04-06T15:29:37Z</time></trkpt><trkpt lat="40.398912147300145" lon="8.405332028064867"><ele>201.33333333333334</ele><time>2026-04-06T15:29:38Z</time></trkpt><trkpt lat="40.39898189356955" lon="8.405617555668844"><ele>205.66666666666669</ele><time>2026-04-06T15:29:39Z</time></trkpt><trkpt lat="40.399044253325684" lon="8.405883716781956"><ele>210.0</ele><time>2026-04-06T15:29:40Z</time></trkpt><trkpt lat="40.39910110366884" lon="8.406147052346695"><ele>211.33333333333331</ele><time>2026-04-06T15:29:41Z</time></trkpt><trkpt lat="40.399145304083774" lon="8.406402966901348"><ele>212.66666666666666</ele><time>2026-04-06T15:29:42Z</time></trkpt><trkpt lat="40.39917451555118" lon="8.406647512978495"><ele>214.0</ele><time>2026-04-06T15:29:43Z</time></trkpt><trkpt lat="40.39919033189784" lon="8.406874436675444"><ele>214.0</ele><time>2026-04-06T15:29:44Z</time></trkpt><trkpt lat="40.39919153794751" lon="8.407090875726228"><ele>214.0</ele><time>2026-04-06T15:29:45Z</time></trkpt><trkpt lat="40.39915671787653" lon="8.407296443863888"><ele>214.0</ele><time>2026-04-06T15:29:46Z</time></trkpt><trkpt lat="40.39907879517053" lon="8.407497275382656"><ele>212.66666666666666</ele><time>2026-04-06T15:29:47Z</time></trkpt><trkpt lat="40.39896478309336" lon="8.407648085964077"><ele>211.33333333333331</ele><time>2026-04-06T15:29:48Z</time></trkpt><trkpt lat="40.39881556604727" lon="8.40774357339991"><ele>210.0</ele><time>2026-04-06T15:29:49Z</time></trkpt><trkpt lat="40.398656797881394" lon="8.407848874894515"><ele>210.66666666666669</ele><time>2026-04-06T15:29:50Z</time></trkpt><trkpt lat="40.398458869749994" lon="8.407928300438765"><ele>211.33333333333334</ele><time>2026-04-06T15:29:51Z</time></trkpt><trkpt lat="40.398274611761316" lon="8.408035125406908"><ele>212.0</ele><time>2026-04-06T15:29:52Z</time></trkpt><trkpt lat="40.398122622567136" lon="8.408179214664175"><ele>212.0</ele><time>2026-04-06T15:29:53Z</time></trkpt><trkpt lat="40.39800290957113" lon="8.408354472732047"><ele>212.0</ele><time>2026-04-06T15:29:54Z</time></trkpt><trkpt lat="40.39791964188849" lon="8.408547641377346"><ele>212.0</ele><time>2026-04-06T15:29:55Z</time></trkpt><trkpt lat="40.39786967113398" lon="8.4087501200328"><ele>216.0</ele><time>2026-04-06T15:29:56Z</time></trkpt><trkpt lat="40.39785423519981" lon="8.408960687092373"><ele>220.0</ele><time>2026-04-06T15:29:57Z</time></trkpt><trkpt lat="40.39787159632527" lon="8.40917470156136"><ele>224.0</ele><time>2026-04-06T15:29:58Z</time></trkpt><trkpt lat="40.39793313831083" lon="8.40939297236821"><ele>216.66666666666669</ele><time>2026-04-06T15:29:59Z</time></trkpt><trkpt lat="40.39803370570796" lon="8.409614649927384"><ele>209.33333333333331</ele><time>2026-04-06T15:30:00Z</time></trkpt><trkpt lat="40.39817162956646" lon="8.409838201830832"><ele>202.0</ele><time>2026-04-06T15:30:01Z</time></trkpt><trkpt lat="40.398331445672" lon="8.410075445160688"><ele>202.0</ele><time>2026-04-06T15:30:02Z</time></trkpt><trkpt lat="40.39850054716256" lon="8.410327172122907"><ele>202.0</ele><time>2026-04-06T15:30:03Z</time></trkpt><trkpt lat="40.398639259841744" lon="8.410559752282362"><ele>205.0</ele><time>2026-04-06T15:30:04Z</time></trkpt><trkpt lat="40.398767682737805" lon="8.410767740937882"><ele>208.0</ele><time>2026-04-06T15:30:05Z</time></trkpt><trkpt lat="40.39891278395324" lon="8.410924813760971"><ele>211.0</ele><time>2026-04-06T15:30:06Z</time></trkpt><trkpt lat="40.39907862180422" lon="8.411017332118842"><ele>204.33333333333331</ele><time>2026-04-06T15:30:07Z</time></trkpt><trkpt lat="40.39927023136924" lon="8.41106180960432"><ele>197.66666666666666</ele><time>2026-04-06T15:30:08Z</time></trkpt><trkpt lat="40.39948024621487" lon="8.411078305159124"><ele>191.0</ele><time>2026-04-06T15:30:09Z</time></trkpt><trkpt lat="40.39970113403038" lon="8.411094241585845"><ele>187.33333333333331</ele><time>2026-04-06T15:30:10Z</time></trkpt><trkpt lat="40.399907892673376" lon="8.411108849004933"><ele>183.66666666666666</ele><time>2026-04-06T15:30:11Z</time></trkpt><trkpt lat="40.40009025406856" lon="8.411086485401624"><ele>180.0</ele><time>2026-04-06T15:30:12Z</time></trkpt><trkpt lat="40.40025328305652" lon="8.411003567436527"><ele>180.0</ele><time>2026-04-06T15:30:13Z</time></trkpt><trkpt lat="40.40041130462944" lon="8.410861549301332"><ele>180.0</ele><time>2026-04-06T15:30:14Z</time></trkpt><trkpt lat="40.40056711621831" lon="8.410674682930045"><ele>180.0</ele><time>2026-04-06T15:30:15Z</time></trkpt><trkpt lat="40.400727261691856" lon="8.410478644711159"><ele>176.33333333333334</ele><time>2026-04-06T15:30:16Z</time></trkpt><trkpt lat="40.40087723415784" lon="8.41030744845366"><ele>172.66666666666669</ele><time>2026-04-06T15:30:17Z</time></trkpt><trkpt lat="40.401020820035846" lon="8.410152912556079"><ele>169.0</ele><time>2026-04-06T15:30:18Z</time></trkpt><trkpt lat="40.40115768432608" lon="8.409998748945032"><ele>169.0</ele><time>2026-04-06T15:30:19Z</time></trkpt><trkpt lat="40.40128410571814" lon="8.409852510363471"><ele>169.0</ele><time>2026-04-06T15:30:20Z</time></trkpt><trkpt lat="40.40142059696996" lon="8.409728255301646"><ele>169.0</ele><time>2026-04-06T15:30:21Z</time></trkpt><trkpt lat="40.40153961093434" lon="8.409593595552632"><ele>167.0</ele><time>2026-04-06T15:30:22Z</time></trkpt><trkpt lat="40.401640044681955" lon="8.40945428149893"><ele>165.0</ele><time>2026-04-06T15:30:23Z</time></trkpt><trkpt lat="40.4017500103269" lon="8.409335309062461"><ele>163.0</ele><time>2026-04-06T15:30:24Z</time></trkpt><trkpt lat="40.40185863976675" lon="8.409218894790122"><ele>161.0</ele><time>2026-04-06T15:30:25Z</time></trkpt><trkpt lat="40.401966880789786" lon="8.409119655761291"><ele>161.0</ele><time>2026-04-06T15:30:26Z</time></trkpt><trkpt lat="40.40209077057814" lon="8.40906427232268"><ele>161.0</ele><time>2026-04-06T15:30:27Z</time></trkpt><trkpt lat="40.40220312020055" lon="8.409031469699631"><ele>161.0</ele><time>2026-04-06T15:30:28Z</time></trkpt><trkpt lat="40.402307428776204" lon="8.409029191030648"><ele>161.0</ele><time>2026-04-06T15:30:29Z</time></trkpt><trkpt lat="40.40240863685774" lon="8.409055784269084"><ele>163.25</ele><time>2026-04-06T15:30:30Z</time></trkpt><trkpt lat="40.402511111057805" lon="8.409102259350687"><ele>165.5</ele><time>2026-04-06T15:30:31Z</time></trkpt><trkpt lat="40.40262233359216" lon="8.409146454072035"><ele>167.75</ele><time>2026-04-06T15:30:32Z</time></trkpt><trkpt lat="40.40273593374745" lon="8.409224087362503"><ele>170.0</ele><time>2026-04-06T15:30:33Z</time></trkpt><trkpt lat="40.40285422816262" lon="8.40931365725016"><ele>170.0</ele><time>2026-04-06T15:30:34Z</time></trkpt><trkpt lat="40.40297399617773" lon="8.409419906054946"><ele>170.0</ele><time>2026-04-06T15:30:35Z</time></trkpt><trkpt lat="40.403080298021514" lon="8.409543390051788"><ele>170.0</ele><time>2026-04-06T15:30:35.999Z</time></trkpt><trkpt lat="40.40317668468124" lon="8.409698641859087"><ele>170.0</ele><time>2026-04-06T15:30:36.999Z</time></trkpt><trkpt lat="40.403262243956256" lon="8.409867200535366"><ele>170.0</ele><time>2026-04-06T15:30:37.999Z</time></trkpt><trkpt lat="40.40334030371817" lon="8.41002992852923"><ele>170.0</ele><time>2026-04-06T15:30:38.999Z</time></trkpt><trkpt lat="40.403418378043305" lon="8.410194609092136"><ele>170.0</ele><time>2026-04-06T15:30:39.999Z</time></trkpt><trkpt lat="40.40349027194679" lon="8.410355374248004"><ele>170.0</ele><time>2026-04-06T15:30:40.999Z</time></trkpt><trkpt lat="40.40356373264931" lon="8.410512992388554"><ele>170.0</ele><time>2026-04-06T15:30:41.999Z</time></trkpt><trkpt lat="40.40364028919595" lon="8.410674924289113"><ele>170.0</ele><time>2026-04-06T15:30:42.999Z</time></trkpt><trkpt lat="40.40370587072761" lon="8.410832012846372"><ele>170.0</ele><time>2026-04-06T15:30:43.999Z</time></trkpt><trkpt lat="40.40376328336176" lon="8.410985621684741"><ele>170.0</ele><time>2026-04-06T15:30:44.999Z</time></trkpt><trkpt lat="40.40381477392466" lon="8.4111500158383"><ele>164.25</ele><time>2026-04-06T15:30:45.999Z</time></trkpt><trkpt lat="40.40386087085796" lon="8.411322313126396"><ele>158.5</ele><time>2026-04-06T15:30:46.999Z</time></trkpt><trkpt lat="40.403928577574476" lon="8.41150081694057"><ele>152.75</ele><time>2026-04-06T15:30:47.999Z</time></trkpt><trkpt lat="40.40402450427554" lon="8.411664041249523"><ele>147.0</ele><time>2026-04-06T15:30:48.999Z</time></trkpt><trkpt lat="40.40416404339552" lon="8.411828591889957"><ele>147.0</ele><time>2026-04-06T15:30:49.999Z</time></trkpt><trkpt lat="40.404333822955024" lon="8.4120129011553"><ele>147.0</ele><time>2026-04-06T15:30:50.999Z</time></trkpt><trkpt lat="40.40453486212086" lon="8.41219259037062"><ele>147.0</ele><time>2026-04-06T15:30:51.999Z</time></trkpt><trkpt lat="40.40474414631004" lon="8.412374805639843"><ele>147.0</ele><time>2026-04-06T15:30:52.999Z</time></trkpt><trkpt lat="40.40493282661977" lon="8.412537712749936"><ele>147.0</ele><time>2026-04-06T15:30:53.999Z</time></trkpt><trkpt lat="40.40510668499961" lon="8.41268742842217"><ele>147.0</ele><time>2026-04-06T15:30:54.999Z</time></trkpt><trkpt lat="40.40526691550267" lon="8.41284587195968"><ele>147.0</ele><time>2026-04-06T15:30:55.999Z</time></trkpt><trkpt lat="40.40541451596515" lon="8.41302533232486"><ele>146.0</ele><time>2026-04-06T15:30:56.999Z</time></trkpt><trkpt lat="40.40554859047959" lon="8.413200997721004"><ele>145.0</ele><time>2026-04-06T15:30:57.999Z</time></trkpt><trkpt lat="40.405669506953174" lon="8.413347426995227"><ele>144.0</ele><time>2026-04-06T15:30:58.999Z</time></trkpt><trkpt lat="40.40579260258156" lon="8.413453836951383"><ele>144.0</ele><time>2026-04-06T15:30:59.999Z</time></trkpt><trkpt lat="40.405918133004725" lon="8.413525972390165"><ele>144.0</ele><time>2026-04-06T15:31:00.999Z</time></trkpt><trkpt lat="40.40606262356575" lon="8.41356671681738"><ele>144.0</ele><time>2026-04-06T15:31:01.999Z</time></trkpt><trkpt lat="40.40621351222251" lon="8.413578605678081"><ele>144.0</ele><time>2026-04-06T15:31:02.999Z</time></trkpt><trkpt lat="40.40635670427542" lon="8.413557929159026"><ele>145.25</ele><time>2026-04-06T15:31:03.999Z</time></trkpt><trkpt lat="40.4064938626716" lon="8.413508918532923"><ele>146.5</ele><time>2026-04-06T15:31:04.999Z</time></trkpt><trkpt lat="40.40661650477443" lon="8.41342245981435"><ele>147.75</ele><time>2026-04-06T15:31:05.999Z</time></trkpt><trkpt lat="40.40672265132755" lon="8.41332244505856"><ele>149.0</ele><time>2026-04-06T15:31:06.999Z</time></trkpt><trkpt lat="40.40682310438768" lon="8.413190321240204"><ele>149.0</ele><time>2026-04-06T15:31:07.999Z</time></trkpt><trkpt lat="40.40692496527496" lon="8.412998576893905"><ele>149.0</ele><time>2026-04-06T15:31:08.999Z</time></trkpt><trkpt lat="40.40705606608214" lon="8.41278466030972"><ele>149.0</ele><time>2026-04-06T15:31:09.999Z</time></trkpt><trkpt lat="40.407182099454936" lon="8.412541258905494"><ele>156.0</ele><time>2026-04-06T15:31:10.999Z</time></trkpt><trkpt lat="40.407302699312176" lon="8.412271641961464"><ele>163.0</ele><time>2026-04-06T15:31:11.999Z</time></trkpt><trkpt lat="40.40744029466885" lon="8.41203529187059"><ele>163.0</ele><time>2026-04-06T15:31:12.999Z</time></trkpt><trkpt lat="40.40757749902174" lon="8.411777600152352"><ele>163.0</ele><time>2026-04-06T15:31:13.999Z</time></trkpt><trkpt lat="40.40771253303242" lon="8.411518960487303"><ele>159.66666666666669</ele><time>2026-04-06T15:31:14.999Z</time></trkpt><trkpt lat="40.40783071438371" lon="8.411292128397935"><ele>156.33333333333334</ele><time>2026-04-06T15:31:15.999Z</time></trkpt><trkpt lat="40.40792529263022" lon="8.41109094311609"><ele>153.0</ele><time>2026-04-06T15:31:16.999Z</time></trkpt><trkpt lat="40.407992764498296" lon="8.41088151308325"><ele>155.66666666666666</ele><time>2026-04-06T15:31:17.999Z</time></trkpt><trkpt lat="40.408027460684586" lon="8.41064882827503"><ele>158.33333333333331</ele><time>2026-04-06T15:31:18.999Z</time></trkpt><trkpt lat="40.40802502178726" lon="8.410415059866917"><ele>161.0</ele><time>2026-04-06T15:31:19.999Z</time></trkpt><trkpt lat="40.40799041737069" lon="8.41020102016927"><ele>161.0</ele><time>2026-04-06T15:31:20.999Z</time></trkpt><trkpt lat="40.407925555845495" lon="8.409980663128122"><ele>161.0</ele><time>2026-04-06T15:31:21.999Z</time></trkpt><trkpt lat="40.407820686137946" lon="8.40976652909403"><ele>161.0</ele><time>2026-04-06T15:31:22.999Z</time></trkpt><trkpt lat="40.4076973193502" lon="8.4095544262661"><ele>165.33333333333331</ele><time>2026-04-06T15:31:23.999Z</time></trkpt><trkpt lat="40.40760620477837" lon="8.409327969890468"><ele>169.66666666666666</ele><time>2026-04-06T15:31:24.999Z</time></trkpt><trkpt lat="40.407555687003864" lon="8.40909691907764"><ele>174.0</ele><time>2026-04-06T15:31:25.999Z</time></trkpt><trkpt lat="40.407536608711894" lon="8.408860691302804"><ele>175.33333333333334</ele><time>2026-04-06T15:31:26.999Z</time></trkpt><trkpt lat="40.40754558842806" lon="8.40861561763352"><ele>176.66666666666669</ele><time>2026-04-06T15:31:27.999Z</time></trkpt><trkpt lat="40.407574509927485" lon="8.408401305638565"><ele>178.0</ele><time>2026-04-06T15:31:28.999Z</time></trkpt><trkpt lat="40.40765143142333" lon="8.408220427739112"><ele>178.0</ele><time>2026-04-06T15:31:29.999Z</time></trkpt><trkpt lat="40.40772657159074" lon="8.40803292992752"><ele>178.0</ele><time>2026-04-06T15:31:30.999Z</time></trkpt><trkpt lat="40.40785515354367" lon="8.407868656513013"><ele>178.0</ele><time>2026-04-06T15:31:31.999Z</time></trkpt><trkpt lat="40.4080134454209" lon="8.407720555863845"><ele>182.66666666666669</ele><time>2026-04-06T15:31:32.999Z</time></trkpt><trkpt lat="40.40820607076275" lon="8.407613067142265"><ele>187.33333333333334</ele><time>2026-04-06T15:31:33.999Z</time></trkpt><trkpt lat="40.40840118423592" lon="8.407476302614041"><ele>192.0</ele><time>2026-04-06T15:31:34.999Z</time></trkpt><trkpt lat="40.40861439552423" lon="8.407350445528106"><ele>189.0</ele><time>2026-04-06T15:31:35.999Z</time></trkpt><trkpt lat="40.408834246780174" lon="8.407214479678277"><ele>186.0</ele><time>2026-04-06T15:31:36.999Z</time></trkpt><trkpt lat="40.409038063353066" lon="8.40708715716355"><ele>186.0</ele><time>2026-04-06T15:31:38Z</time></trkpt><trkpt lat="40.40922950301658" lon="8.406968638563253"><ele>186.0</ele><time>2026-04-06T15:31:39Z</time></trkpt><trkpt lat="40.40939770031949" lon="8.406879826534757"><ele>186.0</ele><time>2026-04-06T15:31:40Z</time></trkpt><trkpt lat="40.409568513322576" lon="8.40685802562904"><ele>188.0</ele><time>2026-04-06T15:31:41Z</time></trkpt><trkpt lat="40.40975604322279" lon="8.406851711951022"><ele>190.0</ele><time>2026-04-06T15:31:42Z</time></trkpt><trkpt lat="40.40996768048971" lon="8.406865346441172"><ele>192.0</ele><time>2026-04-06T15:31:43Z</time></trkpt><trkpt lat="40.410191467479265" lon="8.406913895950828"><ele>192.0</ele><time>2026-04-06T15:31:44Z</time></trkpt><trkpt lat="40.41042585315957" lon="8.406958657831128"><ele>192.0</ele><time>2026-04-06T15:31:45Z</time></trkpt><trkpt lat="40.41065991251674" lon="8.407008886159206"><ele>196.5</ele><time>2026-04-06T15:31:46Z</time></trkpt><trkpt lat="40.41088704843202" lon="8.407073426495028"><ele>201.0</ele><time>2026-04-06T15:31:47Z</time></trkpt><trkpt lat="40.4111232141665" lon="8.407160707224305"><ele>212.5</ele><time>2026-04-06T15:31:48Z</time></trkpt><trkpt lat="40.411364418878264" lon="8.40725463208323"><ele>224.0</ele><time>2026-04-06T15:31:49Z</time></trkpt><trkpt lat="40.411613495410705" lon="8.407347542560005"><ele>224.0</ele><time>2026-04-06T15:31:50Z</time></trkpt><trkpt lat="40.41186181069261" lon="8.407434932070146"><ele>224.0</ele><time>2026-04-06T15:31:51Z</time></trkpt><trkpt lat="40.412084742077134" lon="8.40751224677501"><ele>224.66666666666669</ele><time>2026-04-06T15:31:52Z</time></trkpt><trkpt lat="40.41228670072609" lon="8.40758257191782"><ele>225.33333333333331</ele><time>2026-04-06T15:31:53Z</time></trkpt><trkpt lat="40.41248005917742" lon="8.407626763309082"><ele>226.0</ele><time>2026-04-06T15:31:54Z</time></trkpt><trkpt lat="40.41266969022903" lon="8.40761592829778"><ele>226.0</ele><time>2026-04-06T15:31:55Z</time></trkpt><trkpt lat="40.41287427855869" lon="8.407568217789978"><ele>226.0</ele><time>2026-04-06T15:31:56Z</time></trkpt><trkpt lat="40.413090555295305" lon="8.40751726722654"><ele>226.0</ele><time>2026-04-06T15:31:57Z</time></trkpt><trkpt lat="40.413310336745106" lon="8.407475667689729"><ele>227.33333333333331</ele><time>2026-04-06T15:31:58Z</time></trkpt><trkpt lat="40.41350971736303" lon="8.407442657769876"><ele>228.66666666666669</ele><time>2026-04-06T15:31:59Z</time></trkpt><trkpt lat="40.41368757892794" lon="8.40743204677301"><ele>230.0</ele><time>2026-04-06T15:32:00Z</time></trkpt><trkpt lat="40.4138543733423" lon="8.407459793973546"><ele>231.33333333333334</ele><time>2026-04-06T15:32:01Z</time></trkpt><trkpt lat="40.4140000269259" lon="8.407551121564111"><ele>232.66666666666669</ele><time>2026-04-06T15:32:02Z</time></trkpt><trkpt lat="40.414165952366204" lon="8.407640630402845"><ele>234.0</ele><time>2026-04-06T15:32:03Z</time></trkpt><trkpt lat="40.414333299382996" lon="8.407770082135942"><ele>234.0</ele><time>2026-04-06T15:32:04Z</time></trkpt><trkpt lat="40.41451417332899" lon="8.407881426184085"><ele>234.0</ele><time>2026-04-06T15:32:05Z</time></trkpt><trkpt lat="40.414711652363856" lon="8.40797225281036"><ele>234.0</ele><time>2026-04-06T15:32:06Z</time></trkpt><trkpt lat="40.4149115536298" lon="8.408031834829108"><ele>242.5</ele><time>2026-04-06T15:32:07Z</time></trkpt><trkpt lat="40.41513496248957" lon="8.40808480419501"><ele>251.0</ele><time>2026-04-06T15:32:08Z</time></trkpt><trkpt lat="40.41535791864747" lon="8.408141081418638"><ele>247.0</ele><time>2026-04-06T15:32:09Z</time></trkpt><trkpt lat="40.41558826023063" lon="8.408205959759261"><ele>243.0</ele><time>2026-04-06T15:32:10Z</time></trkpt><trkpt lat="40.415820128697284" lon="8.408268219438366"><ele>243.0</ele><time>2026-04-06T15:32:11Z</time></trkpt><trkpt lat="40.416027957090165" lon="8.408323951887647"><ele>243.0</ele><time>2026-04-06T15:32:12Z</time></trkpt><trkpt lat="40.416215783878926" lon="8.408374842328158"><ele>243.0</ele><time>2026-04-06T15:32:13Z</time></trkpt><trkpt lat="40.41639003918642" lon="8.408403926310607"><ele>243.66666666666669</ele><time>2026-04-06T15:32:14Z</time></trkpt><trkpt lat="40.41655580877923" lon="8.408385597469543"><ele>244.33333333333334</ele><time>2026-04-06T15:32:15Z</time></trkpt><trkpt lat="40.41670877895717" lon="8.408308904905443"><ele>245.0</ele><time>2026-04-06T15:32:16Z</time></trkpt><trkpt lat="40.416839360477326" lon="8.408184048659553"><ele>245.0</ele><time>2026-04-06T15:32:17Z</time></trkpt><trkpt lat="40.41694189414221" lon="8.408019245268035"><ele>245.0</ele><time>2026-04-06T15:32:18Z</time></trkpt><trkpt lat="40.417023861891316" lon="8.407841198808292"><ele>245.0</ele><time>2026-04-06T15:32:19Z</time></trkpt><trkpt lat="40.41708851710297" lon="8.407636156795647"><ele>245.66666666666669</ele><time>2026-04-06T15:32:20Z</time></trkpt><trkpt lat="40.417157385129585" lon="8.407430172886246"><ele>246.33333333333331</ele><time>2026-04-06T15:32:21Z</time></trkpt><trkpt lat="40.41725678939463" lon="8.40724000597694"><ele>247.0</ele><time>2026-04-06T15:32:22Z</time></trkpt><trkpt lat="40.417402850092294" lon="8.407098843194921"><ele>238.0</ele><time>2026-04-06T15:32:23Z</time></trkpt><trkpt lat="40.41754019786018" lon="8.40695148240077"><ele>229.0</ele><time>2026-04-06T15:32:24Z</time></trkpt><trkpt lat="40.417711573362205" lon="8.406828967628577"><ele>220.0</ele><time>2026-04-06T15:32:25Z</time></trkpt><trkpt lat="40.41789307480819" lon="8.406747723191826"><ele>224.0</ele><time>2026-04-06T15:32:26Z</time></trkpt><trkpt lat="40.4180753624636" lon="8.406727772526883"><ele>228.0</ele><time>2026-04-06T15:32:27Z</time></trkpt><trkpt lat="40.41825992819029" lon="8.406735185316466"><ele>232.0</ele><time>2026-04-06T15:32:28Z</time></trkpt><trkpt lat="40.418461268160115" lon="8.406745014808003"><ele>232.0</ele><time>2026-04-06T15:32:29Z</time></trkpt><trkpt lat="40.41866034390099" lon="8.40680290544031"><ele>232.0</ele><time>2026-04-06T15:32:30Z</time></trkpt><trkpt lat="40.41882786805479" lon="8.40690899187017"><ele>232.0</ele><time>2026-04-06T15:32:31Z</time></trkpt><trkpt lat="40.41898910249408" lon="8.406972964075976"><ele>227.33333333333331</ele><time>2026-04-06T15:32:32Z</time></trkpt><trkpt lat="40.41914289614245" lon="8.407012354213245"><ele>222.66666666666669</ele><time>2026-04-06T15:32:33Z</time></trkpt><trkpt lat="40.41930602222064" lon="8.406972078583784"><ele>218.0</ele><time>2026-04-06T15:32:34Z</time></trkpt><trkpt lat="40.419477830295605" lon="8.406877934175204"><ele>218.33333333333334</ele><time>2026-04-06T15:32:35Z</time></trkpt><trkpt lat="40.419658749460694" lon="8.40677800644181"><ele>218.66666666666669</ele><time>2026-04-06T15:32:36Z</time></trkpt><trkpt lat="40.419845003561974" lon="8.406721766585166"><ele>219.0</ele><time>2026-04-06T15:32:37Z</time></trkpt><trkpt lat="40.42001106730357" lon="8.40669779714641"><ele>219.0</ele><time>2026-04-06T15:32:38Z</time></trkpt><trkpt lat="40.420198114549784" lon="8.406732799066816"><ele>219.0</ele><time>2026-04-06T15:32:39Z</time></trkpt><trkpt lat="40.420392199587035" lon="8.40680169984669"><ele>219.0</ele><time>2026-04-06T15:32:40Z</time></trkpt><trkpt lat="40.42059077635199" lon="8.40689627356181"><ele>216.0</ele><time>2026-04-06T15:32:41Z</time></trkpt><trkpt lat="40.420798809319685" lon="8.407009889952205"><ele>213.0</ele><time>2026-04-06T15:32:42Z</time></trkpt><trkpt lat="40.421022932960334" lon="8.40708219576505"><ele>213.0</ele><time>2026-04-06T15:32:43Z</time></trkpt><trkpt lat="40.42126360156239" lon="8.407144617162986"><ele>213.0</ele><time>2026-04-06T15:32:44Z</time></trkpt><trkpt lat="40.42149563209285" lon="8.407186947470532"><ele>222.33333333333331</ele><time>2026-04-06T15:32:45Z</time></trkpt><trkpt lat="40.42168323965649" lon="8.407225371817557"><ele>231.66666666666666</ele><time>2026-04-06T15:32:46Z</time></trkpt><trkpt lat="40.421851403271575" lon="8.407243534754743"><ele>241.0</ele><time>2026-04-06T15:32:47Z</time></trkpt><trkpt lat="40.421998402598945" lon="8.407216562634868"><ele>240.0</ele><time>2026-04-06T15:32:48Z</time></trkpt><trkpt lat="40.42212974298814" lon="8.407138172784002"><ele>239.0</ele><time>2026-04-06T15:32:49Z</time></trkpt><trkpt lat="40.4222447838827" lon="8.40701661186639"><ele>238.0</ele><time>2026-04-06T15:32:50Z</time></trkpt><trkpt lat="40.42234093870995" lon="8.406855330706232"><ele>237.0</ele><time>2026-04-06T15:32:51Z</time></trkpt><trkpt lat="40.42242741433557" lon="8.406656063733505"><ele>237.0</ele><time>2026-04-06T15:32:52Z</time></trkpt><trkpt lat="40.422501546243495" lon="8.406432064747408"><ele>237.0</ele><time>2026-04-06T15:32:53Z</time></trkpt><trkpt lat="40.42256649282377" lon="8.406175984380207"><ele>237.0</ele><time>2026-04-06T15:32:54Z</time></trkpt><trkpt lat="40.42263673417673" lon="8.405895069910784"><ele>234.0</ele><time>2026-04-06T15:32:55Z</time></trkpt><trkpt lat="40.42271471167082" lon="8.405606553977893"><ele>231.0</ele><time>2026-04-06T15:32:56Z</time></trkpt><trkpt lat="40.42280403366561" lon="8.405296505173435"><ele>230.0</ele><time>2026-04-06T15:32:56.999Z</time></trkpt><trkpt lat="40.42288773615578" lon="8.404988734594909"><ele>229.0</ele><time>2026-04-06T15:32:57.999Z</time></trkpt><trkpt lat="40.422965245891675" lon="8.404707110656798"><ele>229.33333333333331</ele><time>2026-04-06T15:32:58.999Z</time></trkpt><trkpt lat="40.42304395014421" lon="8.404461197738671"><ele>229.66666666666669</ele><time>2026-04-06T15:32:59.999Z</time></trkpt><trkpt lat="40.42314525232703" lon="8.404240211394225"><ele>230.0</ele><time>2026-04-06T15:33:00.999Z</time></trkpt><trkpt lat="40.423277600650316" lon="8.404042190517513"><ele>230.0</ele><time>2026-04-06T15:33:01.999Z</time></trkpt><trkpt lat="40.4234319027347" lon="8.403849269562134"><ele>230.0</ele><time>2026-04-06T15:33:02.999Z</time></trkpt><trkpt lat="40.42359189115584" lon="8.403655683485148"><ele>230.0</ele><time>2026-04-06T15:33:03.999Z</time></trkpt><trkpt lat="40.42375798124295" lon="8.403435502638501"><ele>233.0</ele><time>2026-04-06T15:33:04.999Z</time></trkpt><trkpt lat="40.423922500264695" lon="8.40322493957078"><ele>236.0</ele><time>2026-04-06T15:33:05.999Z</time></trkpt><trkpt lat="40.42409207080474" lon="8.403010952173972"><ele>226.33333333333334</ele><time>2026-04-06T15:33:06.999Z</time></trkpt><trkpt lat="40.424249845820235" lon="8.402815381192731"><ele>216.66666666666669</ele><time>2026-04-06T15:33:07.999Z</time></trkpt><trkpt lat="40.42438915829239" lon="8.402643894646818"><ele>207.0</ele><time>2026-04-06T15:33:08.999Z</time></trkpt><trkpt lat="40.42453118103369" lon="8.402489382515435"><ele>212.33333333333331</ele><time>2026-04-06T15:33:09.999Z</time></trkpt><trkpt lat="40.42469115374799" lon="8.402364396715376"><ele>217.66666666666666</ele><time>2026-04-06T15:33:10.999Z</time></trkpt><trkpt lat="40.42486960191394" lon="8.402267303292843"><ele>223.0</ele><time>2026-04-06T15:33:11.999Z</time></trkpt><trkpt lat="40.425059623441285" lon="8.40219495422618"><ele>223.0</ele><time>2026-04-06T15:33:12.999Z</time></trkpt><trkpt lat="40.42525618426765" lon="8.402149809373954"><ele>223.0</ele><time>2026-04-06T15:33:13.999Z</time></trkpt><trkpt lat="40.42546854474635" lon="8.402159299499813"><ele>223.0</ele><time>2026-04-06T15:33:14.999Z</time></trkpt><trkpt lat="40.42567552727854" lon="8.402165425420618"><ele>223.0</ele><time>2026-04-06T15:33:15.999Z</time></trkpt><trkpt lat="40.42588419070975" lon="8.402157067030135"><ele>223.0</ele><time>2026-04-06T15:33:16.999Z</time></trkpt><trkpt lat="40.42609922949005" lon="8.402171664616326"><ele>223.0</ele><time>2026-04-06T15:33:17.999Z</time></trkpt><trkpt lat="40.42632265691802" lon="8.40218035981031"><ele>221.33333333333331</ele><time>2026-04-06T15:33:18.999Z</time></trkpt><trkpt lat="40.426547780116195" lon="8.402185429218173"><ele>219.66666666666669</ele><time>2026-04-06T15:33:19.999Z</time></trkpt><trkpt lat="40.426761478199126" lon="8.402180364405885"><ele>218.0</ele><time>2026-04-06T15:33:20.999Z</time></trkpt><trkpt lat="40.426964127628686" lon="8.402147922940392"><ele>209.33333333333334</ele><time>2026-04-06T15:33:21.999Z</time></trkpt><trkpt lat="40.4271719995584" lon="8.402084000278062"><ele>200.66666666666669</ele><time>2026-04-06T15:33:22.999Z</time></trkpt><trkpt lat="40.42737857656135" lon="8.401995244004034"><ele>192.0</ele><time>2026-04-06T15:33:24Z</time></trkpt><trkpt lat="40.427591583820046" lon="8.401884169315679"><ele>192.0</ele><time>2026-04-06T15:33:25Z</time></trkpt><trkpt lat="40.4278036069538" lon="8.401781407385995"><ele>192.0</ele><time>2026-04-06T15:33:26Z</time></trkpt><trkpt lat="40.428005741048885" lon="8.401694485838338"><ele>192.0</ele><time>2026-04-06T15:33:27Z</time></trkpt><trkpt lat="40.428195182562575" lon="8.401624294083236"><ele>193.66666666666669</ele><time>2026-04-06T15:33:28Z</time></trkpt><trkpt lat="40.4283821881143" lon="8.401579493269756"><ele>195.33333333333334</ele><time>2026-04-06T15:33:29Z</time></trkpt><trkpt lat="40.42857278828706" lon="8.40156523428263"><ele>197.0</ele><time>2026-04-06T15:33:30Z</time></trkpt><trkpt lat="40.42878179832243" lon="8.401577540382839"><ele>193.66666666666669</ele><time>2026-04-06T15:33:31Z</time></trkpt><trkpt lat="40.429002596998096" lon="8.401603938561914"><ele>190.33333333333334</ele><time>2026-04-06T15:33:32Z</time></trkpt><trkpt lat="40.429227643106636" lon="8.401636393850286"><ele>187.0</ele><time>2026-04-06T15:33:33Z</time></trkpt><trkpt lat="40.42946031066044" lon="8.401668709392888"><ele>184.0</ele><time>2026-04-06T15:33:34Z</time></trkpt><trkpt lat="40.42969316183427" lon="8.401699950116317"><ele>181.0</ele><time>2026-04-06T15:33:35Z</time></trkpt><trkpt lat="40.42991730302175" lon="8.401729972556227"><ele>181.0</ele><time>2026-04-06T15:33:36Z</time></trkpt><trkpt lat="40.43012554020033" lon="8.401755820094168"><ele>181.0</ele><time>2026-04-06T15:33:37Z</time></trkpt><trkpt lat="40.43033378824109" lon="8.401784122730087"><ele>181.0</ele><time>2026-04-06T15:33:38Z</time></trkpt><trkpt lat="40.430539917516526" lon="8.401814543851945"><ele>177.33333333333334</ele><time>2026-04-06T15:33:39Z</time></trkpt><trkpt lat="40.43074439530671" lon="8.4018475413645"><ele>173.66666666666666</ele><time>2026-04-06T15:33:40Z</time></trkpt><trkpt lat="40.43094634994092" lon="8.401891479258737"><ele>170.0</ele><time>2026-04-06T15:33:41Z</time></trkpt><trkpt lat="40.431148072063735" lon="8.401955339032419"><ele>171.33333333333331</ele><time>2026-04-06T15:33:42Z</time></trkpt><trkpt lat="40.431353063118486" lon="8.402042955343406"><ele>172.66666666666666</ele><time>2026-04-06T15:33:43Z</time></trkpt><trkpt lat="40.43155616694134" lon="8.402142524736341"><ele>174.0</ele><time>2026-04-06T15:33:44.001Z</time></trkpt><trkpt lat="40.43175597361073" lon="8.402260814889022"><ele>174.0</ele><time>2026-04-06T15:33:45.001Z</time></trkpt><trkpt lat="40.431950946369675" lon="8.402402403741444"><ele>174.0</ele><time>2026-04-06T15:33:46.001Z</time></trkpt><trkpt lat="40.43213730261579" lon="8.402547647732993"><ele>174.0</ele><time>2026-04-06T15:33:47.001Z</time></trkpt><trkpt lat="40.432309729919716" lon="8.402681239844915"><ele>173.0</ele><time>2026-04-06T15:33:48.001Z</time></trkpt><trkpt lat="40.43246727416449" lon="8.402813535966322"><ele>172.0</ele><time>2026-04-06T15:33:49.001Z</time></trkpt><trkpt lat="40.43260053085063" lon="8.402963746897129"><ele>171.0</ele><time>2026-04-06T15:33:50.001Z</time></trkpt><trkpt lat="40.43272420654496" lon="8.403162311304044"><ele>171.0</ele><time>2026-04-06T15:33:51.001Z</time></trkpt><trkpt lat="40.43284404718429" lon="8.403380001018544"><ele>171.0</ele><time>2026-04-06T15:33:52.001Z</time></trkpt><trkpt lat="40.43297590478985" lon="8.403610109685504"><ele>171.0</ele><time>2026-04-06T15:33:53.001Z</time></trkpt><trkpt lat="40.43312023544434" lon="8.403849480554738"><ele>162.5</ele><time>2026-04-06T15:33:54.001Z</time></trkpt><trkpt lat="40.43326254057329" lon="8.404095884818782"><ele>154.0</ele><time>2026-04-06T15:33:55.001Z</time></trkpt><trkpt lat="40.43339200402567" lon="8.404332903432234"><ele>154.0</ele><time>2026-04-06T15:33:56.001Z</time></trkpt><trkpt lat="40.433492058590915" lon="8.404553003201743"><ele>154.0</ele><time>2026-04-06T15:33:57.001Z</time></trkpt><trkpt lat="40.43356058305245" lon="8.404783025159196"><ele>154.0</ele><time>2026-04-06T15:33:58.001Z</time></trkpt><trkpt lat="40.433606665552105" lon="8.405034857175881"><ele>159.66666666666669</ele><time>2026-04-06T15:33:59.001Z</time></trkpt><trkpt lat="40.43364506867104" lon="8.405302838972391"><ele>165.33333333333334</ele><time>2026-04-06T15:34:00.001Z</time></trkpt><trkpt lat="40.43368817139641" lon="8.405562029547012"><ele>171.0</ele><time>2026-04-06T15:34:01.001Z</time></trkpt><trkpt lat="40.43374885537656" lon="8.405799524977466"><ele>168.66666666666666</ele><time>2026-04-06T15:34:02.001Z</time></trkpt><trkpt lat="40.43383028963696" lon="8.406013192839328"><ele>166.33333333333331</ele><time>2026-04-06T15:34:03.001Z</time></trkpt><trkpt lat="40.43394720773058" lon="8.406195787369699"><ele>164.0</ele><time>2026-04-06T15:34:04.001Z</time></trkpt><trkpt lat="40.434086907993546" lon="8.406344458505071"><ele>164.0</ele><time>2026-04-06T15:34:05.001Z</time></trkpt><trkpt lat="40.43425416250735" lon="8.406453712651832"><ele>164.0</ele><time>2026-04-06T15:34:06.001Z</time></trkpt><trkpt lat="40.43444632889525" lon="8.406543180337696"><ele>164.0</ele><time>2026-04-06T15:34:07.001Z</time></trkpt><trkpt lat="40.434625553937146" lon="8.406598783893095"><ele>155.66666666666666</ele><time>2026-04-06T15:34:08.001Z</time></trkpt><trkpt lat="40.43480487023437" lon="8.40662522575366"><ele>147.33333333333334</ele><time>2026-04-06T15:34:09.001Z</time></trkpt><trkpt lat="40.434985909915916" lon="8.40660651748597"><ele>139.0</ele><time>2026-04-06T15:34:10.001Z</time></trkpt><trkpt lat="40.435164924127825" lon="8.40654059037418"><ele>139.0</ele><time>2026-04-06T15:34:11.001Z</time></trkpt><trkpt lat="40.435328432571296" lon="8.406436839662108"><ele>139.0</ele><time>2026-04-06T15:34:12.001Z</time></trkpt><trkpt lat="40.43547174595547" lon="8.406301632017868"><ele>139.0</ele><time>2026-04-06T15:34:13.001Z</time></trkpt><trkpt lat="40.43558273296267" lon="8.40614151740594"><ele>142.66666666666669</ele><time>2026-04-06T15:34:14.001Z</time></trkpt><trkpt lat="40.435663396052604" lon="8.405955033392443"><ele>146.33333333333334</ele><time>2026-04-06T15:34:15.001Z</time></trkpt><trkpt lat="40.43570716233968" lon="8.405748371715266"><ele>150.0</ele><time>2026-04-06T15:34:16.001Z</time></trkpt><trkpt lat="40.43571346770285" lon="8.405518706224553"><ele>150.66666666666666</ele><time>2026-04-06T15:34:17.001Z</time></trkpt><trkpt lat="40.43568262561123" lon="8.405267574570393"><ele>151.33333333333331</ele><time>2026-04-06T15:34:18.001Z</time></trkpt><trkpt lat="40.43564480585318" lon="8.40500766960595"><ele>152.0</ele><time>2026-04-06T15:34:19.001Z</time></trkpt><trkpt lat="40.43563869337923" lon="8.404721140369775"><ele>150.66666666666666</ele><time>2026-04-06T15:34:20.001Z</time></trkpt><trkpt lat="40.43565275224473" lon="8.40442107092429"><ele>149.33333333333334</ele><time>2026-04-06T15:34:21.001Z</time></trkpt><trkpt lat="40.43567595430728" lon="8.404135617032761"><ele>148.0</ele><time>2026-04-06T15:34:22.001Z</time></trkpt><trkpt lat="40.435703810309896" lon="8.403854747737114"><ele>144.5</ele><time>2026-04-06T15:34:23.001Z</time></trkpt><trkpt lat="40.43573340856945" lon="8.403550846553983"><ele>141.0</ele><time>2026-04-06T15:34:24.001Z</time></trkpt><trkpt lat="40.43575309873114" lon="8.403264360430164"><ele>138.33333333333334</ele><time>2026-04-06T15:34:25.001Z</time></trkpt><trkpt lat="40.43576354634466" lon="8.402977506897544"><ele>135.66666666666669</ele><time>2026-04-06T15:34:26.001Z</time></trkpt><trkpt lat="40.435778248009846" lon="8.402733205316805"><ele>133.0</ele><time>2026-04-06T15:34:27.001Z</time></trkpt><trkpt lat="40.43579520049065" lon="8.40251954157016"><ele>133.0</ele><time>2026-04-06T15:34:28.001Z</time></trkpt><trkpt lat="40.43581259383963" lon="8.40232136407912"><ele>133.0</ele><time>2026-04-06T15:34:29.001Z</time></trkpt><trkpt lat="40.435827941035036" lon="8.402142079712076"><ele>133.0</ele><time>2026-04-06T15:34:30.001Z</time></trkpt><trkpt lat="40.435848678000156" lon="8.401970077174752"><ele>133.0</ele><time>2026-04-06T15:34:31.001Z</time></trkpt><trkpt lat="40.435881133165644" lon="8.401805210879106"><ele>130.66666666666669</ele><time>2026-04-06T15:34:32.001Z</time></trkpt><trkpt lat="40.43592324451638" lon="8.401625080235009"><ele>128.33333333333334</ele><time>2026-04-06T15:34:33.001Z</time></trkpt><trkpt lat="40.43597285075424" lon="8.401428322135464"><ele>126.0</ele><time>2026-04-06T15:34:34.001Z</time></trkpt><trkpt lat="40.43601841852818" lon="8.401239480511457"><ele>122.25</ele><time>2026-04-06T15:34:35.001Z</time></trkpt><trkpt lat="40.4360628508544" lon="8.401051363333696"><ele>118.5</ele><time>2026-04-06T15:34:36.001Z</time></trkpt><trkpt lat="40.43610760313084" lon="8.400873241183126"><ele>114.75</ele><time>2026-04-06T15:34:37.001Z</time></trkpt><trkpt lat="40.436151258441846" lon="8.40070428708353"><ele>111.0</ele><time>2026-04-06T15:34:38.001Z</time></trkpt><trkpt lat="40.436192344593756" lon="8.40053888212817"><ele>108.25</ele><time>2026-04-06T15:34:39.001Z</time></trkpt><trkpt lat="40.43623095953628" lon="8.40037203445382"><ele>105.5</ele><time>2026-04-06T15:34:40Z</time></trkpt><trkpt lat="40.436271775448446" lon="8.400195865194114"><ele>102.75</ele><time>2026-04-06T15:34:41Z</time></trkpt><trkpt lat="40.436314928864675" lon="8.40002452915251"><ele>100.0</ele><time>2026-04-06T15:34:42Z</time></trkpt><trkpt lat="40.43635768411791" lon="8.39986925341745"><ele>105.0</ele><time>2026-04-06T15:34:43Z</time></trkpt><trkpt lat="40.43640291985608" lon="8.399728605807871"><ele>110.0</ele><time>2026-04-06T15:34:44Z</time></trkpt><trkpt lat="40.43646203472396" lon="8.39959998062118"><ele>115.0</ele><time>2026-04-06T15:34:45Z</time></trkpt><trkpt lat="40.43654045664089" lon="8.39948106251082"><ele>120.0</ele><time>2026-04-06T15:34:46Z</time></trkpt><trkpt lat="40.43663722445011" lon="8.399372269304026"><ele>120.0</ele><time>2026-04-06T15:34:47Z</time></trkpt><trkpt lat="40.43674436346788" lon="8.3992875647259"><ele>120.0</ele><time>2026-04-06T15:34:48Z</time></trkpt><trkpt lat="40.43685516047614" lon="8.3992311435389"><ele>120.0</ele><time>2026-04-06T15:34:49Z</time></trkpt><trkpt lat="40.43697002232782" lon="8.399185823361659"><ele>120.0</ele><time>2026-04-06T15:34:50Z</time></trkpt><trkpt lat="40.43708593518419" lon="8.399161319613166"><ele>115.33333333333334</ele><time>2026-04-06T15:34:51Z</time></trkpt><trkpt lat="40.43721981791209" lon="8.399157472141152"><ele>110.66666666666667</ele><time>2026-04-06T15:34:52Z</time></trkpt><trkpt lat="40.437380704082976" lon="8.399223343311006"><ele>106.0</ele><time>2026-04-06T15:34:53Z</time></trkpt><trkpt lat="40.43757440086673" lon="8.399265683106307"><ele>106.0</ele><time>2026-04-06T15:34:54Z</time></trkpt><trkpt lat="40.437803183900066" lon="8.399315884372907"><ele>106.0</ele><time>2026-04-06T15:34:55Z</time></trkpt><trkpt lat="40.438052345709366" lon="8.399370314025408"><ele>103.5</ele><time>2026-04-06T15:34:56Z</time></trkpt><trkpt lat="40.43829858238682" lon="8.399423995933834"><ele>101.0</ele><time>2026-04-06T15:34:57Z</time></trkpt><trkpt lat="40.438556298548136" lon="8.399478947351342"><ele>97.5</ele><time>2026-04-06T15:34:58Z</time></trkpt><trkpt lat="40.43881594454478" lon="8.39953505881877"><ele>94.0</ele><time>2026-04-06T15:34:59Z</time></trkpt><trkpt lat="40.43909698594467" lon="8.399595944713434"><ele>94.0</ele><time>2026-04-06T15:35:00Z</time></trkpt><trkpt lat="40.4393942993976" lon="8.399658712982063"><ele>94.0</ele><time>2026-04-06T15:35:01Z</time></trkpt><trkpt lat="40.43969061977121" lon="8.399701516192634"><ele>99.0</ele><time>2026-04-06T15:35:02Z</time></trkpt><trkpt lat="40.43994862280804" lon="8.399759736751417"><ele>104.0</ele><time>2026-04-06T15:35:03Z</time></trkpt><trkpt lat="40.44017863318572" lon="8.399803649312702"><ele>104.0</ele><time>2026-04-06T15:35:04Z</time></trkpt><trkpt lat="40.44037812979533" lon="8.399827436344301"><ele>104.0</ele><time>2026-04-06T15:35:05Z</time></trkpt><trkpt lat="40.440559142138994" lon="8.399812798399354"><ele>104.0</ele><time>2026-04-06T15:35:06Z</time></trkpt><trkpt lat="40.440726786544865" lon="8.3997538681151"><ele>100.0</ele><time>2026-04-06T15:35:07Z</time></trkpt><trkpt lat="40.440868757132165" lon="8.399647470153848"><ele>96.0</ele><time>2026-04-06T15:35:08Z</time></trkpt><trkpt lat="40.440988621411776" lon="8.399503543084558"><ele>92.0</ele><time>2026-04-06T15:35:09Z</time></trkpt><trkpt lat="40.44108441989084" lon="8.399325658563505"><ele>92.0</ele><time>2026-04-06T15:35:10Z</time></trkpt><trkpt lat="40.44115048861434" lon="8.399120239797396"><ele>92.0</ele><time>2026-04-06T15:35:11Z</time></trkpt><trkpt lat="40.44118897347704" lon="8.398884408621045"><ele>92.0</ele><time>2026-04-06T15:35:12Z</time></trkpt><trkpt lat="40.44119877443734" lon="8.398628391019693"><ele>90.66666666666667</ele><time>2026-04-06T15:35:13Z</time></trkpt><trkpt lat="40.44117868255225" lon="8.398353402995683"><ele>89.33333333333333</ele><time>2026-04-06T15:35:14Z</time></trkpt><trkpt lat="40.4411300716913" lon="8.39807259551056"><ele>88.0</ele><time>2026-04-06T15:35:15Z</time></trkpt><trkpt lat="40.44106269355462" lon="8.397779416565662"><ele>91.0</ele><time>2026-04-06T15:35:16Z</time></trkpt><trkpt lat="40.44099242196354" lon="8.39748911478501"><ele>94.0</ele><time>2026-04-06T15:35:17Z</time></trkpt><trkpt lat="40.44093645171701" lon="8.397234677562343"><ele>97.0</ele><time>2026-04-06T15:35:18Z</time></trkpt><trkpt lat="40.440897632996545" lon="8.397004678624308"><ele>95.66666666666667</ele><time>2026-04-06T15:35:19Z</time></trkpt><trkpt lat="40.44088532770371" lon="8.396774657406661"><ele>94.33333333333334</ele><time>2026-04-06T15:35:20Z</time></trkpt><trkpt lat="40.440898523664025" lon="8.396545829205529"><ele>93.0</ele><time>2026-04-06T15:35:21Z</time></trkpt><trkpt lat="40.44093403232593" lon="8.396326840371445"><ele>93.0</ele><time>2026-04-06T15:35:22Z</time></trkpt><trkpt lat="40.440991759968725" lon="8.396114460696817"><ele>93.0</ele><time>2026-04-06T15:35:23Z</time></trkpt><trkpt lat="40.44106865399112" lon="8.395913088155567"><ele>93.0</ele><time>2026-04-06T15:35:24Z</time></trkpt><trkpt lat="40.44116155166161" lon="8.395749281239155"><ele>93.0</ele><time>2026-04-06T15:35:25Z</time></trkpt><trkpt lat="40.44128685400351" lon="8.395637153746154"><ele>93.0</ele><time>2026-04-06T15:35:26Z</time></trkpt><trkpt lat="40.44143319791191" lon="8.395547238021667"><ele>93.0</ele><time>2026-04-06T15:35:27Z</time></trkpt><trkpt lat="40.44158771909846" lon="8.395479473515556"><ele>92.66666666666667</ele><time>2026-04-06T15:35:28Z</time></trkpt><trkpt lat="40.4417646322103" lon="8.39541909150253"><ele>92.33333333333334</ele><time>2026-04-06T15:35:29Z</time></trkpt><trkpt lat="40.44196378614711" lon="8.395437842098431"><ele>92.0</ele><time>2026-04-06T15:35:30Z</time></trkpt><trkpt lat="40.442157453236675" lon="8.395466559945284"><ele>98.5</ele><time>2026-04-06T15:35:31Z</time></trkpt><trkpt lat="40.44233716592674" lon="8.395478526969322"><ele>105.0</ele><time>2026-04-06T15:35:32Z</time></trkpt><trkpt lat="40.44248156841342" lon="8.395455445078019"><ele>111.5</ele><time>2026-04-06T15:35:33Z</time></trkpt><trkpt lat="40.442604203005786" lon="8.395436901273"><ele>118.0</ele><time>2026-04-06T15:35:34Z</time></trkpt><trkpt lat="40.44271006213963" lon="8.395382739639823"><ele>118.0</ele><time>2026-04-06T15:35:35Z</time></trkpt><trkpt lat="40.442806998622615" lon="8.395289867673613"><ele>118.0</ele><time>2026-04-06T15:35:36Z</time></trkpt><trkpt lat="40.44289429168806" lon="8.395152327148585"><ele>118.0</ele><time>2026-04-06T15:35:37Z</time></trkpt><trkpt lat="40.442976446802085" lon="8.394975980397856"><ele>118.0</ele><time>2026-04-06T15:35:38Z</time></trkpt><trkpt lat="40.443040813859895" lon="8.39480080175508"><ele>123.5</ele><time>2026-04-06T15:35:39Z</time></trkpt><trkpt lat="40.44308663038318" lon="8.394616174689132"><ele>129.0</ele><time>2026-04-06T15:35:40Z</time></trkpt><trkpt lat="40.443146598164844" lon="8.394452096328397"><ele>134.5</ele><time>2026-04-06T15:35:41Z</time></trkpt><trkpt lat="40.44321938671383" lon="8.394312953054905"><ele>140.0</ele><time>2026-04-06T15:35:42Z</time></trkpt><trkpt lat="40.44330530765958" lon="8.394183829714233"><ele>140.0</ele><time>2026-04-06T15:35:43Z</time></trkpt><trkpt lat="40.443402992881815" lon="8.394067048809644"><ele>140.0</ele><time>2026-04-06T15:35:44Z</time></trkpt><trkpt lat="40.44351189315315" lon="8.393957316846265"><ele>140.0</ele><time>2026-04-06T15:35:45Z</time></trkpt><trkpt lat="40.44361759488713" lon="8.393827588154252"><ele>140.0</ele><time>2026-04-06T15:35:46Z</time></trkpt><trkpt lat="40.44373216653591" lon="8.393719445054113"><ele>139.5</ele><time>2026-04-06T15:35:47Z</time></trkpt><trkpt lat="40.44383930834258" lon="8.393616568873925"><ele>139.0</ele><time>2026-04-06T15:35:48Z</time></trkpt><trkpt lat="40.44394133822193" lon="8.393525481471455"><ele>138.5</ele><time>2026-04-06T15:35:49.001Z</time></trkpt><trkpt lat="40.44405537392092" lon="8.393446958336874"><ele>138.0</ele><time>2026-04-06T15:35:50.001Z</time></trkpt><trkpt lat="40.44418421025396" lon="8.393381409862474"><ele>138.0</ele><time>2026-04-06T15:35:51.001Z</time></trkpt><trkpt lat="40.44432017991584" lon="8.393324654296613"><ele>138.0</ele><time>2026-04-06T15:35:52.001Z</time></trkpt><trkpt lat="40.44447924328597" lon="8.39327805635295"><ele>138.0</ele><time>2026-04-06T15:35:53.001Z</time></trkpt><trkpt lat="40.444664762273405" lon="8.393241983836447"><ele>144.0</ele><time>2026-04-06T15:35:54.001Z</time></trkpt><trkpt lat="40.44484584068144" lon="8.393215420097334"><ele>150.0</ele><time>2026-04-06T15:35:55.001Z</time></trkpt><trkpt lat="40.444997267904164" lon="8.393195451112636"><ele>156.0</ele><time>2026-04-06T15:35:56.001Z</time></trkpt><trkpt lat="40.4451327408098" lon="8.393173006151388"><ele>156.0</ele><time>2026-04-06T15:35:57.001Z</time></trkpt><trkpt lat="40.44525874771923" lon="8.393145057199773"><ele>156.0</ele><time>2026-04-06T15:35:58.001Z</time></trkpt><trkpt lat="40.44538201508108" lon="8.393098762920069"><ele>156.0</ele><time>2026-04-06T15:35:59.001Z</time></trkpt><trkpt lat="40.44549739827965" lon="8.393021419310632"><ele>156.0</ele><time>2026-04-06T15:36:00.001Z</time></trkpt><trkpt lat="40.44560927047526" lon="8.392892857215708"><ele>149.0</ele><time>2026-04-06T15:36:01.001Z</time></trkpt><trkpt lat="40.44573482650644" lon="8.3927513200999"><ele>142.0</ele><time>2026-04-06T15:36:02.001Z</time></trkpt><trkpt lat="40.445875883291215" lon="8.392658075590251"><ele>135.0</ele><time>2026-04-06T15:36:03.001Z</time></trkpt><trkpt lat="40.44602746302513" lon="8.392604769983983"><ele>135.0</ele><time>2026-04-06T15:36:04.001Z</time></trkpt><trkpt lat="40.44617505659709" lon="8.392571115476931"><ele>135.0</ele><time>2026-04-06T15:36:05.001Z</time></trkpt><trkpt lat="40.44631389964367" lon="8.392545947890683"><ele>135.0</ele><time>2026-04-06T15:36:06.001Z</time></trkpt><trkpt lat="40.44646405345283" lon="8.392532738181071"><ele>135.0</ele><time>2026-04-06T15:36:07.001Z</time></trkpt><trkpt lat="40.44662255448352" lon="8.392538706036861"><ele>138.0</ele><time>2026-04-06T15:36:08.001Z</time></trkpt><trkpt lat="40.44678865453179" lon="8.392561289767421"><ele>141.0</ele><time>2026-04-06T15:36:09.001Z</time></trkpt><trkpt lat="40.44696078126183" lon="8.392596109586625"><ele>144.0</ele><time>2026-04-06T15:36:10.001Z</time></trkpt><trkpt lat="40.44712646103932" lon="8.392633265981503"><ele>140.0</ele><time>2026-04-06T15:36:11.001Z</time></trkpt><trkpt lat="40.447289696527235" lon="8.392675898557595"><ele>136.0</ele><time>2026-04-06T15:36:12.001Z</time></trkpt><trkpt lat="40.44744298226485" lon="8.392729995908349"><ele>132.0</ele><time>2026-04-06T15:36:13.001Z</time></trkpt><trkpt lat="40.44758976743709" lon="8.392778468987801"><ele>132.0</ele><time>2026-04-06T15:36:14.001Z</time></trkpt><trkpt lat="40.447724744159764" lon="8.39277592562147"><ele>132.0</ele><time>2026-04-06T15:36:15.001Z</time></trkpt><trkpt lat="40.44785695644101" lon="8.39273353422193"><ele>132.0</ele><time>2026-04-06T15:36:16.001Z</time></trkpt><trkpt lat="40.44798545160054" lon="8.392681584760686"><ele>132.0</ele><time>2026-04-06T15:36:17Z</time></trkpt><trkpt lat="40.448113178093735" lon="8.392654389207937"><ele>132.6</ele><time>2026-04-06T15:36:18Z</time></trkpt><trkpt lat="40.448231953728865" lon="8.392669835224288"><ele>133.2</ele><time>2026-04-06T15:36:19Z</time></trkpt><trkpt lat="40.44834334331409" lon="8.392716646927964"><ele>133.8</ele><time>2026-04-06T15:36:20Z</time></trkpt><trkpt lat="40.4484456051485" lon="8.392754984673541"><ele>134.4</ele><time>2026-04-06T15:36:21Z</time></trkpt><trkpt lat="40.44854162279268" lon="8.392756170147882"><ele>135.0</ele><time>2026-04-06T15:36:22Z</time></trkpt><trkpt lat="40.44863967101673" lon="8.392719293531878"><ele>135.0</ele><time>2026-04-06T15:36:23Z</time></trkpt><trkpt lat="40.448738659892534" lon="8.392653555611895"><ele>135.0</ele><time>2026-04-06T15:36:24Z</time></trkpt><trkpt lat="40.44882746576927" lon="8.392528885595164"><ele>135.0</ele><time>2026-04-06T15:36:25Z</time></trkpt><trkpt lat="40.44888610085854" lon="8.392386192606553"><ele>135.0</ele><time>2026-04-06T15:36:26Z</time></trkpt><trkpt lat="40.448937513037905" lon="8.392232246330398"><ele>132.25</ele><time>2026-04-06T15:36:27Z</time></trkpt><trkpt lat="40.44898592661664" lon="8.392086366503719"><ele>129.5</ele><time>2026-04-06T15:36:28Z</time></trkpt><trkpt lat="40.44903851598112" lon="8.391945207288876"><ele>126.75</ele><time>2026-04-06T15:36:29Z</time></trkpt><trkpt lat="40.44909136013479" lon="8.391811808768514"><ele>124.0</ele><time>2026-04-06T15:36:30Z</time></trkpt><trkpt lat="40.44913527202361" lon="8.391694411721787"><ele>124.0</ele><time>2026-04-06T15:36:31Z</time></trkpt><trkpt lat="40.449191109470824" lon="8.391595624654242"><ele>124.0</ele><time>2026-04-06T15:36:32Z</time></trkpt><trkpt lat="40.449271172098776" lon="8.391522124530983"><ele>124.0</ele><time>2026-04-06T15:36:33Z</time></trkpt><trkpt lat="40.44935798150842" lon="8.391479134418946"><ele>124.0</ele><time>2026-04-06T15:36:34Z</time></trkpt><trkpt lat="40.44944882269472" lon="8.39145365098872"><ele>124.0</ele><time>2026-04-06T15:36:35Z</time></trkpt><trkpt lat="40.44953329104335" lon="8.391400226017518"><ele>122.6</ele><time>2026-04-06T15:36:36Z</time></trkpt><trkpt lat="40.449604824712864" lon="8.391313847823353"><ele>121.2</ele><time>2026-04-06T15:36:37Z</time></trkpt><trkpt lat="40.44966812891027" lon="8.391215278976114"><ele>119.79999999999998</ele><time>2026-04-06T15:36:38Z</time></trkpt><trkpt lat="40.44973922992278" lon="8.391112880977396"><ele>118.39999999999999</ele><time>2026-04-06T15:36:39Z</time></trkpt><trkpt lat="40.44983038592555" lon="8.391014315209764"><ele>117.0</ele><time>2026-04-06T15:36:40Z</time></trkpt><trkpt lat="40.449942706866864" lon="8.390932953904283"><ele>117.0</ele><time>2026-04-06T15:36:41Z</time></trkpt><trkpt lat="40.45006409806675" lon="8.39086573527013"><ele>117.0</ele><time>2026-04-06T15:36:42Z</time></trkpt><trkpt lat="40.4501807945028" lon="8.390802894043249"><ele>117.0</ele><time>2026-04-06T15:36:43Z</time></trkpt><trkpt lat="40.45028700013411" lon="8.390732828095354"><ele>117.0</ele><time>2026-04-06T15:36:44Z</time></trkpt><trkpt lat="40.45039272197046" lon="8.390658898717978"><ele>119.25</ele><time>2026-04-06T15:36:45Z</time></trkpt><trkpt lat="40.450494534667556" lon="8.390586261876727"><ele>121.5</ele><time>2026-04-06T15:36:46Z</time></trkpt><trkpt lat="40.45059558304673" lon="8.390516207779756"><ele>123.75</ele><time>2026-04-06T15:36:47Z</time></trkpt><trkpt lat="40.450698728017734" lon="8.390454527298017"><ele>126.0</ele><time>2026-04-06T15:36:48Z</time></trkpt><trkpt lat="40.4508139621701" lon="8.390397412373437"><ele>122.75</ele><time>2026-04-06T15:36:49Z</time></trkpt><trkpt lat="40.450943834699814" lon="8.390340004146527"><ele>119.5</ele><time>2026-04-06T15:36:50Z</time></trkpt><trkpt lat="40.45107568857796" lon="8.390285815746372"><ele>116.25</ele><time>2026-04-06T15:36:51Z</time></trkpt><trkpt lat="40.45120171766106" lon="8.390229192744656"><ele>113.0</ele><time>2026-04-06T15:36:52Z</time></trkpt><trkpt lat="40.45132474232568" lon="8.390160258926537"><ele>113.0</ele><time>2026-04-06T15:36:53Z</time></trkpt><trkpt lat="40.45144127021713" lon="8.390075896232535"><ele>113.0</ele><time>2026-04-06T15:36:54Z</time></trkpt><trkpt lat="40.45154474659161" lon="8.38997616213125"><ele>113.0</ele><time>2026-04-06T15:36:55Z</time></trkpt><trkpt lat="40.45162962754366" lon="8.389860346192782"><ele>113.0</ele><time>2026-04-06T15:36:56Z</time></trkpt><trkpt lat="40.451687074415865" lon="8.38972651023614"><ele>108.2</ele><time>2026-04-06T15:36:57Z</time></trkpt><trkpt lat="40.45171611571469" lon="8.38958084214142"><ele>103.4</ele><time>2026-04-06T15:36:58Z</time></trkpt><trkpt lat="40.451724854048535" lon="8.389432704960955"><ele>98.60000000000001</ele><time>2026-04-06T15:36:59Z</time></trkpt><trkpt lat="40.45173147332675" lon="8.389288246191544"><ele>93.80000000000001</ele><time>2026-04-06T15:37:00Z</time></trkpt><trkpt lat="40.45174577719699" lon="8.3891492768182"><ele>89.0</ele><time>2026-04-06T15:37:01Z</time></trkpt><trkpt lat="40.45177241776418" lon="8.389019091040565"><ele>89.0</ele><time>2026-04-06T15:37:02Z</time></trkpt><trkpt lat="40.45181709800632" lon="8.388900031778007"><ele>89.0</ele><time>2026-04-06T15:37:03Z</time></trkpt><trkpt lat="40.45188066158791" lon="8.388800224531895"><ele>89.0</ele><time>2026-04-06T15:37:04Z</time></trkpt><trkpt lat="40.45196717164199" lon="8.388736106794909"><ele>89.0</ele><time>2026-04-06T15:37:05Z</time></trkpt><trkpt lat="40.452071948505704" lon="8.388718937654973"><ele>89.0</ele><time>2026-04-06T15:37:06Z</time></trkpt><trkpt lat="40.45218374363264" lon="8.388732325942684"><ele>87.0</ele><time>2026-04-06T15:37:07Z</time></trkpt><trkpt lat="40.4522994622328" lon="8.388768447234142"><ele>85.0</ele><time>2026-04-06T15:37:08Z</time></trkpt><trkpt lat="40.45241905884409" lon="8.388808797307487"><ele>83.0</ele><time>2026-04-06T15:37:09Z</time></trkpt><trkpt lat="40.45254367072852" lon="8.388838010234908"><ele>81.0</ele><time>2026-04-06T15:37:10Z</time></trkpt><trkpt lat="40.45267474526218" lon="8.38884495407939"><ele>81.0</ele><time>2026-04-06T15:37:11Z</time></trkpt><trkpt lat="40.452806691491986" lon="8.388830396438236"><ele>81.0</ele><time>2026-04-06T15:37:12Z</time></trkpt><trkpt lat="40.45293753175444" lon="8.388783218822486"><ele>81.0</ele><time>2026-04-06T15:37:13Z</time></trkpt><trkpt lat="40.453069545910125" lon="8.388712236289104"><ele>81.0</ele><time>2026-04-06T15:37:14Z</time></trkpt><trkpt lat="40.453197399907246" lon="8.388629045707935"><ele>83.33333333333333</ele><time>2026-04-06T15:37:15Z</time></trkpt><trkpt lat="40.453321964680605" lon="8.388530369250086"><ele>85.66666666666666</ele><time>2026-04-06T15:37:16Z</time></trkpt><trkpt lat="40.45346670424071" lon="8.388390133370791"><ele>88.0</ele><time>2026-04-06T15:37:17Z</time></trkpt><trkpt lat="40.4536211121835" lon="8.388211044796755"><ele>88.0</ele><time>2026-04-06T15:37:18Z</time></trkpt><trkpt lat="40.45375466738107" lon="8.388027705575215"><ele>88.0</ele><time>2026-04-06T15:37:19Z</time></trkpt><trkpt lat="40.453854618577495" lon="8.387866030551761"><ele>88.0</ele><time>2026-04-06T15:37:20Z</time></trkpt><trkpt lat="40.453949853756576" lon="8.387717323576696"><ele>85.5</ele><time>2026-04-06T15:37:21Z</time></trkpt><trkpt lat="40.45404756779042" lon="8.387603593139021"><ele>83.0</ele><time>2026-04-06T15:37:22Z</time></trkpt><trkpt lat="40.454157018058424" lon="8.387534053770827"><ele>80.5</ele><time>2026-04-06T15:37:23Z</time></trkpt><trkpt lat="40.454278176631014" lon="8.387492767570784"><ele>78.0</ele><time>2026-04-06T15:37:24Z</time></trkpt><trkpt lat="40.454411221171064" lon="8.387439291866574"><ele>78.0</ele><time>2026-04-06T15:37:25Z</time></trkpt><trkpt lat="40.454568418412585" lon="8.387371123726469"><ele>78.0</ele><time>2026-04-06T15:37:26Z</time></trkpt><trkpt lat="40.45473169549564" lon="8.387304734087076"><ele>78.0</ele><time>2026-04-06T15:37:27Z</time></trkpt><trkpt lat="40.4549104121926" lon="8.387227866708876"><ele>67.5</ele><time>2026-04-06T15:37:28Z</time></trkpt><trkpt lat="40.45512324917666" lon="8.387151893221139"><ele>57.0</ele><time>2026-04-06T15:37:29Z</time></trkpt><trkpt lat="40.45536861418744" lon="8.38708243947453"><ele>62.0</ele><time>2026-04-06T15:37:30Z</time></trkpt><trkpt lat="40.45563362833088" lon="8.387001281407661"><ele>67.0</ele><time>2026-04-06T15:37:31Z</time></trkpt><trkpt lat="40.45589752174431" lon="8.386912935032727"><ele>67.0</ele><time>2026-04-06T15:37:32Z</time></trkpt><trkpt lat="40.456164809989595" lon="8.386817315030159"><ele>67.0</ele><time>2026-04-06T15:37:33Z</time></trkpt><trkpt lat="40.456432881859" lon="8.386719319873949"><ele>69.0</ele><time>2026-04-06T15:37:34Z</time></trkpt><trkpt lat="40.45669345693981" lon="8.38662004957107"><ele>71.0</ele><time>2026-04-06T15:37:35Z</time></trkpt><trkpt lat="40.456955397484364" lon="8.386525415218932"><ele>72.0</ele><time>2026-04-06T15:37:36Z</time></trkpt><trkpt lat="40.45721773063231" lon="8.386455004282757"><ele>73.0</ele><time>2026-04-06T15:37:37Z</time></trkpt><trkpt lat="40.457486821383476" lon="8.386422097418892"><ele>73.0</ele><time>2026-04-06T15:37:38Z</time></trkpt><trkpt lat="40.45775331675768" lon="8.386403712750106"><ele>73.0</ele><time>2026-04-06T15:37:39Z</time></trkpt><trkpt lat="40.458001280333505" lon="8.386361864013471"><ele>65.0</ele><time>2026-04-06T15:37:40Z</time></trkpt><trkpt lat="40.458223342016325" lon="8.386276990533393"><ele>57.0</ele><time>2026-04-06T15:37:41Z</time></trkpt><trkpt lat="40.45842086083234" lon="8.386142820838286"><ele>57.0</ele><time>2026-04-06T15:37:42Z</time></trkpt><trkpt lat="40.458600353850244" lon="8.38597703915888"><ele>57.0</ele><time>2026-04-06T15:37:43Z</time></trkpt><trkpt lat="40.45876405970225" lon="8.385825473809081"><ele>57.0</ele><time>2026-04-06T15:37:44Z</time></trkpt><trkpt lat="40.45890933157584" lon="8.385713178957714"><ele>62.33333333333333</ele><time>2026-04-06T15:37:45Z</time></trkpt><trkpt lat="40.4590624008903" lon="8.385672962723447"><ele>67.66666666666666</ele><time>2026-04-06T15:37:46Z</time></trkpt><trkpt lat="40.45921939848896" lon="8.38567660910431"><ele>73.0</ele><time>2026-04-06T15:37:47Z</time></trkpt><trkpt lat="40.459405936896296" lon="8.385706880553201"><ele>73.0</ele><time>2026-04-06T15:37:48Z</time></trkpt><trkpt lat="40.459608236441234" lon="8.38572965566523"><ele>73.0</ele><time>2026-04-06T15:37:49Z</time></trkpt><trkpt lat="40.4598102502197" lon="8.385773287850656"><ele>73.0</ele><time>2026-04-06T15:37:50Z</time></trkpt><trkpt lat="40.45998967201945" lon="8.385814507921523"><ele>72.0</ele><time>2026-04-06T15:37:51Z</time></trkpt><trkpt lat="40.46013531543411" lon="8.385911584980473"><ele>71.0</ele><time>2026-04-06T15:37:52Z</time></trkpt><trkpt lat="40.460251318478576" lon="8.386056177980414"><ele>70.0</ele><time>2026-04-06T15:37:53Z</time></trkpt><trkpt lat="40.460395688267525" lon="8.386175190118875"><ele>68.0</ele><time>2026-04-06T15:37:54Z</time></trkpt><trkpt lat="40.4605182020118" lon="8.386262543391933"><ele>66.0</ele><time>2026-04-06T15:37:55Z</time></trkpt><trkpt lat="40.46064860478332" lon="8.386277524358826"><ele>64.0</ele><time>2026-04-06T15:37:56Z</time></trkpt><trkpt lat="40.46078478348608" lon="8.386234542675894"><ele>62.0</ele><time>2026-04-06T15:37:57Z</time></trkpt><trkpt lat="40.4609045761469" lon="8.386145937893815"><ele>62.0</ele><time>2026-04-06T15:37:58Z</time></trkpt><trkpt lat="40.46102061458794" lon="8.38602654881426"><ele>62.0</ele><time>2026-04-06T15:37:59Z</time></trkpt><trkpt lat="40.46114569059351" lon="8.385887901467795"><ele>62.0</ele><time>2026-04-06T15:38:00Z</time></trkpt><trkpt lat="40.46129118264617" lon="8.385806527153322"><ele>62.333333333333336</ele><time>2026-04-06T15:38:01Z</time></trkpt><trkpt lat="40.4614416953862" lon="8.385765283229603"><ele>62.66666666666667</ele><time>2026-04-06T15:38:02Z</time></trkpt><trkpt lat="40.46161286369023" lon="8.385789120635543"><ele>63.0</ele><time>2026-04-06T15:38:03Z</time></trkpt><trkpt lat="40.46181034785925" lon="8.38577900176554"><ele>63.0</ele><time>2026-04-06T15:38:04Z</time></trkpt><trkpt lat="40.46202366659809" lon="8.38578973396287"><ele>63.0</ele><time>2026-04-06T15:38:05Z</time></trkpt><trkpt lat="40.46226175544145" lon="8.38579885370265"><ele>65.0</ele><time>2026-04-06T15:38:06Z</time></trkpt><trkpt lat="40.462497333331214" lon="8.385804882080894"><ele>67.0</ele><time>2026-04-06T15:38:07Z</time></trkpt><trkpt lat="40.4627247821112" lon="8.385807695021386"><ele>67.0</ele><time>2026-04-06T15:38:08Z</time></trkpt><trkpt lat="40.46295280033019" lon="8.385796739131905"><ele>67.0</ele><time>2026-04-06T15:38:09Z</time></trkpt><trkpt lat="40.46319094755419" lon="8.385762684817172"><ele>67.0</ele><time>2026-04-06T15:38:10Z</time></trkpt><trkpt lat="40.4634277769283" lon="8.385707962681709"><ele>67.0</ele><time>2026-04-06T15:38:11Z</time></trkpt><trkpt lat="40.46366851139634" lon="8.385644339759933"><ele>69.0</ele><time>2026-04-06T15:38:12Z</time></trkpt><trkpt lat="40.46391632265985" lon="8.385576989956174"><ele>71.0</ele><time>2026-04-06T15:38:13Z</time></trkpt><trkpt lat="40.4641670542559" lon="8.385517085598693"><ele>61.5</ele><time>2026-04-06T15:38:14Z</time></trkpt><trkpt lat="40.46440393138133" lon="8.385465293389284"><ele>52.0</ele><time>2026-04-06T15:38:15Z</time></trkpt><trkpt lat="40.46464111544441" lon="8.385410900890692"><ele>52.0</ele><time>2026-04-06T15:38:16Z</time></trkpt><trkpt lat="40.46486810091559" lon="8.38535234179856"><ele>52.0</ele><time>2026-04-06T15:38:17Z</time></trkpt><trkpt lat="40.4650802899161" lon="8.385286773151408"><ele>52.0</ele><time>2026-04-06T15:38:18Z</time></trkpt><trkpt lat="40.46528504618051" lon="8.385210526094722"><ele>54.0</ele><time>2026-04-06T15:38:19Z</time></trkpt><trkpt lat="40.465493137987394" lon="8.385123943924905"><ele>56.0</ele><time>2026-04-06T15:38:20Z</time></trkpt><trkpt lat="40.465688310961475" lon="8.385026846305978"><ele>58.0</ele><time>2026-04-06T15:38:21Z</time></trkpt><trkpt lat="40.46586980566993" lon="8.384912124816774"><ele>58.0</ele><time>2026-04-06T15:38:22Z</time></trkpt><trkpt lat="40.466046799010826" lon="8.384759404942745"><ele>58.0</ele><time>2026-04-06T15:38:23Z</time></trkpt><trkpt lat="40.46621170159731" lon="8.384584840249417"><ele>58.0</ele><time>2026-04-06T15:38:24Z</time></trkpt><trkpt lat="40.46636392578957" lon="8.384368709107086"><ele>56.5</ele><time>2026-04-06T15:38:25Z</time></trkpt><trkpt lat="40.46650626878866" lon="8.384134562026729"><ele>55.0</ele><time>2026-04-06T15:38:26Z</time></trkpt><trkpt lat="40.46665270601144" lon="8.383898149977751"><ele>46.5</ele><time>2026-04-06T15:38:27Z</time></trkpt><trkpt lat="40.46680308779102" lon="8.383662178547208"><ele>38.0</ele><time>2026-04-06T15:38:28Z</time></trkpt><trkpt lat="40.46695074961987" lon="8.38344817953124"><ele>38.33333333333333</ele><time>2026-04-06T15:38:29Z</time></trkpt><trkpt lat="40.467113580359346" lon="8.383252822343806"><ele>38.666666666666664</ele><time>2026-04-06T15:38:30Z</time></trkpt><trkpt lat="40.4672892998149" lon="8.383069100644585"><ele>39.0</ele><time>2026-04-06T15:38:31Z</time></trkpt><trkpt lat="40.46747158850508" lon="8.382890539492516"><ele>39.0</ele><time>2026-04-06T15:38:32Z</time></trkpt><trkpt lat="40.46765075571379" lon="8.38271970361533"><ele>39.0</ele><time>2026-04-06T15:38:33Z</time></trkpt><trkpt lat="40.467816446061235" lon="8.382551283781142"><ele>39.0</ele><time>2026-04-06T15:38:34Z</time></trkpt><trkpt lat="40.46795809916654" lon="8.382371280331308"><ele>40.0</ele><time>2026-04-06T15:38:35Z</time></trkpt><trkpt lat="40.468080869447206" lon="8.38216117106008"><ele>41.0</ele><time>2026-04-06T15:38:36Z</time></trkpt><trkpt lat="40.46817584383122" lon="8.381917612417435"><ele>42.0</ele><time>2026-04-06T15:38:37Z</time></trkpt><trkpt lat="40.4682713684719" lon="8.381670890479375"><ele>42.0</ele><time>2026-04-06T15:38:38Z</time></trkpt><trkpt lat="40.46836974175963" lon="8.381432791154841"><ele>42.0</ele><time>2026-04-06T15:38:39Z</time></trkpt><trkpt lat="40.46849054236464" lon="8.38122842912847"><ele>42.0</ele><time>2026-04-06T15:38:40Z</time></trkpt><trkpt lat="40.46862831709628" lon="8.381065425007149"><ele>39.333333333333336</ele><time>2026-04-06T15:38:41Z</time></trkpt><trkpt lat="40.46878505718425" lon="8.380938838046125"><ele>36.66666666666667</ele><time>2026-04-06T15:38:42Z</time></trkpt><trkpt lat="40.46896008914684" lon="8.38084063993332"><ele>34.0</ele><time>2026-04-06T15:38:43Z</time></trkpt><trkpt lat="40.469147667214756" lon="8.380799428327098"><ele>34.0</ele><time>2026-04-06T15:38:44Z</time></trkpt><trkpt lat="40.46932680356699" lon="8.380792204083969"><ele>34.0</ele><time>2026-04-06T15:38:45Z</time></trkpt><trkpt lat="40.469482578432675" lon="8.380828172728155"><ele>34.0</ele><time>2026-04-06T15:38:46Z</time></trkpt><trkpt lat="40.46962028578526" lon="8.380900684572037"><ele>33.75</ele><time>2026-04-06T15:38:47Z</time></trkpt><trkpt lat="40.46974492550773" lon="8.381008628759071"><ele>33.5</ele><time>2026-04-06T15:38:48Z</time></trkpt><trkpt lat="40.469837649987944" lon="8.38115660073928"><ele>33.25</ele><time>2026-04-06T15:38:49Z</time></trkpt><trkpt lat="40.469898156394" lon="8.381336083033338"><ele>33.0</ele><time>2026-04-06T15:38:50Z</time></trkpt><trkpt lat="40.46996203511049" lon="8.381528131023144"><ele>38.25</ele><time>2026-04-06T15:38:51Z</time></trkpt><trkpt lat="40.47004390393835" lon="8.381678268536316"><ele>43.5</ele><time>2026-04-06T15:38:52Z</time></trkpt><trkpt lat="40.470129196120936" lon="8.381792320465635"><ele>48.75</ele><time>2026-04-06T15:38:53Z</time></trkpt><trkpt lat="40.47023510481926" lon="8.381859294337398"><ele>54.0</ele><time>2026-04-06T15:38:54Z</time></trkpt><trkpt lat="40.47035960682349" lon="8.381855016867403"><ele>54.33333333333333</ele><time>2026-04-06T15:38:55Z</time></trkpt><trkpt lat="40.470493864191944" lon="8.381817112334165"><ele>54.666666666666664</ele><time>2026-04-06T15:38:56Z</time></trkpt><trkpt lat="40.470641314947756" lon="8.381742865881673"><ele>55.0</ele><time>2026-04-06T15:38:57Z</time></trkpt><trkpt lat="40.47079374859823" lon="8.381644494839199"><ele>55.0</ele><time>2026-04-06T15:38:58Z</time></trkpt><trkpt lat="40.47094020499235" lon="8.381506782842887"><ele>55.0</ele><time>2026-04-06T15:38:59Z</time></trkpt><trkpt lat="40.47109415663389" lon="8.381383865113998"><ele>55.0</ele><time>2026-04-06T15:39:00Z</time></trkpt><trkpt lat="40.471275272450065" lon="8.381340328228251"><ele>47.33333333333333</ele><time>2026-04-06T15:39:01Z</time></trkpt><trkpt lat="40.47148366399636" lon="8.381301449158212"><ele>39.666666666666664</ele><time>2026-04-06T15:39:02Z</time></trkpt><trkpt lat="40.47170842265581" lon="8.381238305713971"><ele>32.0</ele><time>2026-04-06T15:39:03Z</time></trkpt><trkpt lat="40.47194766294085" lon="8.381201466602743"><ele>35.5</ele><time>2026-04-06T15:39:04Z</time></trkpt><trkpt lat="40.47220759538971" lon="8.38115941260514"><ele>39.0</ele><time>2026-04-06T15:39:05Z</time></trkpt><trkpt lat="40.4724669274717" lon="8.381111458149002"><ele>39.0</ele><time>2026-04-06T15:39:06Z</time></trkpt><trkpt lat="40.47270165128518" lon="8.381062579960256"><ele>39.0</ele><time>2026-04-06T15:39:07Z</time></trkpt><trkpt lat="40.472922432585015" lon="8.381019573598357"><ele>40.0</ele><time>2026-04-06T15:39:08Z</time></trkpt><trkpt lat="40.47312172830163" lon="8.381008634977057"><ele>41.0</ele><time>2026-04-06T15:39:09Z</time></trkpt><trkpt lat="40.47332370289939" lon="8.381047288236818"><ele>42.0</ele><time>2026-04-06T15:39:10Z</time></trkpt><trkpt lat="40.473530803043296" lon="8.381122652390241"><ele>42.0</ele><time>2026-04-06T15:39:11Z</time></trkpt><trkpt lat="40.473753593593635" lon="8.381171406097545"><ele>42.0</ele><time>2026-04-06T15:39:12Z</time></trkpt><trkpt lat="40.4739806795357" lon="8.381157487677623"><ele>44.5</ele><time>2026-04-06T15:39:13Z</time></trkpt><trkpt lat="40.474218303405515" lon="8.381100409336813"><ele>47.0</ele><time>2026-04-06T15:39:14Z</time></trkpt><trkpt lat="40.47446574965298" lon="8.381015731671855"><ele>49.0</ele><time>2026-04-06T15:39:15Z</time></trkpt><trkpt lat="40.474703379203326" lon="8.380937535887341"><ele>51.0</ele><time>2026-04-06T15:39:16Z</time></trkpt><trkpt lat="40.474925094901934" lon="8.380871008274507"><ele>51.0</ele><time>2026-04-06T15:39:17Z</time></trkpt><trkpt lat="40.4751282851496" lon="8.380797916698187"><ele>51.0</ele><time>2026-04-06T15:39:18Z</time></trkpt><trkpt lat="40.47532165154479" lon="8.380675075749533"><ele>51.0</ele><time>2026-04-06T15:39:19Z</time></trkpt><trkpt lat="40.47550453490888" lon="8.380499345790609"><ele>48.666666666666664</ele><time>2026-04-06T15:39:20Z</time></trkpt><trkpt lat="40.47568517543813" lon="8.380315442046355"><ele>46.33333333333333</ele><time>2026-04-06T15:39:21Z</time></trkpt><trkpt lat="40.47585803899886" lon="8.38016673534442"><ele>44.0</ele><time>2026-04-06T15:39:22Z</time></trkpt><trkpt lat="40.47602323633628" lon="8.380063279886192"><ele>44.0</ele><time>2026-04-06T15:39:23Z</time></trkpt><trkpt lat="40.47620676499032" lon="8.37999115130472"><ele>44.0</ele><time>2026-04-06T15:39:24Z</time></trkpt><trkpt lat="40.47640825653155" lon="8.379962065986131"><ele>44.0</ele><time>2026-04-06T15:39:25Z</time></trkpt><trkpt lat="40.476624746036244" lon="8.379949886719238"><ele>46.0</ele><time>2026-04-06T15:39:26Z</time></trkpt><trkpt lat="40.47684643978376" lon="8.379923012699864"><ele>48.0</ele><time>2026-04-06T15:39:27Z</time></trkpt><trkpt lat="40.47704209860624" lon="8.379881450748288"><ele>50.0</ele><time>2026-04-06T15:39:28Z</time></trkpt><trkpt lat="40.477211730089536" lon="8.379806889484328"><ele>49.333333333333336</ele><time>2026-04-06T15:39:29Z</time></trkpt><trkpt lat="40.4773647106796" lon="8.379680704208718"><ele>48.66666666666667</ele><time>2026-04-06T15:39:30Z</time></trkpt><trkpt lat="40.477515786048556" lon="8.379501396540814"><ele>48.0</ele><time>2026-04-06T15:39:31Z</time></trkpt><trkpt lat="40.477679004803484" lon="8.379284945151483"><ele>48.0</ele><time>2026-04-06T15:39:32Z</time></trkpt><trkpt lat="40.477858860484986" lon="8.379065796214133"><ele>48.0</ele><time>2026-04-06T15:39:33Z</time></trkpt><trkpt lat="40.4780440194255" lon="8.378861876565589"><ele>45.0</ele><time>2026-04-06T15:39:34Z</time></trkpt><trkpt lat="40.47822148493863" lon="8.378669226937484"><ele>42.0</ele><time>2026-04-06T15:39:35Z</time></trkpt><trkpt lat="40.47839294685386" lon="8.37847475184784"><ele>42.0</ele><time>2026-04-06T15:39:36Z</time></trkpt><trkpt lat="40.47855917226116" lon="8.378309353362782"><ele>42.0</ele><time>2026-04-06T15:39:37Z</time></trkpt><trkpt lat="40.47873311151326" lon="8.37818516650276"><ele>42.0</ele><time>2026-04-06T15:39:38Z</time></trkpt><trkpt lat="40.47892996889002" lon="8.3780929268692"><ele>36.5</ele><time>2026-04-06T15:39:39Z</time></trkpt><trkpt lat="40.479143985975924" lon="8.378013399900976"><ele>31.0</ele><time>2026-04-06T15:39:40Z</time></trkpt><trkpt lat="40.47937182486189" lon="8.377932575353023"><ele>31.0</ele><time>2026-04-06T15:39:41Z</time></trkpt><trkpt lat="40.47960357142566" lon="8.3778536736352"><ele>31.0</ele><time>2026-04-06T15:39:42Z</time></trkpt><trkpt lat="40.47982325823446" lon="8.37778669246649"><ele>31.0</ele><time>2026-04-06T15:39:43Z</time></trkpt><trkpt lat="40.48004951872468" lon="8.377729927226607"><ele>31.0</ele><time>2026-04-06T15:39:44Z</time></trkpt><trkpt lat="40.48026421343941" lon="8.37768297299875"><ele>31.0</ele><time>2026-04-06T15:39:45Z</time></trkpt><trkpt lat="40.480470895231285" lon="8.377653362488596"><ele>30.0</ele><time>2026-04-06T15:39:46Z</time></trkpt><trkpt lat="40.48067385780801" lon="8.377648804747345"><ele>29.0</ele><time>2026-04-06T15:39:47Z</time></trkpt><trkpt lat="40.48088844652471" lon="8.377668918867357"><ele>28.0</ele><time>2026-04-06T15:39:48Z</time></trkpt><trkpt lat="40.481110444380136" lon="8.37770464174582"><ele>29.0</ele><time>2026-04-06T15:39:49Z</time></trkpt><trkpt lat="40.481340141656396" lon="8.377743088707104"><ele>30.0</ele><time>2026-04-06T15:39:50Z</time></trkpt><trkpt lat="40.48157544886147" lon="8.377782177099341"><ele>30.0</ele><time>2026-04-06T15:39:51Z</time></trkpt><trkpt lat="40.481811663952385" lon="8.377822176211119"><ele>30.0</ele><time>2026-04-06T15:39:52Z</time></trkpt><trkpt lat="40.4820485779504" lon="8.377862513317984"><ele>32.0</ele><time>2026-04-06T15:39:53Z</time></trkpt><trkpt lat="40.48228336678583" lon="8.377900344133923"><ele>34.0</ele><time>2026-04-06T15:39:54Z</time></trkpt><trkpt lat="40.4824988600509" lon="8.377930351868352"><ele>34.0</ele><time>2026-04-06T15:39:55Z</time></trkpt><trkpt lat="40.4827045138661" lon="8.377942839553874"><ele>34.0</ele><time>2026-04-06T15:39:56Z</time></trkpt><trkpt lat="40.482913772618694" lon="8.377917769199067"><ele>34.0</ele><time>2026-04-06T15:39:57Z</time></trkpt><trkpt lat="40.483127424320415" lon="8.377850583191055"><ele>35.5</ele><time>2026-04-06T15:39:58Z</time></trkpt><trkpt lat="40.48334018559073" lon="8.37774392423286"><ele>37.0</ele><time>2026-04-06T15:39:59Z</time></trkpt><trkpt lat="40.48355766138263" lon="8.377610903649616"><ele>36.66666666666667</ele><time>2026-04-06T15:40:00Z</time></trkpt><trkpt lat="40.48376570231704" lon="8.377471681523492"><ele>36.333333333333336</ele><time>2026-04-06T15:40:01Z</time></trkpt><trkpt lat="40.48395870313183" lon="8.377351580384696"><ele>36.0</ele><time>2026-04-06T15:40:02Z</time></trkpt><trkpt lat="40.48413535267792" lon="8.377254901123688"><ele>36.333333333333336</ele><time>2026-04-06T15:40:03Z</time></trkpt><trkpt lat="40.48430214068163" lon="8.377182551494979"><ele>36.66666666666667</ele><time>2026-04-06T15:40:04Z</time></trkpt><trkpt lat="40.48446423898576" lon="8.377171310279657"><ele>37.0</ele><time>2026-04-06T15:40:05Z</time></trkpt><trkpt lat="40.48461810681605" lon="8.377186592311322"><ele>37.0</ele><time>2026-04-06T15:40:06Z</time></trkpt><trkpt lat="40.484780319705855" lon="8.37724008233604"><ele>37.0</ele><time>2026-04-06T15:40:07Z</time></trkpt><trkpt lat="40.48493448277745" lon="8.377328002609312"><ele>37.0</ele><time>2026-04-06T15:40:08Z</time></trkpt><trkpt lat="40.48508231435944" lon="8.3774541585127"><ele>37.0</ele><time>2026-04-06T15:40:09Z</time></trkpt><trkpt lat="40.48520862136972" lon="8.377616448511935"><ele>37.0</ele><time>2026-04-06T15:40:10Z</time></trkpt><trkpt lat="40.48531259040999" lon="8.37781039344415"><ele>37.0</ele><time>2026-04-06T15:40:11Z</time></trkpt><trkpt lat="40.4854037999189" lon="8.378021358999947"><ele>38.0</ele><time>2026-04-06T15:40:12Z</time></trkpt><trkpt lat="40.485507942248" lon="8.37819768220912"><ele>39.0</ele><time>2026-04-06T15:40:13Z</time></trkpt><trkpt lat="40.48561099550177" lon="8.378348451774265"><ele>40.0</ele><time>2026-04-06T15:40:14Z</time></trkpt><trkpt lat="40.485734737291494" lon="8.378459445422164"><ele>40.0</ele><time>2026-04-06T15:40:15Z</time></trkpt><trkpt lat="40.485871364685494" lon="8.378511128708654"><ele>40.0</ele><time>2026-04-06T15:40:16Z</time></trkpt><trkpt lat="40.48602596391649" lon="8.378509520309168"><ele>40.0</ele><time>2026-04-06T15:40:17Z</time></trkpt><trkpt lat="40.48619794460483" lon="8.378472104395266"><ele>39.333333333333336</ele><time>2026-04-06T15:40:18Z</time></trkpt><trkpt lat="40.48638006245602" lon="8.378390379290867"><ele>38.666666666666664</ele><time>2026-04-06T15:40:19Z</time></trkpt><trkpt lat="40.48656182064104" lon="8.378280759726318"><ele>38.0</ele><time>2026-04-06T15:40:20Z</time></trkpt><trkpt lat="40.486729382671776" lon="8.378162785244633"><ele>38.0</ele><time>2026-04-06T15:40:21Z</time></trkpt><trkpt lat="40.48686718557892" lon="8.378023081631968"><ele>38.0</ele><time>2026-04-06T15:40:22Z</time></trkpt><trkpt lat="40.486961505731536" lon="8.37784412279067"><ele>38.0</ele><time>2026-04-06T15:40:23Z</time></trkpt><trkpt lat="40.48701946976502" lon="8.377628172770724"><ele>37.0</ele><time>2026-04-06T15:40:24Z</time></trkpt><trkpt lat="40.487049732549366" lon="8.377400169055395"><ele>36.0</ele><time>2026-04-06T15:40:25Z</time></trkpt><trkpt lat="40.48708874250602" lon="8.377172657824326"><ele>35.0</ele><time>2026-04-06T15:40:26Z</time></trkpt><trkpt lat="40.487163859065035" lon="8.376963499805573"><ele>35.0</ele><time>2026-04-06T15:40:27Z</time></trkpt><trkpt lat="40.48726883207497" lon="8.376772083352417"><ele>35.0</ele><time>2026-04-06T15:40:28Z</time></trkpt><trkpt lat="40.48741060980175" lon="8.37662522662308"><ele>35.0</ele><time>2026-04-06T15:40:29Z</time></trkpt><trkpt lat="40.487548898674056" lon="8.37648966342706"><ele>35.0</ele><time>2026-04-06T15:40:30Z</time></trkpt><trkpt lat="40.48768798006724" lon="8.37635445480697"><ele>35.0</ele><time>2026-04-06T15:40:31Z</time></trkpt><trkpt lat="40.487830865428926" lon="8.376249050426443"><ele>35.0</ele><time>2026-04-06T15:40:32Z</time></trkpt><trkpt lat="40.4879588910947" lon="8.376149579548771"><ele>33.25</ele><time>2026-04-06T15:40:33Z</time></trkpt><trkpt lat="40.488075590039024" lon="8.376054797718178"><ele>31.5</ele><time>2026-04-06T15:40:34Z</time></trkpt><trkpt lat="40.48818736904902" lon="8.375969379593988"><ele>29.75</ele><time>2026-04-06T15:40:35Z</time></trkpt><trkpt lat="40.4883027028098" lon="8.375929019852604"><ele>28.0</ele><time>2026-04-06T15:40:36Z</time></trkpt><trkpt lat="40.48842362778015" lon="8.37588682892622"><ele>28.0</ele><time>2026-04-06T15:40:37Z</time></trkpt><trkpt lat="40.48855359795779" lon="8.375881119970078"><ele>28.0</ele><time>2026-04-06T15:40:38Z</time></trkpt><trkpt lat="40.48868468037958" lon="8.375905043176163"><ele>28.0</ele><time>2026-04-06T15:40:39Z</time></trkpt><trkpt lat="40.48880958595621" lon="8.375938743834658"><ele>28.0</ele><time>2026-04-06T15:40:40Z</time></trkpt><trkpt lat="40.488903524226245" lon="8.376040170041527"><ele>28.5</ele><time>2026-04-06T15:40:41Z</time></trkpt><trkpt lat="40.488989960483174" lon="8.376146770354305"><ele>29.0</ele><time>2026-04-06T15:40:42Z</time></trkpt><trkpt lat="40.48905825058564" lon="8.376279839807758"><ele>29.5</ele><time>2026-04-06T15:40:43Z</time></trkpt><trkpt lat="40.48910834064925" lon="8.376432096114561"><ele>30.0</ele><time>2026-04-06T15:40:44Z</time></trkpt><trkpt lat="40.489143072868984" lon="8.376593163676336"><ele>31.75</ele><time>2026-04-06T15:40:45Z</time></trkpt><trkpt lat="40.48916947980681" lon="8.37675941450943"><ele>33.5</ele><time>2026-04-06T15:40:46Z</time></trkpt><trkpt lat="40.489192458493434" lon="8.376921478452045"><ele>35.25</ele><time>2026-04-06T15:40:47Z</time></trkpt><trkpt lat="40.4892298173492" lon="8.377085471243596"><ele>37.0</ele><time>2026-04-06T15:40:48Z</time></trkpt><trkpt lat="40.48925218237953" lon="8.377250889094423"><ele>39.25</ele><time>2026-04-06T15:40:49Z</time></trkpt><trkpt lat="40.489275027058206" lon="8.377410913353737"><ele>41.5</ele><time>2026-04-06T15:40:50Z</time></trkpt><trkpt lat="40.48930691958631" lon="8.377569417816956"><ele>43.75</ele><time>2026-04-06T15:40:51Z</time></trkpt><trkpt lat="40.48936001162219" lon="8.377724176329487"><ele>46.0</ele><time>2026-04-06T15:40:52Z</time></trkpt><trkpt lat="40.489448465097794" lon="8.377858767993771"><ele>46.0</ele><time>2026-04-06T15:40:53Z</time></trkpt><trkpt lat="40.48954882803242" lon="8.378000999028325"><ele>46.0</ele><time>2026-04-06T15:40:54Z</time></trkpt><trkpt lat="40.48963889281577" lon="8.378119237536362"><ele>46.0</ele><time>2026-04-06T15:40:55Z</time></trkpt><trkpt lat="40.48971780079097" lon="8.378223844902012"><ele>46.0</ele><time>2026-04-06T15:40:56Z</time></trkpt><trkpt lat="40.48979666467626" lon="8.378330930943287"><ele>47.199999999999996</ele><time>2026-04-06T15:40:57Z</time></trkpt><trkpt lat="40.48987163213663" lon="8.378412462122615"><ele>48.4</ele><time>2026-04-06T15:40:58Z</time></trkpt><trkpt lat="40.489949858405225" lon="8.378462624459791"><ele>49.6</ele><time>2026-04-06T15:40:59Z</time></trkpt><trkpt lat="40.49004537901954" lon="8.378509991927602"><ele>50.8</ele><time>2026-04-06T15:41:00Z</time></trkpt><trkpt lat="40.4901626707203" lon="8.378534126898739"><ele>52.0</ele><time>2026-04-06T15:41:01Z</time></trkpt><trkpt lat="40.490288115532024" lon="8.378531410477102"><ele>52.0</ele><time>2026-04-06T15:41:01.999Z</time></trkpt><trkpt lat="40.49040304947937" lon="8.37850081933958"><ele>52.0</ele><time>2026-04-06T15:41:02.999Z</time></trkpt><trkpt lat="40.49050898172219" lon="8.37844347884359"><ele>52.0</ele><time>2026-04-06T15:41:03.999Z</time></trkpt><trkpt lat="40.49060758433113" lon="8.378363936470334"><ele>52.0</ele><time>2026-04-06T15:41:04.999Z</time></trkpt><trkpt lat="40.49068386359845" lon="8.37827069060852"><ele>53.5</ele><time>2026-04-06T15:41:05.999Z</time></trkpt><trkpt lat="40.49075399573668" lon="8.378156132956834"><ele>55.0</ele><time>2026-04-06T15:41:06.999Z</time></trkpt><trkpt lat="40.49081829621878" lon="8.378017934676736"><ele>56.5</ele><time>2026-04-06T15:41:07.999Z</time></trkpt><trkpt lat="40.49085772438891" lon="8.377859843626274"><ele>58.0</ele><time>2026-04-06T15:41:08.999Z</time></trkpt><trkpt lat="40.49086441378204" lon="8.37770055873735"><ele>58.0</ele><time>2026-04-06T15:41:09.999Z</time></trkpt><trkpt lat="40.49084050414813" lon="8.377523863666724"><ele>58.0</ele><time>2026-04-06T15:41:10.999Z</time></trkpt><trkpt lat="40.49079445561901" lon="8.377348741093188"><ele>58.0</ele><time>2026-04-06T15:41:11.999Z</time></trkpt><trkpt lat="40.49072636460768" lon="8.377187682459828"><ele>58.0</ele><time>2026-04-06T15:41:12.999Z</time></trkpt><trkpt lat="40.49065675096149" lon="8.377047924669258"><ele>58.75</ele><time>2026-04-06T15:41:13.999Z</time></trkpt><trkpt lat="40.49059006921502" lon="8.376919718549784"><ele>59.5</ele><time>2026-04-06T15:41:14.999Z</time></trkpt><trkpt lat="40.4905322776398" lon="8.376800106476473"><ele>60.25</ele><time>2026-04-06T15:41:15.999Z</time></trkpt><trkpt lat="40.49047057134482" lon="8.376666376516347"><ele>61.0</ele><time>2026-04-06T15:41:16.999Z</time></trkpt><trkpt lat="40.49040563261496" lon="8.376521777487403"><ele>57.0</ele><time>2026-04-06T15:41:17.999Z</time></trkpt><trkpt lat="40.490353585551254" lon="8.376364823503613"><ele>53.0</ele><time>2026-04-06T15:41:18.999Z</time></trkpt><trkpt lat="40.49032599505518" lon="8.37621462769663"><ele>49.0</ele><time>2026-04-06T15:41:19.999Z</time></trkpt><trkpt lat="40.4903189855564" lon="8.376061235551434"><ele>45.0</ele><time>2026-04-06T15:41:20.999Z</time></trkpt><trkpt lat="40.490340876794036" lon="8.375900842070758"><ele>45.0</ele><time>2026-04-06T15:41:21.999Z</time></trkpt><trkpt lat="40.49038346767343" lon="8.375744400582542"><ele>45.0</ele><time>2026-04-06T15:41:22.999Z</time></trkpt><trkpt lat="40.49044437276806" lon="8.375592453000214"><ele>45.0</ele><time>2026-04-06T15:41:23.999Z</time></trkpt><trkpt lat="40.49052024532168" lon="8.375457235184792"><ele>45.0</ele><time>2026-04-06T15:41:24.999Z</time></trkpt><trkpt lat="40.49060924215355" lon="8.37534463599718"><ele>44.25</ele><time>2026-04-06T15:41:25.999Z</time></trkpt><trkpt lat="40.490716564233324" lon="8.375243289329422"><ele>43.5</ele><time>2026-04-06T15:41:26.999Z</time></trkpt><trkpt lat="40.49083663455399" lon="8.375146939261546"><ele>42.75</ele><time>2026-04-06T15:41:27.999Z</time></trkpt><trkpt lat="40.49095745498945" lon="8.375056479396068"><ele>42.0</ele><time>2026-04-06T15:41:28.999Z</time></trkpt><trkpt lat="40.49106841979571" lon="8.374966832217577"><ele>42.0</ele><time>2026-04-06T15:41:29.999Z</time></trkpt><trkpt lat="40.49117569147334" lon="8.374874294207343"><ele>42.0</ele><time>2026-04-06T15:41:30.999Z</time></trkpt><trkpt lat="40.49127906729031" lon="8.374784715924351"><ele>42.0</ele><time>2026-04-06T15:41:31.999Z</time></trkpt><trkpt lat="40.49138416341257" lon="8.374704196291313"><ele>42.0</ele><time>2026-04-06T15:41:32.999Z</time></trkpt><trkpt lat="40.49148224932396" lon="8.374621553919269"><ele>40.0</ele><time>2026-04-06T15:41:33.999Z</time></trkpt><trkpt lat="40.49157641721208" lon="8.374543249772406"><ele>38.0</ele><time>2026-04-06T15:41:34.999Z</time></trkpt><trkpt lat="40.49167127126755" lon="8.374466381752466"><ele>36.0</ele><time>2026-04-06T15:41:35.999Z</time></trkpt><trkpt lat="40.491762364946595" lon="8.374392127334987"><ele>34.0</ele><time>2026-04-06T15:41:36.999Z</time></trkpt><trkpt lat="40.49185667422604" lon="8.374312722516585"><ele>32.0</ele><time>2026-04-06T15:41:37.999Z</time></trkpt><trkpt lat="40.49195647490259" lon="8.374233745467814"><ele>32.0</ele><time>2026-04-06T15:41:38.999Z</time></trkpt><trkpt lat="40.492052997582064" lon="8.374164177596855"><ele>32.0</ele><time>2026-04-06T15:41:39.999Z</time></trkpt><trkpt lat="40.49215218867901" lon="8.374104952694815"><ele>32.0</ele><time>2026-04-06T15:41:40.999Z</time></trkpt><trkpt lat="40.49225735407815" lon="8.374072065682173"><ele>32.0</ele><time>2026-04-06T15:41:41.999Z</time></trkpt><trkpt lat="40.49236637948194" lon="8.374050263790663"><ele>32.0</ele><time>2026-04-06T15:41:42.999Z</time></trkpt><trkpt lat="40.49248002692751" lon="8.374026929516353"><ele>33.75</ele><time>2026-04-06T15:41:43.999Z</time></trkpt><trkpt lat="40.492588971026215" lon="8.374000581530602"><ele>35.5</ele><time>2026-04-06T15:41:44.999Z</time></trkpt><trkpt lat="40.4926938509013" lon="8.373973243171713"><ele>37.25</ele><time>2026-04-06T15:41:45.999Z</time></trkpt><trkpt lat="40.49280347424629" lon="8.373946464639964"><ele>39.0</ele><time>2026-04-06T15:41:46.999Z</time></trkpt><trkpt lat="40.49292244112167" lon="8.373912128832503"><ele>39.5</ele><time>2026-04-06T15:41:47.999Z</time></trkpt><trkpt lat="40.49304681541062" lon="8.37386215494591"><ele>40.0</ele><time>2026-04-06T15:41:48.999Z</time></trkpt><trkpt lat="40.493170132954376" lon="8.373764558995648"><ele>40.5</ele><time>2026-04-06T15:41:49.999Z</time></trkpt><trkpt lat="40.49328407850618" lon="8.373625850944709"><ele>41.0</ele><time>2026-04-06T15:41:50.999Z</time></trkpt><trkpt lat="40.49339407441021" lon="8.373439855551082"><ele>37.666666666666664</ele><time>2026-04-06T15:41:51.999Z</time></trkpt><trkpt lat="40.4935120000361" lon="8.373247749666739"><ele>34.333333333333336</ele><time>2026-04-06T15:41:52.999Z</time></trkpt><trkpt lat="40.49362871801813" lon="8.373076736975746"><ele>31.0</ele><time>2026-04-06T15:41:53.999Z</time></trkpt><trkpt lat="40.49374007710076" lon="8.372924784543285"><ele>29.333333333333336</ele><time>2026-04-06T15:41:54.999Z</time></trkpt><trkpt lat="40.493844418007136" lon="8.372773906739964"><ele>27.666666666666664</ele><time>2026-04-06T15:41:55.999Z</time></trkpt><trkpt lat="40.493945826001124" lon="8.37262263359939"><ele>26.0</ele><time>2026-04-06T15:41:56.999Z</time></trkpt><trkpt lat="40.49404799554912" lon="8.372477842220983"><ele>26.0</ele><time>2026-04-06T15:41:57.999Z</time></trkpt><trkpt lat="40.49416159945671" lon="8.372346009585392"><ele>26.0</ele><time>2026-04-06T15:41:58.999Z</time></trkpt><trkpt lat="40.49429689070806" lon="8.372238926007887"><ele>26.0</ele><time>2026-04-06T15:41:59.999Z</time></trkpt><trkpt lat="40.49444841240643" lon="8.372153002172322"><ele>24.0</ele><time>2026-04-06T15:42:00.999Z</time></trkpt><trkpt lat="40.49460410605424" lon="8.372076987466663"><ele>22.0</ele><time>2026-04-06T15:42:01.999Z</time></trkpt><trkpt lat="40.49475787652804" lon="8.372000908997496"><ele>20.0</ele><time>2026-04-06T15:42:02.999Z</time></trkpt><trkpt lat="40.49490354775641" lon="8.371924984862162"><ele>20.0</ele><time>2026-04-06T15:42:03.999Z</time></trkpt><trkpt lat="40.49503957700613" lon="8.371852828261643"><ele>20.0</ele><time>2026-04-06T15:42:04.999Z</time></trkpt><trkpt lat="40.4951679745086" lon="8.371783874601046"><ele>20.0</ele><time>2026-04-06T15:42:05.999Z</time></trkpt><trkpt lat="40.49529359671339" lon="8.371717199051828"><ele>20.0</ele><time>2026-04-06T15:42:07Z</time></trkpt><trkpt lat="40.49542898663144" lon="8.37165354307451"><ele>19.75</ele><time>2026-04-06T15:42:08Z</time></trkpt><trkpt lat="40.495568263633146" lon="8.371600866849949"><ele>19.5</ele><time>2026-04-06T15:42:09Z</time></trkpt><trkpt lat="40.49570664060102" lon="8.371552561950589"><ele>19.25</ele><time>2026-04-06T15:42:10Z</time></trkpt><trkpt lat="40.49585136721262" lon="8.371497072071955"><ele>19.0</ele><time>2026-04-06T15:42:11Z</time></trkpt><trkpt lat="40.496002836289776" lon="8.371433807752133"><ele>19.0</ele><time>2026-04-06T15:42:12Z</time></trkpt><trkpt lat="40.49615734803583" lon="8.3713665334416"><ele>19.0</ele><time>2026-04-06T15:42:13Z</time></trkpt><trkpt lat="40.49631037763755" lon="8.371305212713402"><ele>19.0</ele><time>2026-04-06T15:42:14Z</time></trkpt><trkpt lat="40.49645703431072" lon="8.371252187551745"><ele>18.25</ele><time>2026-04-06T15:42:15Z</time></trkpt><trkpt lat="40.49659361954164" lon="8.371202089132995"><ele>17.5</ele><time>2026-04-06T15:42:16Z</time></trkpt><trkpt lat="40.496721647586824" lon="8.371153654643914"><ele>16.75</ele><time>2026-04-06T15:42:17Z</time></trkpt><trkpt lat="40.49684508919429" lon="8.371108720355627"><ele>16.0</ele><time>2026-04-06T15:42:18Z</time></trkpt><trkpt lat="40.49696517598688" lon="8.371067030999997"><ele>16.0</ele><time>2026-04-06T15:42:19Z</time></trkpt><trkpt lat="40.49707203118229" lon="8.371015768272796"><ele>16.0</ele><time>2026-04-06T15:42:20Z</time></trkpt><trkpt lat="40.49716950805202" lon="8.370940991720502"><ele>16.0</ele><time>2026-04-06T15:42:21Z</time></trkpt><trkpt lat="40.49724573841633" lon="8.370842622904767"><ele>16.0</ele><time>2026-04-06T15:42:22Z</time></trkpt><trkpt lat="40.4972988606375" lon="8.370716155083917"><ele>16.0</ele><time>2026-04-06T15:42:23Z</time></trkpt><trkpt lat="40.49733296707817" lon="8.370566076848288"><ele>15.4</ele><time>2026-04-06T15:42:24Z</time></trkpt><trkpt lat="40.497352118309415" lon="8.370410361689881"><ele>14.8</ele><time>2026-04-06T15:42:25Z</time></trkpt><trkpt lat="40.49737151754224" lon="8.370267424848697"><ele>14.200000000000001</ele><time>2026-04-06T15:42:26Z</time></trkpt><trkpt lat="40.497392633854716" lon="8.370134073394333"><ele>13.600000000000001</ele><time>2026-04-06T15:42:27Z</time></trkpt><trkpt lat="40.49741444118913" lon="8.370003665249996"><ele>13.0</ele><time>2026-04-06T15:42:28Z</time></trkpt><trkpt lat="40.49743620063413" lon="8.369874568744512"><ele>13.0</ele><time>2026-04-06T15:42:29Z</time></trkpt><trkpt lat="40.49745611993705" lon="8.36974558538"><ele>13.0</ele><time>2026-04-06T15:42:30Z</time></trkpt><trkpt lat="40.49746607926125" lon="8.369628444602599"><ele>13.0</ele><time>2026-04-06T15:42:31Z</time></trkpt><trkpt lat="40.49748108915415" lon="8.369519556764844"><ele>13.0</ele><time>2026-04-06T15:42:32Z</time></trkpt><trkpt lat="40.49749983176938" lon="8.369409931809328"><ele>13.0</ele><time>2026-04-06T15:42:33Z</time></trkpt><trkpt lat="40.49752028332907" lon="8.369287955245746"><ele>12.25</ele><time>2026-04-06T15:42:34Z</time></trkpt><trkpt lat="40.49754194826299" lon="8.36916179064518"><ele>11.5</ele><time>2026-04-06T15:42:35Z</time></trkpt><trkpt lat="40.49756692064214" lon="8.369015337385237"><ele>10.75</ele><time>2026-04-06T15:42:36Z</time></trkpt><trkpt lat="40.497591622114754" lon="8.368859402790111"><ele>10.0</ele><time>2026-04-06T15:42:37Z</time></trkpt><trkpt lat="40.49761870315627" lon="8.368695296368102"><ele>10.0</ele><time>2026-04-06T15:42:38Z</time></trkpt><trkpt lat="40.497646161419674" lon="8.368522419897666"><ele>10.0</ele><time>2026-04-06T15:42:39Z</time></trkpt><trkpt lat="40.49767241698487" lon="8.368353081268504"><ele>10.0</ele><time>2026-04-06T15:42:40Z</time></trkpt><trkpt lat="40.49770663566785" lon="8.368190912509233"><ele>10.0</ele><time>2026-04-06T15:42:41Z</time></trkpt><trkpt lat="40.4977655471208" lon="8.368063557944884"><ele>11.5</ele><time>2026-04-06T15:42:42Z</time></trkpt><trkpt lat="40.497852017250175" lon="8.367973011702864"><ele>13.0</ele><time>2026-04-06T15:42:43Z</time></trkpt><trkpt lat="40.49796475793587" lon="8.367919911573926"><ele>14.5</ele><time>2026-04-06T15:42:44Z</time></trkpt><trkpt lat="40.49808693168947" lon="8.367908121684152"><ele>16.0</ele><time>2026-04-06T15:42:45Z</time></trkpt><trkpt lat="40.49820850189495" lon="8.367964808017932"><ele>15.333333333333332</ele><time>2026-04-06T15:42:46Z</time></trkpt><trkpt lat="40.49834609307323" lon="8.36800760119674"><ele>14.666666666666668</ele><time>2026-04-06T15:42:47Z</time></trkpt><trkpt lat="40.49850259812227" lon="8.368071297547989"><ele>14.0</ele><time>2026-04-06T15:42:48Z</time></trkpt><trkpt lat="40.498671093032236" lon="8.368110154563073"><ele>14.75</ele><time>2026-04-06T15:42:49Z</time></trkpt><trkpt lat="40.498814183293696" lon="8.368115959934846"><ele>15.5</ele><time>2026-04-06T15:42:50Z</time></trkpt><trkpt lat="40.49895260996337" lon="8.368093066218375"><ele>16.25</ele><time>2026-04-06T15:42:51Z</time></trkpt><trkpt lat="40.49908889383743" lon="8.36803882309667"><ele>17.0</ele><time>2026-04-06T15:42:52Z</time></trkpt><trkpt lat="40.49921536973733" lon="8.367937153832791"><ele>21.25</ele><time>2026-04-06T15:42:53Z</time></trkpt><trkpt lat="40.499316493246425" lon="8.367803559914943"><ele>25.5</ele><time>2026-04-06T15:42:54Z</time></trkpt><trkpt lat="40.4993948263962" lon="8.367647233662714"><ele>29.75</ele><time>2026-04-06T15:42:55Z</time></trkpt><trkpt lat="40.49945315923809" lon="8.367466084875138"><ele>34.0</ele><time>2026-04-06T15:42:56Z</time></trkpt><trkpt lat="40.49948487222202" lon="8.36726230523189"><ele>37.0</ele><time>2026-04-06T15:42:57Z</time></trkpt><trkpt lat="40.49949413218728" lon="8.367065308439516"><ele>40.0</ele><time>2026-04-06T15:42:58Z</time></trkpt><trkpt lat="40.49949268559384" lon="8.36689884495799"><ele>43.0</ele><time>2026-04-06T15:42:59Z</time></trkpt><trkpt lat="40.499516908532485" lon="8.366730203920246"><ele>46.0</ele><time>2026-04-06T15:43:00Z</time></trkpt><trkpt lat="40.49956636903228" lon="8.366564251415198"><ele>47.0</ele><time>2026-04-06T15:43:01Z</time></trkpt><trkpt lat="40.499639341165064" lon="8.36640722626933"><ele>48.0</ele><time>2026-04-06T15:43:02Z</time></trkpt><trkpt lat="40.4997392743376" lon="8.366279488416835"><ele>49.0</ele><time>2026-04-06T15:43:03Z</time></trkpt><trkpt lat="40.49985763759136" lon="8.366170213140506"><ele>50.0</ele><time>2026-04-06T15:43:04Z</time></trkpt><trkpt lat="40.49998677326627" lon="8.366072253211298"><ele>50.0</ele><time>2026-04-06T15:43:05Z</time></trkpt><trkpt lat="40.50013508602791" lon="8.365973383057138"><ele>50.0</ele><time>2026-04-06T15:43:06Z</time></trkpt><trkpt lat="40.500297977436205" lon="8.365862555941094"><ele>50.0</ele><time>2026-04-06T15:43:07Z</time></trkpt><trkpt lat="40.500459033939066" lon="8.365753746881994"><ele>47.66666666666667</ele><time>2026-04-06T15:43:08Z</time></trkpt><trkpt lat="40.500602243445734" lon="8.365657704092776"><ele>45.333333333333336</ele><time>2026-04-06T15:43:09Z</time></trkpt><trkpt lat="40.50072885460082" lon="8.365570769543309"><ele>43.0</ele><time>2026-04-06T15:43:10Z</time></trkpt><trkpt lat="40.50085775455858" lon="8.365478834653816"><ele>44.5</ele><time>2026-04-06T15:43:11Z</time></trkpt><trkpt lat="40.500975093230835" lon="8.365388393561346"><ele>46.0</ele><time>2026-04-06T15:43:12Z</time></trkpt><trkpt lat="40.501074833869964" lon="8.365296287042192"><ele>47.5</ele><time>2026-04-06T15:43:13Z</time></trkpt><trkpt lat="40.50117258230913" lon="8.36519264147514"><ele>49.0</ele><time>2026-04-06T15:43:14Z</time></trkpt><trkpt lat="40.50127001171947" lon="8.36507555727959"><ele>49.0</ele><time>2026-04-06T15:43:15Z</time></trkpt><trkpt lat="40.50135138058035" lon="8.364943355001243"><ele>49.0</ele><time>2026-04-06T15:43:16Z</time></trkpt><trkpt lat="40.50141639860156" lon="8.364785135942139"><ele>49.0</ele><time>2026-04-06T15:43:17Z</time></trkpt><trkpt lat="40.501480115683265" lon="8.36460445525797"><ele>49.0</ele><time>2026-04-06T15:43:18Z</time></trkpt><trkpt lat="40.50153028095594" lon="8.364424321284279"><ele>52.75</ele><time>2026-04-06T15:43:19Z</time></trkpt><trkpt lat="40.501576637726174" lon="8.364240101003459"><ele>56.5</ele><time>2026-04-06T15:43:20Z</time></trkpt><trkpt lat="40.50161982120066" lon="8.364056135195582"><ele>60.25</ele><time>2026-04-06T15:43:21Z</time></trkpt><trkpt lat="40.50166418354426" lon="8.363869703602626"><ele>64.0</ele><time>2026-04-06T15:43:22Z</time></trkpt><trkpt lat="40.50171080224007" lon="8.36366893846289"><ele>66.33333333333333</ele><time>2026-04-06T15:43:23Z</time></trkpt><trkpt lat="40.50176260546711" lon="8.363434984507476"><ele>68.66666666666667</ele><time>2026-04-06T15:43:24Z</time></trkpt><trkpt lat="40.50182241105137" lon="8.363168240308482"><ele>71.0</ele><time>2026-04-06T15:43:25Z</time></trkpt><trkpt lat="40.50188283288177" lon="8.362910201567766"><ele>73.66666666666667</ele><time>2026-04-06T15:43:26Z</time></trkpt><trkpt lat="40.50193366659592" lon="8.362693045314986"><ele>76.33333333333333</ele><time>2026-04-06T15:43:27Z</time></trkpt><trkpt lat="40.501980049327216" lon="8.362475349924887"><ele>79.0</ele><time>2026-04-06T15:43:28Z</time></trkpt><trkpt lat="40.50202907470077" lon="8.362236706259521"><ele>72.33333333333333</ele><time>2026-04-06T15:43:29Z</time></trkpt><trkpt lat="40.50209656703257" lon="8.36199201733685"><ele>65.66666666666667</ele><time>2026-04-06T15:43:30Z</time></trkpt><trkpt lat="40.50213830089925" lon="8.361746332745406"><ele>59.0</ele><time>2026-04-06T15:43:31Z</time></trkpt><trkpt lat="40.50219200900314" lon="8.36152848042412"><ele>60.66666666666667</ele><time>2026-04-06T15:43:32Z</time></trkpt><trkpt lat="40.50223971594666" lon="8.361329305550138"><ele>62.33333333333333</ele><time>2026-04-06T15:43:33Z</time></trkpt><trkpt lat="40.50227979956752" lon="8.361125100929481"><ele>64.0</ele><time>2026-04-06T15:43:34Z</time></trkpt><trkpt lat="40.5023418740539" lon="8.360893940098302"><ele>64.0</ele><time>2026-04-06T15:43:35Z</time></trkpt><trkpt lat="40.502381768934384" lon="8.360620781956793"><ele>64.0</ele><time>2026-04-06T15:43:36Z</time></trkpt><trkpt lat="40.50239695054593" lon="8.36034281496772"><ele>64.0</ele><time>2026-04-06T15:43:37Z</time></trkpt><trkpt lat="40.50242532229473" lon="8.360095006306066"><ele>65.66666666666666</ele><time>2026-04-06T15:43:38Z</time></trkpt><trkpt lat="40.50245902153013" lon="8.359867070555712"><ele>67.33333333333333</ele><time>2026-04-06T15:43:39Z</time></trkpt><trkpt lat="40.502513363786115" lon="8.359651226487856"><ele>69.0</ele><time>2026-04-06T15:43:40Z</time></trkpt><trkpt lat="40.5025880661905" lon="8.359434192924875"><ele>71.0</ele><time>2026-04-06T15:43:41Z</time></trkpt><trkpt lat="40.50266917214451" lon="8.35922853140616"><ele>73.0</ele><time>2026-04-06T15:43:42Z</time></trkpt><trkpt lat="40.50275487365688" lon="8.35901465270564"><ele>75.0</ele><time>2026-04-06T15:43:43Z</time></trkpt><trkpt lat="40.502834190562574" lon="8.35882389503972"><ele>77.5</ele><time>2026-04-06T15:43:44Z</time></trkpt><trkpt lat="40.502909430624356" lon="8.358635686356338"><ele>80.0</ele><time>2026-04-06T15:43:45Z</time></trkpt><trkpt lat="40.502978889738884" lon="8.3584651157981"><ele>82.5</ele><time>2026-04-06T15:43:46Z</time></trkpt><trkpt lat="40.503055099819264" lon="8.35831660112164"><ele>85.0</ele><time>2026-04-06T15:43:47Z</time></trkpt><trkpt lat="40.50315029588207" lon="8.358201090656534"><ele>81.66666666666666</ele><time>2026-04-06T15:43:48Z</time></trkpt><trkpt lat="40.50327913003609" lon="8.358125624037815"><ele>78.33333333333333</ele><time>2026-04-06T15:43:49Z</time></trkpt><trkpt lat="40.5034207744563" lon="8.35806108589635"><ele>75.0</ele><time>2026-04-06T15:43:50Z</time></trkpt><trkpt lat="40.50357372876849" lon="8.35797778263564"><ele>75.0</ele><time>2026-04-06T15:43:51Z</time></trkpt><trkpt lat="40.50374347299821" lon="8.357908836904688"><ele>75.0</ele><time>2026-04-06T15:43:52Z</time></trkpt><trkpt lat="40.503939867665466" lon="8.357842295562413"><ele>75.0</ele><time>2026-04-06T15:43:53Z</time></trkpt><trkpt lat="40.50415734615951" lon="8.357749860313787"><ele>69.5</ele><time>2026-04-06T15:43:54Z</time></trkpt><trkpt lat="40.50438032072037" lon="8.35764493634935"><ele>64.0</ele><time>2026-04-06T15:43:55Z</time></trkpt><trkpt lat="40.50458670715946" lon="8.35755256851826"><ele>63.33333333333333</ele><time>2026-04-06T15:43:56Z</time></trkpt><trkpt lat="40.50479455066649" lon="8.357442252406312"><ele>62.66666666666667</ele><time>2026-04-06T15:43:57Z</time></trkpt><trkpt lat="40.50499119848384" lon="8.357319392344277"><ele>62.0</ele><time>2026-04-06T15:43:58Z</time></trkpt><trkpt lat="40.50518506920017" lon="8.357181475498072"><ele>62.0</ele><time>2026-04-06T15:43:59Z</time></trkpt><trkpt lat="40.50536600803227" lon="8.357047426341333"><ele>62.0</ele><time>2026-04-06T15:44:00Z</time></trkpt><trkpt lat="40.50554556603193" lon="8.356920877204425"><ele>62.0</ele><time>2026-04-06T15:44:01Z</time></trkpt><trkpt lat="40.50571738831553" lon="8.356804982127276"><ele>60.333333333333336</ele><time>2026-04-06T15:44:02Z</time></trkpt><trkpt lat="40.50588321853276" lon="8.356692424556288"><ele>58.66666666666667</ele><time>2026-04-06T15:44:03Z</time></trkpt><trkpt lat="40.5060428309504" lon="8.356586927362365"><ele>57.0</ele><time>2026-04-06T15:44:04Z</time></trkpt><trkpt lat="40.50620360055099" lon="8.35650597771404"><ele>56.66666666666667</ele><time>2026-04-06T15:44:05Z</time></trkpt><trkpt lat="40.50637128145568" lon="8.3564567313134"><ele>56.333333333333336</ele><time>2026-04-06T15:44:06Z</time></trkpt><trkpt lat="40.506549729267796" lon="8.356460175101029"><ele>56.0</ele><time>2026-04-06T15:44:07Z</time></trkpt><trkpt lat="40.50671877914654" lon="8.356467550570798"><ele>56.0</ele><time>2026-04-06T15:44:08Z</time></trkpt><trkpt lat="40.506881811712816" lon="8.356461508910332"><ele>56.0</ele><time>2026-04-06T15:44:09Z</time></trkpt><trkpt lat="40.50705612941408" lon="8.356476506391866"><ele>56.0</ele><time>2026-04-06T15:44:10Z</time></trkpt><trkpt lat="40.50724594879076" lon="8.356486491973"><ele>57.0</ele><time>2026-04-06T15:44:11Z</time></trkpt><trkpt lat="40.50745309554703" lon="8.356496735508241"><ele>58.0</ele><time>2026-04-06T15:44:12Z</time></trkpt><trkpt lat="40.50765914519703" lon="8.356501302401838"><ele>59.0</ele><time>2026-04-06T15:44:13Z</time></trkpt><trkpt lat="40.507885940379815" lon="8.356536638948986"><ele>61.0</ele><time>2026-04-06T15:44:14Z</time></trkpt><trkpt lat="40.50812945319442" lon="8.356552022083852"><ele>63.0</ele><time>2026-04-06T15:44:15Z</time></trkpt><trkpt lat="40.508385571883885" lon="8.356568201554191"><ele>63.0</ele><time>2026-04-06T15:44:16Z</time></trkpt><trkpt lat="40.50864908946447" lon="8.356574695686007"><ele>63.0</ele><time>2026-04-06T15:44:17Z</time></trkpt><trkpt lat="40.50892087925152" lon="8.356601271807786"><ele>65.5</ele><time>2026-04-06T15:44:18Z</time></trkpt><trkpt lat="40.50919661486377" lon="8.356623800328324"><ele>68.0</ele><time>2026-04-06T15:44:19Z</time></trkpt><trkpt lat="40.50944785523246" lon="8.356639293404545"><ele>70.66666666666667</ele><time>2026-04-06T15:44:20Z</time></trkpt><trkpt lat="40.50967556429009" lon="8.356651572528303"><ele>73.33333333333333</ele><time>2026-04-06T15:44:21Z</time></trkpt><trkpt lat="40.50987057614711" lon="8.356651229233666"><ele>76.0</ele><time>2026-04-06T15:44:22Z</time></trkpt><trkpt lat="40.51004004616949" lon="8.356612186164993"><ele>76.0</ele><time>2026-04-06T15:44:23Z</time></trkpt><trkpt lat="40.51020413035711" lon="8.3565287926254"><ele>76.0</ele><time>2026-04-06T15:44:24Z</time></trkpt><trkpt lat="40.510365651081045" lon="8.3563781422464"><ele>76.0</ele><time>2026-04-06T15:44:25Z</time></trkpt><trkpt lat="40.51052859728953" lon="8.35619932948252"><ele>80.5</ele><time>2026-04-06T15:44:26Z</time></trkpt><trkpt lat="40.51070452979324" lon="8.356017587514845"><ele>85.0</ele><time>2026-04-06T15:44:27Z</time></trkpt><trkpt lat="40.51089703429793" lon="8.355838677545435"><ele>85.0</ele><time>2026-04-06T15:44:28Z</time></trkpt><trkpt lat="40.51109639758305" lon="8.355657494804769"><ele>85.0</ele><time>2026-04-06T15:44:29Z</time></trkpt><trkpt lat="40.51129395169288" lon="8.355476336139807"><ele>88.0</ele><time>2026-04-06T15:44:30Z</time></trkpt><trkpt lat="40.51146659918234" lon="8.355310073993"><ele>91.0</ele><time>2026-04-06T15:44:31Z</time></trkpt><trkpt lat="40.51161833677916" lon="8.355144257738592"><ele>94.0</ele><time>2026-04-06T15:44:32Z</time></trkpt><trkpt lat="40.51175675768323" lon="8.354956155879929"><ele>94.0</ele><time>2026-04-06T15:44:33Z</time></trkpt><trkpt lat="40.51190345077371" lon="8.35476981512964"><ele>94.0</ele><time>2026-04-06T15:44:34Z</time></trkpt><trkpt lat="40.51205133137395" lon="8.354571890803806"><ele>94.0</ele><time>2026-04-06T15:44:35Z</time></trkpt><trkpt lat="40.5121118559759" lon="8.354253031018757"><ele>99.5</ele><time>2026-04-06T15:44:36Z</time></trkpt><trkpt lat="40.512236566884994" lon="8.354004605718384"><ele>105.0</ele><time>2026-04-06T15:44:37Z</time></trkpt><trkpt lat="40.512366969644134" lon="8.353753656081208"><ele>106.66666666666666</ele><time>2026-04-06T15:44:38Z</time></trkpt><trkpt lat="40.51248518772997" lon="8.353521444898917"><ele>108.33333333333333</ele><time>2026-04-06T15:44:39Z</time></trkpt><trkpt lat="40.512590828011085" lon="8.353318354057405"><ele>110.0</ele><time>2026-04-06T15:44:40Z</time></trkpt><trkpt lat="40.51268060950033" lon="8.353131304392349"><ele>111.0</ele><time>2026-04-06T15:44:41Z</time></trkpt><trkpt lat="40.51274099276626" lon="8.352952799532037"><ele>112.0</ele><time>2026-04-06T15:44:42Z</time></trkpt><trkpt lat="40.51275846508582" lon="8.352758800046624"><ele>113.0</ele><time>2026-04-06T15:44:43Z</time></trkpt><trkpt lat="40.51273805119816" lon="8.352545103383035"><ele>113.0</ele><time>2026-04-06T15:44:44Z</time></trkpt><trkpt lat="40.51269427409118" lon="8.352315842207462"><ele>113.0</ele><time>2026-04-06T15:44:45Z</time></trkpt><trkpt lat="40.51265404630048" lon="8.352065006146947"><ele>113.0</ele><time>2026-04-06T15:44:46Z</time></trkpt><trkpt lat="40.512613884232614" lon="8.35179654979241"><ele>112.0</ele><time>2026-04-06T15:44:47Z</time></trkpt><trkpt lat="40.51257515261207" lon="8.351517555215256"><ele>111.0</ele><time>2026-04-06T15:44:48Z</time></trkpt><trkpt lat="40.51253746912232" lon="8.351230104197496"><ele>110.0</ele><time>2026-04-06T15:44:49Z</time></trkpt><trkpt lat="40.51250082701244" lon="8.350959546620137"><ele>108.66666666666666</ele><time>2026-04-06T15:44:50Z</time></trkpt><trkpt lat="40.512463797980466" lon="8.350698723439939"><ele>107.33333333333334</ele><time>2026-04-06T15:44:51Z</time></trkpt><trkpt lat="40.51242571206286" lon="8.350432287392016"><ele>106.0</ele><time>2026-04-06T15:44:52Z</time></trkpt><trkpt lat="40.5123875090498" lon="8.350158003538919"><ele>106.0</ele><time>2026-04-06T15:44:53Z</time></trkpt><trkpt lat="40.5123495442592" lon="8.349882444372868"><ele>106.0</ele><time>2026-04-06T15:44:54Z</time></trkpt><trkpt lat="40.51231440824942" lon="8.34960401555228"><ele>106.0</ele><time>2026-04-06T15:44:55Z</time></trkpt><trkpt lat="40.5122730082542" lon="8.349321467540657"><ele>105.66666666666667</ele><time>2026-04-06T15:44:56Z</time></trkpt><trkpt lat="40.51223654708228" lon="8.349055241182738"><ele>105.33333333333334</ele><time>2026-04-06T15:44:57Z</time></trkpt><trkpt lat="40.512203786117084" lon="8.348805843778141"><ele>105.0</ele><time>2026-04-06T15:44:58Z</time></trkpt><trkpt lat="40.512179750809516" lon="8.348574761869171"><ele>104.0</ele><time>2026-04-06T15:44:59Z</time></trkpt><trkpt lat="40.5121699854959" lon="8.3483499407956"><ele>103.0</ele><time>2026-04-06T15:45:00Z</time></trkpt><trkpt lat="40.51218979042315" lon="8.348137405538475"><ele>102.0</ele><time>2026-04-06T15:45:01Z</time></trkpt><trkpt lat="40.51222917789423" lon="8.347879734490428"><ele>101.66666666666666</ele><time>2026-04-06T15:45:02Z</time></trkpt><trkpt lat="40.51226924412497" lon="8.347638786317553"><ele>101.33333333333333</ele><time>2026-04-06T15:45:03Z</time></trkpt><trkpt lat="40.512306067174755" lon="8.34737550856112"><ele>101.0</ele><time>2026-04-06T15:45:04Z</time></trkpt><trkpt lat="40.51233698789259" lon="8.347113358122359"><ele>100.33333333333333</ele><time>2026-04-06T15:45:05Z</time></trkpt><trkpt lat="40.51236567514685" lon="8.346844622037949"><ele>99.66666666666666</ele><time>2026-04-06T15:45:06Z</time></trkpt><trkpt lat="40.51239391973357" lon="8.346592496399449"><ele>99.0</ele><time>2026-04-06T15:45:07Z</time></trkpt><trkpt lat="40.51242730764004" lon="8.346355651924235"><ele>99.0</ele><time>2026-04-06T15:45:08Z</time></trkpt><trkpt lat="40.51247392413046" lon="8.346163712295144"><ele>99.0</ele><time>2026-04-06T15:45:09Z</time></trkpt><trkpt lat="40.51254401445139" lon="8.345979759108603"><ele>99.0</ele><time>2026-04-06T15:45:10Z</time></trkpt><trkpt lat="40.51262900291963" lon="8.345806550339326"><ele>99.0</ele><time>2026-04-06T15:45:11Z</time></trkpt><trkpt lat="40.51272741524858" lon="8.34562002018168"><ele>99.0</ele><time>2026-04-06T15:45:12Z</time></trkpt><trkpt lat="40.51284080441666" lon="8.345418494808735"><ele>99.0</ele><time>2026-04-06T15:45:13Z</time></trkpt><trkpt lat="40.51296429686556" lon="8.345205400421188"><ele>99.0</ele><time>2026-04-06T15:45:14Z</time></trkpt><trkpt lat="40.513091937964134" lon="8.344970854466846"><ele>99.0</ele><time>2026-04-06T15:45:15Z</time></trkpt><trkpt lat="40.513224564923036" lon="8.34473406437164"><ele>99.0</ele><time>2026-04-06T15:45:16Z</time></trkpt><trkpt lat="40.513364621621925" lon="8.344483162785178"><ele>97.0</ele><time>2026-04-06T15:45:17Z</time></trkpt><trkpt lat="40.51350556203397" lon="8.344231062012035"><ele>95.0</ele><time>2026-04-06T15:45:18Z</time></trkpt><trkpt lat="40.51363639458211" lon="8.343995217524746"><ele>95.33333333333334</ele><time>2026-04-06T15:45:19Z</time></trkpt><trkpt lat="40.51375957540934" lon="8.343778032178243"><ele>95.66666666666667</ele><time>2026-04-06T15:45:20Z</time></trkpt><trkpt lat="40.513876154289136" lon="8.343569203735509"><ele>96.0</ele><time>2026-04-06T15:45:21Z</time></trkpt><trkpt lat="40.51399265942075" lon="8.343364831347623"><ele>96.0</ele><time>2026-04-06T15:45:22Z</time></trkpt><trkpt lat="40.514115458340086" lon="8.343183865665324"><ele>96.0</ele><time>2026-04-06T15:45:23Z</time></trkpt><trkpt lat="40.514252442777085" lon="8.34303534369977"><ele>96.0</ele><time>2026-04-06T15:45:24Z</time></trkpt><trkpt lat="40.51441243028512" lon="8.3429204791242"><ele>95.33333333333333</ele><time>2026-04-06T15:45:25Z</time></trkpt><trkpt lat="40.5145924944867" lon="8.34281903910461"><ele>94.66666666666666</ele><time>2026-04-06T15:45:26Z</time></trkpt><trkpt lat="40.5147860738295" lon="8.342711250422926"><ele>94.0</ele><time>2026-04-06T15:45:27Z</time></trkpt><trkpt lat="40.51497795640975" lon="8.342592806924156"><ele>94.0</ele><time>2026-04-06T15:45:28Z</time></trkpt><trkpt lat="40.51514817797283" lon="8.342488044512743"><ele>94.0</ele><time>2026-04-06T15:45:29Z</time></trkpt><trkpt lat="40.51530627277105" lon="8.34239344544528"><ele>94.0</ele><time>2026-04-06T15:45:30Z</time></trkpt><trkpt lat="40.515469058019924" lon="8.342319118159885"><ele>94.33333333333333</ele><time>2026-04-06T15:45:31Z</time></trkpt><trkpt lat="40.515645475003815" lon="8.34227417767524"><ele>94.66666666666667</ele><time>2026-04-06T15:45:32Z</time></trkpt><trkpt lat="40.51584094051439" lon="8.34226802901193"><ele>95.0</ele><time>2026-04-06T15:45:33Z</time></trkpt><trkpt lat="40.516046514883" lon="8.342275815303982"><ele>95.0</ele><time>2026-04-06T15:45:34Z</time></trkpt><trkpt lat="40.5162359512187" lon="8.342281854773919"><ele>95.0</ele><time>2026-04-06T15:45:35Z</time></trkpt><trkpt lat="40.516430833225655" lon="8.342287232981779"><ele>95.0</ele><time>2026-04-06T15:45:36Z</time></trkpt><trkpt lat="40.51662431869456" lon="8.342290932774969"><ele>94.33333333333334</ele><time>2026-04-06T15:45:37Z</time></trkpt><trkpt lat="40.5168368726221" lon="8.342289349986952"><ele>93.66666666666667</ele><time>2026-04-06T15:45:38Z</time></trkpt><trkpt lat="40.517050489610774" lon="8.342289376470983"><ele>93.0</ele><time>2026-04-06T15:45:39Z</time></trkpt><trkpt lat="40.517270647736154" lon="8.342292172723347"><ele>93.0</ele><time>2026-04-06T15:45:40Z</time></trkpt><trkpt lat="40.517491172309256" lon="8.342295482576652"><ele>93.0</ele><time>2026-04-06T15:45:41Z</time></trkpt><trkpt lat="40.517709538969285" lon="8.342299759734415"><ele>93.0</ele><time>2026-04-06T15:45:42Z</time></trkpt><trkpt lat="40.517908026015185" lon="8.342302249288492"><ele>93.0</ele><time>2026-04-06T15:45:43Z</time></trkpt><trkpt lat="40.518106857207634" lon="8.342299128574638"><ele>93.0</ele><time>2026-04-06T15:45:44Z</time></trkpt><trkpt lat="40.51830815168753" lon="8.342296216697168"><ele>93.0</ele><time>2026-04-06T15:45:45Z</time></trkpt><trkpt lat="40.51851070843112" lon="8.342302190339682"><ele>93.0</ele><time>2026-04-06T15:45:46Z</time></trkpt><trkpt lat="40.5187151721578" lon="8.342324157949104"><ele>93.0</ele><time>2026-04-06T15:45:47Z</time></trkpt><trkpt lat="40.51891974541569" lon="8.342360115876247"><ele>93.0</ele><time>2026-04-06T15:45:48Z</time></trkpt><trkpt lat="40.51912574137162" lon="8.342406348408403"><ele>92.66666666666667</ele><time>2026-04-06T15:45:49Z</time></trkpt><trkpt lat="40.51933695371188" lon="8.342443526931246"><ele>92.33333333333334</ele><time>2026-04-06T15:45:50Z</time></trkpt><trkpt lat="40.519543152626966" lon="8.34247908652757"><ele>92.0</ele><time>2026-04-06T15:45:51Z</time></trkpt><trkpt lat="40.51973376014283" lon="8.342512133503305"><ele>90.66666666666667</ele><time>2026-04-06T15:45:52Z</time></trkpt><trkpt lat="40.51990869294009" lon="8.342510570266144"><ele>89.33333333333333</ele><time>2026-04-06T15:45:53Z</time></trkpt><trkpt lat="40.520079786700265" lon="8.342466494207036"><ele>88.0</ele><time>2026-04-06T15:45:54Z</time></trkpt><trkpt lat="40.52024938147123" lon="8.342374178209706"><ele>86.66666666666666</ele><time>2026-04-06T15:45:55Z</time></trkpt><trkpt lat="40.52041592755135" lon="8.342252420888032"><ele>85.33333333333333</ele><time>2026-04-06T15:45:56Z</time></trkpt><trkpt lat="40.52058831088466" lon="8.342123610074456"><ele>84.0</ele><time>2026-04-06T15:45:57Z</time></trkpt><trkpt lat="40.52074784201575" lon="8.342018507518413"><ele>82.66666666666667</ele><time>2026-04-06T15:45:58Z</time></trkpt><trkpt lat="40.52089831536357" lon="8.341913404331539"><ele>81.33333333333334</ele><time>2026-04-06T15:45:59Z</time></trkpt><trkpt lat="40.521038924197676" lon="8.341784969491556"><ele>80.0</ele><time>2026-04-06T15:46:00Z</time></trkpt><trkpt lat="40.52117184654891" lon="8.34162319275443"><ele>79.0</ele><time>2026-04-06T15:46:01Z</time></trkpt><trkpt lat="40.52129635725829" lon="8.341418628101902"><ele>78.0</ele><time>2026-04-06T15:46:02Z</time></trkpt><trkpt lat="40.52142480734452" lon="8.341186547083778"><ele>77.0</ele><time>2026-04-06T15:46:03Z</time></trkpt><trkpt lat="40.52155504534395" lon="8.340938218685633"><ele>76.5</ele><time>2026-04-06T15:46:04Z</time></trkpt><trkpt lat="40.52168742237439" lon="8.340690172273062"><ele>76.0</ele><time>2026-04-06T15:46:05Z</time></trkpt><trkpt lat="40.52182344439838" lon="8.340443699460877"><ele>75.5</ele><time>2026-04-06T15:46:06Z</time></trkpt><trkpt lat="40.52195745567995" lon="8.34020802149791"><ele>75.0</ele><time>2026-04-06T15:46:07Z</time></trkpt><trkpt lat="40.52209162932092" lon="8.33996619115188"><ele>73.5</ele><time>2026-04-06T15:46:08Z</time></trkpt><trkpt lat="40.52222385875154" lon="8.339721746828756"><ele>72.0</ele><time>2026-04-06T15:46:09Z</time></trkpt><trkpt lat="40.522358789040794" lon="8.33947613671942"><ele>70.0</ele><time>2026-04-06T15:46:10Z</time></trkpt><trkpt lat="40.52249130799635" lon="8.33922940761654"><ele>68.0</ele><time>2026-04-06T15:46:11Z</time></trkpt><trkpt lat="40.52262691588974" lon="8.338983697924938"><ele>67.5</ele><time>2026-04-06T15:46:12Z</time></trkpt><trkpt lat="40.522762930337656" lon="8.338737593359625"><ele>67.0</ele><time>2026-04-06T15:46:12.999Z</time></trkpt><trkpt lat="40.522898534176925" lon="8.338491951274243"><ele>64.66666666666666</ele><time>2026-04-06T15:46:13.999Z</time></trkpt><trkpt lat="40.523029748691556" lon="8.338253810979014"><ele>62.33333333333333</ele><time>2026-04-06T15:46:14.999Z</time></trkpt><trkpt lat="40.52315420795802" lon="8.338026170122628"><ele>60.0</ele><time>2026-04-06T15:46:15.999Z</time></trkpt><trkpt lat="40.5232749715812" lon="8.337805406019246"><ele>59.0</ele><time>2026-04-06T15:46:16.999Z</time></trkpt><trkpt lat="40.52339446796679" lon="8.337597304019045"><ele>58.0</ele><time>2026-04-06T15:46:17.999Z</time></trkpt><trkpt lat="40.52349800485301" lon="8.337388465200226"><ele>57.0</ele><time>2026-04-06T15:46:19Z</time></trkpt><trkpt lat="40.52357453432492" lon="8.337188269249195"><ele>56.0</ele><time>2026-04-06T15:46:20Z</time></trkpt><trkpt lat="40.52361647467693" lon="8.336975549920682"><ele>55.0</ele><time>2026-04-06T15:46:21Z</time></trkpt><trkpt lat="40.52362344708342" lon="8.33674907575902"><ele>54.0</ele><time>2026-04-06T15:46:22Z</time></trkpt><trkpt lat="40.52361338530793" lon="8.336497407599555"><ele>52.33333333333333</ele><time>2026-04-06T15:46:23Z</time></trkpt><trkpt lat="40.52361397164128" lon="8.336212920526329"><ele>50.666666666666664</ele><time>2026-04-06T15:46:24Z</time></trkpt><trkpt lat="40.523624892873215" lon="8.335944770353368"><ele>49.0</ele><time>2026-04-06T15:46:25Z</time></trkpt><trkpt lat="40.52363265318253" lon="8.335689853927372"><ele>45.666666666666664</ele><time>2026-04-06T15:46:26Z</time></trkpt><trkpt lat="40.5236261108456" lon="8.335446345736816"><ele>42.33333333333333</ele><time>2026-04-06T15:46:27Z</time></trkpt><trkpt lat="40.5235973860603" lon="8.33520939300721"><ele>39.0</ele><time>2026-04-06T15:46:28Z</time></trkpt><trkpt lat="40.5235436591059" lon="8.33499285652577"><ele>39.0</ele><time>2026-04-06T15:46:29Z</time></trkpt><trkpt lat="40.52346750755462" lon="8.334803853789499"><ele>39.0</ele><time>2026-04-06T15:46:30Z</time></trkpt><trkpt lat="40.52336045195268" lon="8.334619376040166"><ele>39.0</ele><time>2026-04-06T15:46:31Z</time></trkpt><trkpt lat="40.52323749102883" lon="8.334448880909333"><ele>37.0</ele><time>2026-04-06T15:46:32Z</time></trkpt><trkpt lat="40.52313004691594" lon="8.334297205616805"><ele>35.0</ele><time>2026-04-06T15:46:33Z</time></trkpt><trkpt lat="40.52304787091163" lon="8.334147579322364"><ele>33.0</ele><time>2026-04-06T15:46:34Z</time></trkpt><trkpt lat="40.52300262706909" lon="8.333990275803203"><ele>31.0</ele><time>2026-04-06T15:46:35Z</time></trkpt><trkpt lat="40.52300636388177" lon="8.333818874365283"><ele>28.75</ele><time>2026-04-06T15:46:36Z</time></trkpt><trkpt lat="40.52307519719182" lon="8.333672423684307"><ele>26.5</ele><time>2026-04-06T15:46:37Z</time></trkpt><trkpt lat="40.52314716184241" lon="8.33351283417101"><ele>24.25</ele><time>2026-04-06T15:46:38Z</time></trkpt><trkpt lat="40.523229862141" lon="8.333313613412322"><ele>22.0</ele><time>2026-04-06T15:46:39Z</time></trkpt><trkpt lat="40.52332886415753" lon="8.333115418019185"><ele>19.666666666666664</ele><time>2026-04-06T15:46:40Z</time></trkpt><trkpt lat="40.52342202422664" lon="8.33294098590084"><ele>17.333333333333332</ele><time>2026-04-06T15:46:41Z</time></trkpt><trkpt lat="40.52354115864503" lon="8.332806635069051"><ele>15.0</ele><time>2026-04-06T15:46:42Z</time></trkpt><trkpt lat="40.52370307416219" lon="8.332729347142498"><ele>16.333333333333332</ele><time>2026-04-06T15:46:43Z</time></trkpt><trkpt lat="40.5238719342695" lon="8.332647344113344"><ele>17.666666666666664</ele><time>2026-04-06T15:46:44Z</time></trkpt><trkpt lat="40.52403032650027" lon="8.332559070001992"><ele>19.0</ele><time>2026-04-06T15:46:45Z</time></trkpt><trkpt lat="40.52418639841598" lon="8.332491622685026"><ele>19.0</ele><time>2026-04-06T15:46:46Z</time></trkpt><trkpt lat="40.52435123016173" lon="8.332402539718528"><ele>19.0</ele><time>2026-04-06T15:46:47Z</time></trkpt><trkpt lat="40.52452261413945" lon="8.332292922664555"><ele>19.0</ele><time>2026-04-06T15:46:48Z</time></trkpt><trkpt lat="40.52469904308624" lon="8.332161704552991"><ele>17.333333333333332</ele><time>2026-04-06T15:46:49Z</time></trkpt><trkpt lat="40.524879341370394" lon="8.332010552896808"><ele>15.666666666666668</ele><time>2026-04-06T15:46:50Z</time></trkpt><trkpt lat="40.52507844288215" lon="8.331869697555764"><ele>14.0</ele><time>2026-04-06T15:46:51Z</time></trkpt><trkpt lat="40.525257310078814" lon="8.331679850739164"><ele>13.5</ele><time>2026-04-06T15:46:52Z</time></trkpt><trkpt lat="40.52544883364974" lon="8.331481190205908"><ele>13.0</ele><time>2026-04-06T15:46:53Z</time></trkpt><trkpt lat="40.52561909493454" lon="8.331272644137293"><ele>13.0</ele><time>2026-04-06T15:46:54Z</time></trkpt><trkpt lat="40.52578640397427" lon="8.331069585212772"><ele>13.0</ele><time>2026-04-06T15:46:55Z</time></trkpt><trkpt lat="40.525937015923915" lon="8.330892894497282"><ele>13.0</ele><time>2026-04-06T15:46:56Z</time></trkpt><trkpt lat="40.52609063297612" lon="8.33075683845424"><ele>20.0</ele><time>2026-04-06T15:46:57Z</time></trkpt><trkpt lat="40.52625638704412" lon="8.330715611913405"><ele>27.0</ele><time>2026-04-06T15:46:58Z</time></trkpt><trkpt lat="40.52643349270285" lon="8.330683970007376"><ele>34.0</ele><time>2026-04-06T15:46:59Z</time></trkpt><trkpt lat="40.52662478948177" lon="8.33062615767515"><ele>34.0</ele><time>2026-04-06T15:47:00Z</time></trkpt><trkpt lat="40.52682073556865" lon="8.330560397851936"><ele>34.0</ele><time>2026-04-06T15:47:01Z</time></trkpt><trkpt lat="40.52701955394107" lon="8.330464877861232"><ele>34.0</ele><time>2026-04-06T15:47:02Z</time></trkpt><trkpt lat="40.527220292751146" lon="8.330361528252467"><ele>31.333333333333336</ele><time>2026-04-06T15:47:03Z</time></trkpt><trkpt lat="40.52741935716613" lon="8.3302520292601"><ele>28.666666666666664</ele><time>2026-04-06T15:47:04Z</time></trkpt><trkpt lat="40.52760103907275" lon="8.330128413693743"><ele>26.0</ele><time>2026-04-06T15:47:05Z</time></trkpt><trkpt lat="40.52776411030017" lon="8.329979193968633"><ele>26.333333333333332</ele><time>2026-04-06T15:47:06Z</time></trkpt><trkpt lat="40.52792460110097" lon="8.329815793943117"><ele>26.666666666666664</ele><time>2026-04-06T15:47:07Z</time></trkpt><trkpt lat="40.528067143764154" lon="8.329667973911386"><ele>27.0</ele><time>2026-04-06T15:47:08Z</time></trkpt><trkpt lat="40.52820855557738" lon="8.329522129911659"><ele>27.0</ele><time>2026-04-06T15:47:09Z</time></trkpt><trkpt lat="40.52833976872315" lon="8.329369345396746"><ele>27.0</ele><time>2026-04-06T15:47:10Z</time></trkpt><trkpt lat="40.52845533066884" lon="8.329191916840092"><ele>27.0</ele><time>2026-04-06T15:47:11Z</time></trkpt><trkpt lat="40.528543342385944" lon="8.329011819337753"><ele>24.5</ele><time>2026-04-06T15:47:12Z</time></trkpt><trkpt lat="40.5286283727101" lon="8.328846848405238"><ele>22.0</ele><time>2026-04-06T15:47:13Z</time></trkpt><trkpt lat="40.52872427683053" lon="8.32872880560504"><ele>19.5</ele><time>2026-04-06T15:47:14Z</time></trkpt><trkpt lat="40.52884459112944" lon="8.328706547843739"><ele>17.0</ele><time>2026-04-06T15:47:15Z</time></trkpt><trkpt lat="40.52895513813082" lon="8.328734390367385"><ele>17.0</ele><time>2026-04-06T15:47:16Z</time></trkpt><trkpt lat="40.529089693591516" lon="8.328750233315494"><ele>17.0</ele><time>2026-04-06T15:47:17Z</time></trkpt><trkpt lat="40.52923998690053" lon="8.328806828726316"><ele>17.0</ele><time>2026-04-06T15:47:18Z</time></trkpt><trkpt lat="40.52938413234475" lon="8.328840413457808"><ele>17.0</ele><time>2026-04-06T15:47:19Z</time></trkpt><trkpt lat="40.52951384820014" lon="8.328831799737811"><ele>21.5</ele><time>2026-04-06T15:47:20Z</time></trkpt><trkpt lat="40.52962625307314" lon="8.328760637386315"><ele>26.0</ele><time>2026-04-06T15:47:21Z</time></trkpt><trkpt lat="40.5297134124491" lon="8.328644931825476"><ele>30.5</ele><time>2026-04-06T15:47:22Z</time></trkpt><trkpt lat="40.52979515135951" lon="8.328506909608242"><ele>35.0</ele><time>2026-04-06T15:47:23Z</time></trkpt><trkpt lat="40.5298845601486" lon="8.328348012869096"><ele>35.0</ele><time>2026-04-06T15:47:24Z</time></trkpt><trkpt lat="40.53001700388916" lon="8.328186997435699"><ele>35.0</ele><time>2026-04-06T15:47:25Z</time></trkpt><trkpt lat="40.530147465189174" lon="8.327999335601893"><ele>35.0</ele><time>2026-04-06T15:47:26Z</time></trkpt><trkpt lat="40.53029203841298" lon="8.32779144760946"><ele>36.666666666666664</ele><time>2026-04-06T15:47:27Z</time></trkpt><trkpt lat="40.53043710298993" lon="8.327583867888716"><ele>38.333333333333336</ele><time>2026-04-06T15:47:28Z</time></trkpt><trkpt lat="40.53057461564511" lon="8.327395224150228"><ele>40.0</ele><time>2026-04-06T15:47:29Z</time></trkpt><trkpt lat="40.5307121090549" lon="8.32725730798136"><ele>31.666666666666668</ele><time>2026-04-06T15:47:30Z</time></trkpt><trkpt lat="40.530858049788804" lon="8.327152012396612"><ele>23.333333333333336</ele><time>2026-04-06T15:47:31Z</time></trkpt><trkpt lat="40.530991729356614" lon="8.327093448211993"><ele>15.0</ele><time>2026-04-06T15:47:32Z</time></trkpt><trkpt lat="40.53115179927646" lon="8.327031455322302"><ele>17.5</ele><time>2026-04-06T15:47:33Z</time></trkpt><trkpt lat="40.53129947007827" lon="8.326977222214056"><ele>20.0</ele><time>2026-04-06T15:47:34Z</time></trkpt><trkpt lat="40.53144043270889" lon="8.326929321864382"><ele>22.5</ele><time>2026-04-06T15:47:35Z</time></trkpt><trkpt lat="40.531575771479645" lon="8.326863123245197"><ele>25.0</ele><time>2026-04-06T15:47:36Z</time></trkpt><trkpt lat="40.53172851750873" lon="8.326821039093627"><ele>25.0</ele><time>2026-04-06T15:47:37Z</time></trkpt><trkpt lat="40.53188179820367" lon="8.326821960828685"><ele>25.0</ele><time>2026-04-06T15:47:38Z</time></trkpt><trkpt lat="40.53202578275496" lon="8.326833233160206"><ele>25.0</ele><time>2026-04-06T15:47:39Z</time></trkpt><trkpt lat="40.532170224326656" lon="8.326862375339564"><ele>25.0</ele><time>2026-04-06T15:47:40Z</time></trkpt><trkpt lat="40.53231957861504" lon="8.326877624300247"><ele>25.0</ele><time>2026-04-06T15:47:41Z</time></trkpt><trkpt lat="40.53245692271794" lon="8.326908619716999"><ele>25.0</ele><time>2026-04-06T15:47:42Z</time></trkpt><trkpt lat="40.53259551279211" lon="8.32690915706926"><ele>25.0</ele><time>2026-04-06T15:47:43Z</time></trkpt><trkpt lat="40.53273737369018" lon="8.326880425045946"><ele>25.0</ele><time>2026-04-06T15:47:44Z</time></trkpt><trkpt lat="40.5328719900147" lon="8.326830200329358"><ele>26.0</ele><time>2026-04-06T15:47:45Z</time></trkpt><trkpt lat="40.533007118648314" lon="8.326772775589218"><ele>27.0</ele><time>2026-04-06T15:47:46Z</time></trkpt><trkpt lat="40.5331479242799" lon="8.326716446625417"><ele>28.0</ele><time>2026-04-06T15:47:47Z</time></trkpt><trkpt lat="40.533291751177316" lon="8.326662859692307"><ele>29.0</ele><time>2026-04-06T15:47:48Z</time></trkpt><trkpt lat="40.5334344011459" lon="8.326609609976913"><ele>29.0</ele><time>2026-04-06T15:47:49Z</time></trkpt><trkpt lat="40.533572542670015" lon="8.32655483336137"><ele>29.0</ele><time>2026-04-06T15:47:50Z</time></trkpt><trkpt lat="40.533697473380904" lon="8.326505855818384"><ele>29.0</ele><time>2026-04-06T15:47:51Z</time></trkpt><trkpt lat="40.5338225947129" lon="8.326463322874966"><ele>29.0</ele><time>2026-04-06T15:47:52Z</time></trkpt><trkpt lat="40.53394814615259" lon="8.326422219756083"><ele>24.75</ele><time>2026-04-06T15:47:53Z</time></trkpt><trkpt lat="40.53407749710649" lon="8.326375269836694"><ele>20.5</ele><time>2026-04-06T15:47:54Z</time></trkpt><trkpt lat="40.53420477969097" lon="8.326325070858283"><ele>16.25</ele><time>2026-04-06T15:47:55Z</time></trkpt><trkpt lat="40.534330723992774" lon="8.326276217999009"><ele>12.0</ele><time>2026-04-06T15:47:56Z</time></trkpt><trkpt lat="40.53445681429573" lon="8.32622701048336"><ele>13.75</ele><time>2026-04-06T15:47:57Z</time></trkpt><trkpt lat="40.53458410526851" lon="8.326177471570341"><ele>15.5</ele><time>2026-04-06T15:47:58Z</time></trkpt><trkpt lat="40.53470621369091" lon="8.326130351588276"><ele>17.25</ele><time>2026-04-06T15:47:58.999Z</time></trkpt><trkpt lat="40.53483081070624" lon="8.326081668368861"><ele>19.0</ele><time>2026-04-06T15:47:59.999Z</time></trkpt><trkpt lat="40.534951745156945" lon="8.3260325414646"><ele>19.0</ele><time>2026-04-06T15:48:00.999Z</time></trkpt><trkpt lat="40.53507416498986" lon="8.325982079685813"><ele>19.0</ele><time>2026-04-06T15:48:01.999Z</time></trkpt><trkpt lat="40.53519555549239" lon="8.32593540368781"><ele>19.0</ele><time>2026-04-06T15:48:02.999Z</time></trkpt><trkpt lat="40.53530931989666" lon="8.325894037325362"><ele>19.0</ele><time>2026-04-06T15:48:03.999Z</time></trkpt><trkpt lat="40.535418918876985" lon="8.32585838933107"><ele>21.0</ele><time>2026-04-06T15:48:04.999Z</time></trkpt><trkpt lat="40.535530985644286" lon="8.325821333094778"><ele>23.0</ele><time>2026-04-06T15:48:05.999Z</time></trkpt><trkpt lat="40.53564789483734" lon="8.325781274133108"><ele>25.0</ele><time>2026-04-06T15:48:06.999Z</time></trkpt><trkpt lat="40.53576688198186" lon="8.325735968889612"><ele>27.0</ele><time>2026-04-06T15:48:07.999Z</time></trkpt><trkpt lat="40.535883301716254" lon="8.32568956908799"><ele>27.0</ele><time>2026-04-06T15:48:08.999Z</time></trkpt><trkpt lat="40.535998106710736" lon="8.325644677880259"><ele>27.0</ele><time>2026-04-06T15:48:09.999Z</time></trkpt><trkpt lat="40.53611469457771" lon="8.325591366737212"><ele>27.0</ele><time>2026-04-06T15:48:10.999Z</time></trkpt><trkpt lat="40.53622336528257" lon="8.325516565691204"><ele>27.0</ele><time>2026-04-06T15:48:11.999Z</time></trkpt><trkpt lat="40.53632065222479" lon="8.32541332819416"><ele>26.75</ele><time>2026-04-06T15:48:12.999Z</time></trkpt><trkpt lat="40.536395095656935" lon="8.325279940618719"><ele>26.5</ele><time>2026-04-06T15:48:13.999Z</time></trkpt><trkpt lat="40.536458839102785" lon="8.32512186094183"><ele>26.25</ele><time>2026-04-06T15:48:14.999Z</time></trkpt><trkpt lat="40.53651306568062" lon="8.324944991929415"><ele>26.0</ele><time>2026-04-06T15:48:15.999Z</time></trkpt><trkpt lat="40.536568185586944" lon="8.32477261060915"><ele>22.5</ele><time>2026-04-06T15:48:16.999Z</time></trkpt><trkpt lat="40.536622778059375" lon="8.324611604635853"><ele>19.0</ele><time>2026-04-06T15:48:17.999Z</time></trkpt><trkpt lat="40.536676556727215" lon="8.324464131958953"><ele>15.5</ele><time>2026-04-06T15:48:18.999Z</time></trkpt><trkpt lat="40.53673767445649" lon="8.32431158490364"><ele>12.0</ele><time>2026-04-06T15:48:19.999Z</time></trkpt><trkpt lat="40.536809654051844" lon="8.324162378549577"><ele>12.0</ele><time>2026-04-06T15:48:20.999Z</time></trkpt><trkpt lat="40.53689551480959" lon="8.324039630606132"><ele>12.0</ele><time>2026-04-06T15:48:21.999Z</time></trkpt><trkpt lat="40.53700475356074" lon="8.323969487083934"><ele>12.0</ele><time>2026-04-06T15:48:22.999Z</time></trkpt><trkpt lat="40.537103173744" lon="8.323891650451882"><ele>12.0</ele><time>2026-04-06T15:48:23.999Z</time></trkpt><trkpt lat="40.5372172439087" lon="8.32385819167191"><ele>10.25</ele><time>2026-04-06T15:48:25Z</time></trkpt><trkpt lat="40.5373426389238" lon="8.32383963960354"><ele>8.5</ele><time>2026-04-06T15:48:26Z</time></trkpt><trkpt lat="40.537466010340715" lon="8.323842893877083"><ele>6.75</ele><time>2026-04-06T15:48:27Z</time></trkpt><trkpt lat="40.53758108044033" lon="8.323890622318775"><ele>5.0</ele><time>2026-04-06T15:48:28Z</time></trkpt><trkpt lat="40.53770383020254" lon="8.323911542883959"><ele>6.4</ele><time>2026-04-06T15:48:29Z</time></trkpt><trkpt lat="40.53781508157291" lon="8.323960546944791"><ele>7.8</ele><time>2026-04-06T15:48:30Z</time></trkpt><trkpt lat="40.53792283109085" lon="8.324000529840282"><ele>9.2</ele><time>2026-04-06T15:48:31Z</time></trkpt><trkpt lat="40.538026905901916" lon="8.324033339116513"><ele>10.6</ele><time>2026-04-06T15:48:32Z</time></trkpt><trkpt lat="40.53813546209815" lon="8.324068599410952"><ele>12.0</ele><time>2026-04-06T15:48:33Z</time></trkpt><trkpt lat="40.53824915388291" lon="8.324107555358257"><ele>12.0</ele><time>2026-04-06T15:48:34Z</time></trkpt><trkpt lat="40.53837229935263" lon="8.324148779887963"><ele>12.0</ele><time>2026-04-06T15:48:35Z</time></trkpt><trkpt lat="40.53850205316321" lon="8.324195335401757"><ele>12.0</ele><time>2026-04-06T15:48:36Z</time></trkpt><trkpt lat="40.5386393888444" lon="8.324243918890035"><ele>12.0</ele><time>2026-04-06T15:48:37Z</time></trkpt><trkpt lat="40.53877772099561" lon="8.324290105342776"><ele>11.75</ele><time>2026-04-06T15:48:38Z</time></trkpt><trkpt lat="40.538905082743675" lon="8.324327668527063"><ele>11.5</ele><time>2026-04-06T15:48:39Z</time></trkpt><trkpt lat="40.5390341200326" lon="8.324351719432958"><ele>11.25</ele><time>2026-04-06T15:48:40Z</time></trkpt><trkpt lat="40.539169239826926" lon="8.324347744375407"><ele>11.0</ele><time>2026-04-06T15:48:41Z</time></trkpt><trkpt lat="40.53930848222549" lon="8.324312144174982"><ele>11.0</ele><time>2026-04-06T15:48:42Z</time></trkpt><trkpt lat="40.5394444877735" lon="8.324249780384818"><ele>11.0</ele><time>2026-04-06T15:48:43Z</time></trkpt><trkpt lat="40.53958214365523" lon="8.32416443850892"><ele>11.0</ele><time>2026-04-06T15:48:44Z</time></trkpt><trkpt lat="40.53972740729864" lon="8.324056733474617"><ele>9.0</ele><time>2026-04-06T15:48:45Z</time></trkpt><trkpt lat="40.53986997897378" lon="8.323940759664527"><ele>7.0</ele><time>2026-04-06T15:48:46Z</time></trkpt><trkpt lat="40.54000801864796" lon="8.323832984549998"><ele>5.0</ele><time>2026-04-06T15:48:47Z</time></trkpt><trkpt lat="40.54014168435154" lon="8.323739260545505"><ele>5.0</ele><time>2026-04-06T15:48:48Z</time></trkpt><trkpt lat="40.5402743023933" lon="8.32365013856089"><ele>5.0</ele><time>2026-04-06T15:48:49Z</time></trkpt><trkpt lat="40.54040583434838" lon="8.323558544193414"><ele>5.0</ele><time>2026-04-06T15:48:50Z</time></trkpt><trkpt lat="40.54052875289682" lon="8.323470033620142"><ele>5.0</ele><time>2026-04-06T15:48:51Z</time></trkpt><trkpt lat="40.54064674276318" lon="8.323384506580084"><ele>5.0</ele><time>2026-04-06T15:48:52Z</time></trkpt><trkpt lat="40.540761216775024" lon="8.323297469273658"><ele>5.0</ele><time>2026-04-06T15:48:53Z</time></trkpt><trkpt lat="40.54087253436049" lon="8.32320135620999"><ele>5.0</ele><time>2026-04-06T15:48:54Z</time></trkpt><trkpt lat="40.54097900378415" lon="8.323082994303682"><ele>5.0</ele><time>2026-04-06T15:48:55Z</time></trkpt><trkpt lat="40.54107739202864" lon="8.32294804295274"><ele>5.0</ele><time>2026-04-06T15:48:56Z</time></trkpt><trkpt lat="40.54116451886895" lon="8.322798934152951"><ele>5.0</ele><time>2026-04-06T15:48:57Z</time></trkpt><trkpt lat="40.54124963580823" lon="8.322656836112145"><ele>5.0</ele><time>2026-04-06T15:48:58Z</time></trkpt><trkpt lat="40.541325221875574" lon="8.322525783980044"><ele>5.0</ele><time>2026-04-06T15:48:59Z</time></trkpt><trkpt lat="40.54140398721222" lon="8.322391951872895"><ele>5.25</ele><time>2026-04-06T15:49:00Z</time></trkpt><trkpt lat="40.54148141667935" lon="8.322267584121326"><ele>5.5</ele><time>2026-04-06T15:49:01Z</time></trkpt><trkpt lat="40.54156400237696" lon="8.322147489847541"><ele>5.75</ele><time>2026-04-06T15:49:02Z</time></trkpt><trkpt lat="40.54165374515721" lon="8.322044628801187"><ele>6.0</ele><time>2026-04-06T15:49:03Z</time></trkpt><trkpt lat="40.541757082643436" lon="8.32196195742183"><ele>6.0</ele><time>2026-04-06T15:49:04Z</time></trkpt><trkpt lat="40.54187198973759" lon="8.321930292034025"><ele>6.0</ele><time>2026-04-06T15:49:05Z</time></trkpt><trkpt lat="40.541989842816065" lon="8.321939257560254"><ele>6.0</ele><time>2026-04-06T15:49:06Z</time></trkpt><trkpt lat="40.54210061382044" lon="8.321990251896525"><ele>6.0</ele><time>2026-04-06T15:49:07Z</time></trkpt><trkpt lat="40.54219493691783" lon="8.322078450509009"><ele>5.0</ele><time>2026-04-06T15:49:08Z</time></trkpt><trkpt lat="40.54225506686265" lon="8.322208335664847"><ele>4.0</ele><time>2026-04-06T15:49:09Z</time></trkpt><trkpt lat="40.54229569427404" lon="8.322358636846387"><ele>3.0</ele><time>2026-04-06T15:49:10Z</time></trkpt><trkpt lat="40.54234039020858" lon="8.32251283807904"><ele>2.0</ele><time>2026-04-06T15:49:11Z</time></trkpt><trkpt lat="40.54240712942548" lon="8.322650812188453"><ele>3.6</ele><time>2026-04-06T15:49:12Z</time></trkpt><trkpt lat="40.54247822456031" lon="8.322763869401015"><ele>5.2</ele><time>2026-04-06T15:49:13Z</time></trkpt><trkpt lat="40.54255405129187" lon="8.322863259184833"><ele>6.8</ele><time>2026-04-06T15:49:14Z</time></trkpt><trkpt lat="40.54263819663084" lon="8.322945282648558"><ele>8.4</ele><time>2026-04-06T15:49:15Z</time></trkpt><trkpt lat="40.54273367831243" lon="8.323013509118905"><ele>10.0</ele><time>2026-04-06T15:49:16Z</time></trkpt><trkpt lat="40.542839676864304" lon="8.323069230814045"><ele>12.5</ele><time>2026-04-06T15:49:17Z</time></trkpt><trkpt lat="40.542957051749774" lon="8.323106406085236"><ele>15.0</ele><time>2026-04-06T15:49:18Z</time></trkpt><trkpt lat="40.54307044306721" lon="8.323113694768162"><ele>17.5</ele><time>2026-04-06T15:49:19Z</time></trkpt><trkpt lat="40.5431767736778" lon="8.323102516372753"><ele>20.0</ele><time>2026-04-06T15:49:20Z</time></trkpt><trkpt lat="40.54328754861056" lon="8.323067321135659"><ele>17.0</ele><time>2026-04-06T15:49:21Z</time></trkpt><trkpt lat="40.54339833036393" lon="8.323004352442364"><ele>14.0</ele><time>2026-04-06T15:49:22Z</time></trkpt><trkpt lat="40.54350668598601" lon="8.322923326269123"><ele>11.0</ele><time>2026-04-06T15:49:23Z</time></trkpt><trkpt lat="40.54359899032343" lon="8.322834996361749"><ele>8.0</ele><time>2026-04-06T15:49:24Z</time></trkpt><trkpt lat="40.543681458406475" lon="8.322738014738654"><ele>9.25</ele><time>2026-04-06T15:49:25Z</time></trkpt><trkpt lat="40.543758979618374" lon="8.322622715855191"><ele>10.5</ele><time>2026-04-06T15:49:26Z</time></trkpt><trkpt lat="40.54382020877555" lon="8.322485166940996"><ele>11.75</ele><time>2026-04-06T15:49:27Z</time></trkpt><trkpt lat="40.54385417268489" lon="8.322344227268394"><ele>13.0</ele><time>2026-04-06T15:49:28Z</time></trkpt><trkpt lat="40.543868553660836" lon="8.32220932146954"><ele>12.999999999999998</ele><time>2026-04-06T15:49:29Z</time></trkpt><trkpt lat="40.54387529375383" lon="8.322084044802157"><ele>13.0</ele><time>2026-04-06T15:49:30Z</time></trkpt><trkpt lat="40.54388232674584" lon="8.32195931388768"><ele>13.0</ele><time>2026-04-06T15:49:31Z</time></trkpt><trkpt lat="40.543894526127296" lon="8.321840349198435"><ele>13.0</ele><time>2026-04-06T15:49:32Z</time></trkpt><trkpt lat="40.54392211600756" lon="8.321734836056825"><ele>12.999999999999998</ele><time>2026-04-06T15:49:33Z</time></trkpt><trkpt lat="40.54396120589843" lon="8.321640962199865"><ele>13.0</ele><time>2026-04-06T15:49:34Z</time></trkpt><trkpt lat="40.5440169707455" lon="8.321557952105938"><ele>12.999999999999998</ele><time>2026-04-06T15:49:35Z</time></trkpt><trkpt lat="40.54408498490664" lon="8.321489208745245"><ele>13.0</ele><time>2026-04-06T15:49:36Z</time></trkpt><trkpt lat="40.54415485428596" lon="8.321438225096701"><ele>13.0</ele><time>2026-04-06T15:49:37Z</time></trkpt><trkpt lat="40.544225036509" lon="8.321396804098331"><ele>13.0</ele><time>2026-04-06T15:49:38Z</time></trkpt><trkpt lat="40.5443072876422" lon="8.321365581642826"><ele>12.999999999999998</ele><time>2026-04-06T15:49:39Z</time></trkpt><trkpt lat="40.54439655864907" lon="8.321352728460125"><ele>13.0</ele><time>2026-04-06T15:49:40Z</time></trkpt><trkpt lat="40.54449151148198" lon="8.321362784960261"><ele>12.600000000000001</ele><time>2026-04-06T15:49:41Z</time></trkpt><trkpt lat="40.54459128617595" lon="8.321397537739529"><ele>12.200000000000001</ele><time>2026-04-06T15:49:42Z</time></trkpt><trkpt lat="40.54468171574834" lon="8.32144226186677"><ele>11.8</ele><time>2026-04-06T15:49:43Z</time></trkpt><trkpt lat="40.5447666378457" lon="8.32149951061466"><ele>11.4</ele><time>2026-04-06T15:49:44Z</time></trkpt><trkpt lat="40.54484900273908" lon="8.321564516944933"><ele>11.0</ele><time>2026-04-06T15:49:45Z</time></trkpt><trkpt lat="40.54493288890833" lon="8.32164297820369"><ele>11.0</ele><time>2026-04-06T15:49:46Z</time></trkpt><trkpt lat="40.54501902843694" lon="8.321725787593401"><ele>11.0</ele><time>2026-04-06T15:49:47Z</time></trkpt><trkpt lat="40.545100304103656" lon="8.321794537054958"><ele>11.0</ele><time>2026-04-06T15:49:48Z</time></trkpt><trkpt lat="40.54518922842321" lon="8.32185487232241"><ele>11.0</ele><time>2026-04-06T15:49:49Z</time></trkpt><trkpt lat="40.54528749781594" lon="8.321907223691175"><ele>11.0</ele><time>2026-04-06T15:49:50Z</time></trkpt><trkpt lat="40.54539059587693" lon="8.321955770597125"><ele>10.8</ele><time>2026-04-06T15:49:51Z</time></trkpt><trkpt lat="40.545494211431624" lon="8.321999923640567"><ele>10.600000000000001</ele><time>2026-04-06T15:49:52Z</time></trkpt><trkpt lat="40.54559800254646" lon="8.322042897491349"><ele>10.4</ele><time>2026-04-06T15:49:53Z</time></trkpt><trkpt lat="40.545701248829324" lon="8.322084154391453"><ele>10.2</ele><time>2026-04-06T15:49:54Z</time></trkpt><trkpt lat="40.54579088105274" lon="8.322119860533684"><ele>10.0</ele><time>2026-04-06T15:49:54.999Z</time></trkpt><trkpt lat="40.54587403258917" lon="8.322153890680692"><ele>10.0</ele><time>2026-04-06T15:49:55.999Z</time></trkpt><trkpt lat="40.545948163462256" lon="8.322184927150909"><ele>10.0</ele><time>2026-04-06T15:49:56.999Z</time></trkpt><trkpt lat="40.54601619941225" lon="8.322213175993602"><ele>10.0</ele><time>2026-04-06T15:49:57.999Z</time></trkpt><trkpt lat="40.54608296910392" lon="8.322240740925952"><ele>10.0</ele><time>2026-04-06T15:49:58.999Z</time></trkpt><trkpt lat="40.546150492640756" lon="8.322268489232966"><ele>10.0</ele><time>2026-04-06T15:49:59.999Z</time></trkpt><trkpt lat="40.546294304763435" lon="8.322328846652562"><ele>10.0</ele><time>2026-04-06T15:50:01.999Z</time></trkpt><trkpt lat="40.54636751905459" lon="8.322365054770302"><ele>11.5</ele><time>2026-04-06T15:50:02.999Z</time></trkpt><trkpt lat="40.54644045470431" lon="8.322405555931205"><ele>13.0</ele><time>2026-04-06T15:50:03.999Z</time></trkpt><trkpt lat="40.546511281963916" lon="8.32245152928705"><ele>14.5</ele><time>2026-04-06T15:50:04.999Z</time></trkpt><trkpt lat="40.54657078431544" lon="8.322494177401023"><ele>16.0</ele><time>2026-04-06T15:50:05.999Z</time></trkpt><trkpt lat="40.546627407561665" lon="8.322535898223839"><ele>17.5</ele><time>2026-04-06T15:50:06.999Z</time></trkpt><trkpt lat="40.546726230930126" lon="8.32260793928538"><ele>19.0</ele><time>2026-04-06T15:50:08.999Z</time></trkpt><trkpt lat="40.5468376585755" lon="8.322696334983915"><ele>19.0</ele><time>2026-04-06T15:50:10.999Z</time></trkpt><trkpt lat="40.546901003910655" lon="8.322747538218978"><ele>19.0</ele><time>2026-04-06T15:50:11.999Z</time></trkpt><trkpt lat="40.54696508357991" lon="8.322796866335871"><ele>19.0</ele><time>2026-04-06T15:50:12.999Z</time></trkpt><trkpt lat="40.54702498614682" lon="8.32284866945613"><ele>19.0</ele><time>2026-04-06T15:50:13.999Z</time></trkpt><trkpt lat="40.547085850413566" lon="8.322912033929285"><ele>19.0</ele><time>2026-04-06T15:50:14.999Z</time></trkpt><trkpt lat="40.547144731059205" lon="8.322990795066183"><ele>19.0</ele><time>2026-04-06T15:50:15.999Z</time></trkpt><trkpt lat="40.547196583839614" lon="8.323084613288616"><ele>20.0</ele><time>2026-04-06T15:50:16.999Z</time></trkpt><trkpt lat="40.54724248658123" lon="8.323182004174178"><ele>21.0</ele><time>2026-04-06T15:50:17.999Z</time></trkpt><trkpt lat="40.54728641278074" lon="8.323278609839564"><ele>22.0</ele><time>2026-04-06T15:50:18.999Z</time></trkpt><trkpt lat="40.547322043956726" lon="8.323364310050435"><ele>23.0</ele><time>2026-04-06T15:50:19.999Z</time></trkpt><trkpt lat="40.54737954842977" lon="8.323482342759792"><ele>24.000000000000004</ele><time>2026-04-06T15:50:20.999Z</time></trkpt><trkpt lat="40.547425221432015" lon="8.323582238507203"><ele>25.0</ele><time>2026-04-06T15:50:21.999Z</time></trkpt><trkpt lat="40.54746878018075" lon="8.323687804241656"><ele>25.000000000000004</ele><time>2026-04-06T15:50:22.999Z</time></trkpt><trkpt lat="40.54751107868012" lon="8.323792600984811"><ele>25.0</ele><time>2026-04-06T15:50:23.999Z</time></trkpt><trkpt lat="40.547554163617654" lon="8.323877177717513"><ele>25.0</ele><time>2026-04-06T15:50:24.999Z</time></trkpt><trkpt lat="40.5475905358568" lon="8.323951503072665"><ele>25.0</ele><time>2026-04-06T15:50:25.999Z</time></trkpt><trkpt lat="40.54762871703614" lon="8.324035407042"><ele>25.000000000000004</ele><time>2026-04-06T15:50:26.999Z</time></trkpt><trkpt lat="40.54766544422654" lon="8.32413165623746"><ele>25.0</ele><time>2026-04-06T15:50:27.999Z</time></trkpt><trkpt lat="40.54770090583575" lon="8.324231407860054"><ele>25.6</ele><time>2026-04-06T15:50:28.999Z</time></trkpt><trkpt lat="40.54773604724592" lon="8.324334764660962"><ele>26.2</ele><time>2026-04-06T15:50:29.999Z</time></trkpt><trkpt lat="40.547765601493175" lon="8.324445393729004"><ele>26.799999999999997</ele><time>2026-04-06T15:50:31Z</time></trkpt><trkpt lat="40.54778756141871" lon="8.32455905841746"><ele>27.4</ele><time>2026-04-06T15:50:32Z</time></trkpt><trkpt lat="40.547810172179936" lon="8.324655072968186"><ele>28.0</ele><time>2026-04-06T15:50:33Z</time></trkpt><trkpt lat="40.54784595536118" lon="8.324813815075379"><ele>28.166666666666668</ele><time>2026-04-06T15:50:35Z</time></trkpt><trkpt lat="40.54785764393076" lon="8.324911280492984"><ele>28.333333333333336</ele><time>2026-04-06T15:50:36Z</time></trkpt><trkpt lat="40.54786530225214" lon="8.325000739940885"><ele>28.5</ele><time>2026-04-06T15:50:37Z</time></trkpt><trkpt lat="40.54787397728605" lon="8.32509798567289"><ele>28.666666666666664</ele><time>2026-04-06T15:50:38Z</time></trkpt><trkpt lat="40.54788784211333" lon="8.32523659588222"><ele>28.833333333333332</ele><time>2026-04-06T15:50:40Z</time></trkpt><trkpt lat="40.54790782151986" lon="8.325365285897254"><ele>29.0</ele><time>2026-04-06T15:50:42Z</time></trkpt><trkpt lat="40.54790890034271" lon="8.325462869830705"><ele>29.6</ele><time>2026-04-06T15:50:44Z</time></trkpt><trkpt lat="40.54791742562137" lon="8.32560120175164"><ele>30.2</ele><time>2026-04-06T15:50:47Z</time></trkpt><trkpt lat="40.547938285824266" lon="8.325725917853235"><ele>30.800000000000004</ele><time>2026-04-06T15:50:49Z</time></trkpt><trkpt lat="40.54795250330349" lon="8.32584041704575"><ele>31.400000000000002</ele><time>2026-04-06T15:50:51Z</time></trkpt><trkpt lat="40.54799512932176" lon="8.325929087963942"><ele>32.0</ele><time>2026-04-06T15:50:54Z</time></trkpt><trkpt lat="40.54810427841773" lon="8.32595806464627"><ele>32.0</ele><time>2026-04-06T15:50:58Z</time></trkpt><trkpt lat="40.54820639134394" lon="8.325869380221858"><ele>32.0</ele><time>2026-04-06T15:51:00Z</time></trkpt><trkpt lat="40.5482675611615" lon="8.325816522799894"><ele>32.0</ele><time>2026-04-06T15:51:01Z</time></trkpt><trkpt lat="40.54837705113834" lon="8.325725993458224"><ele>32.0</ele><time>2026-04-06T15:51:03Z</time></trkpt><trkpt lat="40.548446385574415" lon="8.325676362522094"><ele>32.0</ele><time>2026-04-06T15:51:04Z</time></trkpt><trkpt lat="40.54854455008705" lon="8.325610262694743"><ele>32.0</ele><time>2026-04-06T15:51:05Z</time></trkpt><trkpt lat="40.54862045218609" lon="8.325558050823094"><ele>32.0</ele><time>2026-04-06T15:51:06Z</time></trkpt><trkpt lat="40.548706791059345" lon="8.325494281925659"><ele>32.0</ele><time>2026-04-06T15:51:07Z</time></trkpt><trkpt lat="40.54879833269577" lon="8.325422972990067"><ele>32.0</ele><time>2026-04-06T15:51:08Z</time></trkpt><trkpt lat="40.54888541244476" lon="8.325382293402091"><ele>32.0</ele><time>2026-04-06T15:51:09Z</time></trkpt><trkpt lat="40.54895098361634" lon="8.325316562874887"><ele>32.0</ele><time>2026-04-06T15:51:10Z</time></trkpt><trkpt lat="40.549029597720015" lon="8.325275663321255"><ele>32.0</ele><time>2026-04-06T15:51:11Z</time></trkpt><trkpt lat="40.54910898339282" lon="8.325240053678632"><ele>32.0</ele><time>2026-04-06T15:51:12Z</time></trkpt><trkpt lat="40.5491915525906" lon="8.325207443379032"><ele>32.0</ele><time>2026-04-06T15:51:13Z</time></trkpt><trkpt lat="40.54930448585096" lon="8.325265406011972"><ele>32.0</ele><time>2026-04-06T15:51:14Z</time></trkpt><trkpt lat="40.549501633467045" lon="8.325351008277076"><ele>32.0</ele><time>2026-04-06T15:51:16Z</time></trkpt><trkpt lat="40.54960552457029" lon="8.325386560406898"><ele>32.0</ele><time>2026-04-06T15:51:17Z</time></trkpt><trkpt lat="40.54972035771141" lon="8.325430217998887"><ele>32.0</ele><time>2026-04-06T15:51:18Z</time></trkpt><trkpt lat="40.549841266046364" lon="8.325476343865558"><ele>32.0</ele><time>2026-04-06T15:51:19Z</time></trkpt><trkpt lat="40.54996069437003" lon="8.325525616425749"><ele>32.0</ele><time>2026-04-06T15:51:20Z</time></trkpt><trkpt lat="40.55008274256046" lon="8.32557783283606"><ele>32.0</ele><time>2026-04-06T15:51:21Z</time></trkpt><trkpt lat="40.55019693301983" lon="8.32562310462894"><ele>32.0</ele><time>2026-04-06T15:51:21.999Z</time></trkpt><trkpt lat="40.55030549917522" lon="8.325662976448442"><ele>32.0</ele><time>2026-04-06T15:51:22.999Z</time></trkpt><trkpt lat="40.55042424942901" lon="8.325702239744944"><ele>31.0</ele><time>2026-04-06T15:51:23.999Z</time></trkpt><trkpt lat="40.55054742011316" lon="8.325739459431748"><ele>30.0</ele><time>2026-04-06T15:51:24.999Z</time></trkpt><trkpt lat="40.550674535468424" lon="8.325778926936826"><ele>29.0</ele><time>2026-04-06T15:51:25.999Z</time></trkpt><trkpt lat="40.55078934358444" lon="8.325814616889216"><ele>28.0</ele><time>2026-04-06T15:51:26.999Z</time></trkpt><trkpt lat="40.550894047263476" lon="8.325849237532902"><ele>28.000000000000004</ele><time>2026-04-06T15:51:27.999Z</time></trkpt><trkpt lat="40.55099439823319" lon="8.325881302366602"><ele>28.0</ele><time>2026-04-06T15:51:28.999Z</time></trkpt><trkpt lat="40.551085907309" lon="8.32590508886229"><ele>28.0</ele><time>2026-04-06T15:51:29.999Z</time></trkpt><trkpt lat="40.55116932338163" lon="8.325929405555653"><ele>28.0</ele><time>2026-04-06T15:51:30.999Z</time></trkpt><trkpt lat="40.55124304989306" lon="8.325954988006123"><ele>28.000000000000004</ele><time>2026-04-06T15:51:31.999Z</time></trkpt><trkpt lat="40.55131275354218" lon="8.32597636716955"><ele>28.0</ele><time>2026-04-06T15:51:32.999Z</time></trkpt><trkpt lat="40.55137382413114" lon="8.325998954171649"><ele>27.599999999999998</ele><time>2026-04-06T15:51:33.999Z</time></trkpt><trkpt lat="40.55148301334577" lon="8.326033556378382"><ele>27.199999999999996</ele><time>2026-04-06T15:51:35.999Z</time></trkpt><trkpt lat="40.55157528693705" lon="8.326060850806304"><ele>26.8</ele><time>2026-04-06T15:51:37.999Z</time></trkpt><trkpt lat="40.55164631504466" lon="8.326082478410756"><ele>26.4</ele><time>2026-04-06T15:51:40.999Z</time></trkpt><trkpt lat="40.551736747930626" lon="8.326108274781408"><ele>26.0</ele><time>2026-04-06T15:52:33.999Z</time></trkpt><trkpt lat="40.55184111629466" lon="8.326125495208386"><ele>26.0</ele><time>2026-04-06T15:52:35.999Z</time></trkpt><trkpt lat="40.55191895096361" lon="8.326169186690564"><ele>26.0</ele><time>2026-04-06T15:52:37.999Z</time></trkpt><trkpt lat="40.551981450466954" lon="8.325992010657691"><ele>26.0</ele><time>2026-04-06T15:52:38.999Z</time></trkpt><trkpt lat="40.55201369283716" lon="8.325902175638742"><ele>26.0</ele><time>2026-04-06T15:52:39.999Z</time></trkpt><trkpt lat="40.55204668260605" lon="8.32580426710065"><ele>26.0</ele><time>2026-04-06T15:52:40.999Z</time></trkpt><trkpt lat="40.55208241392111" lon="8.325717131108016"><ele>25.833333333333332</ele><time>2026-04-06T15:52:41.999Z</time></trkpt><trkpt lat="40.55211972358714" lon="8.325637076903254"><ele>25.666666666666664</ele><time>2026-04-06T15:52:42.999Z</time></trkpt><trkpt lat="40.55216390543872" lon="8.325546091731532"><ele>25.5</ele><time>2026-04-06T15:52:43.999Z</time></trkpt><trkpt lat="40.552211673248" lon="8.325450156831444"><ele>25.333333333333336</ele><time>2026-04-06T15:52:44.999Z</time></trkpt><trkpt lat="40.55225707135771" lon="8.325358637080717"><ele>25.166666666666668</ele><time>2026-04-06T15:52:45.999Z</time></trkpt><trkpt lat="40.55230279369369" lon="8.325269608980829"><ele>25.0</ele><time>2026-04-06T15:52:46.999Z</time></trkpt><trkpt lat="40.552352226910855" lon="8.325171761363304"><ele>25.0</ele><time>2026-04-06T15:52:47.999Z</time></trkpt><trkpt lat="40.55240778597703" lon="8.325069704898413"><ele>25.0</ele><time>2026-04-06T15:52:48.999Z</time></trkpt><trkpt lat="40.55246900345082" lon="8.32494819865156"><ele>25.0</ele><time>2026-04-06T15:52:49.999Z</time></trkpt><trkpt lat="40.55253929524664" lon="8.32481518853228"><ele>25.0</ele><time>2026-04-06T15:52:50.999Z</time></trkpt><trkpt lat="40.5526103519794" lon="8.324679505851966"><ele>25.0</ele><time>2026-04-06T15:52:51.999Z</time></trkpt><trkpt lat="40.552674653269406" lon="8.324555931855928"><ele>25.0</ele><time>2026-04-06T15:52:52.999Z</time></trkpt><trkpt lat="40.55273677227248" lon="8.324445618551554"><ele>25.0</ele><time>2026-04-06T15:52:53.999Z</time></trkpt><trkpt lat="40.552790284148514" lon="8.324349686046649"><ele>25.0</ele><time>2026-04-06T15:52:54.999Z</time></trkpt><trkpt lat="40.55283699638344" lon="8.32426717992901"><ele>25.0</ele><time>2026-04-06T15:52:55.999Z</time></trkpt><trkpt lat="40.55288427405479" lon="8.324183978506701"><ele>25.2</ele><time>2026-04-06T15:52:56.999Z</time></trkpt><trkpt lat="40.55293371658718" lon="8.32409521106352"><ele>25.4</ele><time>2026-04-06T15:52:57.999Z</time></trkpt><trkpt lat="40.55298681347319" lon="8.32398598409204"><ele>25.6</ele><time>2026-04-06T15:52:58.999Z</time></trkpt><trkpt lat="40.55304545540298" lon="8.323867032982188"><ele>25.8</ele><time>2026-04-06T15:52:59.999Z</time></trkpt><trkpt lat="40.55311698760584" lon="8.323731773773575"><ele>26.0</ele><time>2026-04-06T15:53:00.999Z</time></trkpt><trkpt lat="40.553198416900294" lon="8.323577083604587"><ele>26.0</ele><time>2026-04-06T15:53:01.999Z</time></trkpt><trkpt lat="40.5532757495987" lon="8.323437404484807"><ele>26.0</ele><time>2026-04-06T15:53:02.999Z</time></trkpt><trkpt lat="40.5533451489672" lon="8.323304913609288"><ele>26.0</ele><time>2026-04-06T15:53:03.999Z</time></trkpt><trkpt lat="40.553417584371985" lon="8.323161578896038"><ele>26.0</ele><time>2026-04-06T15:53:04.999Z</time></trkpt><trkpt lat="40.55349425495514" lon="8.323017539923974"><ele>26.0</ele><time>2026-04-06T15:53:05.999Z</time></trkpt><trkpt lat="40.55356905613946" lon="8.322869498507997"><ele>26.0</ele><time>2026-04-06T15:53:06.999Z</time></trkpt><trkpt lat="40.55363830592672" lon="8.322733674685963"><ele>26.0</ele><time>2026-04-06T15:53:07.999Z</time></trkpt><trkpt lat="40.55370516492703" lon="8.322615166251241"><ele>26.0</ele><time>2026-04-06T15:53:08.999Z</time></trkpt><trkpt lat="40.553761768077365" lon="8.322505074198688"><ele>26.0</ele><time>2026-04-06T15:53:09.999Z</time></trkpt><trkpt lat="40.55381390939827" lon="8.322398489419008"><ele>26.0</ele><time>2026-04-06T15:53:10.999Z</time></trkpt><trkpt lat="40.55386720248631" lon="8.322295904700061"><ele>26.0</ele><time>2026-04-06T15:53:11.999Z</time></trkpt><trkpt lat="40.55392152175466" lon="8.322188860861278"><ele>26.0</ele><time>2026-04-06T15:53:12.999Z</time></trkpt><trkpt lat="40.55398322067674" lon="8.32207373390512"><ele>26.0</ele><time>2026-04-06T15:53:13.999Z</time></trkpt><trkpt lat="40.55403651160934" lon="8.321965533070307"><ele>26.0</ele><time>2026-04-06T15:53:14.999Z</time></trkpt><trkpt lat="40.554090808984775" lon="8.321863102547185"><ele>26.0</ele><time>2026-04-06T15:53:15.999Z</time></trkpt><trkpt lat="40.55415107684532" lon="8.321753062999386"><ele>26.0</ele><time>2026-04-06T15:53:16.999Z</time></trkpt><trkpt lat="40.55421286602261" lon="8.321629735733058"><ele>26.0</ele><time>2026-04-06T15:53:17.999Z</time></trkpt><trkpt lat="40.554283599968336" lon="8.321503189535836"><ele>26.0</ele><time>2026-04-06T15:53:18.999Z</time></trkpt><trkpt lat="40.55435222672497" lon="8.32138343759709"><ele>25.6</ele><time>2026-04-06T15:53:19.999Z</time></trkpt><trkpt lat="40.55441075886266" lon="8.321275133471733"><ele>25.200000000000003</ele><time>2026-04-06T15:53:20.999Z</time></trkpt><trkpt lat="40.55446435984274" lon="8.321176929202887"><ele>24.799999999999997</ele><time>2026-04-06T15:53:21.999Z</time></trkpt><trkpt lat="40.55451788755419" lon="8.321071429619126"><ele>24.4</ele><time>2026-04-06T15:53:22.999Z</time></trkpt><trkpt lat="40.554576622029636" lon="8.320966247252246"><ele>24.0</ele><time>2026-04-06T15:53:23.999Z</time></trkpt><trkpt lat="40.55463361833503" lon="8.320849641870005"><ele>24.0</ele><time>2026-04-06T15:53:24.999Z</time></trkpt><trkpt lat="40.55468153310117" lon="8.320751818923682"><ele>24.0</ele><time>2026-04-06T15:53:25.999Z</time></trkpt><trkpt lat="40.55472355253854" lon="8.320670672750348"><ele>24.0</ele><time>2026-04-06T15:53:26.999Z</time></trkpt><trkpt lat="40.55476959077357" lon="8.320575277141412"><ele>24.0</ele><time>2026-04-06T15:53:27.999Z</time></trkpt><trkpt lat="40.554834689838806" lon="8.320471668367432"><ele>24.0</ele><time>2026-04-06T15:53:28.999Z</time></trkpt><trkpt lat="40.55489608373162" lon="8.320378671852504"><ele>24.0</ele><time>2026-04-06T15:53:29.999Z</time></trkpt><trkpt lat="40.55495095072163" lon="8.320290982857438"><ele>24.0</ele><time>2026-04-06T15:53:30.999Z</time></trkpt><trkpt lat="40.55499688071829" lon="8.320204502864629"><ele>24.0</ele><time>2026-04-06T15:53:31.999Z</time></trkpt><trkpt lat="40.55503882284495" lon="8.320123824926426"><ele>24.0</ele><time>2026-04-06T15:53:32.999Z</time></trkpt><trkpt lat="40.555092556120655" lon="8.320007212873149"><ele>24.0</ele><time>2026-04-06T15:53:34.999Z</time></trkpt><trkpt lat="40.55511433251079" lon="8.31992479560345"><ele>24.0</ele><time>2026-04-06T15:53:44.999Z</time></trkpt><trkpt lat="40.55515815634307" lon="8.31985363283919"><ele>24.0</ele><time>2026-04-06T15:53:46.999Z</time></trkpt><trkpt lat="40.55522260212898" lon="8.319723215166563"><ele>23.5</ele><time>2026-04-06T15:53:48.999Z</time></trkpt><trkpt lat="40.55525785360523" lon="8.319651724796753"><ele>23.0</ele><time>2026-04-06T15:53:49.999Z</time></trkpt><trkpt lat="40.55531477921295" lon="8.319549319869108"><ele>22.5</ele><time>2026-04-06T15:53:51.999Z</time></trkpt><trkpt lat="40.555360180879354" lon="8.319459504795173"><ele>22.0</ele><time>2026-04-06T15:53:53.999Z</time></trkpt><trkpt lat="40.55540546076893" lon="8.319370697136133"><ele>21.5</ele><time>2026-04-06T15:53:55.999Z</time></trkpt><trkpt lat="40.555446255217134" lon="8.319302626864518"><ele>21.0</ele><time>2026-04-06T15:53:57.999Z</time></trkpt><trkpt lat="40.55549465321773" lon="8.319212532313117"><ele>20.6</ele><time>2026-04-06T15:53:59.999Z</time></trkpt><trkpt lat="40.555551934684395" lon="8.319103155543715"><ele>20.200000000000003</ele><time>2026-04-06T15:54:01.999Z</time></trkpt><trkpt lat="40.555617703222275" lon="8.31897579086297"><ele>19.799999999999997</ele><time>2026-04-06T15:54:03.999Z</time></trkpt><trkpt lat="40.555678205301085" lon="8.318850442227998"><ele>19.4</ele><time>2026-04-06T15:54:05.999Z</time></trkpt><trkpt lat="40.55573741454028" lon="8.318747096236054"><ele>19.0</ele><time>2026-04-06T15:54:07.999Z</time></trkpt><trkpt lat="40.55578307455466" lon="8.318673075200373"><ele>18.833333333333332</ele><time>2026-04-06T15:54:09.999Z</time></trkpt><trkpt lat="40.55584970061754" lon="8.318604619849165"><ele>18.666666666666664</ele><time>2026-04-06T15:54:12.999Z</time></trkpt><trkpt lat="40.55592148342035" lon="8.31854993732789"><ele>18.5</ele><time>2026-04-06T15:54:14.999Z</time></trkpt><trkpt lat="40.55599124423753" lon="8.318497230428433"><ele>18.333333333333332</ele><time>2026-04-06T15:54:16.999Z</time></trkpt><trkpt lat="40.55606020101305" lon="8.318446949271166"><ele>18.166666666666668</ele><time>2026-04-06T15:54:18.999Z</time></trkpt><trkpt lat="40.5561295791356" lon="8.318390316473481"><ele>18.0</ele><time>2026-04-06T15:54:20.999Z</time></trkpt><trkpt lat="40.5562085058021" lon="8.31832671476109"><ele>18.0</ele><time>2026-04-06T15:54:22.999Z</time></trkpt><trkpt lat="40.55629384342682" lon="8.318258876894662"><ele>18.0</ele><time>2026-04-06T15:54:24.999Z</time></trkpt><trkpt lat="40.556370557481095" lon="8.318201687157252"><ele>18.0</ele><time>2026-04-06T15:54:26.999Z</time></trkpt><trkpt lat="40.556427573477556" lon="8.318158819533453"><ele>18.0</ele><time>2026-04-06T15:54:31.999Z</time></trkpt><trkpt lat="40.556509498646385" lon="8.318090006888522"><ele>18.0</ele><time>2026-04-06T15:54:33.999Z</time></trkpt><trkpt lat="40.55656358046101" lon="8.318037288438891"><ele>18.0</ele><time>2026-04-06T15:54:34.999Z</time></trkpt><trkpt lat="40.556616477864715" lon="8.31798369968851"><ele>17.8</ele><time>2026-04-06T15:54:35.999Z</time></trkpt><trkpt lat="40.55671638727023" lon="8.317904517854293"><ele>17.6</ele><time>2026-04-06T15:54:37.999Z</time></trkpt><trkpt lat="40.5568266179563" lon="8.317827302772518"><ele>17.4</ele><time>2026-04-06T15:54:39.999Z</time></trkpt><trkpt lat="40.556884874450105" lon="8.317782342503394"><ele>17.2</ele><time>2026-04-06T15:54:40.999Z</time></trkpt><trkpt lat="40.556976505555745" lon="8.317708519141078"><ele>17.0</ele><time>2026-04-06T15:54:42.999Z</time></trkpt><trkpt lat="40.55705252431828" lon="8.317646936202248"><ele>17.285714285714285</ele><time>2026-04-06T15:54:44.999Z</time></trkpt><trkpt lat="40.55712673224642" lon="8.317592985203062"><ele>17.57142857142857</ele><time>2026-04-06T15:54:46.999Z</time></trkpt><trkpt lat="40.55718334319937" lon="8.317547601864275"><ele>17.857142857142854</ele><time>2026-04-06T15:54:48.999Z</time></trkpt><trkpt lat="40.55723747049103" lon="8.317495878182257"><ele>18.142857142857142</ele><time>2026-04-06T15:55:13.999Z</time></trkpt><trkpt lat="40.557309563818215" lon="8.31741795575721"><ele>18.42857142857143</ele><time>2026-04-06T15:55:16.999Z</time></trkpt><trkpt lat="40.557366106776264" lon="8.31736599682261"><ele>18.71428571428571</ele><time>2026-04-06T15:55:18.999Z</time></trkpt><trkpt lat="40.55741909887453" lon="8.31730980906983"><ele>19.0</ele><time>2026-04-06T15:55:20.999Z</time></trkpt><trkpt lat="40.55747300265261" lon="8.317250000397303"><ele>18.599999999999998</ele><time>2026-04-06T15:55:22.999Z</time></trkpt><trkpt lat="40.55754789685793" lon="8.31717779075854"><ele>18.2</ele><time>2026-04-06T15:55:24.999Z</time></trkpt><trkpt lat="40.55761880023658" lon="8.317114828924026"><ele>17.799999999999997</ele><time>2026-04-06T15:55:26.999Z</time></trkpt><trkpt lat="40.55770692527945" lon="8.317038976897807"><ele>17.4</ele><time>2026-04-06T15:55:28.999Z</time></trkpt><trkpt lat="40.557807299318256" lon="8.316967307887785"><ele>17.0</ele><time>2026-04-06T15:55:30.999Z</time></trkpt><trkpt lat="40.55791565650201" lon="8.31688678383971"><ele>16.666666666666668</ele><time>2026-04-06T15:55:32.999Z</time></trkpt><trkpt lat="40.55797242084261" lon="8.31684187437818"><ele>16.333333333333336</ele><time>2026-04-06T15:55:33.999Z</time></trkpt><trkpt lat="40.55803152076541" lon="8.316797203126733"><ele>16.0</ele><time>2026-04-06T15:55:34.999Z</time></trkpt><trkpt lat="40.558093334932735" lon="8.31674904928975"><ele>15.666666666666668</ele><time>2026-04-06T15:55:35.999Z</time></trkpt><trkpt lat="40.558154370287404" lon="8.316694800806976"><ele>15.333333333333334</ele><time>2026-04-06T15:55:36.999Z</time></trkpt><trkpt lat="40.55821324107724" lon="8.316654083660188"><ele>15.0</ele><time>2026-04-06T15:55:37.999Z</time></trkpt><trkpt lat="40.55831390321291" lon="8.316567983404159"><ele>15.0</ele><time>2026-04-06T15:55:39.999Z</time></trkpt><trkpt lat="40.55839934468983" lon="8.316510022963321"><ele>15.0</ele><time>2026-04-06T15:55:41.999Z</time></trkpt><trkpt lat="40.55847600062019" lon="8.316455869599354"><ele>15.0</ele><time>2026-04-06T15:55:43.999Z</time></trkpt><trkpt lat="40.55856241971993" lon="8.316388847006683"><ele>15.0</ele><time>2026-04-06T15:55:45.999Z</time></trkpt><trkpt lat="40.55865329742409" lon="8.316319669844628"><ele>15.0</ele><time>2026-04-06T15:55:47.999Z</time></trkpt><trkpt lat="40.55874363791539" lon="8.31624647663249"><ele>14.6</ele><time>2026-04-06T15:55:49.999Z</time></trkpt><trkpt lat="40.558839840213444" lon="8.316165813556694"><ele>14.2</ele><time>2026-04-06T15:55:51.999Z</time></trkpt><trkpt lat="40.55893058732491" lon="8.316102438044831"><ele>13.8</ele><time>2026-04-06T15:55:53.999Z</time></trkpt><trkpt lat="40.55900240984192" lon="8.316044901867354"><ele>13.4</ele><time>2026-04-06T15:55:55.999Z</time></trkpt><trkpt lat="40.55907915042098" lon="8.315989302354195"><ele>13.0</ele><time>2026-04-06T15:55:57.999Z</time></trkpt><trkpt lat="40.55917395671636" lon="8.31591685138232"><ele>13.0</ele><time>2026-04-06T15:55:59.999Z</time></trkpt><trkpt lat="40.5592649240362" lon="8.315845562508471"><ele>13.0</ele><time>2026-04-06T15:56:01.999Z</time></trkpt><trkpt lat="40.55934852564254" lon="8.315781843926343"><ele>13.0</ele><time>2026-04-06T15:56:03.999Z</time></trkpt><trkpt lat="40.55944990982989" lon="8.315700182850946"><ele>13.0</ele><time>2026-04-06T15:56:05.999Z</time></trkpt><trkpt lat="40.559505120130744" lon="8.315655629830355"><ele>13.0</ele><time>2026-04-06T15:56:06.999Z</time></trkpt><trkpt lat="40.559604622880606" lon="8.315577769070162"><ele>11.666666666666666</ele><time>2026-04-06T15:56:08.999Z</time></trkpt><trkpt lat="40.559694455608565" lon="8.315510301203892"><ele>10.333333333333332</ele><time>2026-04-06T15:56:10.999Z</time></trkpt><trkpt lat="40.55975300885652" lon="8.315471000815354"><ele>9.0</ele><time>2026-04-06T15:56:19.999Z</time></trkpt><trkpt lat="40.559816360123186" lon="8.315431112146827"><ele>7.666666666666666</ele><time>2026-04-06T15:56:26.999Z</time></trkpt><trkpt lat="40.55991042222604" lon="8.315384848500225"><ele>6.333333333333334</ele><time>2026-04-06T15:56:29.999Z</time></trkpt><trkpt lat="40.560005094751425" lon="8.315337243287177"><ele>5.0</ele><time>2026-04-06T15:56:31.999Z</time></trkpt><trkpt lat="40.56010138988693" lon="8.315285233274398"><ele>5.0</ele><time>2026-04-06T15:56:33.999Z</time></trkpt><trkpt lat="40.56018788022875" lon="8.315245865422177"><ele>5.0</ele><time>2026-04-06T15:56:35.999Z</time></trkpt><trkpt lat="40.560272335960136" lon="8.315211359841216"><ele>5.0</ele><time>2026-04-06T15:56:37.999Z</time></trkpt><trkpt lat="40.56036580045073" lon="8.315214529671751"><ele>5.0</ele><time>2026-04-06T15:56:39.999Z</time></trkpt><trkpt lat="40.56044957477951" lon="8.315239586540345"><ele>5.0</ele><time>2026-04-06T15:56:41.999Z</time></trkpt><trkpt lat="40.56053173014287" lon="8.315281197258432"><ele>5.0</ele><time>2026-04-06T15:56:43.999Z</time></trkpt><trkpt lat="40.56062726329753" lon="8.315335527633318"><ele>5.2</ele><time>2026-04-06T15:56:45.999Z</time></trkpt><trkpt lat="40.560715924190994" lon="8.31538784791444"><ele>5.4</ele><time>2026-04-06T15:56:47.999Z</time></trkpt><trkpt lat="40.56080032687981" lon="8.315437366240443"><ele>5.6</ele><time>2026-04-06T15:56:49.999Z</time></trkpt><trkpt lat="40.56091175267216" lon="8.315502343663347"><ele>5.8</ele><time>2026-04-06T15:56:51.999Z</time></trkpt><trkpt lat="40.56098326524048" lon="8.315542640885775"><ele>6.0</ele><time>2026-04-06T15:56:52.999Z</time></trkpt><trkpt lat="40.56105582676804" lon="8.31558407770924"><ele>6.0</ele><time>2026-04-06T15:56:53.999Z</time></trkpt><trkpt lat="40.561125169242516" lon="8.315625368830752"><ele>6.0</ele><time>2026-04-06T15:56:54.999Z</time></trkpt><trkpt lat="40.56119998926818" lon="8.315671749535705"><ele>6.0</ele><time>2026-04-06T15:56:55.999Z</time></trkpt><trkpt lat="40.561281419428234" lon="8.315717969622119"><ele>6.0</ele><time>2026-04-06T15:56:56.999Z</time></trkpt><trkpt lat="40.561362281889785" lon="8.315766166452518"><ele>6.0</ele><time>2026-04-06T15:56:57.999Z</time></trkpt><trkpt lat="40.56144373966189" lon="8.31581497734154"><ele>6.0</ele><time>2026-04-06T15:56:58.999Z</time></trkpt><trkpt lat="40.56152209461291" lon="8.315862495342863"><ele>5.2</ele><time>2026-04-06T15:56:59.999Z</time></trkpt><trkpt lat="40.5615979512179" lon="8.315903707021574"><ele>4.3999999999999995</ele><time>2026-04-06T15:57:00.999Z</time></trkpt><trkpt lat="40.56166134024605" lon="8.315943575171941"><ele>3.6</ele><time>2026-04-06T15:57:01.999Z</time></trkpt><trkpt lat="40.561765425964815" lon="8.316008010635878"><ele>2.8</ele><time>2026-04-06T15:57:03.999Z</time></trkpt><trkpt lat="40.561874448758815" lon="8.316070107415431"><ele>2.0</ele><time>2026-04-06T15:57:05.999Z</time></trkpt><trkpt lat="40.5619349607487" lon="8.316103414386712"><ele>1.9999999999999998</ele><time>2026-04-06T15:57:06.999Z</time></trkpt><trkpt lat="40.56199967678406" lon="8.316140621622933"><ele>2.0</ele><time>2026-04-06T15:57:07.999Z</time></trkpt><trkpt lat="40.56206502663926" lon="8.316180150227847"><ele>2.0</ele><time>2026-04-06T15:57:08.999Z</time></trkpt><trkpt lat="40.56212565417347" lon="8.316216193558713"><ele>2.0</ele><time>2026-04-06T15:57:09.999Z</time></trkpt><trkpt lat="40.56218468476594" lon="8.316250782506906"><ele>1.9999999999999998</ele><time>2026-04-06T15:57:10.999Z</time></trkpt><trkpt lat="40.56229285256647" lon="8.316310366360169"><ele>2.0</ele><time>2026-04-06T15:57:12.999Z</time></trkpt><trkpt lat="40.56240533191305" lon="8.316374315737953"><ele>2.0</ele><time>2026-04-06T15:57:14.999Z</time></trkpt><trkpt lat="40.56246819328118" lon="8.316409330780493"><ele>1.9999999999999998</ele><time>2026-04-06T15:57:15.999Z</time></trkpt><trkpt lat="40.56253408658163" lon="8.316444250586907"><ele>2.0</ele><time>2026-04-06T15:57:16.999Z</time></trkpt><trkpt lat="40.56260090307439" lon="8.316478965978208"><ele>2.0</ele><time>2026-04-06T15:57:17.999Z</time></trkpt><trkpt lat="40.56266512796285" lon="8.316513277033351"><ele>1.9999999999999998</ele><time>2026-04-06T15:57:18.999Z</time></trkpt><trkpt lat="40.562725082408434" lon="8.316546721249871"><ele>2.0</ele><time>2026-04-06T15:57:19.999Z</time></trkpt><trkpt lat="40.56281612645842" lon="8.316597199747005"><ele>2.0</ele><time>2026-04-06T15:57:21.999Z</time></trkpt><trkpt lat="40.56287445240288" lon="8.316637143407906"><ele>2.0</ele><time>2026-04-06T15:57:23.999Z</time></trkpt><trkpt lat="40.562942021570414" lon="8.31667957579786"><ele>2.0</ele><time>2026-04-06T15:57:30.999Z</time></trkpt><trkpt lat="40.563015136118416" lon="8.316722151326488"><ele>2.0</ele><time>2026-04-06T15:57:32.999Z</time></trkpt><trkpt lat="40.56310686554571" lon="8.31676690474229"><ele>2.0</ele><time>2026-04-06T15:57:35.999Z</time></trkpt><trkpt lat="40.56320252694744" lon="8.31682604643656"><ele>2.0</ele><time>2026-04-06T15:57:37.999Z</time></trkpt><trkpt lat="40.56330518700031" lon="8.316888507661522"><ele>1.9999999999999998</ele><time>2026-04-06T15:57:39.999Z</time></trkpt><trkpt lat="40.56341830951813" lon="8.316955217895504"><ele>2.0</ele><time>2026-04-06T15:57:41.999Z</time></trkpt><trkpt lat="40.563478574725316" lon="8.316987268405066"><ele>2.0</ele><time>2026-04-06T15:57:42.999Z</time></trkpt><trkpt lat="40.56354437139576" lon="8.317021771712962"><ele>2.0</ele><time>2026-04-06T15:57:43.999Z</time></trkpt><trkpt lat="40.56361913043478" lon="8.317060036559669"><ele>1.9999999999999998</ele><time>2026-04-06T15:57:44.999Z</time></trkpt><trkpt lat="40.56369368851548" lon="8.317097992966136"><ele>2.0</ele><time>2026-04-06T15:57:45.999Z</time></trkpt><trkpt lat="40.56376486991836" lon="8.317135123027962"><ele>1.8333333333333333</ele><time>2026-04-06T15:57:46.999Z</time></trkpt><trkpt lat="40.56384019942747" lon="8.31717659544675"><ele>1.6666666666666665</ele><time>2026-04-06T15:57:47.999Z</time></trkpt><trkpt lat="40.5639153979473" lon="8.31721697190978"><ele>1.5</ele><time>2026-04-06T15:57:48.999Z</time></trkpt><trkpt lat="40.563993302435236" lon="8.317256819100765"><ele>1.3333333333333333</ele><time>2026-04-06T15:57:49.999Z</time></trkpt><trkpt lat="40.56406719940315" lon="8.317293645632695"><ele>1.1666666666666665</ele><time>2026-04-06T15:57:50.999Z</time></trkpt><trkpt lat="40.564135546624755" lon="8.31732858821562"><ele>1.0</ele><time>2026-04-06T15:57:51.999Z</time></trkpt><trkpt lat="40.5642089077641" lon="8.317366951632913"><ele>0.9999999999999999</ele><time>2026-04-06T15:57:52.999Z</time></trkpt><trkpt lat="40.56428547773129" lon="8.317405286190072"><ele>1.0</ele><time>2026-04-06T15:57:53.999Z</time></trkpt><trkpt lat="40.56436731200557" lon="8.317449444837488"><ele>1.0</ele><time>2026-04-06T15:57:54.999Z</time></trkpt><trkpt lat="40.56445080859549" lon="8.317492985103973"><ele>1.0</ele><time>2026-04-06T15:57:55.999Z</time></trkpt><trkpt lat="40.5645356909081" lon="8.317536774564223"><ele>0.9999999999999999</ele><time>2026-04-06T15:57:56.999Z</time></trkpt><trkpt lat="40.564618597604266" lon="8.317582370567623"><ele>1.0</ele><time>2026-04-06T15:57:57.999Z</time></trkpt><trkpt lat="40.56469935663917" lon="8.317626710973151"><ele>0.9999999999999999</ele><time>2026-04-06T15:57:58.999Z</time></trkpt><trkpt lat="40.56476997564169" lon="8.317667416915326"><ele>1.0</ele><time>2026-04-06T15:57:59.999Z</time></trkpt><trkpt lat="40.56483626435962" lon="8.317708032950392"><ele>1.0</ele><time>2026-04-06T15:58:00.999Z</time></trkpt><trkpt lat="40.564903349477376" lon="8.31775252798859"><ele>1.0</ele><time>2026-04-06T15:58:01.999Z</time></trkpt><trkpt lat="40.5649694028892" lon="8.317798102956738"><ele>0.9999999999999999</ele><time>2026-04-06T15:58:02.999Z</time></trkpt><trkpt lat="40.565040096098336" lon="8.317847351510025"><ele>1.0</ele><time>2026-04-06T15:58:03.999Z</time></trkpt><trkpt lat="40.56511321927104" lon="8.317897465672788"><ele>1.0</ele><time>2026-04-06T15:58:04.999Z</time></trkpt><trkpt lat="40.56518661156893" lon="8.317947781737528"><ele>1.0</ele><time>2026-04-06T15:58:05.999Z</time></trkpt><trkpt lat="40.56525209665134" lon="8.317991783761599"><ele>1.0</ele><time>2026-04-06T15:58:06.999Z</time></trkpt><trkpt lat="40.56531012094497" lon="8.318034380513307"><ele>1.0</ele><time>2026-04-06T15:58:07.999Z</time></trkpt><trkpt lat="40.56541868628831" lon="8.318112248785463"><ele>1.0</ele><time>2026-04-06T15:58:09.999Z</time></trkpt><trkpt lat="40.56551346607369" lon="8.318176043847018"><ele>1.1666666666666665</ele><time>2026-04-06T15:58:11.999Z</time></trkpt><trkpt lat="40.565586587911746" lon="8.318228970313958"><ele>1.3333333333333333</ele><time>2026-04-06T15:58:13.999Z</time></trkpt><trkpt lat="40.565648882050155" lon="8.318272290504053"><ele>1.5</ele><time>2026-04-06T15:58:15.999Z</time></trkpt><trkpt lat="40.5657115143416" lon="8.318330109277348"><ele>1.6666666666666665</ele><time>2026-04-06T15:58:25.999Z</time></trkpt><trkpt lat="40.565773264619075" lon="8.3183691104827"><ele>1.8333333333333333</ele><time>2026-04-06T15:58:27.999Z</time></trkpt><trkpt lat="40.56584928850026" lon="8.318408750209608"><ele>2.0</ele><time>2026-04-06T15:58:29.999Z</time></trkpt><trkpt lat="40.56594218439804" lon="8.318460225138752"><ele>2.0</ele><time>2026-04-06T15:58:31.999Z</time></trkpt><trkpt lat="40.566029747105695" lon="8.31851265818636"><ele>2.0</ele><time>2026-04-06T15:58:33.999Z</time></trkpt><trkpt lat="40.56611441246976" lon="8.318558909125493"><ele>2.0</ele><time>2026-04-06T15:58:35.999Z</time></trkpt><trkpt lat="40.56621914015465" lon="8.318612189447911"><ele>2.0</ele><time>2026-04-06T15:58:37.999Z</time></trkpt><trkpt lat="40.56630266519067" lon="8.318657434796448"><ele>2.0</ele><time>2026-04-06T15:58:39.999Z</time></trkpt><trkpt lat="40.56642126017811" lon="8.318716485548189"><ele>1.6666666666666665</ele><time>2026-04-06T15:58:41.999Z</time></trkpt><trkpt lat="40.56648282592277" lon="8.318742685264079"><ele>1.3333333333333333</ele><time>2026-04-06T15:58:42.999Z</time></trkpt><trkpt lat="40.5665522566885" lon="8.318773629986476"><ele>1.0</ele><time>2026-04-06T15:58:43.999Z</time></trkpt><trkpt lat="40.56662912502856" lon="8.318806011124147"><ele>0.6666666666666666</ele><time>2026-04-06T15:58:44.999Z</time></trkpt><trkpt lat="40.56670827737677" lon="8.31883640074199"><ele>0.3333333333333333</ele><time>2026-04-06T15:58:45.999Z</time></trkpt><trkpt lat="40.566799623681156" lon="8.318862948334186"><ele>0.0</ele><time>2026-04-06T15:58:46.999Z</time></trkpt><trkpt lat="40.56687078266483" lon="8.318883922194239"><ele>0.6</ele><time>2026-04-06T15:58:47.999Z</time></trkpt><trkpt lat="40.56697292324101" lon="8.318928675290541"><ele>1.2</ele><time>2026-04-06T15:58:49.999Z</time></trkpt><trkpt lat="40.56708641233299" lon="8.318974083007683"><ele>1.7999999999999998</ele><time>2026-04-06T15:58:51.999Z</time></trkpt><trkpt lat="40.56718358116128" lon="8.319004157330715"><ele>2.4</ele><time>2026-04-06T15:58:53.999Z</time></trkpt><trkpt lat="40.56726979049288" lon="8.319048854708003"><ele>3.0</ele><time>2026-04-06T15:58:55.999Z</time></trkpt><trkpt lat="40.56732907090398" lon="8.319152908035123"><ele>3.0</ele><time>2026-04-06T15:58:57.999Z</time></trkpt><trkpt lat="40.56738607100389" lon="8.319106371579714"><ele>3.0</ele><time>2026-04-06T15:58:59.999Z</time></trkpt><trkpt lat="40.56738465491433" lon="8.319240966422862"><ele>3.0</ele><time>2026-04-06T15:59:02.999Z</time></trkpt><trkpt lat="40.56744534116889" lon="8.319285372337522"><ele>3.0</ele><time>2026-04-06T16:04:31Z</time></trkpt><trkpt lat="40.567509847701565" lon="8.319212496562203"><ele>3.0</ele><time>2026-04-06T16:11:45.999Z</time></trkpt><trkpt lat="40.56751147536575" lon="8.31911872099305"><ele>3.0</ele><time>2026-04-06T16:19:35Z</time></trkpt><trkpt lat="40.567586517698764" lon="8.319096770171567"><ele>2.9999999999999996</ele><time>2026-04-06T16:19:45Z</time></trkpt><trkpt lat="40.56765605437301" lon="8.31911551808739"><ele>3.0</ele><time>2026-04-06T16:19:48Z</time></trkpt><trkpt lat="40.567718413456305" lon="8.31912985029716"><ele>3.0</ele><time>2026-04-06T16:19:52Z</time></trkpt><trkpt lat="40.56779025222168" lon="8.319147753788634"><ele>3.0</ele><time>2026-04-06T16:19:55.999Z</time></trkpt><trkpt lat="40.567863063907716" lon="8.31916049604374"><ele>3.0</ele><time>2026-04-06T16:19:59.999Z</time></trkpt><trkpt lat="40.567927161499824" lon="8.319172632933272"><ele>2.9999999999999996</ele><time>2026-04-06T16:20:35Z</time></trkpt><trkpt lat="40.567992203137024" lon="8.319178853925893"><ele>3.0</ele><time>2026-04-06T16:20:37Z</time></trkpt><trkpt lat="40.568074064483376" lon="8.319191062291367"><ele>3.0</ele><time>2026-04-06T16:20:39Z</time></trkpt><trkpt lat="40.568144160140875" lon="8.31920573334954"><ele>3.0</ele><time>2026-04-06T16:20:41Z</time></trkpt><trkpt lat="40.56824174712433" lon="8.319213164796263"><ele>3.0</ele><time>2026-04-06T16:20:44Z</time></trkpt><trkpt lat="40.568307071192336" lon="8.319225524412904"><ele>3.0</ele><time>2026-04-06T16:20:46Z</time></trkpt><trkpt lat="40.56837559606965" lon="8.31923897452935"><ele>3.0</ele><time>2026-04-06T16:20:49Z</time></trkpt><trkpt lat="40.56845919144035" lon="8.319250709065779"><ele>3.0</ele><time>2026-04-06T16:20:52Z</time></trkpt><trkpt lat="40.56853222895854" lon="8.319257851750496"><ele>2.9999999999999996</ele><time>2026-04-06T16:21:12Z</time></trkpt><trkpt lat="40.568598537884355" lon="8.319267000625803"><ele>3.0</ele><time>2026-04-06T16:21:20Z</time></trkpt><trkpt lat="40.568680323232556" lon="8.319279433520663"><ele>3.0</ele><time>2026-04-06T16:21:28Z</time></trkpt><trkpt lat="40.5687522122967" lon="8.319289668196706"><ele>3.0</ele><time>2026-04-06T16:21:32Z</time></trkpt><trkpt lat="40.568815234618846" lon="8.319306274405696"><ele>3.0</ele><time>2026-04-06T16:21:39Z</time></trkpt><trkpt lat="40.56888665814428" lon="8.319316737765106"><ele>2.9999999999999996</ele><time>2026-04-06T16:21:43Z</time></trkpt><trkpt lat="40.568959021093455" lon="8.319348124610142"><ele>3.0</ele><time>2026-04-06T16:21:47Z</time></trkpt><trkpt lat="40.56903932659236" lon="8.319397650991759"><ele>3.1666666666666665</ele><time>2026-04-06T16:21:50Z</time></trkpt><trkpt lat="40.56912065932756" lon="8.319419290195112"><ele>3.333333333333333</ele><time>2026-04-06T16:21:53Z</time></trkpt><trkpt lat="40.5692157503345" lon="8.319374663507425"><ele>3.5</ele><time>2026-04-06T16:21:56Z</time></trkpt><trkpt lat="40.56926833344246" lon="8.319311868266464"><ele>3.6666666666666665</ele><time>2026-04-06T16:21:59Z</time></trkpt><trkpt lat="40.56928810816331" lon="8.319231139289336"><ele>3.833333333333333</ele><time>2026-04-06T16:22:07.999Z</time></trkpt><trkpt lat="40.56940113204513" lon="8.319221441824844"><ele>4.0</ele><time>2026-04-06T16:22:08.999Z</time></trkpt><trkpt lat="40.569468988702766" lon="8.31924237795"><ele>3.8000000000000003</ele><time>2026-04-06T16:22:11.999Z</time></trkpt><trkpt lat="40.569550547173414" lon="8.319229332763847"><ele>3.6000000000000005</ele><time>2026-04-06T16:22:14.999Z</time></trkpt><trkpt lat="40.569637817951126" lon="8.31923163415581"><ele>3.4</ele><time>2026-04-06T16:22:16.999Z</time></trkpt><trkpt lat="40.569742635382944" lon="8.319237996627784"><ele>3.2</ele><time>2026-04-06T16:22:18.999Z</time></trkpt><trkpt lat="40.569844981410206" lon="8.319246691437465"><ele>3.0</ele><time>2026-04-06T16:22:20.999Z</time></trkpt><trkpt lat="40.5699552039926" lon="8.3192570554447"><ele>3.0</ele><time>2026-04-06T16:22:22.999Z</time></trkpt><trkpt lat="40.57004540374981" lon="8.319266409805918"><ele>3.0</ele><time>2026-04-06T16:22:24.999Z</time></trkpt><trkpt lat="40.57012843984202" lon="8.319279686445261"><ele>3.0</ele><time>2026-04-06T16:22:27Z</time></trkpt><trkpt lat="40.570224065719245" lon="8.31928834597171"><ele>3.0</ele><time>2026-04-06T16:22:29Z</time></trkpt><trkpt lat="40.57033115994887" lon="8.319296654629381"><ele>3.0</ele><time>2026-04-06T16:22:31Z</time></trkpt><trkpt lat="40.570435059265634" lon="8.319302609211515"><ele>3.1666666666666665</ele><time>2026-04-06T16:22:33Z</time></trkpt><trkpt lat="40.57052238239602" lon="8.319309011581124"><ele>3.333333333333333</ele><time>2026-04-06T16:22:35Z</time></trkpt><trkpt lat="40.570592193562" lon="8.31932969646285"><ele>3.5</ele><time>2026-04-06T16:22:37Z</time></trkpt><trkpt lat="40.57068443113377" lon="8.319338700614889"><ele>3.6666666666666665</ele><time>2026-04-06T16:22:39.001Z</time></trkpt><trkpt lat="40.57075074500649" lon="8.319346599615374"><ele>3.833333333333333</ele><time>2026-04-06T16:22:41.001Z</time></trkpt><trkpt lat="40.57082031666786" lon="8.319351910182903"><ele>4.0</ele><time>2026-04-06T16:22:45.001Z</time></trkpt><trkpt lat="40.57088415323788" lon="8.319359572240764"><ele>3.9999999999999996</ele><time>2026-04-06T16:22:47.001Z</time></trkpt><trkpt lat="40.57098269489328" lon="8.319357974368348"><ele>4.0</ele><time>2026-04-06T16:22:49.001Z</time></trkpt><trkpt lat="40.571079979578755" lon="8.319390873362135"><ele>4.0</ele><time>2026-04-06T16:22:51.001Z</time></trkpt><trkpt lat="40.57116106500251" lon="8.31942404372105"><ele>4.0</ele><time>2026-04-06T16:22:53.001Z</time></trkpt><trkpt lat="40.57122576614251" lon="8.319438724404021"><ele>3.9999999999999996</ele><time>2026-04-06T16:22:59.001Z</time></trkpt><trkpt lat="40.57130104962962" lon="8.319461084517215"><ele>4.0</ele><time>2026-04-06T16:23:04.001Z</time></trkpt><trkpt lat="40.571385025691065" lon="8.31949374457876"><ele>3.9999999999999996</ele><time>2026-04-06T16:23:07.001Z</time></trkpt><trkpt lat="40.57146280807709" lon="8.31953287470397"><ele>4.0</ele><time>2026-04-06T16:23:10.001Z</time></trkpt><trkpt lat="40.57153934058407" lon="8.319565508008932"><ele>4.0</ele><time>2026-04-06T16:23:12.001Z</time></trkpt><trkpt lat="40.57160014885094" lon="8.319591937753694"><ele>4.0</ele><time>2026-04-06T16:23:14.001Z</time></trkpt><trkpt lat="40.57166518873536" lon="8.319615956604723"><ele>3.9999999999999996</ele><time>2026-04-06T16:23:16.001Z</time></trkpt><trkpt lat="40.5717585699744" lon="8.31966061348174"><ele>4.0</ele><time>2026-04-06T16:23:19.001Z</time></trkpt><trkpt lat="40.571826116413376" lon="8.319692928291275"><ele>4.166666666666666</ele><time>2026-04-06T16:23:21.001Z</time></trkpt><trkpt lat="40.571900111255225" lon="8.319739432422713"><ele>4.333333333333333</ele><time>2026-04-06T16:23:24.001Z</time></trkpt><trkpt lat="40.57198027640993" lon="8.319790361503875"><ele>4.5</ele><time>2026-04-06T16:23:27.001Z</time></trkpt><trkpt lat="40.57205087941681" lon="8.319845505164674"><ele>4.666666666666667</ele><time>2026-04-06T16:23:29.001Z</time></trkpt><trkpt lat="40.5721248441816" lon="8.319899702000562"><ele>4.833333333333334</ele><time>2026-04-06T16:23:31.001Z</time></trkpt><trkpt lat="40.57218081750666" lon="8.319944515844897"><ele>5.0</ele><time>2026-04-06T16:23:33.001Z</time></trkpt><trkpt lat="40.572244726851864" lon="8.319991909488996"><ele>5.2</ele><time>2026-04-06T16:23:35.001Z</time></trkpt><trkpt lat="40.572315716229106" lon="8.320047067076207"><ele>5.4</ele><time>2026-04-06T16:23:37.001Z</time></trkpt><trkpt lat="40.57236723721252" lon="8.320095486823586"><ele>5.6</ele><time>2026-04-06T16:23:39.001Z</time></trkpt><trkpt lat="40.57242861765015" lon="8.320155680495303"><ele>5.8</ele><time>2026-04-06T16:23:41.001Z</time></trkpt><trkpt lat="40.572488613410705" lon="8.32021737547071"><ele>6.0</ele><time>2026-04-06T16:23:44.001Z</time></trkpt><trkpt lat="40.57233194742877" lon="8.320506327540025"><ele>6.0</ele><time>2026-04-06T16:23:58.001Z</time></trkpt><trkpt lat="40.57224392085588" lon="8.320571602615484"><ele>6.0</ele><time>2026-04-06T16:24:00.001Z</time></trkpt><trkpt lat="40.57217274827412" lon="8.320620091311683"><ele>6.0</ele><time>2026-04-06T16:24:02.001Z</time></trkpt><trkpt lat="40.57209378413818" lon="8.320673641609206"><ele>6.0</ele><time>2026-04-06T16:24:04.001Z</time></trkpt><trkpt lat="40.57198034426498" lon="8.320732424841344"><ele>6.0</ele><time>2026-04-06T16:24:06Z</time></trkpt><trkpt lat="40.571876831051306" lon="8.320777570508586"><ele>5.833333333333333</ele><time>2026-04-06T16:24:08Z</time></trkpt><trkpt lat="40.57181318492789" lon="8.320800862623097"><ele>5.666666666666667</ele><time>2026-04-06T16:24:09Z</time></trkpt><trkpt lat="40.571701001030696" lon="8.32085010708213"><ele>5.5</ele><time>2026-04-06T16:24:11Z</time></trkpt><trkpt lat="40.57163202718513" lon="8.320876946303997"><ele>5.333333333333334</ele><time>2026-04-06T16:24:12Z</time></trkpt><trkpt lat="40.57152753378177" lon="8.320913757415012"><ele>5.166666666666667</ele><time>2026-04-06T16:24:14Z</time></trkpt><trkpt lat="40.57145949893379" lon="8.320932344846383"><ele>5.0</ele><time>2026-04-06T16:24:17Z</time></trkpt><trkpt lat="40.57138317005736" lon="8.320959951744259"><ele>5.0</ele><time>2026-04-06T16:24:21Z</time></trkpt><trkpt lat="40.571301545482534" lon="8.320994373740794"><ele>5.0</ele><time>2026-04-06T16:24:24Z</time></trkpt><trkpt lat="40.57127422668334" lon="8.32108154680949"><ele>5.0</ele><time>2026-04-06T16:24:26Z</time></trkpt><trkpt lat="40.5713312321532" lon="8.321161016538671"><ele>5.0</ele><time>2026-04-06T16:24:29Z</time></trkpt><trkpt lat="40.57140780001526" lon="8.321203357884713"><ele>5.0</ele><time>2026-04-06T16:24:31Z</time></trkpt><trkpt lat="40.57147713575446" lon="8.321270638459893"><ele>5.0</ele><time>2026-04-06T16:25:38.001Z</time></trkpt><trkpt lat="40.571538173626706" lon="8.321319287847585"><ele>5.0</ele><time>2026-04-06T16:25:40.001Z</time></trkpt><trkpt lat="40.57164279499732" lon="8.321385368602282"><ele>5.0</ele><time>2026-04-06T16:25:42.001Z</time></trkpt><trkpt lat="40.57176096148157" lon="8.321400529905931"><ele>5.0</ele><time>2026-04-06T16:25:44.001Z</time></trkpt><trkpt lat="40.57187090990435" lon="8.32141897791287"><ele>5.0</ele><time>2026-04-06T16:25:46.001Z</time></trkpt><trkpt lat="40.571982242231904" lon="8.321437438577815"><ele>5.166666666666667</ele><time>2026-04-06T16:25:48.001Z</time></trkpt><trkpt lat="40.5720614485171" lon="8.321451381757772"><ele>5.333333333333334</ele><time>2026-04-06T16:25:50.001Z</time></trkpt><trkpt lat="40.57213240630274" lon="8.321453565023365"><ele>5.5</ele><time>2026-04-06T16:25:54.001Z</time></trkpt><trkpt lat="40.572226861831865" lon="8.321450582605141"><ele>5.666666666666667</ele><time>2026-04-06T16:25:56.001Z</time></trkpt><trkpt lat="40.57229201928695" lon="8.321435365601618"><ele>5.833333333333333</ele><time>2026-04-06T16:25:57.001Z</time></trkpt><trkpt lat="40.57235918899282" lon="8.321396736828625"><ele>6.0</ele><time>2026-04-06T16:25:58.001Z</time></trkpt><trkpt lat="40.572433946464486" lon="8.32136865087644"><ele>6.0</ele><time>2026-04-06T16:25:59.001Z</time></trkpt><trkpt lat="40.57254438413927" lon="8.321335286006711"><ele>6.0</ele><time>2026-04-06T16:26:01.001Z</time></trkpt><trkpt lat="40.572610833318095" lon="8.321293156928965"><ele>6.0</ele><time>2026-04-06T16:26:02.001Z</time></trkpt><trkpt lat="40.57267781873907" lon="8.321240337614613"><ele>6.0</ele><time>2026-04-06T16:26:03.001Z</time></trkpt><trkpt lat="40.57274267103394" lon="8.321172277420496"><ele>6.0</ele><time>2026-04-06T16:26:04.001Z</time></trkpt><trkpt lat="40.572835216856085" lon="8.321074860336532"><ele>6.285714285714285</ele><time>2026-04-06T16:26:06.001Z</time></trkpt><trkpt lat="40.57288717087342" lon="8.321021893068666"><ele>6.571428571428571</ele><time>2026-04-06T16:26:07.001Z</time></trkpt><trkpt lat="40.57295162865332" lon="8.320956178126163"><ele>6.857142857142857</ele><time>2026-04-06T16:26:08.001Z</time></trkpt><trkpt lat="40.573012636802034" lon="8.320896406021163"><ele>7.142857142857142</ele><time>2026-04-06T16:26:09.001Z</time></trkpt><trkpt lat="40.57305649559889" lon="8.320829269762356"><ele>7.428571428571428</ele><time>2026-04-06T16:26:10.001Z</time></trkpt><trkpt lat="40.57312073479925" lon="8.320771162561497"><ele>7.7142857142857135</ele><time>2026-04-06T16:26:12Z</time></trkpt><trkpt lat="40.573168591918254" lon="8.320709553721295"><ele>8.0</ele><time>2026-04-06T16:26:17Z</time></trkpt><trkpt lat="40.573082577455935" lon="8.32058289017733"><ele>7.999999999999999</ele><time>2026-04-06T16:26:19Z</time></trkpt><trkpt lat="40.57300566278732" lon="8.320543664949811"><ele>8.0</ele><time>2026-04-06T16:26:20Z</time></trkpt><trkpt lat="40.572947416201075" lon="8.320501342741291"><ele>8.0</ele><time>2026-04-06T16:26:21Z</time></trkpt><trkpt lat="40.57288742755371" lon="8.32045931854142"><ele>8.0</ele><time>2026-04-06T16:26:22Z</time></trkpt><trkpt lat="40.57282397721627" lon="8.320409109444457"><ele>7.999999999999999</ele><time>2026-04-06T16:26:23Z</time></trkpt><trkpt lat="40.5727034977548" lon="8.32029322052134"><ele>8.0</ele><time>2026-04-06T16:26:26Z</time></trkpt><trkpt lat="40.57275709211066" lon="8.320105138539928"><ele>8.0</ele><time>2026-04-06T16:26:32Z</time></trkpt><trkpt lat="40.57280791863679" lon="8.32004204527782"><ele>8.0</ele><time>2026-04-06T16:26:34Z</time></trkpt><trkpt lat="40.57289111686232" lon="8.319957880728625"><ele>8.0</ele><time>2026-04-06T16:26:36Z</time></trkpt><trkpt lat="40.57295578210541" lon="8.319846960199486"><ele>8.0</ele><time>2026-04-06T16:26:38Z</time></trkpt><trkpt lat="40.57304772237624" lon="8.319730256117017"><ele>8.0</ele><time>2026-04-06T16:26:40Z</time></trkpt><trkpt lat="40.57311906714601" lon="8.31961755087288"><ele>7.6000000000000005</ele><time>2026-04-06T16:26:42Z</time></trkpt><trkpt lat="40.57320361620831" lon="8.319506210003652"><ele>7.200000000000001</ele><time>2026-04-06T16:26:44Z</time></trkpt><trkpt lat="40.57328324298787" lon="8.319403690805869"><ele>6.8</ele><time>2026-04-06T16:26:46.001Z</time></trkpt><trkpt lat="40.57334700065165" lon="8.319323416726364"><ele>6.4</ele><time>2026-04-06T16:26:48.001Z</time></trkpt><trkpt lat="40.57341437109554" lon="8.319236235056142"><ele>6.0</ele><time>2026-04-06T16:26:50.001Z</time></trkpt><trkpt lat="40.57347591578864" lon="8.319148588250835"><ele>6.0</ele><time>2026-04-06T16:26:52.001Z</time></trkpt><trkpt lat="40.57353134942299" lon="8.319062023619718"><ele>6.0</ele><time>2026-04-06T16:26:54.001Z</time></trkpt><trkpt lat="40.57358418044145" lon="8.318986209406216"><ele>6.0</ele><time>2026-04-06T16:26:56.001Z</time></trkpt><trkpt lat="40.57364946445346" lon="8.318912572559043"><ele>6.0</ele><time>2026-04-06T16:26:58.001Z</time></trkpt><trkpt lat="40.57373422500278" lon="8.318805707959758"><ele>6.0</ele><time>2026-04-06T16:27:00.001Z</time></trkpt><trkpt lat="40.57381937803019" lon="8.31869924460971"><ele>6.0</ele><time>2026-04-06T16:27:02.001Z</time></trkpt><trkpt lat="40.57387286017958" lon="8.318640444027606"><ele>6.0</ele><time>2026-04-06T16:27:03.001Z</time></trkpt><trkpt lat="40.57392545618553" lon="8.318585009979486"><ele>6.0</ele><time>2026-04-06T16:27:04.001Z</time></trkpt><trkpt lat="40.57400804709034" lon="8.318496544896195"><ele>6.0</ele><time>2026-04-06T16:27:06.001Z</time></trkpt><trkpt lat="40.57410185672353" lon="8.318398481753071"><ele>6.0</ele><time>2026-04-06T16:27:08.001Z</time></trkpt><trkpt lat="40.57415291242205" lon="8.318349280802368"><ele>6.0</ele><time>2026-04-06T16:27:09.001Z</time></trkpt><trkpt lat="40.57423511696988" lon="8.318263697774938"><ele>6.0</ele><time>2026-04-06T16:27:11.001Z</time></trkpt><trkpt lat="40.57429872586906" lon="8.318206202722314"><ele>6.0</ele><time>2026-04-06T16:27:13.001Z</time></trkpt><trkpt lat="40.57435299686886" lon="8.31815260382232"><ele>6.0</ele><time>2026-04-06T16:27:15.001Z</time></trkpt><trkpt lat="40.57442377324037" lon="8.318089954254525"><ele>6.0</ele><time>2026-04-06T16:27:18.001Z</time></trkpt><trkpt lat="40.57448013121805" lon="8.318029148074531"><ele>6.0</ele><time>2026-04-06T16:27:26.001Z</time></trkpt><trkpt lat="40.57455314740549" lon="8.317968230556565"><ele>6.0</ele><time>2026-04-06T16:27:28.001Z</time></trkpt><trkpt lat="40.57460985100329" lon="8.317929269690069"><ele>5.666666666666667</ele><time>2026-04-06T16:27:32.001Z</time></trkpt><trkpt lat="40.57468937332217" lon="8.31787754353476"><ele>5.333333333333333</ele><time>2026-04-06T16:27:42.001Z</time></trkpt><trkpt lat="40.57476882381472" lon="8.317809726039542"><ele>5.0</ele><time>2026-04-06T16:27:45.001Z</time></trkpt><trkpt lat="40.574841799572965" lon="8.317762860687948"><ele>4.666666666666666</ele><time>2026-04-06T16:27:49.001Z</time></trkpt><trkpt lat="40.574913542854446" lon="8.317719712420274"><ele>4.333333333333333</ele><time>2026-04-06T16:27:56.001Z</time></trkpt><trkpt lat="40.575003408074586" lon="8.317661237290336"><ele>4.0</ele><time>2026-04-06T16:27:59.001Z</time></trkpt><trkpt lat="40.57506290403214" lon="8.31762732552425"><ele>4.0</ele><time>2026-04-06T16:28:01.001Z</time></trkpt><trkpt lat="40.57512606774377" lon="8.31758649986299"><ele>3.9999999999999996</ele><time>2026-04-06T16:28:03.001Z</time></trkpt><trkpt lat="40.57520798164346" lon="8.317530847696942"><ele>4.0</ele><time>2026-04-06T16:28:06.001Z</time></trkpt><trkpt lat="40.575278742810646" lon="8.317510415084522"><ele>4.0</ele><time>2026-04-06T16:28:08.001Z</time></trkpt><trkpt lat="40.57532662833796" lon="8.317450396657117"><ele>3.9999999999999996</ele><time>2026-04-06T16:28:10.001Z</time></trkpt><trkpt lat="40.5753929177547" lon="8.317438670459522"><ele>4.0</ele><time>2026-04-06T16:28:13.002Z</time></trkpt><trkpt lat="40.57543431159504" lon="8.317362447952007"><ele>4.0</ele><time>2026-04-06T16:28:26.001Z</time></trkpt><trkpt lat="40.575513174927565" lon="8.317289511749504"><ele>3.833333333333333</ele><time>2026-04-06T16:28:28.001Z</time></trkpt><trkpt lat="40.575599902189246" lon="8.317215359371803"><ele>3.6666666666666665</ele><time>2026-04-06T16:28:30.001Z</time></trkpt><trkpt lat="40.57565205297955" lon="8.31716167413534"><ele>3.5</ele><time>2026-04-06T16:28:31.001Z</time></trkpt><trkpt lat="40.57570742341069" lon="8.317103569949433"><ele>3.333333333333333</ele><time>2026-04-06T16:28:32.001Z</time></trkpt><trkpt lat="40.57577440729746" lon="8.31707055114379"><ele>3.1666666666666665</ele><time>2026-04-06T16:28:33.001Z</time></trkpt><trkpt lat="40.575880785022825" lon="8.316959273403981"><ele>3.0</ele><time>2026-04-06T16:28:35.001Z</time></trkpt><trkpt lat="40.57594731818373" lon="8.316902074993981"><ele>3.0</ele><time>2026-04-06T16:28:36.001Z</time></trkpt><trkpt lat="40.57601938619213" lon="8.31684729455318"><ele>3.0</ele><time>2026-04-06T16:28:37.001Z</time></trkpt><trkpt lat="40.57608659967035" lon="8.316794285676888"><ele>3.0</ele><time>2026-04-06T16:28:38.001Z</time></trkpt><trkpt lat="40.576153803894876" lon="8.316746361141961"><ele>3.0</ele><time>2026-04-06T16:28:39.001Z</time></trkpt><trkpt lat="40.576226012494004" lon="8.316682636581094"><ele>3.0</ele><time>2026-04-06T16:28:40.001Z</time></trkpt><trkpt lat="40.57627712140177" lon="8.316616385707423"><ele>3.0</ele><time>2026-04-06T16:28:41.001Z</time></trkpt><trkpt lat="40.57636708047309" lon="8.316533173823311"><ele>3.2</ele><time>2026-04-06T16:28:43.001Z</time></trkpt><trkpt lat="40.57645300953135" lon="8.316454522329845"><ele>3.4</ele><time>2026-04-06T16:28:45.001Z</time></trkpt><trkpt lat="40.57651097419143" lon="8.316421881661876"><ele>3.6000000000000005</ele><time>2026-04-06T16:28:48.001Z</time></trkpt><trkpt lat="40.57658514426204" lon="8.316362230886682"><ele>3.8000000000000003</ele><time>2026-04-06T16:28:54.001Z</time></trkpt><trkpt lat="40.57666200505685" lon="8.316321837091568"><ele>4.0</ele><time>2026-04-06T16:28:56.001Z</time></trkpt><trkpt lat="40.57674729977682" lon="8.316421860467242"><ele>3.9999999999999996</ele><time>2026-04-06T16:28:58.001Z</time></trkpt><trkpt lat="40.57678083810697" lon="8.316514276096239"><ele>4.0</ele><time>2026-04-06T16:28:59.001Z</time></trkpt><trkpt lat="40.576807687637036" lon="8.316600167323873"><ele>4.0</ele><time>2026-04-06T16:29:00.001Z</time></trkpt><trkpt lat="40.57684129016902" lon="8.316704341093866"><ele>4.0</ele><time>2026-04-06T16:29:01.001Z</time></trkpt><trkpt lat="40.57687373383064" lon="8.316819620849529"><ele>3.9999999999999996</ele><time>2026-04-06T16:29:02.001Z</time></trkpt><trkpt lat="40.576895313348096" lon="8.316920896214615"><ele>4.0</ele><time>2026-04-06T16:29:03.001Z</time></trkpt><trkpt lat="40.57693489784173" lon="8.317099297441532"><ele>3.9999999999999996</ele><time>2026-04-06T16:29:05.001Z</time></trkpt><trkpt lat="40.5769533119363" lon="8.317189700737782"><ele>4.0</ele><time>2026-04-06T16:29:06.001Z</time></trkpt><trkpt lat="40.57697285320806" lon="8.317285262849376"><ele>4.0</ele><time>2026-04-06T16:29:07.001Z</time></trkpt><trkpt lat="40.57699399420649" lon="8.317381135146574"><ele>4.0</ele><time>2026-04-06T16:29:08.001Z</time></trkpt><trkpt lat="40.57701874998748" lon="8.31747358267291"><ele>3.9999999999999996</ele><time>2026-04-06T16:29:09.001Z</time></trkpt><trkpt lat="40.577045978429" lon="8.317569143321743"><ele>4.0</ele><time>2026-04-06T16:29:10.001Z</time></trkpt><trkpt lat="40.57706826607128" lon="8.31767921883492"><ele>4.4</ele><time>2026-04-06T16:29:11.001Z</time></trkpt><trkpt lat="40.577091539908" lon="8.317792093519062"><ele>4.800000000000001</ele><time>2026-04-06T16:29:12.001Z</time></trkpt><trkpt lat="40.57712065934687" lon="8.31792263969687"><ele>5.199999999999999</ele><time>2026-04-06T16:29:13.001Z</time></trkpt><trkpt lat="40.57715325687318" lon="8.318070981005576"><ele>5.6</ele><time>2026-04-06T16:29:14.001Z</time></trkpt><trkpt lat="40.57718280945907" lon="8.318212697352815"><ele>6.0</ele><time>2026-04-06T16:29:15.001Z</time></trkpt><trkpt lat="40.57721602117882" lon="8.318357421836325"><ele>6.0</ele><time>2026-04-06T16:29:16.001Z</time></trkpt><trkpt lat="40.57725299566754" lon="8.31851253590877"><ele>6.0</ele><time>2026-04-06T16:29:17.001Z</time></trkpt><trkpt lat="40.5772905135371" lon="8.318671219418999"><ele>6.0</ele><time>2026-04-06T16:29:18.001Z</time></trkpt><trkpt lat="40.577329121454426" lon="8.318836837370943"><ele>6.0</ele><time>2026-04-06T16:29:19.001Z</time></trkpt><trkpt lat="40.577369972368956" lon="8.31901891260719"><ele>6.0</ele><time>2026-04-06T16:29:20.001Z</time></trkpt><trkpt lat="40.577401358377664" lon="8.319156964751212"><ele>6.0</ele><time>2026-04-06T16:29:21.001Z</time></trkpt><trkpt lat="40.577430483791936" lon="8.319281426589752"><ele>6.0</ele><time>2026-04-06T16:29:22.001Z</time></trkpt><trkpt lat="40.5774519545062" lon="8.319381232102735"><ele>6.0</ele><time>2026-04-06T16:29:23.001Z</time></trkpt><trkpt lat="40.57747122776787" lon="8.319477229440503"><ele>6.0</ele><time>2026-04-06T16:29:25.001Z</time></trkpt><trkpt lat="40.57763544192404" lon="8.319495671646443"><ele>6.0</ele><time>2026-04-06T16:30:35.001Z</time></trkpt><trkpt lat="40.57770961077712" lon="8.319456461111526"><ele>6.0</ele><time>2026-04-06T16:30:36.001Z</time></trkpt><trkpt lat="40.57778103105244" lon="8.319424537430601"><ele>6.0</ele><time>2026-04-06T16:30:37.001Z</time></trkpt><trkpt lat="40.57785727701277" lon="8.319394424617942"><ele>6.0</ele><time>2026-04-06T16:30:38.001Z</time></trkpt><trkpt lat="40.57794312317908" lon="8.319364571838692"><ele>6.0</ele><time>2026-04-06T16:30:39.001Z</time></trkpt><trkpt lat="40.57803566363438" lon="8.319335286051764"><ele>6.0</ele><time>2026-04-06T16:30:40.001Z</time></trkpt><trkpt lat="40.57812872863025" lon="8.319306973147139"><ele>6.6</ele><time>2026-04-06T16:30:41.001Z</time></trkpt><trkpt lat="40.57822559416316" lon="8.319277590133975"><ele>7.199999999999999</ele><time>2026-04-06T16:30:42.001Z</time></trkpt><trkpt lat="40.57832392057551" lon="8.319248273518811"><ele>7.800000000000001</ele><time>2026-04-06T16:30:43.001Z</time></trkpt><trkpt lat="40.578431564715295" lon="8.319215327103178"><ele>8.4</ele><time>2026-04-06T16:30:44.001Z</time></trkpt><trkpt lat="40.57854312869803" lon="8.319183852304143"><ele>9.0</ele><time>2026-04-06T16:30:46.001Z</time></trkpt><trkpt lat="40.57862597751458" lon="8.319159967523744"><ele>9.6</ele><time>2026-04-06T16:30:47.001Z</time></trkpt><trkpt lat="40.578709465988595" lon="8.319133681746523"><ele>10.2</ele><time>2026-04-06T16:30:48.001Z</time></trkpt><trkpt lat="40.578808101305015" lon="8.319097604468936"><ele>10.799999999999999</ele><time>2026-04-06T16:30:49.001Z</time></trkpt><trkpt lat="40.57891233778015" lon="8.319058601738801"><ele>11.4</ele><time>2026-04-06T16:30:50.001Z</time></trkpt><trkpt lat="40.57901614624613" lon="8.319023998870774"><ele>12.0</ele><time>2026-04-06T16:30:51.001Z</time></trkpt><trkpt lat="40.57912727233194" lon="8.318998965738418"><ele>12.0</ele><time>2026-04-06T16:30:52.001Z</time></trkpt><trkpt lat="40.57923246147187" lon="8.318967499591935"><ele>12.0</ele><time>2026-04-06T16:30:53.001Z</time></trkpt><trkpt lat="40.579337193430135" lon="8.318932220343056"><ele>12.0</ele><time>2026-04-06T16:30:54.001Z</time></trkpt><trkpt lat="40.57945431895597" lon="8.318894244472881"><ele>12.0</ele><time>2026-04-06T16:30:55.001Z</time></trkpt><trkpt lat="40.57957629557806" lon="8.318857809342028"><ele>11.25</ele><time>2026-04-06T16:30:56.001Z</time></trkpt><trkpt lat="40.57970694187395" lon="8.31882478364908"><ele>10.5</ele><time>2026-04-06T16:30:57.001Z</time></trkpt><trkpt lat="40.57983840002606" lon="8.318782080355355"><ele>9.75</ele><time>2026-04-06T16:30:58.001Z</time></trkpt><trkpt lat="40.579954380059995" lon="8.318749315077708"><ele>9.0</ele><time>2026-04-06T16:30:59.001Z</time></trkpt><trkpt lat="40.58006769626686" lon="8.318711008095118"><ele>9.0</ele><time>2026-04-06T16:31:00.001Z</time></trkpt><trkpt lat="40.5801880550298" lon="8.318672970153777"><ele>9.0</ele><time>2026-04-06T16:31:01.001Z</time></trkpt><trkpt lat="40.58031126614581" lon="8.318631556912374"><ele>9.0</ele><time>2026-04-06T16:31:02.001Z</time></trkpt><trkpt lat="40.580434053379626" lon="8.318590417243323"><ele>9.0</ele><time>2026-04-06T16:31:03.001Z</time></trkpt><trkpt lat="40.58056410930214" lon="8.318550173608395"><ele>9.75</ele><time>2026-04-06T16:31:04.001Z</time></trkpt><trkpt lat="40.580688213108296" lon="8.31851197426617"><ele>10.5</ele><time>2026-04-06T16:31:05.001Z</time></trkpt><trkpt lat="40.58081126336261" lon="8.318472121363728"><ele>11.25</ele><time>2026-04-06T16:31:06.001Z</time></trkpt><trkpt lat="40.58093048039324" lon="8.31843476139476"><ele>12.0</ele><time>2026-04-06T16:31:07.001Z</time></trkpt><trkpt lat="40.58103955809153" lon="8.318397743916517"><ele>12.0</ele><time>2026-04-06T16:31:08.001Z</time></trkpt><trkpt lat="40.58115772620296" lon="8.3183610618392"><ele>12.0</ele><time>2026-04-06T16:31:09.001Z</time></trkpt><trkpt lat="40.58127460047577" lon="8.31833305005126"><ele>12.0</ele><time>2026-04-06T16:31:10.001Z</time></trkpt><trkpt lat="40.581388886879544" lon="8.318288557372854"><ele>12.0</ele><time>2026-04-06T16:31:11.001Z</time></trkpt><trkpt lat="40.58150740175096" lon="8.318251613284563"><ele>12.0</ele><time>2026-04-06T16:31:12.001Z</time></trkpt><trkpt lat="40.581620807051486" lon="8.318217025777395"><ele>12.0</ele><time>2026-04-06T16:31:13.001Z</time></trkpt><trkpt lat="40.58173428633233" lon="8.318182855444077"><ele>12.0</ele><time>2026-04-06T16:31:14.001Z</time></trkpt><trkpt lat="40.581845939473645" lon="8.318147455318487"><ele>12.0</ele><time>2026-04-06T16:31:15.001Z</time></trkpt><trkpt lat="40.58195894656579" lon="8.318108486200924"><ele>12.0</ele><time>2026-04-06T16:31:16.001Z</time></trkpt><trkpt lat="40.5820709944455" lon="8.31807260840863"><ele>12.0</ele><time>2026-04-06T16:31:17.001Z</time></trkpt><trkpt lat="40.58217907186116" lon="8.318045434131864"><ele>12.0</ele><time>2026-04-06T16:31:18.001Z</time></trkpt><trkpt lat="40.58229710708841" lon="8.317995631556867"><ele>12.0</ele><time>2026-04-06T16:31:19.001Z</time></trkpt><trkpt lat="40.58241240605332" lon="8.317955881925428"><ele>12.0</ele><time>2026-04-06T16:31:20.001Z</time></trkpt><trkpt lat="40.582523821890206" lon="8.317925093943822"><ele>12.0</ele><time>2026-04-06T16:31:21.001Z</time></trkpt><trkpt lat="40.58263561915968" lon="8.317892270324611"><ele>12.0</ele><time>2026-04-06T16:31:22.001Z</time></trkpt><trkpt lat="40.58274253877688" lon="8.317867715496387"><ele>12.0</ele><time>2026-04-06T16:31:23.001Z</time></trkpt><trkpt lat="40.58285481528296" lon="8.31782377367237"><ele>12.2</ele><time>2026-04-06T16:31:24.001Z</time></trkpt><trkpt lat="40.58296575975188" lon="8.317773768594533"><ele>12.399999999999999</ele><time>2026-04-06T16:31:25.001Z</time></trkpt><trkpt lat="40.58306772043386" lon="8.317722024691616"><ele>12.600000000000001</ele><time>2026-04-06T16:31:26.001Z</time></trkpt><trkpt lat="40.58316712109534" lon="8.317664930820557"><ele>12.8</ele><time>2026-04-06T16:31:27.001Z</time></trkpt><trkpt lat="40.583260961634195" lon="8.317600260721434"><ele>13.0</ele><time>2026-04-06T16:31:28.001Z</time></trkpt><trkpt lat="40.58334389383061" lon="8.317523150329473"><ele>12.999999999999998</ele><time>2026-04-06T16:31:29.001Z</time></trkpt><trkpt lat="40.583414641313006" lon="8.31745892465096"><ele>13.0</ele><time>2026-04-06T16:31:30.001Z</time></trkpt><trkpt lat="40.58347735242173" lon="8.317398108879214"><ele>13.0</ele><time>2026-04-06T16:31:31.001Z</time></trkpt><trkpt lat="40.583539868320315" lon="8.317331433709473"><ele>13.0</ele><time>2026-04-06T16:31:33.001Z</time></trkpt><trkpt lat="40.583598099861256" lon="8.317284372151015"><ele>12.999999999999998</ele><time>2026-04-06T16:31:41.001Z</time></trkpt><trkpt lat="40.583659777071354" lon="8.317245149702691"><ele>13.0</ele><time>2026-04-06T16:31:43.001Z</time></trkpt><trkpt lat="40.58374281492526" lon="8.317198406793054"><ele>13.2</ele><time>2026-04-06T16:31:45.001Z</time></trkpt><trkpt lat="40.58387497501846" lon="8.317168800109723"><ele>13.4</ele><time>2026-04-06T16:31:47.001Z</time></trkpt><trkpt lat="40.58400414113972" lon="8.317157878779106"><ele>13.599999999999998</ele><time>2026-04-06T16:31:49.001Z</time></trkpt><trkpt lat="40.58408871873957" lon="8.317165928585375"><ele>13.799999999999999</ele><time>2026-04-06T16:31:50.001Z</time></trkpt><trkpt lat="40.58418019091333" lon="8.317198282343128"><ele>14.0</ele><time>2026-04-06T16:31:51.001Z</time></trkpt><trkpt lat="40.584269406865545" lon="8.317236487390119"><ele>13.6</ele><time>2026-04-06T16:31:52.001Z</time></trkpt><trkpt lat="40.58436820966267" lon="8.31726906263599"><ele>13.2</ele><time>2026-04-06T16:31:53.001Z</time></trkpt><trkpt lat="40.58445891073724" lon="8.31729720278013"><ele>12.799999999999999</ele><time>2026-04-06T16:31:54.001Z</time></trkpt><trkpt lat="40.584549020670444" lon="8.317319394808255"><ele>12.399999999999999</ele><time>2026-04-06T16:31:55.001Z</time></trkpt><trkpt lat="40.584643195711536" lon="8.317339663369962"><ele>12.0</ele><time>2026-04-06T16:31:56.001Z</time></trkpt><trkpt lat="40.5847532783965" lon="8.317362865279039"><ele>11.5</ele><time>2026-04-06T16:31:57.001Z</time></trkpt><trkpt lat="40.584869985865915" lon="8.317388784600807"><ele>11.0</ele><time>2026-04-06T16:31:58.001Z</time></trkpt><trkpt lat="40.584984299088184" lon="8.31741378929223"><ele>10.5</ele><time>2026-04-06T16:31:59.001Z</time></trkpt><trkpt lat="40.585100310838754" lon="8.317437724490821"><ele>10.0</ele><time>2026-04-06T16:32:00.001Z</time></trkpt><trkpt lat="40.585218708371976" lon="8.317470966588527"><ele>10.0</ele><time>2026-04-06T16:32:01.001Z</time></trkpt><trkpt lat="40.585334735643585" lon="8.317505590363373"><ele>10.0</ele><time>2026-04-06T16:32:02.001Z</time></trkpt><trkpt lat="40.585444404281546" lon="8.317537019572319"><ele>10.0</ele><time>2026-04-06T16:32:03.001Z</time></trkpt><trkpt lat="40.58554784507244" lon="8.317563653439905"><ele>10.0</ele><time>2026-04-06T16:32:04.001Z</time></trkpt><trkpt lat="40.5856554889599" lon="8.317590679048052"><ele>10.0</ele><time>2026-04-06T16:32:05.001Z</time></trkpt><trkpt lat="40.585768472234676" lon="8.317617062727155"><ele>9.0</ele><time>2026-04-06T16:32:06.001Z</time></trkpt><trkpt lat="40.58588602124094" lon="8.31764612436427"><ele>8.0</ele><time>2026-04-06T16:32:07.001Z</time></trkpt><trkpt lat="40.58600822057567" lon="8.317676505311246"><ele>7.0</ele><time>2026-04-06T16:32:08.001Z</time></trkpt><trkpt lat="40.58613500088956" lon="8.317708839277905"><ele>6.0</ele><time>2026-04-06T16:32:09.001Z</time></trkpt><trkpt lat="40.58626707388058" lon="8.317742233941857"><ele>5.25</ele><time>2026-04-06T16:32:10.001Z</time></trkpt><trkpt lat="40.5863985292963" lon="8.31777510997332"><ele>4.5</ele><time>2026-04-06T16:32:11.001Z</time></trkpt><trkpt lat="40.58652940324448" lon="8.317809742114672"><ele>3.75</ele><time>2026-04-06T16:32:12.001Z</time></trkpt><trkpt lat="40.586664088069114" lon="8.31784487344687"><ele>3.0</ele><time>2026-04-06T16:32:13.001Z</time></trkpt><trkpt lat="40.58680330175651" lon="8.317879453502549"><ele>3.0</ele><time>2026-04-06T16:32:14.001Z</time></trkpt><trkpt lat="40.586943472178234" lon="8.317913047729123"><ele>3.0</ele><time>2026-04-06T16:32:15.001Z</time></trkpt><trkpt lat="40.58708274145088" lon="8.317949854281443"><ele>3.0</ele><time>2026-04-06T16:32:16.001Z</time></trkpt><trkpt lat="40.587236361657034" lon="8.317990595061413"><ele>3.0</ele><time>2026-04-06T16:32:17.001Z</time></trkpt><trkpt lat="40.587387554011265" lon="8.318028832755264"><ele>3.0</ele><time>2026-04-06T16:32:18.001Z</time></trkpt><trkpt lat="40.587548403218825" lon="8.318068620877783"><ele>3.0</ele><time>2026-04-06T16:32:19.001Z</time></trkpt><trkpt lat="40.587703245704894" lon="8.318106782946733"><ele>3.0</ele><time>2026-04-06T16:32:20.001Z</time></trkpt><trkpt lat="40.587852318972516" lon="8.318149148532965"><ele>3.333333333333333</ele><time>2026-04-06T16:32:21.001Z</time></trkpt><trkpt lat="40.588000193955224" lon="8.31818747248096"><ele>3.6666666666666665</ele><time>2026-04-06T16:32:22.002Z</time></trkpt><trkpt lat="40.58815275864145" lon="8.31823081359439"><ele>4.0</ele><time>2026-04-06T16:32:23.002Z</time></trkpt><trkpt lat="40.58830667405103" lon="8.318278988240118"><ele>4.0</ele><time>2026-04-06T16:32:24.002Z</time></trkpt><trkpt lat="40.58846186155258" lon="8.318334102910516"><ele>4.0</ele><time>2026-04-06T16:32:25.002Z</time></trkpt><trkpt lat="40.58877490082148" lon="8.31845150284169"><ele>5.0</ele><time>2026-04-06T16:32:27.002Z</time></trkpt><trkpt lat="40.58891943285751" lon="8.318509356980522"><ele>6.0</ele><time>2026-04-06T16:32:28.002Z</time></trkpt><trkpt lat="40.58906662980474" lon="8.318575331950937"><ele>7.0</ele><time>2026-04-06T16:32:29.002Z</time></trkpt><trkpt lat="40.589208751835294" lon="8.318645201309469"><ele>7.0</ele><time>2026-04-06T16:32:30.001Z</time></trkpt><trkpt lat="40.589340660391954" lon="8.318716709819633"><ele>7.0</ele><time>2026-04-06T16:32:31.001Z</time></trkpt><trkpt lat="40.58947444689803" lon="8.318792703629997"><ele>7.0</ele><time>2026-04-06T16:32:32.001Z</time></trkpt><trkpt lat="40.58960935350274" lon="8.3188687942011"><ele>7.0</ele><time>2026-04-06T16:32:33.001Z</time></trkpt><trkpt lat="40.58973325855473" lon="8.318943087327519"><ele>7.5</ele><time>2026-04-06T16:32:34.001Z</time></trkpt><trkpt lat="40.58985980648846" lon="8.31902106270764"><ele>8.0</ele><time>2026-04-06T16:32:35.001Z</time></trkpt><trkpt lat="40.589977917202035" lon="8.319103048555743"><ele>8.5</ele><time>2026-04-06T16:32:36.001Z</time></trkpt><trkpt lat="40.59009236698597" lon="8.319185120808054"><ele>9.0</ele><time>2026-04-06T16:32:37.001Z</time></trkpt><trkpt lat="40.59019970281433" lon="8.31926187192112"><ele>9.0</ele><time>2026-04-06T16:32:38.001Z</time></trkpt><trkpt lat="40.59029882613794" lon="8.319338596379819"><ele>9.0</ele><time>2026-04-06T16:32:39.001Z</time></trkpt><trkpt lat="40.59039001072633" lon="8.319413290726656"><ele>9.0</ele><time>2026-04-06T16:32:40.001Z</time></trkpt><trkpt lat="40.590475933401336" lon="8.319485119999147"><ele>9.0</ele><time>2026-04-06T16:32:41.001Z</time></trkpt><trkpt lat="40.590565823505074" lon="8.319558544446956"><ele>9.0</ele><time>2026-04-06T16:32:42.001Z</time></trkpt><trkpt lat="40.59065596709519" lon="8.319635723058877"><ele>9.0</ele><time>2026-04-06T16:32:43.001Z</time></trkpt><trkpt lat="40.59074735868482" lon="8.319718970995043"><ele>9.0</ele><time>2026-04-06T16:32:44.001Z</time></trkpt><trkpt lat="40.590836906353395" lon="8.319804121793533"><ele>9.0</ele><time>2026-04-06T16:32:45.001Z</time></trkpt><trkpt lat="40.59092424638332" lon="8.319890179251841"><ele>9.0</ele><time>2026-04-06T16:32:46.001Z</time></trkpt><trkpt lat="40.59100469852185" lon="8.319970847209524"><ele>9.0</ele><time>2026-04-06T16:32:47.001Z</time></trkpt><trkpt lat="40.59107125040748" lon="8.320054738652674"><ele>9.0</ele><time>2026-04-06T16:32:48.001Z</time></trkpt><trkpt lat="40.59111979076371" lon="8.320147840586534"><ele>9.0</ele><time>2026-04-06T16:32:49.001Z</time></trkpt><trkpt lat="40.59116047339316" lon="8.32025670393948"><ele>9.0</ele><time>2026-04-06T16:32:50.001Z</time></trkpt><trkpt lat="40.59119021217535" lon="8.320366188277607"><ele>9.0</ele><time>2026-04-06T16:32:51.001Z</time></trkpt><trkpt lat="40.59123280359149" lon="8.320471603142058"><ele>9.0</ele><time>2026-04-06T16:32:52.001Z</time></trkpt><trkpt lat="40.59129873760168" lon="8.320552842589539"><ele>9.0</ele><time>2026-04-06T16:32:53.001Z</time></trkpt><trkpt lat="40.59137295744696" lon="8.320599900687835"><ele>10.0</ele><time>2026-04-06T16:32:54.001Z</time></trkpt><trkpt lat="40.591547521920255" lon="8.32062503259357"><ele>11.0</ele><time>2026-04-06T16:32:56.001Z</time></trkpt><trkpt lat="40.59165522013357" lon="8.320620374064072"><ele>12.0</ele><time>2026-04-06T16:32:57.001Z</time></trkpt><trkpt lat="40.59177307793242" lon="8.320649993146535"><ele>13.0</ele><time>2026-04-06T16:32:58.001Z</time></trkpt><trkpt lat="40.591888443410184" lon="8.320721859967975"><ele>13.0</ele><time>2026-04-06T16:32:59.001Z</time></trkpt><trkpt lat="40.59200206763862" lon="8.320817838703075"><ele>13.0</ele><time>2026-04-06T16:33:00.001Z</time></trkpt><trkpt lat="40.592125985434826" lon="8.320929353290957"><ele>13.0</ele><time>2026-04-06T16:33:01.001Z</time></trkpt><trkpt lat="40.5922640893197" lon="8.321042715188732"><ele>13.0</ele><time>2026-04-06T16:33:02.001Z</time></trkpt><trkpt lat="40.59239898978588" lon="8.321142742171968"><ele>13.75</ele><time>2026-04-06T16:33:03.001Z</time></trkpt><trkpt lat="40.59252908030433" lon="8.321230407127675"><ele>14.5</ele><time>2026-04-06T16:33:04.001Z</time></trkpt><trkpt lat="40.59266069470855" lon="8.32132095758582"><ele>15.25</ele><time>2026-04-06T16:33:05.001Z</time></trkpt><trkpt lat="40.592789665017186" lon="8.321404778772772"><ele>16.0</ele><time>2026-04-06T16:33:06.001Z</time></trkpt><trkpt lat="40.59291785896552" lon="8.321481668429254"><ele>17.0</ele><time>2026-04-06T16:33:07.001Z</time></trkpt><trkpt lat="40.59303984207783" lon="8.321549314947065"><ele>18.0</ele><time>2026-04-06T16:33:08.001Z</time></trkpt><trkpt lat="40.5931537525367" lon="8.321612324394449"><ele>19.0</ele><time>2026-04-06T16:33:09.001Z</time></trkpt><trkpt lat="40.59325858464703" lon="8.321665337259173"><ele>20.0</ele><time>2026-04-06T16:33:10.001Z</time></trkpt><trkpt lat="40.593366314906866" lon="8.321711392318033"><ele>20.0</ele><time>2026-04-06T16:33:11.001Z</time></trkpt><trkpt lat="40.59348476943918" lon="8.32176248894081"><ele>20.0</ele><time>2026-04-06T16:33:12.001Z</time></trkpt><trkpt lat="40.59361048958942" lon="8.32181419017456"><ele>20.0</ele><time>2026-04-06T16:33:13.001Z</time></trkpt><trkpt lat="40.59374379754451" lon="8.321866137744658"><ele>20.0</ele><time>2026-04-06T16:33:14.001Z</time></trkpt><trkpt lat="40.59388735275864" lon="8.321921630162816"><ele>20.666666666666668</ele><time>2026-04-06T16:33:15.001Z</time></trkpt><trkpt lat="40.594038744945436" lon="8.321977582564887"><ele>21.333333333333332</ele><time>2026-04-06T16:33:16.001Z</time></trkpt><trkpt lat="40.594190885167265" lon="8.322032036260296"><ele>22.0</ele><time>2026-04-06T16:33:17.001Z</time></trkpt><trkpt lat="40.59433888885176" lon="8.32207855632172"><ele>22.0</ele><time>2026-04-06T16:33:18.001Z</time></trkpt><trkpt lat="40.59448337092602" lon="8.322115309939567"><ele>22.0</ele><time>2026-04-06T16:33:19.001Z</time></trkpt><trkpt lat="40.594626972049944" lon="8.322155776477807"><ele>22.0</ele><time>2026-04-06T16:33:20.001Z</time></trkpt><trkpt lat="40.594774974753186" lon="8.322201110958355"><ele>22.0</ele><time>2026-04-06T16:33:21.001Z</time></trkpt><trkpt lat="40.59492340769371" lon="8.322247914415973"><ele>22.333333333333332</ele><time>2026-04-06T16:33:22.001Z</time></trkpt><trkpt lat="40.59507471335271" lon="8.322292248897769"><ele>22.666666666666668</ele><time>2026-04-06T16:33:23.001Z</time></trkpt><trkpt lat="40.59523542583353" lon="8.322339013605555"><ele>23.0</ele><time>2026-04-06T16:33:24.001Z</time></trkpt><trkpt lat="40.5954039931448" lon="8.322389036440756"><ele>21.333333333333336</ele><time>2026-04-06T16:33:25.001Z</time></trkpt><trkpt lat="40.59555286709846" lon="8.322451408694752"><ele>19.666666666666668</ele><time>2026-04-06T16:33:26.001Z</time></trkpt><trkpt lat="40.595741325620075" lon="8.322512957028325"><ele>18.0</ele><time>2026-04-06T16:33:27.001Z</time></trkpt><trkpt lat="40.59591299085448" lon="8.322565017232424"><ele>18.0</ele><time>2026-04-06T16:33:28.001Z</time></trkpt><trkpt lat="40.59608288790534" lon="8.322614094853176"><ele>18.0</ele><time>2026-04-06T16:33:29.001Z</time></trkpt><trkpt lat="40.59625442071045" lon="8.32266891843911"><ele>18.0</ele><time>2026-04-06T16:33:30.001Z</time></trkpt><trkpt lat="40.59643288514744" lon="8.322720746716346"><ele>18.0</ele><time>2026-04-06T16:33:31.001Z</time></trkpt><trkpt lat="40.59661103828338" lon="8.322778653819459"><ele>18.0</ele><time>2026-04-06T16:33:32.001Z</time></trkpt><trkpt lat="40.59678510780418" lon="8.322836263454759"><ele>18.0</ele><time>2026-04-06T16:33:33.001Z</time></trkpt><trkpt lat="40.596961197500605" lon="8.322890905557788"><ele>18.333333333333332</ele><time>2026-04-06T16:33:34.001Z</time></trkpt><trkpt lat="40.59713851972492" lon="8.322941907949865"><ele>18.666666666666664</ele><time>2026-04-06T16:33:35.001Z</time></trkpt><trkpt lat="40.597314982112856" lon="8.32299509211209"><ele>19.0</ele><time>2026-04-06T16:33:36.001Z</time></trkpt><trkpt lat="40.597493783385396" lon="8.323049568570616"><ele>19.666666666666664</ele><time>2026-04-06T16:33:37.001Z</time></trkpt><trkpt lat="40.59767287220437" lon="8.323105839483976"><ele>20.333333333333332</ele><time>2026-04-06T16:33:38.001Z</time></trkpt><trkpt lat="40.5978497676519" lon="8.323163751762786"><ele>21.0</ele><time>2026-04-06T16:33:39.001Z</time></trkpt><trkpt lat="40.598023823970784" lon="8.323214699232453"><ele>21.0</ele><time>2026-04-06T16:33:40.001Z</time></trkpt><trkpt lat="40.59819899660916" lon="8.323265395883036"><ele>21.0</ele><time>2026-04-06T16:33:41.001Z</time></trkpt><trkpt lat="40.59836447887553" lon="8.323322688125637"><ele>21.0</ele><time>2026-04-06T16:33:42.001Z</time></trkpt><trkpt lat="40.59852679621108" lon="8.323375299301741"><ele>21.0</ele><time>2026-04-06T16:33:43.001Z</time></trkpt><trkpt lat="40.5986856804228" lon="8.323427547911434"><ele>21.0</ele><time>2026-04-06T16:33:44.001Z</time></trkpt><trkpt lat="40.59884254075679" lon="8.32347650363697"><ele>21.0</ele><time>2026-04-06T16:33:45.001Z</time></trkpt><trkpt lat="40.59899820301798" lon="8.32352022606115"><ele>21.0</ele><time>2026-04-06T16:33:46.001Z</time></trkpt><trkpt lat="40.599156457656534" lon="8.32356868543936"><ele>21.0</ele><time>2026-04-06T16:33:47.001Z</time></trkpt><trkpt lat="40.599316507368265" lon="8.323626829325297"><ele>21.0</ele><time>2026-04-06T16:33:48.001Z</time></trkpt><trkpt lat="40.59947031891217" lon="8.323687829433062"><ele>21.0</ele><time>2026-04-06T16:33:49.001Z</time></trkpt><trkpt lat="40.59962628413948" lon="8.323749342027185"><ele>21.0</ele><time>2026-04-06T16:33:50.001Z</time></trkpt><trkpt lat="40.599781441525856" lon="8.323813042583614"><ele>21.0</ele><time>2026-04-06T16:33:51.001Z</time></trkpt><trkpt lat="40.599942460209554" lon="8.323876125985908"><ele>21.0</ele><time>2026-04-06T16:33:52.001Z</time></trkpt><trkpt lat="40.6001036346854" lon="8.323938129916755"><ele>21.0</ele><time>2026-04-06T16:33:53.001Z</time></trkpt><trkpt lat="40.600268304411294" lon="8.324002228769814"><ele>21.0</ele><time>2026-04-06T16:33:54.001Z</time></trkpt><trkpt lat="40.60043161018535" lon="8.32406812609714"><ele>20.0</ele><time>2026-04-06T16:33:55.001Z</time></trkpt><trkpt lat="40.60057947694652" lon="8.324128265373872"><ele>19.0</ele><time>2026-04-06T16:33:56.001Z</time></trkpt><trkpt lat="40.6007279377368" lon="8.324188211325943"><ele>18.0</ele><time>2026-04-06T16:33:57.001Z</time></trkpt><trkpt lat="40.60087527333614" lon="8.324247861855326"><ele>18.0</ele><time>2026-04-06T16:33:58.001Z</time></trkpt><trkpt lat="40.601031690335" lon="8.32431283621217"><ele>18.0</ele><time>2026-04-06T16:33:59.001Z</time></trkpt><trkpt lat="40.601186801065715" lon="8.324376651487505"><ele>18.0</ele><time>2026-04-06T16:34:00.001Z</time></trkpt><trkpt lat="40.60133192026301" lon="8.32443570916697"><ele>17.75</ele><time>2026-04-06T16:34:01.001Z</time></trkpt><trkpt lat="40.60146881589811" lon="8.324490105906383"><ele>17.5</ele><time>2026-04-06T16:34:02.001Z</time></trkpt><trkpt lat="40.60160240089349" lon="8.324545018281569"><ele>17.25</ele><time>2026-04-06T16:34:03.001Z</time></trkpt><trkpt lat="40.60174266257053" lon="8.324602190106724"><ele>17.0</ele><time>2026-04-06T16:34:04.001Z</time></trkpt><trkpt lat="40.60188565390402" lon="8.324660207253286"><ele>17.25</ele><time>2026-04-06T16:34:05.001Z</time></trkpt><trkpt lat="40.602028711827934" lon="8.324714540383445"><ele>17.5</ele><time>2026-04-06T16:34:06.001Z</time></trkpt><trkpt lat="40.602173694100834" lon="8.324771543486797"><ele>17.75</ele><time>2026-04-06T16:34:07.001Z</time></trkpt><trkpt lat="40.60231349502687" lon="8.324827718051214"><ele>18.0</ele><time>2026-04-06T16:34:08.001Z</time></trkpt><trkpt lat="40.60245494079905" lon="8.324888874539296"><ele>18.0</ele><time>2026-04-06T16:34:09.001Z</time></trkpt><trkpt lat="40.60259527493841" lon="8.324944696244252"><ele>18.0</ele><time>2026-04-06T16:34:10.001Z</time></trkpt><trkpt lat="40.602746171035605" lon="8.325003145959164"><ele>18.0</ele><time>2026-04-06T16:34:11.001Z</time></trkpt><trkpt lat="40.60289971766379" lon="8.325061195828365"><ele>18.0</ele><time>2026-04-06T16:34:12.001Z</time></trkpt><trkpt lat="40.60304730997509" lon="8.325121796057177"><ele>18.0</ele><time>2026-04-06T16:34:13.001Z</time></trkpt><trkpt lat="40.60318827301341" lon="8.325179946696018"><ele>18.0</ele><time>2026-04-06T16:34:14.001Z</time></trkpt><trkpt lat="40.60334196635591" lon="8.325240283143597"><ele>18.0</ele><time>2026-04-06T16:34:15.001Z</time></trkpt><trkpt lat="40.60350037679639" lon="8.325299570363923"><ele>18.0</ele><time>2026-04-06T16:34:16.001Z</time></trkpt><trkpt lat="40.60366232985052" lon="8.325367328144383"><ele>18.0</ele><time>2026-04-06T16:34:17.001Z</time></trkpt><trkpt lat="40.603827688880685" lon="8.325439215418312"><ele>18.0</ele><time>2026-04-06T16:34:18.001Z</time></trkpt><trkpt lat="40.603992661322565" lon="8.325506421164809"><ele>18.0</ele><time>2026-04-06T16:34:19.001Z</time></trkpt><trkpt lat="40.60414830638531" lon="8.325568471790167"><ele>18.0</ele><time>2026-04-06T16:34:20.001Z</time></trkpt><trkpt lat="40.604304745591946" lon="8.325629816792196"><ele>17.666666666666668</ele><time>2026-04-06T16:34:21.001Z</time></trkpt><trkpt lat="40.604470485173216" lon="8.325699026121026"><ele>17.333333333333336</ele><time>2026-04-06T16:34:22.001Z</time></trkpt><trkpt lat="40.604644912030174" lon="8.325769436185798"><ele>17.0</ele><time>2026-04-06T16:34:23.001Z</time></trkpt><trkpt lat="40.60481765700418" lon="8.32583887262354"><ele>17.0</ele><time>2026-04-06T16:34:24.001Z</time></trkpt><trkpt lat="40.604995052266894" lon="8.32590860309158"><ele>17.0</ele><time>2026-04-06T16:34:25.001Z</time></trkpt><trkpt lat="40.605161413949936" lon="8.325973265939"><ele>17.0</ele><time>2026-04-06T16:34:26.001Z</time></trkpt><trkpt lat="40.6053380061298" lon="8.326038834711174"><ele>17.333333333333336</ele><time>2026-04-06T16:34:27.001Z</time></trkpt><trkpt lat="40.60551859892786" lon="8.3261133604"><ele>17.666666666666668</ele><time>2026-04-06T16:34:28.001Z</time></trkpt><trkpt lat="40.60570067398367" lon="8.326189742440327"><ele>18.0</ele><time>2026-04-06T16:34:29.001Z</time></trkpt><trkpt lat="40.60588379993791" lon="8.326265168780003"><ele>18.0</ele><time>2026-04-06T16:34:30.001Z</time></trkpt><trkpt lat="40.60607203209331" lon="8.326339833881574"><ele>18.0</ele><time>2026-04-06T16:34:31.001Z</time></trkpt><trkpt lat="40.606263632378926" lon="8.326415701780848"><ele>18.0</ele><time>2026-04-06T16:34:32.001Z</time></trkpt><trkpt lat="40.60645444084143" lon="8.326491486584267"><ele>16.333333333333332</ele><time>2026-04-06T16:34:33.001Z</time></trkpt><trkpt lat="40.606648246342395" lon="8.326569417120803"><ele>14.666666666666666</ele><time>2026-04-06T16:34:34.001Z</time></trkpt><trkpt lat="40.606838341333464" lon="8.326646170496359"><ele>13.0</ele><time>2026-04-06T16:34:35.001Z</time></trkpt><trkpt lat="40.60703212326322" lon="8.326719369132707"><ele>13.0</ele><time>2026-04-06T16:34:36.001Z</time></trkpt><trkpt lat="40.60722072912894" lon="8.326794554787032"><ele>13.0</ele><time>2026-04-06T16:34:37.001Z</time></trkpt><trkpt lat="40.60740914292656" lon="8.326873213433021"><ele>13.0</ele><time>2026-04-06T16:34:38.001Z</time></trkpt><trkpt lat="40.607595358820085" lon="8.326950664962505"><ele>13.0</ele><time>2026-04-06T16:34:39.001Z</time></trkpt><trkpt lat="40.607777681077664" lon="8.327025700214463"><ele>13.0</ele><time>2026-04-06T16:34:40.001Z</time></trkpt><trkpt lat="40.607958766689215" lon="8.327097384446683"><ele>13.0</ele><time>2026-04-06T16:34:41.001Z</time></trkpt><trkpt lat="40.60814296887474" lon="8.327167025676694"><ele>11.666666666666666</ele><time>2026-04-06T16:34:42.001Z</time></trkpt><trkpt lat="40.60832004580636" lon="8.327239138282343"><ele>10.333333333333332</ele><time>2026-04-06T16:34:43.001Z</time></trkpt><trkpt lat="40.60849556598807" lon="8.327311789348846"><ele>9.0</ele><time>2026-04-06T16:34:44.001Z</time></trkpt><trkpt lat="40.60867325941054" lon="8.327383386264263"><ele>7.0</ele><time>2026-04-06T16:34:45.001Z</time></trkpt><trkpt lat="40.60883699802046" lon="8.327454370137056"><ele>5.0</ele><time>2026-04-06T16:34:46.001Z</time></trkpt><trkpt lat="40.60899797347348" lon="8.327520211431864"><ele>3.0</ele><time>2026-04-06T16:34:47.001Z</time></trkpt><trkpt lat="40.60916725816681" lon="8.327586072164829"><ele>3.0</ele><time>2026-04-06T16:34:48.001Z</time></trkpt><trkpt lat="40.609338212144735" lon="8.327652546516903"><ele>3.0</ele><time>2026-04-06T16:34:49.001Z</time></trkpt><trkpt lat="40.60951228719246" lon="8.327723257126511"><ele>3.0</ele><time>2026-04-06T16:34:50.001Z</time></trkpt><trkpt lat="40.60969017804473" lon="8.327795450422256"><ele>2.6666666666666665</ele><time>2026-04-06T16:34:51.001Z</time></trkpt><trkpt lat="40.609875936655776" lon="8.327869185201903"><ele>2.333333333333333</ele><time>2026-04-06T16:34:52.001Z</time></trkpt><trkpt lat="40.610061744954876" lon="8.327942279946706"><ele>2.0</ele><time>2026-04-06T16:34:53.001Z</time></trkpt><trkpt lat="40.610248525240436" lon="8.328015774279747"><ele>4.666666666666667</ele><time>2026-04-06T16:34:54.001Z</time></trkpt><trkpt lat="40.610438035374486" lon="8.328102304122337"><ele>7.333333333333334</ele><time>2026-04-06T16:34:55.001Z</time></trkpt><trkpt lat="40.610625713503275" lon="8.328173347113552"><ele>10.0</ele><time>2026-04-06T16:34:56.001Z</time></trkpt><trkpt lat="40.61081979290813" lon="8.328251085900906"><ele>10.0</ele><time>2026-04-06T16:34:57.001Z</time></trkpt><trkpt lat="40.611019565986766" lon="8.328324236558476"><ele>10.0</ele><time>2026-04-06T16:34:58.001Z</time></trkpt><trkpt lat="40.611224790521824" lon="8.328388074788474"><ele>10.0</ele><time>2026-04-06T16:34:59.001Z</time></trkpt><trkpt lat="40.61143578153486" lon="8.328446301979119"><ele>11.333333333333334</ele><time>2026-04-06T16:35:00.001Z</time></trkpt><trkpt lat="40.611646306091956" lon="8.328507044906187"><ele>12.666666666666668</ele><time>2026-04-06T16:35:01.001Z</time></trkpt><trkpt lat="40.61186298458754" lon="8.328566720774143"><ele>14.0</ele><time>2026-04-06T16:35:02.001Z</time></trkpt><trkpt lat="40.61208327783186" lon="8.328626549674857"><ele>15.0</ele><time>2026-04-06T16:35:03.001Z</time></trkpt><trkpt lat="40.61230664009656" lon="8.328688339440541"><ele>16.0</ele><time>2026-04-06T16:35:04.001Z</time></trkpt><trkpt lat="40.612526333290994" lon="8.32874830627218"><ele>16.0</ele><time>2026-04-06T16:35:05.001Z</time></trkpt><trkpt lat="40.61275344222177" lon="8.32881341545095"><ele>16.0</ele><time>2026-04-06T16:35:06.001Z</time></trkpt><trkpt lat="40.61297414905343" lon="8.32887007210195"><ele>15.0</ele><time>2026-04-06T16:35:07.001Z</time></trkpt><trkpt lat="40.61318737041564" lon="8.328932383129489"><ele>14.0</ele><time>2026-04-06T16:35:08.001Z</time></trkpt><trkpt lat="40.61339301279497" lon="8.328993476706483"><ele>13.0</ele><time>2026-04-06T16:35:09.001Z</time></trkpt><trkpt lat="40.61360174606163" lon="8.329051761506241"><ele>11.666666666666666</ele><time>2026-04-06T16:35:10.001Z</time></trkpt><trkpt lat="40.6138104770822" lon="8.329108427419296"><ele>10.333333333333332</ele><time>2026-04-06T16:35:11.001Z</time></trkpt><trkpt lat="40.61402280283362" lon="8.329165014201466"><ele>9.0</ele><time>2026-04-06T16:35:12.001Z</time></trkpt><trkpt lat="40.614234343151445" lon="8.329226410634199"><ele>9.0</ele><time>2026-04-06T16:35:13.001Z</time></trkpt><trkpt lat="40.61445178885047" lon="8.329289164014007"><ele>9.0</ele><time>2026-04-06T16:35:14.001Z</time></trkpt><trkpt lat="40.61466391033446" lon="8.329350646372221"><ele>9.0</ele><time>2026-04-06T16:35:15.001Z</time></trkpt><trkpt lat="40.61487182090881" lon="8.329410966351245"><ele>9.333333333333334</ele><time>2026-04-06T16:35:16.001Z</time></trkpt><trkpt lat="40.61507511992276" lon="8.329470160976864"><ele>9.666666666666668</ele><time>2026-04-06T16:35:17.001Z</time></trkpt><trkpt lat="40.6152821070751" lon="8.329529105927305"><ele>10.0</ele><time>2026-04-06T16:35:18.001Z</time></trkpt><trkpt lat="40.61548351204204" lon="8.329586186537343"><ele>10.0</ele><time>2026-04-06T16:35:19.001Z</time></trkpt><trkpt lat="40.615684773961625" lon="8.329640986628464"><ele>10.0</ele><time>2026-04-06T16:35:20.001Z</time></trkpt><trkpt lat="40.615887160809116" lon="8.329698975459735"><ele>10.0</ele><time>2026-04-06T16:35:21.001Z</time></trkpt><trkpt lat="40.616076214102115" lon="8.329752787671156"><ele>8.666666666666668</ele><time>2026-04-06T16:35:22.001Z</time></trkpt><trkpt lat="40.61626477551676" lon="8.329805658735133"><ele>7.333333333333334</ele><time>2026-04-06T16:35:23.001Z</time></trkpt><trkpt lat="40.61644979938382" lon="8.329854808547882"><ele>6.0</ele><time>2026-04-06T16:35:24.001Z</time></trkpt><trkpt lat="40.616632677422714" lon="8.329906520740114"><ele>6.0</ele><time>2026-04-06T16:35:25.001Z</time></trkpt><trkpt lat="40.616815908872795" lon="8.329959387690947"><ele>6.0</ele><time>2026-04-06T16:35:26.001Z</time></trkpt><trkpt lat="40.616999139094624" lon="8.330013258724865"><ele>6.0</ele><time>2026-04-06T16:35:27.001Z</time></trkpt><trkpt lat="40.617183363188644" lon="8.330067936398317"><ele>7.333333333333334</ele><time>2026-04-06T16:35:28.001Z</time></trkpt><trkpt lat="40.61735895328259" lon="8.330118433150345"><ele>8.666666666666668</ele><time>2026-04-06T16:35:29.001Z</time></trkpt><trkpt lat="40.617547161491366" lon="8.330174274709334"><ele>10.0</ele><time>2026-04-06T16:35:30.001Z</time></trkpt><trkpt lat="40.6177334147937" lon="8.330227712749965"><ele>12.0</ele><time>2026-04-06T16:35:31.001Z</time></trkpt><trkpt lat="40.61792808465326" lon="8.330282707265807"><ele>14.0</ele><time>2026-04-06T16:35:32.001Z</time></trkpt><trkpt lat="40.61813141751778" lon="8.330341604023445"><ele>16.0</ele><time>2026-04-06T16:35:33.001Z</time></trkpt><trkpt lat="40.61834418789951" lon="8.33040161098494"><ele>16.0</ele><time>2026-04-06T16:35:34.001Z</time></trkpt><trkpt lat="40.61854564666488" lon="8.330457478484504"><ele>16.0</ele><time>2026-04-06T16:35:35.001Z</time></trkpt><trkpt lat="40.618749134572866" lon="8.330513804442289"><ele>16.0</ele><time>2026-04-06T16:35:36.001Z</time></trkpt><trkpt lat="40.61896203362627" lon="8.330577119334441"><ele>17.0</ele><time>2026-04-06T16:35:37.001Z</time></trkpt><trkpt lat="40.61917536661416" lon="8.330638838398155"><ele>18.0</ele><time>2026-04-06T16:35:38.001Z</time></trkpt><trkpt lat="40.61938886395717" lon="8.330696132106818"><ele>19.0</ele><time>2026-04-06T16:35:39.001Z</time></trkpt><trkpt lat="40.61959192632912" lon="8.330751182613206"><ele>19.333333333333332</ele><time>2026-04-06T16:35:40.001Z</time></trkpt><trkpt lat="40.61979449787613" lon="8.330804426398096"><ele>19.666666666666668</ele><time>2026-04-06T16:35:41.001Z</time></trkpt><trkpt lat="40.61997430819644" lon="8.33085647360483"><ele>20.0</ele><time>2026-04-06T16:35:42.001Z</time></trkpt><trkpt lat="40.62014716201162" lon="8.33090451690234"><ele>20.0</ele><time>2026-04-06T16:35:43.001Z</time></trkpt><trkpt lat="40.62030810519773" lon="8.33095214992206"><ele>20.0</ele><time>2026-04-06T16:35:44.001Z</time></trkpt><trkpt lat="40.62047603354069" lon="8.331001580217233"><ele>20.0</ele><time>2026-04-06T16:35:45.001Z</time></trkpt><trkpt lat="40.62064747384205" lon="8.331052145658827"><ele>20.333333333333336</ele><time>2026-04-06T16:35:46.001Z</time></trkpt><trkpt lat="40.62082735713459" lon="8.331104908982677"><ele>20.666666666666668</ele><time>2026-04-06T16:35:47.001Z</time></trkpt><trkpt lat="40.62101546927734" lon="8.33115733523504"><ele>21.0</ele><time>2026-04-06T16:35:48.001Z</time></trkpt><trkpt lat="40.621209772857384" lon="8.331206986354616"><ele>21.333333333333332</ele><time>2026-04-06T16:35:49.001Z</time></trkpt><trkpt lat="40.621403826067024" lon="8.331257174718765"><ele>21.666666666666664</ele><time>2026-04-06T16:35:50.001Z</time></trkpt><trkpt lat="40.62159991552919" lon="8.3313100799415"><ele>22.0</ele><time>2026-04-06T16:35:51.001Z</time></trkpt><trkpt lat="40.62179947444662" lon="8.331366272638299"><ele>22.333333333333332</ele><time>2026-04-06T16:35:52.001Z</time></trkpt><trkpt lat="40.62198700117246" lon="8.331415054824815"><ele>22.666666666666668</ele><time>2026-04-06T16:35:53.001Z</time></trkpt><trkpt lat="40.62215656573056" lon="8.331462140459035"><ele>23.0</ele><time>2026-04-06T16:35:54.001Z</time></trkpt><trkpt lat="40.622320412846456" lon="8.331502438204215"><ele>23.0</ele><time>2026-04-06T16:35:55.001Z</time></trkpt><trkpt lat="40.62247275232738" lon="8.331535141514227"><ele>23.0</ele><time>2026-04-06T16:35:56.001Z</time></trkpt><trkpt lat="40.6226310081522" lon="8.331570241118786"><ele>23.0</ele><time>2026-04-06T16:35:57.001Z</time></trkpt><trkpt lat="40.62279505894791" lon="8.331608745806056"><ele>22.333333333333336</ele><time>2026-04-06T16:35:58.001Z</time></trkpt><trkpt lat="40.622947420486284" lon="8.331643574855306"><ele>21.666666666666668</ele><time>2026-04-06T16:35:59.001Z</time></trkpt><trkpt lat="40.62309655458201" lon="8.331677399585187"><ele>21.0</ele><time>2026-04-06T16:36:00.001Z</time></trkpt><trkpt lat="40.62324219214115" lon="8.331710030213113"><ele>21.0</ele><time>2026-04-06T16:36:01.001Z</time></trkpt><trkpt lat="40.62337731212834" lon="8.331740822122539"><ele>21.0</ele><time>2026-04-06T16:36:02.001Z</time></trkpt><trkpt lat="40.623517041641314" lon="8.331773440011505"><ele>21.0</ele><time>2026-04-06T16:36:03.001Z</time></trkpt><trkpt lat="40.62366242005629" lon="8.331809180630929"><ele>21.0</ele><time>2026-04-06T16:36:04.001Z</time></trkpt><trkpt lat="40.62381402937068" lon="8.331844292297644"><ele>21.0</ele><time>2026-04-06T16:36:05.001Z</time></trkpt><trkpt lat="40.62397100111849" lon="8.331879464968466"><ele>21.0</ele><time>2026-04-06T16:36:06.001Z</time></trkpt><trkpt lat="40.6241352373482" lon="8.331917855888108"><ele>21.0</ele><time>2026-04-06T16:36:07.001Z</time></trkpt><trkpt lat="40.624300905967864" lon="8.331957702104326"><ele>21.0</ele><time>2026-04-06T16:36:08.001Z</time></trkpt><trkpt lat="40.624466463451434" lon="8.331996139929567"><ele>21.0</ele><time>2026-04-06T16:36:09.001Z</time></trkpt><trkpt lat="40.62463404507405" lon="8.332035938304797"><ele>21.0</ele><time>2026-04-06T16:36:10.001Z</time></trkpt><trkpt lat="40.62479766866753" lon="8.332073991446677"><ele>21.0</ele><time>2026-04-06T16:36:11.001Z</time></trkpt><trkpt lat="40.624948945605844" lon="8.332107209158615"><ele>21.0</ele><time>2026-04-06T16:36:12.001Z</time></trkpt><trkpt lat="40.6250952621674" lon="8.332139523268175"><ele>21.0</ele><time>2026-04-06T16:36:13.001Z</time></trkpt><trkpt lat="40.62524182757392" lon="8.332171342381583"><ele>21.0</ele><time>2026-04-06T16:36:14.001Z</time></trkpt><trkpt lat="40.625394940151885" lon="8.332195989251172"><ele>21.0</ele><time>2026-04-06T16:36:15.001Z</time></trkpt><trkpt lat="40.62555745621614" lon="8.332208695720903"><ele>21.0</ele><time>2026-04-06T16:36:16.001Z</time></trkpt><trkpt lat="40.62571309695051" lon="8.332199862317589"><ele>21.0</ele><time>2026-04-06T16:36:17.001Z</time></trkpt><trkpt lat="40.62588021372245" lon="8.33217479516522"><ele>21.0</ele><time>2026-04-06T16:36:18.001Z</time></trkpt><trkpt lat="40.62604027507363" lon="8.332135830777768"><ele>21.0</ele><time>2026-04-06T16:36:19.001Z</time></trkpt><trkpt lat="40.62619962502947" lon="8.33208451442962"><ele>20.333333333333332</ele><time>2026-04-06T16:36:20.001Z</time></trkpt><trkpt lat="40.6263535674153" lon="8.332013471547425"><ele>19.666666666666664</ele><time>2026-04-06T16:36:21.001Z</time></trkpt><trkpt lat="40.626498784106865" lon="8.331931348067476"><ele>19.0</ele><time>2026-04-06T16:36:22.001Z</time></trkpt><trkpt lat="40.62663924238213" lon="8.331831419799506"><ele>19.0</ele><time>2026-04-06T16:36:23.001Z</time></trkpt><trkpt lat="40.62678325205186" lon="8.331722246194314"><ele>19.0</ele><time>2026-04-06T16:36:24.001Z</time></trkpt><trkpt lat="40.626933504000746" lon="8.33161063708189"><ele>19.0</ele><time>2026-04-06T16:36:25.001Z</time></trkpt><trkpt lat="40.62709334740211" lon="8.331496727344803"><ele>19.0</ele><time>2026-04-06T16:36:26.001Z</time></trkpt><trkpt lat="40.62726407565548" lon="8.331379996233448"><ele>19.0</ele><time>2026-04-06T16:36:27.001Z</time></trkpt><trkpt lat="40.627432740016125" lon="8.331263039629391"><ele>19.0</ele><time>2026-04-06T16:36:28.001Z</time></trkpt><trkpt lat="40.62759918130176" lon="8.331146435239269"><ele>19.0</ele><time>2026-04-06T16:36:29.001Z</time></trkpt><trkpt lat="40.62774877780654" lon="8.331039371508883"><ele>19.0</ele><time>2026-04-06T16:36:30.001Z</time></trkpt><trkpt lat="40.62789109950976" lon="8.330938290397087"><ele>19.0</ele><time>2026-04-06T16:36:31.001Z</time></trkpt><trkpt lat="40.62803086971213" lon="8.330838680926599"><ele>19.0</ele><time>2026-04-06T16:36:32.001Z</time></trkpt><trkpt lat="40.62816976826837" lon="8.330739322707919"><ele>19.0</ele><time>2026-04-06T16:36:33.001Z</time></trkpt><trkpt lat="40.62831603447311" lon="8.330635235093414"><ele>19.0</ele><time>2026-04-06T16:36:34.001Z</time></trkpt><trkpt lat="40.62846680594633" lon="8.3305301260191"><ele>18.666666666666664</ele><time>2026-04-06T16:36:35.001Z</time></trkpt><trkpt lat="40.62861882010921" lon="8.33042405226075"><ele>18.333333333333332</ele><time>2026-04-06T16:36:36.001Z</time></trkpt><trkpt lat="40.62877372403607" lon="8.33031636175152"><ele>18.0</ele><time>2026-04-06T16:36:37.001Z</time></trkpt><trkpt lat="40.62893150129948" lon="8.330203706600877"><ele>18.666666666666668</ele><time>2026-04-06T16:36:38.001Z</time></trkpt><trkpt lat="40.62908516791394" lon="8.33009260505351"><ele>19.333333333333336</ele><time>2026-04-06T16:36:39.001Z</time></trkpt><trkpt lat="40.62924113104553" lon="8.329979202541711"><ele>20.0</ele><time>2026-04-06T16:36:40.001Z</time></trkpt><trkpt lat="40.62939075535141" lon="8.329872467899161"><ele>20.0</ele><time>2026-04-06T16:36:41.001Z</time></trkpt><trkpt lat="40.629545697196995" lon="8.329762078549036"><ele>20.0</ele><time>2026-04-06T16:36:42.001Z</time></trkpt><trkpt lat="40.62969994896126" lon="8.32965544990406"><ele>20.0</ele><time>2026-04-06T16:36:43.001Z</time></trkpt><trkpt lat="40.62985503919197" lon="8.329548310626569"><ele>20.0</ele><time>2026-04-06T16:36:44.001Z</time></trkpt><trkpt lat="40.63000822713447" lon="8.329440747978568"><ele>20.0</ele><time>2026-04-06T16:36:45.001Z</time></trkpt><trkpt lat="40.63015771813788" lon="8.32933514139818"><ele>20.0</ele><time>2026-04-06T16:36:46.001Z</time></trkpt><trkpt lat="40.63030269819097" lon="8.329228039252484"><ele>19.666666666666668</ele><time>2026-04-06T16:36:47.001Z</time></trkpt><trkpt lat="40.630442116241134" lon="8.329127834758689"><ele>19.333333333333332</ele><time>2026-04-06T16:36:48.001Z</time></trkpt><trkpt lat="40.63058257792723" lon="8.329023935649474"><ele>19.0</ele><time>2026-04-06T16:36:49.001Z</time></trkpt><trkpt lat="40.63072434027394" lon="8.328918871154615"><ele>18.333333333333332</ele><time>2026-04-06T16:36:50.001Z</time></trkpt><trkpt lat="40.63087021442602" lon="8.32881151908757"><ele>17.666666666666668</ele><time>2026-04-06T16:36:51.001Z</time></trkpt><trkpt lat="40.63102254711535" lon="8.328706159701802"><ele>17.0</ele><time>2026-04-06T16:36:52.001Z</time></trkpt><trkpt lat="40.63118012695111" lon="8.328600644161261"><ele>17.0</ele><time>2026-04-06T16:36:53.001Z</time></trkpt><trkpt lat="40.63133691049628" lon="8.328496366527814"><ele>17.0</ele><time>2026-04-06T16:36:54.001Z</time></trkpt><trkpt lat="40.63149603168035" lon="8.328381483367552"><ele>17.0</ele><time>2026-04-06T16:36:55.001Z</time></trkpt><trkpt lat="40.63166206010553" lon="8.328261297963175"><ele>17.0</ele><time>2026-04-06T16:36:56.001Z</time></trkpt><trkpt lat="40.63183121004709" lon="8.328141390436402"><ele>17.0</ele><time>2026-04-06T16:36:57.001Z</time></trkpt><trkpt lat="40.63200772965005" lon="8.328015889917573"><ele>17.0</ele><time>2026-04-06T16:36:58.001Z</time></trkpt><trkpt lat="40.632182654194715" lon="8.327893328800025"><ele>18.333333333333336</ele><time>2026-04-06T16:36:59.001Z</time></trkpt><trkpt lat="40.63235820989823" lon="8.327769481899175"><ele>19.666666666666668</ele><time>2026-04-06T16:37:00.001Z</time></trkpt><trkpt lat="40.63252795799529" lon="8.327641470128945"><ele>21.0</ele><time>2026-04-06T16:37:01.001Z</time></trkpt><trkpt lat="40.632684553450915" lon="8.327520223215991"><ele>21.0</ele><time>2026-04-06T16:37:02.001Z</time></trkpt><trkpt lat="40.63284371135818" lon="8.327383741531774"><ele>21.0</ele><time>2026-04-06T16:37:03.001Z</time></trkpt><trkpt lat="40.632991308680594" lon="8.327242642367066"><ele>21.0</ele><time>2026-04-06T16:37:04.001Z</time></trkpt><trkpt lat="40.63313729597324" lon="8.32709540147671"><ele>21.333333333333332</ele><time>2026-04-06T16:37:05.001Z</time></trkpt><trkpt lat="40.633282625585096" lon="8.326947391181113"><ele>21.666666666666664</ele><time>2026-04-06T16:37:06.001Z</time></trkpt><trkpt lat="40.63342732698314" lon="8.326796076778297"><ele>22.0</ele><time>2026-04-06T16:37:07.001Z</time></trkpt><trkpt lat="40.633562329336655" lon="8.326655306224929"><ele>21.666666666666664</ele><time>2026-04-06T16:37:08.001Z</time></trkpt><trkpt lat="40.63369284574945" lon="8.326519293199329"><ele>21.333333333333332</ele><time>2026-04-06T16:37:09.001Z</time></trkpt><trkpt lat="40.633824425937874" lon="8.326383797880773"><ele>21.0</ele><time>2026-04-06T16:37:10.001Z</time></trkpt><trkpt lat="40.633962201451716" lon="8.326243451201844"><ele>21.0</ele><time>2026-04-06T16:37:11.001Z</time></trkpt><trkpt lat="40.63409933413741" lon="8.326102603669103"><ele>21.0</ele><time>2026-04-06T16:37:12.001Z</time></trkpt><trkpt lat="40.634241847761785" lon="8.325955250250873"><ele>21.0</ele><time>2026-04-06T16:37:13.001Z</time></trkpt><trkpt lat="40.63438571030651" lon="8.325806791666457"><ele>21.0</ele><time>2026-04-06T16:37:14.001Z</time></trkpt><trkpt lat="40.63453358104994" lon="8.32565674714699"><ele>21.0</ele><time>2026-04-06T16:37:15.001Z</time></trkpt><trkpt lat="40.63468363199781" lon="8.325507069373153"><ele>21.0</ele><time>2026-04-06T16:37:16.001Z</time></trkpt><trkpt lat="40.63482433247093" lon="8.325370804733094"><ele>21.0</ele><time>2026-04-06T16:37:17.001Z</time></trkpt><trkpt lat="40.6349647702211" lon="8.325238963664345"><ele>21.0</ele><time>2026-04-06T16:37:18.001Z</time></trkpt><trkpt lat="40.63510795758313" lon="8.325111597437592"><ele>21.0</ele><time>2026-04-06T16:37:19.001Z</time></trkpt><trkpt lat="40.63525701959431" lon="8.32499339457867"><ele>22.0</ele><time>2026-04-06T16:37:20.001Z</time></trkpt><trkpt lat="40.63541708990772" lon="8.324884691678855"><ele>23.0</ele><time>2026-04-06T16:37:21.001Z</time></trkpt><trkpt lat="40.63558330760722" lon="8.324785071718392"><ele>24.0</ele><time>2026-04-06T16:37:22.001Z</time></trkpt><trkpt lat="40.63575249694559" lon="8.324705370080398"><ele>24.333333333333336</ele><time>2026-04-06T16:37:23.001Z</time></trkpt><trkpt lat="40.635932660070154" lon="8.324634928651044"><ele>24.666666666666668</ele><time>2026-04-06T16:37:24.001Z</time></trkpt><trkpt lat="40.6361106488766" lon="8.324576644837464"><ele>25.0</ele><time>2026-04-06T16:37:25.001Z</time></trkpt><trkpt lat="40.63629758120978" lon="8.324558681732274"><ele>26.666666666666668</ele><time>2026-04-06T16:37:26.001Z</time></trkpt><trkpt lat="40.63648479411736" lon="8.324534761254132"><ele>28.333333333333336</ele><time>2026-04-06T16:37:27.001Z</time></trkpt><trkpt lat="40.63666825455798" lon="8.324494703594409"><ele>30.0</ele><time>2026-04-06T16:37:28.001Z</time></trkpt><trkpt lat="40.636857954409074" lon="8.324480514451823"><ele>28.666666666666664</ele><time>2026-04-06T16:37:29.001Z</time></trkpt><trkpt lat="40.637049009250006" lon="8.324460871689432"><ele>27.333333333333332</ele><time>2026-04-06T16:37:30.001Z</time></trkpt><trkpt lat="40.63724531377044" lon="8.324440887192004"><ele>26.0</ele><time>2026-04-06T16:37:31.001Z</time></trkpt><trkpt lat="40.637444586833965" lon="8.32442046779198"><ele>26.0</ele><time>2026-04-06T16:37:32.001Z</time></trkpt><trkpt lat="40.63764496625422" lon="8.324396802606435"><ele>26.0</ele><time>2026-04-06T16:37:33.001Z</time></trkpt><trkpt lat="40.63784767540071" lon="8.324374083389351"><ele>26.0</ele><time>2026-04-06T16:37:34.001Z</time></trkpt><trkpt lat="40.6380552965838" lon="8.324353087704889"><ele>25.0</ele><time>2026-04-06T16:37:35.001Z</time></trkpt><trkpt lat="40.63826146083288" lon="8.324330552492498"><ele>24.0</ele><time>2026-04-06T16:37:36.001Z</time></trkpt><trkpt lat="40.63846743886722" lon="8.324306090808758"><ele>23.0</ele><time>2026-04-06T16:37:37.001Z</time></trkpt><trkpt lat="40.638673078365265" lon="8.324282418257068"><ele>23.0</ele><time>2026-04-06T16:37:38.001Z</time></trkpt><trkpt lat="40.63886541528135" lon="8.324260512456318"><ele>23.0</ele><time>2026-04-06T16:37:39.001Z</time></trkpt><trkpt lat="40.639045121393295" lon="8.324241165660498"><ele>23.0</ele><time>2026-04-06T16:37:40.001Z</time></trkpt><trkpt lat="40.63922711910068" lon="8.324220291239348"><ele>23.0</ele><time>2026-04-06T16:37:41.001Z</time></trkpt><trkpt lat="40.63941443584495" lon="8.324199605321327"><ele>23.0</ele><time>2026-04-06T16:37:42.001Z</time></trkpt><trkpt lat="40.639605174430066" lon="8.324177620931176"><ele>23.0</ele><time>2026-04-06T16:37:43.001Z</time></trkpt><trkpt lat="40.639792658699534" lon="8.324154454748037"><ele>23.666666666666668</ele><time>2026-04-06T16:37:44.001Z</time></trkpt><trkpt lat="40.639980277321705" lon="8.324131779215039"><ele>24.333333333333336</ele><time>2026-04-06T16:37:45.001Z</time></trkpt><trkpt lat="40.64016599369355" lon="8.324111781160648"><ele>25.0</ele><time>2026-04-06T16:37:46.001Z</time></trkpt><trkpt lat="40.640349386138595" lon="8.324093783201558"><ele>25.0</ele><time>2026-04-06T16:37:47.001Z</time></trkpt><trkpt lat="40.64053649006167" lon="8.324073383239861"><ele>25.0</ele><time>2026-04-06T16:37:48.001Z</time></trkpt><trkpt lat="40.640724727875" lon="8.32405288820523"><ele>25.0</ele><time>2026-04-06T16:37:49.001Z</time></trkpt><trkpt lat="40.64090882045853" lon="8.32403017085697"><ele>25.0</ele><time>2026-04-06T16:37:50.001Z</time></trkpt><trkpt lat="40.64110046021789" lon="8.324006467575213"><ele>25.0</ele><time>2026-04-06T16:37:51.001Z</time></trkpt><trkpt lat="40.64129254763256" lon="8.32398637971027"><ele>25.0</ele><time>2026-04-06T16:37:52.001Z</time></trkpt><trkpt lat="40.64148743974047" lon="8.323966735742516"><ele>25.333333333333336</ele><time>2026-04-06T16:37:53.001Z</time></trkpt><trkpt lat="40.64168391489877" lon="8.323946450877449"><ele>25.666666666666664</ele><time>2026-04-06T16:37:54.001Z</time></trkpt><trkpt lat="40.64187518561046" lon="8.323925350956799"><ele>26.0</ele><time>2026-04-06T16:37:55.001Z</time></trkpt><trkpt lat="40.6420533955046" lon="8.323906117616735"><ele>25.666666666666664</ele><time>2026-04-06T16:37:56.001Z</time></trkpt><trkpt lat="40.64222779485919" lon="8.323892253444418"><ele>25.333333333333336</ele><time>2026-04-06T16:37:57.001Z</time></trkpt><trkpt lat="40.64240527221508" lon="8.323885651489443"><ele>25.0</ele><time>2026-04-06T16:37:58.001Z</time></trkpt><trkpt lat="40.64257320760152" lon="8.323887272263123"><ele>25.25</ele><time>2026-04-06T16:37:59.001Z</time></trkpt><trkpt lat="40.642731377568246" lon="8.323897925340072"><ele>25.5</ele><time>2026-04-06T16:38:00.001Z</time></trkpt><trkpt lat="40.64287742147957" lon="8.323916902700486"><ele>25.75</ele><time>2026-04-06T16:38:01.001Z</time></trkpt><trkpt lat="40.64301615185221" lon="8.323943765705437"><ele>26.0</ele><time>2026-04-06T16:38:02.001Z</time></trkpt><trkpt lat="40.64315609526707" lon="8.323974740522722"><ele>26.666666666666664</ele><time>2026-04-06T16:38:03.001Z</time></trkpt><trkpt lat="40.643304211305676" lon="8.324014821380082"><ele>27.333333333333336</ele><time>2026-04-06T16:38:04.001Z</time></trkpt><trkpt lat="40.64345636841891" lon="8.324061860611938"><ele>28.0</ele><time>2026-04-06T16:38:05.001Z</time></trkpt><trkpt lat="40.64360910311137" lon="8.324114394792575"><ele>28.0</ele><time>2026-04-06T16:38:06.001Z</time></trkpt><trkpt lat="40.64375875368656" lon="8.324175293463133"><ele>28.0</ele><time>2026-04-06T16:38:07.001Z</time></trkpt><trkpt lat="40.64391615613598" lon="8.324249149054255"><ele>28.0</ele><time>2026-04-06T16:38:08.001Z</time></trkpt><trkpt lat="40.64408040515599" lon="8.324326793725442"><ele>28.0</ele><time>2026-04-06T16:38:09.001Z</time></trkpt><trkpt lat="40.64424775162374" lon="8.324401816245315"><ele>28.0</ele><time>2026-04-06T16:38:10.001Z</time></trkpt><trkpt lat="40.64442338322829" lon="8.324475963334661"><ele>28.0</ele><time>2026-04-06T16:38:11.001Z</time></trkpt><trkpt lat="40.64459983118605" lon="8.324547341953862"><ele>27.333333333333336</ele><time>2026-04-06T16:38:12.001Z</time></trkpt><trkpt lat="40.644785354012704" lon="8.324623314765924"><ele>26.666666666666664</ele><time>2026-04-06T16:38:13.001Z</time></trkpt><trkpt lat="40.64496639481718" lon="8.324695122497046"><ele>26.0</ele><time>2026-04-06T16:38:14.001Z</time></trkpt><trkpt lat="40.64515138223343" lon="8.3247706249324"><ele>26.0</ele><time>2026-04-06T16:38:15.001Z</time></trkpt><trkpt lat="40.645330881872916" lon="8.32484520263359"><ele>26.0</ele><time>2026-04-06T16:38:16.001Z</time></trkpt><trkpt lat="40.645509692308984" lon="8.324923213340725"><ele>26.0</ele><time>2026-04-06T16:38:17.001Z</time></trkpt><trkpt lat="40.64568106274869" lon="8.324999301564128"><ele>26.0</ele><time>2026-04-06T16:38:18.001Z</time></trkpt><trkpt lat="40.64585646524056" lon="8.325072409821045"><ele>26.0</ele><time>2026-04-06T16:38:19.001Z</time></trkpt><trkpt lat="40.64603290676287" lon="8.325145741119634"><ele>26.0</ele><time>2026-04-06T16:38:20.001Z</time></trkpt><trkpt lat="40.646210111734284" lon="8.325220481934949"><ele>26.0</ele><time>2026-04-06T16:38:21.001Z</time></trkpt><trkpt lat="40.64639061039833" lon="8.325297734775408"><ele>26.0</ele><time>2026-04-06T16:38:22.001Z</time></trkpt><trkpt lat="40.646568935861964" lon="8.325370070094449"><ele>26.0</ele><time>2026-04-06T16:38:23.001Z</time></trkpt><trkpt lat="40.646758667673836" lon="8.325449889750184"><ele>26.0</ele><time>2026-04-06T16:38:24.001Z</time></trkpt><trkpt lat="40.64694224009793" lon="8.325525620686525"><ele>26.0</ele><time>2026-04-06T16:38:25.001Z</time></trkpt><trkpt lat="40.64712417520869" lon="8.325600520742876"><ele>26.0</ele><time>2026-04-06T16:38:26.001Z</time></trkpt><trkpt lat="40.64730603621081" lon="8.325676422914242"><ele>26.0</ele><time>2026-04-06T16:38:27.001Z</time></trkpt><trkpt lat="40.64748485296643" lon="8.325752617324387"><ele>26.0</ele><time>2026-04-06T16:38:28.001Z</time></trkpt><trkpt lat="40.647647706161735" lon="8.325822173477363"><ele>26.0</ele><time>2026-04-06T16:38:29.001Z</time></trkpt><trkpt lat="40.64781161063037" lon="8.325890119589056"><ele>26.0</ele><time>2026-04-06T16:38:30.001Z</time></trkpt><trkpt lat="40.64797917919918" lon="8.325960411847747"><ele>26.0</ele><time>2026-04-06T16:38:31.001Z</time></trkpt><trkpt lat="40.648157206633236" lon="8.32603564725695"><ele>26.0</ele><time>2026-04-06T16:38:32.001Z</time></trkpt><trkpt lat="40.64834167336812" lon="8.326112435941779"><ele>26.0</ele><time>2026-04-06T16:38:33.001Z</time></trkpt><trkpt lat="40.648524539268266" lon="8.32618651346149"><ele>26.0</ele><time>2026-04-06T16:38:34.001Z</time></trkpt><trkpt lat="40.64871848745424" lon="8.326265796411938"><ele>26.0</ele><time>2026-04-06T16:38:35.001Z</time></trkpt><trkpt lat="40.64891086577702" lon="8.326345150626743"><ele>26.666666666666664</ele><time>2026-04-06T16:38:36.001Z</time></trkpt><trkpt lat="40.649090093908406" lon="8.326421571531952"><ele>27.333333333333336</ele><time>2026-04-06T16:38:37.001Z</time></trkpt><trkpt lat="40.64927856665578" lon="8.326501371276771"><ele>28.0</ele><time>2026-04-06T16:38:38.001Z</time></trkpt><trkpt lat="40.64947429563879" lon="8.326586342592623"><ele>28.0</ele><time>2026-04-06T16:38:39.001Z</time></trkpt><trkpt lat="40.64965853470116" lon="8.32666560332826"><ele>28.0</ele><time>2026-04-06T16:38:40.001Z</time></trkpt><trkpt lat="40.64984338980458" lon="8.326744087340764"><ele>28.0</ele><time>2026-04-06T16:38:41.001Z</time></trkpt><trkpt lat="40.650035166833526" lon="8.326821481555745"><ele>28.0</ele><time>2026-04-06T16:38:42.001Z</time></trkpt><trkpt lat="40.65022852192719" lon="8.32690088126323"><ele>28.0</ele><time>2026-04-06T16:38:43.001Z</time></trkpt><trkpt lat="40.65041626004438" lon="8.326982274222638"><ele>28.0</ele><time>2026-04-06T16:38:44.001Z</time></trkpt><trkpt lat="40.65060872194355" lon="8.32706455687599"><ele>28.333333333333336</ele><time>2026-04-06T16:38:45.001Z</time></trkpt><trkpt lat="40.650803279630125" lon="8.327148811579246"><ele>28.666666666666664</ele><time>2026-04-06T16:38:46.001Z</time></trkpt><trkpt lat="40.65100124082315" lon="8.327233244799993"><ele>29.0</ele><time>2026-04-06T16:38:47.001Z</time></trkpt><trkpt lat="40.65120119929376" lon="8.32731692397811"><ele>29.333333333333332</ele><time>2026-04-06T16:38:48.001Z</time></trkpt><trkpt lat="40.65140510088984" lon="8.327400929234017"><ele>29.666666666666664</ele><time>2026-04-06T16:38:49.001Z</time></trkpt><trkpt lat="40.65160496257745" lon="8.327484932432833"><ele>30.0</ele><time>2026-04-06T16:38:50.001Z</time></trkpt><trkpt lat="40.65180886608228" lon="8.327569211661832"><ele>30.666666666666664</ele><time>2026-04-06T16:38:51.001Z</time></trkpt><trkpt lat="40.652013409489086" lon="8.327653900549583"><ele>31.333333333333332</ele><time>2026-04-06T16:38:52.001Z</time></trkpt><trkpt lat="40.65221574984756" lon="8.327740215903345"><ele>32.0</ele><time>2026-04-06T16:38:53.001Z</time></trkpt><trkpt lat="40.65242284582346" lon="8.327830455072524"><ele>32.0</ele><time>2026-04-06T16:38:54.001Z</time></trkpt><trkpt lat="40.65262980617919" lon="8.32791946404169"><ele>32.0</ele><time>2026-04-06T16:38:55.001Z</time></trkpt><trkpt lat="40.652842421061486" lon="8.32799990192741"><ele>32.0</ele><time>2026-04-06T16:38:56.001Z</time></trkpt><trkpt lat="40.65303497611211" lon="8.32808260008536"><ele>31.666666666666664</ele><time>2026-04-06T16:38:57.001Z</time></trkpt><trkpt lat="40.653214500284975" lon="8.328158325324978"><ele>31.333333333333336</ele><time>2026-04-06T16:38:58.001Z</time></trkpt><trkpt lat="40.65340500691917" lon="8.328238765422485"><ele>31.0</ele><time>2026-04-06T16:38:59.001Z</time></trkpt><trkpt lat="40.6535891478395" lon="8.32832211257063"><ele>31.0</ele><time>2026-04-06T16:39:00.001Z</time></trkpt><trkpt lat="40.65378686037413" lon="8.328403083847347"><ele>31.0</ele><time>2026-04-06T16:39:01.001Z</time></trkpt><trkpt lat="40.65397629679405" lon="8.328482175088794"><ele>31.0</ele><time>2026-04-06T16:39:02.001Z</time></trkpt><trkpt lat="40.65417367045872" lon="8.328562638786106"><ele>31.0</ele><time>2026-04-06T16:39:03.001Z</time></trkpt><trkpt lat="40.654371874886145" lon="8.3286434490948"><ele>31.0</ele><time>2026-04-06T16:39:04.001Z</time></trkpt><trkpt lat="40.654566165889385" lon="8.328723548151771"><ele>31.0</ele><time>2026-04-06T16:39:05.001Z</time></trkpt><trkpt lat="40.654765983824426" lon="8.328804932914517"><ele>31.0</ele><time>2026-04-06T16:39:06.001Z</time></trkpt><trkpt lat="40.654966243002356" lon="8.328885376153169"><ele>31.0</ele><time>2026-04-06T16:39:07.001Z</time></trkpt><trkpt lat="40.65516999316692" lon="8.328958217292305"><ele>31.0</ele><time>2026-04-06T16:39:08.001Z</time></trkpt><trkpt lat="40.655377608393955" lon="8.329011053033538"><ele>31.333333333333336</ele><time>2026-04-06T16:39:09.001Z</time></trkpt><trkpt lat="40.65559561990741" lon="8.329044358578683"><ele>31.666666666666664</ele><time>2026-04-06T16:39:10.001Z</time></trkpt><trkpt lat="40.655814005003776" lon="8.329063760201098"><ele>32.0</ele><time>2026-04-06T16:39:11.001Z</time></trkpt><trkpt lat="40.656033389304746" lon="8.329071223448135"><ele>32.0</ele><time>2026-04-06T16:39:12.001Z</time></trkpt><trkpt lat="40.65625361549174" lon="8.329065619965041"><ele>32.0</ele><time>2026-04-06T16:39:13.001Z</time></trkpt><trkpt lat="40.65645703446801" lon="8.32904905286602"><ele>32.0</ele><time>2026-04-06T16:39:14.001Z</time></trkpt><trkpt lat="40.65665101304847" lon="8.329025136062032"><ele>32.0</ele><time>2026-04-06T16:39:15.001Z</time></trkpt><trkpt lat="40.65684582290009" lon="8.328994495771736"><ele>32.0</ele><time>2026-04-06T16:39:16.001Z</time></trkpt><trkpt lat="40.65704420162796" lon="8.328959221212779"><ele>32.0</ele><time>2026-04-06T16:39:17.001Z</time></trkpt><trkpt lat="40.657247955850245" lon="8.328926481093646"><ele>32.33333333333333</ele><time>2026-04-06T16:39:18.001Z</time></trkpt><trkpt lat="40.65745184904783" lon="8.328895497524314"><ele>32.666666666666664</ele><time>2026-04-06T16:39:19.001Z</time></trkpt><trkpt lat="40.65765958727132" lon="8.328864635129136"><ele>33.0</ele><time>2026-04-06T16:39:20.001Z</time></trkpt><trkpt lat="40.65787004423435" lon="8.328834932710059"><ele>33.333333333333336</ele><time>2026-04-06T16:39:21.001Z</time></trkpt><trkpt lat="40.658082870148306" lon="8.328802197003036"><ele>33.66666666666667</ele><time>2026-04-06T16:39:22.001Z</time></trkpt><trkpt lat="40.65829091526626" lon="8.328771308291097"><ele>34.0</ele><time>2026-04-06T16:39:23.001Z</time></trkpt><trkpt lat="40.65849978801599" lon="8.328738427606078"><ele>33.66666666666667</ele><time>2026-04-06T16:39:24.001Z</time></trkpt><trkpt lat="40.658711161504" lon="8.328703606459477"><ele>33.333333333333336</ele><time>2026-04-06T16:39:25.001Z</time></trkpt><trkpt lat="40.65891112478662" lon="8.328669996861148"><ele>33.0</ele><time>2026-04-06T16:39:26.001Z</time></trkpt><trkpt lat="40.65910425645535" lon="8.328637895840167"><ele>33.0</ele><time>2026-04-06T16:39:27.001Z</time></trkpt><trkpt lat="40.659295959421826" lon="8.328608496560149"><ele>33.0</ele><time>2026-04-06T16:39:28.001Z</time></trkpt><trkpt lat="40.65948476286741" lon="8.328579656691563"><ele>33.0</ele><time>2026-04-06T16:39:29.001Z</time></trkpt><trkpt lat="40.65967488676186" lon="8.32855202242457"><ele>33.666666666666664</ele><time>2026-04-06T16:39:30.001Z</time></trkpt><trkpt lat="40.65986569737468" lon="8.328522400034174"><ele>34.33333333333333</ele><time>2026-04-06T16:39:31.001Z</time></trkpt><trkpt lat="40.66005877555387" lon="8.32849248273074"><ele>35.0</ele><time>2026-04-06T16:39:32.001Z</time></trkpt><trkpt lat="40.66025092716427" lon="8.328461667873537"><ele>35.33333333333333</ele><time>2026-04-06T16:39:33.001Z</time></trkpt><trkpt lat="40.66045072089325" lon="8.328429612278947"><ele>35.666666666666664</ele><time>2026-04-06T16:39:34.001Z</time></trkpt><trkpt lat="40.66064967081249" lon="8.328396700781362"><ele>36.0</ele><time>2026-04-06T16:39:35.001Z</time></trkpt><trkpt lat="40.66084947415967" lon="8.328366022847161"><ele>36.0</ele><time>2026-04-06T16:39:36.001Z</time></trkpt><trkpt lat="40.66105861273606" lon="8.328332428712748"><ele>36.0</ele><time>2026-04-06T16:39:37.001Z</time></trkpt><trkpt lat="40.66126462164498" lon="8.328301648901832"><ele>36.0</ele><time>2026-04-06T16:39:38.001Z</time></trkpt><trkpt lat="40.66147487208974" lon="8.328269387935004"><ele>36.0</ele><time>2026-04-06T16:39:39.001Z</time></trkpt><trkpt lat="40.66168431797503" lon="8.328237644421463"><ele>36.0</ele><time>2026-04-06T16:39:40.001Z</time></trkpt><trkpt lat="40.66189840083254" lon="8.328203475778675"><ele>36.0</ele><time>2026-04-06T16:39:41.001Z</time></trkpt><trkpt lat="40.6621139645871" lon="8.328169614802471"><ele>35.666666666666664</ele><time>2026-04-06T16:39:42.001Z</time></trkpt><trkpt lat="40.662333217206964" lon="8.328135617719171"><ele>35.33333333333333</ele><time>2026-04-06T16:39:43.001Z</time></trkpt><trkpt lat="40.66255122612285" lon="8.328102383393961"><ele>35.0</ele><time>2026-04-06T16:39:44.001Z</time></trkpt><trkpt lat="40.66277223934577" lon="8.328068697654944"><ele>35.0</ele><time>2026-04-06T16:39:45.001Z</time></trkpt><trkpt lat="40.66299575760367" lon="8.328033602976973"><ele>35.0</ele><time>2026-04-06T16:39:46.001Z</time></trkpt><trkpt lat="40.66321929062085" lon="8.327999526446526"><ele>35.0</ele><time>2026-04-06T16:39:47.001Z</time></trkpt><trkpt lat="40.663442527446826" lon="8.327965099660627"><ele>35.0</ele><time>2026-04-06T16:39:48.001Z</time></trkpt><trkpt lat="40.66366310669859" lon="8.327931517102442"><ele>35.0</ele><time>2026-04-06T16:39:49.001Z</time></trkpt><trkpt lat="40.66388418302697" lon="8.32789495148074"><ele>35.0</ele><time>2026-04-06T16:39:50.001Z</time></trkpt><trkpt lat="40.664104311526636" lon="8.327859830175585"><ele>35.0</ele><time>2026-04-06T16:39:51.001Z</time></trkpt><trkpt lat="40.66431129753079" lon="8.327827353473333"><ele>35.0</ele><time>2026-04-06T16:39:52.001Z</time></trkpt><trkpt lat="40.664507849157616" lon="8.327798708237504"><ele>35.0</ele><time>2026-04-06T16:39:53.001Z</time></trkpt><trkpt lat="40.66469100324327" lon="8.327771182018244"><ele>35.0</ele><time>2026-04-06T16:39:54.001Z</time></trkpt><trkpt lat="40.664866675277416" lon="8.327743794522505"><ele>35.0</ele><time>2026-04-06T16:39:55.001Z</time></trkpt><trkpt lat="40.66503531144523" lon="8.327719963517684"><ele>35.0</ele><time>2026-04-06T16:39:56.001Z</time></trkpt><trkpt lat="40.665199267762866" lon="8.327696219281043"><ele>35.0</ele><time>2026-04-06T16:39:57.001Z</time></trkpt><trkpt lat="40.66535929066757" lon="8.327675279239692"><ele>35.0</ele><time>2026-04-06T16:39:58.001Z</time></trkpt><trkpt lat="40.66552007667622" lon="8.327650568275093"><ele>35.25</ele><time>2026-04-06T16:39:59.001Z</time></trkpt><trkpt lat="40.66566407293666" lon="8.327626485301744"><ele>35.5</ele><time>2026-04-06T16:40:00.001Z</time></trkpt><trkpt lat="40.66580585275468" lon="8.327606621443831"><ele>35.75</ele><time>2026-04-06T16:40:01.001Z</time></trkpt><trkpt lat="40.665939188238966" lon="8.32758820438348"><ele>36.0</ele><time>2026-04-06T16:40:02.001Z</time></trkpt><trkpt lat="40.666039322854935" lon="8.327572446239746"><ele>35.8</ele><time>2026-04-06T16:40:03.001Z</time></trkpt><trkpt lat="40.66611248477403" lon="8.327560007784117"><ele>35.6</ele><time>2026-04-06T16:40:04.001Z</time></trkpt><trkpt lat="40.66623707448164" lon="8.327540721894025"><ele>35.4</ele><time>2026-04-06T16:40:06.001Z</time></trkpt><trkpt lat="40.66634785438253" lon="8.327524557563759"><ele>35.2</ele><time>2026-04-06T16:40:08.001Z</time></trkpt><trkpt lat="40.66643926220894" lon="8.32750970138486"><ele>35.0</ele><time>2026-04-06T16:40:10.001Z</time></trkpt><trkpt lat="40.66654600620912" lon="8.327493209595971"><ele>35.0</ele><time>2026-04-06T16:40:12.001Z</time></trkpt><trkpt lat="40.66662355826433" lon="8.327487260678785"><ele>35.0</ele><time>2026-04-06T16:40:14.001Z</time></trkpt><trkpt lat="40.66670257471556" lon="8.32747924652"><ele>35.0</ele><time>2026-04-06T16:40:16.001Z</time></trkpt><trkpt lat="40.66678327994307" lon="8.327467644275838"><ele>35.0</ele><time>2026-04-06T16:40:18.001Z</time></trkpt><trkpt lat="40.6668639549136" lon="8.327464071142646"><ele>35.0</ele><time>2026-04-06T16:40:20.001Z</time></trkpt><trkpt lat="40.66695189896329" lon="8.327472948459539"><ele>35.0</ele><time>2026-04-06T16:40:22.001Z</time></trkpt><trkpt lat="40.66702609605556" lon="8.327486326962767"><ele>34.857142857142854</ele><time>2026-04-06T16:40:24.001Z</time></trkpt><trkpt lat="40.66710047136172" lon="8.327513153534312"><ele>34.714285714285715</ele><time>2026-04-06T16:40:27.001Z</time></trkpt><trkpt lat="40.66716741148769" lon="8.327547937254106"><ele>34.57142857142857</ele><time>2026-04-06T16:40:31.001Z</time></trkpt><trkpt lat="40.667231954470175" lon="8.327591851158534"><ele>34.42857142857143</ele><time>2026-04-06T16:40:42.001Z</time></trkpt><trkpt lat="40.66729580866003" lon="8.327629243027799"><ele>34.285714285714285</ele><time>2026-04-06T16:40:44.001Z</time></trkpt><trkpt lat="40.66737114146022" lon="8.327683227443345"><ele>34.14285714285714</ele><time>2026-04-06T16:40:46.001Z</time></trkpt><trkpt lat="40.667427375140704" lon="8.327733095056551"><ele>34.0</ele><time>2026-04-06T16:40:47.001Z</time></trkpt><trkpt lat="40.667479366231625" lon="8.327782780920078"><ele>34.0</ele><time>2026-04-06T16:40:48.001Z</time></trkpt><trkpt lat="40.667537034919704" lon="8.327834347577209"><ele>34.0</ele><time>2026-04-06T16:40:49.001Z</time></trkpt><trkpt lat="40.667688259675856" lon="8.32796856361157"><ele>34.0</ele><time>2026-04-06T16:40:51.001Z</time></trkpt><trkpt lat="40.667790525361845" lon="8.328058750826683"><ele>34.0</ele><time>2026-04-06T16:40:52.001Z</time></trkpt><trkpt lat="40.66789230828564" lon="8.328158576226196"><ele>34.0</ele><time>2026-04-06T16:40:53.001Z</time></trkpt><trkpt lat="40.66798492479139" lon="8.32826371459799"><ele>34.0</ele><time>2026-04-06T16:40:54.001Z</time></trkpt><trkpt lat="40.66807356088259" lon="8.328381103697632"><ele>34.0</ele><time>2026-04-06T16:40:55.001Z</time></trkpt><trkpt lat="40.6681429074703" lon="8.328507235052362"><ele>34.0</ele><time>2026-04-06T16:40:56.001Z</time></trkpt><trkpt lat="40.66818987899444" lon="8.32864312294555"><ele>34.0</ele><time>2026-04-06T16:40:57.001Z</time></trkpt><trkpt lat="40.6682213902643" lon="8.328786998742824"><ele>34.0</ele><time>2026-04-06T16:40:58.001Z</time></trkpt><trkpt lat="40.66825443916611" lon="8.328963129004977"><ele>34.0</ele><time>2026-04-06T16:40:59.001Z</time></trkpt><trkpt lat="40.66829126407732" lon="8.329178217767042"><ele>34.0</ele><time>2026-04-06T16:41:00.001Z</time></trkpt><trkpt lat="40.66833598516217" lon="8.329430575493218"><ele>35.0</ele><time>2026-04-06T16:41:01.001Z</time></trkpt><trkpt lat="40.66838127686327" lon="8.329702410077854"><ele>36.0</ele><time>2026-04-06T16:41:02.001Z</time></trkpt><trkpt lat="40.66841744199255" lon="8.329948679393116"><ele>37.0</ele><time>2026-04-06T16:41:03.001Z</time></trkpt><trkpt lat="40.6684494941019" lon="8.330173018209225"><ele>37.5</ele><time>2026-04-06T16:41:04.001Z</time></trkpt><trkpt lat="40.66848468894739" lon="8.330373268120653"><ele>38.0</ele><time>2026-04-06T16:41:05.001Z</time></trkpt><trkpt lat="40.66851512267233" lon="8.330553333421696"><ele>38.5</ele><time>2026-04-06T16:41:06.001Z</time></trkpt><trkpt lat="40.66854526819135" lon="8.330728060377545"><ele>39.0</ele><time>2026-04-06T16:41:07.001Z</time></trkpt><trkpt lat="40.66857382417271" lon="8.330902863022724"><ele>39.0</ele><time>2026-04-06T16:41:08.001Z</time></trkpt><trkpt lat="40.66860390792155" lon="8.331066258154006"><ele>39.0</ele><time>2026-04-06T16:41:09.001Z</time></trkpt><trkpt lat="40.66863116591939" lon="8.33123649056849"><ele>39.0</ele><time>2026-04-06T16:41:10.001Z</time></trkpt><trkpt lat="40.66866492222561" lon="8.331415178291074"><ele>39.0</ele><time>2026-04-06T16:41:11.001Z</time></trkpt><trkpt lat="40.66870020537923" lon="8.331601882713837"><ele>39.0</ele><time>2026-04-06T16:41:12.001Z</time></trkpt><trkpt lat="40.66873560752752" lon="8.33179887651235"><ele>39.0</ele><time>2026-04-06T16:41:13.001Z</time></trkpt><trkpt lat="40.668767642665685" lon="8.332008327130293"><ele>39.0</ele><time>2026-04-06T16:41:14.001Z</time></trkpt><trkpt lat="40.668799608598135" lon="8.332224482003856"><ele>39.333333333333336</ele><time>2026-04-06T16:41:15.001Z</time></trkpt><trkpt lat="40.66883229045186" lon="8.33242855452094"><ele>39.66666666666667</ele><time>2026-04-06T16:41:16.001Z</time></trkpt><trkpt lat="40.66887070183353" lon="8.332649658710942"><ele>40.0</ele><time>2026-04-06T16:41:17.001Z</time></trkpt><trkpt lat="40.668912619150746" lon="8.332872550839443"><ele>40.333333333333336</ele><time>2026-04-06T16:41:18.001Z</time></trkpt><trkpt lat="40.66893813683403" lon="8.333105934745996"><ele>40.666666666666664</ele><time>2026-04-06T16:41:19.001Z</time></trkpt><trkpt lat="40.66897834814011" lon="8.333346358666567"><ele>41.0</ele><time>2026-04-06T16:41:20.001Z</time></trkpt><trkpt lat="40.66903254256678" lon="8.33357451975632"><ele>41.0</ele><time>2026-04-06T16:41:21.001Z</time></trkpt><trkpt lat="40.66906884989217" lon="8.333809833030264"><ele>41.0</ele><time>2026-04-06T16:41:22.001Z</time></trkpt><trkpt lat="40.66910607951434" lon="8.334049924041377"><ele>41.0</ele><time>2026-04-06T16:41:23.001Z</time></trkpt><trkpt lat="40.66914407943833" lon="8.334291247662794"><ele>41.666666666666664</ele><time>2026-04-06T16:41:24.001Z</time></trkpt><trkpt lat="40.66918471667824" lon="8.334530700034328"><ele>42.333333333333336</ele><time>2026-04-06T16:41:25.001Z</time></trkpt><trkpt lat="40.669225772096425" lon="8.334768099233013"><ele>43.0</ele><time>2026-04-06T16:41:26.001Z</time></trkpt><trkpt lat="40.66926834174754" lon="8.335009173763995"><ele>43.0</ele><time>2026-04-06T16:41:27.001Z</time></trkpt><trkpt lat="40.66931404765652" lon="8.335253305845955"><ele>43.0</ele><time>2026-04-06T16:41:28.001Z</time></trkpt><trkpt lat="40.66936097197393" lon="8.335505955698894"><ele>43.0</ele><time>2026-04-06T16:41:29Z</time></trkpt><trkpt lat="40.66940459675997" lon="8.33576389738755"><ele>42.66666666666667</ele><time>2026-04-06T16:41:30Z</time></trkpt><trkpt lat="40.669444675842016" lon="8.336022496778122"><ele>42.333333333333336</ele><time>2026-04-06T16:41:31Z</time></trkpt><trkpt lat="40.669484683782635" lon="8.336279920067598"><ele>42.0</ele><time>2026-04-06T16:41:32Z</time></trkpt><trkpt lat="40.66952711174991" lon="8.336535358967735"><ele>42.666666666666664</ele><time>2026-04-06T16:41:33Z</time></trkpt><trkpt lat="40.669574148449676" lon="8.336797359230335"><ele>43.33333333333333</ele><time>2026-04-06T16:41:34Z</time></trkpt><trkpt lat="40.66962446348891" lon="8.337069413639473"><ele>44.0</ele><time>2026-04-06T16:41:35Z</time></trkpt><trkpt lat="40.66967548781751" lon="8.337347508482305"><ele>44.0</ele><time>2026-04-06T16:41:36Z</time></trkpt><trkpt lat="40.669710094424076" lon="8.337647357840654"><ele>44.0</ele><time>2026-04-06T16:41:37Z</time></trkpt><trkpt lat="40.66977221201651" lon="8.337937363903617"><ele>44.33333333333333</ele><time>2026-04-06T16:41:38Z</time></trkpt><trkpt lat="40.669812741048766" lon="8.33821384789854"><ele>44.666666666666664</ele><time>2026-04-06T16:41:39Z</time></trkpt><trkpt lat="40.66985604742261" lon="8.338483668362919"><ele>45.0</ele><time>2026-04-06T16:41:40Z</time></trkpt><trkpt lat="40.66989872785931" lon="8.338748496697326"><ele>44.333333333333336</ele><time>2026-04-06T16:41:41Z</time></trkpt><trkpt lat="40.66993917503557" lon="8.33899606686098"><ele>43.66666666666667</ele><time>2026-04-06T16:41:42Z</time></trkpt><trkpt lat="40.66997890769765" lon="8.339235225001083"><ele>43.0</ele><time>2026-04-06T16:41:43Z</time></trkpt><trkpt lat="40.67002178057381" lon="8.339482187984952"><ele>43.0</ele><time>2026-04-06T16:41:44Z</time></trkpt><trkpt lat="40.670066800225115" lon="8.339740301900763"><ele>43.0</ele><time>2026-04-06T16:41:45Z</time></trkpt><trkpt lat="40.67011141909672" lon="8.339994419028908"><ele>43.0</ele><time>2026-04-06T16:41:46Z</time></trkpt><trkpt lat="40.67015607214529" lon="8.340251510866995"><ele>43.0</ele><time>2026-04-06T16:41:47Z</time></trkpt><trkpt lat="40.67020137389885" lon="8.340510887294872"><ele>43.0</ele><time>2026-04-06T16:41:48Z</time></trkpt><trkpt lat="40.67025359847252" lon="8.340770447272218"><ele>43.0</ele><time>2026-04-06T16:41:49Z</time></trkpt><trkpt lat="40.67028309524667" lon="8.341046383621624"><ele>42.66666666666667</ele><time>2026-04-06T16:41:50Z</time></trkpt><trkpt lat="40.67032914429108" lon="8.341319727011301"><ele>42.333333333333336</ele><time>2026-04-06T16:41:51Z</time></trkpt><trkpt lat="40.67037553269199" lon="8.341595410658721"><ele>42.0</ele><time>2026-04-06T16:41:52Z</time></trkpt><trkpt lat="40.67043435348902" lon="8.341865208676664"><ele>43.0</ele><time>2026-04-06T16:41:53Z</time></trkpt><trkpt lat="40.670477136031344" lon="8.342136891126593"><ele>44.0</ele><time>2026-04-06T16:41:54Z</time></trkpt><trkpt lat="40.67052040680121" lon="8.3423895400936"><ele>45.0</ele><time>2026-04-06T16:41:55Z</time></trkpt><trkpt lat="40.67056711339977" lon="8.342654888439428"><ele>45.333333333333336</ele><time>2026-04-06T16:41:56Z</time></trkpt><trkpt lat="40.670600768660655" lon="8.342936539822102"><ele>45.66666666666667</ele><time>2026-04-06T16:41:57Z</time></trkpt><trkpt lat="40.67066247499065" lon="8.343203830851555"><ele>46.0</ele><time>2026-04-06T16:41:58Z</time></trkpt><trkpt lat="40.67069813032097" lon="8.343448713100114"><ele>46.66666666666667</ele><time>2026-04-06T16:41:59Z</time></trkpt><trkpt lat="40.67073299017848" lon="8.343678237750291"><ele>47.333333333333336</ele><time>2026-04-06T16:42:00Z</time></trkpt><trkpt lat="40.67076901902841" lon="8.343888327688866"><ele>48.0</ele><time>2026-04-06T16:42:01Z</time></trkpt><trkpt lat="40.67081063912417" lon="8.344091558340269"><ele>48.0</ele><time>2026-04-06T16:42:02Z</time></trkpt><trkpt lat="40.670863711922" lon="8.344283370861186"><ele>48.0</ele><time>2026-04-06T16:42:03Z</time></trkpt><trkpt lat="40.67093258588302" lon="8.344475725612087"><ele>48.0</ele><time>2026-04-06T16:42:04Z</time></trkpt><trkpt lat="40.67101484584432" lon="8.34466761042499"><ele>48.66666666666667</ele><time>2026-04-06T16:42:05Z</time></trkpt><trkpt lat="40.671105505499526" lon="8.344874386384419"><ele>49.333333333333336</ele><time>2026-04-06T16:42:06Z</time></trkpt><trkpt lat="40.67119813984392" lon="8.34509032872841"><ele>50.0</ele><time>2026-04-06T16:42:07Z</time></trkpt><trkpt lat="40.67129647721244" lon="8.345323210022546"><ele>50.66666666666667</ele><time>2026-04-06T16:42:08Z</time></trkpt><trkpt lat="40.67140000073557" lon="8.345563287348686"><ele>51.33333333333333</ele><time>2026-04-06T16:42:09Z</time></trkpt><trkpt lat="40.67151049403146" lon="8.345819301636066"><ele>52.0</ele><time>2026-04-06T16:42:10Z</time></trkpt><trkpt lat="40.671621785647055" lon="8.346076491165853"><ele>52.0</ele><time>2026-04-06T16:42:11Z</time></trkpt><trkpt lat="40.67173106500962" lon="8.34632561183702"><ele>52.0</ele><time>2026-04-06T16:42:12Z</time></trkpt><trkpt lat="40.671837984578985" lon="8.34657034559264"><ele>52.0</ele><time>2026-04-06T16:42:13Z</time></trkpt><trkpt lat="40.67194617087833" lon="8.346817186318244"><ele>52.0</ele><time>2026-04-06T16:42:14Z</time></trkpt><trkpt lat="40.672054031152385" lon="8.347063263514409"><ele>52.0</ele><time>2026-04-06T16:42:15Z</time></trkpt><trkpt lat="40.67215707766512" lon="8.347303102442151"><ele>52.0</ele><time>2026-04-06T16:42:16Z</time></trkpt><trkpt lat="40.67225980431786" lon="8.347543432515566"><ele>52.0</ele><time>2026-04-06T16:42:17Z</time></trkpt><trkpt lat="40.6723626641052" lon="8.347781122129774"><ele>52.0</ele><time>2026-04-06T16:42:18Z</time></trkpt><trkpt lat="40.672468316589296" lon="8.348023994621661"><ele>52.0</ele><time>2026-04-06T16:42:19Z</time></trkpt><trkpt lat="40.67258094808519" lon="8.348279529123678"><ele>51.5</ele><time>2026-04-06T16:42:20Z</time></trkpt><trkpt lat="40.67269809108681" lon="8.348538394690774"><ele>51.0</ele><time>2026-04-06T16:42:21Z</time></trkpt><trkpt lat="40.672800697962145" lon="8.348817857213026"><ele>50.5</ele><time>2026-04-06T16:42:22Z</time></trkpt><trkpt lat="40.67292065311704" lon="8.349096576166158"><ele>50.0</ele><time>2026-04-06T16:42:23Z</time></trkpt><trkpt lat="40.673042622673314" lon="8.349379974556042"><ele>50.0</ele><time>2026-04-06T16:42:24Z</time></trkpt><trkpt lat="40.67318127192305" lon="8.349659401109012"><ele>50.0</ele><time>2026-04-06T16:42:25Z</time></trkpt><trkpt lat="40.673302249119075" lon="8.349959870018067"><ele>50.0</ele><time>2026-04-06T16:42:26Z</time></trkpt><trkpt lat="40.67342629198589" lon="8.350262418350159"><ele>50.0</ele><time>2026-04-06T16:42:27Z</time></trkpt><trkpt lat="40.67355357346087" lon="8.350561818207359"><ele>50.0</ele><time>2026-04-06T16:42:28Z</time></trkpt><trkpt lat="40.67367341987696" lon="8.350840708391818"><ele>50.0</ele><time>2026-04-06T16:42:29Z</time></trkpt><trkpt lat="40.67378350165968" lon="8.351093955922721"><ele>50.0</ele><time>2026-04-06T16:42:30Z</time></trkpt><trkpt lat="40.67388733221077" lon="8.351326170359307"><ele>50.0</ele><time>2026-04-06T16:42:31Z</time></trkpt><trkpt lat="40.67398533306754" lon="8.351536654075552"><ele>50.0</ele><time>2026-04-06T16:42:32Z</time></trkpt><trkpt lat="40.674078941391066" lon="8.351737201476187"><ele>50.333333333333336</ele><time>2026-04-06T16:42:33Z</time></trkpt><trkpt lat="40.674154758482764" lon="8.351956688608794"><ele>50.66666666666667</ele><time>2026-04-06T16:42:34Z</time></trkpt><trkpt lat="40.67425396961959" lon="8.352187200247998"><ele>51.0</ele><time>2026-04-06T16:42:35Z</time></trkpt><trkpt lat="40.674357589770075" lon="8.35242747068254"><ele>50.33333333333333</ele><time>2026-04-06T16:42:36Z</time></trkpt><trkpt lat="40.674463453416045" lon="8.352672943254786"><ele>49.666666666666664</ele><time>2026-04-06T16:42:37Z</time></trkpt><trkpt lat="40.67457851281585" lon="8.352918290554738"><ele>49.0</ele><time>2026-04-06T16:42:38Z</time></trkpt><trkpt lat="40.67468076664188" lon="8.353166571943177"><ele>48.666666666666664</ele><time>2026-04-06T16:42:39Z</time></trkpt><trkpt lat="40.6747815615407" lon="8.353396725528139"><ele>48.33333333333333</ele><time>2026-04-06T16:42:40Z</time></trkpt><trkpt lat="40.674874090434336" lon="8.353606004100971"><ele>48.0</ele><time>2026-04-06T16:42:41Z</time></trkpt><trkpt lat="40.67496127998484" lon="8.353807384295589"><ele>48.33333333333333</ele><time>2026-04-06T16:42:42Z</time></trkpt><trkpt lat="40.675050069326716" lon="8.35401254878781"><ele>48.666666666666664</ele><time>2026-04-06T16:42:43Z</time></trkpt><trkpt lat="40.67514151276785" lon="8.35422224522575"><ele>49.0</ele><time>2026-04-06T16:42:44Z</time></trkpt><trkpt lat="40.67523121992684" lon="8.354428050179072"><ele>49.33333333333333</ele><time>2026-04-06T16:42:45Z</time></trkpt><trkpt lat="40.675308123003404" lon="8.354607632029468"><ele>49.66666666666667</ele><time>2026-04-06T16:42:46Z</time></trkpt><trkpt lat="40.67538749323733" lon="8.354796234861478"><ele>50.0</ele><time>2026-04-06T16:42:47Z</time></trkpt><trkpt lat="40.67546723660074" lon="8.354976548624409"><ele>50.0</ele><time>2026-04-06T16:42:48Z</time></trkpt><trkpt lat="40.675550862212894" lon="8.355168244962636"><ele>50.0</ele><time>2026-04-06T16:42:49Z</time></trkpt><trkpt lat="40.67563458390328" lon="8.355362123301184"><ele>50.0</ele><time>2026-04-06T16:42:50Z</time></trkpt><trkpt lat="40.67572363970156" lon="8.35556969460823"><ele>49.66666666666667</ele><time>2026-04-06T16:42:51Z</time></trkpt><trkpt lat="40.675824127566656" lon="8.355802094146176"><ele>49.33333333333333</ele><time>2026-04-06T16:42:52Z</time></trkpt><trkpt lat="40.67590109154085" lon="8.355987193598494"><ele>49.0</ele><time>2026-04-06T16:42:53Z</time></trkpt><trkpt lat="40.67600761662523" lon="8.356222720571106"><ele>47.666666666666664</ele><time>2026-04-06T16:42:54Z</time></trkpt><trkpt lat="40.67610348308365" lon="8.356479938192331"><ele>46.33333333333333</ele><time>2026-04-06T16:42:55Z</time></trkpt><trkpt lat="40.6762321745362" lon="8.356734368282305"><ele>45.0</ele><time>2026-04-06T16:42:56Z</time></trkpt><trkpt lat="40.67634805794438" lon="8.357013869534157"><ele>46.0</ele><time>2026-04-06T16:42:57Z</time></trkpt><trkpt lat="40.676455638754824" lon="8.35728182211369"><ele>47.0</ele><time>2026-04-06T16:42:58Z</time></trkpt><trkpt lat="40.67655879536886" lon="8.357519629761766"><ele>48.0</ele><time>2026-04-06T16:42:59Z</time></trkpt><trkpt lat="40.67665927522901" lon="8.357743841854887"><ele>48.0</ele><time>2026-04-06T16:43:00.001Z</time></trkpt><trkpt lat="40.67675372061615" lon="8.357952414543485"><ele>48.0</ele><time>2026-04-06T16:43:01.001Z</time></trkpt><trkpt lat="40.676842529740384" lon="8.358162167864302"><ele>48.0</ele><time>2026-04-06T16:43:02.001Z</time></trkpt><trkpt lat="40.676928908505786" lon="8.358393333865362"><ele>47.0</ele><time>2026-04-06T16:43:03.001Z</time></trkpt><trkpt lat="40.677033709955175" lon="8.358636249934902"><ele>46.0</ele><time>2026-04-06T16:43:04.001Z</time></trkpt><trkpt lat="40.67715911307602" lon="8.358882674768296"><ele>45.0</ele><time>2026-04-06T16:43:05.001Z</time></trkpt><trkpt lat="40.67727057839372" lon="8.359160000200381"><ele>44.5</ele><time>2026-04-06T16:43:06.001Z</time></trkpt><trkpt lat="40.67739511213029" lon="8.359452885442144"><ele>44.0</ele><time>2026-04-06T16:43:07.001Z</time></trkpt><trkpt lat="40.67751994129333" lon="8.35975585530788"><ele>43.5</ele><time>2026-04-06T16:43:08.001Z</time></trkpt><trkpt lat="40.677641177930695" lon="8.360051449861242"><ele>43.0</ele><time>2026-04-06T16:43:09.001Z</time></trkpt><trkpt lat="40.677762640553304" lon="8.360345276253387"><ele>42.5</ele><time>2026-04-06T16:43:10.001Z</time></trkpt><trkpt lat="40.6778793290519" lon="8.360628379182069"><ele>42.0</ele><time>2026-04-06T16:43:11.001Z</time></trkpt><trkpt lat="40.677991858001604" lon="8.36089598795698"><ele>42.0</ele><time>2026-04-06T16:43:12.001Z</time></trkpt><trkpt lat="40.678099211711384" lon="8.361148833791853"><ele>42.0</ele><time>2026-04-06T16:43:13.001Z</time></trkpt><trkpt lat="40.67820284570525" lon="8.361381223576318"><ele>42.0</ele><time>2026-04-06T16:43:14.001Z</time></trkpt><trkpt lat="40.67829939290412" lon="8.36160343390841"><ele>42.333333333333336</ele><time>2026-04-06T16:43:15Z</time></trkpt><trkpt lat="40.678389819291574" lon="8.361825393041546"><ele>42.66666666666667</ele><time>2026-04-06T16:43:16Z</time></trkpt><trkpt lat="40.67848685959096" lon="8.362050425500183"><ele>43.0</ele><time>2026-04-06T16:43:17Z</time></trkpt><trkpt lat="40.678583387241744" lon="8.362274103057178"><ele>42.0</ele><time>2026-04-06T16:43:18Z</time></trkpt><trkpt lat="40.67868058694094" lon="8.362498927678827"><ele>41.0</ele><time>2026-04-06T16:43:19Z</time></trkpt><trkpt lat="40.67877917748812" lon="8.362723576839773"><ele>40.0</ele><time>2026-04-06T16:43:20Z</time></trkpt><trkpt lat="40.67887478606542" lon="8.362943804169607"><ele>40.333333333333336</ele><time>2026-04-06T16:43:21Z</time></trkpt><trkpt lat="40.67896781633531" lon="8.363160952756841"><ele>40.666666666666664</ele><time>2026-04-06T16:43:22Z</time></trkpt><trkpt lat="40.67905343177954" lon="8.363362419229265"><ele>41.0</ele><time>2026-04-06T16:43:23Z</time></trkpt><trkpt lat="40.67913911262619" lon="8.363565011653515"><ele>41.0</ele><time>2026-04-06T16:43:24Z</time></trkpt><trkpt lat="40.679221928006" lon="8.363758696087919"><ele>41.0</ele><time>2026-04-06T16:43:25Z</time></trkpt><trkpt lat="40.67930597298961" lon="8.36395431416446"><ele>41.0</ele><time>2026-04-06T16:43:26Z</time></trkpt><trkpt lat="40.67939261417353" lon="8.364153999300733"><ele>41.0</ele><time>2026-04-06T16:43:27Z</time></trkpt><trkpt lat="40.67948148946926" lon="8.364360143218075"><ele>41.0</ele><time>2026-04-06T16:43:28Z</time></trkpt><trkpt lat="40.6795754905933" lon="8.364575050113134"><ele>41.0</ele><time>2026-04-06T16:43:29Z</time></trkpt><trkpt lat="40.67967947668875" lon="8.364806545288486"><ele>41.33333333333333</ele><time>2026-04-06T16:43:30Z</time></trkpt><trkpt lat="40.679789848005434" lon="8.365051075041066"><ele>41.666666666666664</ele><time>2026-04-06T16:43:31Z</time></trkpt><trkpt lat="40.679904349362005" lon="8.365297660205922"><ele>42.0</ele><time>2026-04-06T16:43:32Z</time></trkpt><trkpt lat="40.680017779587594" lon="8.365554080964419"><ele>42.0</ele><time>2026-04-06T16:43:33Z</time></trkpt><trkpt lat="40.680127313405286" lon="8.365817209441545"><ele>42.0</ele><time>2026-04-06T16:43:34Z</time></trkpt><trkpt lat="40.680232686294566" lon="8.36606935332631"><ele>42.0</ele><time>2026-04-06T16:43:35Z</time></trkpt><trkpt lat="40.68033151498027" lon="8.366302427382237"><ele>41.666666666666664</ele><time>2026-04-06T16:43:36Z</time></trkpt><trkpt lat="40.68042785461353" lon="8.366527316897052"><ele>41.33333333333333</ele><time>2026-04-06T16:43:37Z</time></trkpt><trkpt lat="40.68051867964286" lon="8.366739800565796"><ele>41.0</ele><time>2026-04-06T16:43:38Z</time></trkpt><trkpt lat="40.680614208580785" lon="8.366957128853368"><ele>41.0</ele><time>2026-04-06T16:43:39Z</time></trkpt><trkpt lat="40.68070694126617" lon="8.367169204934235"><ele>41.0</ele><time>2026-04-06T16:43:40Z</time></trkpt><trkpt lat="40.68079894094894" lon="8.367379890635087"><ele>41.0</ele><time>2026-04-06T16:43:41Z</time></trkpt><trkpt lat="40.68089197104019" lon="8.367596804977298"><ele>41.0</ele><time>2026-04-06T16:43:42Z</time></trkpt><trkpt lat="40.680984030430345" lon="8.36781469832075"><ele>41.0</ele><time>2026-04-06T16:43:43Z</time></trkpt><trkpt lat="40.68108230561157" lon="8.36804555037428"><ele>41.0</ele><time>2026-04-06T16:43:44Z</time></trkpt><trkpt lat="40.681192407921294" lon="8.36829076066765"><ele>39.5</ele><time>2026-04-06T16:43:45Z</time></trkpt><trkpt lat="40.681314657216674" lon="8.368551673393979"><ele>38.0</ele><time>2026-04-06T16:43:46Z</time></trkpt><trkpt lat="40.68144256828951" lon="8.368831304091984"><ele>37.5</ele><time>2026-04-06T16:43:47Z</time></trkpt><trkpt lat="40.68156987333505" lon="8.369122760318067"><ele>37.0</ele><time>2026-04-06T16:43:48Z</time></trkpt><trkpt lat="40.68169852466464" lon="8.369424930192846"><ele>37.0</ele><time>2026-04-06T16:43:49Z</time></trkpt><trkpt lat="40.68183064841897" lon="8.369741055974487"><ele>37.0</ele><time>2026-04-06T16:43:50Z</time></trkpt><trkpt lat="40.68196928140662" lon="8.370067722505969"><ele>37.5</ele><time>2026-04-06T16:43:51Z</time></trkpt><trkpt lat="40.68211144522395" lon="8.370400585874131"><ele>38.0</ele><time>2026-04-06T16:43:52Z</time></trkpt><trkpt lat="40.68225686513339" lon="8.370736826485619"><ele>38.5</ele><time>2026-04-06T16:43:53Z</time></trkpt><trkpt lat="40.6824016665653" lon="8.371075726289975"><ele>39.0</ele><time>2026-04-06T16:43:54Z</time></trkpt><trkpt lat="40.68254818226396" lon="8.371418297701357"><ele>40.0</ele><time>2026-04-06T16:43:55Z</time></trkpt><trkpt lat="40.68268848161973" lon="8.371756746139067"><ele>41.0</ele><time>2026-04-06T16:43:56Z</time></trkpt><trkpt lat="40.68281847359812" lon="8.372067511280996"><ele>42.5</ele><time>2026-04-06T16:43:57Z</time></trkpt><trkpt lat="40.6829409664428" lon="8.372350382368252"><ele>44.0</ele><time>2026-04-06T16:43:58Z</time></trkpt><trkpt lat="40.68305904069774" lon="8.372620345732258"><ele>44.0</ele><time>2026-04-06T16:43:59Z</time></trkpt><trkpt lat="40.68316783837523" lon="8.372874753734534"><ele>44.0</ele><time>2026-04-06T16:44:00Z</time></trkpt><trkpt lat="40.68327821535477" lon="8.373124480260087"><ele>44.0</ele><time>2026-04-06T16:44:01Z</time></trkpt><trkpt lat="40.683403688191916" lon="8.37339592608123"><ele>44.0</ele><time>2026-04-06T16:44:02Z</time></trkpt><trkpt lat="40.683529195685544" lon="8.37368907934096"><ele>44.0</ele><time>2026-04-06T16:44:03Z</time></trkpt><trkpt lat="40.683649803886254" lon="8.374004705035322"><ele>43.5</ele><time>2026-04-06T16:44:04Z</time></trkpt><trkpt lat="40.68378021264701" lon="8.374328620813303"><ele>43.0</ele><time>2026-04-06T16:44:05Z</time></trkpt><trkpt lat="40.68391609115331" lon="8.374650484409063"><ele>41.0</ele><time>2026-04-06T16:44:06Z</time></trkpt><trkpt lat="40.68404762001367" lon="8.374956716995873"><ele>39.0</ele><time>2026-04-06T16:44:07Z</time></trkpt><trkpt lat="40.68417142735583" lon="8.375248012660803"><ele>39.0</ele><time>2026-04-06T16:44:08Z</time></trkpt><trkpt lat="40.6842913472052" lon="8.375529640438764"><ele>39.0</ele><time>2026-04-06T16:44:09Z</time></trkpt><trkpt lat="40.68441193949918" lon="8.375808237170911"><ele>38.0</ele><time>2026-04-06T16:44:10Z</time></trkpt><trkpt lat="40.68453275714689" lon="8.376080577611289"><ele>37.0</ele><time>2026-04-06T16:44:11Z</time></trkpt><trkpt lat="40.68465279625187" lon="8.376350537220985"><ele>36.66666666666667</ele><time>2026-04-06T16:44:12Z</time></trkpt><trkpt lat="40.68476999204279" lon="8.376614861067585"><ele>36.333333333333336</ele><time>2026-04-06T16:44:13Z</time></trkpt><trkpt lat="40.684877011135605" lon="8.376861471838511"><ele>36.0</ele><time>2026-04-06T16:44:14Z</time></trkpt><trkpt lat="40.68498191108172" lon="8.37710814737872"><ele>36.0</ele><time>2026-04-06T16:44:15Z</time></trkpt><trkpt lat="40.68509280468833" lon="8.377361492730271"><ele>36.0</ele><time>2026-04-06T16:44:16Z</time></trkpt><trkpt lat="40.68520682771401" lon="8.37762257452634"><ele>36.0</ele><time>2026-04-06T16:44:17Z</time></trkpt><trkpt lat="40.685321002640435" lon="8.377887602491514"><ele>36.0</ele><time>2026-04-06T16:44:18Z</time></trkpt><trkpt lat="40.68543450137201" lon="8.378151505223984"><ele>36.0</ele><time>2026-04-06T16:44:19Z</time></trkpt><trkpt lat="40.68555079130204" lon="8.378418289125783"><ele>36.0</ele><time>2026-04-06T16:44:20Z</time></trkpt><trkpt lat="40.685673377411746" lon="8.378696363894568"><ele>35.5</ele><time>2026-04-06T16:44:21Z</time></trkpt><trkpt lat="40.68579579718359" lon="8.37897312309932"><ele>35.0</ele><time>2026-04-06T16:44:22Z</time></trkpt><trkpt lat="40.685915794562185" lon="8.379255013589423"><ele>35.0</ele><time>2026-04-06T16:44:23Z</time></trkpt><trkpt lat="40.68603178717049" lon="8.379540866798429"><ele>35.0</ele><time>2026-04-06T16:44:24Z</time></trkpt><trkpt lat="40.686142815419785" lon="8.379824284399195"><ele>36.0</ele><time>2026-04-06T16:44:25Z</time></trkpt><trkpt lat="40.68625337097718" lon="8.380105097427867"><ele>37.0</ele><time>2026-04-06T16:44:26Z</time></trkpt><trkpt lat="40.68636331622197" lon="8.380384820390574"><ele>38.0</ele><time>2026-04-06T16:44:27Z</time></trkpt><trkpt lat="40.68647302798995" lon="8.380663642182393"><ele>39.0</ele><time>2026-04-06T16:44:28Z</time></trkpt><trkpt lat="40.68658085771179" lon="8.380941145243701"><ele>39.0</ele><time>2026-04-06T16:44:29Z</time></trkpt><trkpt lat="40.686689660291805" lon="8.381217434646091"><ele>39.0</ele><time>2026-04-06T16:44:30Z</time></trkpt><trkpt lat="40.68679576816632" lon="8.381488548154989"><ele>38.5</ele><time>2026-04-06T16:44:31Z</time></trkpt><trkpt lat="40.686901481992194" lon="8.381761125600475"><ele>38.0</ele><time>2026-04-06T16:44:32Z</time></trkpt><trkpt lat="40.687005001842664" lon="8.382029133970347"><ele>40.0</ele><time>2026-04-06T16:44:33Z</time></trkpt><trkpt lat="40.68710393351679" lon="8.382292229236167"><ele>42.0</ele><time>2026-04-06T16:44:34Z</time></trkpt><trkpt lat="40.68720582181055" lon="8.382562547970492"><ele>42.0</ele><time>2026-04-06T16:44:35Z</time></trkpt><trkpt lat="40.68730837213629" lon="8.382825639043444"><ele>42.0</ele><time>2026-04-06T16:44:36Z</time></trkpt><trkpt lat="40.687411201937884" lon="8.383082310685317"><ele>42.0</ele><time>2026-04-06T16:44:37Z</time></trkpt><trkpt lat="40.687516468650735" lon="8.383346957525742"><ele>43.0</ele><time>2026-04-06T16:44:38Z</time></trkpt><trkpt lat="40.68761831165485" lon="8.383607371350543"><ele>44.0</ele><time>2026-04-06T16:44:39Z</time></trkpt><trkpt lat="40.687718684479265" lon="8.383864532851891"><ele>45.0</ele><time>2026-04-06T16:44:40Z</time></trkpt><trkpt lat="40.68781148038858" lon="8.384102648793972"><ele>46.0</ele><time>2026-04-06T16:44:41Z</time></trkpt><trkpt lat="40.687904574233634" lon="8.384335810095546"><ele>47.0</ele><time>2026-04-06T16:44:42Z</time></trkpt><trkpt lat="40.687995429679084" lon="8.384570360379668"><ele>48.0</ele><time>2026-04-06T16:44:43Z</time></trkpt><trkpt lat="40.68808159487751" lon="8.384794466265218"><ele>48.0</ele><time>2026-04-06T16:44:44Z</time></trkpt><trkpt lat="40.688170469384026" lon="8.385022927237056"><ele>48.0</ele><time>2026-04-06T16:44:45Z</time></trkpt><trkpt lat="40.688257746897875" lon="8.385245138289603"><ele>48.0</ele><time>2026-04-06T16:44:46Z</time></trkpt><trkpt lat="40.68834459605054" lon="8.385462961359751"><ele>47.666666666666664</ele><time>2026-04-06T16:44:47Z</time></trkpt><trkpt lat="40.688429281111496" lon="8.385677904366725"><ele>47.33333333333333</ele><time>2026-04-06T16:44:48Z</time></trkpt><trkpt lat="40.68851286796136" lon="8.385896533889635"><ele>47.0</ele><time>2026-04-06T16:44:49Z</time></trkpt><trkpt lat="40.688598799502486" lon="8.386119727658336"><ele>47.666666666666664</ele><time>2026-04-06T16:44:50Z</time></trkpt><trkpt lat="40.68868650979122" lon="8.386342629272251"><ele>48.33333333333333</ele><time>2026-04-06T16:44:51Z</time></trkpt><trkpt lat="40.6887755040476" lon="8.386567753591665"><ele>49.0</ele><time>2026-04-06T16:44:52Z</time></trkpt><trkpt lat="40.688864096392514" lon="8.386795409978344"><ele>49.0</ele><time>2026-04-06T16:44:53Z</time></trkpt><trkpt lat="40.688951352102144" lon="8.387027598020437"><ele>49.0</ele><time>2026-04-06T16:44:54Z</time></trkpt><trkpt lat="40.68903921175699" lon="8.38726027840231"><ele>49.0</ele><time>2026-04-06T16:44:55Z</time></trkpt><trkpt lat="40.68912950179612" lon="8.38749594600176"><ele>48.666666666666664</ele><time>2026-04-06T16:44:56Z</time></trkpt><trkpt lat="40.689215994530244" lon="8.387726962409968"><ele>48.33333333333333</ele><time>2026-04-06T16:44:57Z</time></trkpt><trkpt lat="40.68929895557981" lon="8.387942848687693"><ele>48.0</ele><time>2026-04-06T16:44:58Z</time></trkpt><trkpt lat="40.689378324430585" lon="8.38814388126183"><ele>49.0</ele><time>2026-04-06T16:44:59Z</time></trkpt><trkpt lat="40.68945296254717" lon="8.388333593722368"><ele>50.0</ele><time>2026-04-06T16:45:00Z</time></trkpt><trkpt lat="40.68952086433837" lon="8.388518956872234"><ele>51.0</ele><time>2026-04-06T16:45:01Z</time></trkpt><trkpt lat="40.68959177805253" lon="8.388707360210857"><ele>51.0</ele><time>2026-04-06T16:45:02Z</time></trkpt><trkpt lat="40.689667946708546" lon="8.38890514268234"><ele>51.0</ele><time>2026-04-06T16:45:03Z</time></trkpt><trkpt lat="40.68974034979499" lon="8.389090674002059"><ele>51.0</ele><time>2026-04-06T16:45:04Z</time></trkpt><trkpt lat="40.6898104327401" lon="8.389273219717797"><ele>51.0</ele><time>2026-04-06T16:45:05Z</time></trkpt><trkpt lat="40.689882564236584" lon="8.389460775835541"><ele>51.0</ele><time>2026-04-06T16:45:06Z</time></trkpt><trkpt lat="40.689958059172376" lon="8.38965793241714"><ele>51.0</ele><time>2026-04-06T16:45:07Z</time></trkpt><trkpt lat="40.690032494456766" lon="8.38985092681835"><ele>51.33333333333333</ele><time>2026-04-06T16:45:08Z</time></trkpt><trkpt lat="40.690112823563375" lon="8.390054979590436"><ele>51.666666666666664</ele><time>2026-04-06T16:45:09Z</time></trkpt><trkpt lat="40.69019509072348" lon="8.390260105585966"><ele>52.0</ele><time>2026-04-06T16:45:10Z</time></trkpt><trkpt lat="40.69027659095522" lon="8.390467277138065"><ele>52.666666666666664</ele><time>2026-04-06T16:45:11Z</time></trkpt><trkpt lat="40.69035108094091" lon="8.390657950978975"><ele>53.33333333333333</ele><time>2026-04-06T16:45:12Z</time></trkpt><trkpt lat="40.69042061439431" lon="8.390835885646057"><ele>54.0</ele><time>2026-04-06T16:45:13Z</time></trkpt><trkpt lat="40.69048958005357" lon="8.391009248950912"><ele>54.0</ele><time>2026-04-06T16:45:14Z</time></trkpt><trkpt lat="40.690558153584206" lon="8.391187101710067"><ele>54.0</ele><time>2026-04-06T16:45:15Z</time></trkpt><trkpt lat="40.69062682525123" lon="8.39136317206202"><ele>54.0</ele><time>2026-04-06T16:45:16Z</time></trkpt><trkpt lat="40.69069405058588" lon="8.391543941734916"><ele>53.75</ele><time>2026-04-06T16:45:17Z</time></trkpt><trkpt lat="40.69075656366364" lon="8.391702577110953"><ele>53.5</ele><time>2026-04-06T16:45:18Z</time></trkpt><trkpt lat="40.69081980239236" lon="8.391869827823198"><ele>53.25</ele><time>2026-04-06T16:45:19Z</time></trkpt><trkpt lat="40.69088475019026" lon="8.392035634069286"><ele>53.0</ele><time>2026-04-06T16:45:20Z</time></trkpt><trkpt lat="40.690944560291975" lon="8.392194222459375"><ele>52.25</ele><time>2026-04-06T16:45:21Z</time></trkpt><trkpt lat="40.69099953224253" lon="8.392345342061104"><ele>51.5</ele><time>2026-04-06T16:45:22Z</time></trkpt><trkpt lat="40.691053424627576" lon="8.392495680607757"><ele>50.75</ele><time>2026-04-06T16:45:23Z</time></trkpt><trkpt lat="40.69109908553528" lon="8.392635537394641"><ele>50.0</ele><time>2026-04-06T16:45:24Z</time></trkpt><trkpt lat="40.69114183858851" lon="8.392774050511699"><ele>50.0</ele><time>2026-04-06T16:45:25Z</time></trkpt><trkpt lat="40.69118321734341" lon="8.392909751923654"><ele>50.0</ele><time>2026-04-06T16:45:26Z</time></trkpt><trkpt lat="40.69122817479193" lon="8.393051437737494"><ele>50.0</ele><time>2026-04-06T16:45:27Z</time></trkpt><trkpt lat="40.6912755839534" lon="8.39319757958717"><ele>50.0</ele><time>2026-04-06T16:45:28Z</time></trkpt><trkpt lat="40.691320549461274" lon="8.393338800858121"><ele>49.6</ele><time>2026-04-06T16:45:29Z</time></trkpt><trkpt lat="40.691365083179065" lon="8.393464347537112"><ele>49.2</ele><time>2026-04-06T16:45:30Z</time></trkpt><trkpt lat="40.69140536786986" lon="8.393583934718723"><ele>48.8</ele><time>2026-04-06T16:45:31Z</time></trkpt><trkpt lat="40.691443573959454" lon="8.393694048265205"><ele>48.4</ele><time>2026-04-06T16:45:32Z</time></trkpt><trkpt lat="40.69147891766745" lon="8.393796486327437"><ele>48.0</ele><time>2026-04-06T16:45:33Z</time></trkpt><trkpt lat="40.691511536436515" lon="8.39389565201789"><ele>48.0</ele><time>2026-04-06T16:45:34Z</time></trkpt><trkpt lat="40.6915371934971" lon="8.393987089081177"><ele>48.0</ele><time>2026-04-06T16:45:35Z</time></trkpt><trkpt lat="40.69154735219158" lon="8.39407002032126"><ele>48.0</ele><time>2026-04-06T16:45:36Z</time></trkpt><trkpt lat="40.691542916449265" lon="8.394159256412307"><ele>48.0</ele><time>2026-04-06T16:45:37Z</time></trkpt><trkpt lat="40.69148462234654" lon="8.394311243831394"><ele>48.0</ele><time>2026-04-06T16:45:39Z</time></trkpt><trkpt lat="40.69142996810627" lon="8.39439250942324"><ele>48.0</ele><time>2026-04-06T16:45:40Z</time></trkpt><trkpt lat="40.69135879786793" lon="8.394480867084654"><ele>48.0</ele><time>2026-04-06T16:45:41Z</time></trkpt><trkpt lat="40.69126882071645" lon="8.3945711032855"><ele>48.0</ele><time>2026-04-06T16:45:42Z</time></trkpt><trkpt lat="40.691166431843136" lon="8.39467250533862"><ele>48.0</ele><time>2026-04-06T16:45:43Z</time></trkpt><trkpt lat="40.691069276579235" lon="8.394779666262545"><ele>48.0</ele><time>2026-04-06T16:45:44Z</time></trkpt><trkpt lat="40.69099116075843" lon="8.394886425442355"><ele>47.4</ele><time>2026-04-06T16:45:45Z</time></trkpt><trkpt lat="40.69092293941372" lon="8.395010128524397"><ele>46.8</ele><time>2026-04-06T16:45:46Z</time></trkpt><trkpt lat="40.69087041942104" lon="8.395145234973256"><ele>46.2</ele><time>2026-04-06T16:45:47Z</time></trkpt><trkpt lat="40.69085483401414" lon="8.395281986705845"><ele>45.6</ele><time>2026-04-06T16:45:48Z</time></trkpt><trkpt lat="40.69087613879494" lon="8.395418426146193"><ele>45.0</ele><time>2026-04-06T16:45:49Z</time></trkpt><trkpt lat="40.69087456079319" lon="8.395571878547047"><ele>44.75</ele><time>2026-04-06T16:45:50Z</time></trkpt><trkpt lat="40.69091665534317" lon="8.395697522826126"><ele>44.5</ele><time>2026-04-06T16:45:51Z</time></trkpt><trkpt lat="40.69108111004426" lon="8.395837725712061"><ele>44.25</ele><time>2026-04-06T16:45:52Z</time></trkpt><trkpt lat="40.691205525982994" lon="8.39593489699677"><ele>44.0</ele><time>2026-04-06T16:45:53Z</time></trkpt><trkpt lat="40.69131240712736" lon="8.3960532263295"><ele>44.0</ele><time>2026-04-06T16:45:54Z</time></trkpt><trkpt lat="40.69143911787926" lon="8.39617695585167"><ele>44.0</ele><time>2026-04-06T16:45:55Z</time></trkpt><trkpt lat="40.691551627419976" lon="8.396281335536726"><ele>44.0</ele><time>2026-04-06T16:45:56Z</time></trkpt><trkpt lat="40.691643238114565" lon="8.39635946341302"><ele>44.0</ele><time>2026-04-06T16:45:57Z</time></trkpt><trkpt lat="40.69174447381594" lon="8.396452323935996"><ele>44.0</ele><time>2026-04-06T16:45:58Z</time></trkpt><trkpt lat="40.6918436619039" lon="8.396543849123056"><ele>44.0</ele><time>2026-04-06T16:45:59Z</time></trkpt><trkpt lat="40.69194222088114" lon="8.39663583939474"><ele>44.0</ele><time>2026-04-06T16:46:00Z</time></trkpt><trkpt lat="40.69203827040305" lon="8.396722272240442"><ele>44.0</ele><time>2026-04-06T16:46:01Z</time></trkpt><trkpt lat="40.69212904122359" lon="8.396789673262747"><ele>44.400000000000006</ele><time>2026-04-06T16:46:02Z</time></trkpt><trkpt lat="40.6922321792506" lon="8.396840712679776"><ele>44.8</ele><time>2026-04-06T16:46:03Z</time></trkpt><trkpt lat="40.692336172944195" lon="8.396872585490323"><ele>45.2</ele><time>2026-04-06T16:46:04Z</time></trkpt><trkpt lat="40.69244582986741" lon="8.396873810853661"><ele>45.599999999999994</ele><time>2026-04-06T16:46:05Z</time></trkpt><trkpt lat="40.69254346831343" lon="8.39685161376066"><ele>46.0</ele><time>2026-04-06T16:46:06Z</time></trkpt><trkpt lat="40.69264234865744" lon="8.396816528045852"><ele>46.0</ele><time>2026-04-06T16:46:07Z</time></trkpt><trkpt lat="40.692748822192605" lon="8.396744698550872"><ele>46.0</ele><time>2026-04-06T16:46:08Z</time></trkpt><trkpt lat="40.69284944340837" lon="8.39666007115249"><ele>46.0</ele><time>2026-04-06T16:46:09Z</time></trkpt><trkpt lat="40.69296231539951" lon="8.396562628275241"><ele>46.0</ele><time>2026-04-06T16:46:10Z</time></trkpt><trkpt lat="40.69305936135779" lon="8.39646892344806"><ele>47.333333333333336</ele><time>2026-04-06T16:46:11Z</time></trkpt><trkpt lat="40.69317783775345" lon="8.396372598428506"><ele>48.66666666666667</ele><time>2026-04-06T16:46:12Z</time></trkpt><trkpt lat="40.69343359249687" lon="8.396186595411748"><ele>50.0</ele><time>2026-04-06T16:46:14Z</time></trkpt><trkpt lat="40.69356945773883" lon="8.396132971690975"><ele>51.0</ele><time>2026-04-06T16:46:15Z</time></trkpt><trkpt lat="40.69371867166742" lon="8.396101506093586"><ele>52.0</ele><time>2026-04-06T16:46:16Z</time></trkpt><trkpt lat="40.69388719027768" lon="8.39609394887903"><ele>53.0</ele><time>2026-04-06T16:46:17Z</time></trkpt><trkpt lat="40.69406256639406" lon="8.396112823022145"><ele>53.0</ele><time>2026-04-06T16:46:18Z</time></trkpt><trkpt lat="40.69422517163422" lon="8.39614657939424"><ele>53.0</ele><time>2026-04-06T16:46:19Z</time></trkpt><trkpt lat="40.6943582375133" lon="8.396181846525106"><ele>53.0</ele><time>2026-04-06T16:46:20Z</time></trkpt><trkpt lat="40.69447581398064" lon="8.396224041907766"><ele>53.0</ele><time>2026-04-06T16:46:21Z</time></trkpt><trkpt lat="40.69457169303539" lon="8.396279888043725"><ele>53.0</ele><time>2026-04-06T16:46:22Z</time></trkpt><trkpt lat="40.69466944356287" lon="8.396319852095978"><ele>53.0</ele><time>2026-04-06T16:46:23Z</time></trkpt><trkpt lat="40.69476111702335" lon="8.39635466476836"><ele>53.0</ele><time>2026-04-06T16:46:24Z</time></trkpt><trkpt lat="40.694858615202975" lon="8.396390999209128"><ele>53.0</ele><time>2026-04-06T16:46:25Z</time></trkpt><trkpt lat="40.69496789590895" lon="8.396430601818963"><ele>53.0</ele><time>2026-04-06T16:46:26Z</time></trkpt><trkpt lat="40.69506056990006" lon="8.39646614802211"><ele>53.2</ele><time>2026-04-06T16:46:27Z</time></trkpt><trkpt lat="40.69515422566673" lon="8.396508654003371"><ele>53.4</ele><time>2026-04-06T16:46:28Z</time></trkpt><trkpt lat="40.695244019849085" lon="8.3965588402829"><ele>53.60000000000001</ele><time>2026-04-06T16:46:29Z</time></trkpt><trkpt lat="40.69534254477775" lon="8.396622968964468"><ele>53.800000000000004</ele><time>2026-04-06T16:46:30Z</time></trkpt><trkpt lat="40.6954409000105" lon="8.396697138844875"><ele>54.0</ele><time>2026-04-06T16:46:31Z</time></trkpt><trkpt lat="40.695536811977654" lon="8.396772790614907"><ele>53.25</ele><time>2026-04-06T16:46:32Z</time></trkpt><trkpt lat="40.695639946928424" lon="8.396854149128545"><ele>52.5</ele><time>2026-04-06T16:46:33Z</time></trkpt><trkpt lat="40.69574828339023" lon="8.396941344730076"><ele>51.75</ele><time>2026-04-06T16:46:34Z</time></trkpt><trkpt lat="40.695863621148526" lon="8.397041793593797"><ele>51.0</ele><time>2026-04-06T16:46:35Z</time></trkpt><trkpt lat="40.69598711357471" lon="8.39715607667888"><ele>50.33333333333333</ele><time>2026-04-06T16:46:36Z</time></trkpt><trkpt lat="40.69612379032513" lon="8.39728855707399"><ele>49.666666666666664</ele><time>2026-04-06T16:46:37Z</time></trkpt><trkpt lat="40.69626265677911" lon="8.397430672792048"><ele>49.0</ele><time>2026-04-06T16:46:38Z</time></trkpt><trkpt lat="40.696400632775294" lon="8.397578352857083"><ele>49.0</ele><time>2026-04-06T16:46:39Z</time></trkpt><trkpt lat="40.696537136224684" lon="8.397727102120204"><ele>49.0</ele><time>2026-04-06T16:46:40Z</time></trkpt><trkpt lat="40.696671038988995" lon="8.3978854384338"><ele>49.0</ele><time>2026-04-06T16:46:41Z</time></trkpt><trkpt lat="40.696795254851565" lon="8.39803310913194"><ele>49.0</ele><time>2026-04-06T16:46:42Z</time></trkpt><trkpt lat="40.6969217806286" lon="8.398184265467451"><ele>49.0</ele><time>2026-04-06T16:46:43Z</time></trkpt><trkpt lat="40.69704947653695" lon="8.398340961246587"><ele>49.0</ele><time>2026-04-06T16:46:44Z</time></trkpt><trkpt lat="40.69718859515309" lon="8.39850432869144"><ele>49.0</ele><time>2026-04-06T16:46:45Z</time></trkpt><trkpt lat="40.697348573570785" lon="8.398690898699718"><ele>49.0</ele><time>2026-04-06T16:46:46Z</time></trkpt><trkpt lat="40.697522892293854" lon="8.398899562296096"><ele>49.0</ele><time>2026-04-06T16:46:47Z</time></trkpt><trkpt lat="40.69768881657592" lon="8.39914023718913"><ele>49.0</ele><time>2026-04-06T16:46:48Z</time></trkpt><trkpt lat="40.69783316458017" lon="8.399385204740344"><ele>49.0</ele><time>2026-04-06T16:46:49Z</time></trkpt><trkpt lat="40.69796267794839" lon="8.39962205363419"><ele>49.666666666666664</ele><time>2026-04-06T16:46:50Z</time></trkpt><trkpt lat="40.69808600057529" lon="8.399852095363775"><ele>50.33333333333333</ele><time>2026-04-06T16:46:51Z</time></trkpt><trkpt lat="40.69820653220189" lon="8.400083841724978"><ele>51.0</ele><time>2026-04-06T16:46:52.001Z</time></trkpt><trkpt lat="40.69832750940993" lon="8.400315865010233"><ele>51.0</ele><time>2026-04-06T16:46:53.001Z</time></trkpt><trkpt lat="40.69844976292855" lon="8.400558047343333"><ele>51.0</ele><time>2026-04-06T16:46:54.001Z</time></trkpt><trkpt lat="40.69857192961348" lon="8.400808142643022"><ele>51.0</ele><time>2026-04-06T16:46:55.001Z</time></trkpt><trkpt lat="40.69868614091379" lon="8.401046548589393"><ele>51.33333333333333</ele><time>2026-04-06T16:46:56.001Z</time></trkpt><trkpt lat="40.69880189827915" lon="8.401289982891123"><ele>51.666666666666664</ele><time>2026-04-06T16:46:57.001Z</time></trkpt><trkpt lat="40.69891972601298" lon="8.401527721186259"><ele>52.0</ele><time>2026-04-06T16:46:58.001Z</time></trkpt><trkpt lat="40.699034757867196" lon="8.401766714570934"><ele>52.0</ele><time>2026-04-06T16:46:59.001Z</time></trkpt><trkpt lat="40.69915017532953" lon="8.402005830973826"><ele>52.0</ele><time>2026-04-06T16:47:00.001Z</time></trkpt><trkpt lat="40.69926681314474" lon="8.402241575523428"><ele>52.0</ele><time>2026-04-06T16:47:01.001Z</time></trkpt><trkpt lat="40.69937963335304" lon="8.402475462018788"><ele>52.666666666666664</ele><time>2026-04-06T16:47:02.001Z</time></trkpt><trkpt lat="40.6994895440998" lon="8.402706075451645"><ele>53.33333333333333</ele><time>2026-04-06T16:47:03.001Z</time></trkpt><trkpt lat="40.69960251575288" lon="8.402941048884777"><ele>54.0</ele><time>2026-04-06T16:47:04.001Z</time></trkpt><trkpt lat="40.6997161232702" lon="8.403176555426693"><ele>54.66666666666667</ele><time>2026-04-06T16:47:05.001Z</time></trkpt><trkpt lat="40.699833047115305" lon="8.403416971752643"><ele>55.333333333333336</ele><time>2026-04-06T16:47:06.001Z</time></trkpt><trkpt lat="40.699951394634994" lon="8.403662675309441"><ele>56.0</ele><time>2026-04-06T16:47:07.001Z</time></trkpt><trkpt lat="40.70006646305174" lon="8.403901977649022"><ele>56.66666666666667</ele><time>2026-04-06T16:47:08.001Z</time></trkpt><trkpt lat="40.70018143976091" lon="8.404138815789171"><ele>57.33333333333333</ele><time>2026-04-06T16:47:09.001Z</time></trkpt><trkpt lat="40.70029602169412" lon="8.404374154614075"><ele>58.0</ele><time>2026-04-06T16:47:10.001Z</time></trkpt><trkpt lat="40.70041173305876" lon="8.404612202147971"><ele>59.666666666666664</ele><time>2026-04-06T16:47:11.001Z</time></trkpt><trkpt lat="40.70052996226123" lon="8.404859257544933"><ele>61.33333333333333</ele><time>2026-04-06T16:47:12.001Z</time></trkpt><trkpt lat="40.700651547192884" lon="8.405112806028018"><ele>63.0</ele><time>2026-04-06T16:47:13.001Z</time></trkpt><trkpt lat="40.70077563211933" lon="8.405364923964767"><ele>63.0</ele><time>2026-04-06T16:47:14.001Z</time></trkpt><trkpt lat="40.70090059207969" lon="8.405616106000803"><ele>63.0</ele><time>2026-04-06T16:47:15.001Z</time></trkpt><trkpt lat="40.701021560183214" lon="8.405856615564861"><ele>63.0</ele><time>2026-04-06T16:47:16.001Z</time></trkpt><trkpt lat="40.70113304308534" lon="8.406084464988473"><ele>62.66666666666667</ele><time>2026-04-06T16:47:17.001Z</time></trkpt><trkpt lat="40.70124120977297" lon="8.406315457305935"><ele>62.333333333333336</ele><time>2026-04-06T16:47:18.001Z</time></trkpt><trkpt lat="40.70135023501899" lon="8.406548294280578"><ele>62.0</ele><time>2026-04-06T16:47:19.001Z</time></trkpt><trkpt lat="40.70146464436215" lon="8.406788511745692"><ele>62.0</ele><time>2026-04-06T16:47:20.001Z</time></trkpt><trkpt lat="40.70158001098488" lon="8.40703188977958"><ele>62.0</ele><time>2026-04-06T16:47:21.001Z</time></trkpt><trkpt lat="40.701694919651715" lon="8.407276219277053"><ele>62.0</ele><time>2026-04-06T16:47:22.001Z</time></trkpt><trkpt lat="40.70180856328747" lon="8.40751563474211"><ele>61.66666666666667</ele><time>2026-04-06T16:47:23.001Z</time></trkpt><trkpt lat="40.70192531070085" lon="8.407758408534951"><ele>61.33333333333333</ele><time>2026-04-06T16:47:24.001Z</time></trkpt><trkpt lat="40.70204377443002" lon="8.408003868915838"><ele>61.0</ele><time>2026-04-06T16:47:25.001Z</time></trkpt><trkpt lat="40.702158447871966" lon="8.408240260272851"><ele>62.0</ele><time>2026-04-06T16:47:26.001Z</time></trkpt><trkpt lat="40.70228203878125" lon="8.408492460635168"><ele>63.0</ele><time>2026-04-06T16:47:27.001Z</time></trkpt><trkpt lat="40.70240957847234" lon="8.408752078043547"><ele>64.5</ele><time>2026-04-06T16:47:28.001Z</time></trkpt><trkpt lat="40.702543950916414" lon="8.409022361408738"><ele>66.0</ele><time>2026-04-06T16:47:29.001Z</time></trkpt><trkpt lat="40.70268970187575" lon="8.409301270393183"><ele>65.0</ele><time>2026-04-06T16:47:30.001Z</time></trkpt><trkpt lat="40.70284972001571" lon="8.409588440518634"><ele>64.0</ele><time>2026-04-06T16:47:31.001Z</time></trkpt><trkpt lat="40.70302170304995" lon="8.409881197211943"><ele>66.0</ele><time>2026-04-06T16:47:32.001Z</time></trkpt><trkpt lat="40.703199125970535" lon="8.410181024611566"><ele>68.0</ele><time>2026-04-06T16:47:33.001Z</time></trkpt><trkpt lat="40.70337721112366" lon="8.410486716695658"><ele>68.0</ele><time>2026-04-06T16:47:34.001Z</time></trkpt><trkpt lat="40.703556448016755" lon="8.410807130355261"><ele>68.0</ele><time>2026-04-06T16:47:35.001Z</time></trkpt><trkpt lat="40.7037382457511" lon="8.411134889487382"><ele>70.0</ele><time>2026-04-06T16:47:36.001Z</time></trkpt><trkpt lat="40.70392227583974" lon="8.411460003639062"><ele>72.0</ele><time>2026-04-06T16:47:37.001Z</time></trkpt><trkpt lat="40.70411281750824" lon="8.411791818501547"><ele>72.0</ele><time>2026-04-06T16:47:38.001Z</time></trkpt><trkpt lat="40.70430612212451" lon="8.41212303384355"><ele>72.0</ele><time>2026-04-06T16:47:39.001Z</time></trkpt><trkpt lat="40.70450167055266" lon="8.412458203283554"><ele>72.5</ele><time>2026-04-06T16:47:40.001Z</time></trkpt><trkpt lat="40.704696715542894" lon="8.412796841337146"><ele>73.0</ele><time>2026-04-06T16:47:41.001Z</time></trkpt><trkpt lat="40.70489116018474" lon="8.413136582940446"><ele>73.0</ele><time>2026-04-06T16:47:42.001Z</time></trkpt><trkpt lat="40.705084663558516" lon="8.413476649259819"><ele>73.0</ele><time>2026-04-06T16:47:43.001Z</time></trkpt><trkpt lat="40.705280767839575" lon="8.413818096152536"><ele>74.0</ele><time>2026-04-06T16:47:44.001Z</time></trkpt><trkpt lat="40.70547520680222" lon="8.414156326836725"><ele>75.0</ele><time>2026-04-06T16:47:45.001Z</time></trkpt><trkpt lat="40.70566886989339" lon="8.414491935322927"><ele>75.0</ele><time>2026-04-06T16:47:46.001Z</time></trkpt><trkpt lat="40.705855062607256" lon="8.414807466606005"><ele>75.0</ele><time>2026-04-06T16:47:47.001Z</time></trkpt><trkpt lat="40.70603029995058" lon="8.415108818438371"><ele>76.0</ele><time>2026-04-06T16:47:48.001Z</time></trkpt><trkpt lat="40.706201128939966" lon="8.415405296012956"><ele>77.0</ele><time>2026-04-06T16:47:49.001Z</time></trkpt><trkpt lat="40.706362982908225" lon="8.415695762992591"><ele>75.0</ele><time>2026-04-06T16:47:50.001Z</time></trkpt><trkpt lat="40.70652019987366" lon="8.415971723887399"><ele>73.0</ele><time>2026-04-06T16:47:51.001Z</time></trkpt><trkpt lat="40.706675062778515" lon="8.416242362058767"><ele>72.5</ele><time>2026-04-06T16:47:52.001Z</time></trkpt><trkpt lat="40.70683198772978" lon="8.416510304096308"><ele>72.0</ele><time>2026-04-06T16:47:53.001Z</time></trkpt><trkpt lat="40.706982429254424" lon="8.416771663948003"><ele>73.0</ele><time>2026-04-06T16:47:54.001Z</time></trkpt><trkpt lat="40.70713179087063" lon="8.417032618551865"><ele>74.0</ele><time>2026-04-06T16:47:55.001Z</time></trkpt><trkpt lat="40.707280325631" lon="8.417290684936509"><ele>74.0</ele><time>2026-04-06T16:47:56.001Z</time></trkpt><trkpt lat="40.70742831097121" lon="8.417549380909714"><ele>74.0</ele><time>2026-04-06T16:47:57.001Z</time></trkpt><trkpt lat="40.70757369356197" lon="8.41780186130008"><ele>73.5</ele><time>2026-04-06T16:47:58.001Z</time></trkpt><trkpt lat="40.70772194430314" lon="8.418063617621241"><ele>73.0</ele><time>2026-04-06T16:47:59.001Z</time></trkpt><trkpt lat="40.70786623727773" lon="8.418320887494488"><ele>74.0</ele><time>2026-04-06T16:48:00.001Z</time></trkpt><trkpt lat="40.708014418676946" lon="8.418580398587252"><ele>75.0</ele><time>2026-04-06T16:48:01.001Z</time></trkpt><trkpt lat="40.708158979047184" lon="8.418830767700635"><ele>75.0</ele><time>2026-04-06T16:48:02.001Z</time></trkpt><trkpt lat="40.708308278580304" lon="8.41908413794562"><ele>75.0</ele><time>2026-04-06T16:48:03.001Z</time></trkpt><trkpt lat="40.70845296140505" lon="8.419333343657414"><ele>75.5</ele><time>2026-04-06T16:48:04.001Z</time></trkpt><trkpt lat="40.7085994015101" lon="8.419589352073839"><ele>76.0</ele><time>2026-04-06T16:48:05.001Z</time></trkpt><trkpt lat="40.708746323237136" lon="8.419847425399386"><ele>76.0</ele><time>2026-04-06T16:48:06.001Z</time></trkpt><trkpt lat="40.70889608079634" lon="8.420113417103527"><ele>76.0</ele><time>2026-04-06T16:48:07.001Z</time></trkpt><trkpt lat="40.709049425084984" lon="8.420383245835444"><ele>76.0</ele><time>2026-04-06T16:48:08.001Z</time></trkpt><trkpt lat="40.70920581470852" lon="8.420655487200651"><ele>76.0</ele><time>2026-04-06T16:48:09.001Z</time></trkpt><trkpt lat="40.70936621683818" lon="8.420929016060915"><ele>77.0</ele><time>2026-04-06T16:48:10.001Z</time></trkpt><trkpt lat="40.70952458951499" lon="8.421200449795974"><ele>78.0</ele><time>2026-04-06T16:48:11.001Z</time></trkpt><trkpt lat="40.70968539962629" lon="8.421475395696511"><ele>79.0</ele><time>2026-04-06T16:48:12.001Z</time></trkpt><trkpt lat="40.70984663831341" lon="8.421751342394117"><ele>80.0</ele><time>2026-04-06T16:48:13.001Z</time></trkpt><trkpt lat="40.71000664483209" lon="8.422026456272784"><ele>79.5</ele><time>2026-04-06T16:48:14.001Z</time></trkpt><trkpt lat="40.710167080077234" lon="8.422304016867187"><ele>79.0</ele><time>2026-04-06T16:48:15.001Z</time></trkpt><trkpt lat="40.710322946771726" lon="8.422577584327279"><ele>80.0</ele><time>2026-04-06T16:48:16.001Z</time></trkpt><trkpt lat="40.71048308686919" lon="8.422857239470469"><ele>81.0</ele><time>2026-04-06T16:48:17.001Z</time></trkpt><trkpt lat="40.710632167477414" lon="8.42312141343239"><ele>81.5</ele><time>2026-04-06T16:48:18.001Z</time></trkpt><trkpt lat="40.710776554883864" lon="8.423376451054043"><ele>82.0</ele><time>2026-04-06T16:48:19.001Z</time></trkpt><trkpt lat="40.71092139005774" lon="8.423628799346737"><ele>82.0</ele><time>2026-04-06T16:48:20.001Z</time></trkpt><trkpt lat="40.7110674521917" lon="8.423882483143116"><ele>82.0</ele><time>2026-04-06T16:48:21.001Z</time></trkpt><trkpt lat="40.71121283980863" lon="8.424135212435546"><ele>82.0</ele><time>2026-04-06T16:48:22.001Z</time></trkpt><trkpt lat="40.711359276328366" lon="8.424388871813601"><ele>82.0</ele><time>2026-04-06T16:48:23.001Z</time></trkpt><trkpt lat="40.71150514739137" lon="8.424638588554476"><ele>82.5</ele><time>2026-04-06T16:48:24.001Z</time></trkpt><trkpt lat="40.71165323602353" lon="8.424894988273115"><ele>83.0</ele><time>2026-04-06T16:48:25.001Z</time></trkpt><trkpt lat="40.7117980169624" lon="8.425146451136118"><ele>83.5</ele><time>2026-04-06T16:48:26.001Z</time></trkpt><trkpt lat="40.71194269753729" lon="8.42539771535033"><ele>84.0</ele><time>2026-04-06T16:48:27.001Z</time></trkpt><trkpt lat="40.71209022758787" lon="8.425655646964561"><ele>84.0</ele><time>2026-04-06T16:48:28.001Z</time></trkpt><trkpt lat="40.71223699598888" lon="8.425912234906693"><ele>84.0</ele><time>2026-04-06T16:48:29.001Z</time></trkpt><trkpt lat="40.712386685473135" lon="8.42617080221231"><ele>85.0</ele><time>2026-04-06T16:48:30.001Z</time></trkpt><trkpt lat="40.712534989751404" lon="8.426429838781578"><ele>86.0</ele><time>2026-04-06T16:48:31.001Z</time></trkpt><trkpt lat="40.71268383848979" lon="8.426686330955322"><ele>84.5</ele><time>2026-04-06T16:48:32.001Z</time></trkpt><trkpt lat="40.71282989575121" lon="8.426941629578167"><ele>83.0</ele><time>2026-04-06T16:48:33.001Z</time></trkpt><trkpt lat="40.71297865560807" lon="8.427196566736114"><ele>83.0</ele><time>2026-04-06T16:48:34.001Z</time></trkpt><trkpt lat="40.71312550155946" lon="8.427450928810774"><ele>83.0</ele><time>2026-04-06T16:48:35Z</time></trkpt><trkpt lat="40.713276305853086" lon="8.427714947490609"><ele>83.0</ele><time>2026-04-06T16:48:36Z</time></trkpt><trkpt lat="40.71343171251748" lon="8.427988011799902"><ele>83.0</ele><time>2026-04-06T16:48:37Z</time></trkpt><trkpt lat="40.71358781913793" lon="8.428265483390753"><ele>83.0</ele><time>2026-04-06T16:48:38Z</time></trkpt><trkpt lat="40.71374173512688" lon="8.428542287092831"><ele>83.0</ele><time>2026-04-06T16:48:39Z</time></trkpt><trkpt lat="40.7138992408741" lon="8.428824034281533"><ele>84.0</ele><time>2026-04-06T16:48:40Z</time></trkpt><trkpt lat="40.71405333959253" lon="8.429088099430327"><ele>85.0</ele><time>2026-04-06T16:48:41Z</time></trkpt><trkpt lat="40.7142176498976" lon="8.429353207377808"><ele>85.0</ele><time>2026-04-06T16:48:42Z</time></trkpt><trkpt lat="40.71437738209428" lon="8.429611587136248"><ele>85.0</ele><time>2026-04-06T16:48:43Z</time></trkpt><trkpt lat="40.71453571528296" lon="8.429869064761164"><ele>86.5</ele><time>2026-04-06T16:48:44Z</time></trkpt><trkpt lat="40.714695195564865" lon="8.430126364210105"><ele>88.0</ele><time>2026-04-06T16:48:45Z</time></trkpt><trkpt lat="40.714851570975455" lon="8.43038150395384"><ele>89.5</ele><time>2026-04-06T16:48:46Z</time></trkpt><trkpt lat="40.7150125026296" lon="8.430637122019789"><ele>91.0</ele><time>2026-04-06T16:48:47Z</time></trkpt><trkpt lat="40.71517145604424" lon="8.430891016828056"><ele>89.0</ele><time>2026-04-06T16:48:48Z</time></trkpt><trkpt lat="40.71532628572298" lon="8.431141469998591"><ele>87.0</ele><time>2026-04-06T16:48:49Z</time></trkpt><trkpt lat="40.71548264259273" lon="8.431393223923493"><ele>87.0</ele><time>2026-04-06T16:48:50Z</time></trkpt><trkpt lat="40.71563952441688" lon="8.431644251395344"><ele>87.0</ele><time>2026-04-06T16:48:51Z</time></trkpt><trkpt lat="40.715796481596264" lon="8.431896456599075"><ele>88.0</ele><time>2026-04-06T16:48:52Z</time></trkpt><trkpt lat="40.71595408883652" lon="8.43214778891691"><ele>89.0</ele><time>2026-04-06T16:48:53Z</time></trkpt><trkpt lat="40.716110365499034" lon="8.432401679182886"><ele>86.5</ele><time>2026-04-06T16:48:54Z</time></trkpt><trkpt lat="40.71626755613254" lon="8.432657968141983"><ele>84.0</ele><time>2026-04-06T16:48:55Z</time></trkpt><trkpt lat="40.71642443273602" lon="8.4329134740339"><ele>84.5</ele><time>2026-04-06T16:48:56Z</time></trkpt><trkpt lat="40.7165834580456" lon="8.433169364244302"><ele>85.0</ele><time>2026-04-06T16:48:57Z</time></trkpt><trkpt lat="40.716742595256896" lon="8.433425693503258"><ele>85.0</ele><time>2026-04-06T16:48:58Z</time></trkpt><trkpt lat="40.71690042141795" lon="8.433679165290288"><ele>85.0</ele><time>2026-04-06T16:48:59Z</time></trkpt><trkpt lat="40.71706068663575" lon="8.433937164864057"><ele>81.5</ele><time>2026-04-06T16:49:00Z</time></trkpt><trkpt lat="40.71721833997337" lon="8.434188796557713"><ele>78.0</ele><time>2026-04-06T16:49:01Z</time></trkpt><trkpt lat="40.71737668700143" lon="8.434439460568589"><ele>79.0</ele><time>2026-04-06T16:49:02Z</time></trkpt><trkpt lat="40.71753407775567" lon="8.434700674592742"><ele>80.0</ele><time>2026-04-06T16:49:03Z</time></trkpt><trkpt lat="40.717690766177896" lon="8.43495405263589"><ele>78.0</ele><time>2026-04-06T16:49:04Z</time></trkpt><trkpt lat="40.717847244527675" lon="8.435210878552196"><ele>76.0</ele><time>2026-04-06T16:49:05Z</time></trkpt><trkpt lat="40.71800353072085" lon="8.435463636224279"><ele>74.5</ele><time>2026-04-06T16:49:06Z</time></trkpt><trkpt lat="40.718159710411214" lon="8.43571755429416"><ele>73.0</ele><time>2026-04-06T16:49:07Z</time></trkpt><trkpt lat="40.718316942964684" lon="8.435972445786629"><ele>73.0</ele><time>2026-04-06T16:49:08Z</time></trkpt><trkpt lat="40.71847401958751" lon="8.436225378028013"><ele>73.0</ele><time>2026-04-06T16:49:09Z</time></trkpt><trkpt lat="40.71863082979322" lon="8.436480956428095"><ele>71.5</ele><time>2026-04-06T16:49:10Z</time></trkpt><trkpt lat="40.71878853098295" lon="8.436733218504465"><ele>70.0</ele><time>2026-04-06T16:49:11Z</time></trkpt><trkpt lat="40.718947550304385" lon="8.436989124059565"><ele>71.0</ele><time>2026-04-06T16:49:12Z</time></trkpt><trkpt lat="40.71910547898435" lon="8.437240797547748"><ele>72.0</ele><time>2026-04-06T16:49:13Z</time></trkpt><trkpt lat="40.71926275107915" lon="8.437494438664773"><ele>72.5</ele><time>2026-04-06T16:49:14Z</time></trkpt><trkpt lat="40.71941840633201" lon="8.437746129006218"><ele>73.0</ele><time>2026-04-06T16:49:15Z</time></trkpt><trkpt lat="40.71957345117631" lon="8.437997330596685"><ele>73.0</ele><time>2026-04-06T16:49:16Z</time></trkpt><trkpt lat="40.719727888121724" lon="8.438248890224623"><ele>73.0</ele><time>2026-04-06T16:49:17Z</time></trkpt><trkpt lat="40.719885349724585" lon="8.438499610714613"><ele>73.0</ele><time>2026-04-06T16:49:18.001Z</time></trkpt><trkpt lat="40.72004132548205" lon="8.438747537518697"><ele>73.0</ele><time>2026-04-06T16:49:19.001Z</time></trkpt><trkpt lat="40.72019901976079" lon="8.439000146119929"><ele>72.5</ele><time>2026-04-06T16:49:20.001Z</time></trkpt><trkpt lat="40.72036015798869" lon="8.439255864018667"><ele>72.0</ele><time>2026-04-06T16:49:21.001Z</time></trkpt><trkpt lat="40.72052279120803" lon="8.439514329962936"><ele>71.0</ele><time>2026-04-06T16:49:22.001Z</time></trkpt><trkpt lat="40.720685396090225" lon="8.439772807927119"><ele>70.0</ele><time>2026-04-06T16:49:23.001Z</time></trkpt><trkpt lat="40.7208483570882" lon="8.440035203641994"><ele>70.0</ele><time>2026-04-06T16:49:24.001Z</time></trkpt><trkpt lat="40.72101206782537" lon="8.440297823602803"><ele>70.0</ele><time>2026-04-06T16:49:25.001Z</time></trkpt><trkpt lat="40.721174954635856" lon="8.440558673423926"><ele>64.5</ele><time>2026-04-06T16:49:26.001Z</time></trkpt><trkpt lat="40.72133693820063" lon="8.440823006522571"><ele>59.0</ele><time>2026-04-06T16:49:27.001Z</time></trkpt><trkpt lat="40.72149745728623" lon="8.441084564658409"><ele>58.0</ele><time>2026-04-06T16:49:28.001Z</time></trkpt><trkpt lat="40.72165842720845" lon="8.441343587456062"><ele>57.0</ele><time>2026-04-06T16:49:29.001Z</time></trkpt><trkpt lat="40.72181834904343" lon="8.44160453406905"><ele>51.0</ele><time>2026-04-06T16:49:30.001Z</time></trkpt><trkpt lat="40.72197801788412" lon="8.441862834249717"><ele>45.0</ele><time>2026-04-06T16:49:31.001Z</time></trkpt><trkpt lat="40.72213488622937" lon="8.442118855054316"><ele>53.5</ele><time>2026-04-06T16:49:32.001Z</time></trkpt><trkpt lat="40.72229051069631" lon="8.442368877294717"><ele>62.0</ele><time>2026-04-06T16:49:33.001Z</time></trkpt><trkpt lat="40.72244533330512" lon="8.442616048369787"><ele>62.0</ele><time>2026-04-06T16:49:34.001Z</time></trkpt><trkpt lat="40.72260099114293" lon="8.44286351445027"><ele>62.0</ele><time>2026-04-06T16:49:35.001Z</time></trkpt><trkpt lat="40.72275474157818" lon="8.443113707175328"><ele>66.0</ele><time>2026-04-06T16:49:36.001Z</time></trkpt><trkpt lat="40.722910113269606" lon="8.443360510974882"><ele>70.0</ele><time>2026-04-06T16:49:37.001Z</time></trkpt><trkpt lat="40.723068110346794" lon="8.443608223485247"><ele>72.0</ele><time>2026-04-06T16:49:38.001Z</time></trkpt><trkpt lat="40.723228053144005" lon="8.443858662573573"><ele>74.0</ele><time>2026-04-06T16:49:39.001Z</time></trkpt><trkpt lat="40.7233891933427" lon="8.444116818905435"><ele>74.0</ele><time>2026-04-06T16:49:40.001Z</time></trkpt><trkpt lat="40.72354991353283" lon="8.444374622992294"><ele>74.0</ele><time>2026-04-06T16:49:41.001Z</time></trkpt><trkpt lat="40.723709104505616" lon="8.444632373736177"><ele>68.5</ele><time>2026-04-06T16:49:42.001Z</time></trkpt><trkpt lat="40.723866962925364" lon="8.444895656087649"><ele>63.0</ele><time>2026-04-06T16:49:43.001Z</time></trkpt><trkpt lat="40.72402681758724" lon="8.445153894731142"><ele>63.0</ele><time>2026-04-06T16:49:44.001Z</time></trkpt><trkpt lat="40.72418528686195" lon="8.445417034234387"><ele>63.0</ele><time>2026-04-06T16:49:45.001Z</time></trkpt><trkpt lat="40.724342056879856" lon="8.445679991138512"><ele>61.5</ele><time>2026-04-06T16:49:46.001Z</time></trkpt><trkpt lat="40.72449760845638" lon="8.445944031026125"><ele>60.0</ele><time>2026-04-06T16:49:47Z</time></trkpt><trkpt lat="40.724651192159754" lon="8.446207094644368"><ele>61.0</ele><time>2026-04-06T16:49:48Z</time></trkpt><trkpt lat="40.72480151489481" lon="8.446476853147734"><ele>62.0</ele><time>2026-04-06T16:49:49Z</time></trkpt><trkpt lat="40.724947842390065" lon="8.446748552365781"><ele>62.0</ele><time>2026-04-06T16:49:50Z</time></trkpt><trkpt lat="40.72508609734219" lon="8.447027889245344"><ele>62.0</ele><time>2026-04-06T16:49:51Z</time></trkpt><trkpt lat="40.72522071125953" lon="8.447302021299883"><ele>67.0</ele><time>2026-04-06T16:49:52Z</time></trkpt><trkpt lat="40.72535137559669" lon="8.447582950812196"><ele>72.0</ele><time>2026-04-06T16:49:53Z</time></trkpt><trkpt lat="40.72547948658957" lon="8.447859426493284"><ele>71.5</ele><time>2026-04-06T16:49:54Z</time></trkpt><trkpt lat="40.7256026430905" lon="8.448138201938958"><ele>71.0</ele><time>2026-04-06T16:49:55Z</time></trkpt><trkpt lat="40.72571764887432" lon="8.448418134247367"><ele>71.0</ele><time>2026-04-06T16:49:56Z</time></trkpt><trkpt lat="40.725826693009864" lon="8.448697997361277"><ele>71.0</ele><time>2026-04-06T16:49:57Z</time></trkpt><trkpt lat="40.72593078340671" lon="8.448977601950668"><ele>73.0</ele><time>2026-04-06T16:49:58Z</time></trkpt><trkpt lat="40.72603423642923" lon="8.449253786567938"><ele>75.0</ele><time>2026-04-06T16:49:59Z</time></trkpt><trkpt lat="40.72613377423549" lon="8.449521958321782"><ele>76.0</ele><time>2026-04-06T16:50:00Z</time></trkpt><trkpt lat="40.72623105743063" lon="8.449788926412062"><ele>77.0</ele><time>2026-04-06T16:50:01Z</time></trkpt><trkpt lat="40.72633345905921" lon="8.4500713522989"><ele>77.0</ele><time>2026-04-06T16:50:02Z</time></trkpt><trkpt lat="40.726435402676984" lon="8.450372701719996"><ele>77.0</ele><time>2026-04-06T16:50:03Z</time></trkpt><trkpt lat="40.72653366597883" lon="8.450694877891952"><ele>79.5</ele><time>2026-04-06T16:50:04Z</time></trkpt><trkpt lat="40.7266261096614" lon="8.45103450627555"><ele>82.0</ele><time>2026-04-06T16:50:05Z</time></trkpt><trkpt lat="40.72671246186826" lon="8.45138235282062"><ele>83.5</ele><time>2026-04-06T16:50:06Z</time></trkpt><trkpt lat="40.72679433555966" lon="8.451730918283484"><ele>85.0</ele><time>2026-04-06T16:50:07Z</time></trkpt><trkpt lat="40.72688579850239" lon="8.452077296024385"><ele>85.0</ele><time>2026-04-06T16:50:08Z</time></trkpt><trkpt lat="40.72696934205094" lon="8.452419219118951"><ele>85.0</ele><time>2026-04-06T16:50:09Z</time></trkpt><trkpt lat="40.727045035884" lon="8.452747808348471"><ele>86.5</ele><time>2026-04-06T16:50:10Z</time></trkpt><trkpt lat="40.72711875043706" lon="8.453071343427299"><ele>88.0</ele><time>2026-04-06T16:50:11Z</time></trkpt><trkpt lat="40.72719563180918" lon="8.45339625727676"><ele>88.0</ele><time>2026-04-06T16:50:12Z</time></trkpt><trkpt lat="40.72727268383265" lon="8.453715482482648"><ele>88.0</ele><time>2026-04-06T16:50:13Z</time></trkpt><trkpt lat="40.72734945492514" lon="8.454033959534351"><ele>88.5</ele><time>2026-04-06T16:50:14Z</time></trkpt><trkpt lat="40.72742642102776" lon="8.45434724994017"><ele>89.0</ele><time>2026-04-06T16:50:15Z</time></trkpt><trkpt lat="40.727505382474526" lon="8.454661644164352"><ele>88.0</ele><time>2026-04-06T16:50:16Z</time></trkpt><trkpt lat="40.727584499998656" lon="8.454975162681114"><ele>87.0</ele><time>2026-04-06T16:50:17Z</time></trkpt><trkpt lat="40.727662198671894" lon="8.455286772208696"><ele>87.0</ele><time>2026-04-06T16:50:18Z</time></trkpt><trkpt lat="40.7277408205976" lon="8.455603808469595"><ele>87.0</ele><time>2026-04-06T16:50:19Z</time></trkpt><trkpt lat="40.72781922544725" lon="8.45592087641956"><ele>87.0</ele><time>2026-04-06T16:50:20Z</time></trkpt><trkpt lat="40.72789661442239" lon="8.45623978105382"><ele>87.0</ele><time>2026-04-06T16:50:21Z</time></trkpt><trkpt lat="40.727972365359776" lon="8.456559762595257"><ele>86.5</ele><time>2026-04-06T16:50:22Z</time></trkpt><trkpt lat="40.72804827693663" lon="8.456874508195083"><ele>86.0</ele><time>2026-04-06T16:50:23Z</time></trkpt><trkpt lat="40.72812630022122" lon="8.457193424868512"><ele>85.5</ele><time>2026-04-06T16:50:24Z</time></trkpt><trkpt lat="40.72820183700698" lon="8.457505368386881"><ele>85.0</ele><time>2026-04-06T16:50:25Z</time></trkpt><trkpt lat="40.72827894710178" lon="8.45782100321062"><ele>86.0</ele><time>2026-04-06T16:50:26Z</time></trkpt><trkpt lat="40.728355483071375" lon="8.458135499748424"><ele>87.0</ele><time>2026-04-06T16:50:27Z</time></trkpt><trkpt lat="40.72843212012705" lon="8.45845277165984"><ele>87.0</ele><time>2026-04-06T16:50:28Z</time></trkpt><trkpt lat="40.72850718160283" lon="8.458768475448515"><ele>87.0</ele><time>2026-04-06T16:50:29Z</time></trkpt><trkpt lat="40.72858401394194" lon="8.45908556339527"><ele>87.0</ele><time>2026-04-06T16:50:30Z</time></trkpt><trkpt lat="40.72866079655367" lon="8.459400872655623"><ele>87.0</ele><time>2026-04-06T16:50:31Z</time></trkpt><trkpt lat="40.72874026631455" lon="8.459723266710863"><ele>87.0</ele><time>2026-04-06T16:50:32Z</time></trkpt><trkpt lat="40.728820117084126" lon="8.460042426908347"><ele>87.0</ele><time>2026-04-06T16:50:33Z</time></trkpt><trkpt lat="40.728897697096734" lon="8.46036016377309"><ele>86.5</ele><time>2026-04-06T16:50:34Z</time></trkpt><trkpt lat="40.728975170294184" lon="8.460680904266669"><ele>86.0</ele><time>2026-04-06T16:50:35Z</time></trkpt><trkpt lat="40.7290546210152" lon="8.461006080987792"><ele>85.5</ele><time>2026-04-06T16:50:36Z</time></trkpt><trkpt lat="40.72913586473728" lon="8.461338651258544"><ele>85.0</ele><time>2026-04-06T16:50:37Z</time></trkpt><trkpt lat="40.72922069270604" lon="8.461683343634212"><ele>85.0</ele><time>2026-04-06T16:50:38Z</time></trkpt><trkpt lat="40.72930717086825" lon="8.462034006615623"><ele>85.0</ele><time>2026-04-06T16:50:39Z</time></trkpt><trkpt lat="40.72939246619605" lon="8.4623836472179"><ele>85.5</ele><time>2026-04-06T16:50:40Z</time></trkpt><trkpt lat="40.729475909362186" lon="8.462734963421084"><ele>86.0</ele><time>2026-04-06T16:50:41Z</time></trkpt><trkpt lat="40.729558946759795" lon="8.463082224691737"><ele>86.0</ele><time>2026-04-06T16:50:42Z</time></trkpt><trkpt lat="40.72964387440274" lon="8.463431215836785"><ele>86.0</ele><time>2026-04-06T16:50:43Z</time></trkpt><trkpt lat="40.72972770893225" lon="8.463779566866284"><ele>86.5</ele><time>2026-04-06T16:50:44Z</time></trkpt><trkpt lat="40.729810159905334" lon="8.464126355886009"><ele>87.0</ele><time>2026-04-06T16:50:45Z</time></trkpt><trkpt lat="40.729893347722616" lon="8.46447255689746"><ele>88.0</ele><time>2026-04-06T16:50:46Z</time></trkpt><trkpt lat="40.729980778762254" lon="8.464829645385437"><ele>89.0</ele><time>2026-04-06T16:50:47Z</time></trkpt><trkpt lat="40.73006816909789" lon="8.46519530619148"><ele>89.0</ele><time>2026-04-06T16:50:48Z</time></trkpt><trkpt lat="40.73015336033294" lon="8.465559936408999"><ele>89.0</ele><time>2026-04-06T16:50:49Z</time></trkpt><trkpt lat="40.73023738744044" lon="8.465926195427668"><ele>89.5</ele><time>2026-04-06T16:50:50Z</time></trkpt><trkpt lat="40.73032428091192" lon="8.466286991653478"><ele>90.0</ele><time>2026-04-06T16:50:51Z</time></trkpt><trkpt lat="40.7304140018204" lon="8.466631062416566"><ele>90.0</ele><time>2026-04-06T16:50:52Z</time></trkpt><trkpt lat="40.73050875542731" lon="8.466958683300808"><ele>90.0</ele><time>2026-04-06T16:50:53Z</time></trkpt><trkpt lat="40.73061537603995" lon="8.467274126294258"><ele>90.0</ele><time>2026-04-06T16:50:54Z</time></trkpt><trkpt lat="40.73073597751391" lon="8.467577167587276"><ele>90.0</ele><time>2026-04-06T16:50:55Z</time></trkpt><trkpt lat="40.73086826198745" lon="8.46786645355139"><ele>90.0</ele><time>2026-04-06T16:50:56Z</time></trkpt><trkpt lat="40.731010046683934" lon="8.468144551589935"><ele>90.0</ele><time>2026-04-06T16:50:57Z</time></trkpt><trkpt lat="40.731161921780114" lon="8.468410143687048"><ele>90.0</ele><time>2026-04-06T16:50:58Z</time></trkpt><trkpt lat="40.731337906317144" lon="8.468679978046785"><ele>90.0</ele><time>2026-04-06T16:50:59Z</time></trkpt><trkpt lat="40.731525014981116" lon="8.468951317003095"><ele>90.0</ele><time>2026-04-06T16:51:00Z</time></trkpt><trkpt lat="40.73172668219412" lon="8.469228741282121"><ele>90.0</ele><time>2026-04-06T16:51:01Z</time></trkpt><trkpt lat="40.73193046606021" lon="8.469506672344464"><ele>90.0</ele><time>2026-04-06T16:51:02Z</time></trkpt><trkpt lat="40.73213720526788" lon="8.469788623642666"><ele>90.0</ele><time>2026-04-06T16:51:03Z</time></trkpt><trkpt lat="40.73234372454033" lon="8.470079623258481"><ele>90.0</ele><time>2026-04-06T16:51:04Z</time></trkpt><trkpt lat="40.73254402131251" lon="8.470379263112445"><ele>90.0</ele><time>2026-04-06T16:51:05Z</time></trkpt><trkpt lat="40.73273656136152" lon="8.470694841058055"><ele>90.0</ele><time>2026-04-06T16:51:06Z</time></trkpt><trkpt lat="40.732920969483274" lon="8.471016439115841"><ele>90.0</ele><time>2026-04-06T16:51:07Z</time></trkpt><trkpt lat="40.73309197133316" lon="8.471336753248764"><ele>89.5</ele><time>2026-04-06T16:51:08Z</time></trkpt><trkpt lat="40.73324163657841" lon="8.471644259617639"><ele>89.0</ele><time>2026-04-06T16:51:09Z</time></trkpt><trkpt lat="40.73337271475707" lon="8.471942738895619"><ele>89.5</ele><time>2026-04-06T16:51:10Z</time></trkpt><trkpt lat="40.73349951440569" lon="8.472245658062501"><ele>90.0</ele><time>2026-04-06T16:51:11Z</time></trkpt><trkpt lat="40.73361785099767" lon="8.472546603111283"><ele>90.5</ele><time>2026-04-06T16:51:12Z</time></trkpt><trkpt lat="40.7337280701567" lon="8.472846956477213"><ele>91.0</ele><time>2026-04-06T16:51:13Z</time></trkpt><trkpt lat="40.73382879257844" lon="8.47314955636159"><ele>91.0</ele><time>2026-04-06T16:51:14Z</time></trkpt><trkpt lat="40.733923326801325" lon="8.473447059993672"><ele>91.0</ele><time>2026-04-06T16:51:15Z</time></trkpt><trkpt lat="40.734016466942776" lon="8.473752113298112"><ele>92.5</ele><time>2026-04-06T16:51:16Z</time></trkpt><trkpt lat="40.73410743674439" lon="8.47405311590957"><ele>94.0</ele><time>2026-04-06T16:51:17Z</time></trkpt><trkpt lat="40.73419926922244" lon="8.47435802011909"><ele>94.5</ele><time>2026-04-06T16:51:18Z</time></trkpt><trkpt lat="40.73429086766563" lon="8.474661681060809"><ele>95.0</ele><time>2026-04-06T16:51:19Z</time></trkpt><trkpt lat="40.73438495629652" lon="8.474967418358032"><ele>94.5</ele><time>2026-04-06T16:51:20Z</time></trkpt><trkpt lat="40.734476768105324" lon="8.475265160365113"><ele>94.0</ele><time>2026-04-06T16:51:21Z</time></trkpt><trkpt lat="40.734569571128944" lon="8.475569321879965"><ele>94.0</ele><time>2026-04-06T16:51:22Z</time></trkpt><trkpt lat="40.73465941995665" lon="8.4758647708889"><ele>94.0</ele><time>2026-04-06T16:51:23Z</time></trkpt><trkpt lat="40.73474950180178" lon="8.47616325913922"><ele>94.0</ele><time>2026-04-06T16:51:24Z</time></trkpt><trkpt lat="40.73483737723725" lon="8.47645827204704"><ele>94.0</ele><time>2026-04-06T16:51:25Z</time></trkpt><trkpt lat="40.73492587270463" lon="8.476757022469933"><ele>94.0</ele><time>2026-04-06T16:51:26Z</time></trkpt><trkpt lat="40.73501238389457" lon="8.477048426491699"><ele>94.0</ele><time>2026-04-06T16:51:27Z</time></trkpt><trkpt lat="40.735103551846755" lon="8.477351474570671"><ele>94.0</ele><time>2026-04-06T16:51:28Z</time></trkpt><trkpt lat="40.735189976162395" lon="8.477638443708269"><ele>94.0</ele><time>2026-04-06T16:51:29Z</time></trkpt><trkpt lat="40.73528087630973" lon="8.477934471257996"><ele>94.5</ele><time>2026-04-06T16:51:30Z</time></trkpt><trkpt lat="40.73537168149647" lon="8.478230081300897"><ele>95.0</ele><time>2026-04-06T16:51:31Z</time></trkpt><trkpt lat="40.73545839443981" lon="8.478516493904545"><ele>96.0</ele><time>2026-04-06T16:51:32Z</time></trkpt><trkpt lat="40.73554767602999" lon="8.47880854270671"><ele>97.0</ele><time>2026-04-06T16:51:33Z</time></trkpt><trkpt lat="40.73563344265866" lon="8.479095735769006"><ele>97.0</ele><time>2026-04-06T16:51:34Z</time></trkpt><trkpt lat="40.73571838588002" lon="8.479378569452955"><ele>97.0</ele><time>2026-04-06T16:51:35Z</time></trkpt><trkpt lat="40.73579486821549" lon="8.479641070087837"><ele>97.0</ele><time>2026-04-06T16:51:36Z</time></trkpt><trkpt lat="40.73592099257377" lon="8.480112063911912"><ele>97.66666666666667</ele><time>2026-04-06T16:51:38Z</time></trkpt><trkpt lat="40.73597606773754" lon="8.480326484412936"><ele>98.33333333333334</ele><time>2026-04-06T16:51:39Z</time></trkpt><trkpt lat="40.736031205223114" lon="8.480526358229591"><ele>99.0</ele><time>2026-04-06T16:51:40Z</time></trkpt><trkpt lat="40.73608505798274" lon="8.480716460445183"><ele>100.0</ele><time>2026-04-06T16:51:41Z</time></trkpt><trkpt lat="40.73612741416298" lon="8.480915311015952"><ele>101.0</ele><time>2026-04-06T16:51:42Z</time></trkpt><trkpt lat="40.736141492406205" lon="8.481135577445128"><ele>102.0</ele><time>2026-04-06T16:51:43Z</time></trkpt><trkpt lat="40.7361208975606" lon="8.481350908814388"><ele>102.33333333333334</ele><time>2026-04-06T16:51:44Z</time></trkpt><trkpt lat="40.73607467515448" lon="8.481579542621882"><ele>102.66666666666667</ele><time>2026-04-06T16:51:45Z</time></trkpt><trkpt lat="40.73599920439846" lon="8.481816288549346"><ele>103.0</ele><time>2026-04-06T16:51:46Z</time></trkpt><trkpt lat="40.735920273095466" lon="8.482062488164583"><ele>104.0</ele><time>2026-04-06T16:51:47Z</time></trkpt><trkpt lat="40.73583751054672" lon="8.4823200156441"><ele>105.0</ele><time>2026-04-06T16:51:48Z</time></trkpt><trkpt lat="40.73576018660739" lon="8.482564405193825"><ele>106.0</ele><time>2026-04-06T16:51:49Z</time></trkpt><trkpt lat="40.73569011158875" lon="8.482790600863412"><ele>107.0</ele><time>2026-04-06T16:51:50Z</time></trkpt><trkpt lat="40.735619458738945" lon="8.483009255065058"><ele>108.0</ele><time>2026-04-06T16:51:51Z</time></trkpt><trkpt lat="40.7355496277911" lon="8.48321531835075"><ele>109.0</ele><time>2026-04-06T16:51:52Z</time></trkpt><trkpt lat="40.73547429856634" lon="8.48341026587278"><ele>109.0</ele><time>2026-04-06T16:51:53Z</time></trkpt><trkpt lat="40.73538232721995" lon="8.483570242263395"><ele>109.0</ele><time>2026-04-06T16:51:54Z</time></trkpt><trkpt lat="40.735270720783674" lon="8.483715626648733"><ele>109.0</ele><time>2026-04-06T16:51:55Z</time></trkpt><trkpt lat="40.73514506390296" lon="8.483809477363808"><ele>111.0</ele><time>2026-04-06T16:51:56Z</time></trkpt><trkpt lat="40.73500897219731" lon="8.483888429747935"><ele>113.0</ele><time>2026-04-06T16:51:57Z</time></trkpt><trkpt lat="40.73485304724887" lon="8.483946431372948"><ele>115.0</ele><time>2026-04-06T16:51:58Z</time></trkpt><trkpt lat="40.73468110903866" lon="8.483993677479395"><ele>115.0</ele><time>2026-04-06T16:51:59Z</time></trkpt><trkpt lat="40.734494298216184" lon="8.484053995238742"><ele>115.0</ele><time>2026-04-06T16:52:00Z</time></trkpt><trkpt lat="40.73429774733241" lon="8.48412467027722"><ele>115.0</ele><time>2026-04-06T16:52:01Z</time></trkpt><trkpt lat="40.734088812565034" lon="8.484195734034772"><ele>116.5</ele><time>2026-04-06T16:52:02Z</time></trkpt><trkpt lat="40.73386453373629" lon="8.484265138663806"><ele>118.0</ele><time>2026-04-06T16:52:03Z</time></trkpt><trkpt lat="40.73363556311795" lon="8.484333538846935"><ele>118.33333333333334</ele><time>2026-04-06T16:52:04Z</time></trkpt><trkpt lat="40.73341543585091" lon="8.48439827380635"><ele>118.66666666666666</ele><time>2026-04-06T16:52:05Z</time></trkpt><trkpt lat="40.7332020394805" lon="8.484456569074107"><ele>119.0</ele><time>2026-04-06T16:52:06Z</time></trkpt><trkpt lat="40.73298437207005" lon="8.48451019643645"><ele>119.0</ele><time>2026-04-06T16:52:07Z</time></trkpt><trkpt lat="40.732765097989684" lon="8.484567977875923"><ele>119.0</ele><time>2026-04-06T16:52:08Z</time></trkpt><trkpt lat="40.73253592990731" lon="8.484631136680132"><ele>123.5</ele><time>2026-04-06T16:52:09Z</time></trkpt><trkpt lat="40.732307180013166" lon="8.484695046742244"><ele>128.0</ele><time>2026-04-06T16:52:10Z</time></trkpt><trkpt lat="40.732073644200966" lon="8.484758119559157"><ele>128.5</ele><time>2026-04-06T16:52:11Z</time></trkpt><trkpt lat="40.731837097977795" lon="8.484820318488174"><ele>129.0</ele><time>2026-04-06T16:52:12Z</time></trkpt><trkpt lat="40.7315948194838" lon="8.484882220817184"><ele>129.0</ele><time>2026-04-06T16:52:13Z</time></trkpt><trkpt lat="40.73135362162908" lon="8.48494548332526"><ele>129.0</ele><time>2026-04-06T16:52:14Z</time></trkpt><trkpt lat="40.73110959531958" lon="8.485010621220214"><ele>127.0</ele><time>2026-04-06T16:52:15Z</time></trkpt><trkpt lat="40.73086612934695" lon="8.48507736670343"><ele>125.0</ele><time>2026-04-06T16:52:16Z</time></trkpt><trkpt lat="40.73062451553543" lon="8.485140937806928"><ele>125.0</ele><time>2026-04-06T16:52:17Z</time></trkpt><trkpt lat="40.73038474427158" lon="8.485200751092565"><ele>125.0</ele><time>2026-04-06T16:52:18Z</time></trkpt><trkpt lat="40.730142393980685" lon="8.485260077427615"><ele>128.0</ele><time>2026-04-06T16:52:19Z</time></trkpt><trkpt lat="40.729905621221505" lon="8.485320687727567"><ele>131.0</ele><time>2026-04-06T16:52:20Z</time></trkpt><trkpt lat="40.72966846584649" lon="8.485380851923367"><ele>132.5</ele><time>2026-04-06T16:52:21Z</time></trkpt><trkpt lat="40.729434711835104" lon="8.485441006341881"><ele>134.0</ele><time>2026-04-06T16:52:22Z</time></trkpt><trkpt lat="40.729199059315384" lon="8.485503863069198"><ele>138.0</ele><time>2026-04-06T16:52:23Z</time></trkpt><trkpt lat="40.72896538387789" lon="8.485565420141436"><ele>142.0</ele><time>2026-04-06T16:52:24Z</time></trkpt><trkpt lat="40.72873116329279" lon="8.485626881252173"><ele>143.5</ele><time>2026-04-06T16:52:25Z</time></trkpt><trkpt lat="40.728493296721794" lon="8.485687949588549"><ele>145.0</ele><time>2026-04-06T16:52:26Z</time></trkpt><trkpt lat="40.72825706850755" lon="8.4857469772015"><ele>145.0</ele><time>2026-04-06T16:52:27Z</time></trkpt><trkpt lat="40.72801844313753" lon="8.48580992389877"><ele>145.0</ele><time>2026-04-06T16:52:28Z</time></trkpt><trkpt lat="40.72778095624543" lon="8.485872336804544"><ele>146.0</ele><time>2026-04-06T16:52:29Z</time></trkpt><trkpt lat="40.727542775145594" lon="8.485933286525858"><ele>147.0</ele><time>2026-04-06T16:52:30Z</time></trkpt><trkpt lat="40.72729802677648" lon="8.485996249791118"><ele>147.0</ele><time>2026-04-06T16:52:31Z</time></trkpt><trkpt lat="40.72705309598333" lon="8.486060523100846"><ele>147.0</ele><time>2026-04-06T16:52:32Z</time></trkpt><trkpt lat="40.726808276709846" lon="8.486124256642176"><ele>145.5</ele><time>2026-04-06T16:52:33Z</time></trkpt><trkpt lat="40.72656233742252" lon="8.486187117913712"><ele>144.0</ele><time>2026-04-06T16:52:34Z</time></trkpt><trkpt lat="40.72631875517679" lon="8.486249026202458"><ele>146.0</ele><time>2026-04-06T16:52:35Z</time></trkpt><trkpt lat="40.72607406890046" lon="8.486311477899621"><ele>148.0</ele><time>2026-04-06T16:52:36Z</time></trkpt><trkpt lat="40.72582944750195" lon="8.486374372107292"><ele>150.0</ele><time>2026-04-06T16:52:37Z</time></trkpt><trkpt lat="40.72558575105673" lon="8.486440877093713"><ele>152.0</ele><time>2026-04-06T16:52:38Z</time></trkpt><trkpt lat="40.72534009793172" lon="8.48651363813462"><ele>154.5</ele><time>2026-04-06T16:52:39Z</time></trkpt><trkpt lat="40.725109602783405" lon="8.486588949467713"><ele>157.0</ele><time>2026-04-06T16:52:40Z</time></trkpt><trkpt lat="40.724869932015686" lon="8.48666055767034"><ele>157.0</ele><time>2026-04-06T16:52:41Z</time></trkpt><trkpt lat="40.724631867070954" lon="8.486728884439998"><ele>157.0</ele><time>2026-04-06T16:52:42Z</time></trkpt><trkpt lat="40.724398874742754" lon="8.486799388357749"><ele>159.0</ele><time>2026-04-06T16:52:43Z</time></trkpt><trkpt lat="40.72416751712742" lon="8.486875001176154"><ele>161.0</ele><time>2026-04-06T16:52:44Z</time></trkpt><trkpt lat="40.723937358950295" lon="8.486954157731947"><ele>161.0</ele><time>2026-04-06T16:52:45Z</time></trkpt><trkpt lat="40.723706472122906" lon="8.487039207320421"><ele>161.0</ele><time>2026-04-06T16:52:46Z</time></trkpt><trkpt lat="40.72347533577218" lon="8.48712703166824"><ele>164.5</ele><time>2026-04-06T16:52:47Z</time></trkpt><trkpt lat="40.723243827056926" lon="8.487224826625066"><ele>168.0</ele><time>2026-04-06T16:52:48Z</time></trkpt><trkpt lat="40.72301134248655" lon="8.487325157224477"><ele>168.0</ele><time>2026-04-06T16:52:49Z</time></trkpt><trkpt lat="40.7227807462079" lon="8.487431055411651"><ele>168.0</ele><time>2026-04-06T16:52:50Z</time></trkpt><trkpt lat="40.72255373274657" lon="8.487547986582515"><ele>169.5</ele><time>2026-04-06T16:52:51Z</time></trkpt><trkpt lat="40.72232590826043" lon="8.487669472476874"><ele>171.0</ele><time>2026-04-06T16:52:52Z</time></trkpt><trkpt lat="40.72210056671992" lon="8.487796041842318"><ele>174.0</ele><time>2026-04-06T16:52:53Z</time></trkpt><trkpt lat="40.721878011926705" lon="8.48792712564241"><ele>177.0</ele><time>2026-04-06T16:52:54Z</time></trkpt><trkpt lat="40.72165610766753" lon="8.48806898025221"><ele>177.0</ele><time>2026-04-06T16:52:55Z</time></trkpt><trkpt lat="40.721439872501264" lon="8.488218345031243"><ele>177.0</ele><time>2026-04-06T16:52:56Z</time></trkpt><trkpt lat="40.721225093431826" lon="8.488374543452117"><ele>178.0</ele><time>2026-04-06T16:52:57Z</time></trkpt><trkpt lat="40.7210130349725" lon="8.488536899880392"><ele>179.0</ele><time>2026-04-06T16:52:58Z</time></trkpt><trkpt lat="40.72080225367052" lon="8.488707677957402"><ele>180.5</ele><time>2026-04-06T16:52:59Z</time></trkpt><trkpt lat="40.72059407524816" lon="8.488881239492974"><ele>182.0</ele><time>2026-04-06T16:53:00Z</time></trkpt><trkpt lat="40.72038399897937" lon="8.489062003173041"><ele>184.0</ele><time>2026-04-06T16:53:01Z</time></trkpt><trkpt lat="40.72017317710588" lon="8.489256539613026"><ele>186.0</ele><time>2026-04-06T16:53:02Z</time></trkpt><trkpt lat="40.71996181945508" lon="8.48946160489369"><ele>187.5</ele><time>2026-04-06T16:53:03Z</time></trkpt><trkpt lat="40.719749710395384" lon="8.489675090103226"><ele>189.0</ele><time>2026-04-06T16:53:04Z</time></trkpt><trkpt lat="40.71953874824329" lon="8.489890179174928"><ele>190.5</ele><time>2026-04-06T16:53:05Z</time></trkpt><trkpt lat="40.719331414811876" lon="8.49010859350247"><ele>192.0</ele><time>2026-04-06T16:53:06Z</time></trkpt><trkpt lat="40.71913498428684" lon="8.49033034857835"><ele>192.5</ele><time>2026-04-06T16:53:07Z</time></trkpt><trkpt lat="40.71894245137902" lon="8.49056980052193"><ele>193.0</ele><time>2026-04-06T16:53:08Z</time></trkpt><trkpt lat="40.71875654155278" lon="8.49081723280369"><ele>193.0</ele><time>2026-04-06T16:53:09Z</time></trkpt><trkpt lat="40.71857725042027" lon="8.491069920620093"><ele>193.0</ele><time>2026-04-06T16:53:10Z</time></trkpt><trkpt lat="40.718401725418495" lon="8.491326258875022"><ele>194.0</ele><time>2026-04-06T16:53:11Z</time></trkpt><trkpt lat="40.71823027983883" lon="8.49159412531244"><ele>195.0</ele><time>2026-04-06T16:53:12Z</time></trkpt><trkpt lat="40.71806819266639" lon="8.491857060390412"><ele>195.5</ele><time>2026-04-06T16:53:13Z</time></trkpt><trkpt lat="40.71790894566146" lon="8.492124658606011"><ele>196.0</ele><time>2026-04-06T16:53:14Z</time></trkpt><trkpt lat="40.717757216339926" lon="8.492399125262365"><ele>196.0</ele><time>2026-04-06T16:53:15Z</time></trkpt><trkpt lat="40.71760855737838" lon="8.492678807462214"><ele>196.0</ele><time>2026-04-06T16:53:16Z</time></trkpt><trkpt lat="40.7174648909896" lon="8.49296194432014"><ele>196.0</ele><time>2026-04-06T16:53:17Z</time></trkpt><trkpt lat="40.717322645131624" lon="8.493244855787335"><ele>196.0</ele><time>2026-04-06T16:53:18Z</time></trkpt><trkpt lat="40.71717667089451" lon="8.493527280678371"><ele>196.5</ele><time>2026-04-06T16:53:19Z</time></trkpt><trkpt lat="40.71703293081839" lon="8.493805321303167"><ele>197.0</ele><time>2026-04-06T16:53:20Z</time></trkpt><trkpt lat="40.71688451730188" lon="8.494085255958323"><ele>195.0</ele><time>2026-04-06T16:53:21Z</time></trkpt><trkpt lat="40.71673864480339" lon="8.494367109334204"><ele>193.0</ele><time>2026-04-06T16:53:22Z</time></trkpt><trkpt lat="40.71659818977066" lon="8.49464602316865"><ele>193.0</ele><time>2026-04-06T16:53:23Z</time></trkpt><trkpt lat="40.71646281722753" lon="8.494929664661633"><ele>193.0</ele><time>2026-04-06T16:53:24Z</time></trkpt><trkpt lat="40.71633176470996" lon="8.495205426106674"><ele>197.0</ele><time>2026-04-06T16:53:25Z</time></trkpt><trkpt lat="40.716204773545535" lon="8.495475734550583"><ele>201.0</ele><time>2026-04-06T16:53:26Z</time></trkpt><trkpt lat="40.71607820624592" lon="8.495740158264834"><ele>194.5</ele><time>2026-04-06T16:53:27Z</time></trkpt><trkpt lat="40.71594736533137" lon="8.496009229570552"><ele>188.0</ele><time>2026-04-06T16:53:28Z</time></trkpt><trkpt lat="40.71581938433997" lon="8.496271418783541"><ele>188.0</ele><time>2026-04-06T16:53:29Z</time></trkpt><trkpt lat="40.71569208518718" lon="8.496536886471239"><ele>188.0</ele><time>2026-04-06T16:53:30Z</time></trkpt><trkpt lat="40.7155625786271" lon="8.496804987933793"><ele>188.0</ele><time>2026-04-06T16:53:31Z</time></trkpt><trkpt lat="40.71543448983973" lon="8.497073290234084"><ele>188.0</ele><time>2026-04-06T16:53:32Z</time></trkpt><trkpt lat="40.71530484025923" lon="8.497343709045039"><ele>185.5</ele><time>2026-04-06T16:53:33Z</time></trkpt><trkpt lat="40.715174501818694" lon="8.497614928947533"><ele>183.0</ele><time>2026-04-06T16:53:34Z</time></trkpt><trkpt lat="40.71504416489087" lon="8.497888258082881"><ele>185.5</ele><time>2026-04-06T16:53:35Z</time></trkpt><trkpt lat="40.714916606097106" lon="8.49816285479496"><ele>188.0</ele><time>2026-04-06T16:53:36Z</time></trkpt><trkpt lat="40.714785242455825" lon="8.49844000127935"><ele>188.0</ele><time>2026-04-06T16:53:37Z</time></trkpt><trkpt lat="40.71465559585431" lon="8.498718222222772"><ele>188.0</ele><time>2026-04-06T16:53:38Z</time></trkpt><trkpt lat="40.714524219175296" lon="8.498998338137435"><ele>188.0</ele><time>2026-04-06T16:53:39Z</time></trkpt><trkpt lat="40.71439735373897" lon="8.499279346522478"><ele>188.0</ele><time>2026-04-06T16:53:40Z</time></trkpt><trkpt lat="40.71427301829089" lon="8.499565224361321"><ele>188.0</ele><time>2026-04-06T16:53:41Z</time></trkpt><trkpt lat="40.714151054742814" lon="8.499852331912342"><ele>188.0</ele><time>2026-04-06T16:53:42Z</time></trkpt><trkpt lat="40.71403331588688" lon="8.500139100026107"><ele>188.5</ele><time>2026-04-06T16:53:43Z</time></trkpt><trkpt lat="40.71391886893328" lon="8.500429534002098"><ele>189.0</ele><time>2026-04-06T16:53:44Z</time></trkpt><trkpt lat="40.71380594689267" lon="8.500721636854683"><ele>189.0</ele><time>2026-04-06T16:53:45Z</time></trkpt><trkpt lat="40.713698836014316" lon="8.501017283201312"><ele>189.0</ele><time>2026-04-06T16:53:46Z</time></trkpt><trkpt lat="40.71359855250464" lon="8.50131475548971"><ele>184.5</ele><time>2026-04-06T16:53:47Z</time></trkpt><trkpt lat="40.71350533404348" lon="8.501616059820723"><ele>180.0</ele><time>2026-04-06T16:53:48Z</time></trkpt><trkpt lat="40.713412205027794" lon="8.501920961218694"><ele>179.0</ele><time>2026-04-06T16:53:49Z</time></trkpt><trkpt lat="40.71332664768297" lon="8.502223640917709"><ele>178.0</ele><time>2026-04-06T16:53:50Z</time></trkpt><trkpt lat="40.71324768246878" lon="8.502532254169639"><ele>178.0</ele><time>2026-04-06T16:53:51Z</time></trkpt><trkpt lat="40.71317287843056" lon="8.50284370595246"><ele>178.0</ele><time>2026-04-06T16:53:52Z</time></trkpt><trkpt lat="40.713103849075594" lon="8.503155640086964"><ele>176.0</ele><time>2026-04-06T16:53:53Z</time></trkpt><trkpt lat="40.713040170063536" lon="8.503470230243748"><ele>174.0</ele><time>2026-04-06T16:53:54Z</time></trkpt><trkpt lat="40.712982745286524" lon="8.5037892136023"><ele>171.0</ele><time>2026-04-06T16:53:55Z</time></trkpt><trkpt lat="40.71292904784126" lon="8.504107734855182"><ele>168.0</ele><time>2026-04-06T16:53:56Z</time></trkpt><trkpt lat="40.71288009265271" lon="8.504420005920284"><ele>165.5</ele><time>2026-04-06T16:53:57Z</time></trkpt><trkpt lat="40.71283874433909" lon="8.504724941918601"><ele>163.0</ele><time>2026-04-06T16:53:58Z</time></trkpt><trkpt lat="40.71280249946918" lon="8.50502893313403"><ele>163.0</ele><time>2026-04-06T16:53:59Z</time></trkpt><trkpt lat="40.712767020750626" lon="8.505335582195547"><ele>163.0</ele><time>2026-04-06T16:54:00Z</time></trkpt><trkpt lat="40.712735864101056" lon="8.505645401211076"><ele>162.5</ele><time>2026-04-06T16:54:01Z</time></trkpt><trkpt lat="40.7127100211375" lon="8.50595871314079"><ele>162.0</ele><time>2026-04-06T16:54:02Z</time></trkpt><trkpt lat="40.71268998003672" lon="8.506279429347897"><ele>162.0</ele><time>2026-04-06T16:54:03Z</time></trkpt><trkpt lat="40.71267846313889" lon="8.506599862088795"><ele>162.0</ele><time>2026-04-06T16:54:04Z</time></trkpt><trkpt lat="40.712667477586386" lon="8.506919526252489"><ele>164.5</ele><time>2026-04-06T16:54:05Z</time></trkpt><trkpt lat="40.71266441842245" lon="8.507245370887572"><ele>167.0</ele><time>2026-04-06T16:54:06Z</time></trkpt><trkpt lat="40.71266558727693" lon="8.50756741884086"><ele>167.0</ele><time>2026-04-06T16:54:07Z</time></trkpt><trkpt lat="40.71267186539603" lon="8.507892358495438"><ele>167.0</ele><time>2026-04-06T16:54:08Z</time></trkpt><trkpt lat="40.712682489324166" lon="8.508214128888303"><ele>167.0</ele><time>2026-04-06T16:54:09Z</time></trkpt><trkpt lat="40.71269870224215" lon="8.508536461773714"><ele>167.0</ele><time>2026-04-06T16:54:10Z</time></trkpt><trkpt lat="40.71272006213984" lon="8.50886029701832"><ele>163.5</ele><time>2026-04-06T16:54:11Z</time></trkpt><trkpt lat="40.712746228803056" lon="8.509181403501588"><ele>160.0</ele><time>2026-04-06T16:54:12Z</time></trkpt><trkpt lat="40.71277471861456" lon="8.509503858471923"><ele>158.5</ele><time>2026-04-06T16:54:13Z</time></trkpt><trkpt lat="40.712809049370215" lon="8.509824074586506"><ele>157.0</ele><time>2026-04-06T16:54:14Z</time></trkpt><trkpt lat="40.71284828205801" lon="8.51014339659951"><ele>156.5</ele><time>2026-04-06T16:54:15Z</time></trkpt><trkpt lat="40.7128892233425" lon="8.510460612240587"><ele>156.0</ele><time>2026-04-06T16:54:16Z</time></trkpt><trkpt lat="40.712931764973895" lon="8.510771799619805"><ele>156.0</ele><time>2026-04-06T16:54:17Z</time></trkpt><trkpt lat="40.71297905880763" lon="8.511084397480364"><ele>156.0</ele><time>2026-04-06T16:54:18Z</time></trkpt><trkpt lat="40.713028066170345" lon="8.511395758775018"><ele>154.5</ele><time>2026-04-06T16:54:19Z</time></trkpt><trkpt lat="40.71308057048019" lon="8.511709166484145"><ele>153.0</ele><time>2026-04-06T16:54:20Z</time></trkpt><trkpt lat="40.71313285118483" lon="8.51202130575925"><ele>152.0</ele><time>2026-04-06T16:54:21Z</time></trkpt><trkpt lat="40.71318690662158" lon="8.51232647802809"><ele>151.0</ele><time>2026-04-06T16:54:22Z</time></trkpt><trkpt lat="40.71323841047194" lon="8.512637945869379"><ele>150.5</ele><time>2026-04-06T16:54:23Z</time></trkpt><trkpt lat="40.713289864547534" lon="8.512946102286994"><ele>150.0</ele><time>2026-04-06T16:54:24Z</time></trkpt><trkpt lat="40.71333684887143" lon="8.513259450441291"><ele>150.0</ele><time>2026-04-06T16:54:25Z</time></trkpt><trkpt lat="40.7133882598122" lon="8.51355848006623"><ele>150.0</ele><time>2026-04-06T16:54:26Z</time></trkpt><trkpt lat="40.71344108441037" lon="8.513864235465514"><ele>149.5</ele><time>2026-04-06T16:54:27Z</time></trkpt><trkpt lat="40.71349451034347" lon="8.514172183255463"><ele>149.0</ele><time>2026-04-06T16:54:28Z</time></trkpt><trkpt lat="40.71354842701637" lon="8.514481411143809"><ele>144.5</ele><time>2026-04-06T16:54:29Z</time></trkpt><trkpt lat="40.713601387782695" lon="8.514793069989539"><ele>140.0</ele><time>2026-04-06T16:54:30Z</time></trkpt><trkpt lat="40.71365528226592" lon="8.515107971166387"><ele>140.5</ele><time>2026-04-06T16:54:31Z</time></trkpt><trkpt lat="40.71370944404072" lon="8.515421239443128"><ele>141.0</ele><time>2026-04-06T16:54:32Z</time></trkpt><trkpt lat="40.7137650712943" lon="8.515740603960044"><ele>141.0</ele><time>2026-04-06T16:54:33Z</time></trkpt><trkpt lat="40.71381829757088" lon="8.516058953259428"><ele>141.0</ele><time>2026-04-06T16:54:34Z</time></trkpt><trkpt lat="40.71387265599521" lon="8.516380101273578"><ele>141.0</ele><time>2026-04-06T16:54:35Z</time></trkpt><trkpt lat="40.713926391981765" lon="8.516704534152003"><ele>141.0</ele><time>2026-04-06T16:54:36Z</time></trkpt><trkpt lat="40.71397985903125" lon="8.517027912229446"><ele>139.5</ele><time>2026-04-06T16:54:37Z</time></trkpt><trkpt lat="40.71403346522571" lon="8.517355209415491"><ele>138.0</ele><time>2026-04-06T16:54:38Z</time></trkpt><trkpt lat="40.714089073730165" lon="8.517682810248715"><ele>135.5</ele><time>2026-04-06T16:54:39Z</time></trkpt><trkpt lat="40.714144262692294" lon="8.518004841301757"><ele>133.0</ele><time>2026-04-06T16:54:40Z</time></trkpt><trkpt lat="40.714198285078794" lon="8.518329155018012"><ele>133.0</ele><time>2026-04-06T16:54:41Z</time></trkpt><trkpt lat="40.71425342200087" lon="8.518648238079315"><ele>133.0</ele><time>2026-04-06T16:54:42Z</time></trkpt><trkpt lat="40.71430762511839" lon="8.518974129813246"><ele>129.5</ele><time>2026-04-06T16:54:43Z</time></trkpt><trkpt lat="40.714359794215326" lon="8.519287671764575"><ele>126.0</ele><time>2026-04-06T16:54:44Z</time></trkpt><trkpt lat="40.71441069489112" lon="8.519599157101812"><ele>125.5</ele><time>2026-04-06T16:54:45Z</time></trkpt><trkpt lat="40.71446095584286" lon="8.519909547959658"><ele>125.0</ele><time>2026-04-06T16:54:46Z</time></trkpt><trkpt lat="40.714512397443094" lon="8.520210960245509"><ele>123.0</ele><time>2026-04-06T16:54:47Z</time></trkpt><trkpt lat="40.714564421639174" lon="8.520511561849377"><ele>121.0</ele><time>2026-04-06T16:54:48Z</time></trkpt><trkpt lat="40.71461416040207" lon="8.520802584770255"><ele>121.0</ele><time>2026-04-06T16:54:49Z</time></trkpt><trkpt lat="40.71466062215737" lon="8.521091902606752"><ele>121.0</ele><time>2026-04-06T16:54:50Z</time></trkpt><trkpt lat="40.714709186660976" lon="8.52139300428932"><ele>120.0</ele><time>2026-04-06T16:54:51Z</time></trkpt><trkpt lat="40.714762141264316" lon="8.521706981623023"><ele>119.0</ele><time>2026-04-06T16:54:52Z</time></trkpt><trkpt lat="40.71480628773598" lon="8.522017607019986"><ele>118.5</ele><time>2026-04-06T16:54:53Z</time></trkpt><trkpt lat="40.714843630787655" lon="8.522361573379518"><ele>118.0</ele><time>2026-04-06T16:54:54Z</time></trkpt><trkpt lat="40.71486863685014" lon="8.522714444688143"><ele>118.0</ele><time>2026-04-06T16:54:55Z</time></trkpt><trkpt lat="40.71488368159036" lon="8.523072823204231"><ele>118.0</ele><time>2026-04-06T16:54:56Z</time></trkpt><trkpt lat="40.714886510721136" lon="8.523441890779955"><ele>118.5</ele><time>2026-04-06T16:54:57Z</time></trkpt><trkpt lat="40.714879660895846" lon="8.52381341465765"><ele>119.0</ele><time>2026-04-06T16:54:58Z</time></trkpt><trkpt lat="40.71486634263712" lon="8.524183663469325"><ele>119.0</ele><time>2026-04-06T16:54:59Z</time></trkpt><trkpt lat="40.71485461355612" lon="8.524555048247782"><ele>119.0</ele><time>2026-04-06T16:55:00Z</time></trkpt><trkpt lat="40.7148483708178" lon="8.524932380656185"><ele>120.5</ele><time>2026-04-06T16:55:01Z</time></trkpt><trkpt lat="40.714846005600144" lon="8.525298403547753"><ele>122.0</ele><time>2026-04-06T16:55:02Z</time></trkpt><trkpt lat="40.714844469462214" lon="8.525655671967865"><ele>122.0</ele><time>2026-04-06T16:55:03Z</time></trkpt><trkpt lat="40.714843871757665" lon="8.526004517163353"><ele>122.0</ele><time>2026-04-06T16:55:04Z</time></trkpt><trkpt lat="40.71484310863432" lon="8.526347086483504"><ele>119.0</ele><time>2026-04-06T16:55:05Z</time></trkpt><trkpt lat="40.714840311046565" lon="8.526684071334664"><ele>116.0</ele><time>2026-04-06T16:55:06Z</time></trkpt><trkpt lat="40.71483865825298" lon="8.52702310149492"><ele>117.5</ele><time>2026-04-06T16:55:07Z</time></trkpt><trkpt lat="40.71483742650235" lon="8.52735285513867"><ele>119.0</ele><time>2026-04-06T16:55:08Z</time></trkpt><trkpt lat="40.714835156195576" lon="8.527683408391594"><ele>123.0</ele><time>2026-04-06T16:55:09Z</time></trkpt><trkpt lat="40.71483325345414" lon="8.528013034813059"><ele>127.0</ele><time>2026-04-06T16:55:10Z</time></trkpt><trkpt lat="40.71483281316729" lon="8.528348355530108"><ele>127.0</ele><time>2026-04-06T16:55:11Z</time></trkpt><trkpt lat="40.714829404771685" lon="8.528675707155854"><ele>127.0</ele><time>2026-04-06T16:55:12Z</time></trkpt><trkpt lat="40.71482404792839" lon="8.52901304327296"><ele>125.5</ele><time>2026-04-06T16:55:13Z</time></trkpt><trkpt lat="40.71481232084122" lon="8.529346833368837"><ele>124.0</ele><time>2026-04-06T16:55:14Z</time></trkpt><trkpt lat="40.71479200506919" lon="8.52968164248713"><ele>122.0</ele><time>2026-04-06T16:55:15Z</time></trkpt><trkpt lat="40.714758582717415" lon="8.530015408439235"><ele>120.0</ele><time>2026-04-06T16:55:16Z</time></trkpt><trkpt lat="40.714715976841035" lon="8.530349156057003"><ele>124.0</ele><time>2026-04-06T16:55:17Z</time></trkpt><trkpt lat="40.71466923011563" lon="8.530688271658958"><ele>128.0</ele><time>2026-04-06T16:55:18Z</time></trkpt><trkpt lat="40.714617828595806" lon="8.531017576473577"><ele>129.5</ele><time>2026-04-06T16:55:19Z</time></trkpt><trkpt lat="40.7145572524001" lon="8.531354275714401"><ele>131.0</ele><time>2026-04-06T16:55:20Z</time></trkpt><trkpt lat="40.71448882611118" lon="8.531687684970338"><ele>131.0</ele><time>2026-04-06T16:55:21Z</time></trkpt><trkpt lat="40.71441505030509" lon="8.5320262386536"><ele>131.0</ele><time>2026-04-06T16:55:22Z</time></trkpt><trkpt lat="40.714332989813606" lon="8.532362731179665"><ele>137.0</ele><time>2026-04-06T16:55:23Z</time></trkpt><trkpt lat="40.7142514841945" lon="8.532695331913509"><ele>143.0</ele><time>2026-04-06T16:55:24Z</time></trkpt><trkpt lat="40.71416697662965" lon="8.533032313890274"><ele>144.0</ele><time>2026-04-06T16:55:25Z</time></trkpt><trkpt lat="40.71408630990495" lon="8.533367209325144"><ele>145.0</ele><time>2026-04-06T16:55:26Z</time></trkpt><trkpt lat="40.7140049137003" lon="8.533712310236842"><ele>147.5</ele><time>2026-04-06T16:55:27Z</time></trkpt><trkpt lat="40.713920989653936" lon="8.534054293722164"><ele>150.0</ele><time>2026-04-06T16:55:28Z</time></trkpt><trkpt lat="40.71383602094916" lon="8.53440007322087"><ele>152.0</ele><time>2026-04-06T16:55:29Z</time></trkpt><trkpt lat="40.71374945925651" lon="8.534747509945761"><ele>154.0</ele><time>2026-04-06T16:55:30Z</time></trkpt><trkpt lat="40.713664255604776" lon="8.535094596248733"><ele>157.5</ele><time>2026-04-06T16:55:31Z</time></trkpt><trkpt lat="40.71357853489521" lon="8.535443277066369"><ele>161.0</ele><time>2026-04-06T16:55:32Z</time></trkpt><trkpt lat="40.71349672890656" lon="8.53579245917287"><ele>162.5</ele><time>2026-04-06T16:55:33Z</time></trkpt><trkpt lat="40.713416168501126" lon="8.536146794362079"><ele>164.0</ele><time>2026-04-06T16:55:34Z</time></trkpt><trkpt lat="40.71333673428533" lon="8.536501401218144"><ele>166.0</ele><time>2026-04-06T16:55:35Z</time></trkpt><trkpt lat="40.71325997150586" lon="8.536851487613458"><ele>168.0</ele><time>2026-04-06T16:55:36Z</time></trkpt><trkpt lat="40.7131775615642" lon="8.537216692879758"><ele>168.0</ele><time>2026-04-06T16:55:37Z</time></trkpt><trkpt lat="40.71309043492247" lon="8.537593650200876"><ele>168.0</ele><time>2026-04-06T16:55:38.08Z</time></trkpt><trkpt lat="40.71302330542755" lon="8.53792225874523"><ele>168.0</ele><time>2026-04-06T16:55:39.074Z</time></trkpt><trkpt lat="40.71296532949274" lon="8.53819684983322"><ele>168.0</ele><time>2026-04-06T16:55:40.074Z</time></trkpt><trkpt lat="40.712937973451936" lon="8.53846145318713"><ele>168.0</ele><time>2026-04-06T16:55:41Z</time></trkpt><trkpt lat="40.71281081917194" lon="8.538697447641415"><ele>164.5</ele><time>2026-04-06T16:55:42Z</time></trkpt><trkpt lat="40.71270248243919" lon="8.538973173599349"><ele>161.0</ele><time>2026-04-06T16:55:43Z</time></trkpt><trkpt lat="40.71263428905063" lon="8.539251952223559"><ele>161.0</ele><time>2026-04-06T16:55:44Z</time></trkpt><trkpt lat="40.712566289098255" lon="8.539531004210733"><ele>161.0</ele><time>2026-04-06T16:55:45Z</time></trkpt><trkpt lat="40.712503315476035" lon="8.539813180764805"><ele>161.0</ele><time>2026-04-06T16:55:46Z</time></trkpt><trkpt lat="40.712434772176145" lon="8.540099363258582"><ele>161.33333333333331</ele><time>2026-04-06T16:55:47Z</time></trkpt><trkpt lat="40.71236734759601" lon="8.540376709659975"><ele>161.66666666666666</ele><time>2026-04-06T16:55:48Z</time></trkpt><trkpt lat="40.712298452484525" lon="8.540654846772266"><ele>162.0</ele><time>2026-04-06T16:55:49Z</time></trkpt><trkpt lat="40.71222778324506" lon="8.540933055183244"><ele>162.5</ele><time>2026-04-06T16:55:50Z</time></trkpt><trkpt lat="40.71215842586008" lon="8.54121816645932"><ele>163.0</ele><time>2026-04-06T16:55:51Z</time></trkpt><trkpt lat="40.712088210130304" lon="8.541499517800222"><ele>163.0</ele><time>2026-04-06T16:55:52Z</time></trkpt><trkpt lat="40.71201421931684" lon="8.541779580924516"><ele>163.0</ele><time>2026-04-06T16:55:53Z</time></trkpt><trkpt lat="40.71193547125832" lon="8.542059787128755"><ele>164.5</ele><time>2026-04-06T16:55:54Z</time></trkpt><trkpt lat="40.711855480080615" lon="8.542344862327553"><ele>166.0</ele><time>2026-04-06T16:55:55Z</time></trkpt><trkpt lat="40.711771819239544" lon="8.542625462754929"><ele>167.0</ele><time>2026-04-06T16:55:56Z</time></trkpt><trkpt lat="40.71168365866896" lon="8.542911329279804"><ele>168.0</ele><time>2026-04-06T16:55:57Z</time></trkpt><trkpt lat="40.71159061110508" lon="8.543196994052579"><ele>168.0</ele><time>2026-04-06T16:55:58Z</time></trkpt><trkpt lat="40.7114921406072" lon="8.543477629108024"><ele>168.0</ele><time>2026-04-06T16:55:59Z</time></trkpt><trkpt lat="40.7113863014129" lon="8.543759886638295"><ele>168.5</ele><time>2026-04-06T16:56:00Z</time></trkpt><trkpt lat="40.711275246265245" lon="8.544031548086105"><ele>169.0</ele><time>2026-04-06T16:56:01Z</time></trkpt><trkpt lat="40.71115890083338" lon="8.544303004239802"><ele>170.5</ele><time>2026-04-06T16:56:02Z</time></trkpt><trkpt lat="40.71103404897823" lon="8.544569542554614"><ele>172.0</ele><time>2026-04-06T16:56:03Z</time></trkpt><trkpt lat="40.71090613587983" lon="8.544831683316115"><ele>172.0</ele><time>2026-04-06T16:56:04Z</time></trkpt><trkpt lat="40.7107721784493" lon="8.545086459005622"><ele>172.0</ele><time>2026-04-06T16:56:05Z</time></trkpt><trkpt lat="40.7106339812939" lon="8.545341230459327"><ele>175.5</ele><time>2026-04-06T16:56:06Z</time></trkpt><trkpt lat="40.71049083067393" lon="8.545591335006025"><ele>179.0</ele><time>2026-04-06T16:56:07Z</time></trkpt><trkpt lat="40.71034468657198" lon="8.5458354632408"><ele>180.0</ele><time>2026-04-06T16:56:08Z</time></trkpt><trkpt lat="40.71019574612735" lon="8.546072544659456"><ele>181.0</ele><time>2026-04-06T16:56:09Z</time></trkpt><trkpt lat="40.71004608166402" lon="8.54629906837965"><ele>181.0</ele><time>2026-04-06T16:56:10Z</time></trkpt><trkpt lat="40.709895167845836" lon="8.546518197596981"><ele>181.0</ele><time>2026-04-06T16:56:11Z</time></trkpt><trkpt lat="40.70973756832786" lon="8.546736670237538"><ele>181.0</ele><time>2026-04-06T16:56:12Z</time></trkpt><trkpt lat="40.70957476453134" lon="8.54694087987309"><ele>181.0</ele><time>2026-04-06T16:56:13Z</time></trkpt><trkpt lat="40.70940842167105" lon="8.547139262405027"><ele>181.0</ele><time>2026-04-06T16:56:14Z</time></trkpt><trkpt lat="40.709239697931814" lon="8.547331589170772"><ele>180.33333333333334</ele><time>2026-04-06T16:56:15Z</time></trkpt><trkpt lat="40.709069468031785" lon="8.547516060574367"><ele>179.66666666666666</ele><time>2026-04-06T16:56:16Z</time></trkpt><trkpt lat="40.708897837604454" lon="8.547695177500115"><ele>179.0</ele><time>2026-04-06T16:56:17Z</time></trkpt><trkpt lat="40.708723072712004" lon="8.54786881251718"><ele>180.33333333333331</ele><time>2026-04-06T16:56:18Z</time></trkpt><trkpt lat="40.70855389624852" lon="8.548040187673056"><ele>181.66666666666666</ele><time>2026-04-06T16:56:19Z</time></trkpt><trkpt lat="40.70839071611095" lon="8.548218324123315"><ele>183.0</ele><time>2026-04-06T16:56:20Z</time></trkpt><trkpt lat="40.708215435701696" lon="8.548408815593692"><ele>183.0</ele><time>2026-04-06T16:56:21Z</time></trkpt><trkpt lat="40.70802353151809" lon="8.548616066215923"><ele>183.0</ele><time>2026-04-06T16:56:22Z</time></trkpt><trkpt lat="40.70782030743288" lon="8.548827573241999"><ele>188.0</ele><time>2026-04-06T16:56:23Z</time></trkpt><trkpt lat="40.707603131919065" lon="8.549038474377845"><ele>193.0</ele><time>2026-04-06T16:56:24Z</time></trkpt><trkpt lat="40.70739332006122" lon="8.549234026079048"><ele>193.0</ele><time>2026-04-06T16:56:25Z</time></trkpt><trkpt lat="40.70718883414128" lon="8.549424960470247"><ele>193.0</ele><time>2026-04-06T16:56:26Z</time></trkpt><trkpt lat="40.706988274851014" lon="8.549621118743168"><ele>193.5</ele><time>2026-04-06T16:56:27Z</time></trkpt><trkpt lat="40.70679246749448" lon="8.549821333705879"><ele>194.0</ele><time>2026-04-06T16:56:28Z</time></trkpt><trkpt lat="40.70659056678699" lon="8.550022779069387"><ele>194.0</ele><time>2026-04-06T16:56:29Z</time></trkpt><trkpt lat="40.706392829147305" lon="8.55021952541033"><ele>194.0</ele><time>2026-04-06T16:56:30Z</time></trkpt><trkpt lat="40.706202481057545" lon="8.550409247202179"><ele>193.0</ele><time>2026-04-06T16:56:31Z</time></trkpt><trkpt lat="40.70601603655565" lon="8.550599926250186"><ele>192.0</ele><time>2026-04-06T16:56:32Z</time></trkpt><trkpt lat="40.70583264011756" lon="8.550783341830794"><ele>192.0</ele><time>2026-04-06T16:56:33Z</time></trkpt><trkpt lat="40.70565165146558" lon="8.550969452175671"><ele>192.0</ele><time>2026-04-06T16:56:34Z</time></trkpt><trkpt lat="40.705468432371426" lon="8.551157944134285"><ele>192.0</ele><time>2026-04-06T16:56:35Z</time></trkpt><trkpt lat="40.70528417015214" lon="8.551351748981412"><ele>192.0</ele><time>2026-04-06T16:56:36Z</time></trkpt><trkpt lat="40.70509821764864" lon="8.551545101265262"><ele>192.0</ele><time>2026-04-06T16:56:37Z</time></trkpt><trkpt lat="40.704910024688324" lon="8.551734375811009"><ele>192.0</ele><time>2026-04-06T16:56:38Z</time></trkpt><trkpt lat="40.70471852603404" lon="8.551923270739694"><ele>192.5</ele><time>2026-04-06T16:56:39Z</time></trkpt><trkpt lat="40.704526055139105" lon="8.552112665134395"><ele>193.0</ele><time>2026-04-06T16:56:40Z</time></trkpt><trkpt lat="40.70433138216029" lon="8.552305349567344"><ele>193.0</ele><time>2026-04-06T16:56:41Z</time></trkpt><trkpt lat="40.70414009462051" lon="8.552509873562569"><ele>193.0</ele><time>2026-04-06T16:56:42Z</time></trkpt><trkpt lat="40.703951464897436" lon="8.552708049638909"><ele>193.5</ele><time>2026-04-06T16:56:43Z</time></trkpt><trkpt lat="40.70376663466014" lon="8.552928111605565"><ele>194.0</ele><time>2026-04-06T16:56:44Z</time></trkpt><trkpt lat="40.70358986582223" lon="8.553147568248917"><ele>192.5</ele><time>2026-04-06T16:56:45Z</time></trkpt><trkpt lat="40.70341101636489" lon="8.553377758768171"><ele>191.0</ele><time>2026-04-06T16:56:46Z</time></trkpt><trkpt lat="40.70324130594871" lon="8.55361810116219"><ele>193.0</ele><time>2026-04-06T16:56:47Z</time></trkpt><trkpt lat="40.70307305833386" lon="8.553863602323165"><ele>195.0</ele><time>2026-04-06T16:56:48Z</time></trkpt><trkpt lat="40.70290708538198" lon="8.554116159683673"><ele>194.0</ele><time>2026-04-06T16:56:49Z</time></trkpt><trkpt lat="40.70273998416209" lon="8.55436854613376"><ele>193.0</ele><time>2026-04-06T16:56:50Z</time></trkpt><trkpt lat="40.702576894322455" lon="8.554621366931675"><ele>193.0</ele><time>2026-04-06T16:56:51Z</time></trkpt><trkpt lat="40.70241754893944" lon="8.554879126781513"><ele>193.0</ele><time>2026-04-06T16:56:52Z</time></trkpt><trkpt lat="40.70226323452805" lon="8.555137425343757"><ele>193.5</ele><time>2026-04-06T16:56:53Z</time></trkpt><trkpt lat="40.702111491017796" lon="8.555400441721071"><ele>194.0</ele><time>2026-04-06T16:56:54Z</time></trkpt><trkpt lat="40.70196018067101" lon="8.555663311845162"><ele>183.0</ele><time>2026-04-06T16:56:55Z</time></trkpt><trkpt lat="40.701807116767775" lon="8.555919128489464"><ele>172.0</ele><time>2026-04-06T16:56:56Z</time></trkpt><trkpt lat="40.701653274489075" lon="8.556168584319717"><ele>168.5</ele><time>2026-04-06T16:56:57Z</time></trkpt><trkpt lat="40.70149383061699" lon="8.556415835933185"><ele>165.0</ele><time>2026-04-06T16:56:58Z</time></trkpt><trkpt lat="40.701340823276" lon="8.556660587673223"><ele>165.0</ele><time>2026-04-06T16:56:59Z</time></trkpt><trkpt lat="40.70119425394611" lon="8.556903903033895"><ele>165.0</ele><time>2026-04-06T16:57:00Z</time></trkpt><trkpt lat="40.701047953548496" lon="8.557152351244946"><ele>168.0</ele><time>2026-04-06T16:57:01Z</time></trkpt><trkpt lat="40.70090355366137" lon="8.557400217723693"><ele>171.0</ele><time>2026-04-06T16:57:02Z</time></trkpt><trkpt lat="40.70075926347954" lon="8.557646656801406"><ele>173.0</ele><time>2026-04-06T16:57:03Z</time></trkpt><trkpt lat="40.700610970189224" lon="8.55790092312715"><ele>175.0</ele><time>2026-04-06T16:57:04Z</time></trkpt><trkpt lat="40.70046626373453" lon="8.558146843280728"><ele>175.0</ele><time>2026-04-06T16:57:05Z</time></trkpt><trkpt lat="40.70032093839493" lon="8.558395824829136"><ele>175.0</ele><time>2026-04-06T16:57:06Z</time></trkpt><trkpt lat="40.70017599874871" lon="8.558649083652416"><ele>185.0</ele><time>2026-04-06T16:57:07Z</time></trkpt><trkpt lat="40.70003675486666" lon="8.558902906711301"><ele>195.0</ele><time>2026-04-06T16:57:08Z</time></trkpt><trkpt lat="40.699897489961174" lon="8.559168243280451"><ele>195.0</ele><time>2026-04-06T16:57:09Z</time></trkpt><trkpt lat="40.699767221756964" lon="8.55944280502589"><ele>195.0</ele><time>2026-04-06T16:57:10Z</time></trkpt><trkpt lat="40.69964278181845" lon="8.559721289184925"><ele>196.0</ele><time>2026-04-06T16:57:11Z</time></trkpt><trkpt lat="40.6995253349583" lon="8.560001335475954"><ele>197.0</ele><time>2026-04-06T16:57:12Z</time></trkpt><trkpt lat="40.69940692225719" lon="8.560289401032117"><ele>198.0</ele><time>2026-04-06T16:57:13Z</time></trkpt><trkpt lat="40.6992974708663" lon="8.56057315003801"><ele>199.0</ele><time>2026-04-06T16:57:14Z</time></trkpt><trkpt lat="40.699191650642604" lon="8.56085450644436"><ele>199.0</ele><time>2026-04-06T16:57:15Z</time></trkpt><trkpt lat="40.699081229782635" lon="8.561133559468159"><ele>199.0</ele><time>2026-04-06T16:57:16Z</time></trkpt><trkpt lat="40.69897472076197" lon="8.561408072026273"><ele>195.5</ele><time>2026-04-06T16:57:17Z</time></trkpt><trkpt lat="40.69886608048049" lon="8.561685493437682"><ele>192.0</ele><time>2026-04-06T16:57:18Z</time></trkpt><trkpt lat="40.698759920853625" lon="8.561958644208142"><ele>195.5</ele><time>2026-04-06T16:57:19Z</time></trkpt><trkpt lat="40.69865819389715" lon="8.56222687728967"><ele>199.0</ele><time>2026-04-06T16:57:20Z</time></trkpt><trkpt lat="40.69855641489816" lon="8.562497606177239"><ele>199.0</ele><time>2026-04-06T16:57:21Z</time></trkpt><trkpt lat="40.69846286137169" lon="8.562772616487091"><ele>199.0</ele><time>2026-04-06T16:57:22Z</time></trkpt><trkpt lat="40.69837637988455" lon="8.563054972742274"><ele>196.5</ele><time>2026-04-06T16:57:23Z</time></trkpt><trkpt lat="40.698300984789384" lon="8.563346797890917"><ele>194.0</ele><time>2026-04-06T16:57:24Z</time></trkpt><trkpt lat="40.69823869027519" lon="8.563650243568636"><ele>192.5</ele><time>2026-04-06T16:57:25Z</time></trkpt><trkpt lat="40.698185460098955" lon="8.563959496892629"><ele>191.0</ele><time>2026-04-06T16:57:26Z</time></trkpt><trkpt lat="40.69814734227975" lon="8.564272373893374"><ele>191.0</ele><time>2026-04-06T16:57:27Z</time></trkpt><trkpt lat="40.69812069640101" lon="8.564597232597741"><ele>191.0</ele><time>2026-04-06T16:57:28Z</time></trkpt><trkpt lat="40.698100111324315" lon="8.564939170902758"><ele>191.0</ele><time>2026-04-06T16:57:29Z</time></trkpt><trkpt lat="40.698084998430566" lon="8.565284646612607"><ele>191.0</ele><time>2026-04-06T16:57:30Z</time></trkpt><trkpt lat="40.69806482747719" lon="8.565629485536968"><ele>193.5</ele><time>2026-04-06T16:57:31Z</time></trkpt><trkpt lat="40.69804362714579" lon="8.565967313801451"><ele>196.0</ele><time>2026-04-06T16:57:32Z</time></trkpt><trkpt lat="40.69802606506615" lon="8.566282002571198"><ele>197.0</ele><time>2026-04-06T16:57:33Z</time></trkpt><trkpt lat="40.698009950287656" lon="8.566576757074968"><ele>198.0</ele><time>2026-04-06T16:57:34Z</time></trkpt><trkpt lat="40.69799263137013" lon="8.56686399559681"><ele>199.0</ele><time>2026-04-06T16:57:35Z</time></trkpt><trkpt lat="40.697976183536724" lon="8.567155516684368"><ele>200.0</ele><time>2026-04-06T16:57:36Z</time></trkpt><trkpt lat="40.697959886204615" lon="8.567443930144988"><ele>201.0</ele><time>2026-04-06T16:57:37Z</time></trkpt><trkpt lat="40.69794264656203" lon="8.567735934076222"><ele>202.0</ele><time>2026-04-06T16:57:38Z</time></trkpt><trkpt lat="40.69792499612017" lon="8.568023068116744"><ele>204.0</ele><time>2026-04-06T16:57:39Z</time></trkpt><trkpt lat="40.69790877405511" lon="8.568319285466856"><ele>206.0</ele><time>2026-04-06T16:57:40Z</time></trkpt><trkpt lat="40.69789759164153" lon="8.568616171956181"><ele>209.0</ele><time>2026-04-06T16:57:41Z</time></trkpt><trkpt lat="40.69789763215663" lon="8.56892092394557"><ele>212.0</ele><time>2026-04-06T16:57:42Z</time></trkpt><trkpt lat="40.697913425284995" lon="8.569235750335878"><ele>216.0</ele><time>2026-04-06T16:57:43Z</time></trkpt><trkpt lat="40.69794929302008" lon="8.569567590089667"><ele>220.0</ele><time>2026-04-06T16:57:44Z</time></trkpt><trkpt lat="40.69798427025111" lon="8.56990853702852"><ele>220.0</ele><time>2026-04-06T16:57:45Z</time></trkpt><trkpt lat="40.6980109318092" lon="8.570240579713282"><ele>220.0</ele><time>2026-04-06T16:57:46Z</time></trkpt><trkpt lat="40.69803828600673" lon="8.570592010451879"><ele>221.5</ele><time>2026-04-06T16:57:47Z</time></trkpt><trkpt lat="40.698066101542175" lon="8.570933451743755"><ele>223.0</ele><time>2026-04-06T16:57:48Z</time></trkpt><trkpt lat="40.69809744126253" lon="8.57128256483287"><ele>226.0</ele><time>2026-04-06T16:57:49Z</time></trkpt><trkpt lat="40.69812399409841" lon="8.57162771530333"><ele>229.0</ele><time>2026-04-06T16:57:50Z</time></trkpt><trkpt lat="40.6981467191964" lon="8.571966103595273"><ele>230.5</ele><time>2026-04-06T16:57:51Z</time></trkpt><trkpt lat="40.698166155936704" lon="8.572302325828893"><ele>232.0</ele><time>2026-04-06T16:57:52Z</time></trkpt><trkpt lat="40.69818879978005" lon="8.572643434425107"><ele>234.5</ele><time>2026-04-06T16:57:53Z</time></trkpt><trkpt lat="40.698217812304044" lon="8.573017529575292"><ele>237.0</ele><time>2026-04-06T16:57:54.077Z</time></trkpt><trkpt lat="40.6982410135324" lon="8.573347984816643"><ele>237.5</ele><time>2026-04-06T16:57:55.031Z</time></trkpt><trkpt lat="40.69826157669557" lon="8.573696012222094"><ele>238.0</ele><time>2026-04-06T16:57:56.033Z</time></trkpt><trkpt lat="40.698283091857576" lon="8.574042325356828"><ele>238.0</ele><time>2026-04-06T16:57:57.028Z</time></trkpt><trkpt lat="40.69830449563707" lon="8.574391159260124"><ele>238.0</ele><time>2026-04-06T16:57:58.029Z</time></trkpt><trkpt lat="40.6991280919557" lon="8.579417294281846"><ele>205.5</ele><time>2026-04-06T16:58:15Z</time></trkpt><trkpt lat="40.699268786627385" lon="8.579683541374534"><ele>173.0</ele><time>2026-04-06T16:58:16Z</time></trkpt><trkpt lat="40.699317192079434" lon="8.579955048431529"><ele>173.0</ele><time>2026-04-06T16:58:17Z</time></trkpt><trkpt lat="40.69940520260445" lon="8.580210179210722"><ele>173.0</ele><time>2026-04-06T16:58:18Z</time></trkpt><trkpt lat="40.69948280086964" lon="8.58046761122593"><ele>173.0</ele><time>2026-04-06T16:58:19Z</time></trkpt><trkpt lat="40.699568685863575" lon="8.580711432669142"><ele>176.0</ele><time>2026-04-06T16:58:20Z</time></trkpt><trkpt lat="40.699658474302964" lon="8.580964288805587"><ele>179.0</ele><time>2026-04-06T16:58:21Z</time></trkpt><trkpt lat="40.699747764857314" lon="8.581217859432384"><ele>182.0</ele><time>2026-04-06T16:58:22Z</time></trkpt><trkpt lat="40.699840076484385" lon="8.581482764567596"><ele>182.0</ele><time>2026-04-06T16:58:23Z</time></trkpt><trkpt lat="40.699935343692644" lon="8.581745675086724"><ele>182.0</ele><time>2026-04-06T16:58:24Z</time></trkpt><trkpt lat="40.70003266783191" lon="8.582011386889272"><ele>182.0</ele><time>2026-04-06T16:58:25Z</time></trkpt><trkpt lat="40.700127461461825" lon="8.58227835979924"><ele>184.0</ele><time>2026-04-06T16:58:26Z</time></trkpt><trkpt lat="40.700221917116004" lon="8.582549151424029"><ele>186.0</ele><time>2026-04-06T16:58:27Z</time></trkpt><trkpt lat="40.7003143383151" lon="8.58281061014485"><ele>188.0</ele><time>2026-04-06T16:58:28Z</time></trkpt><trkpt lat="40.700407661416335" lon="8.583080140598936"><ele>188.0</ele><time>2026-04-06T16:58:29Z</time></trkpt><trkpt lat="40.70049738094199" lon="8.583349608985419"><ele>188.0</ele><time>2026-04-06T16:58:30Z</time></trkpt><trkpt lat="40.70058833560738" lon="8.583619191696672"><ele>188.0</ele><time>2026-04-06T16:58:31Z</time></trkpt><trkpt lat="40.700682158438624" lon="8.583884253031696"><ele>184.0</ele><time>2026-04-06T16:58:32Z</time></trkpt><trkpt lat="40.70077909122238" lon="8.584161920337573"><ele>180.0</ele><time>2026-04-06T16:58:33Z</time></trkpt><trkpt lat="40.70087582085903" lon="8.584438366198663"><ele>178.5</ele><time>2026-04-06T16:58:34Z</time></trkpt><trkpt lat="40.70097056178304" lon="8.584717355567957"><ele>177.0</ele><time>2026-04-06T16:58:35Z</time></trkpt><trkpt lat="40.70106302113929" lon="8.585000311998611"><ele>203.0</ele><time>2026-04-06T16:58:36Z</time></trkpt><trkpt lat="40.70115059649431" lon="8.585280484923896"><ele>229.0</ele><time>2026-04-06T16:58:37Z</time></trkpt><trkpt lat="40.7012333385094" lon="8.585567137205988"><ele>229.0</ele><time>2026-04-06T16:58:38Z</time></trkpt><trkpt lat="40.701299319271655" lon="8.585859265398378"><ele>229.0</ele><time>2026-04-06T16:58:39Z</time></trkpt><trkpt lat="40.7013522991217" lon="8.586158212476748"><ele>226.5</ele><time>2026-04-06T16:58:40Z</time></trkpt><trkpt lat="40.70139609174476" lon="8.586457516478713"><ele>224.0</ele><time>2026-04-06T16:58:41Z</time></trkpt><trkpt lat="40.701432831803665" lon="8.586757383157764"><ele>213.0</ele><time>2026-04-06T16:58:42Z</time></trkpt><trkpt lat="40.701470285997225" lon="8.587060142309126"><ele>202.0</ele><time>2026-04-06T16:58:43Z</time></trkpt><trkpt lat="40.701457833640305" lon="8.587361607420144"><ele>202.0</ele><time>2026-04-06T16:58:44Z</time></trkpt><trkpt lat="40.701443344218006" lon="8.587662696937072"><ele>202.0</ele><time>2026-04-06T16:58:45Z</time></trkpt><trkpt lat="40.70142100724096" lon="8.58796091787744"><ele>198.0</ele><time>2026-04-06T16:58:46Z</time></trkpt><trkpt lat="40.701377674930484" lon="8.588320823820888"><ele>194.0</ele><time>2026-04-06T16:58:47Z</time></trkpt><trkpt lat="40.70129863137906" lon="8.588601444869592"><ele>193.66666666666669</ele><time>2026-04-06T16:58:48Z</time></trkpt><trkpt lat="40.70123145021174" lon="8.588848875817714"><ele>193.33333333333331</ele><time>2026-04-06T16:58:49Z</time></trkpt><trkpt lat="40.70116811239794" lon="8.589088077996898"><ele>193.0</ele><time>2026-04-06T16:58:50Z</time></trkpt><trkpt lat="40.701093440788945" lon="8.589332748513018"><ele>181.66666666666666</ele><time>2026-04-06T16:58:51Z</time></trkpt><trkpt lat="40.7009970885276" lon="8.589587914832665"><ele>170.33333333333331</ele><time>2026-04-06T16:58:52Z</time></trkpt><trkpt lat="40.700883932122494" lon="8.589838040970365"><ele>159.0</ele><time>2026-04-06T16:58:53Z</time></trkpt><trkpt lat="40.700758297843336" lon="8.590083324511788"><ele>159.0</ele><time>2026-04-06T16:58:54Z</time></trkpt><trkpt lat="40.70062016491601" lon="8.590332320323565"><ele>159.0</ele><time>2026-04-06T16:58:55Z</time></trkpt><trkpt lat="40.70048097848558" lon="8.590588026149357"><ele>153.5</ele><time>2026-04-06T16:58:56Z</time></trkpt><trkpt lat="40.7003403303146" lon="8.590846500014305"><ele>148.0</ele><time>2026-04-06T16:58:57Z</time></trkpt><trkpt lat="40.70019665825465" lon="8.591108983545443"><ele>144.5</ele><time>2026-04-06T16:58:58Z</time></trkpt><trkpt lat="40.70005431202565" lon="8.591375883973805"><ele>141.0</ele><time>2026-04-06T16:58:59Z</time></trkpt><trkpt lat="40.699912555478754" lon="8.591650836910171"><ele>141.0</ele><time>2026-04-06T16:59:00Z</time></trkpt><trkpt lat="40.699773414229604" lon="8.591927659736589"><ele>141.0</ele><time>2026-04-06T16:59:01Z</time></trkpt><trkpt lat="40.699632014344395" lon="8.592204202051711"><ele>139.0</ele><time>2026-04-06T16:59:02Z</time></trkpt><trkpt lat="40.6995020746728" lon="8.592460768390772"><ele>137.0</ele><time>2026-04-06T16:59:03Z</time></trkpt><trkpt lat="40.6993828005695" lon="8.592715178315615"><ele>141.5</ele><time>2026-04-06T16:59:04Z</time></trkpt><trkpt lat="40.699268142171455" lon="8.592991291905896"><ele>146.0</ele><time>2026-04-06T16:59:05Z</time></trkpt><trkpt lat="40.69917331168478" lon="8.593275689962448"><ele>146.0</ele><time>2026-04-06T16:59:06Z</time></trkpt><trkpt lat="40.69910334363553" lon="8.593562294145283"><ele>146.0</ele><time>2026-04-06T16:59:07Z</time></trkpt><trkpt lat="40.699046726274915" lon="8.593865424309394"><ele>149.5</ele><time>2026-04-06T16:59:08Z</time></trkpt><trkpt lat="40.6990007284622" lon="8.594176190612137"><ele>153.0</ele><time>2026-04-06T16:59:09Z</time></trkpt><trkpt lat="40.69897168374233" lon="8.594490605468946"><ele>154.5</ele><time>2026-04-06T16:59:10Z</time></trkpt><trkpt lat="40.69896626100071" lon="8.59481808043465"><ele>156.0</ele><time>2026-04-06T16:59:11Z</time></trkpt><trkpt lat="40.69897804452944" lon="8.595140085750733"><ele>154.5</ele><time>2026-04-06T16:59:12Z</time></trkpt><trkpt lat="40.69900627095684" lon="8.595466673318533"><ele>153.0</ele><time>2026-04-06T16:59:13Z</time></trkpt><trkpt lat="40.699051413132814" lon="8.595791860067429"><ele>153.0</ele><time>2026-04-06T16:59:14Z</time></trkpt><trkpt lat="40.69912197915999" lon="8.596112710480337"><ele>153.0</ele><time>2026-04-06T16:59:15Z</time></trkpt><trkpt lat="40.69920550319089" lon="8.596424395711475"><ele>153.5</ele><time>2026-04-06T16:59:16Z</time></trkpt><trkpt lat="40.699311590485465" lon="8.596731918026903"><ele>154.0</ele><time>2026-04-06T16:59:17Z</time></trkpt><trkpt lat="40.69943452786298" lon="8.597019501157098"><ele>154.0</ele><time>2026-04-06T16:59:18Z</time></trkpt><trkpt lat="40.69957075462646" lon="8.59730181914237"><ele>154.0</ele><time>2026-04-06T16:59:19Z</time></trkpt><trkpt lat="40.699716889625115" lon="8.597576551827784"><ele>146.5</ele><time>2026-04-06T16:59:20Z</time></trkpt><trkpt lat="40.69986965208872" lon="8.597842953673386"><ele>139.0</ele><time>2026-04-06T16:59:21Z</time></trkpt><trkpt lat="40.700011831820035" lon="8.598111698761539"><ele>139.0</ele><time>2026-04-06T16:59:22Z</time></trkpt><trkpt lat="40.700147217798836" lon="8.598393403405051"><ele>139.0</ele><time>2026-04-06T16:59:23Z</time></trkpt><trkpt lat="40.700260638348084" lon="8.598686039029706"><ele>145.5</ele><time>2026-04-06T16:59:24Z</time></trkpt><trkpt lat="40.700353715725434" lon="8.59899072198555"><ele>152.0</ele><time>2026-04-06T16:59:25Z</time></trkpt><trkpt lat="40.70043910270499" lon="8.599302660335056"><ele>150.0</ele><time>2026-04-06T16:59:26Z</time></trkpt><trkpt lat="40.70050901758382" lon="8.599617982320103"><ele>148.0</ele><time>2026-04-06T16:59:27Z</time></trkpt><trkpt lat="40.700573405874856" lon="8.599937439907107"><ele>148.0</ele><time>2026-04-06T16:59:28Z</time></trkpt><trkpt lat="40.70063599388416" lon="8.600252661095018"><ele>148.0</ele><time>2026-04-06T16:59:29Z</time></trkpt><trkpt lat="40.700691556629444" lon="8.600574557311198"><ele>149.0</ele><time>2026-04-06T16:59:30Z</time></trkpt><trkpt lat="40.70075337708234" lon="8.600889168379565"><ele>150.0</ele><time>2026-04-06T16:59:31Z</time></trkpt><trkpt lat="40.7008159387309" lon="8.60120275208302"><ele>150.0</ele><time>2026-04-06T16:59:32Z</time></trkpt><trkpt lat="40.700880165001884" lon="8.601510077833781"><ele>150.0</ele><time>2026-04-06T16:59:33Z</time></trkpt><trkpt lat="40.70094253921084" lon="8.601822525649547"><ele>146.5</ele><time>2026-04-06T16:59:34Z</time></trkpt><trkpt lat="40.70100212979688" lon="8.602132426813048"><ele>143.0</ele><time>2026-04-06T16:59:35Z</time></trkpt><trkpt lat="40.70105785898087" lon="8.602441716478642"><ele>152.5</ele><time>2026-04-06T16:59:36Z</time></trkpt><trkpt lat="40.70111724882206" lon="8.602739710742416"><ele>162.0</ele><time>2026-04-06T16:59:37Z</time></trkpt><trkpt lat="40.70117848889486" lon="8.603044531553172"><ele>162.0</ele><time>2026-04-06T16:59:38Z</time></trkpt><trkpt lat="40.70123889562184" lon="8.60335135230996"><ele>162.0</ele><time>2026-04-06T16:59:39Z</time></trkpt><trkpt lat="40.70130000457233" lon="8.603652303295412"><ele>155.5</ele><time>2026-04-06T16:59:40Z</time></trkpt><trkpt lat="40.70135984066584" lon="8.603958366205978"><ele>149.0</ele><time>2026-04-06T16:59:41Z</time></trkpt><trkpt lat="40.701418754096906" lon="8.604257863559363"><ele>143.5</ele><time>2026-04-06T16:59:42Z</time></trkpt><trkpt lat="40.70147808589131" lon="8.604561888947664"><ele>138.0</ele><time>2026-04-06T16:59:43Z</time></trkpt><trkpt lat="40.70153777043536" lon="8.604863414442095"><ele>138.0</ele><time>2026-04-06T16:59:44Z</time></trkpt><trkpt lat="40.701595850291525" lon="8.605163295432716"><ele>138.0</ele><time>2026-04-06T16:59:45Z</time></trkpt><trkpt lat="40.70164379177491" lon="8.60547149319455"><ele>141.0</ele><time>2026-04-06T16:59:46Z</time></trkpt><trkpt lat="40.70167700593744" lon="8.605777475220577"><ele>144.0</ele><time>2026-04-06T16:59:47Z</time></trkpt><trkpt lat="40.70168175190634" lon="8.606092828108522"><ele>146.0</ele><time>2026-04-06T16:59:48Z</time></trkpt><trkpt lat="40.701663246720884" lon="8.606406087857518"><ele>148.0</ele><time>2026-04-06T16:59:49Z</time></trkpt><trkpt lat="40.70162441605374" lon="8.606719124765354"><ele>145.5</ele><time>2026-04-06T16:59:50Z</time></trkpt><trkpt lat="40.70156423616374" lon="8.607033963644778"><ele>143.0</ele><time>2026-04-06T16:59:51Z</time></trkpt><trkpt lat="40.7014873515607" lon="8.607341419410085"><ele>143.0</ele><time>2026-04-06T16:59:52Z</time></trkpt><trkpt lat="40.70137964416526" lon="8.607641135907416"><ele>143.0</ele><time>2026-04-06T16:59:53Z</time></trkpt><trkpt lat="40.701261722857076" lon="8.607937363802586"><ele>142.0</ele><time>2026-04-06T16:59:54Z</time></trkpt><trkpt lat="40.70113122594087" lon="8.608234963321692"><ele>141.0</ele><time>2026-04-06T16:59:55Z</time></trkpt><trkpt lat="40.701006004595676" lon="8.608535319722245"><ele>141.5</ele><time>2026-04-06T16:59:56Z</time></trkpt><trkpt lat="40.70088230651349" lon="8.608842309840606"><ele>142.0</ele><time>2026-04-06T16:59:57Z</time></trkpt><trkpt lat="40.70075985716273" lon="8.60915216555973"><ele>142.0</ele><time>2026-04-06T16:59:58Z</time></trkpt><trkpt lat="40.70063718647297" lon="8.60945729261421"><ele>142.0</ele><time>2026-04-06T16:59:59Z</time></trkpt><trkpt lat="40.7005182616937" lon="8.609763452326076"><ele>144.5</ele><time>2026-04-06T17:00:00Z</time></trkpt><trkpt lat="40.70039475856543" lon="8.610074541079003"><ele>147.0</ele><time>2026-04-06T17:00:01Z</time></trkpt><trkpt lat="40.70027033192285" lon="8.610375481769482"><ele>145.5</ele><time>2026-04-06T17:00:02Z</time></trkpt><trkpt lat="40.700148383488326" lon="8.61067461390564"><ele>144.0</ele><time>2026-04-06T17:00:03Z</time></trkpt><trkpt lat="40.70002970828794" lon="8.610973162927639"><ele>148.5</ele><time>2026-04-06T17:00:04Z</time></trkpt><trkpt lat="40.69990735515133" lon="8.611276038568203"><ele>153.0</ele><time>2026-04-06T17:00:05Z</time></trkpt><trkpt lat="40.69978838137577" lon="8.611572527047045"><ele>153.0</ele><time>2026-04-06T17:00:06Z</time></trkpt><trkpt lat="40.699665524047724" lon="8.611869173124798"><ele>153.0</ele><time>2026-04-06T17:00:07Z</time></trkpt><trkpt lat="40.69953934538289" lon="8.612156700718202"><ele>148.5</ele><time>2026-04-06T17:00:08Z</time></trkpt><trkpt lat="40.69940446200917" lon="8.612426155047771"><ele>144.0</ele><time>2026-04-06T17:00:09Z</time></trkpt><trkpt lat="40.69925783123858" lon="8.612695391890504"><ele>147.5</ele><time>2026-04-06T17:00:10Z</time></trkpt><trkpt lat="40.699116579317135" lon="8.612957488229515"><ele>151.0</ele><time>2026-04-06T17:00:11Z</time></trkpt><trkpt lat="40.69897469413322" lon="8.613219677860558"><ele>151.0</ele><time>2026-04-06T17:00:12Z</time></trkpt><trkpt lat="40.698839930404844" lon="8.613479650811605"><ele>151.0</ele><time>2026-04-06T17:00:13Z</time></trkpt><trkpt lat="40.69870154327421" lon="8.613749430369634"><ele>149.5</ele><time>2026-04-06T17:00:14Z</time></trkpt><trkpt lat="40.698565893283835" lon="8.614013134363345"><ele>148.0</ele><time>2026-04-06T17:00:15Z</time></trkpt><trkpt lat="40.69842847352705" lon="8.614279754042334"><ele>151.0</ele><time>2026-04-06T17:00:16Z</time></trkpt><trkpt lat="40.698292156160015" lon="8.614542988323459"><ele>154.0</ele><time>2026-04-06T17:00:17Z</time></trkpt><trkpt lat="40.69815480885079" lon="8.61480634441048"><ele>154.0</ele><time>2026-04-06T17:00:18Z</time></trkpt><trkpt lat="40.698018868984164" lon="8.615065221883771"><ele>154.0</ele><time>2026-04-06T17:00:19Z</time></trkpt><trkpt lat="40.69787999846184" lon="8.615326630279776"><ele>152.5</ele><time>2026-04-06T17:00:20Z</time></trkpt><trkpt lat="40.69773949617677" lon="8.615587113547333"><ele>151.0</ele><time>2026-04-06T17:00:21Z</time></trkpt><trkpt lat="40.697595936918226" lon="8.615846501224354"><ele>151.0</ele><time>2026-04-06T17:00:22Z</time></trkpt><trkpt lat="40.69744320548349" lon="8.616095175117383"><ele>151.0</ele><time>2026-04-06T17:00:23Z</time></trkpt><trkpt lat="40.69727310967917" lon="8.616326024890501"><ele>150.0</ele><time>2026-04-06T17:00:24Z</time></trkpt><trkpt lat="40.69708613693487" lon="8.616539231735164"><ele>149.0</ele><time>2026-04-06T17:00:25Z</time></trkpt><trkpt lat="40.696886929080875" lon="8.616726989621156"><ele>149.0</ele><time>2026-04-06T17:00:26Z</time></trkpt><trkpt lat="40.69667902785501" lon="8.616902968633218"><ele>149.0</ele><time>2026-04-06T17:00:27Z</time></trkpt><trkpt lat="40.69646374901758" lon="8.617067000544706"><ele>148.5</ele><time>2026-04-06T17:00:28Z</time></trkpt><trkpt lat="40.69624066741855" lon="8.617211016527026"><ele>148.0</ele><time>2026-04-06T17:00:29Z</time></trkpt><trkpt lat="40.69601255071785" lon="8.617339412467203"><ele>148.0</ele><time>2026-04-06T17:00:30Z</time></trkpt><trkpt lat="40.69577735679844" lon="8.617453422849419"><ele>148.0</ele><time>2026-04-06T17:00:31Z</time></trkpt><trkpt lat="40.695547030886225" lon="8.617557179470909"><ele>148.0</ele><time>2026-04-06T17:00:32Z</time></trkpt><trkpt lat="40.69531533797486" lon="8.617662712489029"><ele>148.0</ele><time>2026-04-06T17:00:33Z</time></trkpt><trkpt lat="40.69508827817604" lon="8.617770572048968"><ele>150.5</ele><time>2026-04-06T17:00:34Z</time></trkpt><trkpt lat="40.694861163907994" lon="8.61788745104747"><ele>153.0</ele><time>2026-04-06T17:00:35Z</time></trkpt><trkpt lat="40.694636745062034" lon="8.618011371875944"><ele>153.0</ele><time>2026-04-06T17:00:36Z</time></trkpt><trkpt lat="40.69442446464394" lon="8.618145043089244"><ele>153.0</ele><time>2026-04-06T17:00:37Z</time></trkpt><trkpt lat="40.694212011609864" lon="8.618297907524687"><ele>154.5</ele><time>2026-04-06T17:00:38Z</time></trkpt><trkpt lat="40.69400454909832" lon="8.618467532477474"><ele>156.0</ele><time>2026-04-06T17:00:39Z</time></trkpt><trkpt lat="40.69380683373669" lon="8.618651287743381"><ele>156.0</ele><time>2026-04-06T17:00:40Z</time></trkpt><trkpt lat="40.69361759232047" lon="8.618853086810386"><ele>156.0</ele><time>2026-04-06T17:00:41Z</time></trkpt><trkpt lat="40.69343520592201" lon="8.619071825218823"><ele>158.5</ele><time>2026-04-06T17:00:42Z</time></trkpt><trkpt lat="40.693262225096014" lon="8.61931169566363"><ele>161.0</ele><time>2026-04-06T17:00:43Z</time></trkpt><trkpt lat="40.693101231753175" lon="8.619564505037165"><ele>161.0</ele><time>2026-04-06T17:00:44Z</time></trkpt><trkpt lat="40.692944907311634" lon="8.619825494390032"><ele>161.0</ele><time>2026-04-06T17:00:45Z</time></trkpt><trkpt lat="40.69279123340833" lon="8.620087305398782"><ele>161.5</ele><time>2026-04-06T17:00:46Z</time></trkpt><trkpt lat="40.69263153845561" lon="8.620350672553364"><ele>162.0</ele><time>2026-04-06T17:00:47Z</time></trkpt><trkpt lat="40.6924688395351" lon="8.620614715796023"><ele>162.0</ele><time>2026-04-06T17:00:48Z</time></trkpt><trkpt lat="40.69230319733441" lon="8.620883383129028"><ele>162.0</ele><time>2026-04-06T17:00:49Z</time></trkpt><trkpt lat="40.692132893867424" lon="8.621155227218676"><ele>162.5</ele><time>2026-04-06T17:00:50Z</time></trkpt><trkpt lat="40.69196770827494" lon="8.621425139079037"><ele>163.0</ele><time>2026-04-06T17:00:51Z</time></trkpt><trkpt lat="40.69180510325852" lon="8.621690981061201"><ele>164.0</ele><time>2026-04-06T17:00:52Z</time></trkpt><trkpt lat="40.69164093102124" lon="8.621960103828844"><ele>165.0</ele><time>2026-04-06T17:00:53Z</time></trkpt><trkpt lat="40.69147575684082" lon="8.622229542527723"><ele>165.0</ele><time>2026-04-06T17:00:54Z</time></trkpt><trkpt lat="40.69131725299075" lon="8.622488771873183"><ele>165.0</ele><time>2026-04-06T17:00:55Z</time></trkpt><trkpt lat="40.69115722732126" lon="8.622751342356155"><ele>164.0</ele><time>2026-04-06T17:00:56Z</time></trkpt><trkpt lat="40.691001398551805" lon="8.62300601711094"><ele>163.0</ele><time>2026-04-06T17:00:57Z</time></trkpt><trkpt lat="40.69084569989469" lon="8.623257715682016"><ele>163.0</ele><time>2026-04-06T17:00:58Z</time></trkpt><trkpt lat="40.690688470766936" lon="8.62351285272975"><ele>163.0</ele><time>2026-04-06T17:00:59Z</time></trkpt><trkpt lat="40.690533663563606" lon="8.623763848967911"><ele>162.0</ele><time>2026-04-06T17:01:00Z</time></trkpt><trkpt lat="40.690383815877055" lon="8.624007450485468"><ele>161.0</ele><time>2026-04-06T17:01:01Z</time></trkpt><trkpt lat="40.69024369732998" lon="8.624239965828142"><ele>162.0</ele><time>2026-04-06T17:01:02Z</time></trkpt><trkpt lat="40.69010911646121" lon="8.624462960154908"><ele>163.0</ele><time>2026-04-06T17:01:03Z</time></trkpt><trkpt lat="40.68997047316728" lon="8.624687549217427"><ele>164.0</ele><time>2026-04-06T17:01:04Z</time></trkpt><trkpt lat="40.689829143025946" lon="8.624914880050078"><ele>164.0</ele><time>2026-04-06T17:01:05Z</time></trkpt><trkpt lat="40.68970159997219" lon="8.625122216775386"><ele>164.0</ele><time>2026-04-06T17:01:06Z</time></trkpt><trkpt lat="40.68957232618887" lon="8.62533028512323"><ele>164.0</ele><time>2026-04-06T17:01:07Z</time></trkpt><trkpt lat="40.68944226494008" lon="8.625540891401386"><ele>164.0</ele><time>2026-04-06T17:01:08Z</time></trkpt><trkpt lat="40.68931178017128" lon="8.625749559245024"><ele>164.0</ele><time>2026-04-06T17:01:09Z</time></trkpt><trkpt lat="40.68917910573771" lon="8.625962303182511"><ele>164.0</ele><time>2026-04-06T17:01:10Z</time></trkpt><trkpt lat="40.689043333445824" lon="8.626179762232445"><ele>164.0</ele><time>2026-04-06T17:01:11Z</time></trkpt><trkpt lat="40.688902359682515" lon="8.626402511235563"><ele>164.0</ele><time>2026-04-06T17:01:12Z</time></trkpt><trkpt lat="40.68875545827108" lon="8.62662709887878"><ele>164.0</ele><time>2026-04-06T17:01:13Z</time></trkpt><trkpt lat="40.688602724396425" lon="8.626853869801813"><ele>165.5</ele><time>2026-04-06T17:01:14Z</time></trkpt><trkpt lat="40.688447276004815" lon="8.627081934251278"><ele>167.0</ele><time>2026-04-06T17:01:15Z</time></trkpt><trkpt lat="40.688294078398066" lon="8.627308718321895"><ele>167.0</ele><time>2026-04-06T17:01:16Z</time></trkpt><trkpt lat="40.68813267334316" lon="8.627543197143188"><ele>167.0</ele><time>2026-04-06T17:01:17Z</time></trkpt><trkpt lat="40.687975396333506" lon="8.627771488135721"><ele>167.5</ele><time>2026-04-06T17:01:18Z</time></trkpt><trkpt lat="40.6878185526574" lon="8.628002591500561"><ele>168.0</ele><time>2026-04-06T17:01:19Z</time></trkpt><trkpt lat="40.68766186193802" lon="8.628232945860516"><ele>168.0</ele><time>2026-04-06T17:01:20Z</time></trkpt><trkpt lat="40.687502440966654" lon="8.628466462582697"><ele>168.0</ele><time>2026-04-06T17:01:21Z</time></trkpt><trkpt lat="40.68734425937104" lon="8.628693552386068"><ele>167.0</ele><time>2026-04-06T17:01:22Z</time></trkpt><trkpt lat="40.6871818967509" lon="8.628929476443524"><ele>166.0</ele><time>2026-04-06T17:01:23Z</time></trkpt><trkpt lat="40.687022308223696" lon="8.629163082246386"><ele>167.0</ele><time>2026-04-06T17:01:24Z</time></trkpt><trkpt lat="40.686859554818795" lon="8.629403297986359"><ele>168.0</ele><time>2026-04-06T17:01:25Z</time></trkpt><trkpt lat="40.68669730329909" lon="8.629641621174962"><ele>168.0</ele><time>2026-04-06T17:01:26Z</time></trkpt><trkpt lat="40.686536441601184" lon="8.629877679301218"><ele>168.0</ele><time>2026-04-06T17:01:27Z</time></trkpt><trkpt lat="40.686369435766494" lon="8.630119794326475"><ele>166.5</ele><time>2026-04-06T17:01:28Z</time></trkpt><trkpt lat="40.686204223096375" lon="8.63036072720903"><ele>165.0</ele><time>2026-04-06T17:01:29Z</time></trkpt><trkpt lat="40.6860362328095" lon="8.630604544751295"><ele>164.0</ele><time>2026-04-06T17:01:30Z</time></trkpt><trkpt lat="40.68587308224168" lon="8.630843905850828"><ele>163.0</ele><time>2026-04-06T17:01:31Z</time></trkpt><trkpt lat="40.68570447462709" lon="8.631089308451095"><ele>162.5</ele><time>2026-04-06T17:01:32Z</time></trkpt><trkpt lat="40.68553569344577" lon="8.631331564526636"><ele>162.0</ele><time>2026-04-06T17:01:33Z</time></trkpt><trkpt lat="40.68536596651625" lon="8.631574508321878"><ele>162.5</ele><time>2026-04-06T17:01:34Z</time></trkpt><trkpt lat="40.685199235330025" lon="8.631817652169566"><ele>163.0</ele><time>2026-04-06T17:01:35Z</time></trkpt><trkpt lat="40.68502694502811" lon="8.632064295127293"><ele>163.0</ele><time>2026-04-06T17:01:36Z</time></trkpt><trkpt lat="40.684858958782556" lon="8.632312499466225"><ele>163.0</ele><time>2026-04-06T17:01:37Z</time></trkpt><trkpt lat="40.68469161025289" lon="8.63256134634807"><ele>164.0</ele><time>2026-04-06T17:01:38Z</time></trkpt><trkpt lat="40.68452142327838" lon="8.63281148017272"><ele>165.0</ele><time>2026-04-06T17:01:39Z</time></trkpt><trkpt lat="40.6843518121844" lon="8.633061830621566"><ele>167.0</ele><time>2026-04-06T17:01:40Z</time></trkpt><trkpt lat="40.68418357415605" lon="8.633309554554296"><ele>169.0</ele><time>2026-04-06T17:01:41Z</time></trkpt><trkpt lat="40.68401240642413" lon="8.633560201585341"><ele>166.5</ele><time>2026-04-06T17:01:42Z</time></trkpt><trkpt lat="40.68384504662554" lon="8.633808467456197"><ele>164.0</ele><time>2026-04-06T17:01:43Z</time></trkpt><trkpt lat="40.68367863918304" lon="8.634057944271802"><ele>164.0</ele><time>2026-04-06T17:01:44Z</time></trkpt><trkpt lat="40.683509863842936" lon="8.634309231198454"><ele>164.0</ele><time>2026-04-06T17:01:45Z</time></trkpt><trkpt lat="40.68334118797371" lon="8.634560516463955"><ele>164.0</ele><time>2026-04-06T17:01:46Z</time></trkpt><trkpt lat="40.683172686823006" lon="8.634812368558372"><ele>164.0</ele><time>2026-04-06T17:01:47Z</time></trkpt><trkpt lat="40.683005834100115" lon="8.635066718822005"><ele>162.5</ele><time>2026-04-06T17:01:48Z</time></trkpt><trkpt lat="40.682840090475025" lon="8.635321809416158"><ele>161.0</ele><time>2026-04-06T17:01:49Z</time></trkpt><trkpt lat="40.68267250239963" lon="8.635582397414243"><ele>164.5</ele><time>2026-04-06T17:01:50Z</time></trkpt><trkpt lat="40.68250212306931" lon="8.635845497702855"><ele>168.0</ele><time>2026-04-06T17:01:51Z</time></trkpt><trkpt lat="40.68232954060991" lon="8.636104872537638"><ele>165.0</ele><time>2026-04-06T17:01:52Z</time></trkpt><trkpt lat="40.68216127333637" lon="8.63635995293984"><ele>162.0</ele><time>2026-04-06T17:01:53Z</time></trkpt><trkpt lat="40.68198968372983" lon="8.636617508201185"><ele>164.0</ele><time>2026-04-06T17:01:54Z</time></trkpt><trkpt lat="40.68182034310666" lon="8.636873314349744"><ele>166.0</ele><time>2026-04-06T17:01:55Z</time></trkpt><trkpt lat="40.68165073431629" lon="8.637131302633579"><ele>166.0</ele><time>2026-04-06T17:01:56Z</time></trkpt><trkpt lat="40.68148074537422" lon="8.637388654633313"><ele>166.0</ele><time>2026-04-06T17:01:57Z</time></trkpt><trkpt lat="40.68131023240648" lon="8.637647396993827"><ele>167.0</ele><time>2026-04-06T17:01:58Z</time></trkpt><trkpt lat="40.68113831053207" lon="8.637906647895186"><ele>168.0</ele><time>2026-04-06T17:01:59Z</time></trkpt><trkpt lat="40.6809692342831" lon="8.638163137557296"><ele>168.0</ele><time>2026-04-06T17:02:00Z</time></trkpt><trkpt lat="40.68079578427807" lon="8.638420938580351"><ele>168.0</ele><time>2026-04-06T17:02:01Z</time></trkpt><trkpt lat="40.680625872605965" lon="8.638675740210143"><ele>166.0</ele><time>2026-04-06T17:02:02Z</time></trkpt><trkpt lat="40.68045530304247" lon="8.638931821969553"><ele>164.0</ele><time>2026-04-06T17:02:03Z</time></trkpt><trkpt lat="40.68028284953807" lon="8.63918593245949"><ele>166.0</ele><time>2026-04-06T17:02:04Z</time></trkpt><trkpt lat="40.680115012063375" lon="8.639437755169077"><ele>168.0</ele><time>2026-04-06T17:02:05Z</time></trkpt><trkpt lat="40.67994672019715" lon="8.639689901994208"><ele>168.0</ele><time>2026-04-06T17:02:06Z</time></trkpt><trkpt lat="40.67978137865782" lon="8.639941087395021"><ele>168.0</ele><time>2026-04-06T17:02:07Z</time></trkpt><trkpt lat="40.67961941408399" lon="8.640189844148244"><ele>169.0</ele><time>2026-04-06T17:02:08Z</time></trkpt><trkpt lat="40.6794568296058" lon="8.6404367888511"><ele>170.0</ele><time>2026-04-06T17:02:09Z</time></trkpt><trkpt lat="40.67929776773276" lon="8.64068093244539"><ele>170.5</ele><time>2026-04-06T17:02:10Z</time></trkpt><trkpt lat="40.67914164009229" lon="8.640927562583874"><ele>171.0</ele><time>2026-04-06T17:02:11Z</time></trkpt><trkpt lat="40.67898751322822" lon="8.641177489616084"><ele>170.0</ele><time>2026-04-06T17:02:12Z</time></trkpt><trkpt lat="40.678837021055124" lon="8.641427747759872"><ele>169.0</ele><time>2026-04-06T17:02:13Z</time></trkpt><trkpt lat="40.67868638811074" lon="8.641675197206506"><ele>169.5</ele><time>2026-04-06T17:02:14Z</time></trkpt><trkpt lat="40.67853458014545" lon="8.641923690321962"><ele>170.0</ele><time>2026-04-06T17:02:15Z</time></trkpt><trkpt lat="40.678385747023626" lon="8.642166613076812"><ele>170.0</ele><time>2026-04-06T17:02:16Z</time></trkpt><trkpt lat="40.67823374286534" lon="8.642414597260597"><ele>170.0</ele><time>2026-04-06T17:02:17Z</time></trkpt><trkpt lat="40.67807963976315" lon="8.642662194481252"><ele>169.5</ele><time>2026-04-06T17:02:18Z</time></trkpt><trkpt lat="40.6779225070921" lon="8.642911510244168"><ele>169.0</ele><time>2026-04-06T17:02:19Z</time></trkpt><trkpt lat="40.67776843416882" lon="8.643156589598629"><ele>170.5</ele><time>2026-04-06T17:02:20Z</time></trkpt><trkpt lat="40.67761657017529" lon="8.643403692122767"><ele>172.0</ele><time>2026-04-06T17:02:21Z</time></trkpt><trkpt lat="40.677467906548166" lon="8.643651943936133"><ele>172.0</ele><time>2026-04-06T17:02:22Z</time></trkpt><trkpt lat="40.677316147158" lon="8.643903169490535"><ele>172.0</ele><time>2026-04-06T17:02:23Z</time></trkpt><trkpt lat="40.67716025959485" lon="8.644156399999373"><ele>172.0</ele><time>2026-04-06T17:02:24Z</time></trkpt><trkpt lat="40.677004404613804" lon="8.64440647871066"><ele>172.0</ele><time>2026-04-06T17:02:25Z</time></trkpt><trkpt lat="40.676847525112365" lon="8.644658843063768"><ele>174.0</ele><time>2026-04-06T17:02:26Z</time></trkpt><trkpt lat="40.676691372767834" lon="8.64490868791509"><ele>176.0</ele><time>2026-04-06T17:02:27Z</time></trkpt><trkpt lat="40.676534024697744" lon="8.645162667191487"><ele>175.0</ele><time>2026-04-06T17:02:28Z</time></trkpt><trkpt lat="40.67637797211917" lon="8.645415687873438"><ele>174.0</ele><time>2026-04-06T17:02:29Z</time></trkpt><trkpt lat="40.67622454770858" lon="8.645671803646646"><ele>176.0</ele><time>2026-04-06T17:02:30Z</time></trkpt><trkpt lat="40.67607629811698" lon="8.6459319552947"><ele>178.0</ele><time>2026-04-06T17:02:31Z</time></trkpt><trkpt lat="40.675934918773315" lon="8.646203569708659"><ele>178.5</ele><time>2026-04-06T17:02:32Z</time></trkpt><trkpt lat="40.67580197553315" lon="8.646481498112095"><ele>179.0</ele><time>2026-04-06T17:02:33Z</time></trkpt><trkpt lat="40.675682874196475" lon="8.64677164558877"><ele>179.5</ele><time>2026-04-06T17:02:34Z</time></trkpt><trkpt lat="40.675575612626396" lon="8.647074792060652"><ele>180.0</ele><time>2026-04-06T17:02:35Z</time></trkpt><trkpt lat="40.6754772347273" lon="8.647384196497097"><ele>180.0</ele><time>2026-04-06T17:02:36Z</time></trkpt><trkpt lat="40.675380495365864" lon="8.64770037629532"><ele>180.0</ele><time>2026-04-06T17:02:37Z</time></trkpt><trkpt lat="40.67528124226633" lon="8.648020662286433"><ele>181.0</ele><time>2026-04-06T17:02:38Z</time></trkpt><trkpt lat="40.675184175143094" lon="8.648333631797165"><ele>182.0</ele><time>2026-04-06T17:02:39Z</time></trkpt><trkpt lat="40.67508340746828" lon="8.648654852740572"><ele>182.5</ele><time>2026-04-06T17:02:40Z</time></trkpt><trkpt lat="40.674988445574876" lon="8.64897747470518"><ele>183.0</ele><time>2026-04-06T17:02:41Z</time></trkpt><trkpt lat="40.6749066325136" lon="8.649301720791481"><ele>182.5</ele><time>2026-04-06T17:02:42Z</time></trkpt><trkpt lat="40.67484480802008" lon="8.649634098284771"><ele>182.0</ele><time>2026-04-06T17:02:43Z</time></trkpt><trkpt lat="40.67479373423324" lon="8.649981421802641"><ele>181.5</ele><time>2026-04-06T17:02:44Z</time></trkpt><trkpt lat="40.67473636118465" lon="8.650321692514973"><ele>181.0</ele><time>2026-04-06T17:02:45Z</time></trkpt><trkpt lat="40.67467448378703" lon="8.65065141277958"><ele>181.0</ele><time>2026-04-06T17:02:46Z</time></trkpt><trkpt lat="40.67460862875164" lon="8.650994359328916"><ele>181.0</ele><time>2026-04-06T17:02:47Z</time></trkpt><trkpt lat="40.67454280668923" lon="8.651336092781092"><ele>181.0</ele><time>2026-04-06T17:02:48Z</time></trkpt><trkpt lat="40.67447728968831" lon="8.651674516483995"><ele>181.0</ele><time>2026-04-06T17:02:49Z</time></trkpt><trkpt lat="40.674409227960766" lon="8.6520179917562"><ele>183.0</ele><time>2026-04-06T17:02:50Z</time></trkpt><trkpt lat="40.67434124284444" lon="8.65235762786115"><ele>185.0</ele><time>2026-04-06T17:02:51Z</time></trkpt><trkpt lat="40.67427197365477" lon="8.652692915422945"><ele>185.5</ele><time>2026-04-06T17:02:52Z</time></trkpt><trkpt lat="40.674197415855886" lon="8.65302756231169"><ele>186.0</ele><time>2026-04-06T17:02:53Z</time></trkpt><trkpt lat="40.67411934640111" lon="8.6533582702351"><ele>186.0</ele><time>2026-04-06T17:02:54Z</time></trkpt><trkpt lat="40.674039160794045" lon="8.653693305059104"><ele>186.0</ele><time>2026-04-06T17:02:55Z</time></trkpt><trkpt lat="40.67396338224751" lon="8.654030423316524"><ele>186.0</ele><time>2026-04-06T17:02:56Z</time></trkpt><trkpt lat="40.67389038754429" lon="8.654370074404511"><ele>186.0</ele><time>2026-04-06T17:02:57Z</time></trkpt><trkpt lat="40.673816040135776" lon="8.654706273551952"><ele>186.0</ele><time>2026-04-06T17:02:58Z</time></trkpt><trkpt lat="40.67373975833997" lon="8.655039575712983"><ele>186.0</ele><time>2026-04-06T17:02:59Z</time></trkpt><trkpt lat="40.6736613275122" lon="8.655372705449379"><ele>187.0</ele><time>2026-04-06T17:03:00Z</time></trkpt><trkpt lat="40.67358356200541" lon="8.655698897881265"><ele>188.0</ele><time>2026-04-06T17:03:01Z</time></trkpt><trkpt lat="40.673504951587084" lon="8.656035443158572"><ele>188.0</ele><time>2026-04-06T17:03:02Z</time></trkpt><trkpt lat="40.67342985699836" lon="8.65635953878738"><ele>188.0</ele><time>2026-04-06T17:03:03Z</time></trkpt><trkpt lat="40.673353554177226" lon="8.656693744472875"><ele>188.0</ele><time>2026-04-06T17:03:04Z</time></trkpt><trkpt lat="40.673278055979964" lon="8.657019578022688"><ele>188.0</ele><time>2026-04-06T17:03:05Z</time></trkpt><trkpt lat="40.67320235224646" lon="8.657341755887565"><ele>188.0</ele><time>2026-04-06T17:03:06Z</time></trkpt><trkpt lat="40.673124090021375" lon="8.657662020924803"><ele>188.0</ele><time>2026-04-06T17:03:07Z</time></trkpt><trkpt lat="40.67304462744871" lon="8.657977518957583"><ele>187.5</ele><time>2026-04-06T17:03:08Z</time></trkpt><trkpt lat="40.67295646648846" lon="8.658291743465066"><ele>187.0</ele><time>2026-04-06T17:03:09Z</time></trkpt><trkpt lat="40.672856301000316" lon="8.658590922093696"><ele>189.5</ele><time>2026-04-06T17:03:10Z</time></trkpt><trkpt lat="40.67274057097664" lon="8.658884393207275"><ele>192.0</ele><time>2026-04-06T17:03:11Z</time></trkpt><trkpt lat="40.6726093900839" lon="8.659171084301335"><ele>192.0</ele><time>2026-04-06T17:03:12Z</time></trkpt><trkpt lat="40.67247137797729" lon="8.659447710376357"><ele>192.0</ele><time>2026-04-06T17:03:13Z</time></trkpt><trkpt lat="40.67232677283382" lon="8.65971531846807"><ele>192.0</ele><time>2026-04-06T17:03:14Z</time></trkpt><trkpt lat="40.67217186053533" lon="8.659977955191774"><ele>192.0</ele><time>2026-04-06T17:03:15Z</time></trkpt><trkpt lat="40.67200596938177" lon="8.660230933805543"><ele>194.0</ele><time>2026-04-06T17:03:16Z</time></trkpt><trkpt lat="40.6718373124186" lon="8.660472099112482"><ele>196.0</ele><time>2026-04-06T17:03:17Z</time></trkpt><trkpt lat="40.67167060071307" lon="8.660717078515633"><ele>196.0</ele><time>2026-04-06T17:03:18Z</time></trkpt><trkpt lat="40.67150679310584" lon="8.660959193846498"><ele>196.0</ele><time>2026-04-06T17:03:19Z</time></trkpt><trkpt lat="40.671344862199554" lon="8.661201024248191"><ele>197.5</ele><time>2026-04-06T17:03:20Z</time></trkpt><trkpt lat="40.67118239995734" lon="8.661442784798156"><ele>199.0</ele><time>2026-04-06T17:03:21Z</time></trkpt><trkpt lat="40.6710204982445" lon="8.661685932199399"><ele>199.5</ele><time>2026-04-06T17:03:22Z</time></trkpt><trkpt lat="40.67085535579905" lon="8.66193229015898"><ele>200.0</ele><time>2026-04-06T17:03:23Z</time></trkpt><trkpt lat="40.670689091295976" lon="8.662180308990942"><ele>200.0</ele><time>2026-04-06T17:03:24Z</time></trkpt><trkpt lat="40.67052046212614" lon="8.662430138517447"><ele>200.0</ele><time>2026-04-06T17:03:25Z</time></trkpt><trkpt lat="40.6703559082415" lon="8.662675161141161"><ele>203.0</ele><time>2026-04-06T17:03:26Z</time></trkpt><trkpt lat="40.670188896431355" lon="8.662923910656659"><ele>206.0</ele><time>2026-04-06T17:03:27Z</time></trkpt><trkpt lat="40.670027302412045" lon="8.663167384770897"><ele>206.0</ele><time>2026-04-06T17:03:28Z</time></trkpt><trkpt lat="40.66986048753778" lon="8.663414471761172"><ele>206.0</ele><time>2026-04-06T17:03:29Z</time></trkpt><trkpt lat="40.66969472256065" lon="8.663659408486003"><ele>205.5</ele><time>2026-04-06T17:03:30Z</time></trkpt><trkpt lat="40.66953338199602" lon="8.663903390223327"><ele>205.0</ele><time>2026-04-06T17:03:31Z</time></trkpt><trkpt lat="40.66937124386631" lon="8.664146258834407"><ele>207.5</ele><time>2026-04-06T17:03:32Z</time></trkpt><trkpt lat="40.669209510435756" lon="8.664391838399522"><ele>210.0</ele><time>2026-04-06T17:03:33Z</time></trkpt><trkpt lat="40.669046463825886" lon="8.664634955241333"><ele>210.0</ele><time>2026-04-06T17:03:34Z</time></trkpt><trkpt lat="40.668881326415075" lon="8.664879544702217"><ele>210.0</ele><time>2026-04-06T17:03:35Z</time></trkpt><trkpt lat="40.66871460471144" lon="8.665115898343235"><ele>213.0</ele><time>2026-04-06T17:03:36Z</time></trkpt><trkpt lat="40.66853355420938" lon="8.665350413033623"><ele>216.0</ele><time>2026-04-06T17:03:37Z</time></trkpt><trkpt lat="40.668345193936744" lon="8.665571149129342"><ele>216.0</ele><time>2026-04-06T17:03:38Z</time></trkpt><trkpt lat="40.66814705699044" lon="8.665790512460807"><ele>216.0</ele><time>2026-04-06T17:03:39Z</time></trkpt><trkpt lat="40.66794619468239" lon="8.665997610891342"><ele>216.5</ele><time>2026-04-06T17:03:40Z</time></trkpt><trkpt lat="40.667743898348654" lon="8.666189254635476"><ele>217.0</ele><time>2026-04-06T17:03:41Z</time></trkpt><trkpt lat="40.66753439910223" lon="8.66638787093107"><ele>217.0</ele><time>2026-04-06T17:03:42Z</time></trkpt><trkpt lat="40.667325470525945" lon="8.666583168479992"><ele>217.0</ele><time>2026-04-06T17:03:42.999Z</time></trkpt><trkpt lat="40.66711466442072" lon="8.666783461822957"><ele>219.0</ele><time>2026-04-06T17:03:43.999Z</time></trkpt><trkpt lat="40.66690395642283" lon="8.666977609069152"><ele>221.0</ele><time>2026-04-06T17:03:44.999Z</time></trkpt><trkpt lat="40.666706444728305" lon="8.667160005230336"><ele>221.0</ele><time>2026-04-06T17:03:45.999Z</time></trkpt><trkpt lat="40.66650333728692" lon="8.667329141325476"><ele>221.0</ele><time>2026-04-06T17:03:46.999Z</time></trkpt><trkpt lat="40.66628525649922" lon="8.667484941434525"><ele>223.5</ele><time>2026-04-06T17:03:47.999Z</time></trkpt><trkpt lat="40.66604093752687" lon="8.667620274523792"><ele>226.0</ele><time>2026-04-06T17:03:48.999Z</time></trkpt><trkpt lat="40.66577896684034" lon="8.667732578158617"><ele>224.5</ele><time>2026-04-06T17:03:49.999Z</time></trkpt><trkpt lat="40.66551238298158" lon="8.667837286123698"><ele>223.0</ele><time>2026-04-06T17:03:50.999Z</time></trkpt><trkpt lat="40.66525149473911" lon="8.667931649957"><ele>223.0</ele><time>2026-04-06T17:03:51.999Z</time></trkpt><trkpt lat="40.665012178602574" lon="8.668024499513162"><ele>223.0</ele><time>2026-04-06T17:03:52.999Z</time></trkpt><trkpt lat="40.66477522726025" lon="8.668120234029058"><ele>223.0</ele><time>2026-04-06T17:03:53.999Z</time></trkpt><trkpt lat="40.6645384365668" lon="8.668214500697209"><ele>223.0</ele><time>2026-04-06T17:03:54.999Z</time></trkpt><trkpt lat="40.664304198018804" lon="8.66830658213585"><ele>227.5</ele><time>2026-04-06T17:03:55.999Z</time></trkpt><trkpt lat="40.66406886227482" lon="8.668402727739709"><ele>232.0</ele><time>2026-04-06T17:03:56.999Z</time></trkpt><trkpt lat="40.66383773566144" lon="8.66850660683957"><ele>236.0</ele><time>2026-04-06T17:03:58Z</time></trkpt><trkpt lat="40.66361262941314" lon="8.668644444754518"><ele>240.0</ele><time>2026-04-06T17:03:59Z</time></trkpt><trkpt lat="40.6633936403978" lon="8.668806680304963"><ele>240.0</ele><time>2026-04-06T17:04:00Z</time></trkpt><trkpt lat="40.66318396113549" lon="8.66900000474981"><ele>240.0</ele><time>2026-04-06T17:04:01Z</time></trkpt><trkpt lat="40.662972414425646" lon="8.669194030325809"><ele>239.0</ele><time>2026-04-06T17:04:02Z</time></trkpt><trkpt lat="40.66275779292376" lon="8.669382140225638"><ele>238.0</ele><time>2026-04-06T17:04:03Z</time></trkpt><trkpt lat="40.662537299411056" lon="8.669562420841755"><ele>238.0</ele><time>2026-04-06T17:04:04Z</time></trkpt><trkpt lat="40.66232251853696" lon="8.66973584268862"><ele>238.0</ele><time>2026-04-06T17:04:05Z</time></trkpt><trkpt lat="40.66210807824628" lon="8.669913732148066"><ele>246.0</ele><time>2026-04-06T17:04:06Z</time></trkpt><trkpt lat="40.6619021097065" lon="8.67009015128292"><ele>254.0</ele><time>2026-04-06T17:04:07Z</time></trkpt><trkpt lat="40.66169987430121" lon="8.670263522584545"><ele>248.5</ele><time>2026-04-06T17:04:08Z</time></trkpt><trkpt lat="40.66149950488695" lon="8.670429052902696"><ele>243.0</ele><time>2026-04-06T17:04:09Z</time></trkpt><trkpt lat="40.661297048558126" lon="8.670572493765285"><ele>251.0</ele><time>2026-04-06T17:04:10Z</time></trkpt><trkpt lat="40.66108086599582" lon="8.67069877556441"><ele>259.0</ele><time>2026-04-06T17:04:11Z</time></trkpt><trkpt lat="40.66085132885592" lon="8.670801428162111"><ele>259.0</ele><time>2026-04-06T17:04:12Z</time></trkpt><trkpt lat="40.66061795927549" lon="8.670885873172697"><ele>259.0</ele><time>2026-04-06T17:04:13Z</time></trkpt><trkpt lat="40.66037679392564" lon="8.670979481844482"><ele>257.0</ele><time>2026-04-06T17:04:14Z</time></trkpt><trkpt lat="40.66014014901418" lon="8.671073808861953"><ele>255.0</ele><time>2026-04-06T17:04:15Z</time></trkpt><trkpt lat="40.65990402183272" lon="8.671177839167138"><ele>255.0</ele><time>2026-04-06T17:04:16Z</time></trkpt><trkpt lat="40.65966354271695" lon="8.671283531252962"><ele>255.0</ele><time>2026-04-06T17:04:17Z</time></trkpt><trkpt lat="40.6594206061308" lon="8.67138440648885"><ele>259.0</ele><time>2026-04-06T17:04:18Z</time></trkpt><trkpt lat="40.65917565113034" lon="8.67147128874108"><ele>263.0</ele><time>2026-04-06T17:04:19Z</time></trkpt><trkpt lat="40.658926955095275" lon="8.671529288885912"><ele>263.0</ele><time>2026-04-06T17:04:20Z</time></trkpt><trkpt lat="40.658670509772755" lon="8.671551998427109"><ele>263.0</ele><time>2026-04-06T17:04:21Z</time></trkpt><trkpt lat="40.65841479193252" lon="8.671549889616385"><ele>265.5</ele><time>2026-04-06T17:04:22Z</time></trkpt><trkpt lat="40.65816190338614" lon="8.67153558933593"><ele>268.0</ele><time>2026-04-06T17:04:23Z</time></trkpt><trkpt lat="40.65790536381958" lon="8.67151936144494"><ele>269.0</ele><time>2026-04-06T17:04:24Z</time></trkpt><trkpt lat="40.6576524748113" lon="8.671502300592136"><ele>270.0</ele><time>2026-04-06T17:04:25Z</time></trkpt><trkpt lat="40.657401112300626" lon="8.67149234395324"><ele>270.0</ele><time>2026-04-06T17:04:26Z</time></trkpt><trkpt lat="40.657154318362785" lon="8.671488237969795"><ele>270.0</ele><time>2026-04-06T17:04:27Z</time></trkpt><trkpt lat="40.656907307838026" lon="8.671486999273801"><ele>270.0</ele><time>2026-04-06T17:04:28Z</time></trkpt><trkpt lat="40.65666296516463" lon="8.671482079385486"><ele>270.0</ele><time>2026-04-06T17:04:29Z</time></trkpt><trkpt lat="40.656416441109336" lon="8.671470697602018"><ele>270.0</ele><time>2026-04-06T17:04:30Z</time></trkpt><trkpt lat="40.656174655711936" lon="8.67145777920577"><ele>270.0</ele><time>2026-04-06T17:04:31Z</time></trkpt><trkpt lat="40.6559349011538" lon="8.671447468813732"><ele>272.0</ele><time>2026-04-06T17:04:32Z</time></trkpt><trkpt lat="40.65569421077149" lon="8.671447215544834"><ele>274.0</ele><time>2026-04-06T17:04:33Z</time></trkpt><trkpt lat="40.65545303681996" lon="8.671469050526099"><ele>278.5</ele><time>2026-04-06T17:04:34Z</time></trkpt><trkpt lat="40.65521477296673" lon="8.67152906680232"><ele>283.0</ele><time>2026-04-06T17:04:35Z</time></trkpt><trkpt lat="40.65497654091157" lon="8.67161531033532"><ele>283.0</ele><time>2026-04-06T17:04:36Z</time></trkpt><trkpt lat="40.6547443058697" lon="8.67173317526872"><ele>283.0</ele><time>2026-04-06T17:04:37Z</time></trkpt><trkpt lat="40.65452221065526" lon="8.67188574999896"><ele>283.0</ele><time>2026-04-06T17:04:38Z</time></trkpt><trkpt lat="40.65430618771353" lon="8.672069445813117"><ele>283.0</ele><time>2026-04-06T17:04:39Z</time></trkpt><trkpt lat="40.654092684341386" lon="8.67227420953974"><ele>283.0</ele><time>2026-04-06T17:04:40Z</time></trkpt><trkpt lat="40.653885999516966" lon="8.672497600489228"><ele>283.0</ele><time>2026-04-06T17:04:41Z</time></trkpt><trkpt lat="40.653685710196974" lon="8.672709775048265"><ele>283.5</ele><time>2026-04-06T17:04:42Z</time></trkpt><trkpt lat="40.653476069536815" lon="8.67290002748844"><ele>284.0</ele><time>2026-04-06T17:04:43Z</time></trkpt><trkpt lat="40.65324953218672" lon="8.673063532944795"><ele>284.0</ele><time>2026-04-06T17:04:44Z</time></trkpt><trkpt lat="40.65301289448895" lon="8.673192460498734"><ele>284.0</ele><time>2026-04-06T17:04:45Z</time></trkpt><trkpt lat="40.65276648940273" lon="8.673301484083048"><ele>291.5</ele><time>2026-04-06T17:04:46Z</time></trkpt><trkpt lat="40.652519484418626" lon="8.67339613875265"><ele>299.0</ele><time>2026-04-06T17:04:47Z</time></trkpt><trkpt lat="40.65227047869379" lon="8.673490797511496"><ele>299.0</ele><time>2026-04-06T17:04:48Z</time></trkpt><trkpt lat="40.65202390032407" lon="8.673589952581473"><ele>299.0</ele><time>2026-04-06T17:04:49Z</time></trkpt><trkpt lat="40.6517789150471" lon="8.673693768763366"><ele>298.5</ele><time>2026-04-06T17:04:50Z</time></trkpt><trkpt lat="40.65153198364614" lon="8.673802586536592"><ele>298.0</ele><time>2026-04-06T17:04:51Z</time></trkpt><trkpt lat="40.6512964009978" lon="8.673930463546434"><ele>302.0</ele><time>2026-04-06T17:04:52Z</time></trkpt><trkpt lat="40.65106510651162" lon="8.674082759661749"><ele>306.0</ele><time>2026-04-06T17:04:53Z</time></trkpt><trkpt lat="40.65085002283445" lon="8.674272430316263"><ele>301.0</ele><time>2026-04-06T17:04:54Z</time></trkpt><trkpt lat="40.65064653862477" lon="8.674479758312982"><ele>296.0</ele><time>2026-04-06T17:04:55Z</time></trkpt><trkpt lat="40.65044174277036" lon="8.674688050733094"><ele>302.0</ele><time>2026-04-06T17:04:56Z</time></trkpt><trkpt lat="40.6502356686491" lon="8.674893474013519"><ele>308.0</ele><time>2026-04-06T17:04:57Z</time></trkpt><trkpt lat="40.65002845488164" lon="8.675093723509926"><ele>305.5</ele><time>2026-04-06T17:04:58Z</time></trkpt><trkpt lat="40.649828901385646" lon="8.675284957907941"><ele>303.0</ele><time>2026-04-06T17:04:59Z</time></trkpt><trkpt lat="40.64963360345451" lon="8.67546910733133"><ele>307.0</ele><time>2026-04-06T17:05:00Z</time></trkpt><trkpt lat="40.64944485292201" lon="8.675648687894059"><ele>311.0</ele><time>2026-04-06T17:05:01Z</time></trkpt><trkpt lat="40.64925829253106" lon="8.675836136904758"><ele>311.0</ele><time>2026-04-06T17:05:02Z</time></trkpt><trkpt lat="40.649083163117595" lon="8.676040648179187"><ele>311.0</ele><time>2026-04-06T17:05:03Z</time></trkpt><trkpt lat="40.648918396621575" lon="8.676271274731842"><ele>312.0</ele><time>2026-04-06T17:05:04Z</time></trkpt><trkpt lat="40.64877199363884" lon="8.676520565619947"><ele>313.0</ele><time>2026-04-06T17:05:05Z</time></trkpt><trkpt lat="40.64864152052855" lon="8.676798766575546"><ele>318.0</ele><time>2026-04-06T17:05:06Z</time></trkpt><trkpt lat="40.64853263630207" lon="8.677097544984894"><ele>323.0</ele><time>2026-04-06T17:05:07Z</time></trkpt><trkpt lat="40.64843816785344" lon="8.677421691919074"><ele>323.0</ele><time>2026-04-06T17:05:08Z</time></trkpt><trkpt lat="40.64835347722396" lon="8.677752026581734"><ele>323.0</ele><time>2026-04-06T17:05:09Z</time></trkpt><trkpt lat="40.648270625004656" lon="8.678084710499158"><ele>325.0</ele><time>2026-04-06T17:05:10Z</time></trkpt><trkpt lat="40.648185166009064" lon="8.67840616396034"><ele>327.0</ele><time>2026-04-06T17:05:11Z</time></trkpt><trkpt lat="40.64809941108703" lon="8.678718447447746"><ele>327.5</ele><time>2026-04-06T17:05:12Z</time></trkpt><trkpt lat="40.64801910063944" lon="8.679022597362282"><ele>328.0</ele><time>2026-04-06T17:05:13Z</time></trkpt><trkpt lat="40.64795282369337" lon="8.67933605788826"><ele>329.0</ele><time>2026-04-06T17:05:14Z</time></trkpt><trkpt lat="40.64790587863888" lon="8.679666155772413"><ele>330.0</ele><time>2026-04-06T17:05:15Z</time></trkpt><trkpt lat="40.64787611805357" lon="8.680002966623134"><ele>331.5</ele><time>2026-04-06T17:05:16Z</time></trkpt><trkpt lat="40.64785760410071" lon="8.680336212140682"><ele>333.0</ele><time>2026-04-06T17:05:17Z</time></trkpt><trkpt lat="40.647842940343" lon="8.68067095036751"><ele>333.0</ele><time>2026-04-06T17:05:18Z</time></trkpt><trkpt lat="40.64782777435629" lon="8.681000827509305"><ele>333.0</ele><time>2026-04-06T17:05:19Z</time></trkpt><trkpt lat="40.647810138702795" lon="8.681328581821571"><ele>337.5</ele><time>2026-04-06T17:05:20Z</time></trkpt><trkpt lat="40.64779131503271" lon="8.681663210932506"><ele>342.0</ele><time>2026-04-06T17:05:21Z</time></trkpt><trkpt lat="40.64777078143181" lon="8.681988754875833"><ele>342.0</ele><time>2026-04-06T17:05:21.999Z</time></trkpt><trkpt lat="40.647750732531534" lon="8.682316702266782"><ele>342.0</ele><time>2026-04-06T17:05:22.999Z</time></trkpt><trkpt lat="40.64773082328263" lon="8.682634827231631"><ele>342.5</ele><time>2026-04-06T17:05:23.999Z</time></trkpt><trkpt lat="40.647713399929614" lon="8.682956131519576"><ele>343.0</ele><time>2026-04-06T17:05:24.999Z</time></trkpt><trkpt lat="40.64769777919805" lon="8.683266203201017"><ele>343.0</ele><time>2026-04-06T17:05:25.999Z</time></trkpt><trkpt lat="40.64768467548405" lon="8.683583344587648"><ele>343.0</ele><time>2026-04-06T17:05:26.999Z</time></trkpt><trkpt lat="40.64767309645448" lon="8.683903283800852"><ele>342.5</ele><time>2026-04-06T17:05:27.999Z</time></trkpt><trkpt lat="40.647662484513084" lon="8.684223009608694"><ele>342.0</ele><time>2026-04-06T17:05:28.999Z</time></trkpt><trkpt lat="40.6476533867846" lon="8.684550550961298"><ele>341.5</ele><time>2026-04-06T17:05:29.999Z</time></trkpt><trkpt lat="40.64764162206051" lon="8.68488583161724"><ele>341.0</ele><time>2026-04-06T17:05:30.999Z</time></trkpt><trkpt lat="40.64762967652759" lon="8.685210918545685"><ele>342.0</ele><time>2026-04-06T17:05:31.999Z</time></trkpt><trkpt lat="40.647613610976684" lon="8.685551692108874"><ele>343.0</ele><time>2026-04-06T17:05:32.999Z</time></trkpt><trkpt lat="40.6475934777923" lon="8.685895511971637"><ele>344.5</ele><time>2026-04-06T17:05:33.999Z</time></trkpt><trkpt lat="40.647570916171645" lon="8.68622954863701"><ele>346.0</ele><time>2026-04-06T17:05:34.999Z</time></trkpt><trkpt lat="40.64753637111599" lon="8.686559692292338"><ele>346.0</ele><time>2026-04-06T17:05:35.999Z</time></trkpt><trkpt lat="40.647483573981475" lon="8.68688132742197"><ele>346.0</ele><time>2026-04-06T17:05:36.999Z</time></trkpt><trkpt lat="40.647402119063116" lon="8.687194497561107"><ele>346.5</ele><time>2026-04-06T17:05:37.999Z</time></trkpt><trkpt lat="40.64729959128924" lon="8.687488357158635"><ele>347.0</ele><time>2026-04-06T17:05:38.999Z</time></trkpt><trkpt lat="40.6471753537594" lon="8.687781329028624"><ele>347.0</ele><time>2026-04-06T17:05:39.999Z</time></trkpt><trkpt lat="40.647030540240074" lon="8.688041090256071"><ele>347.0</ele><time>2026-04-06T17:05:40.999Z</time></trkpt><trkpt lat="40.64686850154405" lon="8.688291193510938"><ele>347.0</ele><time>2026-04-06T17:05:41.999Z</time></trkpt><trkpt lat="40.646703420802744" lon="8.68852144279602"><ele>347.0</ele><time>2026-04-06T17:05:42.999Z</time></trkpt><trkpt lat="40.64653441398466" lon="8.688739252199637"><ele>347.0</ele><time>2026-04-06T17:05:43.999Z</time></trkpt><trkpt lat="40.64637425172602" lon="8.688945765102622"><ele>347.0</ele><time>2026-04-06T17:05:44.999Z</time></trkpt><trkpt lat="40.64621652845076" lon="8.689149306149217"><ele>347.0</ele><time>2026-04-06T17:05:45.999Z</time></trkpt><trkpt lat="40.64606185744591" lon="8.689351230698428"><ele>346.6666666666667</ele><time>2026-04-06T17:05:46.999Z</time></trkpt><trkpt lat="40.645908896418696" lon="8.689554012640093"><ele>346.3333333333333</ele><time>2026-04-06T17:05:47.999Z</time></trkpt><trkpt lat="40.6457527832591" lon="8.68975724138584"><ele>346.0</ele><time>2026-04-06T17:05:48.999Z</time></trkpt><trkpt lat="40.64558537749226" lon="8.689969839052614"><ele>346.0</ele><time>2026-04-06T17:05:49.999Z</time></trkpt><trkpt lat="40.64541140925849" lon="8.69018692802493"><ele>346.0</ele><time>2026-04-06T17:05:50.999Z</time></trkpt><trkpt lat="40.64523513540844" lon="8.690404669633432"><ele>347.0</ele><time>2026-04-06T17:05:51.999Z</time></trkpt><trkpt lat="40.64504506780915" lon="8.690623595703055"><ele>348.0</ele><time>2026-04-06T17:05:52.999Z</time></trkpt><trkpt lat="40.64484431133649" lon="8.690831597181425"><ele>348.0</ele><time>2026-04-06T17:05:53.999Z</time></trkpt><trkpt lat="40.64462949385173" lon="8.691031849337705"><ele>348.0</ele><time>2026-04-06T17:05:54.999Z</time></trkpt><trkpt lat="40.64440580542247" lon="8.691226495361636"><ele>348.0</ele><time>2026-04-06T17:05:55.999Z</time></trkpt><trkpt lat="40.64417571236816" lon="8.691404427165034"><ele>348.0</ele><time>2026-04-06T17:05:56.999Z</time></trkpt><trkpt lat="40.643943732439844" lon="8.69157323440936"><ele>348.0</ele><time>2026-04-06T17:05:57.999Z</time></trkpt><trkpt lat="40.64371840187542" lon="8.69173565717746"><ele>348.0</ele><time>2026-04-06T17:05:58.999Z</time></trkpt><trkpt lat="40.643481773222184" lon="8.691905693256066"><ele>348.5</ele><time>2026-04-06T17:05:59.999Z</time></trkpt><trkpt lat="40.643252024062406" lon="8.692069621952227"><ele>349.0</ele><time>2026-04-06T17:06:00.999Z</time></trkpt><trkpt lat="40.643023773328146" lon="8.69223301164982"><ele>349.5</ele><time>2026-04-06T17:06:01.999Z</time></trkpt><trkpt lat="40.642794853496575" lon="8.69239845239466"><ele>350.0</ele><time>2026-04-06T17:06:02.999Z</time></trkpt><trkpt lat="40.64256224396756" lon="8.69256549913244"><ele>350.0</ele><time>2026-04-06T17:06:04Z</time></trkpt><trkpt lat="40.6423324883347" lon="8.692731823304127"><ele>350.0</ele><time>2026-04-06T17:06:05Z</time></trkpt><trkpt lat="40.64210453799229" lon="8.692896974057932"><ele>350.5</ele><time>2026-04-06T17:06:06Z</time></trkpt><trkpt lat="40.64187030207516" lon="8.693063159550382"><ele>351.0</ele><time>2026-04-06T17:06:07Z</time></trkpt><trkpt lat="40.64163899042378" lon="8.693229155629142"><ele>351.0</ele><time>2026-04-06T17:06:08Z</time></trkpt><trkpt lat="40.6414136121433" lon="8.6933947529997"><ele>351.0</ele><time>2026-04-06T17:06:09Z</time></trkpt><trkpt lat="40.641180634014496" lon="8.693560013070787"><ele>350.5</ele><time>2026-04-06T17:06:10Z</time></trkpt><trkpt lat="40.64094464737565" lon="8.693726241022539"><ele>350.0</ele><time>2026-04-06T17:06:11Z</time></trkpt><trkpt lat="40.640716303688734" lon="8.693894770307715"><ele>350.0</ele><time>2026-04-06T17:06:12Z</time></trkpt><trkpt lat="40.640480499057695" lon="8.694066390192518"><ele>350.0</ele><time>2026-04-06T17:06:13Z</time></trkpt><trkpt lat="40.64024724572676" lon="8.694237786238796"><ele>350.0</ele><time>2026-04-06T17:06:14Z</time></trkpt><trkpt lat="40.6400132006994" lon="8.694407311932194"><ele>350.0</ele><time>2026-04-06T17:06:15Z</time></trkpt><trkpt lat="40.6397916636904" lon="8.694564347717858"><ele>350.0</ele><time>2026-04-06T17:06:16Z</time></trkpt><trkpt lat="40.63958354656247" lon="8.694710538583708"><ele>350.0</ele><time>2026-04-06T17:06:17Z</time></trkpt><trkpt lat="40.63936986008146" lon="8.694862705170227"><ele>350.0</ele><time>2026-04-06T17:06:18Z</time></trkpt><trkpt lat="40.63894594762213" lon="8.695164945956472"><ele>348.5</ele><time>2026-04-06T17:06:20Z</time></trkpt><trkpt lat="40.63873451092389" lon="8.695317982318377"><ele>347.0</ele><time>2026-04-06T17:06:21Z</time></trkpt><trkpt lat="40.63852575338698" lon="8.69546278909154"><ele>347.0</ele><time>2026-04-06T17:06:22Z</time></trkpt><trkpt lat="40.63831891132731" lon="8.695600832681656"><ele>347.0</ele><time>2026-04-06T17:06:23Z</time></trkpt><trkpt lat="40.638109361890166" lon="8.695739688342051"><ele>347.0</ele><time>2026-04-06T17:06:24Z</time></trkpt><trkpt lat="40.63790498979975" lon="8.695882448878592"><ele>347.0</ele><time>2026-04-06T17:06:25Z</time></trkpt><trkpt lat="40.637706037543694" lon="8.696026423988503"><ele>346.0</ele><time>2026-04-06T17:06:26Z</time></trkpt><trkpt lat="40.63751768902866" lon="8.69616271370112"><ele>345.0</ele><time>2026-04-06T17:06:27Z</time></trkpt><trkpt lat="40.637342189404464" lon="8.696288055956124"><ele>344.0</ele><time>2026-04-06T17:06:28Z</time></trkpt><trkpt lat="40.6371723830333" lon="8.69641006331013"><ele>344.0</ele><time>2026-04-06T17:06:29Z</time></trkpt><trkpt lat="40.637013286377325" lon="8.696516876482656"><ele>344.0</ele><time>2026-04-06T17:06:30Z</time></trkpt><trkpt lat="40.63686833342978" lon="8.696622201666342"><ele>344.0</ele><time>2026-04-06T17:06:31Z</time></trkpt><trkpt lat="40.63672750444542" lon="8.696715620432878"><ele>344.5</ele><time>2026-04-06T17:06:32Z</time></trkpt><trkpt lat="40.636594100650804" lon="8.696783903974834"><ele>345.0</ele><time>2026-04-06T17:06:33Z</time></trkpt><trkpt lat="40.63646474950429" lon="8.696814204468282"><ele>345.5</ele><time>2026-04-06T17:06:34Z</time></trkpt><trkpt lat="40.63633511826584" lon="8.696796453875576"><ele>346.0</ele><time>2026-04-06T17:06:35Z</time></trkpt><trkpt lat="40.63620500896562" lon="8.696726757616862"><ele>346.75</ele><time>2026-04-06T17:06:36Z</time></trkpt><trkpt lat="40.63610110648491" lon="8.696620382867508"><ele>347.5</ele><time>2026-04-06T17:06:37Z</time></trkpt><trkpt lat="40.63602086227716" lon="8.696484086290427"><ele>348.25</ele><time>2026-04-06T17:06:38Z</time></trkpt><trkpt lat="40.635964682156846" lon="8.696330089837364"><ele>349.0</ele><time>2026-04-06T17:06:39Z</time></trkpt><trkpt lat="40.635933954834435" lon="8.69617196270005"><ele>349.25</ele><time>2026-04-06T17:06:40Z</time></trkpt><trkpt lat="40.63593438318336" lon="8.696003033626747"><ele>349.5</ele><time>2026-04-06T17:06:41Z</time></trkpt><trkpt lat="40.635966550692196" lon="8.695828734847835"><ele>349.75</ele><time>2026-04-06T17:06:42Z</time></trkpt><trkpt lat="40.63602239234245" lon="8.695664500968922"><ele>350.0</ele><time>2026-04-06T17:06:43Z</time></trkpt><trkpt lat="40.63610829235674" lon="8.69551989747083"><ele>349.0</ele><time>2026-04-06T17:06:44Z</time></trkpt><trkpt lat="40.63622868117125" lon="8.695413710842303"><ele>348.0</ele><time>2026-04-06T17:06:45Z</time></trkpt><trkpt lat="40.63635547742581" lon="8.695341847083768"><ele>347.0</ele><time>2026-04-06T17:06:46Z</time></trkpt><trkpt lat="40.63649125945852" lon="8.695320763947564"><ele>346.0</ele><time>2026-04-06T17:06:47Z</time></trkpt><trkpt lat="40.63663539218321" lon="8.6953338366002"><ele>346.0</ele><time>2026-04-06T17:06:48Z</time></trkpt><trkpt lat="40.63676224849821" lon="8.695402100993215"><ele>346.0</ele><time>2026-04-06T17:06:49Z</time></trkpt><trkpt lat="40.63688107438738" lon="8.695503260568152"><ele>346.0</ele><time>2026-04-06T17:06:50Z</time></trkpt><trkpt lat="40.63696693537613" lon="8.695658435140116"><ele>346.0</ele><time>2026-04-06T17:06:51Z</time></trkpt><trkpt lat="40.63706553042794" lon="8.695807347114187"><ele>345.66666666666663</ele><time>2026-04-06T17:06:52Z</time></trkpt><trkpt lat="40.63713668860488" lon="8.695986273563951"><ele>345.3333333333333</ele><time>2026-04-06T17:06:53Z</time></trkpt><trkpt lat="40.637204566561444" lon="8.696188142437885"><ele>345.0</ele><time>2026-04-06T17:06:54Z</time></trkpt><trkpt lat="40.63728471476415" lon="8.696391189015262"><ele>345.0</ele><time>2026-04-06T17:06:55Z</time></trkpt><trkpt lat="40.63737588980283" lon="8.696617003676039"><ele>345.0</ele><time>2026-04-06T17:06:56Z</time></trkpt><trkpt lat="40.63747313828264" lon="8.696856862100255"><ele>345.0</ele><time>2026-04-06T17:06:57Z</time></trkpt><trkpt lat="40.63758137181915" lon="8.697121460103014"><ele>345.0</ele><time>2026-04-06T17:06:58Z</time></trkpt><trkpt lat="40.63769788849417" lon="8.697413383466676"><ele>345.0</ele><time>2026-04-06T17:06:59Z</time></trkpt><trkpt lat="40.6378104782708" lon="8.697695726659234"><ele>345.0</ele><time>2026-04-06T17:06:59.999Z</time></trkpt><trkpt lat="40.637924265271465" lon="8.697976145673458"><ele>345.0</ele><time>2026-04-06T17:07:00.999Z</time></trkpt><trkpt lat="40.63803822165092" lon="8.698261649435413"><ele>345.0</ele><time>2026-04-06T17:07:01.999Z</time></trkpt><trkpt lat="40.63814574949933" lon="8.698535781150333"><ele>345.0</ele><time>2026-04-06T17:07:02.999Z</time></trkpt><trkpt lat="40.638255093539954" lon="8.698813021838307"><ele>343.5</ele><time>2026-04-06T17:07:03.999Z</time></trkpt><trkpt lat="40.63836154128831" lon="8.69909552611192"><ele>342.0</ele><time>2026-04-06T17:07:04.999Z</time></trkpt><trkpt lat="40.63846923167688" lon="8.69938394198629"><ele>341.5</ele><time>2026-04-06T17:07:05.999Z</time></trkpt><trkpt lat="40.63858022845316" lon="8.699675061325225"><ele>341.0</ele><time>2026-04-06T17:07:06.999Z</time></trkpt><trkpt lat="40.63869353257573" lon="8.699971041949595"><ele>342.5</ele><time>2026-04-06T17:07:07.999Z</time></trkpt><trkpt lat="40.63879541056378" lon="8.700275396952101"><ele>344.0</ele><time>2026-04-06T17:07:08.999Z</time></trkpt><trkpt lat="40.63889061209442" lon="8.700590955006026"><ele>344.0</ele><time>2026-04-06T17:07:09.999Z</time></trkpt><trkpt lat="40.63897956348876" lon="8.700909884742432"><ele>344.0</ele><time>2026-04-06T17:07:10.999Z</time></trkpt><trkpt lat="40.639070422311434" lon="8.701237067629792"><ele>344.5</ele><time>2026-04-06T17:07:11.999Z</time></trkpt><trkpt lat="40.639158242779324" lon="8.701564305064904"><ele>345.0</ele><time>2026-04-06T17:07:12.999Z</time></trkpt><trkpt lat="40.63923556534017" lon="8.701880430387666"><ele>344.5</ele><time>2026-04-06T17:07:13.999Z</time></trkpt><trkpt lat="40.63930571776303" lon="8.702219636279226"><ele>344.0</ele><time>2026-04-06T17:07:14.999Z</time></trkpt><trkpt lat="40.6393687268235" lon="8.702549791443648"><ele>344.0</ele><time>2026-04-06T17:07:15.999Z</time></trkpt><trkpt lat="40.639429843670676" lon="8.70287241928535"><ele>344.0</ele><time>2026-04-06T17:07:16.999Z</time></trkpt><trkpt lat="40.639490171648646" lon="8.703195873891445"><ele>344.0</ele><time>2026-04-06T17:07:17.999Z</time></trkpt><trkpt lat="40.63955286192389" lon="8.703520908132683"><ele>344.0</ele><time>2026-04-06T17:07:18.999Z</time></trkpt><trkpt lat="40.63961572934121" lon="8.703837703877815"><ele>343.5</ele><time>2026-04-06T17:07:19.999Z</time></trkpt><trkpt lat="40.63967884856369" lon="8.704159927568169"><ele>343.0</ele><time>2026-04-06T17:07:20.999Z</time></trkpt><trkpt lat="40.63974106352915" lon="8.70447718319739"><ele>342.5</ele><time>2026-04-06T17:07:21.999Z</time></trkpt><trkpt lat="40.639802659170044" lon="8.704803793738984"><ele>342.0</ele><time>2026-04-06T17:07:22.999Z</time></trkpt><trkpt lat="40.63986494393829" lon="8.705121879180739"><ele>342.0</ele><time>2026-04-06T17:07:23.999Z</time></trkpt><trkpt lat="40.63992670126925" lon="8.705439725885181"><ele>342.0</ele><time>2026-04-06T17:07:24.999Z</time></trkpt><trkpt lat="40.63998829810499" lon="8.705760691383784"><ele>341.5</ele><time>2026-04-06T17:07:25.999Z</time></trkpt><trkpt lat="40.64004937942293" lon="8.706085153204342"><ele>341.0</ele><time>2026-04-06T17:07:26.999Z</time></trkpt><trkpt lat="40.64011174956211" lon="8.706398947689921"><ele>341.0</ele><time>2026-04-06T17:07:27.999Z</time></trkpt><trkpt lat="40.64017327986971" lon="8.706716376518791"><ele>341.0</ele><time>2026-04-06T17:07:28.999Z</time></trkpt><trkpt lat="40.64023425329359" lon="8.707031293329093"><ele>341.5</ele><time>2026-04-06T17:07:29.999Z</time></trkpt><trkpt lat="40.6402958831279" lon="8.707344773999356"><ele>342.0</ele><time>2026-04-06T17:07:30.999Z</time></trkpt><trkpt lat="40.640356615136845" lon="8.707657771106815"><ele>342.0</ele><time>2026-04-06T17:07:31.999Z</time></trkpt><trkpt lat="40.64041601282715" lon="8.707973631525984"><ele>342.0</ele><time>2026-04-06T17:07:32.999Z</time></trkpt><trkpt lat="40.64047687206761" lon="8.708294267034704"><ele>343.0</ele><time>2026-04-06T17:07:33.999Z</time></trkpt><trkpt lat="40.64054316319565" lon="8.70861245749826"><ele>344.0</ele><time>2026-04-06T17:07:34.999Z</time></trkpt><trkpt lat="40.64061697273427" lon="8.708922420582383"><ele>344.0</ele><time>2026-04-06T17:07:35.999Z</time></trkpt><trkpt lat="40.64070121351644" lon="8.709246942285382"><ele>344.0</ele><time>2026-04-06T17:07:36.999Z</time></trkpt><trkpt lat="40.64079318874963" lon="8.709564041818677"><ele>344.0</ele><time>2026-04-06T17:07:37.999Z</time></trkpt><trkpt lat="40.64089287785444" lon="8.709875944109873"><ele>344.0</ele><time>2026-04-06T17:07:38.999Z</time></trkpt><trkpt lat="40.64100180939722" lon="8.710187786927799"><ele>343.5</ele><time>2026-04-06T17:07:39.999Z</time></trkpt><trkpt lat="40.6411150004151" lon="8.71049498718402"><ele>343.0</ele><time>2026-04-06T17:07:40.999Z</time></trkpt><trkpt lat="40.64123423710977" lon="8.710797266893177"><ele>342.0</ele><time>2026-04-06T17:07:41.999Z</time></trkpt><trkpt lat="40.64136236576017" lon="8.711095376983975"><ele>341.0</ele><time>2026-04-06T17:07:42.999Z</time></trkpt><trkpt lat="40.641496130641904" lon="8.711387902847848"><ele>341.0</ele><time>2026-04-06T17:07:43.999Z</time></trkpt><trkpt lat="40.64163222498161" lon="8.711671400772083"><ele>341.0</ele><time>2026-04-06T17:07:44.999Z</time></trkpt><trkpt lat="40.641768520894" lon="8.711952643043652"><ele>340.5</ele><time>2026-04-06T17:07:45.999Z</time></trkpt><trkpt lat="40.6419033908564" lon="8.712231148507561"><ele>340.0</ele><time>2026-04-06T17:07:46.999Z</time></trkpt><trkpt lat="40.642046153776874" lon="8.712523605056647"><ele>339.5</ele><time>2026-04-06T17:07:47.999Z</time></trkpt><trkpt lat="40.642198509378446" lon="8.712835854601252"><ele>339.0</ele><time>2026-04-06T17:07:48.999Z</time></trkpt><trkpt lat="40.6423480262474" lon="8.713144714552802"><ele>339.0</ele><time>2026-04-06T17:07:49.999Z</time></trkpt><trkpt lat="40.64249232133745" lon="8.71345030513235"><ele>339.0</ele><time>2026-04-06T17:07:50.999Z</time></trkpt><trkpt lat="40.64262892536079" lon="8.71374189787841"><ele>339.0</ele><time>2026-04-06T17:07:51.999Z</time></trkpt><trkpt lat="40.64276417016362" lon="8.714032368009955"><ele>339.0</ele><time>2026-04-06T17:07:52.999Z</time></trkpt><trkpt lat="40.64289357933008" lon="8.714304462086771"><ele>337.5</ele><time>2026-04-06T17:07:53.999Z</time></trkpt><trkpt lat="40.64301966473471" lon="8.714571388451798"><ele>336.0</ele><time>2026-04-06T17:07:54.999Z</time></trkpt><trkpt lat="40.64314838761078" lon="8.71483714808288"><ele>336.0</ele><time>2026-04-06T17:07:55.999Z</time></trkpt><trkpt lat="40.64327714290792" lon="8.715104882716759"><ele>336.0</ele><time>2026-04-06T17:07:56.999Z</time></trkpt><trkpt lat="40.64340503477288" lon="8.715376579883992"><ele>336.0</ele><time>2026-04-06T17:07:57.999Z</time></trkpt><trkpt lat="40.64353390569327" lon="8.715656069173527"><ele>336.0</ele><time>2026-04-06T17:07:58.999Z</time></trkpt><trkpt lat="40.64366531370052" lon="8.715935740474455"><ele>333.5</ele><time>2026-04-06T17:07:59.999Z</time></trkpt><trkpt lat="40.643797500766624" lon="8.716210343345093"><ele>331.0</ele><time>2026-04-06T17:08:00.999Z</time></trkpt><trkpt lat="40.64393120634391" lon="8.716488537338966"><ele>331.0</ele><time>2026-04-06T17:08:01.999Z</time></trkpt><trkpt lat="40.6440610938885" lon="8.71676684169363"><ele>331.0</ele><time>2026-04-06T17:08:02.999Z</time></trkpt><trkpt lat="40.6441867803533" lon="8.717052270801291"><ele>330.5</ele><time>2026-04-06T17:08:03.999Z</time></trkpt><trkpt lat="40.64430708588184" lon="8.717338753753456"><ele>330.0</ele><time>2026-04-06T17:08:04.999Z</time></trkpt><trkpt lat="40.644426306326736" lon="8.71762794915726"><ele>329.5</ele><time>2026-04-06T17:08:05.999Z</time></trkpt><trkpt lat="40.644538165777604" lon="8.71791982464935"><ele>329.0</ele><time>2026-04-06T17:08:06.999Z</time></trkpt><trkpt lat="40.64464594132947" lon="8.718221401310547"><ele>329.0</ele><time>2026-04-06T17:08:07.999Z</time></trkpt><trkpt lat="40.64474078432772" lon="8.718520972875124"><ele>329.0</ele><time>2026-04-06T17:08:08.999Z</time></trkpt><trkpt lat="40.64482810566132" lon="8.718826751322116"><ele>329.5</ele><time>2026-04-06T17:08:10Z</time></trkpt><trkpt lat="40.64490532862952" lon="8.71913233587431"><ele>330.0</ele><time>2026-04-06T17:08:11Z</time></trkpt><trkpt lat="40.64497427498443" lon="8.719447232381924"><ele>330.0</ele><time>2026-04-06T17:08:12Z</time></trkpt><trkpt lat="40.64503606487608" lon="8.719755545494037"><ele>330.0</ele><time>2026-04-06T17:08:13Z</time></trkpt><trkpt lat="40.64509423114429" lon="8.720066603378742"><ele>332.0</ele><time>2026-04-06T17:08:14Z</time></trkpt><trkpt lat="40.64514602480458" lon="8.720382111316418"><ele>334.0</ele><time>2026-04-06T17:08:15Z</time></trkpt><trkpt lat="40.64519002623045" lon="8.72069668789642"><ele>334.0</ele><time>2026-04-06T17:08:16Z</time></trkpt><trkpt lat="40.64522269285342" lon="8.721018055978197"><ele>334.0</ele><time>2026-04-06T17:08:17Z</time></trkpt><trkpt lat="40.64524581811347" lon="8.721345677697899"><ele>335.5</ele><time>2026-04-06T17:08:18Z</time></trkpt><trkpt lat="40.64526811623421" lon="8.721685061467861"><ele>337.0</ele><time>2026-04-06T17:08:19Z</time></trkpt><trkpt lat="40.64528081521807" lon="8.722024757703"><ele>337.0</ele><time>2026-04-06T17:08:20Z</time></trkpt><trkpt lat="40.645284227592796" lon="8.722373025079621"><ele>337.0</ele><time>2026-04-06T17:08:21Z</time></trkpt><trkpt lat="40.64528217842291" lon="8.722723060744936"><ele>337.5</ele><time>2026-04-06T17:08:22Z</time></trkpt><trkpt lat="40.64527447951204" lon="8.723062829890484"><ele>338.0</ele><time>2026-04-06T17:08:23Z</time></trkpt><trkpt lat="40.64525610967991" lon="8.723391303082233"><ele>338.0</ele><time>2026-04-06T17:08:24Z</time></trkpt><trkpt lat="40.64523023750582" lon="8.723722301409056"><ele>338.0</ele><time>2026-04-06T17:08:25Z</time></trkpt><trkpt lat="40.64519600138444" lon="8.724053948005249"><ele>338.0</ele><time>2026-04-06T17:08:26Z</time></trkpt><trkpt lat="40.64515459212004" lon="8.724378923836355"><ele>338.0</ele><time>2026-04-06T17:08:27Z</time></trkpt><trkpt lat="40.6451070669038" lon="8.724703175867722"><ele>338.0</ele><time>2026-04-06T17:08:28Z</time></trkpt><trkpt lat="40.64505411902482" lon="8.725027006354528"><ele>338.0</ele><time>2026-04-06T17:08:29Z</time></trkpt><trkpt lat="40.64499990209849" lon="8.725349210283776"><ele>338.5</ele><time>2026-04-06T17:08:30Z</time></trkpt><trkpt lat="40.64494495399151" lon="8.725670813723058"><ele>339.0</ele><time>2026-04-06T17:08:31Z</time></trkpt><trkpt lat="40.644891798950574" lon="8.725998784257134"><ele>339.5</ele><time>2026-04-06T17:08:32Z</time></trkpt><trkpt lat="40.64484154590589" lon="8.726318361682315"><ele>340.0</ele><time>2026-04-06T17:08:33Z</time></trkpt><trkpt lat="40.64478726575815" lon="8.726637335359264"><ele>341.0</ele><time>2026-04-06T17:08:34Z</time></trkpt><trkpt lat="40.64473212931427" lon="8.726959271096304"><ele>342.0</ele><time>2026-04-06T17:08:35Z</time></trkpt><trkpt lat="40.644681034955894" lon="8.72727627405014"><ele>342.0</ele><time>2026-04-06T17:08:36Z</time></trkpt><trkpt lat="40.644630206729474" lon="8.727592095074701"><ele>342.0</ele><time>2026-04-06T17:08:37Z</time></trkpt><trkpt lat="40.64457828748039" lon="8.727906598953556"><ele>343.0</ele><time>2026-04-06T17:08:38Z</time></trkpt><trkpt lat="40.64452444422592" lon="8.728224719667208"><ele>344.0</ele><time>2026-04-06T17:08:39Z</time></trkpt><trkpt lat="40.64446993964114" lon="8.728546737509168"><ele>347.5</ele><time>2026-04-06T17:08:40Z</time></trkpt><trkpt lat="40.64441466992302" lon="8.728871103527604"><ele>351.0</ele><time>2026-04-06T17:08:41Z</time></trkpt><trkpt lat="40.64435996909907" lon="8.729194752308368"><ele>350.5</ele><time>2026-04-06T17:08:42Z</time></trkpt><trkpt lat="40.6443042313093" lon="8.729520615537137"><ele>350.0</ele><time>2026-04-06T17:08:43Z</time></trkpt><trkpt lat="40.644244752498984" lon="8.729841109503749"><ele>350.0</ele><time>2026-04-06T17:08:44Z</time></trkpt><trkpt lat="40.64418431107815" lon="8.7301569586497"><ele>350.0</ele><time>2026-04-06T17:08:45Z</time></trkpt><trkpt lat="40.64411888539823" lon="8.73047012313183"><ele>350.0</ele><time>2026-04-06T17:08:46Z</time></trkpt><trkpt lat="40.64404848865336" lon="8.73077941572901"><ele>350.0</ele><time>2026-04-06T17:08:47Z</time></trkpt><trkpt lat="40.64397509455085" lon="8.731089117827686"><ele>350.0</ele><time>2026-04-06T17:08:48Z</time></trkpt><trkpt lat="40.64389817441843" lon="8.7313908379644"><ele>350.0</ele><time>2026-04-06T17:08:49Z</time></trkpt><trkpt lat="40.64382174028024" lon="8.73168604809904"><ele>349.0</ele><time>2026-04-06T17:08:50Z</time></trkpt><trkpt lat="40.64374893042191" lon="8.731954795847118"><ele>348.0</ele><time>2026-04-06T17:08:51Z</time></trkpt><trkpt lat="40.643675318373994" lon="8.73220375284187"><ele>347.0</ele><time>2026-04-06T17:08:52Z</time></trkpt><trkpt lat="40.64360086165392" lon="8.732440274018249"><ele>349.33333333333337</ele><time>2026-04-06T17:08:53Z</time></trkpt><trkpt lat="40.64353071817516" lon="8.732657569359894"><ele>351.6666666666667</ele><time>2026-04-06T17:08:53.999Z</time></trkpt><trkpt lat="40.64345694404976" lon="8.7328677260408"><ele>354.0</ele><time>2026-04-06T17:08:54.999Z</time></trkpt><trkpt lat="40.64338092867328" lon="8.733091979114851"><ele>354.3333333333333</ele><time>2026-04-06T17:08:55.999Z</time></trkpt><trkpt lat="40.64330242039622" lon="8.733320968690215"><ele>354.66666666666663</ele><time>2026-04-06T17:08:56.999Z</time></trkpt><trkpt lat="40.64323459635845" lon="8.733530282746168"><ele>355.0</ele><time>2026-04-06T17:08:57.999Z</time></trkpt><trkpt lat="40.64317356483826" lon="8.733716710170606"><ele>355.0</ele><time>2026-04-06T17:08:58.999Z</time></trkpt><trkpt lat="40.64311625056355" lon="8.733881099973084"><ele>355.0</ele><time>2026-04-06T17:08:59.999Z</time></trkpt><trkpt lat="40.64306392784686" lon="8.734029527229362"><ele>355.0</ele><time>2026-04-06T17:09:00.999Z</time></trkpt><trkpt lat="40.64301216267702" lon="8.734162283895134"><ele>355.0</ele><time>2026-04-06T17:09:01.999Z</time></trkpt><trkpt lat="40.64296056722797" lon="8.734270861865108"><ele>355.0</ele><time>2026-04-06T17:09:02.999Z</time></trkpt><trkpt lat="40.64291075951643" lon="8.734356823291884"><ele>355.0</ele><time>2026-04-06T17:09:03.999Z</time></trkpt><trkpt lat="40.64285359828549" lon="8.73448042631919"><ele>355.0</ele><time>2026-04-06T17:09:05.999Z</time></trkpt><trkpt lat="40.64282936163972" lon="8.734560684745176"><ele>355.0</ele><time>2026-04-06T17:09:08.999Z</time></trkpt><trkpt lat="40.64282546844089" lon="8.734651115628711"><ele>355.0</ele><time>2026-04-06T17:14:00Z</time></trkpt><trkpt lat="40.642807796872574" lon="8.734732100144424"><ele>355.0</ele><time>2026-04-06T17:14:01Z</time></trkpt><trkpt lat="40.64277659143394" lon="8.734855491508279"><ele>356.0</ele><time>2026-04-06T17:14:02Z</time></trkpt><trkpt lat="40.642728126028885" lon="8.735012877659608"><ele>357.0</ele><time>2026-04-06T17:14:03Z</time></trkpt><trkpt lat="40.64268292405101" lon="8.735153383816929"><ele>358.0</ele><time>2026-04-06T17:14:04Z</time></trkpt><trkpt lat="40.64262916799737" lon="8.735312565420205"><ele>359.0</ele><time>2026-04-06T17:14:05Z</time></trkpt><trkpt lat="40.642565242292264" lon="8.735487743567507"><ele>359.6666666666667</ele><time>2026-04-06T17:14:06Z</time></trkpt><trkpt lat="40.6424976724655" lon="8.735679074580107"><ele>360.3333333333333</ele><time>2026-04-06T17:14:07Z</time></trkpt><trkpt lat="40.64242916560342" lon="8.735876870192383"><ele>361.0</ele><time>2026-04-06T17:14:08Z</time></trkpt><trkpt lat="40.64235360461957" lon="8.736097901511553"><ele>361.66666666666663</ele><time>2026-04-06T17:14:09Z</time></trkpt><trkpt lat="40.642272392883086" lon="8.736333823255723"><ele>362.3333333333333</ele><time>2026-04-06T17:14:10Z</time></trkpt><trkpt lat="40.642193260501855" lon="8.736567478969846"><ele>363.0</ele><time>2026-04-06T17:14:11Z</time></trkpt><trkpt lat="40.642110688177354" lon="8.736803669559732"><ele>363.0</ele><time>2026-04-06T17:14:12Z</time></trkpt><trkpt lat="40.64202746203597" lon="8.737046028433667"><ele>363.0</ele><time>2026-04-06T17:14:13Z</time></trkpt><trkpt lat="40.64193865982254" lon="8.737311630302536"><ele>363.0</ele><time>2026-04-06T17:14:14Z</time></trkpt><trkpt lat="40.64184773366179" lon="8.737579699427645"><ele>363.0</ele><time>2026-04-06T17:14:15Z</time></trkpt><trkpt lat="40.64175980188091" lon="8.737837880053727"><ele>363.0</ele><time>2026-04-06T17:14:16Z</time></trkpt><trkpt lat="40.64166925541891" lon="8.73811025617403"><ele>363.0</ele><time>2026-04-06T17:14:17Z</time></trkpt><trkpt lat="40.64157796245427" lon="8.73838867854815"><ele>362.0</ele><time>2026-04-06T17:14:18Z</time></trkpt><trkpt lat="40.641483924604955" lon="8.73868249146574"><ele>361.0</ele><time>2026-04-06T17:14:19Z</time></trkpt><trkpt lat="40.64139725061515" lon="8.738971150802074"><ele>361.0</ele><time>2026-04-06T17:14:20Z</time></trkpt><trkpt lat="40.64131431352961" lon="8.739253647635207"><ele>361.0</ele><time>2026-04-06T17:14:21Z</time></trkpt><trkpt lat="40.6412295406849" lon="8.739554828669977"><ele>360.5</ele><time>2026-04-06T17:14:22Z</time></trkpt><trkpt lat="40.64114138715383" lon="8.739866324564524"><ele>360.0</ele><time>2026-04-06T17:14:23Z</time></trkpt><trkpt lat="40.64105734338436" lon="8.740185013433729"><ele>359.5</ele><time>2026-04-06T17:14:24Z</time></trkpt><trkpt lat="40.640974688764445" lon="8.740510845861401"><ele>359.0</ele><time>2026-04-06T17:14:25Z</time></trkpt><trkpt lat="40.64089521060651" lon="8.740839654174138"><ele>356.5</ele><time>2026-04-06T17:14:26Z</time></trkpt><trkpt lat="40.640822139809494" lon="8.741153925781429"><ele>354.0</ele><time>2026-04-06T17:14:27Z</time></trkpt><trkpt lat="40.64075471441889" lon="8.741453214023531"><ele>354.0</ele><time>2026-04-06T17:14:28Z</time></trkpt><trkpt lat="40.6406878935456" lon="8.741760339580546"><ele>354.0</ele><time>2026-04-06T17:14:29Z</time></trkpt><trkpt lat="40.640625337700016" lon="8.742072409449568"><ele>352.5</ele><time>2026-04-06T17:14:30Z</time></trkpt><trkpt lat="40.64056536194712" lon="8.7423844656063"><ele>351.0</ele><time>2026-04-06T17:14:31Z</time></trkpt><trkpt lat="40.640506788093724" lon="8.742709328820704"><ele>350.5</ele><time>2026-04-06T17:14:32Z</time></trkpt><trkpt lat="40.640448630265574" lon="8.743032915445886"><ele>350.0</ele><time>2026-04-06T17:14:33Z</time></trkpt><trkpt lat="40.64039206182087" lon="8.743356682845008"><ele>349.0</ele><time>2026-04-06T17:14:34Z</time></trkpt><trkpt lat="40.64033692642875" lon="8.743684929854053"><ele>348.0</ele><time>2026-04-06T17:14:35Z</time></trkpt><trkpt lat="40.640282520314784" lon="8.744006783205508"><ele>347.0</ele><time>2026-04-06T17:14:36Z</time></trkpt><trkpt lat="40.64023163515201" lon="8.744328084244783"><ele>346.0</ele><time>2026-04-06T17:14:37Z</time></trkpt><trkpt lat="40.64017767316626" lon="8.744646758619515"><ele>345.5</ele><time>2026-04-06T17:14:38Z</time></trkpt><trkpt lat="40.640126248458714" lon="8.744961979848158"><ele>345.0</ele><time>2026-04-06T17:14:39Z</time></trkpt><trkpt lat="40.64007401188037" lon="8.745278442430047"><ele>344.0</ele><time>2026-04-06T17:14:40Z</time></trkpt><trkpt lat="40.64002188443814" lon="8.745594908237468"><ele>343.0</ele><time>2026-04-06T17:14:41Z</time></trkpt><trkpt lat="40.63997136724499" lon="8.74590946766901"><ele>342.0</ele><time>2026-04-06T17:14:42Z</time></trkpt><trkpt lat="40.639921216890784" lon="8.746224638250398"><ele>341.0</ele><time>2026-04-06T17:14:43Z</time></trkpt><trkpt lat="40.639873155086335" lon="8.746531690456687"><ele>341.0</ele><time>2026-04-06T17:14:44Z</time></trkpt><trkpt lat="40.639823047341615" lon="8.746844019056326"><ele>341.0</ele><time>2026-04-06T17:14:45Z</time></trkpt><trkpt lat="40.639771170921804" lon="8.74715600548492"><ele>341.0</ele><time>2026-04-06T17:14:46Z</time></trkpt><trkpt lat="40.63971904956247" lon="8.747467466938808"><ele>341.0</ele><time>2026-04-06T17:14:47Z</time></trkpt><trkpt lat="40.6396671196912" lon="8.747784585797769"><ele>341.0</ele><time>2026-04-06T17:14:48Z</time></trkpt><trkpt lat="40.6396161776932" lon="8.748100407637512"><ele>341.0</ele><time>2026-04-06T17:14:49Z</time></trkpt><trkpt lat="40.63956455341531" lon="8.74842178640903"><ele>340.5</ele><time>2026-04-06T17:14:50Z</time></trkpt><trkpt lat="40.63951112024969" lon="8.74874219365561"><ele>340.0</ele><time>2026-04-06T17:14:51Z</time></trkpt><trkpt lat="40.63945689130458" lon="8.749073629373886"><ele>339.5</ele><time>2026-04-06T17:14:52Z</time></trkpt><trkpt lat="40.63940434213371" lon="8.74939468227111"><ele>339.0</ele><time>2026-04-06T17:14:53Z</time></trkpt><trkpt lat="40.63935247152392" lon="8.749722640980668"><ele>339.0</ele><time>2026-04-06T17:14:54Z</time></trkpt><trkpt lat="40.639302350441206" lon="8.750045192518872"><ele>339.0</ele><time>2026-04-06T17:14:55Z</time></trkpt><trkpt lat="40.63925086006192" lon="8.750371189948453"><ele>338.5</ele><time>2026-04-06T17:14:56Z</time></trkpt><trkpt lat="40.63919642534804" lon="8.750698073988953"><ele>338.0</ele><time>2026-04-06T17:14:57Z</time></trkpt><trkpt lat="40.63914592232893" lon="8.751018608104541"><ele>339.0</ele><time>2026-04-06T17:14:58Z</time></trkpt><trkpt lat="40.63908967747226" lon="8.751347125539716"><ele>340.0</ele><time>2026-04-06T17:14:59Z</time></trkpt><trkpt lat="40.63903608559228" lon="8.751669138449115"><ele>341.0</ele><time>2026-04-06T17:15:00Z</time></trkpt><trkpt lat="40.63898336291336" lon="8.751993681042048"><ele>342.0</ele><time>2026-04-06T17:15:01Z</time></trkpt><trkpt lat="40.638932683168946" lon="8.752314457749776"><ele>342.0</ele><time>2026-04-06T17:15:02Z</time></trkpt><trkpt lat="40.63888375428368" lon="8.752636926971011"><ele>342.0</ele><time>2026-04-06T17:15:03Z</time></trkpt><trkpt lat="40.638837893998314" lon="8.752960473120353"><ele>342.0</ele><time>2026-04-06T17:15:04Z</time></trkpt><trkpt lat="40.63879174377527" lon="8.753281541233141"><ele>342.0</ele><time>2026-04-06T17:15:05Z</time></trkpt><trkpt lat="40.63875088077978" lon="8.753611759414984"><ele>343.0</ele><time>2026-04-06T17:15:06Z</time></trkpt><trkpt lat="40.63871047697764" lon="8.753932158937891"><ele>344.0</ele><time>2026-04-06T17:15:07Z</time></trkpt><trkpt lat="40.638675062556544" lon="8.75425668685925"><ele>343.5</ele><time>2026-04-06T17:15:08Z</time></trkpt><trkpt lat="40.638642675649756" lon="8.754579605862677"><ele>343.0</ele><time>2026-04-06T17:15:09Z</time></trkpt><trkpt lat="40.638613652214055" lon="8.754908172465168"><ele>343.5</ele><time>2026-04-06T17:15:10Z</time></trkpt><trkpt lat="40.63858848495756" lon="8.755232596201012"><ele>344.0</ele><time>2026-04-06T17:15:11Z</time></trkpt><trkpt lat="40.638567181765005" lon="8.755556443778541"><ele>344.0</ele><time>2026-04-06T17:15:12Z</time></trkpt><trkpt lat="40.63854966095207" lon="8.755881222010911"><ele>344.0</ele><time>2026-04-06T17:15:13Z</time></trkpt><trkpt lat="40.638538542179006" lon="8.75620375414821"><ele>344.0</ele><time>2026-04-06T17:15:14Z</time></trkpt><trkpt lat="40.638529413083155" lon="8.75652931601148"><ele>344.0</ele><time>2026-04-06T17:15:15Z</time></trkpt><trkpt lat="40.63852490269938" lon="8.756854931974901"><ele>344.5</ele><time>2026-04-06T17:15:16Z</time></trkpt><trkpt lat="40.63852159040017" lon="8.75718191399666"><ele>345.0</ele><time>2026-04-06T17:15:17Z</time></trkpt><trkpt lat="40.63851876646266" lon="8.757512741481355"><ele>345.0</ele><time>2026-04-06T17:15:18Z</time></trkpt><trkpt lat="40.638525760430966" lon="8.757833113228454"><ele>345.0</ele><time>2026-04-06T17:15:19Z</time></trkpt><trkpt lat="40.63853248863735" lon="8.75816146361446"><ele>345.0</ele><time>2026-04-06T17:15:20Z</time></trkpt><trkpt lat="40.63854682015288" lon="8.758491820501701"><ele>345.0</ele><time>2026-04-06T17:15:21Z</time></trkpt><trkpt lat="40.638561262199076" lon="8.758819501343373"><ele>344.5</ele><time>2026-04-06T17:15:22Z</time></trkpt><trkpt lat="40.638580558639646" lon="8.7591503459198"><ele>344.0</ele><time>2026-04-06T17:15:23Z</time></trkpt><trkpt lat="40.63860157672252" lon="8.759474503180549"><ele>343.0</ele><time>2026-04-06T17:15:24Z</time></trkpt><trkpt lat="40.638626622990856" lon="8.759801801045564"><ele>342.0</ele><time>2026-04-06T17:15:25Z</time></trkpt><trkpt lat="40.638653037040015" lon="8.76013377075451"><ele>341.5</ele><time>2026-04-06T17:15:26Z</time></trkpt><trkpt lat="40.63867929834513" lon="8.760463877886309"><ele>341.0</ele><time>2026-04-06T17:15:27Z</time></trkpt><trkpt lat="40.63870701035673" lon="8.760794325487742"><ele>341.0</ele><time>2026-04-06T17:15:28Z</time></trkpt><trkpt lat="40.63873380992698" lon="8.761125403825266"><ele>341.0</ele><time>2026-04-06T17:15:29Z</time></trkpt><trkpt lat="40.638761859648675" lon="8.761462839616055"><ele>341.0</ele><time>2026-04-06T17:15:30Z</time></trkpt><trkpt lat="40.6387880780278" lon="8.761796963364272"><ele>341.0</ele><time>2026-04-06T17:15:31Z</time></trkpt><trkpt lat="40.63881383669571" lon="8.762133709652828"><ele>341.0</ele><time>2026-04-06T17:15:32Z</time></trkpt><trkpt lat="40.63884057950574" lon="8.762463532211198"><ele>341.0</ele><time>2026-04-06T17:15:33Z</time></trkpt><trkpt lat="40.638869794519266" lon="8.762802526112559"><ele>340.0</ele><time>2026-04-06T17:15:34Z</time></trkpt><trkpt lat="40.63889855150125" lon="8.763132977309894"><ele>339.0</ele><time>2026-04-06T17:15:35Z</time></trkpt><trkpt lat="40.63892687619829" lon="8.763461967583472"><ele>339.0</ele><time>2026-04-06T17:15:36Z</time></trkpt><trkpt lat="40.638952346988425" lon="8.763775831898428"><ele>339.0</ele><time>2026-04-06T17:15:37Z</time></trkpt><trkpt lat="40.63897845181614" lon="8.764090931780459"><ele>339.0</ele><time>2026-04-06T17:15:38Z</time></trkpt><trkpt lat="40.63900369105567" lon="8.764401742474705"><ele>339.0</ele><time>2026-04-06T17:15:39Z</time></trkpt><trkpt lat="40.63903151570903" lon="8.764709925825226"><ele>339.0</ele><time>2026-04-06T17:15:40Z</time></trkpt><trkpt lat="40.63905894279485" lon="8.765018195308024"><ele>339.0</ele><time>2026-04-06T17:15:41Z</time></trkpt><trkpt lat="40.639087525900685" lon="8.76533048332471"><ele>338.5</ele><time>2026-04-06T17:15:42Z</time></trkpt><trkpt lat="40.63911693500541" lon="8.76564227138414"><ele>338.0</ele><time>2026-04-06T17:15:43Z</time></trkpt><trkpt lat="40.63914596899261" lon="8.765952221330297"><ele>337.0</ele><time>2026-04-06T17:15:44Z</time></trkpt><trkpt lat="40.639176661564804" lon="8.766264854561472"><ele>336.0</ele><time>2026-04-06T17:15:45Z</time></trkpt><trkpt lat="40.639210092791764" lon="8.766581619288518"><ele>335.5</ele><time>2026-04-06T17:15:46Z</time></trkpt><trkpt lat="40.639244074949964" lon="8.766894616383944"><ele>335.0</ele><time>2026-04-06T17:15:47Z</time></trkpt><trkpt lat="40.6392804385436" lon="8.767202400272106"><ele>335.0</ele><time>2026-04-06T17:15:48Z</time></trkpt><trkpt lat="40.6393172668614" lon="8.767521873413308"><ele>335.0</ele><time>2026-04-06T17:15:49Z</time></trkpt><trkpt lat="40.63935596059055" lon="8.7678363813818"><ele>335.0</ele><time>2026-04-06T17:15:50Z</time></trkpt><trkpt lat="40.63939688830658" lon="8.768149816110544"><ele>335.0</ele><time>2026-04-06T17:15:51Z</time></trkpt><trkpt lat="40.63943962335554" lon="8.76846521337351"><ele>335.0</ele><time>2026-04-06T17:15:52Z</time></trkpt><trkpt lat="40.63948493091682" lon="8.768782098944914"><ele>335.0</ele><time>2026-04-06T17:15:53Z</time></trkpt><trkpt lat="40.6395319247151" lon="8.76910406349927"><ele>334.5</ele><time>2026-04-06T17:15:54Z</time></trkpt><trkpt lat="40.63958084382156" lon="8.769426981178663"><ele>334.0</ele><time>2026-04-06T17:15:55Z</time></trkpt><trkpt lat="40.63963271564589" lon="8.769750576672706"><ele>334.0</ele><time>2026-04-06T17:15:56Z</time></trkpt><trkpt lat="40.639689251410246" lon="8.770074847070697"><ele>334.0</ele><time>2026-04-06T17:15:57Z</time></trkpt><trkpt lat="40.639748926766465" lon="8.770401028021652"><ele>334.5</ele><time>2026-04-06T17:15:58Z</time></trkpt><trkpt lat="40.6398080070854" lon="8.770726313692816"><ele>335.0</ele><time>2026-04-06T17:15:59Z</time></trkpt><trkpt lat="40.639868831586945" lon="8.771054947909093"><ele>335.5</ele><time>2026-04-06T17:16:00Z</time></trkpt><trkpt lat="40.63993079939345" lon="8.771385438676663"><ele>336.0</ele><time>2026-04-06T17:16:01Z</time></trkpt><trkpt lat="40.639993227143485" lon="8.771720317302146"><ele>335.0</ele><time>2026-04-06T17:16:02Z</time></trkpt><trkpt lat="40.640056348392804" lon="8.772049488745465"><ele>334.0</ele><time>2026-04-06T17:16:03Z</time></trkpt><trkpt lat="40.64012251759156" lon="8.772383242965686"><ele>332.5</ele><time>2026-04-06T17:16:04Z</time></trkpt><trkpt lat="40.64018850282468" lon="8.772710993493593"><ele>331.0</ele><time>2026-04-06T17:16:05Z</time></trkpt><trkpt lat="40.64025403623599" lon="8.773046130462385"><ele>330.5</ele><time>2026-04-06T17:16:06Z</time></trkpt><trkpt lat="40.640317385716045" lon="8.773382746595157"><ele>330.0</ele><time>2026-04-06T17:16:07Z</time></trkpt><trkpt lat="40.640380607744994" lon="8.77372538093596"><ele>328.5</ele><time>2026-04-06T17:16:08Z</time></trkpt><trkpt lat="40.640443577252704" lon="8.77406571503079"><ele>327.0</ele><time>2026-04-06T17:16:09Z</time></trkpt><trkpt lat="40.64050895449541" lon="8.774410373768736"><ele>324.0</ele><time>2026-04-06T17:16:10Z</time></trkpt><trkpt lat="40.640575149073705" lon="8.774753022998933"><ele>321.0</ele><time>2026-04-06T17:16:11Z</time></trkpt><trkpt lat="40.640641761315756" lon="8.775088653339669"><ele>319.5</ele><time>2026-04-06T17:16:12Z</time></trkpt><trkpt lat="40.640708325150634" lon="8.775433261476584"><ele>318.0</ele><time>2026-04-06T17:16:13Z</time></trkpt><trkpt lat="40.64077663761813" lon="8.775772157242276"><ele>317.5</ele><time>2026-04-06T17:16:14Z</time></trkpt><trkpt lat="40.64084259283779" lon="8.776109937952105"><ele>317.0</ele><time>2026-04-06T17:16:15Z</time></trkpt><trkpt lat="40.640907151347285" lon="8.776450762260575"><ele>317.0</ele><time>2026-04-06T17:16:16Z</time></trkpt><trkpt lat="40.64097040336973" lon="8.77679004966708"><ele>317.0</ele><time>2026-04-06T17:16:17Z</time></trkpt><trkpt lat="40.641032079423056" lon="8.777126018642946"><ele>316.0</ele><time>2026-04-06T17:16:18Z</time></trkpt><trkpt lat="40.64109224645577" lon="8.777460620943367"><ele>315.0</ele><time>2026-04-06T17:16:19Z</time></trkpt><trkpt lat="40.64114950766054" lon="8.777793167695162"><ele>315.0</ele><time>2026-04-06T17:16:20Z</time></trkpt><trkpt lat="40.641204643817524" lon="8.77812377385719"><ele>315.0</ele><time>2026-04-06T17:16:21Z</time></trkpt><trkpt lat="40.64125626734265" lon="8.778457262679073"><ele>315.0</ele><time>2026-04-06T17:16:22Z</time></trkpt><trkpt lat="40.64130511484546" lon="8.778783633095156"><ele>315.0</ele><time>2026-04-06T17:16:23Z</time></trkpt><trkpt lat="40.64135289212507" lon="8.779115523133923"><ele>313.5</ele><time>2026-04-06T17:16:24Z</time></trkpt><trkpt lat="40.64139647618602" lon="8.779446113753293"><ele>312.0</ele><time>2026-04-06T17:16:25Z</time></trkpt><trkpt lat="40.64143535628246" lon="8.779777105253334"><ele>312.0</ele><time>2026-04-06T17:16:26Z</time></trkpt><trkpt lat="40.64146826239634" lon="8.780105360175087"><ele>312.0</ele><time>2026-04-06T17:16:27Z</time></trkpt><trkpt lat="40.641499267296645" lon="8.780434454317914"><ele>311.5</ele><time>2026-04-06T17:16:28Z</time></trkpt><trkpt lat="40.64152654440482" lon="8.780759175818053"><ele>311.0</ele><time>2026-04-06T17:16:29Z</time></trkpt><trkpt lat="40.64155154261016" lon="8.781083600610692"><ele>311.0</ele><time>2026-04-06T17:16:30Z</time></trkpt><trkpt lat="40.641571801845906" lon="8.781408789795583"><ele>311.0</ele><time>2026-04-06T17:16:31Z</time></trkpt><trkpt lat="40.641589176685784" lon="8.781732799028406"><ele>310.5</ele><time>2026-04-06T17:16:32Z</time></trkpt><trkpt lat="40.64160352515102" lon="8.782057513018264"><ele>310.0</ele><time>2026-04-06T17:16:33Z</time></trkpt><trkpt lat="40.641615773781446" lon="8.782378015272116"><ele>310.5</ele><time>2026-04-06T17:16:34Z</time></trkpt><trkpt lat="40.64162444691919" lon="8.782697552875083"><ele>311.0</ele><time>2026-04-06T17:16:35Z</time></trkpt><trkpt lat="40.64162874678334" lon="8.783024072485563"><ele>311.0</ele><time>2026-04-06T17:16:36Z</time></trkpt><trkpt lat="40.64162922317944" lon="8.783341245538258"><ele>311.0</ele><time>2026-04-06T17:16:37Z</time></trkpt><trkpt lat="40.64162707745205" lon="8.783669380391919"><ele>310.5</ele><time>2026-04-06T17:16:38Z</time></trkpt><trkpt lat="40.6416224691131" lon="8.783985771955576"><ele>310.0</ele><time>2026-04-06T17:16:39Z</time></trkpt><trkpt lat="40.64161482587726" lon="8.784309595485835"><ele>308.5</ele><time>2026-04-06T17:16:40Z</time></trkpt><trkpt lat="40.64160352505159" lon="8.784631072034443"><ele>307.0</ele><time>2026-04-06T17:16:41Z</time></trkpt><trkpt lat="40.64159097135595" lon="8.784945620908111"><ele>306.5</ele><time>2026-04-06T17:16:42Z</time></trkpt><trkpt lat="40.64157384827164" lon="8.785268861071835"><ele>306.0</ele><time>2026-04-06T17:16:43Z</time></trkpt><trkpt lat="40.641555979648345" lon="8.785587570272192"><ele>306.0</ele><time>2026-04-06T17:16:44Z</time></trkpt><trkpt lat="40.641539718808936" lon="8.78591038436051"><ele>306.0</ele><time>2026-04-06T17:16:45Z</time></trkpt><trkpt lat="40.64152260685932" lon="8.786232091678864"><ele>305.5</ele><time>2026-04-06T17:16:46Z</time></trkpt><trkpt lat="40.641505489056556" lon="8.786552065477615"><ele>305.0</ele><time>2026-04-06T17:16:47Z</time></trkpt><trkpt lat="40.64148740194838" lon="8.786879157372331"><ele>306.0</ele><time>2026-04-06T17:16:48Z</time></trkpt><trkpt lat="40.64146879756409" lon="8.787202553789097"><ele>307.0</ele><time>2026-04-06T17:16:49Z</time></trkpt><trkpt lat="40.6414512999116" lon="8.787529621399583"><ele>306.0</ele><time>2026-04-06T17:16:50Z</time></trkpt><trkpt lat="40.641433545746715" lon="8.787847035295966"><ele>305.0</ele><time>2026-04-06T17:16:51Z</time></trkpt><trkpt lat="40.64141807781062" lon="8.788177675193499"><ele>305.0</ele><time>2026-04-06T17:16:52Z</time></trkpt><trkpt lat="40.641400215045465" lon="8.788496675930391"><ele>305.0</ele><time>2026-04-06T17:16:53Z</time></trkpt><trkpt lat="40.64138093008174" lon="8.788820960391682"><ele>303.5</ele><time>2026-04-06T17:16:54Z</time></trkpt><trkpt lat="40.64136183226621" lon="8.789143908110447"><ele>302.0</ele><time>2026-04-06T17:16:55Z</time></trkpt><trkpt lat="40.64134268339919" lon="8.789465846562582"><ele>301.0</ele><time>2026-04-06T17:16:56Z</time></trkpt><trkpt lat="40.64132467633728" lon="8.789786945279277"><ele>300.0</ele><time>2026-04-06T17:16:57Z</time></trkpt><trkpt lat="40.64130672193126" lon="8.790108359932525"><ele>299.5</ele><time>2026-04-06T17:16:58Z</time></trkpt><trkpt lat="40.641287771057044" lon="8.790430592969496"><ele>299.0</ele><time>2026-04-06T17:16:59Z</time></trkpt><trkpt lat="40.64126795870705" lon="8.790754594883463"><ele>298.0</ele><time>2026-04-06T17:17:00Z</time></trkpt><trkpt lat="40.64124862142441" lon="8.79107273542673"><ele>297.0</ele><time>2026-04-06T17:17:01Z</time></trkpt><trkpt lat="40.64123020285336" lon="8.791393100174181"><ele>297.0</ele><time>2026-04-06T17:17:02Z</time></trkpt><trkpt lat="40.64121245121103" lon="8.79171536499342"><ele>297.0</ele><time>2026-04-06T17:17:03Z</time></trkpt><trkpt lat="40.641195220964065" lon="8.792036047322018"><ele>296.5</ele><time>2026-04-06T17:17:04Z</time></trkpt><trkpt lat="40.641177130608064" lon="8.79235034800337"><ele>296.0</ele><time>2026-04-06T17:17:05Z</time></trkpt><trkpt lat="40.641159476282866" lon="8.792671817205452"><ele>295.5</ele><time>2026-04-06T17:17:06Z</time></trkpt><trkpt lat="40.641142314925425" lon="8.792989747065192"><ele>295.0</ele><time>2026-04-06T17:17:07Z</time></trkpt><trkpt lat="40.641127093822924" lon="8.793311192991025"><ele>294.5</ele><time>2026-04-06T17:17:08Z</time></trkpt><trkpt lat="40.641111385274336" lon="8.793629341912553"><ele>294.0</ele><time>2026-04-06T17:17:09Z</time></trkpt><trkpt lat="40.641095452647924" lon="8.793939455717917"><ele>294.0</ele><time>2026-04-06T17:17:10Z</time></trkpt><trkpt lat="40.64107874239469" lon="8.79424997278611"><ele>294.0</ele><time>2026-04-06T17:17:11Z</time></trkpt><trkpt lat="40.64106053340943" lon="8.794564392540316"><ele>293.5</ele><time>2026-04-06T17:17:12Z</time></trkpt><trkpt lat="40.641041204907616" lon="8.794890800384552"><ele>293.0</ele><time>2026-04-06T17:17:13Z</time></trkpt><trkpt lat="40.641020029665505" lon="8.795220183524773"><ele>293.0</ele><time>2026-04-06T17:17:14Z</time></trkpt><trkpt lat="40.64099806918303" lon="8.795550063913526"><ele>293.0</ele><time>2026-04-06T17:17:15Z</time></trkpt><trkpt lat="40.64097533685039" lon="8.795883192591566"><ele>293.0</ele><time>2026-04-06T17:17:16Z</time></trkpt><trkpt lat="40.64095205415255" lon="8.796212060762196"><ele>293.0</ele><time>2026-04-06T17:17:17Z</time></trkpt><trkpt lat="40.64092825233566" lon="8.796545158986856"><ele>292.5</ele><time>2026-04-06T17:17:18Z</time></trkpt><trkpt lat="40.640901478276426" lon="8.79687717852055"><ele>292.0</ele><time>2026-04-06T17:17:19Z</time></trkpt><trkpt lat="40.6408708250423" lon="8.7972112364464"><ele>292.0</ele><time>2026-04-06T17:17:20Z</time></trkpt><trkpt lat="40.640837430558214" lon="8.797544515352715"><ele>292.0</ele><time>2026-04-06T17:17:21Z</time></trkpt><trkpt lat="40.64080079602491" lon="8.797880129266995"><ele>292.5</ele><time>2026-04-06T17:17:22Z</time></trkpt><trkpt lat="40.640760487576316" lon="8.798209631967747"><ele>293.0</ele><time>2026-04-06T17:17:23Z</time></trkpt><trkpt lat="40.64071692031541" lon="8.798542415873932"><ele>292.0</ele><time>2026-04-06T17:17:24Z</time></trkpt><trkpt lat="40.64067079086675" lon="8.79887368922857"><ele>291.0</ele><time>2026-04-06T17:17:25Z</time></trkpt><trkpt lat="40.64061997074014" lon="8.799209156128434"><ele>291.5</ele><time>2026-04-06T17:17:26Z</time></trkpt><trkpt lat="40.64056771388349" lon="8.799532746418192"><ele>292.0</ele><time>2026-04-06T17:17:27Z</time></trkpt><trkpt lat="40.64050927049276" lon="8.799870391034666"><ele>292.0</ele><time>2026-04-06T17:17:28Z</time></trkpt><trkpt lat="40.640447801787495" lon="8.80019249290203"><ele>292.0</ele><time>2026-04-06T17:17:29Z</time></trkpt><trkpt lat="40.640383579989404" lon="8.800512785685962"><ele>292.0</ele><time>2026-04-06T17:17:30Z</time></trkpt><trkpt lat="40.64031528307457" lon="8.800839953429088"><ele>292.0</ele><time>2026-04-06T17:17:31Z</time></trkpt><trkpt lat="40.64024693645772" lon="8.801160995875764"><ele>291.5</ele><time>2026-04-06T17:17:32Z</time></trkpt><trkpt lat="40.640175836563785" lon="8.801479543535716"><ele>291.0</ele><time>2026-04-06T17:17:33Z</time></trkpt><trkpt lat="40.64010073391659" lon="8.801794444064628"><ele>291.5</ele><time>2026-04-06T17:17:34Z</time></trkpt><trkpt lat="40.64002226014887" lon="8.802107709944764"><ele>292.0</ele><time>2026-04-06T17:17:35Z</time></trkpt><trkpt lat="40.639939175824274" lon="8.802423929595301"><ele>291.5</ele><time>2026-04-06T17:17:36Z</time></trkpt><trkpt lat="40.639854500655005" lon="8.802739761607723"><ele>291.0</ele><time>2026-04-06T17:17:37Z</time></trkpt><trkpt lat="40.63976904832889" lon="8.803049960402053"><ele>291.0</ele><time>2026-04-06T17:17:38Z</time></trkpt><trkpt lat="40.63968143441495" lon="8.803361816572682"><ele>291.0</ele><time>2026-04-06T17:17:39Z</time></trkpt><trkpt lat="40.639594685091275" lon="8.803672891005762"><ele>289.5</ele><time>2026-04-06T17:17:40Z</time></trkpt><trkpt lat="40.639507401693166" lon="8.803984851719989"><ele>288.0</ele><time>2026-04-06T17:17:41Z</time></trkpt><trkpt lat="40.63942190990525" lon="8.804294069885541"><ele>287.0</ele><time>2026-04-06T17:17:42Z</time></trkpt><trkpt lat="40.639335221806334" lon="8.804604604296685"><ele>286.0</ele><time>2026-04-06T17:17:43Z</time></trkpt><trkpt lat="40.63924805483131" lon="8.804912531795507"><ele>286.0</ele><time>2026-04-06T17:17:44Z</time></trkpt><trkpt lat="40.63916089977614" lon="8.805219919096757"><ele>286.0</ele><time>2026-04-06T17:17:45Z</time></trkpt><trkpt lat="40.63906900160452" lon="8.805533094832885"><ele>286.0</ele><time>2026-04-06T17:17:46Z</time></trkpt><trkpt lat="40.63898506561323" lon="8.805846809373481"><ele>286.0</ele><time>2026-04-06T17:17:47Z</time></trkpt><trkpt lat="40.638898408925485" lon="8.806160605475288"><ele>287.0</ele><time>2026-04-06T17:17:48Z</time></trkpt><trkpt lat="40.63881081543652" lon="8.806475112480685"><ele>288.0</ele><time>2026-04-06T17:17:49Z</time></trkpt><trkpt lat="40.63872198071138" lon="8.806788758175145"><ele>287.5</ele><time>2026-04-06T17:17:50Z</time></trkpt><trkpt lat="40.63863334504169" lon="8.807103699724905"><ele>287.0</ele><time>2026-04-06T17:17:51Z</time></trkpt><trkpt lat="40.638546459199034" lon="8.807410872968251"><ele>287.5</ele><time>2026-04-06T17:17:52Z</time></trkpt><trkpt lat="40.63845957914825" lon="8.807723257238425"><ele>288.0</ele><time>2026-04-06T17:17:53Z</time></trkpt><trkpt lat="40.63837290637682" lon="8.808041202024592"><ele>288.0</ele><time>2026-04-06T17:17:54Z</time></trkpt><trkpt lat="40.63828748259027" lon="8.808351671069499"><ele>288.0</ele><time>2026-04-06T17:17:55Z</time></trkpt><trkpt lat="40.638200780912335" lon="8.808660619711667"><ele>288.0</ele><time>2026-04-06T17:17:56Z</time></trkpt><trkpt lat="40.63811162429501" lon="8.808970194659302"><ele>288.0</ele><time>2026-04-06T17:17:57Z</time></trkpt><trkpt lat="40.63802372899144" lon="8.809281478955134"><ele>288.5</ele><time>2026-04-06T17:17:58Z</time></trkpt><trkpt lat="40.63793607433695" lon="8.809595346095216"><ele>289.0</ele><time>2026-04-06T17:17:59Z</time></trkpt><trkpt lat="40.63784925512392" lon="8.809904248260844"><ele>289.5</ele><time>2026-04-06T17:18:00Z</time></trkpt><trkpt lat="40.63776198037555" lon="8.810218269565539"><ele>290.0</ele><time>2026-04-06T17:18:01Z</time></trkpt><trkpt lat="40.63767625516313" lon="8.810526683003303"><ele>290.0</ele><time>2026-04-06T17:18:02Z</time></trkpt><trkpt lat="40.63758813977929" lon="8.810839530427511"><ele>290.0</ele><time>2026-04-06T17:18:03Z</time></trkpt><trkpt lat="40.63749941838368" lon="8.81115600144933"><ele>289.5</ele><time>2026-04-06T17:18:04Z</time></trkpt><trkpt lat="40.63741251861749" lon="8.81146541856303"><ele>289.0</ele><time>2026-04-06T17:18:05Z</time></trkpt><trkpt lat="40.63732525792936" lon="8.811777259317065"><ele>289.0</ele><time>2026-04-06T17:18:06Z</time></trkpt><trkpt lat="40.637237822679154" lon="8.8120901872323"><ele>289.0</ele><time>2026-04-06T17:18:07Z</time></trkpt><trkpt lat="40.637150925985374" lon="8.81240604010854"><ele>287.0</ele><time>2026-04-06T17:18:08Z</time></trkpt><trkpt lat="40.637065059364225" lon="8.812715953591303"><ele>285.0</ele><time>2026-04-06T17:18:09Z</time></trkpt><trkpt lat="40.636976675917495" lon="8.813029299914565"><ele>284.5</ele><time>2026-04-06T17:18:10Z</time></trkpt><trkpt lat="40.6368874157712" lon="8.813347748340256"><ele>284.0</ele><time>2026-04-06T17:18:11Z</time></trkpt><trkpt lat="40.63679938864498" lon="8.813663493383995"><ele>284.0</ele><time>2026-04-06T17:18:12Z</time></trkpt><trkpt lat="40.63671040692519" lon="8.813978401023416"><ele>284.0</ele><time>2026-04-06T17:18:13Z</time></trkpt><trkpt lat="40.636619903913775" lon="8.814301424739389"><ele>282.5</ele><time>2026-04-06T17:18:14Z</time></trkpt><trkpt lat="40.63652895082778" lon="8.814619411530392"><ele>281.0</ele><time>2026-04-06T17:18:15Z</time></trkpt><trkpt lat="40.63643678792681" lon="8.814942705310415"><ele>279.0</ele><time>2026-04-06T17:18:16Z</time></trkpt><trkpt lat="40.63634540162025" lon="8.815262421604574"><ele>277.0</ele><time>2026-04-06T17:18:17Z</time></trkpt><trkpt lat="40.63625247035657" lon="8.815589673490672"><ele>277.0</ele><time>2026-04-06T17:18:18Z</time></trkpt><trkpt lat="40.63615977797854" lon="8.81591623331143"><ele>277.0</ele><time>2026-04-06T17:18:19Z</time></trkpt><trkpt lat="40.636069035849054" lon="8.816236576363723"><ele>275.0</ele><time>2026-04-06T17:18:20Z</time></trkpt><trkpt lat="40.63597449396452" lon="8.81656620293612"><ele>273.0</ele><time>2026-04-06T17:18:21Z</time></trkpt><trkpt lat="40.63588122323777" lon="8.816897315154772"><ele>273.0</ele><time>2026-04-06T17:18:22Z</time></trkpt><trkpt lat="40.63579020872658" lon="8.817225623401884"><ele>273.0</ele><time>2026-04-06T17:18:23Z</time></trkpt><trkpt lat="40.63569979930141" lon="8.817554318905202"><ele>273.0</ele><time>2026-04-06T17:18:24Z</time></trkpt><trkpt lat="40.63560908985018" lon="8.817880004929636"><ele>273.0</ele><time>2026-04-06T17:18:25Z</time></trkpt><trkpt lat="40.635517051949826" lon="8.818207033756384"><ele>273.0</ele><time>2026-04-06T17:18:26Z</time></trkpt><trkpt lat="40.635423648930995" lon="8.818535049118308"><ele>273.0</ele><time>2026-04-06T17:18:27Z</time></trkpt><trkpt lat="40.63533341769756" lon="8.818856013261037"><ele>269.5</ele><time>2026-04-06T17:18:28Z</time></trkpt><trkpt lat="40.635246424763835" lon="8.81916487312305"><ele>266.0</ele><time>2026-04-06T17:18:29Z</time></trkpt><trkpt lat="40.63516660688068" lon="8.819459688831065"><ele>264.5</ele><time>2026-04-06T17:18:30Z</time></trkpt><trkpt lat="40.63508522285449" lon="8.819763862117481"><ele>263.0</ele><time>2026-04-06T17:18:31Z</time></trkpt><trkpt lat="40.6350026457877" lon="8.82007475681892"><ele>264.5</ele><time>2026-04-06T17:18:32Z</time></trkpt><trkpt lat="40.634918246843085" lon="8.820396097350823"><ele>266.0</ele><time>2026-04-06T17:18:33Z</time></trkpt><trkpt lat="40.63483577752767" lon="8.820720880652758"><ele>265.0</ele><time>2026-04-06T17:18:34Z</time></trkpt><trkpt lat="40.634756004445386" lon="8.82104870161113"><ele>264.0</ele><time>2026-04-06T17:18:35Z</time></trkpt><trkpt lat="40.63467929063339" lon="8.821390227104605"><ele>264.0</ele><time>2026-04-06T17:18:36Z</time></trkpt><trkpt lat="40.63460447651331" lon="8.821734409770256"><ele>264.0</ele><time>2026-04-06T17:18:37Z</time></trkpt><trkpt lat="40.63453129769006" lon="8.822081151881223"><ele>255.0</ele><time>2026-04-06T17:18:38Z</time></trkpt><trkpt lat="40.63446201047876" lon="8.82243299951424"><ele>246.0</ele><time>2026-04-06T17:18:39Z</time></trkpt><trkpt lat="40.63439741237112" lon="8.822785505609499"><ele>246.0</ele><time>2026-04-06T17:18:40Z</time></trkpt><trkpt lat="40.634341255582726" lon="8.823135435368147"><ele>246.0</ele><time>2026-04-06T17:18:41Z</time></trkpt><trkpt lat="40.6342886720615" lon="8.823476085799879"><ele>244.5</ele><time>2026-04-06T17:18:42Z</time></trkpt><trkpt lat="40.63424139176193" lon="8.823802127840045"><ele>243.0</ele><time>2026-04-06T17:18:43Z</time></trkpt><trkpt lat="40.63419944860686" lon="8.824117652123856"><ele>243.5</ele><time>2026-04-06T17:18:44Z</time></trkpt><trkpt lat="40.634160291252705" lon="8.824435269166695"><ele>244.0</ele><time>2026-04-06T17:18:45Z</time></trkpt><trkpt lat="40.63412299279302" lon="8.824752143083625"><ele>244.0</ele><time>2026-04-06T17:18:46Z</time></trkpt><trkpt lat="40.63408792996758" lon="8.825081121359835"><ele>244.0</ele><time>2026-04-06T17:18:47Z</time></trkpt><trkpt lat="40.63405689680991" lon="8.82540780790462"><ele>244.0</ele><time>2026-04-06T17:18:48Z</time></trkpt><trkpt lat="40.63402910686959" lon="8.825739208329614"><ele>244.0</ele><time>2026-04-06T17:18:49Z</time></trkpt><trkpt lat="40.63400307914619" lon="8.826077177734753"><ele>242.0</ele><time>2026-04-06T17:18:50Z</time></trkpt><trkpt lat="40.63398020276574" lon="8.826411900576009"><ele>240.0</ele><time>2026-04-06T17:18:51Z</time></trkpt><trkpt lat="40.633961388453706" lon="8.826750950039917"><ele>239.0</ele><time>2026-04-06T17:18:52Z</time></trkpt><trkpt lat="40.63394836477481" lon="8.827091771440456"><ele>238.0</ele><time>2026-04-06T17:18:53Z</time></trkpt><trkpt lat="40.63393909665852" lon="8.827419877638475"><ele>238.0</ele><time>2026-04-06T17:18:54Z</time></trkpt><trkpt lat="40.63392974953988" lon="8.82775634075423"><ele>238.0</ele><time>2026-04-06T17:18:55Z</time></trkpt><trkpt lat="40.63392015056316" lon="8.828087646058371"><ele>238.0</ele><time>2026-04-06T17:18:56Z</time></trkpt><trkpt lat="40.633913967284094" lon="8.828416605120097"><ele>238.0</ele><time>2026-04-06T17:18:57Z</time></trkpt><trkpt lat="40.63391665684853" lon="8.828754738406792"><ele>237.0</ele><time>2026-04-06T17:18:58Z</time></trkpt><trkpt lat="40.63392349170967" lon="8.829087036987692"><ele>236.0</ele><time>2026-04-06T17:18:59Z</time></trkpt><trkpt lat="40.633935928050136" lon="8.829420617845715"><ele>236.0</ele><time>2026-04-06T17:19:00Z</time></trkpt><trkpt lat="40.63395505408948" lon="8.829749622752031"><ele>236.0</ele><time>2026-04-06T17:19:01Z</time></trkpt><trkpt lat="40.633977814910864" lon="8.83008328996978"><ele>235.5</ele><time>2026-04-06T17:19:01.999Z</time></trkpt><trkpt lat="40.6340006057959" lon="8.830413316911587"><ele>235.0</ele><time>2026-04-06T17:19:02.999Z</time></trkpt><trkpt lat="40.63402552865571" lon="8.83074595383148"><ele>235.0</ele><time>2026-04-06T17:19:03.999Z</time></trkpt><trkpt lat="40.634051120112005" lon="8.831078172255852"><ele>235.0</ele><time>2026-04-06T17:19:04.999Z</time></trkpt><trkpt lat="40.63407778493974" lon="8.831410793865675"><ele>235.0</ele><time>2026-04-06T17:19:05.999Z</time></trkpt><trkpt lat="40.63410714012755" lon="8.831740532196386"><ele>235.0</ele><time>2026-04-06T17:19:06.999Z</time></trkpt><trkpt lat="40.634140162412905" lon="8.83207432504624"><ele>235.0</ele><time>2026-04-06T17:19:07.999Z</time></trkpt><trkpt lat="40.634177486371804" lon="8.832401724338533"><ele>235.0</ele><time>2026-04-06T17:19:08.999Z</time></trkpt><trkpt lat="40.63421718567962" lon="8.832730214587212"><ele>234.5</ele><time>2026-04-06T17:19:09.999Z</time></trkpt><trkpt lat="40.63425918550655" lon="8.83306047778047"><ele>234.0</ele><time>2026-04-06T17:19:10.999Z</time></trkpt><trkpt lat="40.634305649152154" lon="8.833386800209512"><ele>234.5</ele><time>2026-04-06T17:19:11.999Z</time></trkpt><trkpt lat="40.63435645386253" lon="8.833711372841755"><ele>235.0</ele><time>2026-04-06T17:19:12.999Z</time></trkpt><trkpt lat="40.634406458846655" lon="8.83403436297562"><ele>234.5</ele><time>2026-04-06T17:19:13.999Z</time></trkpt><trkpt lat="40.634460982007546" lon="8.834359393163027"><ele>234.0</ele><time>2026-04-06T17:19:14.999Z</time></trkpt><trkpt lat="40.63451369349054" lon="8.834679161588868"><ele>233.5</ele><time>2026-04-06T17:19:15.999Z</time></trkpt><trkpt lat="40.634565317043986" lon="8.83500176763716"><ele>233.0</ele><time>2026-04-06T17:19:16.999Z</time></trkpt><trkpt lat="40.63461580946838" lon="8.835324454314021"><ele>233.0</ele><time>2026-04-06T17:19:17.999Z</time></trkpt><trkpt lat="40.63466638365455" lon="8.83565183226864"><ele>233.0</ele><time>2026-04-06T17:19:18.999Z</time></trkpt><trkpt lat="40.634716182823" lon="8.835973075297852"><ele>233.5</ele><time>2026-04-06T17:19:19.999Z</time></trkpt><trkpt lat="40.634765866355075" lon="8.836293258701145"><ele>234.0</ele><time>2026-04-06T17:19:20.999Z</time></trkpt><trkpt lat="40.63481752924257" lon="8.836619476306826"><ele>235.0</ele><time>2026-04-06T17:19:21.999Z</time></trkpt><trkpt lat="40.63486811953661" lon="8.836943101884595"><ele>236.0</ele><time>2026-04-06T17:19:22.999Z</time></trkpt><trkpt lat="40.63491656008698" lon="8.837265084643697"><ele>236.0</ele><time>2026-04-06T17:19:23.999Z</time></trkpt><trkpt lat="40.634963221387835" lon="8.837591196225398"><ele>236.0</ele><time>2026-04-06T17:19:24.999Z</time></trkpt><trkpt lat="40.635006941383395" lon="8.837921937204312"><ele>237.0</ele><time>2026-04-06T17:19:25.999Z</time></trkpt><trkpt lat="40.63504792707732" lon="8.83825502186753"><ele>238.0</ele><time>2026-04-06T17:19:26.999Z</time></trkpt><trkpt lat="40.63508822927061" lon="8.838592031811997"><ele>239.0</ele><time>2026-04-06T17:19:27.999Z</time></trkpt><trkpt lat="40.63512697877938" lon="8.838929262911371"><ele>240.0</ele><time>2026-04-06T17:19:28.999Z</time></trkpt><trkpt lat="40.63516235495111" lon="8.839264830936392"><ele>239.5</ele><time>2026-04-06T17:19:29.999Z</time></trkpt><trkpt lat="40.635195752381954" lon="8.839601060937294"><ele>239.0</ele><time>2026-04-06T17:19:30.999Z</time></trkpt><trkpt lat="40.635225846585364" lon="8.839932593184697"><ele>238.0</ele><time>2026-04-06T17:19:31.999Z</time></trkpt><trkpt lat="40.63525339993714" lon="8.840266380859092"><ele>237.0</ele><time>2026-04-06T17:19:32.999Z</time></trkpt><trkpt lat="40.63527852280372" lon="8.84059358275641"><ele>237.0</ele><time>2026-04-06T17:19:33.999Z</time></trkpt><trkpt lat="40.635300331862936" lon="8.84092369834125"><ele>237.0</ele><time>2026-04-06T17:19:34.999Z</time></trkpt><trkpt lat="40.63532010459351" lon="8.841252111926744"><ele>238.0</ele><time>2026-04-06T17:19:35.999Z</time></trkpt><trkpt lat="40.63533650446671" lon="8.841577391616712"><ele>239.0</ele><time>2026-04-06T17:19:36.999Z</time></trkpt><trkpt lat="40.635350334624704" lon="8.84190451099076"><ele>239.0</ele><time>2026-04-06T17:19:37.999Z</time></trkpt><trkpt lat="40.63536256841967" lon="8.842232432100216"><ele>239.0</ele><time>2026-04-06T17:19:38.999Z</time></trkpt><trkpt lat="40.63537140161731" lon="8.842559204052767"><ele>238.0</ele><time>2026-04-06T17:19:39.999Z</time></trkpt><trkpt lat="40.63537905163196" lon="8.842887429429455"><ele>237.0</ele><time>2026-04-06T17:19:40.999Z</time></trkpt><trkpt lat="40.635385709406755" lon="8.843211035124074"><ele>236.5</ele><time>2026-04-06T17:19:41.999Z</time></trkpt><trkpt lat="40.6353929027462" lon="8.843534432433742"><ele>236.0</ele><time>2026-04-06T17:19:42.999Z</time></trkpt><trkpt lat="40.63539971025359" lon="8.843865585436467"><ele>236.0</ele><time>2026-04-06T17:19:43.999Z</time></trkpt><trkpt lat="40.6354077400165" lon="8.844188829158082"><ele>236.0</ele><time>2026-04-06T17:19:44.999Z</time></trkpt><trkpt lat="40.63541473432595" lon="8.844517395271069"><ele>236.0</ele><time>2026-04-06T17:19:45.999Z</time></trkpt><trkpt lat="40.635422670068046" lon="8.844845598028874"><ele>236.0</ele><time>2026-04-06T17:19:46.999Z</time></trkpt><trkpt lat="40.63543051504171" lon="8.845172032625756"><ele>235.5</ele><time>2026-04-06T17:19:47.999Z</time></trkpt><trkpt lat="40.63543871879749" lon="8.84550316136614"><ele>235.0</ele><time>2026-04-06T17:19:48.999Z</time></trkpt><trkpt lat="40.635446560464246" lon="8.845833342419693"><ele>233.5</ele><time>2026-04-06T17:19:49.999Z</time></trkpt><trkpt lat="40.63545406605238" lon="8.84616080794035"><ele>232.0</ele><time>2026-04-06T17:19:50.999Z</time></trkpt><trkpt lat="40.63546123108629" lon="8.846493996991763"><ele>231.0</ele><time>2026-04-06T17:19:51.998Z</time></trkpt><trkpt lat="40.63546903149891" lon="8.846821985290662"><ele>230.0</ele><time>2026-04-06T17:19:52.998Z</time></trkpt><trkpt lat="40.635475758754716" lon="8.84715076652613"><ele>230.0</ele><time>2026-04-06T17:19:53.998Z</time></trkpt><trkpt lat="40.635481964526484" lon="8.847480062722768"><ele>230.0</ele><time>2026-04-06T17:19:54.998Z</time></trkpt><trkpt lat="40.63548743943927" lon="8.847811515502283"><ele>229.5</ele><time>2026-04-06T17:19:55.998Z</time></trkpt><trkpt lat="40.635494266158474" lon="8.848140974689835"><ele>229.0</ele><time>2026-04-06T17:19:56.998Z</time></trkpt><trkpt lat="40.63550223928604" lon="8.848468409531579"><ele>229.0</ele><time>2026-04-06T17:19:57.998Z</time></trkpt><trkpt lat="40.63551029547456" lon="8.848795181936929"><ele>229.0</ele><time>2026-04-06T17:19:58.998Z</time></trkpt><trkpt lat="40.63551843550874" lon="8.849122197554106"><ele>229.0</ele><time>2026-04-06T17:19:59.998Z</time></trkpt><trkpt lat="40.63552645290915" lon="8.84944886772492"><ele>229.0</ele><time>2026-04-06T17:20:00.998Z</time></trkpt><trkpt lat="40.63553348670325" lon="8.84977481924262"><ele>229.0</ele><time>2026-04-06T17:20:01.998Z</time></trkpt><trkpt lat="40.635540928411835" lon="8.850099985896945"><ele>229.0</ele><time>2026-04-06T17:20:02.998Z</time></trkpt><trkpt lat="40.63554824135507" lon="8.850426102608711"><ele>228.5</ele><time>2026-04-06T17:20:03.998Z</time></trkpt><trkpt lat="40.635555082895955" lon="8.850746878595826"><ele>228.0</ele><time>2026-04-06T17:20:04.998Z</time></trkpt><trkpt lat="40.6355609957641" lon="8.851070160348954"><ele>228.0</ele><time>2026-04-06T17:20:05.998Z</time></trkpt><trkpt lat="40.63556772191931" lon="8.851395745626622"><ele>228.0</ele><time>2026-04-06T17:20:06.998Z</time></trkpt><trkpt lat="40.63557585362349" lon="8.85172882099174"><ele>227.0</ele><time>2026-04-06T17:20:07.998Z</time></trkpt><trkpt lat="40.63558391108679" lon="8.852058565333468"><ele>226.0</ele><time>2026-04-06T17:20:08.998Z</time></trkpt><trkpt lat="40.635591569293105" lon="8.852396208074952"><ele>226.0</ele><time>2026-04-06T17:20:09.998Z</time></trkpt><trkpt lat="40.63560039185095" lon="8.852731636980728"><ele>226.0</ele><time>2026-04-06T17:20:10.998Z</time></trkpt><trkpt lat="40.635609050645904" lon="8.853069757068404"><ele>226.0</ele><time>2026-04-06T17:20:11.998Z</time></trkpt><trkpt lat="40.63561711638612" lon="8.853408389526"><ele>226.0</ele><time>2026-04-06T17:20:12.998Z</time></trkpt><trkpt lat="40.635626819169964" lon="8.853744880988323"><ele>226.5</ele><time>2026-04-06T17:20:13.998Z</time></trkpt><trkpt lat="40.63563494769788" lon="8.854085683286254"><ele>227.0</ele><time>2026-04-06T17:20:14.998Z</time></trkpt><trkpt lat="40.63564183901362" lon="8.854420957171818"><ele>227.0</ele><time>2026-04-06T17:20:15.998Z</time></trkpt><trkpt lat="40.63564754080481" lon="8.85475228880949"><ele>227.0</ele><time>2026-04-06T17:20:16.998Z</time></trkpt><trkpt lat="40.63565134730349" lon="8.855086595657362"><ele>226.5</ele><time>2026-04-06T17:20:17.998Z</time></trkpt><trkpt lat="40.63565489456725" lon="8.85541885012613"><ele>226.0</ele><time>2026-04-06T17:20:18.998Z</time></trkpt><trkpt lat="40.6356586151194" lon="8.855748343618325"><ele>225.5</ele><time>2026-04-06T17:20:19.998Z</time></trkpt><trkpt lat="40.6356615157922" lon="8.856079859410762"><ele>225.0</ele><time>2026-04-06T17:20:20.998Z</time></trkpt><trkpt lat="40.635662309295576" lon="8.856408623264118"><ele>225.0</ele><time>2026-04-06T17:20:21.998Z</time></trkpt><trkpt lat="40.635661071018596" lon="8.856732267287342"><ele>225.0</ele><time>2026-04-06T17:20:22.998Z</time></trkpt><trkpt lat="40.63565650374937" lon="8.857058718606407"><ele>226.5</ele><time>2026-04-06T17:20:23.998Z</time></trkpt><trkpt lat="40.63565086739894" lon="8.857386742482165"><ele>228.0</ele><time>2026-04-06T17:20:24.998Z</time></trkpt><trkpt lat="40.63564279175614" lon="8.857711779880091"><ele>228.0</ele><time>2026-04-06T17:20:25.998Z</time></trkpt><trkpt lat="40.635634606804985" lon="8.858039278615385"><ele>228.0</ele><time>2026-04-06T17:20:26.998Z</time></trkpt><trkpt lat="40.63562595300196" lon="8.858362304072271"><ele>227.5</ele><time>2026-04-06T17:20:27.998Z</time></trkpt><trkpt lat="40.63561534191451" lon="8.858688197890299"><ele>227.0</ele><time>2026-04-06T17:20:28.998Z</time></trkpt><trkpt lat="40.63560094315344" lon="8.859015581702426"><ele>227.0</ele><time>2026-04-06T17:20:29.998Z</time></trkpt><trkpt lat="40.635585092273196" lon="8.85934234606378"><ele>227.0</ele><time>2026-04-06T17:20:30.998Z</time></trkpt><trkpt lat="40.635568908313424" lon="8.85967005653827"><ele>227.0</ele><time>2026-04-06T17:20:31.998Z</time></trkpt><trkpt lat="40.635551920072714" lon="8.859999151774181"><ele>227.0</ele><time>2026-04-06T17:20:32.998Z</time></trkpt><trkpt lat="40.63553364155166" lon="8.860328538663142"><ele>227.0</ele><time>2026-04-06T17:20:33.998Z</time></trkpt><trkpt lat="40.635512243132645" lon="8.860659901707338"><ele>227.0</ele><time>2026-04-06T17:20:34.998Z</time></trkpt><trkpt lat="40.635486482306604" lon="8.860991433638121"><ele>226.5</ele><time>2026-04-06T17:20:35.998Z</time></trkpt><trkpt lat="40.635456178212" lon="8.861322503747724"><ele>226.0</ele><time>2026-04-06T17:20:36.998Z</time></trkpt><trkpt lat="40.63542204120004" lon="8.861652951917389"><ele>226.5</ele><time>2026-04-06T17:20:37.998Z</time></trkpt><trkpt lat="40.635384898704146" lon="8.861983841140072"><ele>227.0</ele><time>2026-04-06T17:20:38.998Z</time></trkpt><trkpt lat="40.635349027069886" lon="8.86231176061186"><ele>227.5</ele><time>2026-04-06T17:20:39.998Z</time></trkpt><trkpt lat="40.63531730741921" lon="8.862638254050026"><ele>228.0</ele><time>2026-04-06T17:20:40.998Z</time></trkpt><trkpt lat="40.63528931221335" lon="8.862971142969771"><ele>227.5</ele><time>2026-04-06T17:20:41.998Z</time></trkpt><trkpt lat="40.63526287440362" lon="8.863298358329192"><ele>227.0</ele><time>2026-04-06T17:20:42.999Z</time></trkpt><trkpt lat="40.63523582163157" lon="8.863626233186832"><ele>227.0</ele><time>2026-04-06T17:20:43.999Z</time></trkpt><trkpt lat="40.63520697421921" lon="8.863953105691687"><ele>227.0</ele><time>2026-04-06T17:20:44.999Z</time></trkpt><trkpt lat="40.635177903287" lon="8.864278650224406"><ele>226.5</ele><time>2026-04-06T17:20:45.999Z</time></trkpt><trkpt lat="40.63514673152059" lon="8.864606559439881"><ele>226.0</ele><time>2026-04-06T17:20:46.999Z</time></trkpt><trkpt lat="40.635117511247245" lon="8.864927062913013"><ele>225.5</ele><time>2026-04-06T17:20:47.999Z</time></trkpt><trkpt lat="40.6350864948243" lon="8.865251313727217"><ele>225.0</ele><time>2026-04-06T17:20:48.999Z</time></trkpt><trkpt lat="40.63505645191076" lon="8.865578212227232"><ele>225.0</ele><time>2026-04-06T17:20:49.999Z</time></trkpt><trkpt lat="40.63502609679334" lon="8.865900960658289"><ele>225.0</ele><time>2026-04-06T17:20:50.999Z</time></trkpt><trkpt lat="40.63499862441507" lon="8.866226344509117"><ele>224.5</ele><time>2026-04-06T17:20:52Z</time></trkpt><trkpt lat="40.63497150352806" lon="8.866553730617385"><ele>224.0</ele><time>2026-04-06T17:20:53Z</time></trkpt><trkpt lat="40.63494348513093" lon="8.8668814871372"><ele>223.5</ele><time>2026-04-06T17:20:54Z</time></trkpt><trkpt lat="40.63491518008768" lon="8.867203587369923"><ele>223.0</ele><time>2026-04-06T17:20:55Z</time></trkpt><trkpt lat="40.63488841444664" lon="8.867532699403718"><ele>222.5</ele><time>2026-04-06T17:20:56Z</time></trkpt><trkpt lat="40.634861813933426" lon="8.867863336169226"><ele>222.0</ele><time>2026-04-06T17:20:57Z</time></trkpt><trkpt lat="40.63483566066922" lon="8.86819604653703"><ele>221.5</ele><time>2026-04-06T17:20:58Z</time></trkpt><trkpt lat="40.63481040549773" lon="8.8685279942214"><ele>221.0</ele><time>2026-04-06T17:20:59Z</time></trkpt><trkpt lat="40.63478821177243" lon="8.868866170934776"><ele>221.0</ele><time>2026-04-06T17:21:00Z</time></trkpt><trkpt lat="40.63476624562383" lon="8.86919870758531"><ele>221.0</ele><time>2026-04-06T17:21:01Z</time></trkpt><trkpt lat="40.63474821210376" lon="8.869540036251495"><ele>221.5</ele><time>2026-04-06T17:21:02Z</time></trkpt><trkpt lat="40.63472956413628" lon="8.86987529387804"><ele>222.0</ele><time>2026-04-06T17:21:03Z</time></trkpt><trkpt lat="40.63471449897783" lon="8.870220252702044"><ele>224.0</ele><time>2026-04-06T17:21:04Z</time></trkpt><trkpt lat="40.63470083943696" lon="8.870555281485526"><ele>226.0</ele><time>2026-04-06T17:21:05Z</time></trkpt><trkpt lat="40.63469098744875" lon="8.870892856842064"><ele>227.0</ele><time>2026-04-06T17:21:06Z</time></trkpt><trkpt lat="40.634686383334696" lon="8.871227930615614"><ele>228.0</ele><time>2026-04-06T17:21:07Z</time></trkpt><trkpt lat="40.63468724770778" lon="8.871569469594396"><ele>226.0</ele><time>2026-04-06T17:21:08Z</time></trkpt><trkpt lat="40.63468930394958" lon="8.87190300338851"><ele>224.0</ele><time>2026-04-06T17:21:09Z</time></trkpt><trkpt lat="40.63469565620717" lon="8.872238520981732"><ele>224.0</ele><time>2026-04-06T17:21:10Z</time></trkpt><trkpt lat="40.63470622050596" lon="8.872572647157016"><ele>224.0</ele><time>2026-04-06T17:21:11Z</time></trkpt><trkpt lat="40.6347181363453" lon="8.87290454793593"><ele>223.5</ele><time>2026-04-06T17:21:12Z</time></trkpt><trkpt lat="40.63473276865646" lon="8.873241736115254"><ele>223.0</ele><time>2026-04-06T17:21:13Z</time></trkpt><trkpt lat="40.634751092529875" lon="8.873576319487155"><ele>224.0</ele><time>2026-04-06T17:21:14Z</time></trkpt><trkpt lat="40.63477136259181" lon="8.873907526932575"><ele>225.0</ele><time>2026-04-06T17:21:15Z</time></trkpt><trkpt lat="40.63479632906015" lon="8.874238878925755"><ele>224.5</ele><time>2026-04-06T17:21:16Z</time></trkpt><trkpt lat="40.63482557517176" lon="8.874568144314996"><ele>224.0</ele><time>2026-04-06T17:21:17Z</time></trkpt><trkpt lat="40.63485707435498" lon="8.874897640466475"><ele>226.5</ele><time>2026-04-06T17:21:18Z</time></trkpt><trkpt lat="40.634888465563414" lon="8.875218047485637"><ele>229.0</ele><time>2026-04-06T17:21:19Z</time></trkpt><trkpt lat="40.63492795833147" lon="8.875543316704274"><ele>229.0</ele><time>2026-04-06T17:21:20Z</time></trkpt><trkpt lat="40.63496913397569" lon="8.875859754515567"><ele>229.0</ele><time>2026-04-06T17:21:21Z</time></trkpt><trkpt lat="40.635015196737875" lon="8.876177360397254"><ele>230.5</ele><time>2026-04-06T17:21:22Z</time></trkpt><trkpt lat="40.63506228856453" lon="8.876495136642593"><ele>232.0</ele><time>2026-04-06T17:21:23Z</time></trkpt><trkpt lat="40.635111838283606" lon="8.876809452132145"><ele>233.0</ele><time>2026-04-06T17:21:24Z</time></trkpt><trkpt lat="40.63516380457028" lon="8.87712739776811"><ele>234.0</ele><time>2026-04-06T17:21:25Z</time></trkpt><trkpt lat="40.635218424431976" lon="8.877448777021856"><ele>234.5</ele><time>2026-04-06T17:21:26Z</time></trkpt><trkpt lat="40.635273098107575" lon="8.87776913303231"><ele>235.0</ele><time>2026-04-06T17:21:27Z</time></trkpt><trkpt lat="40.635330534314114" lon="8.878095049128957"><ele>235.0</ele><time>2026-04-06T17:21:28Z</time></trkpt><trkpt lat="40.63538940390188" lon="8.878422807574063"><ele>235.0</ele><time>2026-04-06T17:21:29Z</time></trkpt><trkpt lat="40.63544756928507" lon="8.878751624049668"><ele>235.5</ele><time>2026-04-06T17:21:30Z</time></trkpt><trkpt lat="40.635503967599526" lon="8.879080377526376"><ele>236.0</ele><time>2026-04-06T17:21:31Z</time></trkpt><trkpt lat="40.6355617212061" lon="8.879416304273377"><ele>236.0</ele><time>2026-04-06T17:21:32Z</time></trkpt><trkpt lat="40.6356156291429" lon="8.879752965514877"><ele>236.0</ele><time>2026-04-06T17:21:33Z</time></trkpt><trkpt lat="40.63566660061009" lon="8.88008690658306"><ele>235.0</ele><time>2026-04-06T17:21:34Z</time></trkpt><trkpt lat="40.63571826026301" lon="8.880426372101558"><ele>234.0</ele><time>2026-04-06T17:21:35Z</time></trkpt><trkpt lat="40.63576790125184" lon="8.880768341288018"><ele>233.0</ele><time>2026-04-06T17:21:36Z</time></trkpt><trkpt lat="40.63581259374205" lon="8.881105951738336"><ele>232.0</ele><time>2026-04-06T17:21:37Z</time></trkpt><trkpt lat="40.63585333900998" lon="8.88144314457804"><ele>232.0</ele><time>2026-04-06T17:21:38Z</time></trkpt><trkpt lat="40.63589260778966" lon="8.881777466236567"><ele>232.0</ele><time>2026-04-06T17:21:39Z</time></trkpt><trkpt lat="40.63592736638655" lon="8.882112108723932"><ele>232.0</ele><time>2026-04-06T17:21:40Z</time></trkpt><trkpt lat="40.63595844700814" lon="8.88244646342174"><ele>232.0</ele><time>2026-04-06T17:21:41Z</time></trkpt><trkpt lat="40.635983511038255" lon="8.882775174198992"><ele>230.5</ele><time>2026-04-06T17:21:42Z</time></trkpt><trkpt lat="40.63600593084944" lon="8.883093465336497"><ele>229.0</ele><time>2026-04-06T17:21:43Z</time></trkpt><trkpt lat="40.6360258939847" lon="8.883410244316432"><ele>226.0</ele><time>2026-04-06T17:21:44Z</time></trkpt><trkpt lat="40.636042726509814" lon="8.883727827920868"><ele>223.0</ele><time>2026-04-06T17:21:45Z</time></trkpt><trkpt lat="40.636055436652086" lon="8.884051520346695"><ele>222.5</ele><time>2026-04-06T17:21:46Z</time></trkpt><trkpt lat="40.636063744658735" lon="8.884379617159333"><ele>222.0</ele><time>2026-04-06T17:21:47Z</time></trkpt><trkpt lat="40.63606971336819" lon="8.884704985289815"><ele>222.0</ele><time>2026-04-06T17:21:48Z</time></trkpt><trkpt lat="40.63607381843829" lon="8.885037181658284"><ele>222.0</ele><time>2026-04-06T17:21:49Z</time></trkpt><trkpt lat="40.636075094936224" lon="8.885368789287481"><ele>221.5</ele><time>2026-04-06T17:21:50Z</time></trkpt><trkpt lat="40.63607005629543" lon="8.885703098631991"><ele>221.0</ele><time>2026-04-06T17:21:51Z</time></trkpt><trkpt lat="40.63606184003359" lon="8.886045015719947"><ele>221.0</ele><time>2026-04-06T17:21:52Z</time></trkpt><trkpt lat="40.63605024400363" lon="8.88638251731829"><ele>221.0</ele><time>2026-04-06T17:21:53Z</time></trkpt><trkpt lat="40.636036413056424" lon="8.886718018980899"><ele>221.5</ele><time>2026-04-06T17:21:54Z</time></trkpt><trkpt lat="40.63602039254046" lon="8.887053223442148"><ele>222.0</ele><time>2026-04-06T17:21:55Z</time></trkpt><trkpt lat="40.636001616535395" lon="8.887389081706951"><ele>223.0</ele><time>2026-04-06T17:21:56Z</time></trkpt><trkpt lat="40.63597999773585" lon="8.887719246539016"><ele>224.0</ele><time>2026-04-06T17:21:57Z</time></trkpt><trkpt lat="40.635955940357796" lon="8.88805536269122"><ele>224.0</ele><time>2026-04-06T17:21:58Z</time></trkpt><trkpt lat="40.63592967245157" lon="8.888389871177086"><ele>224.0</ele><time>2026-04-06T17:21:59Z</time></trkpt><trkpt lat="40.635901647456905" lon="8.888722759249099"><ele>225.0</ele><time>2026-04-06T17:22:00Z</time></trkpt><trkpt lat="40.63587128524626" lon="8.889054212250395"><ele>226.0</ele><time>2026-04-06T17:22:01Z</time></trkpt><trkpt lat="40.6358419518894" lon="8.889391688998906"><ele>226.0</ele><time>2026-04-06T17:22:02Z</time></trkpt><trkpt lat="40.63581453946827" lon="8.889730392715775"><ele>226.0</ele><time>2026-04-06T17:22:03Z</time></trkpt><trkpt lat="40.63578792201216" lon="8.89006544566607"><ele>225.5</ele><time>2026-04-06T17:22:04Z</time></trkpt><trkpt lat="40.63575984342673" lon="8.89040513207934"><ele>225.0</ele><time>2026-04-06T17:22:05Z</time></trkpt><trkpt lat="40.63573098312103" lon="8.890737945272443"><ele>226.5</ele><time>2026-04-06T17:22:06Z</time></trkpt><trkpt lat="40.63570113044152" lon="8.891072118533549"><ele>228.0</ele><time>2026-04-06T17:22:07Z</time></trkpt><trkpt lat="40.63567153749742" lon="8.891407577245904"><ele>228.0</ele><time>2026-04-06T17:22:08Z</time></trkpt><trkpt lat="40.635640196754515" lon="8.891741605031841"><ele>228.0</ele><time>2026-04-06T17:22:09Z</time></trkpt><trkpt lat="40.63561165673753" lon="8.892073635911045"><ele>228.0</ele><time>2026-04-06T17:22:10Z</time></trkpt><trkpt lat="40.63558288772512" lon="8.892402936793728"><ele>228.0</ele><time>2026-04-06T17:22:11Z</time></trkpt><trkpt lat="40.635556656656924" lon="8.892733437395496"><ele>228.0</ele><time>2026-04-06T17:22:12Z</time></trkpt><trkpt lat="40.635530184882455" lon="8.893066066157225"><ele>228.0</ele><time>2026-04-06T17:22:13Z</time></trkpt><trkpt lat="40.635505749075406" lon="8.893395717328548"><ele>227.5</ele><time>2026-04-06T17:22:14Z</time></trkpt><trkpt lat="40.63547981247006" lon="8.893720298161453"><ele>227.0</ele><time>2026-04-06T17:22:15Z</time></trkpt><trkpt lat="40.63545345247862" lon="8.894047139849464"><ele>226.0</ele><time>2026-04-06T17:22:16Z</time></trkpt><trkpt lat="40.635424957100426" lon="8.894375106494953"><ele>225.0</ele><time>2026-04-06T17:22:17Z</time></trkpt><trkpt lat="40.635398804018955" lon="8.894700069225703"><ele>225.0</ele><time>2026-04-06T17:22:18Z</time></trkpt><trkpt lat="40.63537399651856" lon="8.895019846115444"><ele>225.0</ele><time>2026-04-06T17:22:19Z</time></trkpt><trkpt lat="40.6353508271087" lon="8.89534424753338"><ele>226.0</ele><time>2026-04-06T17:22:20Z</time></trkpt><trkpt lat="40.635331099483814" lon="8.895667882927619"><ele>227.0</ele><time>2026-04-06T17:22:21Z</time></trkpt><trkpt lat="40.635313576210386" lon="8.89599215211945"><ele>226.0</ele><time>2026-04-06T17:22:22Z</time></trkpt><trkpt lat="40.63529918646175" lon="8.896316983716563"><ele>225.0</ele><time>2026-04-06T17:22:23Z</time></trkpt><trkpt lat="40.63528786636916" lon="8.896637504775397"><ele>225.0</ele><time>2026-04-06T17:22:24Z</time></trkpt><trkpt lat="40.63528273722247" lon="8.896965579699971"><ele>225.0</ele><time>2026-04-06T17:22:25Z</time></trkpt><trkpt lat="40.63528126000831" lon="8.89728969521853"><ele>226.5</ele><time>2026-04-06T17:22:26Z</time></trkpt><trkpt lat="40.63528345895158" lon="8.897621822784577"><ele>228.0</ele><time>2026-04-06T17:22:27Z</time></trkpt><trkpt lat="40.63529140355105" lon="8.897951197065456"><ele>228.0</ele><time>2026-04-06T17:22:28Z</time></trkpt><trkpt lat="40.63530128276351" lon="8.898283797939147"><ele>228.0</ele><time>2026-04-06T17:22:29Z</time></trkpt><trkpt lat="40.63531251582254" lon="8.898621878860581"><ele>229.0</ele><time>2026-04-06T17:22:30Z</time></trkpt><trkpt lat="40.635325619429864" lon="8.898955406829467"><ele>230.0</ele><time>2026-04-06T17:22:31Z</time></trkpt><trkpt lat="40.6353400600837" lon="8.899292261642703"><ele>230.0</ele><time>2026-04-06T17:22:32Z</time></trkpt><trkpt lat="40.63535809055809" lon="8.899624315025612"><ele>230.0</ele><time>2026-04-06T17:22:33Z</time></trkpt><trkpt lat="40.635378937230435" lon="8.899956881992457"><ele>232.5</ele><time>2026-04-06T17:22:34Z</time></trkpt><trkpt lat="40.63540438300757" lon="8.900285552146519"><ele>235.0</ele><time>2026-04-06T17:22:35Z</time></trkpt><trkpt lat="40.63543306587569" lon="8.900616750191089"><ele>235.0</ele><time>2026-04-06T17:22:36Z</time></trkpt><trkpt lat="40.63546341665774" lon="8.900944343494514"><ele>235.0</ele><time>2026-04-06T17:22:37Z</time></trkpt><trkpt lat="40.63549814298659" lon="8.901277513840945"><ele>235.0</ele><time>2026-04-06T17:22:38Z</time></trkpt><trkpt lat="40.63553628385628" lon="8.901598944865547"><ele>235.0</ele><time>2026-04-06T17:22:39Z</time></trkpt><trkpt lat="40.63558031594911" lon="8.901926495134573"><ele>236.0</ele><time>2026-04-06T17:22:40Z</time></trkpt><trkpt lat="40.63562711741071" lon="8.902246603845903"><ele>237.0</ele><time>2026-04-06T17:22:41Z</time></trkpt><trkpt lat="40.635676534396545" lon="8.902570826171527"><ele>237.5</ele><time>2026-04-06T17:22:42Z</time></trkpt><trkpt lat="40.63572674386966" lon="8.902899254066927"><ele>238.0</ele><time>2026-04-06T17:22:43Z</time></trkpt><trkpt lat="40.63577738261972" lon="8.903228568724336"><ele>240.0</ele><time>2026-04-06T17:22:44Z</time></trkpt><trkpt lat="40.635829942871794" lon="8.90355933628404"><ele>242.0</ele><time>2026-04-06T17:22:45Z</time></trkpt><trkpt lat="40.63588457162285" lon="8.903891588589925"><ele>242.0</ele><time>2026-04-06T17:22:46Z</time></trkpt><trkpt lat="40.635941819113924" lon="8.90422305373531"><ele>242.0</ele><time>2026-04-06T17:22:47Z</time></trkpt><trkpt lat="40.63600767866326" lon="8.904549844913818"><ele>241.5</ele><time>2026-04-06T17:22:48Z</time></trkpt><trkpt lat="40.63608108312594" lon="8.904876202152758"><ele>241.0</ele><time>2026-04-06T17:22:49Z</time></trkpt><trkpt lat="40.636159152149794" lon="8.905204490649863"><ele>243.0</ele><time>2026-04-06T17:22:50Z</time></trkpt><trkpt lat="40.636237068240476" lon="8.905527942819088"><ele>245.0</ele><time>2026-04-06T17:22:51Z</time></trkpt><trkpt lat="40.63631741654829" lon="8.905847588379947"><ele>242.5</ele><time>2026-04-06T17:22:52Z</time></trkpt><trkpt lat="40.63640107917" lon="8.906164908433063"><ele>240.0</ele><time>2026-04-06T17:22:53Z</time></trkpt><trkpt lat="40.63648737164035" lon="8.906467659713966"><ele>238.0</ele><time>2026-04-06T17:22:54Z</time></trkpt><trkpt lat="40.63657946071463" lon="8.906769707055128"><ele>236.0</ele><time>2026-04-06T17:22:55Z</time></trkpt><trkpt lat="40.63666935217629" lon="8.907066010710878"><ele>236.0</ele><time>2026-04-06T17:22:56Z</time></trkpt><trkpt lat="40.63676590700439" lon="8.907365033231745"><ele>236.0</ele><time>2026-04-06T17:22:57Z</time></trkpt><trkpt lat="40.636863196859736" lon="8.907659680735705"><ele>235.5</ele><time>2026-04-06T17:22:58Z</time></trkpt><trkpt lat="40.636962592943405" lon="8.907954176030573"><ele>235.0</ele><time>2026-04-06T17:22:59Z</time></trkpt><trkpt lat="40.63706663012938" lon="8.908250250490871"><ele>234.0</ele><time>2026-04-06T17:23:00Z</time></trkpt><trkpt lat="40.63717273222779" lon="8.908546597571085"><ele>233.0</ele><time>2026-04-06T17:23:01Z</time></trkpt><trkpt lat="40.63728236640588" lon="8.908841141894587"><ele>233.0</ele><time>2026-04-06T17:23:02Z</time></trkpt><trkpt lat="40.63739677892615" lon="8.909133560517285"><ele>233.0</ele><time>2026-04-06T17:23:03Z</time></trkpt><trkpt lat="40.637514357452304" lon="8.909429877911872"><ele>232.5</ele><time>2026-04-06T17:23:04Z</time></trkpt><trkpt lat="40.63763322110478" lon="8.909723389408676"><ele>232.0</ele><time>2026-04-06T17:23:05Z</time></trkpt><trkpt lat="40.63775263780106" lon="8.910017949375654"><ele>231.5</ele><time>2026-04-06T17:23:06Z</time></trkpt><trkpt lat="40.63787446164541" lon="8.910315154939251"><ele>231.0</ele><time>2026-04-06T17:23:07Z</time></trkpt><trkpt lat="40.63799496892513" lon="8.910610856064265"><ele>231.0</ele><time>2026-04-06T17:23:08Z</time></trkpt><trkpt lat="40.6381161343638" lon="8.910906323641905"><ele>231.0</ele><time>2026-04-06T17:23:09Z</time></trkpt><trkpt lat="40.638239445832184" lon="8.911204172601215"><ele>231.0</ele><time>2026-04-06T17:23:10Z</time></trkpt><trkpt lat="40.63836258102967" lon="8.911501718036671"><ele>231.0</ele><time>2026-04-06T17:23:11Z</time></trkpt><trkpt lat="40.638480436718105" lon="8.911795103725593"><ele>230.5</ele><time>2026-04-06T17:23:12Z</time></trkpt><trkpt lat="40.63859351612814" lon="8.912083641785262"><ele>230.0</ele><time>2026-04-06T17:23:13Z</time></trkpt><trkpt lat="40.638705432592154" lon="8.912374955370334"><ele>232.5</ele><time>2026-04-06T17:23:14Z</time></trkpt><trkpt lat="40.63881467571642" lon="8.912667004950915"><ele>235.0</ele><time>2026-04-06T17:23:15Z</time></trkpt><trkpt lat="40.63892050555851" lon="8.91295290483872"><ele>235.0</ele><time>2026-04-06T17:23:16Z</time></trkpt><trkpt lat="40.63902611926796" lon="8.913246344055105"><ele>235.0</ele><time>2026-04-06T17:23:17Z</time></trkpt><trkpt lat="40.63912484130519" lon="8.913532447974609"><ele>235.5</ele><time>2026-04-06T17:23:18Z</time></trkpt><trkpt lat="40.639223697739496" lon="8.91382837989434"><ele>236.0</ele><time>2026-04-06T17:23:19Z</time></trkpt><trkpt lat="40.639318818661245" lon="8.914120860824164"><ele>236.0</ele><time>2026-04-06T17:23:20Z</time></trkpt><trkpt lat="40.6394116892769" lon="8.914414003231403"><ele>236.0</ele><time>2026-04-06T17:23:21Z</time></trkpt><trkpt lat="40.639504376319394" lon="8.91471296351356"><ele>236.0</ele><time>2026-04-06T17:23:22Z</time></trkpt><trkpt lat="40.63959345865982" lon="8.91501370670334"><ele>236.0</ele><time>2026-04-06T17:23:23Z</time></trkpt><trkpt lat="40.639680811961476" lon="8.915317709551218"><ele>235.5</ele><time>2026-04-06T17:23:24Z</time></trkpt><trkpt lat="40.63976569230222" lon="8.915627587568979"><ele>235.0</ele><time>2026-04-06T17:23:25Z</time></trkpt><trkpt lat="40.639844841738054" lon="8.915932115318046"><ele>235.0</ele><time>2026-04-06T17:23:26Z</time></trkpt><trkpt lat="40.639921322804376" lon="8.916245340698076"><ele>235.0</ele><time>2026-04-06T17:23:27Z</time></trkpt><trkpt lat="40.63999382935867" lon="8.916559464180038"><ele>236.5</ele><time>2026-04-06T17:23:28Z</time></trkpt><trkpt lat="40.64006537936098" lon="8.916871133037567"><ele>238.0</ele><time>2026-04-06T17:23:29Z</time></trkpt><trkpt lat="40.640134577558065" lon="8.917187616959707"><ele>238.0</ele><time>2026-04-06T17:23:30Z</time></trkpt><trkpt lat="40.64019986756041" lon="8.917503781021066"><ele>238.0</ele><time>2026-04-06T17:23:31Z</time></trkpt><trkpt lat="40.64026201715223" lon="8.917823757352648"><ele>238.0</ele><time>2026-04-06T17:23:32Z</time></trkpt><trkpt lat="40.640320621663726" lon="8.918143652011366"><ele>238.0</ele><time>2026-04-06T17:23:33Z</time></trkpt><trkpt lat="40.64037584701818" lon="8.918464192658655"><ele>238.0</ele><time>2026-04-06T17:23:34Z</time></trkpt><trkpt lat="40.640429659147486" lon="8.918791475030853"><ele>238.0</ele><time>2026-04-06T17:23:35Z</time></trkpt><trkpt lat="40.6404808989441" lon="8.91911674377055"><ele>238.0</ele><time>2026-04-06T17:23:36Z</time></trkpt><trkpt lat="40.64052965087631" lon="8.919442164564975"><ele>238.0</ele><time>2026-04-06T17:23:37Z</time></trkpt><trkpt lat="40.6405747071618" lon="8.919770827266708"><ele>237.0</ele><time>2026-04-06T17:23:38Z</time></trkpt><trkpt lat="40.64061432033531" lon="8.920105416786624"><ele>236.0</ele><time>2026-04-06T17:23:39Z</time></trkpt><trkpt lat="40.64065150972732" lon="8.920436934710258"><ele>236.0</ele><time>2026-04-06T17:23:40Z</time></trkpt><trkpt lat="40.64068534330611" lon="8.920770929887357"><ele>236.0</ele><time>2026-04-06T17:23:41Z</time></trkpt><trkpt lat="40.640714559791" lon="8.921107169311455"><ele>236.5</ele><time>2026-04-06T17:23:42Z</time></trkpt><trkpt lat="40.640739938663074" lon="8.921441310933039"><ele>237.0</ele><time>2026-04-06T17:23:43Z</time></trkpt><trkpt lat="40.64076280845116" lon="8.92177363346631"><ele>236.0</ele><time>2026-04-06T17:23:44Z</time></trkpt><trkpt lat="40.64078085770133" lon="8.922114480621792"><ele>235.0</ele><time>2026-04-06T17:23:45Z</time></trkpt><trkpt lat="40.640796228108286" lon="8.922452623487667"><ele>235.0</ele><time>2026-04-06T17:23:46Z</time></trkpt><trkpt lat="40.64080937124758" lon="8.92278447665699"><ele>235.0</ele><time>2026-04-06T17:23:47Z</time></trkpt><trkpt lat="40.640817221735844" lon="8.923125620888975"><ele>234.5</ele><time>2026-04-06T17:23:48Z</time></trkpt><trkpt lat="40.640824579885134" lon="8.923462629211764"><ele>234.0</ele><time>2026-04-06T17:23:49Z</time></trkpt><trkpt lat="40.64083004867559" lon="8.923798066368482"><ele>234.0</ele><time>2026-04-06T17:23:50Z</time></trkpt><trkpt lat="40.64083328539673" lon="8.924133680707019"><ele>234.0</ele><time>2026-04-06T17:23:51Z</time></trkpt><trkpt lat="40.64083487395736" lon="8.92446111833663"><ele>234.0</ele><time>2026-04-06T17:23:52Z</time></trkpt><trkpt lat="40.64083277627894" lon="8.924789278405191"><ele>234.0</ele><time>2026-04-06T17:23:53Z</time></trkpt><trkpt lat="40.64083018709491" lon="8.92511455752615"><ele>234.0</ele><time>2026-04-06T17:23:54Z</time></trkpt><trkpt lat="40.64082628530682" lon="8.925441058262969"><ele>234.0</ele><time>2026-04-06T17:23:55Z</time></trkpt><trkpt lat="40.64082400094655" lon="8.925765800891591"><ele>233.5</ele><time>2026-04-06T17:23:56Z</time></trkpt><trkpt lat="40.64082052109606" lon="8.926092432750785"><ele>233.0</ele><time>2026-04-06T17:23:57Z</time></trkpt><trkpt lat="40.640817306314105" lon="8.926418588444578"><ele>232.5</ele><time>2026-04-06T17:23:58Z</time></trkpt><trkpt lat="40.640815616739914" lon="8.926745313446533"><ele>232.0</ele><time>2026-04-06T17:23:59Z</time></trkpt><trkpt lat="40.6408141562376" lon="8.92708098600663"><ele>232.0</ele><time>2026-04-06T17:24:00Z</time></trkpt><trkpt lat="40.64081611795398" lon="8.92741841684"><ele>232.0</ele><time>2026-04-06T17:24:01Z</time></trkpt><trkpt lat="40.64081923945323" lon="8.927763409003488"><ele>231.5</ele><time>2026-04-06T17:24:02Z</time></trkpt><trkpt lat="40.64082358908756" lon="8.928109320204419"><ele>231.0</ele><time>2026-04-06T17:24:03Z</time></trkpt><trkpt lat="40.64083106621203" lon="8.928452277283629"><ele>231.0</ele><time>2026-04-06T17:24:04Z</time></trkpt><trkpt lat="40.64083611503123" lon="8.928798804170633"><ele>231.0</ele><time>2026-04-06T17:24:05Z</time></trkpt><trkpt lat="40.640847606542906" lon="8.929137668735857"><ele>230.0</ele><time>2026-04-06T17:24:06Z</time></trkpt><trkpt lat="40.64086280219229" lon="8.929478273055194"><ele>229.0</ele><time>2026-04-06T17:24:07Z</time></trkpt><trkpt lat="40.64088193932898" lon="8.929814577729545"><ele>227.5</ele><time>2026-04-06T17:24:08Z</time></trkpt><trkpt lat="40.640904623734" lon="8.93014816582256"><ele>226.0</ele><time>2026-04-06T17:24:09Z</time></trkpt><trkpt lat="40.640931283521034" lon="8.930481620152904"><ele>226.0</ele><time>2026-04-06T17:24:10Z</time></trkpt><trkpt lat="40.640960744574855" lon="8.930816478105882"><ele>226.0</ele><time>2026-04-06T17:24:11Z</time></trkpt><trkpt lat="40.64099175608323" lon="8.931142711766418"><ele>224.5</ele><time>2026-04-06T17:24:12Z</time></trkpt><trkpt lat="40.6410249586043" lon="8.931469266327802"><ele>223.0</ele><time>2026-04-06T17:24:13Z</time></trkpt><trkpt lat="40.64105834142885" lon="8.931795233350377"><ele>222.5</ele><time>2026-04-06T17:24:14Z</time></trkpt><trkpt lat="40.64109431318925" lon="8.93211766092279"><ele>222.0</ele><time>2026-04-06T17:24:15Z</time></trkpt><trkpt lat="40.641132492022514" lon="8.932442984275838"><ele>220.0</ele><time>2026-04-06T17:24:16Z</time></trkpt><trkpt lat="40.641174737646004" lon="8.932767333461916"><ele>218.0</ele><time>2026-04-06T17:24:17Z</time></trkpt><trkpt lat="40.641221902737605" lon="8.933090727509946"><ele>218.0</ele><time>2026-04-06T17:24:18Z</time></trkpt><trkpt lat="40.64127067275622" lon="8.93341665967187"><ele>218.0</ele><time>2026-04-06T17:24:19Z</time></trkpt><trkpt lat="40.64132281266337" lon="8.933740923879235"><ele>218.0</ele><time>2026-04-06T17:24:20Z</time></trkpt><trkpt lat="40.64137779362513" lon="8.934066109849734"><ele>218.0</ele><time>2026-04-06T17:24:21Z</time></trkpt><trkpt lat="40.641435310836805" lon="8.93439525662772"><ele>218.5</ele><time>2026-04-06T17:24:22Z</time></trkpt><trkpt lat="40.641497134478165" lon="8.934718123511416"><ele>219.0</ele><time>2026-04-06T17:24:23Z</time></trkpt><trkpt lat="40.64156271907039" lon="8.93504710693446"><ele>218.5</ele><time>2026-04-06T17:24:24Z</time></trkpt><trkpt lat="40.64163359594404" lon="8.935365524330072"><ele>218.0</ele><time>2026-04-06T17:24:25Z</time></trkpt><trkpt lat="40.64170828370216" lon="8.93568932463127"><ele>217.0</ele><time>2026-04-06T17:24:26Z</time></trkpt><trkpt lat="40.641783690138475" lon="8.93601113128561"><ele>216.0</ele><time>2026-04-06T17:24:27Z</time></trkpt><trkpt lat="40.641860717745246" lon="8.936329292302064"><ele>216.0</ele><time>2026-04-06T17:24:28Z</time></trkpt><trkpt lat="40.64194156856791" lon="8.936647445801144"><ele>216.0</ele><time>2026-04-06T17:24:29Z</time></trkpt><trkpt lat="40.64202439430997" lon="8.936957967353981"><ele>216.0</ele><time>2026-04-06T17:24:30Z</time></trkpt><trkpt lat="40.64210934479791" lon="8.937278482788573"><ele>216.0</ele><time>2026-04-06T17:24:31Z</time></trkpt><trkpt lat="40.64220016627451" lon="8.937589082091629"><ele>215.0</ele><time>2026-04-06T17:24:32Z</time></trkpt><trkpt lat="40.642291632287694" lon="8.937895966421282"><ele>214.0</ele><time>2026-04-06T17:24:33Z</time></trkpt><trkpt lat="40.64238600257449" lon="8.938205713224223"><ele>213.5</ele><time>2026-04-06T17:24:34Z</time></trkpt><trkpt lat="40.64248070532187" lon="8.93851430577314"><ele>213.0</ele><time>2026-04-06T17:24:35Z</time></trkpt><trkpt lat="40.64257819719085" lon="8.93882175825586"><ele>213.0</ele><time>2026-04-06T17:24:36Z</time></trkpt><trkpt lat="40.64267645720887" lon="8.939124882687285"><ele>213.0</ele><time>2026-04-06T17:24:37Z</time></trkpt><trkpt lat="40.642778360454194" lon="8.939428873517427"><ele>213.0</ele><time>2026-04-06T17:24:38Z</time></trkpt><trkpt lat="40.64288545558754" lon="8.93972825874827"><ele>213.0</ele><time>2026-04-06T17:24:39Z</time></trkpt><trkpt lat="40.64299555762047" lon="8.94002783239127"><ele>211.5</ele><time>2026-04-06T17:24:40Z</time></trkpt><trkpt lat="40.64310902119361" lon="8.940327656787844"><ele>210.0</ele><time>2026-04-06T17:24:41Z</time></trkpt><trkpt lat="40.64322267629708" lon="8.940622309640204"><ele>209.5</ele><time>2026-04-06T17:24:42Z</time></trkpt><trkpt lat="40.64334015870937" lon="8.940917597283303"><ele>209.0</ele><time>2026-04-06T17:24:43Z</time></trkpt><trkpt lat="40.64345931329992" lon="8.941210390438947"><ele>209.0</ele><time>2026-04-06T17:24:44Z</time></trkpt><trkpt lat="40.643580548002205" lon="8.94150069699179"><ele>209.0</ele><time>2026-04-06T17:24:45Z</time></trkpt><trkpt lat="40.64370362307762" lon="8.941791166249155"><ele>209.5</ele><time>2026-04-06T17:24:46Z</time></trkpt><trkpt lat="40.64383122858819" lon="8.942081924335449"><ele>210.0</ele><time>2026-04-06T17:24:47Z</time></trkpt><trkpt lat="40.64395878297919" lon="8.942367144490476"><ele>209.0</ele><time>2026-04-06T17:24:48Z</time></trkpt><trkpt lat="40.64408849963526" lon="8.942654002024069"><ele>208.0</ele><time>2026-04-06T17:24:49Z</time></trkpt><trkpt lat="40.64421775118443" lon="8.942936858077001"><ele>208.0</ele><time>2026-04-06T17:24:50Z</time></trkpt><trkpt lat="40.644347630553796" lon="8.943225072644074"><ele>208.0</ele><time>2026-04-06T17:24:51Z</time></trkpt><trkpt lat="40.644470842056315" lon="8.943498382057783"><ele>208.0</ele><time>2026-04-06T17:24:52Z</time></trkpt><trkpt lat="40.64459559995463" lon="8.943774441589728"><ele>208.0</ele><time>2026-04-06T17:24:53Z</time></trkpt><trkpt lat="40.64472118488028" lon="8.944048743265764"><ele>207.0</ele><time>2026-04-06T17:24:54Z</time></trkpt><trkpt lat="40.64484520303016" lon="8.944320653016629"><ele>206.0</ele><time>2026-04-06T17:24:55Z</time></trkpt><trkpt lat="40.64496737526435" lon="8.944596235575395"><ele>206.0</ele><time>2026-04-06T17:24:56Z</time></trkpt><trkpt lat="40.64508911513818" lon="8.94486417898317"><ele>206.0</ele><time>2026-04-06T17:24:57Z</time></trkpt><trkpt lat="40.64521175718015" lon="8.945131558613786"><ele>205.0</ele><time>2026-04-06T17:24:58Z</time></trkpt><trkpt lat="40.64533665005058" lon="8.945402622695632"><ele>204.0</ele><time>2026-04-06T17:24:59Z</time></trkpt><trkpt lat="40.645461198538605" lon="8.945680290838778"><ele>204.0</ele><time>2026-04-06T17:25:00Z</time></trkpt><trkpt lat="40.64558580277525" lon="8.94595669367342"><ele>204.0</ele><time>2026-04-06T17:25:01Z</time></trkpt><trkpt lat="40.645712841227095" lon="8.946237719346243"><ele>204.0</ele><time>2026-04-06T17:25:02Z</time></trkpt><trkpt lat="40.645843074007395" lon="8.946523363723875"><ele>204.0</ele><time>2026-04-06T17:25:03Z</time></trkpt><trkpt lat="40.64597300139524" lon="8.946807608004294"><ele>204.0</ele><time>2026-04-06T17:25:04Z</time></trkpt><trkpt lat="40.64610426298908" lon="8.947093243683995"><ele>204.0</ele><time>2026-04-06T17:25:05Z</time></trkpt><trkpt lat="40.64623617259356" lon="8.947382184694277"><ele>205.5</ele><time>2026-04-06T17:25:06Z</time></trkpt><trkpt lat="40.646366812779334" lon="8.947670691933986"><ele>207.0</ele><time>2026-04-06T17:25:07Z</time></trkpt><trkpt lat="40.64649883634142" lon="8.94795905175463"><ele>207.0</ele><time>2026-04-06T17:25:08Z</time></trkpt><trkpt lat="40.646628788985716" lon="8.948246019894206"><ele>207.0</ele><time>2026-04-06T17:25:09Z</time></trkpt><trkpt lat="40.6467595522507" lon="8.948528180001896"><ele>207.0</ele><time>2026-04-06T17:25:10Z</time></trkpt><trkpt lat="40.646893121818714" lon="8.94880951020499"><ele>207.0</ele><time>2026-04-06T17:25:11Z</time></trkpt><trkpt lat="40.64702871450656" lon="8.949090290570394"><ele>207.0</ele><time>2026-04-06T17:25:12Z</time></trkpt><trkpt lat="40.64716290064869" lon="8.949368397775675"><ele>207.0</ele><time>2026-04-06T17:25:13Z</time></trkpt><trkpt lat="40.6472987952363" lon="8.949646987615358"><ele>207.0</ele><time>2026-04-06T17:25:14Z</time></trkpt><trkpt lat="40.64743525356767" lon="8.949925065291332"><ele>207.0</ele><time>2026-04-06T17:25:15Z</time></trkpt><trkpt lat="40.64757859915238" lon="8.950206841314554"><ele>205.0</ele><time>2026-04-06T17:25:16Z</time></trkpt><trkpt lat="40.647722507937296" lon="8.950479566458522"><ele>203.0</ele><time>2026-04-06T17:25:17Z</time></trkpt><trkpt lat="40.647870065799836" lon="8.95075428367678"><ele>199.0</ele><time>2026-04-06T17:25:18Z</time></trkpt><trkpt lat="40.64802084583195" lon="8.95102412165503"><ele>195.0</ele><time>2026-04-06T17:25:19Z</time></trkpt><trkpt lat="40.648175338414134" lon="8.951289090380753"><ele>195.0</ele><time>2026-04-06T17:25:20Z</time></trkpt><trkpt lat="40.64833576766576" lon="8.951555032021385"><ele>195.0</ele><time>2026-04-06T17:25:21Z</time></trkpt><trkpt lat="40.64849767961215" lon="8.951815298678628"><ele>194.0</ele><time>2026-04-06T17:25:22Z</time></trkpt><trkpt lat="40.648659527426986" lon="8.952078085435653"><ele>193.0</ele><time>2026-04-06T17:25:23Z</time></trkpt><trkpt lat="40.648822800130255" lon="8.952338156126837"><ele>190.5</ele><time>2026-04-06T17:25:24Z</time></trkpt><trkpt lat="40.64898726822328" lon="8.952594410016731"><ele>188.0</ele><time>2026-04-06T17:25:25Z</time></trkpt><trkpt lat="40.64915702385369" lon="8.95284874093903"><ele>188.0</ele><time>2026-04-06T17:25:26Z</time></trkpt><trkpt lat="40.649332557292595" lon="8.953100789080624"><ele>188.0</ele><time>2026-04-06T17:25:27Z</time></trkpt><trkpt lat="40.649504504688636" lon="8.953348717049955"><ele>187.5</ele><time>2026-04-06T17:25:28Z</time></trkpt><trkpt lat="40.649677904146685" lon="8.953597046339517"><ele>187.0</ele><time>2026-04-06T17:25:29Z</time></trkpt><trkpt lat="40.649850576587085" lon="8.953840364779813"><ele>187.0</ele><time>2026-04-06T17:25:30Z</time></trkpt><trkpt lat="40.65002522007863" lon="8.954086583042235"><ele>187.0</ele><time>2026-04-06T17:25:31Z</time></trkpt><trkpt lat="40.65019805027702" lon="8.954329462525203"><ele>185.5</ele><time>2026-04-06T17:25:32Z</time></trkpt><trkpt lat="40.650373295106974" lon="8.95457482233963"><ele>184.0</ele><time>2026-04-06T17:25:33Z</time></trkpt><trkpt lat="40.650545278739244" lon="8.954815507238056"><ele>184.0</ele><time>2026-04-06T17:25:34Z</time></trkpt><trkpt lat="40.650716686784975" lon="8.95505890223044"><ele>184.0</ele><time>2026-04-06T17:25:35Z</time></trkpt><trkpt lat="40.650885626565284" lon="8.95530037485631"><ele>184.0</ele><time>2026-04-06T17:25:36Z</time></trkpt><trkpt lat="40.65105293890206" lon="8.955540439792218"><ele>184.0</ele><time>2026-04-06T17:25:37Z</time></trkpt><trkpt lat="40.6512217558334" lon="8.955781102054761"><ele>184.0</ele><time>2026-04-06T17:25:38Z</time></trkpt><trkpt lat="40.651390697565326" lon="8.956019513268076"><ele>184.0</ele><time>2026-04-06T17:25:39Z</time></trkpt><trkpt lat="40.651560267459864" lon="8.956256732314978"><ele>184.0</ele><time>2026-04-06T17:25:40Z</time></trkpt><trkpt lat="40.651728388211936" lon="8.956494499887366"><ele>184.0</ele><time>2026-04-06T17:25:41Z</time></trkpt><trkpt lat="40.65189342511648" lon="8.956727311312523"><ele>183.5</ele><time>2026-04-06T17:25:42Z</time></trkpt><trkpt lat="40.65206185323971" lon="8.956962959931134"><ele>183.0</ele><time>2026-04-06T17:25:43Z</time></trkpt><trkpt lat="40.65222966921866" lon="8.957202173070403"><ele>183.0</ele><time>2026-04-06T17:25:44Z</time></trkpt><trkpt lat="40.65240078073836" lon="8.95744355350376"><ele>183.0</ele><time>2026-04-06T17:25:45Z</time></trkpt><trkpt lat="40.6525726750195" lon="8.957685026788317"><ele>183.5</ele><time>2026-04-06T17:25:46Z</time></trkpt><trkpt lat="40.652746001400466" lon="8.95792461772952"><ele>184.0</ele><time>2026-04-06T17:25:47Z</time></trkpt><trkpt lat="40.65291927656586" lon="8.958170721766193"><ele>183.5</ele><time>2026-04-06T17:25:48Z</time></trkpt><trkpt lat="40.653089486176995" lon="8.958410645040324"><ele>183.0</ele><time>2026-04-06T17:25:49Z</time></trkpt><trkpt lat="40.6532590896677" lon="8.958652333756845"><ele>183.0</ele><time>2026-04-06T17:25:50Z</time></trkpt><trkpt lat="40.65342947160875" lon="8.958893237080959"><ele>183.0</ele><time>2026-04-06T17:25:51Z</time></trkpt><trkpt lat="40.653598677922076" lon="8.959130869415501"><ele>182.5</ele><time>2026-04-06T17:25:52Z</time></trkpt><trkpt lat="40.653768974819535" lon="8.959371728104017"><ele>182.0</ele><time>2026-04-06T17:25:53Z</time></trkpt><trkpt lat="40.65393830465108" lon="8.95961260679696"><ele>182.0</ele><time>2026-04-06T17:25:54Z</time></trkpt><trkpt lat="40.65410681237759" lon="8.959851040176554"><ele>182.0</ele><time>2026-04-06T17:25:55Z</time></trkpt><trkpt lat="40.65427500597874" lon="8.960087066728143"><ele>182.0</ele><time>2026-04-06T17:25:56Z</time></trkpt><trkpt lat="40.65444434249394" lon="8.960323102019947"><ele>182.0</ele><time>2026-04-06T17:25:57Z</time></trkpt><trkpt lat="40.65461406888307" lon="8.96056162725367"><ele>182.0</ele><time>2026-04-06T17:25:58Z</time></trkpt><trkpt lat="40.65478260667936" lon="8.960795860862795"><ele>182.0</ele><time>2026-04-06T17:25:59Z</time></trkpt><trkpt lat="40.65495001420805" lon="8.961033417393196"><ele>182.0</ele><time>2026-04-06T17:26:00Z</time></trkpt><trkpt lat="40.65511712035437" lon="8.961268879716172"><ele>182.0</ele><time>2026-04-06T17:26:01Z</time></trkpt><trkpt lat="40.65528470565445" lon="8.961503373471626"><ele>181.5</ele><time>2026-04-06T17:26:02Z</time></trkpt><trkpt lat="40.655450898169654" lon="8.961737054771357"><ele>181.0</ele><time>2026-04-06T17:26:03Z</time></trkpt><trkpt lat="40.655617202097986" lon="8.961969231873573"><ele>181.0</ele><time>2026-04-06T17:26:04Z</time></trkpt><trkpt lat="40.655785012478646" lon="8.962204875808002"><ele>181.0</ele><time>2026-04-06T17:26:05Z</time></trkpt><trkpt lat="40.655948934990725" lon="8.962430897272355"><ele>181.0</ele><time>2026-04-06T17:26:06Z</time></trkpt><trkpt lat="40.65611335689395" lon="8.962663080173806"><ele>181.0</ele><time>2026-04-06T17:26:07Z</time></trkpt><trkpt lat="40.6562782520538" lon="8.962894706862311"><ele>179.5</ele><time>2026-04-06T17:26:08Z</time></trkpt><trkpt lat="40.65644127263153" lon="8.963120219205736"><ele>178.0</ele><time>2026-04-06T17:26:09Z</time></trkpt><trkpt lat="40.65660482162834" lon="8.963350047688383"><ele>178.0</ele><time>2026-04-06T17:26:10Z</time></trkpt><trkpt lat="40.65676696532547" lon="8.963579396359561"><ele>178.0</ele><time>2026-04-06T17:26:11Z</time></trkpt><trkpt lat="40.6569318197328" lon="8.96381272156604"><ele>178.0</ele><time>2026-04-06T17:26:12Z</time></trkpt><trkpt lat="40.65709786158642" lon="8.964045598040068"><ele>178.0</ele><time>2026-04-06T17:26:13Z</time></trkpt><trkpt lat="40.65726624979649" lon="8.964282161710713"><ele>178.0</ele><time>2026-04-06T17:26:14Z</time></trkpt><trkpt lat="40.65743424291648" lon="8.964514305612676"><ele>178.0</ele><time>2026-04-06T17:26:15Z</time></trkpt><trkpt lat="40.657605909281465" lon="8.964758807123612"><ele>178.0</ele><time>2026-04-06T17:26:16Z</time></trkpt><trkpt lat="40.657776112667044" lon="8.96499695281152"><ele>178.0</ele><time>2026-04-06T17:26:17Z</time></trkpt><trkpt lat="40.65794722182514" lon="8.965238100230312"><ele>178.0</ele><time>2026-04-06T17:26:18Z</time></trkpt><trkpt lat="40.65811969744946" lon="8.965483425613451"><ele>178.0</ele><time>2026-04-06T17:26:19Z</time></trkpt><trkpt lat="40.658292469280575" lon="8.965725366871368"><ele>177.5</ele><time>2026-04-06T17:26:20Z</time></trkpt><trkpt lat="40.65846583894947" lon="8.96596854608393"><ele>177.0</ele><time>2026-04-06T17:26:21Z</time></trkpt><trkpt lat="40.658640534055216" lon="8.966214912569658"><ele>177.0</ele><time>2026-04-06T17:26:22Z</time></trkpt><trkpt lat="40.658813639726" lon="8.966462327978734"><ele>177.0</ele><time>2026-04-06T17:26:23Z</time></trkpt><trkpt lat="40.65898695944036" lon="8.966709910796755"><ele>176.5</ele><time>2026-04-06T17:26:24Z</time></trkpt><trkpt lat="40.65916268984031" lon="8.966962665801"><ele>176.0</ele><time>2026-04-06T17:26:25Z</time></trkpt><trkpt lat="40.65933949657397" lon="8.967207481379697"><ele>176.0</ele><time>2026-04-06T17:26:26Z</time></trkpt><trkpt lat="40.659516213090406" lon="8.967456019033257"><ele>176.0</ele><time>2026-04-06T17:26:27Z</time></trkpt><trkpt lat="40.6596928655557" lon="8.96770276986572"><ele>176.0</ele><time>2026-04-06T17:26:28Z</time></trkpt><trkpt lat="40.65986893569974" lon="8.967954768866912"><ele>176.0</ele><time>2026-04-06T17:26:29Z</time></trkpt><trkpt lat="40.66004448695458" lon="8.968201366918297"><ele>176.0</ele><time>2026-04-06T17:26:30Z</time></trkpt><trkpt lat="40.660221561270625" lon="8.968452271589092"><ele>176.0</ele><time>2026-04-06T17:26:31Z</time></trkpt><trkpt lat="40.660398569831756" lon="8.968699962551943"><ele>176.0</ele><time>2026-04-06T17:26:32Z</time></trkpt><trkpt lat="40.66057039724217" lon="8.968937754859091"><ele>176.0</ele><time>2026-04-06T17:26:33Z</time></trkpt><trkpt lat="40.66073046373143" lon="8.969167024261909"><ele>175.5</ele><time>2026-04-06T17:26:34Z</time></trkpt><trkpt lat="40.66089289840025" lon="8.969396562216417"><ele>175.0</ele><time>2026-04-06T17:26:35Z</time></trkpt><trkpt lat="40.66106122609372" lon="8.969635277753126"><ele>174.5</ele><time>2026-04-06T17:26:36Z</time></trkpt><trkpt lat="40.66123440543265" lon="8.969879452665769"><ele>174.0</ele><time>2026-04-06T17:26:37Z</time></trkpt><trkpt lat="40.66140896076791" lon="8.970124963939886"><ele>173.5</ele><time>2026-04-06T17:26:38Z</time></trkpt><trkpt lat="40.661585462066846" lon="8.970370824517627"><ele>173.0</ele><time>2026-04-06T17:26:39Z</time></trkpt><trkpt lat="40.66175792599864" lon="8.970610170244653"><ele>173.0</ele><time>2026-04-06T17:26:40Z</time></trkpt><trkpt lat="40.66192711870435" lon="8.970844387697515"><ele>173.0</ele><time>2026-04-06T17:26:41Z</time></trkpt><trkpt lat="40.66209362833272" lon="8.971072825167155"><ele>173.0</ele><time>2026-04-06T17:26:42Z</time></trkpt><trkpt lat="40.662261949606794" lon="8.971306067847712"><ele>173.0</ele><time>2026-04-06T17:26:43Z</time></trkpt><trkpt lat="40.662434224245814" lon="8.971542540880193"><ele>173.5</ele><time>2026-04-06T17:26:44Z</time></trkpt><trkpt lat="40.662604547635105" lon="8.971781094343594"><ele>174.0</ele><time>2026-04-06T17:26:45Z</time></trkpt><trkpt lat="40.6627716291001" lon="8.972019201607964"><ele>173.5</ele><time>2026-04-06T17:26:46Z</time></trkpt><trkpt lat="40.66294137119676" lon="8.972264384118358"><ele>173.0</ele><time>2026-04-06T17:26:47Z</time></trkpt><trkpt lat="40.663109488958156" lon="8.972509163828091"><ele>173.0</ele><time>2026-04-06T17:26:48Z</time></trkpt><trkpt lat="40.66327537970208" lon="8.972752710385121"><ele>173.0</ele><time>2026-04-06T17:26:49Z</time></trkpt><trkpt lat="40.66344543516" lon="8.973000769707394"><ele>173.0</ele><time>2026-04-06T17:26:50Z</time></trkpt><trkpt lat="40.66361176111452" lon="8.973245734692954"><ele>173.0</ele><time>2026-04-06T17:26:51Z</time></trkpt><trkpt lat="40.663775881082614" lon="8.97349663955571"><ele>173.0</ele><time>2026-04-06T17:26:52Z</time></trkpt><trkpt lat="40.663939011047894" lon="8.973746760672334"><ele>173.0</ele><time>2026-04-06T17:26:53Z</time></trkpt><trkpt lat="40.664103022018296" lon="8.973997232875007"><ele>172.0</ele><time>2026-04-06T17:26:53.999Z</time></trkpt><trkpt lat="40.66426429176572" lon="8.974247293750027"><ele>171.0</ele><time>2026-04-06T17:26:54.999Z</time></trkpt><trkpt lat="40.66443011289152" lon="8.974501413146772"><ele>171.5</ele><time>2026-04-06T17:26:55.999Z</time></trkpt><trkpt lat="40.66459145817243" lon="8.974752691588613"><ele>172.0</ele><time>2026-04-06T17:26:56.999Z</time></trkpt><trkpt lat="40.664752585835096" lon="8.97500461002712"><ele>172.5</ele><time>2026-04-06T17:26:57.999Z</time></trkpt><trkpt lat="40.664916249211196" lon="8.975259614198267"><ele>173.0</ele><time>2026-04-06T17:26:58.999Z</time></trkpt><trkpt lat="40.66507736430388" lon="8.975512647441874"><ele>173.0</ele><time>2026-04-06T17:26:59.999Z</time></trkpt><trkpt lat="40.66523469573167" lon="8.97576595384588"><ele>173.0</ele><time>2026-04-06T17:27:01Z</time></trkpt><trkpt lat="40.66539337807628" lon="8.976019441030394"><ele>172.5</ele><time>2026-04-06T17:27:02Z</time></trkpt><trkpt lat="40.66555014399416" lon="8.976274056352384"><ele>172.0</ele><time>2026-04-06T17:27:03Z</time></trkpt><trkpt lat="40.66570893735607" lon="8.976532367115352"><ele>171.5</ele><time>2026-04-06T17:27:04Z</time></trkpt><trkpt lat="40.6658658745444" lon="8.976791495228783"><ele>171.0</ele><time>2026-04-06T17:27:05Z</time></trkpt><trkpt lat="40.666022596487785" lon="8.977049953165077"><ele>171.0</ele><time>2026-04-06T17:27:06Z</time></trkpt><trkpt lat="40.66617763684809" lon="8.977305647110144"><ele>171.0</ele><time>2026-04-06T17:27:07Z</time></trkpt><trkpt lat="40.666332882971375" lon="8.977562840920708"><ele>171.0</ele><time>2026-04-06T17:27:08Z</time></trkpt><trkpt lat="40.666489298214046" lon="8.977822228622578"><ele>171.0</ele><time>2026-04-06T17:27:09Z</time></trkpt><trkpt lat="40.666640524706125" lon="8.978079903942799"><ele>171.0</ele><time>2026-04-06T17:27:10Z</time></trkpt><trkpt lat="40.666797091417926" lon="8.978344880536858"><ele>171.0</ele><time>2026-04-06T17:27:11Z</time></trkpt><trkpt lat="40.666948071813565" lon="8.97860495494253"><ele>171.0</ele><time>2026-04-06T17:27:12Z</time></trkpt><trkpt lat="40.667099730007806" lon="8.978865053941112"><ele>171.0</ele><time>2026-04-06T17:27:13Z</time></trkpt><trkpt lat="40.66724760927655" lon="8.97912316267173"><ele>172.0</ele><time>2026-04-06T17:27:14Z</time></trkpt><trkpt lat="40.66740396387301" lon="8.979390803981133"><ele>173.0</ele><time>2026-04-06T17:27:15Z</time></trkpt><trkpt lat="40.66755733770174" lon="8.979654221931439"><ele>173.0</ele><time>2026-04-06T17:27:16Z</time></trkpt><trkpt lat="40.667710162101734" lon="8.979913914283877"><ele>173.0</ele><time>2026-04-06T17:27:17Z</time></trkpt><trkpt lat="40.66786625792106" lon="8.98017729186756"><ele>172.0</ele><time>2026-04-06T17:27:18Z</time></trkpt><trkpt lat="40.66801914234718" lon="8.980437515744969"><ele>171.0</ele><time>2026-04-06T17:27:19Z</time></trkpt><trkpt lat="40.668175472847985" lon="8.980703079010159"><ele>172.5</ele><time>2026-04-06T17:27:20Z</time></trkpt><trkpt lat="40.66832998344195" lon="8.980967842738126"><ele>174.0</ele><time>2026-04-06T17:27:21Z</time></trkpt><trkpt lat="40.66848285014766" lon="8.981232129901809"><ele>173.5</ele><time>2026-04-06T17:27:22Z</time></trkpt><trkpt lat="40.66863986472171" lon="8.981500755589122"><ele>173.0</ele><time>2026-04-06T17:27:23Z</time></trkpt><trkpt lat="40.668798722243125" lon="8.981769159061555"><ele>173.0</ele><time>2026-04-06T17:27:24Z</time></trkpt><trkpt lat="40.66895893855188" lon="8.982039828833738"><ele>173.0</ele><time>2026-04-06T17:27:25Z</time></trkpt><trkpt lat="40.669119098867625" lon="8.982314187142094"><ele>172.0</ele><time>2026-04-06T17:27:26Z</time></trkpt><trkpt lat="40.66927890345317" lon="8.982590402753969"><ele>171.0</ele><time>2026-04-06T17:27:27Z</time></trkpt><trkpt lat="40.66943465347621" lon="8.98286378749681"><ele>170.5</ele><time>2026-04-06T17:27:28Z</time></trkpt><trkpt lat="40.669593774009144" lon="8.98314154999933"><ele>170.0</ele><time>2026-04-06T17:27:29Z</time></trkpt><trkpt lat="40.66975006858199" lon="8.983411589589672"><ele>169.5</ele><time>2026-04-06T17:27:30Z</time></trkpt><trkpt lat="40.669904647892906" lon="8.983670462451187"><ele>169.0</ele><time>2026-04-06T17:27:31Z</time></trkpt><trkpt lat="40.67006025240654" lon="8.98393154182238"><ele>169.0</ele><time>2026-04-06T17:27:32Z</time></trkpt><trkpt lat="40.670213234183116" lon="8.984187342011872"><ele>169.0</ele><time>2026-04-06T17:27:33Z</time></trkpt><trkpt lat="40.67036390912016" lon="8.984443037359052"><ele>169.0</ele><time>2026-04-06T17:27:34Z</time></trkpt><trkpt lat="40.67051508354149" lon="8.984703996352728"><ele>169.0</ele><time>2026-04-06T17:27:35Z</time></trkpt><trkpt lat="40.670664133536135" lon="8.98496038199258"><ele>169.5</ele><time>2026-04-06T17:27:36Z</time></trkpt><trkpt lat="40.67081436089128" lon="8.985222357813551"><ele>170.0</ele><time>2026-04-06T17:27:37Z</time></trkpt><trkpt lat="40.670963287388055" lon="8.985486554478342"><ele>169.5</ele><time>2026-04-06T17:27:38Z</time></trkpt><trkpt lat="40.67111201242714" lon="8.985755871858453"><ele>169.0</ele><time>2026-04-06T17:27:39Z</time></trkpt><trkpt lat="40.67125824159526" lon="8.98603066710963"><ele>169.0</ele><time>2026-04-06T17:27:40Z</time></trkpt><trkpt lat="40.67139951313751" lon="8.98632082280772"><ele>169.0</ele><time>2026-04-06T17:27:41Z</time></trkpt><trkpt lat="40.67153199721715" lon="8.986612457407832"><ele>168.5</ele><time>2026-04-06T17:27:42Z</time></trkpt><trkpt lat="40.67166161838485" lon="8.986914015182704"><ele>168.0</ele><time>2026-04-06T17:27:43Z</time></trkpt><trkpt lat="40.67178168022265" lon="8.987215747671353"><ele>168.0</ele><time>2026-04-06T17:27:44Z</time></trkpt><trkpt lat="40.67190054981397" lon="8.987524981065775"><ele>168.0</ele><time>2026-04-06T17:27:45Z</time></trkpt><trkpt lat="40.67201570726364" lon="8.987844838848378"><ele>168.0</ele><time>2026-04-06T17:27:46Z</time></trkpt><trkpt lat="40.67212661969261" lon="8.988162493429316"><ele>168.0</ele><time>2026-04-06T17:27:47Z</time></trkpt><trkpt lat="40.67222386342156" lon="8.98847734745483"><ele>168.5</ele><time>2026-04-06T17:27:48Z</time></trkpt><trkpt lat="40.67231630038185" lon="8.988787250906475"><ele>169.0</ele><time>2026-04-06T17:27:49Z</time></trkpt><trkpt lat="40.67240665546577" lon="8.989110426545333"><ele>169.5</ele><time>2026-04-06T17:27:50Z</time></trkpt><trkpt lat="40.67248765509263" lon="8.989438350821327"><ele>170.0</ele><time>2026-04-06T17:27:51Z</time></trkpt><trkpt lat="40.67256267159674" lon="8.989760528363142"><ele>169.0</ele><time>2026-04-06T17:27:52Z</time></trkpt><trkpt lat="40.672630849452375" lon="8.990086908443656"><ele>168.0</ele><time>2026-04-06T17:27:53Z</time></trkpt><trkpt lat="40.67269322451428" lon="8.99041243301225"><ele>168.0</ele><time>2026-04-06T17:27:54Z</time></trkpt><trkpt lat="40.672750618680524" lon="8.990738415865902"><ele>168.0</ele><time>2026-04-06T17:27:55Z</time></trkpt><trkpt lat="40.672803734392666" lon="8.991062641822026"><ele>168.0</ele><time>2026-04-06T17:27:56Z</time></trkpt><trkpt lat="40.67285198220861" lon="8.991387071934907"><ele>168.0</ele><time>2026-04-06T17:27:57Z</time></trkpt><trkpt lat="40.67289647636781" lon="8.991710337786177"><ele>168.0</ele><time>2026-04-06T17:27:58Z</time></trkpt><trkpt lat="40.672937159365716" lon="8.992031791285445"><ele>168.0</ele><time>2026-04-06T17:27:59Z</time></trkpt><trkpt lat="40.67297610825171" lon="8.992353410821549"><ele>168.5</ele><time>2026-04-06T17:28:00Z</time></trkpt><trkpt lat="40.67301302526213" lon="8.992677123830504"><ele>169.0</ele><time>2026-04-06T17:28:01Z</time></trkpt><trkpt lat="40.673050899662506" lon="8.992995169265878"><ele>169.0</ele><time>2026-04-06T17:28:02Z</time></trkpt><trkpt lat="40.67308896493323" lon="8.993313882512707"><ele>169.0</ele><time>2026-04-06T17:28:03Z</time></trkpt><trkpt lat="40.67312883201457" lon="8.993630956757636"><ele>168.5</ele><time>2026-04-06T17:28:04Z</time></trkpt><trkpt lat="40.673168087719986" lon="8.9939528327651"><ele>168.0</ele><time>2026-04-06T17:28:05Z</time></trkpt><trkpt lat="40.673206056438445" lon="8.994270560639324"><ele>167.0</ele><time>2026-04-06T17:28:06Z</time></trkpt><trkpt lat="40.67324532408516" lon="8.994585094889704"><ele>166.0</ele><time>2026-04-06T17:28:07Z</time></trkpt><trkpt lat="40.673281891497304" lon="8.994898266228141"><ele>166.5</ele><time>2026-04-06T17:28:08Z</time></trkpt><trkpt lat="40.67331643903101" lon="8.995208775875906"><ele>167.0</ele><time>2026-04-06T17:28:09Z</time></trkpt><trkpt lat="40.673352276884486" lon="8.995521428717735"><ele>167.5</ele><time>2026-04-06T17:28:10Z</time></trkpt><trkpt lat="40.673388286142384" lon="8.995841178175304"><ele>168.0</ele><time>2026-04-06T17:28:11Z</time></trkpt><trkpt lat="40.67342810820053" lon="8.996159133800774"><ele>168.0</ele><time>2026-04-06T17:28:12Z</time></trkpt><trkpt lat="40.673467112836555" lon="8.996487918870715"><ele>168.0</ele><time>2026-04-06T17:28:13Z</time></trkpt><trkpt lat="40.673506494677596" lon="8.996806464219071"><ele>168.0</ele><time>2026-04-06T17:28:14Z</time></trkpt><trkpt lat="40.67354730135891" lon="8.997136445611932"><ele>168.0</ele><time>2026-04-06T17:28:15Z</time></trkpt><trkpt lat="40.67359159364699" lon="8.997458698093462"><ele>169.0</ele><time>2026-04-06T17:28:16Z</time></trkpt><trkpt lat="40.67364014090043" lon="8.997789430741234"><ele>170.0</ele><time>2026-04-06T17:28:17Z</time></trkpt><trkpt lat="40.67369463915804" lon="8.998111153071772"><ele>169.5</ele><time>2026-04-06T17:28:18Z</time></trkpt><trkpt lat="40.673754469239256" lon="8.998433454485642"><ele>169.0</ele><time>2026-04-06T17:28:19Z</time></trkpt><trkpt lat="40.673820659881905" lon="8.99876007615307"><ele>169.0</ele><time>2026-04-06T17:28:20Z</time></trkpt><trkpt lat="40.67389357392619" lon="8.99907929848441"><ele>169.0</ele><time>2026-04-06T17:28:21Z</time></trkpt><trkpt lat="40.67397429234522" lon="8.999403461130553"><ele>169.0</ele><time>2026-04-06T17:28:22Z</time></trkpt><trkpt lat="40.674061176978014" lon="8.999716311824933"><ele>169.0</ele><time>2026-04-06T17:28:23Z</time></trkpt><trkpt lat="40.674154706659266" lon="9.000030571438215"><ele>169.0</ele><time>2026-04-06T17:28:24Z</time></trkpt><trkpt lat="40.674253259950966" lon="9.000344672465973"><ele>169.0</ele><time>2026-04-06T17:28:25Z</time></trkpt><trkpt lat="40.67435663474288" lon="9.000655767106252"><ele>170.0</ele><time>2026-04-06T17:28:26Z</time></trkpt><trkpt lat="40.6744641888477" lon="9.000958804550354"><ele>171.0</ele><time>2026-04-06T17:28:27Z</time></trkpt><trkpt lat="40.674575391392736" lon="9.001251483905255"><ele>171.0</ele><time>2026-04-06T17:28:28Z</time></trkpt><trkpt lat="40.67469165657069" lon="9.001544341191114"><ele>171.0</ele><time>2026-04-06T17:28:29Z</time></trkpt><trkpt lat="40.674812905862524" lon="9.001834440473893"><ele>171.0</ele><time>2026-04-06T17:28:30Z</time></trkpt><trkpt lat="40.67493538386618" lon="9.002115881290223"><ele>171.0</ele><time>2026-04-06T17:28:31Z</time></trkpt><trkpt lat="40.67505840620861" lon="9.002394730520287"><ele>171.0</ele><time>2026-04-06T17:28:32Z</time></trkpt><trkpt lat="40.675182537862916" lon="9.002675622740695"><ele>171.0</ele><time>2026-04-06T17:28:33Z</time></trkpt><trkpt lat="40.67530396040153" lon="9.002953684810516"><ele>171.0</ele><time>2026-04-06T17:28:34Z</time></trkpt><trkpt lat="40.67542711024453" lon="9.003228047943363"><ele>171.0</ele><time>2026-04-06T17:28:35Z</time></trkpt><trkpt lat="40.67555135791164" lon="9.003505230519075"><ele>171.5</ele><time>2026-04-06T17:28:36Z</time></trkpt><trkpt lat="40.675676189889366" lon="9.003780206087878"><ele>172.0</ele><time>2026-04-06T17:28:36.999Z</time></trkpt><trkpt lat="40.675802832194194" lon="9.004058150656258"><ele>172.0</ele><time>2026-04-06T17:28:37.999Z</time></trkpt><trkpt lat="40.675936844120564" lon="9.0043503463472"><ele>172.0</ele><time>2026-04-06T17:28:38.999Z</time></trkpt><trkpt lat="40.676074942549974" lon="9.004651565139927"><ele>172.5</ele><time>2026-04-06T17:28:39.999Z</time></trkpt><trkpt lat="40.67621414951715" lon="9.00495191499349"><ele>173.0</ele><time>2026-04-06T17:28:40.999Z</time></trkpt><trkpt lat="40.67635278013004" lon="9.005254790456334"><ele>173.0</ele><time>2026-04-06T17:28:41.999Z</time></trkpt><trkpt lat="40.67648656804429" lon="9.005557994340373"><ele>173.0</ele><time>2026-04-06T17:28:42.999Z</time></trkpt><trkpt lat="40.67661607183558" lon="9.005871308623703"><ele>172.5</ele><time>2026-04-06T17:28:43.999Z</time></trkpt><trkpt lat="40.67674111203756" lon="9.006188006865319"><ele>172.0</ele><time>2026-04-06T17:28:44.999Z</time></trkpt><trkpt lat="40.67686727365625" lon="9.006504407530892"><ele>171.5</ele><time>2026-04-06T17:28:45.999Z</time></trkpt><trkpt lat="40.6769958069065" lon="9.006818266558748"><ele>171.0</ele><time>2026-04-06T17:28:46.999Z</time></trkpt><trkpt lat="40.67712729191771" lon="9.00712905792315"><ele>171.0</ele><time>2026-04-06T17:28:47.999Z</time></trkpt><trkpt lat="40.67725307305963" lon="9.007430807298183"><ele>171.0</ele><time>2026-04-06T17:28:48.999Z</time></trkpt><trkpt lat="40.67737534688255" lon="9.00773568618314"><ele>172.5</ele><time>2026-04-06T17:28:49.999Z</time></trkpt><trkpt lat="40.67749084545878" lon="9.00804311679409"><ele>174.0</ele><time>2026-04-06T17:28:50.999Z</time></trkpt><trkpt lat="40.67759995043381" lon="9.008344539039593"><ele>174.0</ele><time>2026-04-06T17:28:51.999Z</time></trkpt><trkpt lat="40.67770611211962" lon="9.008635332768264"><ele>174.0</ele><time>2026-04-06T17:28:52.999Z</time></trkpt><trkpt lat="40.67781829298852" lon="9.008978223496502"><ele>174.5</ele><time>2026-04-06T17:28:53.999Z</time></trkpt><trkpt lat="40.67792213004347" lon="9.009290609140963"><ele>175.0</ele><time>2026-04-06T17:28:54.999Z</time></trkpt><trkpt lat="40.67802176697775" lon="9.009599740754407"><ele>175.0</ele><time>2026-04-06T17:28:55.999Z</time></trkpt><trkpt lat="40.678118380214" lon="9.009905774096831"><ele>175.0</ele><time>2026-04-06T17:28:56.999Z</time></trkpt><trkpt lat="40.67821031631184" lon="9.010213324022342"><ele>176.5</ele><time>2026-04-06T17:28:57.999Z</time></trkpt><trkpt lat="40.67829994956987" lon="9.010521759035745"><ele>178.0</ele><time>2026-04-06T17:28:58.999Z</time></trkpt><trkpt lat="40.678383041931525" lon="9.010834248240185"><ele>178.0</ele><time>2026-04-06T17:28:59.999Z</time></trkpt><trkpt lat="40.67846420761253" lon="9.011140784222182"><ele>178.0</ele><time>2026-04-06T17:29:00.999Z</time></trkpt><trkpt lat="40.678542780686385" lon="9.011447976012613"><ele>176.5</ele><time>2026-04-06T17:29:01.999Z</time></trkpt><trkpt lat="40.67862203542385" lon="9.01175614657878"><ele>175.0</ele><time>2026-04-06T17:29:02.999Z</time></trkpt><trkpt lat="40.678698196828506" lon="9.012063417724715"><ele>175.0</ele><time>2026-04-06T17:29:03.999Z</time></trkpt><trkpt lat="40.67877115806306" lon="9.01237766366328"><ele>175.0</ele><time>2026-04-06T17:29:04.999Z</time></trkpt><trkpt lat="40.67883621695209" lon="9.012694953853789"><ele>176.0</ele><time>2026-04-06T17:29:05.999Z</time></trkpt><trkpt lat="40.67889805555221" lon="9.013018530523944"><ele>177.0</ele><time>2026-04-06T17:29:07Z</time></trkpt><trkpt lat="40.678958669249184" lon="9.013334374956989"><ele>177.0</ele><time>2026-04-06T17:29:08Z</time></trkpt><trkpt lat="40.67902219025191" lon="9.01365708643431"><ele>177.0</ele><time>2026-04-06T17:29:09Z</time></trkpt><trkpt lat="40.67908361282236" lon="9.013981956405344"><ele>177.0</ele><time>2026-04-06T17:29:10Z</time></trkpt><trkpt lat="40.679143430830514" lon="9.014306952610701"><ele>177.0</ele><time>2026-04-06T17:29:11Z</time></trkpt><trkpt lat="40.679202844486724" lon="9.014631830175647"><ele>177.0</ele><time>2026-04-06T17:29:12Z</time></trkpt><trkpt lat="40.679259963856595" lon="9.014961712165778"><ele>177.0</ele><time>2026-04-06T17:29:13Z</time></trkpt><trkpt lat="40.679318954983074" lon="9.015292155201173"><ele>177.0</ele><time>2026-04-06T17:29:14Z</time></trkpt><trkpt lat="40.67938051773499" lon="9.015622152871243"><ele>177.0</ele><time>2026-04-06T17:29:15Z</time></trkpt><trkpt lat="40.67943776079334" lon="9.015951815828846"><ele>176.5</ele><time>2026-04-06T17:29:16Z</time></trkpt><trkpt lat="40.67949759927121" lon="9.016276801121156"><ele>176.0</ele><time>2026-04-06T17:29:17Z</time></trkpt><trkpt lat="40.67955575112647" lon="9.016602252354607"><ele>176.5</ele><time>2026-04-06T17:29:18Z</time></trkpt><trkpt lat="40.67961299118759" lon="9.01692857895358"><ele>177.0</ele><time>2026-04-06T17:29:19Z</time></trkpt><trkpt lat="40.6796718482402" lon="9.017242151911253"><ele>177.0</ele><time>2026-04-06T17:29:20Z</time></trkpt><trkpt lat="40.67973118721918" lon="9.017545727845372"><ele>177.0</ele><time>2026-04-06T17:29:21Z</time></trkpt><trkpt lat="40.67979345938513" lon="9.017830866259526"><ele>177.0</ele><time>2026-04-06T17:29:22Z</time></trkpt><trkpt lat="40.67985880818103" lon="9.018137220982693"><ele>177.0</ele><time>2026-04-06T17:29:23Z</time></trkpt><trkpt lat="40.6799233835894" lon="9.01844462975653"><ele>177.5</ele><time>2026-04-06T17:29:24Z</time></trkpt><trkpt lat="40.679993182986486" lon="9.018761793852976"><ele>178.0</ele><time>2026-04-06T17:29:25Z</time></trkpt><trkpt lat="40.68006635252476" lon="9.019077179029988"><ele>178.0</ele><time>2026-04-06T17:29:26Z</time></trkpt><trkpt lat="40.68014368044166" lon="9.019396042994224"><ele>178.0</ele><time>2026-04-06T17:29:27Z</time></trkpt><trkpt lat="40.68022486661034" lon="9.019719914313752"><ele>180.5</ele><time>2026-04-06T17:29:28Z</time></trkpt><trkpt lat="40.6803110601735" lon="9.020040761211959"><ele>183.0</ele><time>2026-04-06T17:29:29Z</time></trkpt><trkpt lat="40.6804030672621" lon="9.020365466006169"><ele>183.0</ele><time>2026-04-06T17:29:30Z</time></trkpt><trkpt lat="40.68049772350459" lon="9.020691659162711"><ele>183.0</ele><time>2026-04-06T17:29:31Z</time></trkpt><trkpt lat="40.68059268511102" lon="9.021023191981177"><ele>184.0</ele><time>2026-04-06T17:29:32Z</time></trkpt><trkpt lat="40.680690389615414" lon="9.02135381458571"><ele>185.0</ele><time>2026-04-06T17:29:33Z</time></trkpt><trkpt lat="40.680793729329125" lon="9.021679668712748"><ele>187.0</ele><time>2026-04-06T17:29:34Z</time></trkpt><trkpt lat="40.68089818692889" lon="9.02199610997174"><ele>189.0</ele><time>2026-04-06T17:29:35Z</time></trkpt><trkpt lat="40.68100271332782" lon="9.022297068651177"><ele>189.5</ele><time>2026-04-06T17:29:36Z</time></trkpt><trkpt lat="40.681109413889125" lon="9.022584482555644"><ele>190.0</ele><time>2026-04-06T17:29:37Z</time></trkpt><trkpt lat="40.68121147080534" lon="9.022862148496051"><ele>190.0</ele><time>2026-04-06T17:29:38Z</time></trkpt><trkpt lat="40.681316390214036" lon="9.023144065987385"><ele>190.0</ele><time>2026-04-06T17:29:39Z</time></trkpt><trkpt lat="40.68142676513143" lon="9.023428686371869"><ele>190.0</ele><time>2026-04-06T17:29:40Z</time></trkpt><trkpt lat="40.68154141102579" lon="9.023713026650409"><ele>190.0</ele><time>2026-04-06T17:29:41Z</time></trkpt><trkpt lat="40.68165498750789" lon="9.023986637435645"><ele>189.5</ele><time>2026-04-06T17:29:42Z</time></trkpt><trkpt lat="40.68177226419806" lon="9.024261640537325"><ele>189.0</ele><time>2026-04-06T17:29:43Z</time></trkpt><trkpt lat="40.68189233294889" lon="9.024545698951215"><ele>187.5</ele><time>2026-04-06T17:29:44Z</time></trkpt><trkpt lat="40.68201547497699" lon="9.024831261234395"><ele>186.0</ele><time>2026-04-06T17:29:45Z</time></trkpt><trkpt lat="40.682145729142874" lon="9.025121009649997"><ele>186.0</ele><time>2026-04-06T17:29:46Z</time></trkpt><trkpt lat="40.68227902194276" lon="9.025408687872217"><ele>186.0</ele><time>2026-04-06T17:29:47Z</time></trkpt><trkpt lat="40.682411550261406" lon="9.025683982069404"><ele>185.0</ele><time>2026-04-06T17:29:48Z</time></trkpt><trkpt lat="40.68254533216718" lon="9.025951684147598"><ele>184.0</ele><time>2026-04-06T17:29:49Z</time></trkpt><trkpt lat="40.68267978093072" lon="9.026217089026213"><ele>183.0</ele><time>2026-04-06T17:29:50Z</time></trkpt><trkpt lat="40.68281726042443" lon="9.026481891038953"><ele>182.0</ele><time>2026-04-06T17:29:51Z</time></trkpt><trkpt lat="40.6829533948432" lon="9.0267369861964"><ele>181.5</ele><time>2026-04-06T17:29:52Z</time></trkpt><trkpt lat="40.68309603066257" lon="9.026996529810676"><ele>181.0</ele><time>2026-04-06T17:29:53Z</time></trkpt><trkpt lat="40.683236543471175" lon="9.027245675638158"><ele>181.5</ele><time>2026-04-06T17:29:54Z</time></trkpt><trkpt lat="40.68338139691061" lon="9.027495203688735"><ele>182.0</ele><time>2026-04-06T17:29:55Z</time></trkpt><trkpt lat="40.68353110674187" lon="9.027749758090978"><ele>181.0</ele><time>2026-04-06T17:29:56Z</time></trkpt><trkpt lat="40.68368012747625" lon="9.02799716035724"><ele>180.0</ele><time>2026-04-06T17:29:57Z</time></trkpt><trkpt lat="40.683835010151746" lon="9.02824727907621"><ele>180.5</ele><time>2026-04-06T17:29:58Z</time></trkpt><trkpt lat="40.683990353362624" lon="9.028494822251428"><ele>181.0</ele><time>2026-04-06T17:29:59Z</time></trkpt><trkpt lat="40.684149233107156" lon="9.02874324356777"><ele>181.0</ele><time>2026-04-06T17:30:00Z</time></trkpt><trkpt lat="40.684308258248464" lon="9.02898620909677"><ele>181.0</ele><time>2026-04-06T17:30:01Z</time></trkpt><trkpt lat="40.684473679715595" lon="9.029234305929"><ele>180.0</ele><time>2026-04-06T17:30:02Z</time></trkpt><trkpt lat="40.6846401411084" lon="9.029474705648362"><ele>179.0</ele><time>2026-04-06T17:30:03Z</time></trkpt><trkpt lat="40.68481190949329" lon="9.029716224489967"><ele>179.0</ele><time>2026-04-06T17:30:04Z</time></trkpt><trkpt lat="40.684982843415796" lon="9.029952788244326"><ele>179.0</ele><time>2026-04-06T17:30:05Z</time></trkpt><trkpt lat="40.685159334864885" lon="9.030188137323027"><ele>178.5</ele><time>2026-04-06T17:30:06Z</time></trkpt><trkpt lat="40.68533968046372" lon="9.03042294214811"><ele>178.0</ele><time>2026-04-06T17:30:07Z</time></trkpt><trkpt lat="40.685519817936296" lon="9.030653754187767"><ele>180.5</ele><time>2026-04-06T17:30:08Z</time></trkpt><trkpt lat="40.68570853360723" lon="9.030887303825917"><ele>183.0</ele><time>2026-04-06T17:30:09Z</time></trkpt><trkpt lat="40.68589539791987" lon="9.031113845735765"><ele>183.0</ele><time>2026-04-06T17:30:10Z</time></trkpt><trkpt lat="40.686084023315736" lon="9.031340383422265"><ele>183.0</ele><time>2026-04-06T17:30:11Z</time></trkpt><trkpt lat="40.68627266879758" lon="9.031561688648948"><ele>182.5</ele><time>2026-04-06T17:30:12Z</time></trkpt><trkpt lat="40.68646765872185" lon="9.03177869155856"><ele>182.0</ele><time>2026-04-06T17:30:13Z</time></trkpt><trkpt lat="40.686665420899125" lon="9.031991057527602"><ele>182.0</ele><time>2026-04-06T17:30:14Z</time></trkpt><trkpt lat="40.686865055380004" lon="9.032201809306754"><ele>182.0</ele><time>2026-04-06T17:30:15Z</time></trkpt><trkpt lat="40.687064742011124" lon="9.032411009926275"><ele>181.5</ele><time>2026-04-06T17:30:16Z</time></trkpt><trkpt lat="40.68726511477826" lon="9.032617207453436"><ele>181.0</ele><time>2026-04-06T17:30:17Z</time></trkpt><trkpt lat="40.68746779584507" lon="9.032821134396563"><ele>181.0</ele><time>2026-04-06T17:30:18Z</time></trkpt><trkpt lat="40.68767201027623" lon="9.033023399180916"><ele>181.0</ele><time>2026-04-06T17:30:19Z</time></trkpt><trkpt lat="40.687875745336484" lon="9.033217912174782"><ele>180.5</ele><time>2026-04-06T17:30:19.999Z</time></trkpt><trkpt lat="40.68808183234615" lon="9.033413113638169"><ele>180.0</ele><time>2026-04-06T17:30:20.999Z</time></trkpt><trkpt lat="40.68828580987814" lon="9.033600288158874"><ele>180.0</ele><time>2026-04-06T17:30:21.999Z</time></trkpt><trkpt lat="40.688483834878426" lon="9.033782622868621"><ele>180.0</ele><time>2026-04-06T17:30:22.999Z</time></trkpt><trkpt lat="40.68867974159641" lon="9.033956802530277"><ele>180.5</ele><time>2026-04-06T17:30:23.999Z</time></trkpt><trkpt lat="40.688873379143836" lon="9.034130499695213"><ele>181.0</ele><time>2026-04-06T17:30:24.999Z</time></trkpt><trkpt lat="40.68907295569061" lon="9.034302912395534"><ele>181.5</ele><time>2026-04-06T17:30:25.999Z</time></trkpt><trkpt lat="40.689271070342265" lon="9.034478794469821"><ele>182.0</ele><time>2026-04-06T17:30:26.999Z</time></trkpt><trkpt lat="40.68947228075872" lon="9.03465494077966"><ele>181.5</ele><time>2026-04-06T17:30:27.999Z</time></trkpt><trkpt lat="40.68967793065464" lon="9.034836443265842"><ele>181.0</ele><time>2026-04-06T17:30:28.999Z</time></trkpt><trkpt lat="40.68988235499441" lon="9.035016930193573"><ele>181.0</ele><time>2026-04-06T17:30:29.999Z</time></trkpt><trkpt lat="40.69008616011132" lon="9.03519833327274"><ele>181.0</ele><time>2026-04-06T17:30:30.999Z</time></trkpt><trkpt lat="40.690294838353054" lon="9.035386340376943"><ele>182.5</ele><time>2026-04-06T17:30:31.999Z</time></trkpt><trkpt lat="40.690501553017306" lon="9.035569670846371"><ele>184.0</ele><time>2026-04-06T17:30:32.999Z</time></trkpt><trkpt lat="40.69071120784043" lon="9.035754425116028"><ele>184.0</ele><time>2026-04-06T17:30:33.999Z</time></trkpt><trkpt lat="40.69092145528062" lon="9.035935730007337"><ele>184.0</ele><time>2026-04-06T17:30:34.999Z</time></trkpt><trkpt lat="40.69113347388516" lon="9.036118482879836"><ele>184.0</ele><time>2026-04-06T17:30:35.999Z</time></trkpt><trkpt lat="40.691343874884105" lon="9.036299578016923"><ele>184.0</ele><time>2026-04-06T17:30:36.999Z</time></trkpt><trkpt lat="40.6915538676435" lon="9.036480762430198"><ele>183.5</ele><time>2026-04-06T17:30:37.999Z</time></trkpt><trkpt lat="40.69176331851537" lon="9.036663537476302"><ele>183.0</ele><time>2026-04-06T17:30:38.999Z</time></trkpt><trkpt lat="40.69197294350388" lon="9.036850859917644"><ele>181.0</ele><time>2026-04-06T17:30:39.999Z</time></trkpt><trkpt lat="40.69218380666638" lon="9.037038761746755"><ele>179.0</ele><time>2026-04-06T17:30:40.999Z</time></trkpt><trkpt lat="40.69239452676025" lon="9.037227545037634"><ele>179.0</ele><time>2026-04-06T17:30:41.999Z</time></trkpt><trkpt lat="40.692603480874354" lon="9.037416656732935"><ele>179.0</ele><time>2026-04-06T17:30:42.999Z</time></trkpt><trkpt lat="40.69281576829805" lon="9.037606493170493"><ele>179.0</ele><time>2026-04-06T17:30:43.999Z</time></trkpt><trkpt lat="40.693026604589235" lon="9.037795102530307"><ele>179.0</ele><time>2026-04-06T17:30:44.999Z</time></trkpt><trkpt lat="40.693237103824394" lon="9.037981599259611"><ele>179.0</ele><time>2026-04-06T17:30:45.999Z</time></trkpt><trkpt lat="40.69344533231868" lon="9.03816559978158"><ele>179.0</ele><time>2026-04-06T17:30:46.999Z</time></trkpt><trkpt lat="40.693659225021854" lon="9.038351211483757"><ele>180.0</ele><time>2026-04-06T17:30:47.999Z</time></trkpt><trkpt lat="40.6938682955961" lon="9.038533362148181"><ele>181.0</ele><time>2026-04-06T17:30:48.999Z</time></trkpt><trkpt lat="40.69407977671691" lon="9.03871968890774"><ele>181.0</ele><time>2026-04-06T17:30:49.999Z</time></trkpt><trkpt lat="40.69428964317547" lon="9.03890714673412"><ele>181.0</ele><time>2026-04-06T17:30:50.999Z</time></trkpt><trkpt lat="40.69449812156376" lon="9.039094220925676"><ele>181.0</ele><time>2026-04-06T17:30:51.999Z</time></trkpt><trkpt lat="40.69470841761924" lon="9.039278520361329"><ele>181.0</ele><time>2026-04-06T17:30:52.999Z</time></trkpt><trkpt lat="40.69492283503181" lon="9.039463450794656"><ele>181.0</ele><time>2026-04-06T17:30:53.999Z</time></trkpt><trkpt lat="40.69513452343116" lon="9.039647581983438"><ele>181.0</ele><time>2026-04-06T17:30:54.999Z</time></trkpt><trkpt lat="40.695344070957866" lon="9.039834144525717"><ele>179.0</ele><time>2026-04-06T17:30:55.999Z</time></trkpt><trkpt lat="40.69555355796207" lon="9.040021987448137"><ele>177.0</ele><time>2026-04-06T17:30:56.999Z</time></trkpt><trkpt lat="40.69576445850383" lon="9.040209791986738"><ele>177.0</ele><time>2026-04-06T17:30:57.999Z</time></trkpt><trkpt lat="40.69597456830326" lon="9.040394161324452"><ele>177.0</ele><time>2026-04-06T17:30:58.999Z</time></trkpt><trkpt lat="40.696187069046594" lon="9.04058068641469"><ele>177.0</ele><time>2026-04-06T17:30:59.999Z</time></trkpt><trkpt lat="40.696399217157456" lon="9.040765714956557"><ele>177.0</ele><time>2026-04-06T17:31:00.999Z</time></trkpt><trkpt lat="40.69661572411089" lon="9.04095293645166"><ele>177.0</ele><time>2026-04-06T17:31:01.999Z</time></trkpt><trkpt lat="40.69682789041499" lon="9.04113995350817"><ele>177.0</ele><time>2026-04-06T17:31:02.999Z</time></trkpt><trkpt lat="40.69703860190931" lon="9.041325427865852"><ele>176.0</ele><time>2026-04-06T17:31:03.999Z</time></trkpt><trkpt lat="40.69725429532002" lon="9.041514127744973"><ele>175.0</ele><time>2026-04-06T17:31:04.999Z</time></trkpt><trkpt lat="40.69746441170896" lon="9.041701184836258"><ele>173.0</ele><time>2026-04-06T17:31:05.999Z</time></trkpt><trkpt lat="40.697678084770835" lon="9.041887877673444"><ele>171.0</ele><time>2026-04-06T17:31:06.999Z</time></trkpt><trkpt lat="40.697885243625244" lon="9.042072560421392"><ele>169.0</ele><time>2026-04-06T17:31:07.999Z</time></trkpt><trkpt lat="40.69809152853482" lon="9.042256033386979"><ele>167.0</ele><time>2026-04-06T17:31:08.999Z</time></trkpt><trkpt lat="40.69829895662008" lon="9.042436682956676"><ele>166.5</ele><time>2026-04-06T17:31:09.999Z</time></trkpt><trkpt lat="40.69850015365033" lon="9.042615130342728"><ele>166.0</ele><time>2026-04-06T17:31:10.999Z</time></trkpt><trkpt lat="40.698711139571316" lon="9.04279637055718"><ele>165.5</ele><time>2026-04-06T17:31:11.999Z</time></trkpt><trkpt lat="40.6989175060456" lon="9.042975699706531"><ele>165.0</ele><time>2026-04-06T17:31:13Z</time></trkpt><trkpt lat="40.699129273280136" lon="9.043156439052783"><ele>165.0</ele><time>2026-04-06T17:31:14Z</time></trkpt><trkpt lat="40.6993376530646" lon="9.043335290769829"><ele>165.0</ele><time>2026-04-06T17:31:15Z</time></trkpt><trkpt lat="40.69954712345651" lon="9.043513712999246"><ele>165.0</ele><time>2026-04-06T17:31:16Z</time></trkpt><trkpt lat="40.69975991635076" lon="9.043695387735953"><ele>165.0</ele><time>2026-04-06T17:31:17Z</time></trkpt><trkpt lat="40.69997007797558" lon="9.043879222925993"><ele>165.0</ele><time>2026-04-06T17:31:18Z</time></trkpt><trkpt lat="40.70018309850357" lon="9.044068117251081"><ele>165.0</ele><time>2026-04-06T17:31:19Z</time></trkpt><trkpt lat="40.70039836542874" lon="9.04425814434327"><ele>168.0</ele><time>2026-04-06T17:31:20Z</time></trkpt><trkpt lat="40.70061688244652" lon="9.04444416180382"><ele>171.0</ele><time>2026-04-06T17:31:21Z</time></trkpt><trkpt lat="40.70084066800266" lon="9.044628061490421"><ele>171.0</ele><time>2026-04-06T17:31:22Z</time></trkpt><trkpt lat="40.701065481252016" lon="9.044813845227507"><ele>171.0</ele><time>2026-04-06T17:31:23Z</time></trkpt><trkpt lat="40.70129036707892" lon="9.045005604358195"><ele>170.0</ele><time>2026-04-06T17:31:24Z</time></trkpt><trkpt lat="40.70150952283364" lon="9.045198593861365"><ele>169.0</ele><time>2026-04-06T17:31:25Z</time></trkpt><trkpt lat="40.701726198628286" lon="9.045388511349435"><ele>166.5</ele><time>2026-04-06T17:31:26Z</time></trkpt><trkpt lat="40.701939477942375" lon="9.045574040500382"><ele>164.0</ele><time>2026-04-06T17:31:27Z</time></trkpt><trkpt lat="40.70214668225459" lon="9.045755760155728"><ele>165.5</ele><time>2026-04-06T17:31:28Z</time></trkpt><trkpt lat="40.70235279215001" lon="9.045941515252368"><ele>167.0</ele><time>2026-04-06T17:31:29Z</time></trkpt><trkpt lat="40.702549251888954" lon="9.046128695059695"><ele>166.0</ele><time>2026-04-06T17:31:30Z</time></trkpt><trkpt lat="40.702752616507006" lon="9.046322777847605"><ele>165.0</ele><time>2026-04-06T17:31:31Z</time></trkpt><trkpt lat="40.70295814289953" lon="9.046521077824629"><ele>166.5</ele><time>2026-04-06T17:31:32Z</time></trkpt><trkpt lat="40.70316917092552" lon="9.046718419777875"><ele>168.0</ele><time>2026-04-06T17:31:33Z</time></trkpt><trkpt lat="40.70338726442277" lon="9.046913979733468"><ele>167.5</ele><time>2026-04-06T17:31:34Z</time></trkpt><trkpt lat="40.703606023537915" lon="9.04710495692893"><ele>167.0</ele><time>2026-04-06T17:31:35Z</time></trkpt><trkpt lat="40.70383239509683" lon="9.047304963533586"><ele>169.5</ele><time>2026-04-06T17:31:36Z</time></trkpt><trkpt lat="40.70405590872282" lon="9.047506961984647"><ele>172.0</ele><time>2026-04-06T17:31:37Z</time></trkpt><trkpt lat="40.70427744966381" lon="9.047707066280056"><ele>172.5</ele><time>2026-04-06T17:31:38Z</time></trkpt><trkpt lat="40.70450120600485" lon="9.047908061003687"><ele>173.0</ele><time>2026-04-06T17:31:39Z</time></trkpt><trkpt lat="40.7047240485992" lon="9.048109654807604"><ele>174.0</ele><time>2026-04-06T17:31:40Z</time></trkpt><trkpt lat="40.704942221976275" lon="9.048311371613128"><ele>175.0</ele><time>2026-04-06T17:31:41Z</time></trkpt><trkpt lat="40.70515380438473" lon="9.048507712906744"><ele>176.0</ele><time>2026-04-06T17:31:42Z</time></trkpt><trkpt lat="40.70536252199863" lon="9.048705598234585"><ele>177.0</ele><time>2026-04-06T17:31:43Z</time></trkpt><trkpt lat="40.70557191401793" lon="9.048908713422247"><ele>177.0</ele><time>2026-04-06T17:31:44Z</time></trkpt><trkpt lat="40.70577547334315" lon="9.049110097779158"><ele>177.0</ele><time>2026-04-06T17:31:45Z</time></trkpt><trkpt lat="40.70597536758538" lon="9.049313854214942"><ele>179.0</ele><time>2026-04-06T17:31:46Z</time></trkpt><trkpt lat="40.70616579126689" lon="9.049519922467592"><ele>181.0</ele><time>2026-04-06T17:31:47Z</time></trkpt><trkpt lat="40.70635726478635" lon="9.049731381867165"><ele>181.0</ele><time>2026-04-06T17:31:48Z</time></trkpt><trkpt lat="40.70654645447837" lon="9.049942263034481"><ele>181.0</ele><time>2026-04-06T17:31:49Z</time></trkpt><trkpt lat="40.70672875703652" lon="9.050147045828654"><ele>186.0</ele><time>2026-04-06T17:31:50Z</time></trkpt><trkpt lat="40.706915163503524" lon="9.05035872388958"><ele>191.0</ele><time>2026-04-06T17:31:51Z</time></trkpt><trkpt lat="40.70710596580649" lon="9.050584305568476"><ele>194.0</ele><time>2026-04-06T17:31:52Z</time></trkpt><trkpt lat="40.70729355406957" lon="9.050808110430689"><ele>197.0</ele><time>2026-04-06T17:31:53Z</time></trkpt><trkpt lat="40.70747658746137" lon="9.051034877183021"><ele>197.0</ele><time>2026-04-06T17:31:54Z</time></trkpt><trkpt lat="40.70765844415054" lon="9.051268267125533"><ele>197.0</ele><time>2026-04-06T17:31:55Z</time></trkpt><trkpt lat="40.70783892451526" lon="9.051509112216413"><ele>197.5</ele><time>2026-04-06T17:31:56Z</time></trkpt><trkpt lat="40.708019352513425" lon="9.051755141546082"><ele>198.0</ele><time>2026-04-06T17:31:57Z</time></trkpt><trkpt lat="40.708197234028596" lon="9.05200285932401"><ele>198.0</ele><time>2026-04-06T17:31:58Z</time></trkpt><trkpt lat="40.70837650746114" lon="9.052257482476739"><ele>198.0</ele><time>2026-04-06T17:31:59Z</time></trkpt><trkpt lat="40.70855325951865" lon="9.052508556587322"><ele>200.5</ele><time>2026-04-06T17:32:00Z</time></trkpt><trkpt lat="40.708724655168034" lon="9.052759291811826"><ele>203.0</ele><time>2026-04-06T17:32:01Z</time></trkpt><trkpt lat="40.70889180993296" lon="9.05301369109516"><ele>203.0</ele><time>2026-04-06T17:32:02Z</time></trkpt><trkpt lat="40.70905311848516" lon="9.05326986117956"><ele>203.0</ele><time>2026-04-06T17:32:03Z</time></trkpt><trkpt lat="40.70921460393373" lon="9.053527003137146"><ele>203.5</ele><time>2026-04-06T17:32:04Z</time></trkpt><trkpt lat="40.70937571284596" lon="9.053787803564816"><ele>204.0</ele><time>2026-04-06T17:32:05Z</time></trkpt><trkpt lat="40.70953414533177" lon="9.054046849674004"><ele>206.0</ele><time>2026-04-06T17:32:06Z</time></trkpt><trkpt lat="40.709687371070096" lon="9.05430730461005"><ele>208.0</ele><time>2026-04-06T17:32:07Z</time></trkpt><trkpt lat="40.70984005553344" lon="9.054572483916404"><ele>208.0</ele><time>2026-04-06T17:32:08Z</time></trkpt><trkpt lat="40.709988424967776" lon="9.054837215197724"><ele>208.0</ele><time>2026-04-06T17:32:09Z</time></trkpt><trkpt lat="40.710134443163795" lon="9.055102579693745"><ele>208.0</ele><time>2026-04-06T17:32:10Z</time></trkpt><trkpt lat="40.71027956065088" lon="9.055374316364627"><ele>208.0</ele><time>2026-04-06T17:32:11Z</time></trkpt><trkpt lat="40.710421310795404" lon="9.055644703673167"><ele>211.0</ele><time>2026-04-06T17:32:12Z</time></trkpt><trkpt lat="40.71056651057436" lon="9.055920134616343"><ele>214.0</ele><time>2026-04-06T17:32:13Z</time></trkpt><trkpt lat="40.71070851785512" lon="9.056195282778653"><ele>214.0</ele><time>2026-04-06T17:32:14Z</time></trkpt><trkpt lat="40.710852871630635" lon="9.056474138436469"><ele>214.0</ele><time>2026-04-06T17:32:15Z</time></trkpt><trkpt lat="40.71099741330781" lon="9.056751984012848"><ele>215.5</ele><time>2026-04-06T17:32:16Z</time></trkpt><trkpt lat="40.711143800547866" lon="9.057034786827746"><ele>217.0</ele><time>2026-04-06T17:32:17Z</time></trkpt><trkpt lat="40.71128893504222" lon="9.057317575384658"><ele>220.5</ele><time>2026-04-06T17:32:18Z</time></trkpt><trkpt lat="40.71143411629153" lon="9.057601606515378"><ele>224.0</ele><time>2026-04-06T17:32:19Z</time></trkpt><trkpt lat="40.71158024110082" lon="9.05788637099481"><ele>224.0</ele><time>2026-04-06T17:32:20Z</time></trkpt><trkpt lat="40.71172801093733" lon="9.058170566772617"><ele>224.0</ele><time>2026-04-06T17:32:21Z</time></trkpt><trkpt lat="40.71187559081656" lon="9.058454319538914"><ele>228.0</ele><time>2026-04-06T17:32:21.999Z</time></trkpt><trkpt lat="40.71202357896998" lon="9.058740958558042"><ele>232.0</ele><time>2026-04-06T17:32:22.999Z</time></trkpt><trkpt lat="40.71216657115843" lon="9.059020712093178"><ele>228.0</ele><time>2026-04-06T17:32:23.999Z</time></trkpt><trkpt lat="40.71231268958371" lon="9.059309032629777"><ele>224.0</ele><time>2026-04-06T17:32:24.999Z</time></trkpt><trkpt lat="40.71245983123632" lon="9.05959952739488"><ele>224.0</ele><time>2026-04-06T17:32:25.999Z</time></trkpt><trkpt lat="40.71260691051865" lon="9.05988699572573"><ele>224.0</ele><time>2026-04-06T17:32:26.999Z</time></trkpt><trkpt lat="40.712754363718794" lon="9.060173152323797"><ele>226.0</ele><time>2026-04-06T17:32:27.999Z</time></trkpt><trkpt lat="40.71289559445846" lon="9.06044917105335"><ele>228.0</ele><time>2026-04-06T17:32:28.999Z</time></trkpt><trkpt lat="40.71304332447086" lon="9.0607388059539"><ele>228.0</ele><time>2026-04-06T17:32:29.999Z</time></trkpt><trkpt lat="40.713188376855165" lon="9.061020138165638"><ele>228.0</ele><time>2026-04-06T17:32:30.999Z</time></trkpt><trkpt lat="40.71333270369163" lon="9.06129778290579"><ele>228.0</ele><time>2026-04-06T17:32:31.999Z</time></trkpt><trkpt lat="40.713467747979266" lon="9.061556984425694"><ele>228.0</ele><time>2026-04-06T17:32:32.999Z</time></trkpt><trkpt lat="40.71359985298242" lon="9.061813398643642"><ele>231.5</ele><time>2026-04-06T17:32:33.999Z</time></trkpt><trkpt lat="40.71373272973031" lon="9.062076588451209"><ele>235.0</ele><time>2026-04-06T17:32:34.999Z</time></trkpt><trkpt lat="40.71386797974407" lon="9.062348104676603"><ele>234.5</ele><time>2026-04-06T17:32:35.999Z</time></trkpt><trkpt lat="40.71400260029327" lon="9.062614268668375"><ele>234.0</ele><time>2026-04-06T17:32:36.999Z</time></trkpt><trkpt lat="40.71414192210165" lon="9.062885736431463"><ele>234.0</ele><time>2026-04-06T17:32:37.999Z</time></trkpt><trkpt lat="40.7142824209614" lon="9.063157669308925"><ele>234.0</ele><time>2026-04-06T17:32:38.999Z</time></trkpt><trkpt lat="40.71441590926355" lon="9.063417398263626"><ele>236.0</ele><time>2026-04-06T17:32:39.999Z</time></trkpt><trkpt lat="40.71456197109404" lon="9.063704315175556"><ele>238.0</ele><time>2026-04-06T17:32:40.999Z</time></trkpt><trkpt lat="40.7147056577062" lon="9.063983406354863"><ele>237.5</ele><time>2026-04-06T17:32:41.999Z</time></trkpt><trkpt lat="40.714849155584744" lon="9.064262070229221"><ele>237.0</ele><time>2026-04-06T17:32:42.999Z</time></trkpt><trkpt lat="40.714996171253894" lon="9.064543815552469"><ele>237.0</ele><time>2026-04-06T17:32:43.999Z</time></trkpt><trkpt lat="40.71514438279605" lon="9.064823336520885"><ele>237.0</ele><time>2026-04-06T17:32:44.999Z</time></trkpt><trkpt lat="40.715291579931936" lon="9.065104115982354"><ele>237.0</ele><time>2026-04-06T17:32:45.999Z</time></trkpt><trkpt lat="40.715437446956564" lon="9.065393928068296"><ele>237.0</ele><time>2026-04-06T17:32:46.999Z</time></trkpt><trkpt lat="40.71557846845628" lon="9.06568217250669"><ele>234.5</ele><time>2026-04-06T17:32:47.999Z</time></trkpt><trkpt lat="40.71572210841357" lon="9.065965645703423"><ele>232.0</ele><time>2026-04-06T17:32:48.999Z</time></trkpt><trkpt lat="40.715871338766846" lon="9.066254607970677"><ele>232.0</ele><time>2026-04-06T17:32:49.999Z</time></trkpt><trkpt lat="40.716018352502104" lon="9.066529424848223"><ele>232.0</ele><time>2026-04-06T17:32:50.999Z</time></trkpt><trkpt lat="40.716163617347924" lon="9.066807625459079"><ele>229.5</ele><time>2026-04-06T17:32:51.999Z</time></trkpt><trkpt lat="40.716305212951205" lon="9.067085351885826"><ele>227.0</ele><time>2026-04-06T17:32:52.999Z</time></trkpt><trkpt lat="40.71644684067257" lon="9.067365407898022"><ele>224.0</ele><time>2026-04-06T17:32:53.999Z</time></trkpt><trkpt lat="40.716588059695525" lon="9.067641760072933"><ele>221.0</ele><time>2026-04-06T17:32:54.999Z</time></trkpt><trkpt lat="40.7167263519883" lon="9.067913943722292"><ele>221.0</ele><time>2026-04-06T17:32:55.999Z</time></trkpt><trkpt lat="40.71686569555673" lon="9.06818422912253"><ele>221.0</ele><time>2026-04-06T17:32:56.999Z</time></trkpt><trkpt lat="40.71700691651047" lon="9.06846161494675"><ele>218.5</ele><time>2026-04-06T17:32:57.999Z</time></trkpt><trkpt lat="40.717145509085896" lon="9.068735647007847"><ele>216.0</ele><time>2026-04-06T17:32:58.999Z</time></trkpt><trkpt lat="40.71728482924013" lon="9.069015269309583"><ele>214.0</ele><time>2026-04-06T17:32:59.999Z</time></trkpt><trkpt lat="40.717425099650626" lon="9.06929333934619"><ele>212.0</ele><time>2026-04-06T17:33:00.999Z</time></trkpt><trkpt lat="40.71756917572591" lon="9.069576974905209"><ele>212.0</ele><time>2026-04-06T17:33:01.999Z</time></trkpt><trkpt lat="40.71771498389338" lon="9.069859387688991"><ele>212.0</ele><time>2026-04-06T17:33:02.999Z</time></trkpt><trkpt lat="40.71785674281163" lon="9.070132062001703"><ele>209.5</ele><time>2026-04-06T17:33:03.999Z</time></trkpt><trkpt lat="40.71799193099048" lon="9.070396926258608"><ele>207.0</ele><time>2026-04-06T17:33:04.999Z</time></trkpt><trkpt lat="40.718122461067516" lon="9.070653741027986"><ele>205.5</ele><time>2026-04-06T17:33:05.999Z</time></trkpt><trkpt lat="40.718258582223456" lon="9.070922171457955"><ele>204.0</ele><time>2026-04-06T17:33:06.999Z</time></trkpt><trkpt lat="40.71839957636363" lon="9.071195630562755"><ele>204.0</ele><time>2026-04-06T17:33:07.999Z</time></trkpt><trkpt lat="40.718539854536324" lon="9.071473161995213"><ele>204.0</ele><time>2026-04-06T17:33:08.999Z</time></trkpt><trkpt lat="40.718684576096756" lon="9.07175448269615"><ele>203.0</ele><time>2026-04-06T17:33:09.999Z</time></trkpt><trkpt lat="40.71883335679067" lon="9.07204374509911"><ele>202.0</ele><time>2026-04-06T17:33:10.999Z</time></trkpt><trkpt lat="40.7189802853184" lon="9.072327874636132"><ele>200.0</ele><time>2026-04-06T17:33:11.999Z</time></trkpt><trkpt lat="40.7191321996602" lon="9.07262172775928"><ele>198.0</ele><time>2026-04-06T17:33:12.999Z</time></trkpt><trkpt lat="40.71927957791933" lon="9.07291100102923"><ele>196.0</ele><time>2026-04-06T17:33:13.999Z</time></trkpt><trkpt lat="40.71941646891001" lon="9.073181055469854"><ele>194.0</ele><time>2026-04-06T17:33:14.999Z</time></trkpt><trkpt lat="40.719553176230335" lon="9.07344913328886"><ele>194.0</ele><time>2026-04-06T17:33:15.999Z</time></trkpt><trkpt lat="40.719694731828355" lon="9.073725543759574"><ele>194.0</ele><time>2026-04-06T17:33:16.999Z</time></trkpt><trkpt lat="40.719834784304545" lon="9.074000989054255"><ele>190.5</ele><time>2026-04-06T17:33:17.999Z</time></trkpt><trkpt lat="40.71997795388183" lon="9.074277021088543"><ele>187.0</ele><time>2026-04-06T17:33:19Z</time></trkpt><trkpt lat="40.72012389813166" lon="9.074547912977199"><ele>188.5</ele><time>2026-04-06T17:33:20Z</time></trkpt><trkpt lat="40.72026639207519" lon="9.074831443290776"><ele>190.0</ele><time>2026-04-06T17:33:21Z</time></trkpt><trkpt lat="40.72041185875635" lon="9.075112359584283"><ele>187.0</ele><time>2026-04-06T17:33:22Z</time></trkpt><trkpt lat="40.72055430000241" lon="9.075386830231398"><ele>184.0</ele><time>2026-04-06T17:33:23Z</time></trkpt><trkpt lat="40.720698020290804" lon="9.07566688844447"><ele>182.5</ele><time>2026-04-06T17:33:24Z</time></trkpt><trkpt lat="40.72083850858595" lon="9.075944037193931"><ele>181.0</ele><time>2026-04-06T17:33:25Z</time></trkpt><trkpt lat="40.720982247982285" lon="9.076223813544269"><ele>181.0</ele><time>2026-04-06T17:33:26Z</time></trkpt><trkpt lat="40.72112210016283" lon="9.076500043614073"><ele>181.0</ele><time>2026-04-06T17:33:27Z</time></trkpt><trkpt lat="40.7212600603247" lon="9.076770412706733"><ele>178.5</ele><time>2026-04-06T17:33:28Z</time></trkpt><trkpt lat="40.721395752618626" lon="9.077037800463266"><ele>176.0</ele><time>2026-04-06T17:33:29Z</time></trkpt><trkpt lat="40.72153199622134" lon="9.077301555545489"><ele>176.0</ele><time>2026-04-06T17:33:30Z</time></trkpt><trkpt lat="40.72166891732878" lon="9.07756548254982"><ele>176.0</ele><time>2026-04-06T17:33:31Z</time></trkpt><trkpt lat="40.721800853499715" lon="9.077822274077855"><ele>176.0</ele><time>2026-04-06T17:33:32Z</time></trkpt><trkpt lat="40.72193482044668" lon="9.078084037066338"><ele>176.0</ele><time>2026-04-06T17:33:33Z</time></trkpt><trkpt lat="40.72206801170734" lon="9.078342765234831"><ele>177.0</ele><time>2026-04-06T17:33:34Z</time></trkpt><trkpt lat="40.722204396483285" lon="9.078604598381714"><ele>178.0</ele><time>2026-04-06T17:33:35Z</time></trkpt><trkpt lat="40.722341157884095" lon="9.078869309874422"><ele>178.0</ele><time>2026-04-06T17:33:36Z</time></trkpt><trkpt lat="40.7224784218919" lon="9.079132010153206"><ele>178.0</ele><time>2026-04-06T17:33:37Z</time></trkpt><trkpt lat="40.72261358886729" lon="9.079394166460201"><ele>178.0</ele><time>2026-04-06T17:33:38Z</time></trkpt><trkpt lat="40.72274880661705" lon="9.07965883126622"><ele>178.0</ele><time>2026-04-06T17:33:39Z</time></trkpt><trkpt lat="40.72288515001707" lon="9.079924691396485"><ele>179.5</ele><time>2026-04-06T17:33:40Z</time></trkpt><trkpt lat="40.7230219761081" lon="9.080192107831461"><ele>181.0</ele><time>2026-04-06T17:33:41Z</time></trkpt><trkpt lat="40.723159941839484" lon="9.080458974983618"><ele>181.0</ele><time>2026-04-06T17:33:42Z</time></trkpt><trkpt lat="40.72330411011856" lon="9.080733115715107"><ele>181.0</ele><time>2026-04-06T17:33:43Z</time></trkpt><trkpt lat="40.72344843648081" lon="9.081007002886919"><ele>184.5</ele><time>2026-04-06T17:33:44Z</time></trkpt><trkpt lat="40.72359297391922" lon="9.081282306775453"><ele>188.0</ele><time>2026-04-06T17:33:45Z</time></trkpt><trkpt lat="40.723735830811115" lon="9.081559239250572"><ele>189.0</ele><time>2026-04-06T17:33:46Z</time></trkpt><trkpt lat="40.72387729340104" lon="9.08183678633127"><ele>190.0</ele><time>2026-04-06T17:33:47Z</time></trkpt><trkpt lat="40.72401905765882" lon="9.082112780531714"><ele>190.0</ele><time>2026-04-06T17:33:48Z</time></trkpt><trkpt lat="40.72416237082449" lon="9.08238747637333"><ele>190.0</ele><time>2026-04-06T17:33:49Z</time></trkpt><trkpt lat="40.72430626664642" lon="9.082659920479985"><ele>194.5</ele><time>2026-04-06T17:33:50Z</time></trkpt><trkpt lat="40.72445137941054" lon="9.082932355992618"><ele>199.0</ele><time>2026-04-06T17:33:51Z</time></trkpt><trkpt lat="40.72459668581773" lon="9.083204126533783"><ele>199.0</ele><time>2026-04-06T17:33:52Z</time></trkpt><trkpt lat="40.72474547890225" lon="9.083467843846826"><ele>199.0</ele><time>2026-04-06T17:33:53Z</time></trkpt><trkpt lat="40.72490038189952" lon="9.0837363254766"><ele>199.0</ele><time>2026-04-06T17:33:54Z</time></trkpt><trkpt lat="40.725053901874496" lon="9.084004123085334"><ele>199.0</ele><time>2026-04-06T17:33:55Z</time></trkpt><trkpt lat="40.72520330743256" lon="9.084275542547083"><ele>201.5</ele><time>2026-04-06T17:33:56Z</time></trkpt><trkpt lat="40.72534993516413" lon="9.084543590179766"><ele>204.0</ele><time>2026-04-06T17:33:57Z</time></trkpt><trkpt lat="40.725497878858086" lon="9.084809774246992"><ele>203.5</ele><time>2026-04-06T17:33:58Z</time></trkpt><trkpt lat="40.725645073329815" lon="9.085070197010788"><ele>203.0</ele><time>2026-04-06T17:33:59Z</time></trkpt><trkpt lat="40.72579183724199" lon="9.085328121477461"><ele>203.0</ele><time>2026-04-06T17:34:00Z</time></trkpt><trkpt lat="40.725938193961404" lon="9.085584956042531"><ele>203.0</ele><time>2026-04-06T17:34:01Z</time></trkpt><trkpt lat="40.72608694830312" lon="9.085844115756021"><ele>205.0</ele><time>2026-04-06T17:34:02Z</time></trkpt><trkpt lat="40.726236153875206" lon="9.086101060516432"><ele>207.0</ele><time>2026-04-06T17:34:03Z</time></trkpt><trkpt lat="40.72638589733891" lon="9.086357616143559"><ele>206.5</ele><time>2026-04-06T17:34:04Z</time></trkpt><trkpt lat="40.72653597692185" lon="9.08661278804452"><ele>206.0</ele><time>2026-04-06T17:34:05Z</time></trkpt><trkpt lat="40.72668620436271" lon="9.08686699024896"><ele>206.0</ele><time>2026-04-06T17:34:06Z</time></trkpt><trkpt lat="40.72683722832638" lon="9.087122039880688"><ele>206.0</ele><time>2026-04-06T17:34:07Z</time></trkpt><trkpt lat="40.72699186116338" lon="9.08738043273594"><ele>205.5</ele><time>2026-04-06T17:34:07.999Z</time></trkpt><trkpt lat="40.72714672047768" lon="9.087642352585002"><ele>205.0</ele><time>2026-04-06T17:34:08.999Z</time></trkpt><trkpt lat="40.72729819640996" lon="9.08790566533512"><ele>205.0</ele><time>2026-04-06T17:34:09.999Z</time></trkpt><trkpt lat="40.727448912475815" lon="9.088177741245143"><ele>205.0</ele><time>2026-04-06T17:34:10.999Z</time></trkpt><trkpt lat="40.7275962249605" lon="9.08844675503675"><ele>204.5</ele><time>2026-04-06T17:34:11.999Z</time></trkpt><trkpt lat="40.72774450459619" lon="9.0887124942177"><ele>204.0</ele><time>2026-04-06T17:34:12.999Z</time></trkpt><trkpt lat="40.72790110931709" lon="9.088977447023348"><ele>207.5</ele><time>2026-04-06T17:34:13.999Z</time></trkpt><trkpt lat="40.728059143707306" lon="9.089233481487897"><ele>211.0</ele><time>2026-04-06T17:34:14.999Z</time></trkpt><trkpt lat="40.72821773996437" lon="9.089494652499669"><ele>211.0</ele><time>2026-04-06T17:34:15.999Z</time></trkpt><trkpt lat="40.72837490956771" lon="9.089756665289666"><ele>211.0</ele><time>2026-04-06T17:34:16.999Z</time></trkpt><trkpt lat="40.72852689762019" lon="9.090015687301602"><ele>214.0</ele><time>2026-04-06T17:34:17.999Z</time></trkpt><trkpt lat="40.72868366453566" lon="9.090284538865966"><ele>217.0</ele><time>2026-04-06T17:34:18.999Z</time></trkpt><trkpt lat="40.72883969792268" lon="9.090549558483366"><ele>218.0</ele><time>2026-04-06T17:34:19.999Z</time></trkpt><trkpt lat="40.72900098743582" lon="9.0908129900667"><ele>219.0</ele><time>2026-04-06T17:34:20.999Z</time></trkpt><trkpt lat="40.729162280149694" lon="9.09107442461166"><ele>219.0</ele><time>2026-04-06T17:34:21.999Z</time></trkpt><trkpt lat="40.729326158283634" lon="9.091340387880345"><ele>219.0</ele><time>2026-04-06T17:34:22.999Z</time></trkpt><trkpt lat="40.72948691647626" lon="9.091608739272388"><ele>221.0</ele><time>2026-04-06T17:34:23.999Z</time></trkpt><trkpt lat="40.72964861169066" lon="9.091879689106934"><ele>223.0</ele><time>2026-04-06T17:34:24.999Z</time></trkpt><trkpt lat="40.72981129208434" lon="9.092153956348001"><ele>223.0</ele><time>2026-04-06T17:34:25.999Z</time></trkpt><trkpt lat="40.729974250392644" lon="9.092422829449976"><ele>223.0</ele><time>2026-04-06T17:34:26.999Z</time></trkpt><trkpt lat="40.73013588307575" lon="9.092688378134133"><ele>226.0</ele><time>2026-04-06T17:34:27.999Z</time></trkpt><trkpt lat="40.730293923944345" lon="9.092951024701671"><ele>229.0</ele><time>2026-04-06T17:34:28.999Z</time></trkpt><trkpt lat="40.73045197656488" lon="9.093215825430946"><ele>228.0</ele><time>2026-04-06T17:34:29.999Z</time></trkpt><trkpt lat="40.73060928665534" lon="9.0934819647122"><ele>227.0</ele><time>2026-04-06T17:34:30.999Z</time></trkpt><trkpt lat="40.730765881023686" lon="9.093750700853397"><ele>227.0</ele><time>2026-04-06T17:34:31.999Z</time></trkpt><trkpt lat="40.73092218345121" lon="9.094013042864576"><ele>227.0</ele><time>2026-04-06T17:34:32.999Z</time></trkpt><trkpt lat="40.73107954612489" lon="9.094277014520708"><ele>227.0</ele><time>2026-04-06T17:34:33.999Z</time></trkpt><trkpt lat="40.73123723578541" lon="9.09453917542916"><ele>227.0</ele><time>2026-04-06T17:34:34.999Z</time></trkpt><trkpt lat="40.731393488741844" lon="9.094802480774375"><ele>225.5</ele><time>2026-04-06T17:34:35.999Z</time></trkpt><trkpt lat="40.731551695416144" lon="9.095069103705079"><ele>224.0</ele><time>2026-04-06T17:34:36.999Z</time></trkpt><trkpt lat="40.73171244218653" lon="9.095335712554794"><ele>224.0</ele><time>2026-04-06T17:34:37.999Z</time></trkpt><trkpt lat="40.73187502248132" lon="9.095603745999682"><ele>224.0</ele><time>2026-04-06T17:34:38.999Z</time></trkpt><trkpt lat="40.73203749434674" lon="9.095868984866081"><ele>221.5</ele><time>2026-04-06T17:34:39.999Z</time></trkpt><trkpt lat="40.73219982454981" lon="9.096135200388977"><ele>219.0</ele><time>2026-04-06T17:34:40.999Z</time></trkpt><trkpt lat="40.73236109602556" lon="9.09640369871493"><ele>219.0</ele><time>2026-04-06T17:34:41.999Z</time></trkpt><trkpt lat="40.732522491719514" lon="9.096674990075478"><ele>219.0</ele><time>2026-04-06T17:34:42.999Z</time></trkpt><trkpt lat="40.73268363875564" lon="9.096945379266604"><ele>218.0</ele><time>2026-04-06T17:34:43.999Z</time></trkpt><trkpt lat="40.7328420853436" lon="9.097213258040203"><ele>217.0</ele><time>2026-04-06T17:34:44.999Z</time></trkpt><trkpt lat="40.73300054646953" lon="9.097477824531435"><ele>217.0</ele><time>2026-04-06T17:34:45.999Z</time></trkpt><trkpt lat="40.733163583329336" lon="9.097745776335593"><ele>217.0</ele><time>2026-04-06T17:34:46.999Z</time></trkpt><trkpt lat="40.73332027076971" lon="9.098005529636866"><ele>217.5</ele><time>2026-04-06T17:34:47.999Z</time></trkpt><trkpt lat="40.73347635659393" lon="9.098266034593168"><ele>218.0</ele><time>2026-04-06T17:34:48.999Z</time></trkpt><trkpt lat="40.73363081925764" lon="9.098527676688526"><ele>215.0</ele><time>2026-04-06T17:34:49.999Z</time></trkpt><trkpt lat="40.73378578776454" lon="9.098789260460228"><ele>212.0</ele><time>2026-04-06T17:34:50.999Z</time></trkpt><trkpt lat="40.73394090521629" lon="9.099048919098376"><ele>212.5</ele><time>2026-04-06T17:34:51.999Z</time></trkpt><trkpt lat="40.73409329538447" lon="9.099302888887436"><ele>213.0</ele><time>2026-04-06T17:34:52.999Z</time></trkpt><trkpt lat="40.734247835568205" lon="9.099561458054497"><ele>212.0</ele><time>2026-04-06T17:34:53.999Z</time></trkpt><trkpt lat="40.734399124799" lon="9.09981475100538"><ele>211.0</ele><time>2026-04-06T17:34:54.999Z</time></trkpt><trkpt lat="40.734551936805474" lon="9.10007527110986"><ele>210.0</ele><time>2026-04-06T17:34:55.999Z</time></trkpt><trkpt lat="40.73470176287792" lon="9.10033062154137"><ele>209.0</ele><time>2026-04-06T17:34:56.999Z</time></trkpt><trkpt lat="40.73485143090886" lon="9.100583495156267"><ele>209.0</ele><time>2026-04-06T17:34:57.999Z</time></trkpt><trkpt lat="40.735000337231824" lon="9.100832705540762"><ele>209.0</ele><time>2026-04-06T17:34:58.999Z</time></trkpt><trkpt lat="40.73515162282756" lon="9.10108374427646"><ele>207.0</ele><time>2026-04-06T17:34:59.999Z</time></trkpt><trkpt lat="40.7353028333327" lon="9.101331036533976"><ele>205.0</ele><time>2026-04-06T17:35:00.999Z</time></trkpt><trkpt lat="40.73545189579563" lon="9.101576463258102"><ele>204.5</ele><time>2026-04-06T17:35:01.999Z</time></trkpt><trkpt lat="40.73560312808509" lon="9.10182954056042"><ele>204.0</ele><time>2026-04-06T17:35:02.999Z</time></trkpt><trkpt lat="40.735752342654315" lon="9.10208055940335"><ele>204.0</ele><time>2026-04-06T17:35:03.999Z</time></trkpt><trkpt lat="40.73590144563097" lon="9.102333620786839"><ele>204.0</ele><time>2026-04-06T17:35:04.999Z</time></trkpt><trkpt lat="40.73604979382235" lon="9.102582708282403"><ele>202.0</ele><time>2026-04-06T17:35:05.999Z</time></trkpt><trkpt lat="40.73620021553443" lon="9.102836484792682"><ele>200.0</ele><time>2026-04-06T17:35:06.999Z</time></trkpt><trkpt lat="40.736349701382885" lon="9.10309060418563"><ele>201.0</ele><time>2026-04-06T17:35:07.999Z</time></trkpt><trkpt lat="40.73650177334285" lon="9.103345994216998"><ele>202.0</ele><time>2026-04-06T17:35:08.999Z</time></trkpt><trkpt lat="40.736657575510804" lon="9.10360567647921"><ele>202.0</ele><time>2026-04-06T17:35:09.999Z</time></trkpt><trkpt lat="40.736813802440615" lon="9.103862607929155"><ele>202.0</ele><time>2026-04-06T17:35:10.999Z</time></trkpt><trkpt lat="40.73697099935203" lon="9.104121481007544"><ele>200.0</ele><time>2026-04-06T17:35:11.999Z</time></trkpt><trkpt lat="40.73712923016993" lon="9.104382780637467"><ele>198.0</ele><time>2026-04-06T17:35:12.999Z</time></trkpt><trkpt lat="40.737287280841194" lon="9.104645281318199"><ele>198.0</ele><time>2026-04-06T17:35:13.999Z</time></trkpt><trkpt lat="40.737443190734844" lon="9.104904940999019"><ele>198.0</ele><time>2026-04-06T17:35:14.999Z</time></trkpt><trkpt lat="40.73759914533403" lon="9.105163469935274"><ele>199.0</ele><time>2026-04-06T17:35:15.999Z</time></trkpt><trkpt lat="40.737753154198614" lon="9.105418748220655"><ele>200.0</ele><time>2026-04-06T17:35:16.999Z</time></trkpt><trkpt lat="40.73790939827389" lon="9.10567971102114"><ele>198.5</ele><time>2026-04-06T17:35:17.999Z</time></trkpt><trkpt lat="40.73806458162471" lon="9.105939108059479"><ele>197.0</ele><time>2026-04-06T17:35:18.999Z</time></trkpt><trkpt lat="40.73821970763258" lon="9.106199973063914"><ele>197.0</ele><time>2026-04-06T17:35:19.999Z</time></trkpt><trkpt lat="40.73837729259585" lon="9.106463073524573"><ele>197.0</ele><time>2026-04-06T17:35:20.999Z</time></trkpt><trkpt lat="40.73853344932222" lon="9.10672497311918"><ele>195.5</ele><time>2026-04-06T17:35:21.999Z</time></trkpt><trkpt lat="40.73869095028087" lon="9.106987135766344"><ele>194.0</ele><time>2026-04-06T17:35:22.999Z</time></trkpt><trkpt lat="40.73884764948067" lon="9.107247795874116"><ele>193.5</ele><time>2026-04-06T17:35:23.999Z</time></trkpt><trkpt lat="40.739005335027045" lon="9.10751170737779"><ele>193.0</ele><time>2026-04-06T17:35:25Z</time></trkpt><trkpt lat="40.73916100513464" lon="9.107771889961496"><ele>193.0</ele><time>2026-04-06T17:35:26Z</time></trkpt><trkpt lat="40.739317748394456" lon="9.108035085414906"><ele>193.0</ele><time>2026-04-06T17:35:27Z</time></trkpt><trkpt lat="40.73947411709297" lon="9.10829853555348"><ele>190.0</ele><time>2026-04-06T17:35:28Z</time></trkpt><trkpt lat="40.73963137217462" lon="9.108562242350482"><ele>187.0</ele><time>2026-04-06T17:35:29Z</time></trkpt><trkpt lat="40.739789234754" lon="9.108825176787759"><ele>186.5</ele><time>2026-04-06T17:35:30Z</time></trkpt><trkpt lat="40.73994788884444" lon="9.109085228571736"><ele>186.0</ele><time>2026-04-06T17:35:31Z</time></trkpt><trkpt lat="40.74010926386389" lon="9.1093487440151"><ele>186.5</ele><time>2026-04-06T17:35:32Z</time></trkpt><trkpt lat="40.74026547482087" lon="9.109606145900885"><ele>187.0</ele><time>2026-04-06T17:35:33Z</time></trkpt><trkpt lat="40.740420830385794" lon="9.109864514951102"><ele>186.0</ele><time>2026-04-06T17:35:34Z</time></trkpt><trkpt lat="40.74057575493923" lon="9.110125785936777"><ele>185.0</ele><time>2026-04-06T17:35:35Z</time></trkpt><trkpt lat="40.74073197887969" lon="9.110390870849322"><ele>185.0</ele><time>2026-04-06T17:35:36Z</time></trkpt><trkpt lat="40.74088766917264" lon="9.110653345350666"><ele>185.0</ele><time>2026-04-06T17:35:37Z</time></trkpt><trkpt lat="40.741045845781755" lon="9.110917734971741"><ele>185.5</ele><time>2026-04-06T17:35:38Z</time></trkpt><trkpt lat="40.7412028516159" lon="9.111178373852805"><ele>186.0</ele><time>2026-04-06T17:35:39Z</time></trkpt><trkpt lat="40.741358633556366" lon="9.111436979815851"><ele>185.0</ele><time>2026-04-06T17:35:40Z</time></trkpt><trkpt lat="40.74151395713493" lon="9.111697220703242"><ele>184.0</ele><time>2026-04-06T17:35:41Z</time></trkpt><trkpt lat="40.74166689521024" lon="9.111954901547152"><ele>184.0</ele><time>2026-04-06T17:35:42Z</time></trkpt><trkpt lat="40.74181920273494" lon="9.112214761455308"><ele>184.0</ele><time>2026-04-06T17:35:43Z</time></trkpt><trkpt lat="40.741973500326054" lon="9.112468007155913"><ele>184.0</ele><time>2026-04-06T17:35:44Z</time></trkpt><trkpt lat="40.74213396646564" lon="9.11271856731441"><ele>184.0</ele><time>2026-04-06T17:35:45Z</time></trkpt><trkpt lat="40.742296410322616" lon="9.112958697580092"><ele>184.0</ele><time>2026-04-06T17:35:46Z</time></trkpt><trkpt lat="40.742466423837115" lon="9.113201071973554"><ele>184.0</ele><time>2026-04-06T17:35:47Z</time></trkpt><trkpt lat="40.74263670696538" lon="9.11343223043124"><ele>184.0</ele><time>2026-04-06T17:35:48Z</time></trkpt><trkpt lat="40.74281284891961" lon="9.113667616340685"><ele>184.0</ele><time>2026-04-06T17:35:49Z</time></trkpt><trkpt lat="40.74299358451392" lon="9.113897562232124"><ele>183.5</ele><time>2026-04-06T17:35:50Z</time></trkpt><trkpt lat="40.74317441711972" lon="9.11412226160249"><ele>183.0</ele><time>2026-04-06T17:35:51Z</time></trkpt><trkpt lat="40.74336187558251" lon="9.114346251814693"><ele>184.5</ele><time>2026-04-06T17:35:52Z</time></trkpt><trkpt lat="40.74355324770813" lon="9.114567282522716"><ele>186.0</ele><time>2026-04-06T17:35:53Z</time></trkpt><trkpt lat="40.74374794599232" lon="9.114780957411888"><ele>185.0</ele><time>2026-04-06T17:35:54Z</time></trkpt><trkpt lat="40.74395342490603" lon="9.11499699928836"><ele>184.0</ele><time>2026-04-06T17:35:55Z</time></trkpt><trkpt lat="40.74416477049708" lon="9.115204865889133"><ele>183.0</ele><time>2026-04-06T17:35:56Z</time></trkpt><trkpt lat="40.744382830417095" lon="9.115407956794689"><ele>182.0</ele><time>2026-04-06T17:35:57Z</time></trkpt><trkpt lat="40.74460033641092" lon="9.11559794114418"><ele>181.0</ele><time>2026-04-06T17:35:58Z</time></trkpt><trkpt lat="40.744825599155504" lon="9.11578745310448"><ele>180.0</ele><time>2026-04-06T17:35:59Z</time></trkpt><trkpt lat="40.74505004575722" lon="9.115971425597872"><ele>182.0</ele><time>2026-04-06T17:36:00Z</time></trkpt><trkpt lat="40.74527552192539" lon="9.116153087114537"><ele>184.0</ele><time>2026-04-06T17:36:01Z</time></trkpt><trkpt lat="40.74549550348744" lon="9.116327701340667"><ele>184.0</ele><time>2026-04-06T17:36:02Z</time></trkpt><trkpt lat="40.74571267870369" lon="9.116497965686897"><ele>184.0</ele><time>2026-04-06T17:36:03Z</time></trkpt><trkpt lat="40.74592390142019" lon="9.116662876704067"><ele>182.0</ele><time>2026-04-06T17:36:04Z</time></trkpt><trkpt lat="40.746138955341266" lon="9.116828682297125"><ele>180.0</ele><time>2026-04-06T17:36:05Z</time></trkpt><trkpt lat="40.74635532644307" lon="9.116995741938341"><ele>180.0</ele><time>2026-04-06T17:36:06Z</time></trkpt><trkpt lat="40.74656900103057" lon="9.117162584479892"><ele>180.0</ele><time>2026-04-06T17:36:07Z</time></trkpt><trkpt lat="40.746783746353984" lon="9.117329209142953"><ele>178.5</ele><time>2026-04-06T17:36:08Z</time></trkpt><trkpt lat="40.7469964810214" lon="9.117494094515955"><ele>177.0</ele><time>2026-04-06T17:36:09Z</time></trkpt><trkpt lat="40.74721090740329" lon="9.117658583172199"><ele>177.0</ele><time>2026-04-06T17:36:10Z</time></trkpt><trkpt lat="40.74742445111588" lon="9.11782352419791"><ele>177.0</ele><time>2026-04-06T17:36:11Z</time></trkpt><trkpt lat="40.74763769418128" lon="9.117987677742436"><ele>173.0</ele><time>2026-04-06T17:36:12Z</time></trkpt><trkpt lat="40.74785241748404" lon="9.11815226611226"><ele>169.0</ele><time>2026-04-06T17:36:13Z</time></trkpt><trkpt lat="40.74807254803706" lon="9.118323465642407"><ele>169.0</ele><time>2026-04-06T17:36:14Z</time></trkpt><trkpt lat="40.748299715892664" lon="9.118499294972603"><ele>169.0</ele><time>2026-04-06T17:36:15Z</time></trkpt><trkpt lat="40.74853849474861" lon="9.118679316086865"><ele>168.0</ele><time>2026-04-06T17:36:16Z</time></trkpt><trkpt lat="40.74878431643287" lon="9.118856712187311"><ele>167.0</ele><time>2026-04-06T17:36:17Z</time></trkpt><trkpt lat="40.74903977052695" lon="9.11903731131162"><ele>168.5</ele><time>2026-04-06T17:36:18Z</time></trkpt><trkpt lat="40.74929559143348" lon="9.119222590879733"><ele>170.0</ele><time>2026-04-06T17:36:19Z</time></trkpt><trkpt lat="40.74955090875931" lon="9.119417077863192"><ele>170.0</ele><time>2026-04-06T17:36:20Z</time></trkpt><trkpt lat="40.74980237100295" lon="9.11961221853479"><ele>170.0</ele><time>2026-04-06T17:36:21Z</time></trkpt><trkpt lat="40.7500559447901" lon="9.119807629841207"><ele>170.5</ele><time>2026-04-06T17:36:22Z</time></trkpt><trkpt lat="40.75030914105226" lon="9.120003343317501"><ele>171.0</ele><time>2026-04-06T17:36:23Z</time></trkpt><trkpt lat="40.75056246167369" lon="9.120199949115166"><ele>171.0</ele><time>2026-04-06T17:36:23.999Z</time></trkpt><trkpt lat="40.75081576362854" lon="9.120401077818345"><ele>171.0</ele><time>2026-04-06T17:36:24.999Z</time></trkpt><trkpt lat="40.75106381025025" lon="9.12060330029289"><ele>172.0</ele><time>2026-04-06T17:36:25.999Z</time></trkpt><trkpt lat="40.75131298743856" lon="9.120809035187001"><ele>173.0</ele><time>2026-04-06T17:36:26.999Z</time></trkpt><trkpt lat="40.751562325675316" lon="9.121013128247599"><ele>173.0</ele><time>2026-04-06T17:36:27.999Z</time></trkpt><trkpt lat="40.75181264287296" lon="9.12121540535638"><ele>173.0</ele><time>2026-04-06T17:36:28.999Z</time></trkpt><trkpt lat="40.752064427516395" lon="9.121411742770196"><ele>173.0</ele><time>2026-04-06T17:36:29.999Z</time></trkpt><trkpt lat="40.752314777167044" lon="9.121603067838537"><ele>173.0</ele><time>2026-04-06T17:36:30.999Z</time></trkpt><trkpt lat="40.75256002033777" lon="9.121793488585078"><ele>170.0</ele><time>2026-04-06T17:36:31.999Z</time></trkpt><trkpt lat="40.752801858981265" lon="9.12197573648228"><ele>167.0</ele><time>2026-04-06T17:36:32.999Z</time></trkpt><trkpt lat="40.75304318246782" lon="9.122153376349615"><ele>167.0</ele><time>2026-04-06T17:36:33.999Z</time></trkpt><trkpt lat="40.753287894356646" lon="9.122328648169859"><ele>167.0</ele><time>2026-04-06T17:36:34.999Z</time></trkpt><trkpt lat="40.75352997501066" lon="9.122508341468324"><ele>164.5</ele><time>2026-04-06T17:36:35.999Z</time></trkpt><trkpt lat="40.75375797108867" lon="9.122684935878961"><ele>162.0</ele><time>2026-04-06T17:36:36.999Z</time></trkpt><trkpt lat="40.75397785771583" lon="9.122858434401588"><ele>162.0</ele><time>2026-04-06T17:36:37.999Z</time></trkpt><trkpt lat="40.75420090138429" lon="9.123032498881859"><ele>162.0</ele><time>2026-04-06T17:36:38.999Z</time></trkpt><trkpt lat="40.75442301364168" lon="9.123203267151064"><ele>162.5</ele><time>2026-04-06T17:36:39.999Z</time></trkpt><trkpt lat="40.754651922418006" lon="9.123380855634059"><ele>163.0</ele><time>2026-04-06T17:36:40.999Z</time></trkpt><trkpt lat="40.754881895675986" lon="9.123556336930571"><ele>163.0</ele><time>2026-04-06T17:36:41.999Z</time></trkpt><trkpt lat="40.75511610763707" lon="9.12373455167786"><ele>163.0</ele><time>2026-04-06T17:36:42.999Z</time></trkpt><trkpt lat="40.755349258564415" lon="9.123914091441616"><ele>163.5</ele><time>2026-04-06T17:36:43.999Z</time></trkpt><trkpt lat="40.7555920713406" lon="9.124105021405327"><ele>164.0</ele><time>2026-04-06T17:36:44.999Z</time></trkpt><trkpt lat="40.75583646084138" lon="9.124296168503761"><ele>164.5</ele><time>2026-04-06T17:36:45.999Z</time></trkpt><trkpt lat="40.756083649287845" lon="9.124489513427083"><ele>165.0</ele><time>2026-04-06T17:36:46.999Z</time></trkpt><trkpt lat="40.75632982454944" lon="9.124682602698556"><ele>165.0</ele><time>2026-04-06T17:36:47.999Z</time></trkpt><trkpt lat="40.75657317003896" lon="9.12487399910556"><ele>165.0</ele><time>2026-04-06T17:36:48.999Z</time></trkpt><trkpt lat="40.75681547105103" lon="9.125067016321948"><ele>164.5</ele><time>2026-04-06T17:36:49.999Z</time></trkpt><trkpt lat="40.75706079131679" lon="9.125265410980095"><ele>164.0</ele><time>2026-04-06T17:36:50.999Z</time></trkpt><trkpt lat="40.75730056838062" lon="9.125460774538269"><ele>164.0</ele><time>2026-04-06T17:36:51.999Z</time></trkpt><trkpt lat="40.7575420360054" lon="9.125658315913254"><ele>164.0</ele><time>2026-04-06T17:36:52.999Z</time></trkpt><trkpt lat="40.75778383041705" lon="9.125852821651469"><ele>164.5</ele><time>2026-04-06T17:36:53.999Z</time></trkpt><trkpt lat="40.75801887610226" lon="9.126036723328504"><ele>165.0</ele><time>2026-04-06T17:36:54.999Z</time></trkpt><trkpt lat="40.75825433050815" lon="9.126219672077434"><ele>165.0</ele><time>2026-04-06T17:36:55.999Z</time></trkpt><trkpt lat="40.75848833964536" lon="9.126399831383715"><ele>165.0</ele><time>2026-04-06T17:36:56.999Z</time></trkpt><trkpt lat="40.75871911172296" lon="9.126576805210227"><ele>165.0</ele><time>2026-04-06T17:36:57.999Z</time></trkpt><trkpt lat="40.758937022070675" lon="9.126743613864843"><ele>165.0</ele><time>2026-04-06T17:36:58.999Z</time></trkpt><trkpt lat="40.75914441482838" lon="9.126905054255191"><ele>165.0</ele><time>2026-04-06T17:36:59.999Z</time></trkpt><trkpt lat="40.75935632367267" lon="9.127070565556089"><ele>165.0</ele><time>2026-04-06T17:37:00.999Z</time></trkpt><trkpt lat="40.75956641721655" lon="9.127235952169261"><ele>165.0</ele><time>2026-04-06T17:37:01.999Z</time></trkpt><trkpt lat="40.759780723013435" lon="9.127405681841354"><ele>165.0</ele><time>2026-04-06T17:37:02.999Z</time></trkpt><trkpt lat="40.759999703857815" lon="9.127581248880217"><ele>165.5</ele><time>2026-04-06T17:37:03.999Z</time></trkpt><trkpt lat="40.760216865363354" lon="9.127758474596705"><ele>166.0</ele><time>2026-04-06T17:37:04.999Z</time></trkpt><trkpt lat="40.76043430219201" lon="9.127939928623935"><ele>166.0</ele><time>2026-04-06T17:37:05.999Z</time></trkpt><trkpt lat="40.760654823791064" lon="9.128130815579143"><ele>166.0</ele><time>2026-04-06T17:37:06.999Z</time></trkpt><trkpt lat="40.76087488055625" lon="9.128325883534593"><ele>167.0</ele><time>2026-04-06T17:37:07.999Z</time></trkpt><trkpt lat="40.761084505182716" lon="9.128518441108717"><ele>168.0</ele><time>2026-04-06T17:37:08.999Z</time></trkpt><trkpt lat="40.76128332354185" lon="9.12871564443338"><ele>168.0</ele><time>2026-04-06T17:37:09.999Z</time></trkpt><trkpt lat="40.761478258267466" lon="9.128916029454183"><ele>168.0</ele><time>2026-04-06T17:37:10.999Z</time></trkpt><trkpt lat="40.761670896189095" lon="9.129122616074177"><ele>168.0</ele><time>2026-04-06T17:37:11.999Z</time></trkpt><trkpt lat="40.761861306354994" lon="9.129333859260242"><ele>168.0</ele><time>2026-04-06T17:37:12.999Z</time></trkpt><trkpt lat="40.762047046472944" lon="9.129554643560592"><ele>168.5</ele><time>2026-04-06T17:37:13.999Z</time></trkpt><trkpt lat="40.762235446874506" lon="9.129776177367804"><ele>169.0</ele><time>2026-04-06T17:37:14.999Z</time></trkpt><trkpt lat="40.76241880745325" lon="9.130004740972847"><ele>169.5</ele><time>2026-04-06T17:37:15.999Z</time></trkpt><trkpt lat="40.76260382393731" lon="9.130241069912767"><ele>170.0</ele><time>2026-04-06T17:37:16.999Z</time></trkpt><trkpt lat="40.76278149936542" lon="9.130472632270216"><ele>170.0</ele><time>2026-04-06T17:37:17.999Z</time></trkpt><trkpt lat="40.762953704135136" lon="9.130706079731464"><ele>170.0</ele><time>2026-04-06T17:37:18.999Z</time></trkpt><trkpt lat="40.76312268676986" lon="9.130948069832854"><ele>168.5</ele><time>2026-04-06T17:37:19.999Z</time></trkpt><trkpt lat="40.763289124537785" lon="9.131192999327865"><ele>167.0</ele><time>2026-04-06T17:37:20.999Z</time></trkpt><trkpt lat="40.76344993174712" lon="9.131443338930794"><ele>168.0</ele><time>2026-04-06T17:37:21.999Z</time></trkpt><trkpt lat="40.76360693596101" lon="9.131699203180371"><ele>169.0</ele><time>2026-04-06T17:37:22.999Z</time></trkpt><trkpt lat="40.76376184018442" lon="9.131959030582625"><ele>169.0</ele><time>2026-04-06T17:37:23.999Z</time></trkpt><trkpt lat="40.76391597791617" lon="9.132224349032345"><ele>169.0</ele><time>2026-04-06T17:37:24.999Z</time></trkpt><trkpt lat="40.76406825227696" lon="9.132491865117164"><ele>169.5</ele><time>2026-04-06T17:37:25.999Z</time></trkpt><trkpt lat="40.764218418328895" lon="9.132767353003196"><ele>170.0</ele><time>2026-04-06T17:37:26.999Z</time></trkpt><trkpt lat="40.76436525360496" lon="9.133050931728752"><ele>172.5</ele><time>2026-04-06T17:37:27.999Z</time></trkpt><trkpt lat="40.76450543910697" lon="9.133337742398377"><ele>175.0</ele><time>2026-04-06T17:37:28.999Z</time></trkpt><trkpt lat="40.76464059246797" lon="9.133627032768377"><ele>175.0</ele><time>2026-04-06T17:37:29.999Z</time></trkpt><trkpt lat="40.76477108603514" lon="9.133915225194242"><ele>175.0</ele><time>2026-04-06T17:37:31Z</time></trkpt><trkpt lat="40.764896966917476" lon="9.134202806496116"><ele>175.0</ele><time>2026-04-06T17:37:32Z</time></trkpt><trkpt lat="40.765017795885704" lon="9.134490539906778"><ele>175.0</ele><time>2026-04-06T17:37:33Z</time></trkpt><trkpt lat="40.76513340943861" lon="9.134778602560239"><ele>176.5</ele><time>2026-04-06T17:37:34Z</time></trkpt><trkpt lat="40.76524267318486" lon="9.135068345196016"><ele>178.0</ele><time>2026-04-06T17:37:35Z</time></trkpt><trkpt lat="40.76534747261498" lon="9.135364563705249"><ele>178.0</ele><time>2026-04-06T17:37:36Z</time></trkpt><trkpt lat="40.76545106294889" lon="9.135667639073942"><ele>178.0</ele><time>2026-04-06T17:37:37Z</time></trkpt><trkpt lat="40.765554922122035" lon="9.135972451563164"><ele>178.0</ele><time>2026-04-06T17:37:38Z</time></trkpt><trkpt lat="40.76566291950767" lon="9.136288552331354"><ele>178.0</ele><time>2026-04-06T17:37:39Z</time></trkpt><trkpt lat="40.76576684617051" lon="9.136612450315532"><ele>178.0</ele><time>2026-04-06T17:37:40Z</time></trkpt><trkpt lat="40.76586538661625" lon="9.136951106940176"><ele>178.0</ele><time>2026-04-06T17:37:41Z</time></trkpt><trkpt lat="40.765957440540454" lon="9.137298990699136"><ele>178.5</ele><time>2026-04-06T17:37:42Z</time></trkpt><trkpt lat="40.766041848183" lon="9.13764993428089"><ele>179.0</ele><time>2026-04-06T17:37:43Z</time></trkpt><trkpt lat="40.76612433494208" lon="9.138008826409852"><ele>181.0</ele><time>2026-04-06T17:37:44Z</time></trkpt><trkpt lat="40.76619955153646" lon="9.138372037711187"><ele>183.0</ele><time>2026-04-06T17:37:45Z</time></trkpt><trkpt lat="40.76626583334911" lon="9.138736104255138"><ele>183.0</ele><time>2026-04-06T17:37:46Z</time></trkpt><trkpt lat="40.76632760111627" lon="9.139106747858284"><ele>183.0</ele><time>2026-04-06T17:37:47Z</time></trkpt><trkpt lat="40.76638265410785" lon="9.139479481653764"><ele>183.0</ele><time>2026-04-06T17:37:48Z</time></trkpt><trkpt lat="40.76643266573403" lon="9.139853337297668"><ele>183.0</ele><time>2026-04-06T17:37:49Z</time></trkpt><trkpt lat="40.76647695430448" lon="9.14023043982542"><ele>183.0</ele><time>2026-04-06T17:37:50Z</time></trkpt><trkpt lat="40.76651732415766" lon="9.140611383057871"><ele>183.0</ele><time>2026-04-06T17:37:51Z</time></trkpt><trkpt lat="40.76655135286402" lon="9.140991040479896"><ele>183.0</ele><time>2026-04-06T17:37:52Z</time></trkpt><trkpt lat="40.766580298207906" lon="9.141374212034673"><ele>183.0</ele><time>2026-04-06T17:37:53Z</time></trkpt><trkpt lat="40.76660139852511" lon="9.141753687498776"><ele>182.0</ele><time>2026-04-06T17:37:54Z</time></trkpt><trkpt lat="40.766615527420186" lon="9.14213636091059"><ele>181.0</ele><time>2026-04-06T17:37:55Z</time></trkpt><trkpt lat="40.76662254866028" lon="9.142515294241498"><ele>180.5</ele><time>2026-04-06T17:37:56Z</time></trkpt><trkpt lat="40.7666247034186" lon="9.142897726220328"><ele>180.0</ele><time>2026-04-06T17:37:57Z</time></trkpt><trkpt lat="40.76662228568126" lon="9.143276950604882"><ele>178.5</ele><time>2026-04-06T17:37:58Z</time></trkpt><trkpt lat="40.76661418841279" lon="9.143651855372807"><ele>177.0</ele><time>2026-04-06T17:37:59Z</time></trkpt><trkpt lat="40.76659873940779" lon="9.144025080682182"><ele>177.5</ele><time>2026-04-06T17:38:00Z</time></trkpt><trkpt lat="40.76658076151647" lon="9.144396100580733"><ele>178.0</ele><time>2026-04-06T17:38:01Z</time></trkpt><trkpt lat="40.766561370079074" lon="9.144765005886159"><ele>180.0</ele><time>2026-04-06T17:38:02Z</time></trkpt><trkpt lat="40.76654183399886" lon="9.14513078672429"><ele>182.0</ele><time>2026-04-06T17:38:03Z</time></trkpt><trkpt lat="40.76652282354827" lon="9.145498671451914"><ele>184.0</ele><time>2026-04-06T17:38:04Z</time></trkpt><trkpt lat="40.76650449845103" lon="9.145868657331217"><ele>186.0</ele><time>2026-04-06T17:38:05Z</time></trkpt><trkpt lat="40.76648541299546" lon="9.14623685578415"><ele>187.5</ele><time>2026-04-06T17:38:06Z</time></trkpt><trkpt lat="40.7664660331871" lon="9.146609401036912"><ele>189.0</ele><time>2026-04-06T17:38:07Z</time></trkpt><trkpt lat="40.766445845137326" lon="9.146978743887656"><ele>189.0</ele><time>2026-04-06T17:38:08Z</time></trkpt><trkpt lat="40.76642532740865" lon="9.147349287541491"><ele>189.0</ele><time>2026-04-06T17:38:09Z</time></trkpt><trkpt lat="40.76640101637847" lon="9.147715568297613"><ele>190.0</ele><time>2026-04-06T17:38:10Z</time></trkpt><trkpt lat="40.766373068080405" lon="9.148082972794976"><ele>191.0</ele><time>2026-04-06T17:38:11Z</time></trkpt><trkpt lat="40.76634393493394" lon="9.148445816451657"><ele>192.0</ele><time>2026-04-06T17:38:12Z</time></trkpt><trkpt lat="40.76631640783444" lon="9.148812242323496"><ele>193.0</ele><time>2026-04-06T17:38:13Z</time></trkpt><trkpt lat="40.76629326326255" lon="9.149174030507696"><ele>194.0</ele><time>2026-04-06T17:38:13.999Z</time></trkpt><trkpt lat="40.76627366966381" lon="9.149541471493794"><ele>195.0</ele><time>2026-04-06T17:38:14.999Z</time></trkpt><trkpt lat="40.766256520362155" lon="9.149905605342859"><ele>197.0</ele><time>2026-04-06T17:38:15.999Z</time></trkpt><trkpt lat="40.76623674253065" lon="9.150274759778885"><ele>199.0</ele><time>2026-04-06T17:38:16.999Z</time></trkpt><trkpt lat="40.76621434928903" lon="9.150635822544762"><ele>201.5</ele><time>2026-04-06T17:38:17.999Z</time></trkpt><trkpt lat="40.766190787935464" lon="9.151001953193951"><ele>204.0</ele><time>2026-04-06T17:38:18.999Z</time></trkpt><trkpt lat="40.76616821038016" lon="9.15136178644484"><ele>206.0</ele><time>2026-04-06T17:38:19.999Z</time></trkpt><trkpt lat="40.766148954853996" lon="9.151716406092085"><ele>208.0</ele><time>2026-04-06T17:38:20.999Z</time></trkpt><trkpt lat="40.7661349860856" lon="9.15206984376278"><ele>209.5</ele><time>2026-04-06T17:38:21.999Z</time></trkpt><trkpt lat="40.76612857252751" lon="9.15242768938484"><ele>211.0</ele><time>2026-04-06T17:38:22.999Z</time></trkpt><trkpt lat="40.76612687643234" lon="9.152785102856589"><ele>211.0</ele><time>2026-04-06T17:38:23.999Z</time></trkpt><trkpt lat="40.76612961476599" lon="9.153145320668711"><ele>211.0</ele><time>2026-04-06T17:38:24.999Z</time></trkpt><trkpt lat="40.766137785127334" lon="9.153505091348316"><ele>212.5</ele><time>2026-04-06T17:38:25.999Z</time></trkpt><trkpt lat="40.766147826707275" lon="9.153868925680248"><ele>214.0</ele><time>2026-04-06T17:38:26.999Z</time></trkpt><trkpt lat="40.766165411219" lon="9.154227387258274"><ele>214.0</ele><time>2026-04-06T17:38:27.999Z</time></trkpt><trkpt lat="40.76618800005119" lon="9.154583410387527"><ele>214.0</ele><time>2026-04-06T17:38:28.999Z</time></trkpt><trkpt lat="40.76621654398799" lon="9.15493767144174"><ele>214.0</ele><time>2026-04-06T17:38:29.999Z</time></trkpt><trkpt lat="40.76624974658592" lon="9.155293551171296"><ele>214.0</ele><time>2026-04-06T17:38:30.999Z</time></trkpt><trkpt lat="40.766289892465075" lon="9.155646267999831"><ele>212.5</ele><time>2026-04-06T17:38:31.999Z</time></trkpt><trkpt lat="40.76633518850022" lon="9.1559930714916"><ele>211.0</ele><time>2026-04-06T17:38:32.999Z</time></trkpt><trkpt lat="40.766385455457026" lon="9.156342191020704"><ele>208.5</ele><time>2026-04-06T17:38:33.999Z</time></trkpt><trkpt lat="40.76644017487694" lon="9.15669037646307"><ele>206.0</ele><time>2026-04-06T17:38:34.999Z</time></trkpt><trkpt lat="40.76650038506611" lon="9.157029971516778"><ele>206.0</ele><time>2026-04-06T17:38:35.999Z</time></trkpt><trkpt lat="40.766563031156224" lon="9.15736054074688"><ele>206.0</ele><time>2026-04-06T17:38:36.999Z</time></trkpt><trkpt lat="40.76662873725739" lon="9.157679890937311"><ele>203.5</ele><time>2026-04-06T17:38:37.999Z</time></trkpt><trkpt lat="40.76669922870688" lon="9.157995539235896"><ele>201.0</ele><time>2026-04-06T17:38:38.999Z</time></trkpt><trkpt lat="40.76677164264535" lon="9.158312789506263"><ele>197.5</ele><time>2026-04-06T17:38:39.999Z</time></trkpt><trkpt lat="40.76684719181787" lon="9.158626869361186"><ele>194.0</ele><time>2026-04-06T17:38:40.999Z</time></trkpt><trkpt lat="40.76693040529098" lon="9.158946643353836"><ele>198.0</ele><time>2026-04-06T17:38:41.999Z</time></trkpt><trkpt lat="40.7670187697284" lon="9.159263034541654"><ele>202.0</ele><time>2026-04-06T17:38:42.999Z</time></trkpt><trkpt lat="40.7671153540737" lon="9.159585726603792"><ele>198.0</ele><time>2026-04-06T17:38:43.999Z</time></trkpt><trkpt lat="40.76721281765143" lon="9.159902827158184"><ele>194.0</ele><time>2026-04-06T17:38:44.999Z</time></trkpt><trkpt lat="40.767320554817246" lon="9.160224496944034"><ele>194.0</ele><time>2026-04-06T17:38:45.999Z</time></trkpt><trkpt lat="40.76743344591247" lon="9.160544663447563"><ele>194.0</ele><time>2026-04-06T17:38:46.999Z</time></trkpt><trkpt lat="40.76754689114828" lon="9.160844465732026"><ele>192.5</ele><time>2026-04-06T17:38:47.999Z</time></trkpt><trkpt lat="40.7676624951201" lon="9.161138009663116"><ele>191.0</ele><time>2026-04-06T17:38:48.999Z</time></trkpt><trkpt lat="40.76778325722274" lon="9.161439176920794"><ele>189.0</ele><time>2026-04-06T17:38:49.999Z</time></trkpt><trkpt lat="40.767908067334226" lon="9.161741404074421"><ele>187.0</ele><time>2026-04-06T17:38:50.999Z</time></trkpt><trkpt lat="40.76803341767604" lon="9.16202754924852"><ele>187.0</ele><time>2026-04-06T17:38:51.999Z</time></trkpt><trkpt lat="40.76816430613467" lon="9.16231283475423"><ele>187.0</ele><time>2026-04-06T17:38:52.999Z</time></trkpt><trkpt lat="40.76829700419844" lon="9.162588461285825"><ele>186.0</ele><time>2026-04-06T17:38:53.999Z</time></trkpt><trkpt lat="40.768434979121274" lon="9.162867913870986"><ele>185.0</ele><time>2026-04-06T17:38:54.999Z</time></trkpt><trkpt lat="40.768578532721435" lon="9.163143980358575"><ele>186.5</ele><time>2026-04-06T17:38:55.999Z</time></trkpt><trkpt lat="40.7687217370116" lon="9.16341537293875"><ele>188.0</ele><time>2026-04-06T17:38:56.999Z</time></trkpt><trkpt lat="40.76887067195668" lon="9.1636856112807"><ele>188.0</ele><time>2026-04-06T17:38:57.999Z</time></trkpt><trkpt lat="40.76902122416122" lon="9.163950554024556"><ele>188.0</ele><time>2026-04-06T17:38:58.999Z</time></trkpt><trkpt lat="40.76917297562178" lon="9.164215098761867"><ele>186.5</ele><time>2026-04-06T17:38:59.999Z</time></trkpt><trkpt lat="40.769322702236174" lon="9.164470057159663"><ele>185.0</ele><time>2026-04-06T17:39:00.999Z</time></trkpt><trkpt lat="40.76947208741185" lon="9.164723828078646"><ele>186.0</ele><time>2026-04-06T17:39:01.999Z</time></trkpt><trkpt lat="40.76962256350557" lon="9.164979522700769"><ele>187.0</ele><time>2026-04-06T17:39:02.999Z</time></trkpt><trkpt lat="40.76977167048743" lon="9.16523546870008"><ele>187.0</ele><time>2026-04-06T17:39:03.999Z</time></trkpt><trkpt lat="40.769919260153486" lon="9.165485636987585"><ele>187.0</ele><time>2026-04-06T17:39:04.999Z</time></trkpt><trkpt lat="40.770063263113556" lon="9.165736180395287"><ele>191.5</ele><time>2026-04-06T17:39:05.999Z</time></trkpt><trkpt lat="40.77021135681197" lon="9.165991153609388"><ele>196.0</ele><time>2026-04-06T17:39:06.999Z</time></trkpt><trkpt lat="40.77035610866298" lon="9.166240519378036"><ele>196.0</ele><time>2026-04-06T17:39:07.999Z</time></trkpt><trkpt lat="40.770502738363646" lon="9.166491663852838"><ele>196.0</ele><time>2026-04-06T17:39:08.999Z</time></trkpt><trkpt lat="40.77064882152987" lon="9.166739028506218"><ele>196.0</ele><time>2026-04-06T17:39:09.999Z</time></trkpt><trkpt lat="40.77079657611839" lon="9.166986384064167"><ele>196.0</ele><time>2026-04-06T17:39:10.999Z</time></trkpt><trkpt lat="40.77094719889381" lon="9.167234335178819"><ele>199.5</ele><time>2026-04-06T17:39:11.999Z</time></trkpt><trkpt lat="40.77109667750948" lon="9.167483328898799"><ele>203.0</ele><time>2026-04-06T17:39:12.999Z</time></trkpt><trkpt lat="40.77125080123953" lon="9.167740033054887"><ele>203.0</ele><time>2026-04-06T17:39:13.999Z</time></trkpt><trkpt lat="40.77140883270497" lon="9.168000625352311"><ele>203.0</ele><time>2026-04-06T17:39:14.999Z</time></trkpt><trkpt lat="40.771568911295695" lon="9.168263192837493"><ele>201.0</ele><time>2026-04-06T17:39:15.999Z</time></trkpt><trkpt lat="40.77173704325174" lon="9.168533637306858"><ele>199.0</ele><time>2026-04-06T17:39:16.999Z</time></trkpt><trkpt lat="40.771906185893684" lon="9.168813436471709"><ele>202.0</ele><time>2026-04-06T17:39:17.999Z</time></trkpt><trkpt lat="40.772073050654264" lon="9.16909762633802"><ele>205.0</ele><time>2026-04-06T17:39:18.999Z</time></trkpt><trkpt lat="40.77223403857493" lon="9.169384392304432"><ele>205.0</ele><time>2026-04-06T17:39:19.999Z</time></trkpt><trkpt lat="40.77238755847833" lon="9.16965932580906"><ele>205.0</ele><time>2026-04-06T17:39:20.999Z</time></trkpt><trkpt lat="40.772531801265" lon="9.169913308739527"><ele>205.5</ele><time>2026-04-06T17:39:21.999Z</time></trkpt><trkpt lat="40.77267428629261" lon="9.170166540326889"><ele>206.0</ele><time>2026-04-06T17:39:22.999Z</time></trkpt><trkpt lat="40.77281389750149" lon="9.170420883312731"><ele>209.5</ele><time>2026-04-06T17:39:23.999Z</time></trkpt><trkpt lat="40.77295226160571" lon="9.170672623111574"><ele>213.0</ele><time>2026-04-06T17:39:24.999Z</time></trkpt><trkpt lat="40.773097086955644" lon="9.170925816958817"><ele>214.0</ele><time>2026-04-06T17:39:25.999Z</time></trkpt><trkpt lat="40.77324250483588" lon="9.17117647385378"><ele>215.0</ele><time>2026-04-06T17:39:26.999Z</time></trkpt><trkpt lat="40.773386714544024" lon="9.171424231586427"><ele>214.5</ele><time>2026-04-06T17:39:27.999Z</time></trkpt><trkpt lat="40.77353117304728" lon="9.17167425983185"><ele>214.0</ele><time>2026-04-06T17:39:28.999Z</time></trkpt><trkpt lat="40.773678697610045" lon="9.171928726764593"><ele>214.0</ele><time>2026-04-06T17:39:29.999Z</time></trkpt><trkpt lat="40.773830767764" lon="9.172189253441339"><ele>214.0</ele><time>2026-04-06T17:39:30.999Z</time></trkpt><trkpt lat="40.77398354993417" lon="9.172455031148987"><ele>212.5</ele><time>2026-04-06T17:39:31.999Z</time></trkpt><trkpt lat="40.77413980836399" lon="9.172722790582098"><ele>211.0</ele><time>2026-04-06T17:39:32.999Z</time></trkpt><trkpt lat="40.77429872876483" lon="9.172996585701252"><ele>211.0</ele><time>2026-04-06T17:39:33.999Z</time></trkpt><trkpt lat="40.774460037295185" lon="9.173278085528839"><ele>211.0</ele><time>2026-04-06T17:39:34.999Z</time></trkpt><trkpt lat="40.77461836252757" lon="9.173556403648748"><ele>211.0</ele><time>2026-04-06T17:39:36Z</time></trkpt><trkpt lat="40.7747799415472" lon="9.17384534602765"><ele>211.0</ele><time>2026-04-06T17:39:37Z</time></trkpt><trkpt lat="40.77493867704611" lon="9.17413305432211"><ele>209.5</ele><time>2026-04-06T17:39:38Z</time></trkpt><trkpt lat="40.77509422001136" lon="9.174423221090901"><ele>208.0</ele><time>2026-04-06T17:39:39Z</time></trkpt><trkpt lat="40.775246891995074" lon="9.174716235176776"><ele>210.5</ele><time>2026-04-06T17:39:40Z</time></trkpt><trkpt lat="40.77539463752366" lon="9.175007550740885"><ele>213.0</ele><time>2026-04-06T17:39:41Z</time></trkpt><trkpt lat="40.77553481560536" lon="9.175290411896025"><ele>213.0</ele><time>2026-04-06T17:39:42Z</time></trkpt><trkpt lat="40.77566542312495" lon="9.175560173968266"><ele>213.0</ele><time>2026-04-06T17:39:43Z</time></trkpt><trkpt lat="40.775795715378074" lon="9.17583577983956"><ele>211.5</ele><time>2026-04-06T17:39:44Z</time></trkpt><trkpt lat="40.77592223567575" lon="9.176118052779428"><ele>210.0</ele><time>2026-04-06T17:39:45Z</time></trkpt><trkpt lat="40.776042981750656" lon="9.176401927402734"><ele>208.5</ele><time>2026-04-06T17:39:46Z</time></trkpt><trkpt lat="40.77616007061214" lon="9.176687196947075"><ele>207.0</ele><time>2026-04-06T17:39:47Z</time></trkpt><trkpt lat="40.77627054368584" lon="9.176972827511399"><ele>207.0</ele><time>2026-04-06T17:39:48Z</time></trkpt><trkpt lat="40.77637964847796" lon="9.177266706021445"><ele>207.0</ele><time>2026-04-06T17:39:49Z</time></trkpt><trkpt lat="40.776485363249975" lon="9.17756339443282"><ele>207.0</ele><time>2026-04-06T17:39:50.001Z</time></trkpt><trkpt lat="40.77658970299739" lon="9.177867546323789"><ele>207.0</ele><time>2026-04-06T17:39:51.001Z</time></trkpt><trkpt lat="40.77669061139431" lon="9.178170121369954"><ele>205.0</ele><time>2026-04-06T17:39:52.001Z</time></trkpt><trkpt lat="40.776789284220364" lon="9.178482591364569"><ele>203.0</ele><time>2026-04-06T17:39:53.001Z</time></trkpt><trkpt lat="40.77688425980567" lon="9.17880053030314"><ele>202.0</ele><time>2026-04-06T17:39:54.001Z</time></trkpt><trkpt lat="40.776978245009694" lon="9.179124900827489"><ele>201.0</ele><time>2026-04-06T17:39:55.001Z</time></trkpt><trkpt lat="40.77706392791198" lon="9.179446308366416"><ele>201.0</ele><time>2026-04-06T17:39:56.001Z</time></trkpt><trkpt lat="40.77714938920841" lon="9.179774479817963"><ele>201.0</ele><time>2026-04-06T17:39:57.001Z</time></trkpt><trkpt lat="40.77722797702276" lon="9.180095637187339"><ele>200.5</ele><time>2026-04-06T17:39:58.001Z</time></trkpt><trkpt lat="40.77730017505199" lon="9.18041446587788"><ele>200.0</ele><time>2026-04-06T17:39:59.001Z</time></trkpt><trkpt lat="40.7773680818799" lon="9.180735467901554"><ele>201.5</ele><time>2026-04-06T17:40:00.001Z</time></trkpt><trkpt lat="40.77742848576747" lon="9.181050251931893"><ele>203.0</ele><time>2026-04-06T17:40:01.001Z</time></trkpt><trkpt lat="40.777485070615455" lon="9.181362138479221"><ele>205.5</ele><time>2026-04-06T17:40:02.001Z</time></trkpt><trkpt lat="40.77753626176414" lon="9.181663203446131"><ele>208.0</ele><time>2026-04-06T17:40:03.001Z</time></trkpt><trkpt lat="40.777580908383584" lon="9.181947149980292"><ele>208.0</ele><time>2026-04-06T17:40:04.001Z</time></trkpt><trkpt lat="40.77762323409056" lon="9.182244265947162"><ele>208.0</ele><time>2026-04-06T17:40:05.001Z</time></trkpt><trkpt lat="40.77766236907606" lon="9.182555041973169"><ele>211.0</ele><time>2026-04-06T17:40:06.001Z</time></trkpt><trkpt lat="40.777701351690936" lon="9.182869148971077"><ele>214.0</ele><time>2026-04-06T17:40:07.001Z</time></trkpt><trkpt lat="40.77773967763445" lon="9.183188429108055"><ele>215.5</ele><time>2026-04-06T17:40:08.001Z</time></trkpt><trkpt lat="40.777776978860445" lon="9.18351193145103"><ele>217.0</ele><time>2026-04-06T17:40:09.001Z</time></trkpt><trkpt lat="40.777813884169234" lon="9.18383810717335"><ele>216.5</ele><time>2026-04-06T17:40:10.001Z</time></trkpt><trkpt lat="40.77784846552478" lon="9.184175280088985"><ele>216.0</ele><time>2026-04-06T17:40:11Z</time></trkpt><trkpt lat="40.777881130689096" lon="9.184511467912609"><ele>215.0</ele><time>2026-04-06T17:40:12Z</time></trkpt><trkpt lat="40.77791585956392" lon="9.184859025850379"><ele>214.0</ele><time>2026-04-06T17:40:13Z</time></trkpt><trkpt lat="40.777949323314424" lon="9.18519107524814"><ele>214.0</ele><time>2026-04-06T17:40:14Z</time></trkpt><trkpt lat="40.77798646245612" lon="9.185530013835331"><ele>214.0</ele><time>2026-04-06T17:40:15Z</time></trkpt><trkpt lat="40.77802264109566" lon="9.185866637531252"><ele>213.5</ele><time>2026-04-06T17:40:16Z</time></trkpt><trkpt lat="40.77806088378419" lon="9.186206626038672"><ele>213.0</ele><time>2026-04-06T17:40:17Z</time></trkpt><trkpt lat="40.77809781769863" lon="9.186535012892016"><ele>213.0</ele><time>2026-04-06T17:40:18Z</time></trkpt><trkpt lat="40.77813684100192" lon="9.186874575788579"><ele>213.0</ele><time>2026-04-06T17:40:19Z</time></trkpt><trkpt lat="40.778174839132966" lon="9.187212254502354"><ele>214.0</ele><time>2026-04-06T17:40:20Z</time></trkpt><trkpt lat="40.778211748651216" lon="9.18754820556217"><ele>215.0</ele><time>2026-04-06T17:40:21Z</time></trkpt><trkpt lat="40.77825417071112" lon="9.187884453708469"><ele>213.0</ele><time>2026-04-06T17:40:22Z</time></trkpt><trkpt lat="40.778301275493874" lon="9.188219090053613"><ele>211.0</ele><time>2026-04-06T17:40:23Z</time></trkpt><trkpt lat="40.77834705972158" lon="9.188559508215528"><ele>211.0</ele><time>2026-04-06T17:40:24Z</time></trkpt><trkpt lat="40.778389964976924" lon="9.188904997173896"><ele>211.0</ele><time>2026-04-06T17:40:25Z</time></trkpt><trkpt lat="40.778428247916544" lon="9.189242885840047"><ele>209.0</ele><time>2026-04-06T17:40:26Z</time></trkpt><trkpt lat="40.778466293615054" lon="9.189588985461112"><ele>207.0</ele><time>2026-04-06T17:40:27Z</time></trkpt><trkpt lat="40.77850312067751" lon="9.18992607964657"><ele>208.0</ele><time>2026-04-06T17:40:28Z</time></trkpt><trkpt lat="40.77854090315658" lon="9.190267684846903"><ele>209.0</ele><time>2026-04-06T17:40:29Z</time></trkpt><trkpt lat="40.77857781002295" lon="9.190605262178478"><ele>209.0</ele><time>2026-04-06T17:40:30Z</time></trkpt><trkpt lat="40.7786135133518" lon="9.190938292856023"><ele>209.0</ele><time>2026-04-06T17:40:31Z</time></trkpt><trkpt lat="40.77864889629552" lon="9.19127168964382"><ele>209.5</ele><time>2026-04-06T17:40:32Z</time></trkpt><trkpt lat="40.77868335297532" lon="9.19159176292768"><ele>210.0</ele><time>2026-04-06T17:40:33Z</time></trkpt><trkpt lat="40.77871855822266" lon="9.191920627636158"><ele>210.0</ele><time>2026-04-06T17:40:34Z</time></trkpt><trkpt lat="40.778747938661795" lon="9.192242890002358"><ele>210.0</ele><time>2026-04-06T17:40:35Z</time></trkpt><trkpt lat="40.77877450592063" lon="9.192571326494148"><ele>210.5</ele><time>2026-04-06T17:40:36Z</time></trkpt><trkpt lat="40.778797951161984" lon="9.192893708541432"><ele>211.0</ele><time>2026-04-06T17:40:37Z</time></trkpt><trkpt lat="40.77882361186874" lon="9.193221478511543"><ele>212.0</ele><time>2026-04-06T17:40:38Z</time></trkpt><trkpt lat="40.77885459664199" lon="9.193546728887846"><ele>213.0</ele><time>2026-04-06T17:40:39Z</time></trkpt><trkpt lat="40.778889495887974" lon="9.193878565281134"><ele>213.0</ele><time>2026-04-06T17:40:40Z</time></trkpt><trkpt lat="40.77892724500812" lon="9.194206540788754"><ele>213.0</ele><time>2026-04-06T17:40:41Z</time></trkpt><trkpt lat="40.778966137488034" lon="9.194541946047634"><ele>211.0</ele><time>2026-04-06T17:40:42Z</time></trkpt><trkpt lat="40.779003997104155" lon="9.194877982506815"><ele>209.0</ele><time>2026-04-06T17:40:43Z</time></trkpt><trkpt lat="40.7790413131297" lon="9.195221869331466"><ele>209.0</ele><time>2026-04-06T17:40:44Z</time></trkpt><trkpt lat="40.77907654262235" lon="9.195551578795412"><ele>209.0</ele><time>2026-04-06T17:40:45Z</time></trkpt><trkpt lat="40.77911337718701" lon="9.19588552147401"><ele>208.0</ele><time>2026-04-06T17:40:46Z</time></trkpt><trkpt lat="40.77914950259788" lon="9.196222165610505"><ele>207.0</ele><time>2026-04-06T17:40:47Z</time></trkpt><trkpt lat="40.77918446762213" lon="9.196556485315897"><ele>205.5</ele><time>2026-04-06T17:40:48Z</time></trkpt><trkpt lat="40.779220701337316" lon="9.196886047039873"><ele>204.0</ele><time>2026-04-06T17:40:49Z</time></trkpt><trkpt lat="40.779258333700874" lon="9.197218237511084"><ele>204.0</ele><time>2026-04-06T17:40:50Z</time></trkpt><trkpt lat="40.77929561150122" lon="9.197552537450903"><ele>204.0</ele><time>2026-04-06T17:40:51Z</time></trkpt><trkpt lat="40.77932917719884" lon="9.197876017000874"><ele>206.5</ele><time>2026-04-06T17:40:52Z</time></trkpt><trkpt lat="40.779363770872784" lon="9.198206301276894"><ele>209.0</ele><time>2026-04-06T17:40:53Z</time></trkpt><trkpt lat="40.77939801229889" lon="9.19853548351281"><ele>209.0</ele><time>2026-04-06T17:40:54Z</time></trkpt><trkpt lat="40.7794307652437" lon="9.198862348358828"><ele>209.0</ele><time>2026-04-06T17:40:55Z</time></trkpt><trkpt lat="40.779468407770246" lon="9.199188534895143"><ele>209.5</ele><time>2026-04-06T17:40:56Z</time></trkpt><trkpt lat="40.77950510724291" lon="9.199518381403976"><ele>210.0</ele><time>2026-04-06T17:40:57Z</time></trkpt><trkpt lat="40.77953915010225" lon="9.199845230477216"><ele>210.5</ele><time>2026-04-06T17:40:58Z</time></trkpt><trkpt lat="40.7795760987337" lon="9.20017405161491"><ele>211.0</ele><time>2026-04-06T17:40:59Z</time></trkpt><trkpt lat="40.77960991240296" lon="9.200509706024727"><ele>210.5</ele><time>2026-04-06T17:41:00Z</time></trkpt><trkpt lat="40.7796459561312" lon="9.200837738696828"><ele>210.0</ele><time>2026-04-06T17:41:01Z</time></trkpt><trkpt lat="40.77968119810719" lon="9.201170537830835"><ele>210.0</ele><time>2026-04-06T17:41:02Z</time></trkpt><trkpt lat="40.779716393763316" lon="9.201502724199003"><ele>210.0</ele><time>2026-04-06T17:41:03Z</time></trkpt><trkpt lat="40.77975289333135" lon="9.201837810398628"><ele>210.0</ele><time>2026-04-06T17:41:04Z</time></trkpt><trkpt lat="40.77978875778019" lon="9.20216914131499"><ele>210.0</ele><time>2026-04-06T17:41:05Z</time></trkpt><trkpt lat="40.77982561986596" lon="9.202504063484918"><ele>208.5</ele><time>2026-04-06T17:41:06Z</time></trkpt><trkpt lat="40.77986078705203" lon="9.202830876248083"><ele>207.0</ele><time>2026-04-06T17:41:07Z</time></trkpt><trkpt lat="40.77989746658296" lon="9.203163696111366"><ele>206.0</ele><time>2026-04-06T17:41:08Z</time></trkpt><trkpt lat="40.7799324384292" lon="9.203495641594467"><ele>205.0</ele><time>2026-04-06T17:41:09Z</time></trkpt><trkpt lat="40.77996754447258" lon="9.203823425964755"><ele>204.0</ele><time>2026-04-06T17:41:10Z</time></trkpt><trkpt lat="40.78000313376346" lon="9.204151360381875"><ele>203.0</ele><time>2026-04-06T17:41:11Z</time></trkpt><trkpt lat="40.78003954627825" lon="9.20447563022479"><ele>203.0</ele><time>2026-04-06T17:41:12Z</time></trkpt><trkpt lat="40.78007107897163" lon="9.204782810109478"><ele>203.0</ele><time>2026-04-06T17:41:13Z</time></trkpt><trkpt lat="40.78010163220044" lon="9.205089183343235"><ele>203.0</ele><time>2026-04-06T17:41:14Z</time></trkpt><trkpt lat="40.78013366060202" lon="9.2053957407859"><ele>203.0</ele><time>2026-04-06T17:41:15Z</time></trkpt><trkpt lat="40.78016716446181" lon="9.205697555827095"><ele>203.5</ele><time>2026-04-06T17:41:16Z</time></trkpt><trkpt lat="40.780200511379434" lon="9.205994761686895"><ele>204.0</ele><time>2026-04-06T17:41:17Z</time></trkpt><trkpt lat="40.780232791561026" lon="9.206294034808971"><ele>207.5</ele><time>2026-04-06T17:41:18Z</time></trkpt><trkpt lat="40.780267033437525" lon="9.206599346385634"><ele>211.0</ele><time>2026-04-06T17:41:19Z</time></trkpt><trkpt lat="40.78029775594077" lon="9.206908560498524"><ele>211.0</ele><time>2026-04-06T17:41:20Z</time></trkpt><trkpt lat="40.78033006348885" lon="9.207225710017672"><ele>211.0</ele><time>2026-04-06T17:41:21Z</time></trkpt><trkpt lat="40.780363323142666" lon="9.207541171582909"><ele>212.0</ele><time>2026-04-06T17:41:22Z</time></trkpt><trkpt lat="40.780396345560746" lon="9.2078647179888"><ele>213.0</ele><time>2026-04-06T17:41:23Z</time></trkpt><trkpt lat="40.780431115510375" lon="9.208189711467679"><ele>214.5</ele><time>2026-04-06T17:41:24Z</time></trkpt><trkpt lat="40.78046656353938" lon="9.20852354109748"><ele>216.0</ele><time>2026-04-06T17:41:25Z</time></trkpt><trkpt lat="40.780502030123735" lon="9.20885182967797"><ele>217.5</ele><time>2026-04-06T17:41:26Z</time></trkpt><trkpt lat="40.78053746763454" lon="9.209184658014019"><ele>219.0</ele><time>2026-04-06T17:41:27Z</time></trkpt><trkpt lat="40.78057305294061" lon="9.209522212089944"><ele>220.0</ele><time>2026-04-06T17:41:28Z</time></trkpt><trkpt lat="40.780608914343645" lon="9.209861069732622"><ele>221.0</ele><time>2026-04-06T17:41:29Z</time></trkpt><trkpt lat="40.7806449944387" lon="9.210195150375556"><ele>221.0</ele><time>2026-04-06T17:41:30Z</time></trkpt><trkpt lat="40.780679977446226" lon="9.210530351935416"><ele>221.0</ele><time>2026-04-06T17:41:31Z</time></trkpt><trkpt lat="40.780716000551166" lon="9.210859841924304"><ele>222.0</ele><time>2026-04-06T17:41:32Z</time></trkpt><trkpt lat="40.780753553047965" lon="9.211184995098066"><ele>223.0</ele><time>2026-04-06T17:41:33Z</time></trkpt><trkpt lat="40.780789498654244" lon="9.211510659281863"><ele>223.5</ele><time>2026-04-06T17:41:34Z</time></trkpt><trkpt lat="40.78082597984273" lon="9.21183266896398"><ele>224.0</ele><time>2026-04-06T17:41:35Z</time></trkpt><trkpt lat="40.780862071585645" lon="9.212151151353492"><ele>224.0</ele><time>2026-04-06T17:41:36Z</time></trkpt><trkpt lat="40.78089569197803" lon="9.212471081589154"><ele>224.0</ele><time>2026-04-06T17:41:37Z</time></trkpt><trkpt lat="40.78092713140199" lon="9.212784057684678"><ele>224.0</ele><time>2026-04-06T17:41:38Z</time></trkpt><trkpt lat="40.78096000868542" lon="9.213096261351984"><ele>224.0</ele><time>2026-04-06T17:41:39Z</time></trkpt><trkpt lat="40.78099394723524" lon="9.213411946671018"><ele>226.0</ele><time>2026-04-06T17:41:40Z</time></trkpt><trkpt lat="40.781026775359464" lon="9.213730710721642"><ele>228.0</ele><time>2026-04-06T17:41:41Z</time></trkpt><trkpt lat="40.78106191320734" lon="9.214050999455873"><ele>230.0</ele><time>2026-04-06T17:41:42.001Z</time></trkpt><trkpt lat="40.78109440761672" lon="9.214371664391525"><ele>232.0</ele><time>2026-04-06T17:41:43.001Z</time></trkpt><trkpt lat="40.78112656794642" lon="9.214690918507259"><ele>233.0</ele><time>2026-04-06T17:41:44.001Z</time></trkpt><trkpt lat="40.78116061349974" lon="9.215015054960329"><ele>234.0</ele><time>2026-04-06T17:41:45.001Z</time></trkpt><trkpt lat="40.78119642180986" lon="9.215343686672812"><ele>234.0</ele><time>2026-04-06T17:41:46.001Z</time></trkpt><trkpt lat="40.781233378919254" lon="9.21567044851996"><ele>234.0</ele><time>2026-04-06T17:41:47.001Z</time></trkpt><trkpt lat="40.78126631181238" lon="9.216006815277325"><ele>234.0</ele><time>2026-04-06T17:41:48.001Z</time></trkpt><trkpt lat="40.78129469165089" lon="9.216346140659546"><ele>234.0</ele><time>2026-04-06T17:41:49.001Z</time></trkpt><trkpt lat="40.78131800810431" lon="9.216688393325203"><ele>235.5</ele><time>2026-04-06T17:41:50.001Z</time></trkpt><trkpt lat="40.78133567123825" lon="9.217037449860706"><ele>237.0</ele><time>2026-04-06T17:41:51.001Z</time></trkpt><trkpt lat="40.7813506240544" lon="9.217365800080287"><ele>237.5</ele><time>2026-04-06T17:41:52.001Z</time></trkpt><trkpt lat="40.781362547580194" lon="9.217684358454871"><ele>238.0</ele><time>2026-04-06T17:41:53.001Z</time></trkpt><trkpt lat="40.78138097591506" lon="9.218009577339553"><ele>239.5</ele><time>2026-04-06T17:41:54.001Z</time></trkpt><trkpt lat="40.78139689976861" lon="9.218347521358767"><ele>241.0</ele><time>2026-04-06T17:41:55.001Z</time></trkpt><trkpt lat="40.781400836979955" lon="9.218700923313122"><ele>241.0</ele><time>2026-04-06T17:41:56.001Z</time></trkpt><trkpt lat="40.781386353295595" lon="9.219069292459775"><ele>241.0</ele><time>2026-04-06T17:41:57.001Z</time></trkpt><trkpt lat="40.78136308134682" lon="9.21945292976646"><ele>241.5</ele><time>2026-04-06T17:41:58.001Z</time></trkpt><trkpt lat="40.781335094033" lon="9.219839697453782"><ele>242.0</ele><time>2026-04-06T17:41:59.001Z</time></trkpt><trkpt lat="40.78129805444731" lon="9.22023298221164"><ele>242.0</ele><time>2026-04-06T17:42:00.001Z</time></trkpt><trkpt lat="40.78125055646667" lon="9.2206369210773"><ele>242.0</ele><time>2026-04-06T17:42:01.001Z</time></trkpt><trkpt lat="40.781197832066844" lon="9.221005170692623"><ele>242.0</ele><time>2026-04-06T17:42:02.001Z</time></trkpt><trkpt lat="40.781141434342715" lon="9.22136542742426"><ele>242.0</ele><time>2026-04-06T17:42:03.001Z</time></trkpt><trkpt lat="40.78108686290986" lon="9.221718556779956"><ele>243.5</ele><time>2026-04-06T17:42:04.001Z</time></trkpt><trkpt lat="40.78103420747963" lon="9.222066385379055"><ele>245.0</ele><time>2026-04-06T17:42:05Z</time></trkpt><trkpt lat="40.780978617755856" lon="9.222408012161818"><ele>247.5</ele><time>2026-04-06T17:42:06Z</time></trkpt><trkpt lat="40.780921865894086" lon="9.222735430250209"><ele>250.0</ele><time>2026-04-06T17:42:07Z</time></trkpt><trkpt lat="40.78085942209517" lon="9.223065871976747"><ele>252.0</ele><time>2026-04-06T17:42:08Z</time></trkpt><trkpt lat="40.780796869004526" lon="9.223386564201876"><ele>254.0</ele><time>2026-04-06T17:42:09Z</time></trkpt><trkpt lat="40.780734501260035" lon="9.223704312403829"><ele>255.0</ele><time>2026-04-06T17:42:10Z</time></trkpt><trkpt lat="40.780673505790205" lon="9.224018244909482"><ele>256.0</ele><time>2026-04-06T17:42:11Z</time></trkpt><trkpt lat="40.780613638873994" lon="9.224329580251572"><ele>256.0</ele><time>2026-04-06T17:42:12Z</time></trkpt><trkpt lat="40.78055407251093" lon="9.224639297892613"><ele>256.0</ele><time>2026-04-06T17:42:13Z</time></trkpt><trkpt lat="40.78049484572356" lon="9.224947319994516"><ele>256.5</ele><time>2026-04-06T17:42:14Z</time></trkpt><trkpt lat="40.78043411814384" lon="9.225263201371456"><ele>257.0</ele><time>2026-04-06T17:42:15Z</time></trkpt><trkpt lat="40.78037197685861" lon="9.225576160793377"><ele>259.0</ele><time>2026-04-06T17:42:16Z</time></trkpt><trkpt lat="40.78030936965431" lon="9.225891100969136"><ele>261.0</ele><time>2026-04-06T17:42:17Z</time></trkpt><trkpt lat="40.780246976797294" lon="9.226211319292407"><ele>260.5</ele><time>2026-04-06T17:42:18Z</time></trkpt><trkpt lat="40.78018313970579" lon="9.226533368846061"><ele>260.0</ele><time>2026-04-06T17:42:19Z</time></trkpt><trkpt lat="40.7801184534985" lon="9.226860140576552"><ele>260.0</ele><time>2026-04-06T17:42:20Z</time></trkpt><trkpt lat="40.78005445944858" lon="9.22718275324011"><ele>260.0</ele><time>2026-04-06T17:42:21Z</time></trkpt><trkpt lat="40.77998916281426" lon="9.227515362816996"><ele>260.0</ele><time>2026-04-06T17:42:22Z</time></trkpt><trkpt lat="40.77992712349288" lon="9.227841944126176"><ele>260.0</ele><time>2026-04-06T17:42:23Z</time></trkpt><trkpt lat="40.77986071929538" lon="9.228173621997357"><ele>261.0</ele><time>2026-04-06T17:42:24Z</time></trkpt><trkpt lat="40.779797747057444" lon="9.228507088034066"><ele>262.0</ele><time>2026-04-06T17:42:25Z</time></trkpt><trkpt lat="40.77973183871736" lon="9.228837634166426"><ele>261.5</ele><time>2026-04-06T17:42:26Z</time></trkpt><trkpt lat="40.779666643356144" lon="9.229171597709403"><ele>261.0</ele><time>2026-04-06T17:42:27Z</time></trkpt><trkpt lat="40.77960277152283" lon="9.229511542965259"><ele>261.0</ele><time>2026-04-06T17:42:28Z</time></trkpt><trkpt lat="40.779540338339544" lon="9.229851828754477"><ele>261.0</ele><time>2026-04-06T17:42:29Z</time></trkpt><trkpt lat="40.77947570138366" lon="9.230190123910194"><ele>261.0</ele><time>2026-04-06T17:42:30Z</time></trkpt><trkpt lat="40.77941195232061" lon="9.230512300295308"><ele>261.0</ele><time>2026-04-06T17:42:31Z</time></trkpt><trkpt lat="40.779350995807256" lon="9.230820742992027"><ele>258.5</ele><time>2026-04-06T17:42:32Z</time></trkpt><trkpt lat="40.7792850331164" lon="9.231133573109645"><ele>256.0</ele><time>2026-04-06T17:42:33Z</time></trkpt><trkpt lat="40.77922237712394" lon="9.231451536598112"><ele>257.0</ele><time>2026-04-06T17:42:34Z</time></trkpt><trkpt lat="40.779164842655184" lon="9.231772689954566"><ele>258.0</ele><time>2026-04-06T17:42:35Z</time></trkpt><trkpt lat="40.77911051759884" lon="9.232094518874638"><ele>259.0</ele><time>2026-04-06T17:42:36Z</time></trkpt><trkpt lat="40.779058792713656" lon="9.232417260070411"><ele>260.0</ele><time>2026-04-06T17:42:37Z</time></trkpt><trkpt lat="40.779009408134506" lon="9.232737118097024"><ele>260.0</ele><time>2026-04-06T17:42:38Z</time></trkpt><trkpt lat="40.77896372193165" lon="9.23305970223775"><ele>260.0</ele><time>2026-04-06T17:42:39Z</time></trkpt><trkpt lat="40.77892614613334" lon="9.233378882851014"><ele>259.5</ele><time>2026-04-06T17:42:40Z</time></trkpt><trkpt lat="40.77889379811895" lon="9.233706134934986"><ele>259.0</ele><time>2026-04-06T17:42:41Z</time></trkpt><trkpt lat="40.77886336178469" lon="9.234023148553545"><ele>258.5</ele><time>2026-04-06T17:42:42Z</time></trkpt><trkpt lat="40.7788351105776" lon="9.23434748752021"><ele>258.0</ele><time>2026-04-06T17:42:43Z</time></trkpt><trkpt lat="40.77881331811707" lon="9.23466836012721"><ele>257.5</ele><time>2026-04-06T17:42:44Z</time></trkpt><trkpt lat="40.77879675368102" lon="9.234992315660666"><ele>257.0</ele><time>2026-04-06T17:42:45Z</time></trkpt><trkpt lat="40.77878303634461" lon="9.235320988102142"><ele>255.5</ele><time>2026-04-06T17:42:46Z</time></trkpt><trkpt lat="40.77877564632228" lon="9.235654431118924"><ele>254.0</ele><time>2026-04-06T17:42:47Z</time></trkpt><trkpt lat="40.778774009339955" lon="9.235977890982449"><ele>254.0</ele><time>2026-04-06T17:42:48Z</time></trkpt><trkpt lat="40.778774709059064" lon="9.23630904668573"><ele>254.0</ele><time>2026-04-06T17:42:49Z</time></trkpt><trkpt lat="40.778778736198475" lon="9.23664488547671"><ele>253.0</ele><time>2026-04-06T17:42:50Z</time></trkpt><trkpt lat="40.778788801969796" lon="9.236983771072637"><ele>252.0</ele><time>2026-04-06T17:42:51Z</time></trkpt><trkpt lat="40.77880314692121" lon="9.237320337123045"><ele>250.5</ele><time>2026-04-06T17:42:52Z</time></trkpt><trkpt lat="40.778822003135886" lon="9.237657422943649"><ele>249.0</ele><time>2026-04-06T17:42:53Z</time></trkpt><trkpt lat="40.77884587613053" lon="9.23800364190468"><ele>248.0</ele><time>2026-04-06T17:42:54Z</time></trkpt><trkpt lat="40.778878348474734" lon="9.238344493389043"><ele>247.0</ele><time>2026-04-06T17:42:55Z</time></trkpt><trkpt lat="40.77891100176099" lon="9.238670764760698"><ele>245.0</ele><time>2026-04-06T17:42:56Z</time></trkpt><trkpt lat="40.778953221377435" lon="9.239001789409615"><ele>243.0</ele><time>2026-04-06T17:42:57Z</time></trkpt><trkpt lat="40.77899944290702" lon="9.239331531347327"><ele>243.0</ele><time>2026-04-06T17:42:58Z</time></trkpt><trkpt lat="40.77905019092601" lon="9.239657409294518"><ele>243.0</ele><time>2026-04-06T17:42:59Z</time></trkpt><trkpt lat="40.779105146642" lon="9.239986408467905"><ele>243.5</ele><time>2026-04-06T17:43:00Z</time></trkpt><trkpt lat="40.77916481680272" lon="9.240309056248753"><ele>244.0</ele><time>2026-04-06T17:43:01Z</time></trkpt><trkpt lat="40.779227195056315" lon="9.240629360473179"><ele>244.0</ele><time>2026-04-06T17:43:02Z</time></trkpt><trkpt lat="40.77929340023549" lon="9.240944145010355"><ele>244.0</ele><time>2026-04-06T17:43:03Z</time></trkpt><trkpt lat="40.779361117693966" lon="9.241248631149917"><ele>244.0</ele><time>2026-04-06T17:43:04Z</time></trkpt><trkpt lat="40.77943327227754" lon="9.241553370719847"><ele>244.0</ele><time>2026-04-06T17:43:05Z</time></trkpt><trkpt lat="40.77950974693216" lon="9.241853725156226"><ele>244.0</ele><time>2026-04-06T17:43:06Z</time></trkpt><trkpt lat="40.77959114314004" lon="9.242156674609742"><ele>244.0</ele><time>2026-04-06T17:43:07Z</time></trkpt><trkpt lat="40.77967317075239" lon="9.24245067889158"><ele>244.0</ele><time>2026-04-06T17:43:08Z</time></trkpt><trkpt lat="40.77976284466638" lon="9.242746893734488"><ele>244.0</ele><time>2026-04-06T17:43:09Z</time></trkpt><trkpt lat="40.779853540692976" lon="9.243040271492667"><ele>243.0</ele><time>2026-04-06T17:43:10Z</time></trkpt><trkpt lat="40.779952213771736" lon="9.243338494150272"><ele>242.0</ele><time>2026-04-06T17:43:11Z</time></trkpt><trkpt lat="40.78005509022866" lon="9.243637159092401"><ele>242.0</ele><time>2026-04-06T17:43:12Z</time></trkpt><trkpt lat="40.78017293462615" lon="9.243945295186448"><ele>242.0</ele><time>2026-04-06T17:43:13Z</time></trkpt><trkpt lat="40.780278032578146" lon="9.244234895213765"><ele>242.0</ele><time>2026-04-06T17:43:14Z</time></trkpt><trkpt lat="40.78039614833372" lon="9.244532000132605"><ele>242.0</ele><time>2026-04-06T17:43:15Z</time></trkpt><trkpt lat="40.78052344391392" lon="9.244831807034538"><ele>242.0</ele><time>2026-04-06T17:43:16Z</time></trkpt><trkpt lat="40.78065215872801" lon="9.245126818657212"><ele>242.0</ele><time>2026-04-06T17:43:17Z</time></trkpt><trkpt lat="40.78078699919081" lon="9.245420756853475"><ele>241.5</ele><time>2026-04-06T17:43:18Z</time></trkpt><trkpt lat="40.780921621145815" lon="9.245701487104832"><ele>241.0</ele><time>2026-04-06T17:43:19Z</time></trkpt><trkpt lat="40.781063495906345" lon="9.245984718579983"><ele>239.5</ele><time>2026-04-06T17:43:20Z</time></trkpt><trkpt lat="40.781208984725986" lon="9.246263207185999"><ele>238.0</ele><time>2026-04-06T17:43:21Z</time></trkpt><trkpt lat="40.78135905117981" lon="9.246541646919358"><ele>237.5</ele><time>2026-04-06T17:43:22Z</time></trkpt><trkpt lat="40.78151143978372" lon="9.24681600565515"><ele>237.0</ele><time>2026-04-06T17:43:23Z</time></trkpt><trkpt lat="40.78166440773116" lon="9.247084021774365"><ele>236.5</ele><time>2026-04-06T17:43:24Z</time></trkpt><trkpt lat="40.781821649285895" lon="9.247352434016033"><ele>236.0</ele><time>2026-04-06T17:43:25Z</time></trkpt><trkpt lat="40.781981648505564" lon="9.247619952502907"><ele>234.5</ele><time>2026-04-06T17:43:26Z</time></trkpt><trkpt lat="40.78214277690082" lon="9.247885056118077"><ele>233.0</ele><time>2026-04-06T17:43:27Z</time></trkpt><trkpt lat="40.78230306694206" lon="9.24814678523829"><ele>232.0</ele><time>2026-04-06T17:43:28Z</time></trkpt><trkpt lat="40.78246284423611" lon="9.248408392499131"><ele>231.0</ele><time>2026-04-06T17:43:29Z</time></trkpt><trkpt lat="40.78262056181925" lon="9.248671580551747"><ele>232.5</ele><time>2026-04-06T17:43:30Z</time></trkpt><trkpt lat="40.78277222420825" lon="9.248927414889147"><ele>234.0</ele><time>2026-04-06T17:43:31Z</time></trkpt><trkpt lat="40.782925335378465" lon="9.249186331250696"><ele>234.0</ele><time>2026-04-06T17:43:32Z</time></trkpt><trkpt lat="40.78308021241414" lon="9.249444081587958"><ele>234.0</ele><time>2026-04-06T17:43:33Z</time></trkpt><trkpt lat="40.78323543762452" lon="9.24970038451749"><ele>231.5</ele><time>2026-04-06T17:43:34Z</time></trkpt><trkpt lat="40.78339238254036" lon="9.24995276574643"><ele>229.0</ele><time>2026-04-06T17:43:35Z</time></trkpt><trkpt lat="40.783547318481276" lon="9.250205136171783"><ele>229.0</ele><time>2026-04-06T17:43:36Z</time></trkpt><trkpt lat="40.783700758463134" lon="9.250457674751246"><ele>229.0</ele><time>2026-04-06T17:43:37Z</time></trkpt><trkpt lat="40.78385415865013" lon="9.250712744669395"><ele>228.5</ele><time>2026-04-06T17:43:38Z</time></trkpt><trkpt lat="40.78400679584203" lon="9.250965809742382"><ele>228.0</ele><time>2026-04-06T17:43:39Z</time></trkpt><trkpt lat="40.7841630685944" lon="9.251228771570016"><ele>229.0</ele><time>2026-04-06T17:43:40Z</time></trkpt><trkpt lat="40.78431671303132" lon="9.251486800220851"><ele>230.0</ele><time>2026-04-06T17:43:41Z</time></trkpt><trkpt lat="40.78447241514051" lon="9.251744449398558"><ele>234.5</ele><time>2026-04-06T17:43:42Z</time></trkpt><trkpt lat="40.78462918622387" lon="9.252007702883851"><ele>239.0</ele><time>2026-04-06T17:43:43Z</time></trkpt><trkpt lat="40.78478554069672" lon="9.252261701463315"><ele>239.5</ele><time>2026-04-06T17:43:44Z</time></trkpt><trkpt lat="40.78494158521772" lon="9.252520310059671"><ele>240.0</ele><time>2026-04-06T17:43:45Z</time></trkpt><trkpt lat="40.785097952886694" lon="9.252774793379885"><ele>242.0</ele><time>2026-04-06T17:43:46Z</time></trkpt><trkpt lat="40.78525319519018" lon="9.253029122709059"><ele>244.0</ele><time>2026-04-06T17:43:47Z</time></trkpt><trkpt lat="40.78540846577756" lon="9.253288845961148"><ele>244.0</ele><time>2026-04-06T17:43:48.001Z</time></trkpt><trkpt lat="40.78556320739259" lon="9.253543411382072"><ele>244.0</ele><time>2026-04-06T17:43:49.001Z</time></trkpt><trkpt lat="40.785717932336816" lon="9.253799498507185"><ele>244.0</ele><time>2026-04-06T17:43:50.001Z</time></trkpt><trkpt lat="40.78587299176634" lon="9.254055973283664"><ele>244.0</ele><time>2026-04-06T17:43:51.001Z</time></trkpt><trkpt lat="40.786026710054685" lon="9.254317754100715"><ele>246.5</ele><time>2026-04-06T17:43:52.001Z</time></trkpt><trkpt lat="40.786180690600105" lon="9.254587148875363"><ele>249.0</ele><time>2026-04-06T17:43:53.001Z</time></trkpt><trkpt lat="40.78633704731205" lon="9.254845975096343"><ele>249.0</ele><time>2026-04-06T17:43:54.001Z</time></trkpt><trkpt lat="40.78649498285896" lon="9.25510477899753"><ele>249.0</ele><time>2026-04-06T17:43:55.001Z</time></trkpt><trkpt lat="40.78665597698609" lon="9.255368131863797"><ele>249.5</ele><time>2026-04-06T17:43:56.001Z</time></trkpt><trkpt lat="40.78681727891169" lon="9.255633166702136"><ele>250.0</ele><time>2026-04-06T17:43:57.001Z</time></trkpt><trkpt lat="40.786979911249524" lon="9.255897998888242"><ele>251.0</ele><time>2026-04-06T17:43:58.001Z</time></trkpt><trkpt lat="40.78714480649144" lon="9.256166042295835"><ele>252.0</ele><time>2026-04-06T17:43:59.001Z</time></trkpt><trkpt lat="40.787312522249366" lon="9.256443857113535"><ele>250.0</ele><time>2026-04-06T17:44:00.001Z</time></trkpt><trkpt lat="40.78747952755972" lon="9.256718129376228"><ele>248.0</ele><time>2026-04-06T17:44:01.001Z</time></trkpt><trkpt lat="40.787647259082824" lon="9.256993636087213"><ele>247.5</ele><time>2026-04-06T17:44:02.001Z</time></trkpt><trkpt lat="40.78780992599322" lon="9.257263245660504"><ele>247.0</ele><time>2026-04-06T17:44:03.001Z</time></trkpt><trkpt lat="40.78796285057217" lon="9.257521649982632"><ele>247.0</ele><time>2026-04-06T17:44:04.001Z</time></trkpt><trkpt lat="40.788116655945025" lon="9.257775584959175"><ele>247.0</ele><time>2026-04-06T17:44:05.001Z</time></trkpt><trkpt lat="40.78827080320713" lon="9.258033520489558"><ele>246.0</ele><time>2026-04-06T17:44:06.001Z</time></trkpt><trkpt lat="40.788425812923485" lon="9.258288904855037"><ele>245.0</ele><time>2026-04-06T17:44:07Z</time></trkpt><trkpt lat="40.78858184886708" lon="9.258547198704623"><ele>245.0</ele><time>2026-04-06T17:44:08Z</time></trkpt><trkpt lat="40.78873887492468" lon="9.25880756117328"><ele>245.0</ele><time>2026-04-06T17:44:09Z</time></trkpt><trkpt lat="40.78889491888121" lon="9.259068882485128"><ele>244.5</ele><time>2026-04-06T17:44:10Z</time></trkpt><trkpt lat="40.78904901709913" lon="9.259326543594712"><ele>244.0</ele><time>2026-04-06T17:44:11Z</time></trkpt><trkpt lat="40.78920040202759" lon="9.259575731236673"><ele>243.5</ele><time>2026-04-06T17:44:12Z</time></trkpt><trkpt lat="40.78934807517729" lon="9.259819140381419"><ele>243.0</ele><time>2026-04-06T17:44:13Z</time></trkpt><trkpt lat="40.78949229562734" lon="9.260058460112578"><ele>243.0</ele><time>2026-04-06T17:44:14Z</time></trkpt><trkpt lat="40.7896352302457" lon="9.260299627274119"><ele>243.0</ele><time>2026-04-06T17:44:15Z</time></trkpt><trkpt lat="40.789777155732644" lon="9.260536050427234"><ele>243.0</ele><time>2026-04-06T17:44:16Z</time></trkpt><trkpt lat="40.78991748812091" lon="9.26077039071696"><ele>243.0</ele><time>2026-04-06T17:44:17Z</time></trkpt><trkpt lat="40.7900594166857" lon="9.261005813283802"><ele>244.0</ele><time>2026-04-06T17:44:18Z</time></trkpt><trkpt lat="40.790202734657896" lon="9.261237629274126"><ele>245.0</ele><time>2026-04-06T17:44:19Z</time></trkpt><trkpt lat="40.79034852881712" lon="9.261475353611049"><ele>245.0</ele><time>2026-04-06T17:44:20Z</time></trkpt><trkpt lat="40.7904920609672" lon="9.261715691188824"><ele>245.0</ele><time>2026-04-06T17:44:21Z</time></trkpt><trkpt lat="40.790638781357494" lon="9.261959692206949"><ele>245.0</ele><time>2026-04-06T17:44:22Z</time></trkpt><trkpt lat="40.790787589281166" lon="9.26221155535485"><ele>245.0</ele><time>2026-04-06T17:44:23Z</time></trkpt><trkpt lat="40.79093946547037" lon="9.262464122574857"><ele>246.0</ele><time>2026-04-06T17:44:24Z</time></trkpt><trkpt lat="40.79109385602464" lon="9.262719873961721"><ele>247.0</ele><time>2026-04-06T17:44:25Z</time></trkpt><trkpt lat="40.79124741742907" lon="9.26297549981108"><ele>247.0</ele><time>2026-04-06T17:44:26Z</time></trkpt><trkpt lat="40.791405147055045" lon="9.263235401040422"><ele>247.0</ele><time>2026-04-06T17:44:27Z</time></trkpt><trkpt lat="40.79155943902681" lon="9.263489456589653"><ele>247.0</ele><time>2026-04-06T17:44:28Z</time></trkpt><trkpt lat="40.791714167545464" lon="9.263740124264247"><ele>247.0</ele><time>2026-04-06T17:44:29Z</time></trkpt><trkpt lat="40.79187061979636" lon="9.263997926351937"><ele>250.5</ele><time>2026-04-06T17:44:30Z</time></trkpt><trkpt lat="40.79202267156919" lon="9.264251789245293"><ele>254.0</ele><time>2026-04-06T17:44:31Z</time></trkpt><trkpt lat="40.792177784401645" lon="9.264505019635068"><ele>254.0</ele><time>2026-04-06T17:44:32Z</time></trkpt><trkpt lat="40.792335041665154" lon="9.26476210365299"><ele>254.0</ele><time>2026-04-06T17:44:33Z</time></trkpt><trkpt lat="40.792492888118275" lon="9.26501712826705"><ele>253.0</ele><time>2026-04-06T17:44:34Z</time></trkpt><trkpt lat="40.79265070487552" lon="9.265273911715664"><ele>252.0</ele><time>2026-04-06T17:44:35Z</time></trkpt><trkpt lat="40.79281221636814" lon="9.265531019870336"><ele>251.5</ele><time>2026-04-06T17:44:36Z</time></trkpt><trkpt lat="40.79297354590333" lon="9.265787886593156"><ele>251.0</ele><time>2026-04-06T17:44:37Z</time></trkpt><trkpt lat="40.793136605528005" lon="9.26604912493113"><ele>251.0</ele><time>2026-04-06T17:44:38Z</time></trkpt><trkpt lat="40.79330300348587" lon="9.266308472646891"><ele>251.0</ele><time>2026-04-06T17:44:39Z</time></trkpt><trkpt lat="40.79346694822541" lon="9.266567466252141"><ele>247.5</ele><time>2026-04-06T17:44:40Z</time></trkpt><trkpt lat="40.793635354898285" lon="9.266831182103424"><ele>244.0</ele><time>2026-04-06T17:44:41Z</time></trkpt><trkpt lat="40.79380339380503" lon="9.267090723149472"><ele>244.0</ele><time>2026-04-06T17:44:42Z</time></trkpt><trkpt lat="40.79397649677639" lon="9.267354777429086"><ele>244.0</ele><time>2026-04-06T17:44:43Z</time></trkpt><trkpt lat="40.794143232535355" lon="9.267608285581899"><ele>244.0</ele><time>2026-04-06T17:44:44Z</time></trkpt><trkpt lat="40.794310900814104" lon="9.267868224538697"><ele>244.0</ele><time>2026-04-06T17:44:45Z</time></trkpt><trkpt lat="40.79448281358812" lon="9.268129822770733"><ele>243.0</ele><time>2026-04-06T17:44:46Z</time></trkpt><trkpt lat="40.794653384225654" lon="9.268383344442746"><ele>242.0</ele><time>2026-04-06T17:44:47Z</time></trkpt><trkpt lat="40.794825605125304" lon="9.26863430343985"><ele>242.0</ele><time>2026-04-06T17:44:48Z</time></trkpt><trkpt lat="40.79499848442687" lon="9.268887370158863"><ele>242.0</ele><time>2026-04-06T17:44:49Z</time></trkpt><trkpt lat="40.79516940142675" lon="9.269137554334309"><ele>238.5</ele><time>2026-04-06T17:44:50Z</time></trkpt><trkpt lat="40.795340805805104" lon="9.2693896112381"><ele>235.0</ele><time>2026-04-06T17:44:51Z</time></trkpt><trkpt lat="40.79550410177755" lon="9.269633140544927"><ele>236.0</ele><time>2026-04-06T17:44:52Z</time></trkpt><trkpt lat="40.79566967305783" lon="9.269881500418613"><ele>237.0</ele><time>2026-04-06T17:44:53Z</time></trkpt><trkpt lat="40.7958340085637" lon="9.270125849316655"><ele>237.0</ele><time>2026-04-06T17:44:54Z</time></trkpt><trkpt lat="40.79600101523884" lon="9.27037132287407"><ele>237.0</ele><time>2026-04-06T17:44:55Z</time></trkpt><trkpt lat="40.796167758394326" lon="9.270616850041968"><ele>238.5</ele><time>2026-04-06T17:44:56Z</time></trkpt><trkpt lat="40.79633216220919" lon="9.270859374955636"><ele>240.0</ele><time>2026-04-06T17:44:57Z</time></trkpt><trkpt lat="40.79649736383801" lon="9.27110698548537"><ele>240.0</ele><time>2026-04-06T17:44:58Z</time></trkpt><trkpt lat="40.79666662672847" lon="9.271359497080592"><ele>240.0</ele><time>2026-04-06T17:44:59Z</time></trkpt><trkpt lat="40.796834959109034" lon="9.271610793935642"><ele>242.5</ele><time>2026-04-06T17:45:00Z</time></trkpt><trkpt lat="40.797000289865586" lon="9.271853026771879"><ele>245.0</ele><time>2026-04-06T17:45:01Z</time></trkpt><trkpt lat="40.79716839341238" lon="9.272101861538225"><ele>245.5</ele><time>2026-04-06T17:45:02Z</time></trkpt><trkpt lat="40.79733631036734" lon="9.272350189041553"><ele>246.0</ele><time>2026-04-06T17:45:03Z</time></trkpt><trkpt lat="40.797502875457944" lon="9.272598035073042"><ele>247.5</ele><time>2026-04-06T17:45:04Z</time></trkpt><trkpt lat="40.797669940561676" lon="9.272846223598428"><ele>249.0</ele><time>2026-04-06T17:45:05Z</time></trkpt><trkpt lat="40.79783673493939" lon="9.273093599920246"><ele>251.0</ele><time>2026-04-06T17:45:06Z</time></trkpt><trkpt lat="40.79800365654347" lon="9.273340860841852"><ele>253.0</ele><time>2026-04-06T17:45:07Z</time></trkpt><trkpt lat="40.79817205785998" lon="9.273588368831476"><ele>253.0</ele><time>2026-04-06T17:45:08Z</time></trkpt><trkpt lat="40.79834132268096" lon="9.273839127887427"><ele>253.0</ele><time>2026-04-06T17:45:09Z</time></trkpt><trkpt lat="40.79850854121419" lon="9.274091025504328"><ele>255.0</ele><time>2026-04-06T17:45:10Z</time></trkpt><trkpt lat="40.79867680245554" lon="9.27434168818196"><ele>257.0</ele><time>2026-04-06T17:45:11Z</time></trkpt><trkpt lat="40.798846387977356" lon="9.274591710666737"><ele>257.5</ele><time>2026-04-06T17:45:12Z</time></trkpt><trkpt lat="40.79901502910729" lon="9.2748398784124"><ele>258.0</ele><time>2026-04-06T17:45:13Z</time></trkpt><trkpt lat="40.79918110235149" lon="9.275085131504063"><ele>260.5</ele><time>2026-04-06T17:45:14Z</time></trkpt><trkpt lat="40.79935300082322" lon="9.27533895509122"><ele>263.0</ele><time>2026-04-06T17:45:15Z</time></trkpt><trkpt lat="40.799521756871265" lon="9.275590337606314"><ele>263.0</ele><time>2026-04-06T17:45:16Z</time></trkpt><trkpt lat="40.79969726034848" lon="9.27584754948254"><ele>263.0</ele><time>2026-04-06T17:45:17Z</time></trkpt><trkpt lat="40.79986906288731" lon="9.276103348038234"><ele>263.0</ele><time>2026-04-06T17:45:18Z</time></trkpt><trkpt lat="40.8000422206357" lon="9.27636195378867"><ele>263.0</ele><time>2026-04-06T17:45:19Z</time></trkpt><trkpt lat="40.80021381160836" lon="9.276619298859403"><ele>262.5</ele><time>2026-04-06T17:45:20Z</time></trkpt><trkpt lat="40.800387111038376" lon="9.276877293247129"><ele>262.0</ele><time>2026-04-06T17:45:21Z</time></trkpt><trkpt lat="40.80056141173775" lon="9.277136582836132"><ele>260.5</ele><time>2026-04-06T17:45:22Z</time></trkpt><trkpt lat="40.80073898319881" lon="9.277395652877793"><ele>259.0</ele><time>2026-04-06T17:45:23Z</time></trkpt><trkpt lat="40.800913288374986" lon="9.27765573676143"><ele>259.0</ele><time>2026-04-06T17:45:24Z</time></trkpt><trkpt lat="40.80108915538588" lon="9.277916488656532"><ele>259.0</ele><time>2026-04-06T17:45:25Z</time></trkpt><trkpt lat="40.801267715001075" lon="9.278182231983594"><ele>259.0</ele><time>2026-04-06T17:45:26Z</time></trkpt><trkpt lat="40.80144334808312" lon="9.278445002485304"><ele>259.0</ele><time>2026-04-06T17:45:27Z</time></trkpt><trkpt lat="40.80161929423655" lon="9.278709182413426"><ele>258.0</ele><time>2026-04-06T17:45:28Z</time></trkpt><trkpt lat="40.80179407469456" lon="9.278965460974913"><ele>257.0</ele><time>2026-04-06T17:45:29Z</time></trkpt><trkpt lat="40.80196475161468" lon="9.279217209528383"><ele>257.0</ele><time>2026-04-06T17:45:30Z</time></trkpt><trkpt lat="40.80213540393543" lon="9.279468735203649"><ele>257.0</ele><time>2026-04-06T17:45:31Z</time></trkpt><trkpt lat="40.80230397258715" lon="9.279718755712853"><ele>255.5</ele><time>2026-04-06T17:45:32Z</time></trkpt><trkpt lat="40.80247115357013" lon="9.279968583895615"><ele>254.0</ele><time>2026-04-06T17:45:33Z</time></trkpt><trkpt lat="40.802634487944204" lon="9.280215624486353"><ele>256.5</ele><time>2026-04-06T17:45:34Z</time></trkpt><trkpt lat="40.80279725028941" lon="9.280466795132313"><ele>259.0</ele><time>2026-04-06T17:45:35Z</time></trkpt><trkpt lat="40.802961274244716" lon="9.280717339912377"><ele>260.0</ele><time>2026-04-06T17:45:36Z</time></trkpt><trkpt lat="40.80312451542951" lon="9.28097034853341"><ele>261.0</ele><time>2026-04-06T17:45:37Z</time></trkpt><trkpt lat="40.803283570133615" lon="9.281226812437128"><ele>260.5</ele><time>2026-04-06T17:45:38Z</time></trkpt><trkpt lat="40.80343730050395" lon="9.281488642576557"><ele>260.0</ele><time>2026-04-06T17:45:39Z</time></trkpt><trkpt lat="40.80358701505162" lon="9.281754026816714"><ele>261.5</ele><time>2026-04-06T17:45:40Z</time></trkpt><trkpt lat="40.803731886464476" lon="9.28202840613046"><ele>263.0</ele><time>2026-04-06T17:45:41Z</time></trkpt><trkpt lat="40.803869833848836" lon="9.282309125316653"><ele>263.0</ele><time>2026-04-06T17:45:42Z</time></trkpt><trkpt lat="40.80400354168194" lon="9.282595273486255"><ele>263.0</ele><time>2026-04-06T17:45:43Z</time></trkpt><trkpt lat="40.804132787745424" lon="9.282888959645023"><ele>262.5</ele><time>2026-04-06T17:45:44Z</time></trkpt><trkpt lat="40.80426015272566" lon="9.28318696785009"><ele>262.0</ele><time>2026-04-06T17:45:45Z</time></trkpt><trkpt lat="40.804379969161324" lon="9.283488508907324"><ele>261.0</ele><time>2026-04-06T17:45:46Z</time></trkpt><trkpt lat="40.80449375980894" lon="9.283791971899502"><ele>260.0</ele><time>2026-04-06T17:45:47Z</time></trkpt><trkpt lat="40.8045999501094" lon="9.284096937553128"><ele>259.0</ele><time>2026-04-06T17:45:48Z</time></trkpt><trkpt lat="40.80470342577597" lon="9.284400954989152"><ele>258.0</ele><time>2026-04-06T17:45:49Z</time></trkpt><trkpt lat="40.80480176665638" lon="9.284702438813952"><ele>256.5</ele><time>2026-04-06T17:45:50Z</time></trkpt><trkpt lat="40.80489621116348" lon="9.285010930049063"><ele>255.0</ele><time>2026-04-06T17:45:51Z</time></trkpt><trkpt lat="40.80498087737617" lon="9.28531931395569"><ele>254.5</ele><time>2026-04-06T17:45:52Z</time></trkpt><trkpt lat="40.805061789376126" lon="9.28563777588098"><ele>254.0</ele><time>2026-04-06T17:45:53Z</time></trkpt><trkpt lat="40.80513299198427" lon="9.285953400107061"><ele>257.0</ele><time>2026-04-06T17:45:54.001Z</time></trkpt><trkpt lat="40.80519893612169" lon="9.286273648336334"><ele>260.0</ele><time>2026-04-06T17:45:55.001Z</time></trkpt><trkpt lat="40.805258904543784" lon="9.286587988867991"><ele>260.0</ele><time>2026-04-06T17:45:56.001Z</time></trkpt><trkpt lat="40.805318171806825" lon="9.286902603610681"><ele>260.0</ele><time>2026-04-06T17:45:57.001Z</time></trkpt><trkpt lat="40.805378298161145" lon="9.287219867794803"><ele>259.5</ele><time>2026-04-06T17:45:58.001Z</time></trkpt><trkpt lat="40.805439926123185" lon="9.287541266397591"><ele>259.0</ele><time>2026-04-06T17:45:59.001Z</time></trkpt><trkpt lat="40.805501705682026" lon="9.287861776559522"><ele>259.0</ele><time>2026-04-06T17:46:00.001Z</time></trkpt><trkpt lat="40.80556271690593" lon="9.28818340098358"><ele>259.0</ele><time>2026-04-06T17:46:01.001Z</time></trkpt><trkpt lat="40.80562386352189" lon="9.28850932900202"><ele>259.0</ele><time>2026-04-06T17:46:02.001Z</time></trkpt><trkpt lat="40.805688808466385" lon="9.288828874150619"><ele>259.0</ele><time>2026-04-06T17:46:03.001Z</time></trkpt><trkpt lat="40.805754803902666" lon="9.289152219756977"><ele>257.5</ele><time>2026-04-06T17:46:04.001Z</time></trkpt><trkpt lat="40.8058292600919" lon="9.289475829164278"><ele>256.0</ele><time>2026-04-06T17:46:05.001Z</time></trkpt><trkpt lat="40.80591142593085" lon="9.28979535335761"><ele>258.0</ele><time>2026-04-06T17:46:06.001Z</time></trkpt><trkpt lat="40.80599878099423" lon="9.290120220438897"><ele>260.0</ele><time>2026-04-06T17:46:07.001Z</time></trkpt><trkpt lat="40.80609188688347" lon="9.290439453695823"><ele>258.5</ele><time>2026-04-06T17:46:08.001Z</time></trkpt><trkpt lat="40.80619272418906" lon="9.290755184136977"><ele>257.0</ele><time>2026-04-06T17:46:09Z</time></trkpt><trkpt lat="40.80630049248737" lon="9.291076003643441"><ele>257.0</ele><time>2026-04-06T17:46:10Z</time></trkpt><trkpt lat="40.80641405132338" lon="9.291384737336587"><ele>257.0</ele><time>2026-04-06T17:46:11Z</time></trkpt><trkpt lat="40.806532094655104" lon="9.291688051374072"><ele>255.0</ele><time>2026-04-06T17:46:12Z</time></trkpt><trkpt lat="40.806649760865604" lon="9.29197098891612"><ele>253.0</ele><time>2026-04-06T17:46:13Z</time></trkpt><trkpt lat="40.80676187161577" lon="9.292234083285747"><ele>251.0</ele><time>2026-04-06T17:46:14Z</time></trkpt><trkpt lat="40.8068812629179" lon="9.292496612238457"><ele>249.0</ele><time>2026-04-06T17:46:15Z</time></trkpt><trkpt lat="40.807006842802075" lon="9.292754604311083"><ele>249.0</ele><time>2026-04-06T17:46:16Z</time></trkpt><trkpt lat="40.807140709750726" lon="9.293015132256704"><ele>249.0</ele><time>2026-04-06T17:46:17Z</time></trkpt><trkpt lat="40.80727751722498" lon="9.293272272002106"><ele>249.5</ele><time>2026-04-06T17:46:18Z</time></trkpt><trkpt lat="40.80742576808793" lon="9.293531964010597"><ele>250.0</ele><time>2026-04-06T17:46:19Z</time></trkpt><trkpt lat="40.80758068505424" lon="9.2937847835353"><ele>252.0</ele><time>2026-04-06T17:46:20Z</time></trkpt><trkpt lat="40.80774145380526" lon="9.294038415621454"><ele>254.0</ele><time>2026-04-06T17:46:21Z</time></trkpt><trkpt lat="40.807911272112996" lon="9.294292953335967"><ele>254.0</ele><time>2026-04-06T17:46:22Z</time></trkpt><trkpt lat="40.80808564065619" lon="9.294541785303617"><ele>254.0</ele><time>2026-04-06T17:46:23Z</time></trkpt><trkpt lat="40.80826834916806" lon="9.294788450164528"><ele>252.5</ele><time>2026-04-06T17:46:24Z</time></trkpt><trkpt lat="40.808457496822975" lon="9.295030500921785"><ele>251.0</ele><time>2026-04-06T17:46:25Z</time></trkpt><trkpt lat="40.80865226962042" lon="9.295269672063316"><ele>252.5</ele><time>2026-04-06T17:46:26Z</time></trkpt><trkpt lat="40.80885101984538" lon="9.295500277833268"><ele>254.0</ele><time>2026-04-06T17:46:27Z</time></trkpt><trkpt lat="40.80905591471271" lon="9.295726942380442"><ele>254.0</ele><time>2026-04-06T17:46:28Z</time></trkpt><trkpt lat="40.809261944985494" lon="9.295938791887231"><ele>254.0</ele><time>2026-04-06T17:46:29Z</time></trkpt><trkpt lat="40.8094672911019" lon="9.296144305479883"><ele>257.0</ele><time>2026-04-06T17:46:30Z</time></trkpt><trkpt lat="40.809669582925494" lon="9.296343173542953"><ele>260.0</ele><time>2026-04-06T17:46:31Z</time></trkpt><trkpt lat="40.80987442932522" lon="9.296544185803997"><ele>260.0</ele><time>2026-04-06T17:46:32Z</time></trkpt><trkpt lat="40.810074816952294" lon="9.296744065898611"><ele>260.0</ele><time>2026-04-06T17:46:33Z</time></trkpt><trkpt lat="40.810275717825505" lon="9.296944758983006"><ele>261.5</ele><time>2026-04-06T17:46:34Z</time></trkpt><trkpt lat="40.81047478665036" lon="9.297143374627403"><ele>263.0</ele><time>2026-04-06T17:46:35Z</time></trkpt><trkpt lat="40.810673877119164" lon="9.297342936032356"><ele>263.0</ele><time>2026-04-06T17:46:36Z</time></trkpt><trkpt lat="40.810870856445355" lon="9.297541485289399"><ele>263.0</ele><time>2026-04-06T17:46:37Z</time></trkpt><trkpt lat="40.811070365937844" lon="9.297738055100503"><ele>263.0</ele><time>2026-04-06T17:46:38Z</time></trkpt><trkpt lat="40.81126348825277" lon="9.297934633938212"><ele>263.0</ele><time>2026-04-06T17:46:39Z</time></trkpt><trkpt lat="40.81146185873685" lon="9.298133935380157"><ele>260.0</ele><time>2026-04-06T17:46:40Z</time></trkpt><trkpt lat="40.81165346466682" lon="9.29832889692157"><ele>257.0</ele><time>2026-04-06T17:46:41Z</time></trkpt><trkpt lat="40.81184752914071" lon="9.298525503600496"><ele>257.0</ele><time>2026-04-06T17:46:42Z</time></trkpt><trkpt lat="40.8120432571784" lon="9.29872011278609"><ele>257.0</ele><time>2026-04-06T17:46:43Z</time></trkpt><trkpt lat="40.812238027772146" lon="9.298919101911734"><ele>254.5</ele><time>2026-04-06T17:46:44Z</time></trkpt><trkpt lat="40.8124319632126" lon="9.299114276467492"><ele>252.0</ele><time>2026-04-06T17:46:45Z</time></trkpt><trkpt lat="40.812625740595294" lon="9.299313199881361"><ele>251.5</ele><time>2026-04-06T17:46:46Z</time></trkpt><trkpt lat="40.81282142538501" lon="9.299515505898059"><ele>251.0</ele><time>2026-04-06T17:46:47Z</time></trkpt><trkpt lat="40.81301754579344" lon="9.299718190694982"><ele>254.0</ele><time>2026-04-06T17:46:48Z</time></trkpt><trkpt lat="40.8132135457344" lon="9.2999231702211"><ele>257.0</ele><time>2026-04-06T17:46:49Z</time></trkpt><trkpt lat="40.81341546555348" lon="9.300133283601115"><ele>257.5</ele><time>2026-04-06T17:46:50Z</time></trkpt><trkpt lat="40.81361323174121" lon="9.300333029373197"><ele>258.0</ele><time>2026-04-06T17:46:51Z</time></trkpt><trkpt lat="40.81381354365663" lon="9.300539142224936"><ele>260.0</ele><time>2026-04-06T17:46:52Z</time></trkpt><trkpt lat="40.81401146096944" lon="9.30073862648926"><ele>262.0</ele><time>2026-04-06T17:46:53Z</time></trkpt><trkpt lat="40.814210994546244" lon="9.30093795944527"><ele>264.0</ele><time>2026-04-06T17:46:54Z</time></trkpt><trkpt lat="40.814408928876084" lon="9.301137421740489"><ele>266.0</ele><time>2026-04-06T17:46:55Z</time></trkpt><trkpt lat="40.81460921623211" lon="9.301339766542442"><ele>268.5</ele><time>2026-04-06T17:46:56Z</time></trkpt><trkpt lat="40.81481159676264" lon="9.301543774838331"><ele>271.0</ele><time>2026-04-06T17:46:57Z</time></trkpt><trkpt lat="40.81501631015454" lon="9.301749887019245"><ele>269.0</ele><time>2026-04-06T17:46:58Z</time></trkpt><trkpt lat="40.81522217848775" lon="9.301961438674107"><ele>267.0</ele><time>2026-04-06T17:46:59Z</time></trkpt><trkpt lat="40.81542940967732" lon="9.302168930115654"><ele>269.5</ele><time>2026-04-06T17:47:00Z</time></trkpt><trkpt lat="40.81563764167865" lon="9.302381618543219"><ele>272.0</ele><time>2026-04-06T17:47:01Z</time></trkpt><trkpt lat="40.815841898981624" lon="9.302586869651137"><ele>273.0</ele><time>2026-04-06T17:47:02Z</time></trkpt><trkpt lat="40.81604713104691" lon="9.302797040039431"><ele>274.0</ele><time>2026-04-06T17:47:03Z</time></trkpt><trkpt lat="40.81624985937731" lon="9.303004449194583"><ele>275.0</ele><time>2026-04-06T17:47:04Z</time></trkpt><trkpt lat="40.816452764893604" lon="9.303208888947633"><ele>276.0</ele><time>2026-04-06T17:47:05Z</time></trkpt><trkpt lat="40.81665686067058" lon="9.303414811907567"><ele>278.5</ele><time>2026-04-06T17:47:06Z</time></trkpt><trkpt lat="40.8168559854073" lon="9.303617224317533"><ele>281.0</ele><time>2026-04-06T17:47:07Z</time></trkpt><trkpt lat="40.817056181638776" lon="9.303821790946328"><ele>281.0</ele><time>2026-04-06T17:47:08Z</time></trkpt><trkpt lat="40.81725815865772" lon="9.304025708184403"><ele>281.0</ele><time>2026-04-06T17:47:09Z</time></trkpt><trkpt lat="40.81745633662611" lon="9.304227511820267"><ele>280.0</ele><time>2026-04-06T17:47:10Z</time></trkpt><trkpt lat="40.817653607117016" lon="9.304428975972888"><ele>279.0</ele><time>2026-04-06T17:47:11Z</time></trkpt><trkpt lat="40.817850216420034" lon="9.304628144876679"><ele>281.0</ele><time>2026-04-06T17:47:12Z</time></trkpt><trkpt lat="40.81804760412838" lon="9.304829163864646"><ele>283.0</ele><time>2026-04-06T17:47:13Z</time></trkpt><trkpt lat="40.818239937115635" lon="9.305023670404395"><ele>283.0</ele><time>2026-04-06T17:47:14Z</time></trkpt><trkpt lat="40.818436139117324" lon="9.305225248420973"><ele>283.0</ele><time>2026-04-06T17:47:15Z</time></trkpt><trkpt lat="40.818628057272875" lon="9.305424651581832"><ele>280.0</ele><time>2026-04-06T17:47:16Z</time></trkpt><trkpt lat="40.818823714600036" lon="9.305626701994983"><ele>277.0</ele><time>2026-04-06T17:47:17Z</time></trkpt><trkpt lat="40.81901419442612" lon="9.305823001075725"><ele>277.0</ele><time>2026-04-06T17:47:18Z</time></trkpt><trkpt lat="40.819207815082216" lon="9.306022112886717"><ele>277.0</ele><time>2026-04-06T17:47:19Z</time></trkpt><trkpt lat="40.81940060333571" lon="9.306217329449636"><ele>279.0</ele><time>2026-04-06T17:47:20Z</time></trkpt><trkpt lat="40.819598736086384" lon="9.3064175987539"><ele>281.0</ele><time>2026-04-06T17:47:21Z</time></trkpt><trkpt lat="40.81979327721502" lon="9.306617150091803"><ele>281.0</ele><time>2026-04-06T17:47:22Z</time></trkpt><trkpt lat="40.81998894595361" lon="9.306818569542122"><ele>281.0</ele><time>2026-04-06T17:47:23Z</time></trkpt><trkpt lat="40.820187434088986" lon="9.307020367423098"><ele>281.5</ele><time>2026-04-06T17:47:24Z</time></trkpt><trkpt lat="40.82038525892303" lon="9.307220313236613"><ele>282.0</ele><time>2026-04-06T17:47:25Z</time></trkpt><trkpt lat="40.8205841703304" lon="9.307422549629894"><ele>282.5</ele><time>2026-04-06T17:47:26Z</time></trkpt><trkpt lat="40.82078352944458" lon="9.30762731135438"><ele>283.0</ele><time>2026-04-06T17:47:27Z</time></trkpt><trkpt lat="40.82098036448414" lon="9.307833617571788"><ele>282.0</ele><time>2026-04-06T17:47:28Z</time></trkpt><trkpt lat="40.8211739939031" lon="9.308046181369964"><ele>281.0</ele><time>2026-04-06T17:47:29Z</time></trkpt><trkpt lat="40.821365304814" lon="9.30826430677272"><ele>281.0</ele><time>2026-04-06T17:47:30Z</time></trkpt><trkpt lat="40.821549548325926" lon="9.308491329577627"><ele>281.0</ele><time>2026-04-06T17:47:31Z</time></trkpt><trkpt lat="40.82172693938729" lon="9.308729064720444"><ele>282.0</ele><time>2026-04-06T17:47:32Z</time></trkpt><trkpt lat="40.82189819257122" lon="9.308976530714325"><ele>283.0</ele><time>2026-04-06T17:47:33Z</time></trkpt><trkpt lat="40.82206414516342" lon="9.309230403412618"><ele>283.0</ele><time>2026-04-06T17:47:34Z</time></trkpt><trkpt lat="40.82222420800436" lon="9.30949024812214"><ele>283.0</ele><time>2026-04-06T17:47:35Z</time></trkpt><trkpt lat="40.82237793900178" lon="9.30975363059841"><ele>281.0</ele><time>2026-04-06T17:47:36Z</time></trkpt><trkpt lat="40.82252661518066" lon="9.310027451553063"><ele>279.0</ele><time>2026-04-06T17:47:37Z</time></trkpt><trkpt lat="40.822668927359395" lon="9.310304954765874"><ele>281.5</ele><time>2026-04-06T17:47:38Z</time></trkpt><trkpt lat="40.822805494075105" lon="9.31059179683375"><ele>284.0</ele><time>2026-04-06T17:47:39Z</time></trkpt><trkpt lat="40.822934231705425" lon="9.310884615287424"><ele>284.0</ele><time>2026-04-06T17:47:40Z</time></trkpt><trkpt lat="40.823051715458064" lon="9.311179159093971"><ele>284.0</ele><time>2026-04-06T17:47:41Z</time></trkpt><trkpt lat="40.823164171211" lon="9.311488553003691"><ele>286.0</ele><time>2026-04-06T17:47:42Z</time></trkpt><trkpt lat="40.823268869445265" lon="9.311793771377799"><ele>288.0</ele><time>2026-04-06T17:47:43Z</time></trkpt><trkpt lat="40.823368170400926" lon="9.31210798196181"><ele>288.5</ele><time>2026-04-06T17:47:44Z</time></trkpt><trkpt lat="40.82346288544961" lon="9.312426614710494"><ele>289.0</ele><time>2026-04-06T17:47:45Z</time></trkpt><trkpt lat="40.82355105004422" lon="9.312744901047429"><ele>283.5</ele><time>2026-04-06T17:47:46Z</time></trkpt><trkpt lat="40.82363327326718" lon="9.31307200432144"><ele>278.0</ele><time>2026-04-06T17:47:47Z</time></trkpt><trkpt lat="40.82371039884819" lon="9.313400381349608"><ele>278.0</ele><time>2026-04-06T17:47:48Z</time></trkpt><trkpt lat="40.823785049698536" lon="9.31372869984653"><ele>278.0</ele><time>2026-04-06T17:47:49Z</time></trkpt><trkpt lat="40.823858257326286" lon="9.314056880833265"><ele>278.5</ele><time>2026-04-06T17:47:50Z</time></trkpt><trkpt lat="40.82392999839367" lon="9.314376699967216"><ele>279.0</ele><time>2026-04-06T17:47:51Z</time></trkpt><trkpt lat="40.82400462786791" lon="9.314698391534964"><ele>282.0</ele><time>2026-04-06T17:47:52Z</time></trkpt><trkpt lat="40.82407872601078" lon="9.315017841823963"><ele>285.0</ele><time>2026-04-06T17:47:53Z</time></trkpt><trkpt lat="40.82415271115373" lon="9.315339372087127"><ele>286.0</ele><time>2026-04-06T17:47:54Z</time></trkpt><trkpt lat="40.8242245111006" lon="9.315656425548712"><ele>287.0</ele><time>2026-04-06T17:47:55Z</time></trkpt><trkpt lat="40.824296286274105" lon="9.315976803863954"><ele>283.5</ele><time>2026-04-06T17:47:56Z</time></trkpt><trkpt lat="40.82436785644406" lon="9.31629870043221"><ele>280.0</ele><time>2026-04-06T17:47:57Z</time></trkpt><trkpt lat="40.82444237713937" lon="9.316621677496109"><ele>280.0</ele><time>2026-04-06T17:47:58Z</time></trkpt><trkpt lat="40.824515591089266" lon="9.316942612070388"><ele>280.0</ele><time>2026-04-06T17:47:59Z</time></trkpt><trkpt lat="40.82458993237292" lon="9.317269549554545"><ele>281.0</ele><time>2026-04-06T17:48:00Z</time></trkpt><trkpt lat="40.82466211154779" lon="9.317592641978008"><ele>282.0</ele><time>2026-04-06T17:48:01Z</time></trkpt><trkpt lat="40.824735340692975" lon="9.317916562107676"><ele>284.0</ele><time>2026-04-06T17:48:02Z</time></trkpt><trkpt lat="40.82480872854406" lon="9.318240076431756"><ele>286.0</ele><time>2026-04-06T17:48:03Z</time></trkpt><trkpt lat="40.82488313995969" lon="9.318566295688031"><ele>286.0</ele><time>2026-04-06T17:48:04Z</time></trkpt><trkpt lat="40.82495957252695" lon="9.318896793762951"><ele>286.0</ele><time>2026-04-06T17:48:05Z</time></trkpt><trkpt lat="40.82503333020328" lon="9.319222226718173"><ele>285.5</ele><time>2026-04-06T17:48:06Z</time></trkpt><trkpt lat="40.825108416217525" lon="9.319549347143305"><ele>285.0</ele><time>2026-04-06T17:48:07Z</time></trkpt><trkpt lat="40.825179879701125" lon="9.319867275045468"><ele>284.5</ele><time>2026-04-06T17:48:08Z</time></trkpt><trkpt lat="40.825250829182636" lon="9.320172535445723"><ele>284.0</ele><time>2026-04-06T17:48:09Z</time></trkpt><trkpt lat="40.82532287690453" lon="9.320480553725481"><ele>284.0</ele><time>2026-04-06T17:48:10Z</time></trkpt><trkpt lat="40.825391829271034" lon="9.3207857222515"><ele>284.0</ele><time>2026-04-06T17:48:11Z</time></trkpt><trkpt lat="40.82546124407728" lon="9.321092741368652"><ele>285.5</ele><time>2026-04-06T17:48:12Z</time></trkpt><trkpt lat="40.82553108931871" lon="9.321399817456378"><ele>287.0</ele><time>2026-04-06T17:48:13Z</time></trkpt><trkpt lat="40.82560165596681" lon="9.321712599191097"><ele>287.0</ele><time>2026-04-06T17:48:14Z</time></trkpt><trkpt lat="40.825674887957334" lon="9.322019104169735"><ele>287.0</ele><time>2026-04-06T17:48:15Z</time></trkpt><trkpt lat="40.82574679028963" lon="9.322324223910439"><ele>289.0</ele><time>2026-04-06T17:48:16Z</time></trkpt><trkpt lat="40.825818000374916" lon="9.322633966822313"><ele>291.0</ele><time>2026-04-06T17:48:17Z</time></trkpt><trkpt lat="40.825888432051826" lon="9.322940750397002"><ele>293.0</ele><time>2026-04-06T17:48:18Z</time></trkpt><trkpt lat="40.82595952753974" lon="9.323252716903909"><ele>295.0</ele><time>2026-04-06T17:48:19Z</time></trkpt><trkpt lat="40.82603048189161" lon="9.323565983415149"><ele>295.0</ele><time>2026-04-06T17:48:20Z</time></trkpt><trkpt lat="40.82610159843812" lon="9.323883680174735"><ele>295.0</ele><time>2026-04-06T17:48:21Z</time></trkpt><trkpt lat="40.82617268254619" lon="9.324198353745858"><ele>295.5</ele><time>2026-04-06T17:48:22Z</time></trkpt><trkpt lat="40.826244350197584" lon="9.324513554493096"><ele>296.0</ele><time>2026-04-06T17:48:23Z</time></trkpt><trkpt lat="40.82631686242598" lon="9.324836369337305"><ele>296.0</ele><time>2026-04-06T17:48:24Z</time></trkpt><trkpt lat="40.82638931530828" lon="9.32515369606403"><ele>296.0</ele><time>2026-04-06T17:48:25Z</time></trkpt><trkpt lat="40.82646611161905" lon="9.325476588741285"><ele>297.5</ele><time>2026-04-06T17:48:26Z</time></trkpt><trkpt lat="40.826547739026715" lon="9.325793308450534"><ele>299.0</ele><time>2026-04-06T17:48:27Z</time></trkpt><trkpt lat="40.82663523277857" lon="9.326113816567123"><ele>299.5</ele><time>2026-04-06T17:48:28Z</time></trkpt><trkpt lat="40.82672928326846" lon="9.326434378838194"><ele>300.0</ele><time>2026-04-06T17:48:29Z</time></trkpt><trkpt lat="40.826825243054934" lon="9.326750581349199"><ele>300.5</ele><time>2026-04-06T17:48:30Z</time></trkpt><trkpt lat="40.826927898402836" lon="9.327059813640146"><ele>301.0</ele><time>2026-04-06T17:48:31Z</time></trkpt><trkpt lat="40.827034200319474" lon="9.327367272047299"><ele>301.0</ele><time>2026-04-06T17:48:32Z</time></trkpt><trkpt lat="40.82715233464894" lon="9.327665279368714"><ele>301.0</ele><time>2026-04-06T17:48:33Z</time></trkpt><trkpt lat="40.82727823703593" lon="9.327960194849537"><ele>300.0</ele><time>2026-04-06T17:48:34Z</time></trkpt><trkpt lat="40.82741162027225" lon="9.328253626211001"><ele>299.0</ele><time>2026-04-06T17:48:35Z</time></trkpt><trkpt lat="40.827547950603254" lon="9.328537127290472"><ele>299.0</ele><time>2026-04-06T17:48:36Z</time></trkpt><trkpt lat="40.827690510745306" lon="9.328818325721839"><ele>299.0</ele><time>2026-04-06T17:48:37Z</time></trkpt><trkpt lat="40.82783645471796" lon="9.329095678079137"><ele>298.0</ele><time>2026-04-06T17:48:38Z</time></trkpt><trkpt lat="40.82798585655839" lon="9.329370873497004"><ele>297.0</ele><time>2026-04-06T17:48:39Z</time></trkpt><trkpt lat="40.82813376173201" lon="9.329641041359487"><ele>295.0</ele><time>2026-04-06T17:48:40Z</time></trkpt><trkpt lat="40.82828516214423" lon="9.329908769864401"><ele>293.0</ele><time>2026-04-06T17:48:41Z</time></trkpt><trkpt lat="40.828440499565396" lon="9.330177346586801"><ele>290.5</ele><time>2026-04-06T17:48:42Z</time></trkpt><trkpt lat="40.82859616664636" lon="9.33044914738085"><ele>288.0</ele><time>2026-04-06T17:48:43Z</time></trkpt><trkpt lat="40.828747929933314" lon="9.330718918599958"><ele>286.5</ele><time>2026-04-06T17:48:44Z</time></trkpt><trkpt lat="40.82889592477899" lon="9.330985434423457"><ele>285.0</ele><time>2026-04-06T17:48:45Z</time></trkpt><trkpt lat="40.82903848167254" lon="9.331246636543488"><ele>284.0</ele><time>2026-04-06T17:48:46Z</time></trkpt><trkpt lat="40.82918348797064" lon="9.331515716642448"><ele>283.0</ele><time>2026-04-06T17:48:47Z</time></trkpt><trkpt lat="40.829325938802434" lon="9.33178549004856"><ele>281.0</ele><time>2026-04-06T17:48:48Z</time></trkpt><trkpt lat="40.82946743046618" lon="9.332059614652165"><ele>279.0</ele><time>2026-04-06T17:48:49Z</time></trkpt><trkpt lat="40.829606465164886" lon="9.33233516459437"><ele>278.0</ele><time>2026-04-06T17:48:50Z</time></trkpt><trkpt lat="40.82974300882095" lon="9.332613232708002"><ele>277.0</ele><time>2026-04-06T17:48:51Z</time></trkpt><trkpt lat="40.82987405222229" lon="9.332890302572181"><ele>274.5</ele><time>2026-04-06T17:48:52Z</time></trkpt><trkpt lat="40.83000178048671" lon="9.333168490155346"><ele>272.0</ele><time>2026-04-06T17:48:53Z</time></trkpt><trkpt lat="40.83012946520838" lon="9.333463102131153"><ele>271.5</ele><time>2026-04-06T17:48:54Z</time></trkpt><trkpt lat="40.83025132191331" lon="9.333751578773853"><ele>271.0</ele><time>2026-04-06T17:48:55Z</time></trkpt><trkpt lat="40.83037286760627" lon="9.334050464136572"><ele>270.0</ele><time>2026-04-06T17:48:56Z</time></trkpt><trkpt lat="40.830492080436805" lon="9.33435462376061"><ele>269.0</ele><time>2026-04-06T17:48:57Z</time></trkpt><trkpt lat="40.830606051033726" lon="9.33465222596095"><ele>266.0</ele><time>2026-04-06T17:48:58Z</time></trkpt><trkpt lat="40.83071862066292" lon="9.334959177264183"><ele>263.0</ele><time>2026-04-06T17:48:59Z</time></trkpt><trkpt lat="40.830829087380884" lon="9.335268015907566"><ele>260.5</ele><time>2026-04-06T17:49:00Z</time></trkpt><trkpt lat="40.83093623313808" lon="9.335580699583813"><ele>258.0</ele><time>2026-04-06T17:49:01Z</time></trkpt><trkpt lat="40.83103801572029" lon="9.335886591203638"><ele>257.5</ele><time>2026-04-06T17:49:02Z</time></trkpt><trkpt lat="40.831133711370384" lon="9.336188650663967"><ele>257.0</ele><time>2026-04-06T17:49:03Z</time></trkpt><trkpt lat="40.83122682977531" lon="9.336497551451638"><ele>255.0</ele><time>2026-04-06T17:49:04Z</time></trkpt><trkpt lat="40.83131888935999" lon="9.336826689894174"><ele>253.0</ele><time>2026-04-06T17:49:05Z</time></trkpt><trkpt lat="40.831408483099246" lon="9.337151866587263"><ele>251.5</ele><time>2026-04-06T17:49:06Z</time></trkpt><trkpt lat="40.83149060038792" lon="9.337463564399686"><ele>250.0</ele><time>2026-04-06T17:49:07Z</time></trkpt><trkpt lat="40.831565314230296" lon="9.337761428940324"><ele>248.5</ele><time>2026-04-06T17:49:08Z</time></trkpt><trkpt lat="40.831636771286085" lon="9.338065230423679"><ele>247.0</ele><time>2026-04-06T17:49:09Z</time></trkpt><trkpt lat="40.831705997365916" lon="9.338380297200036"><ele>247.0</ele><time>2026-04-06T17:49:10Z</time></trkpt><trkpt lat="40.83177383658432" lon="9.338699465387995"><ele>247.0</ele><time>2026-04-06T17:49:11Z</time></trkpt><trkpt lat="40.83183852327012" lon="9.339026352826647"><ele>247.5</ele><time>2026-04-06T17:49:12Z</time></trkpt><trkpt lat="40.83190228207886" lon="9.339351964434579"><ele>248.0</ele><time>2026-04-06T17:49:13Z</time></trkpt><trkpt lat="40.831963129498966" lon="9.339687065124027"><ele>248.0</ele><time>2026-04-06T17:49:14Z</time></trkpt><trkpt lat="40.83202066015764" lon="9.340021224083413"><ele>248.0</ele><time>2026-04-06T17:49:15Z</time></trkpt><trkpt lat="40.83207065672334" lon="9.340347510565394"><ele>249.0</ele><time>2026-04-06T17:49:16Z</time></trkpt><trkpt lat="40.83212002495418" lon="9.340687469050234"><ele>250.0</ele><time>2026-04-06T17:49:17Z</time></trkpt><trkpt lat="40.832165086647386" lon="9.341028604428713"><ele>250.0</ele><time>2026-04-06T17:49:18Z</time></trkpt><trkpt lat="40.83220470535131" lon="9.34136947111788"><ele>250.0</ele><time>2026-04-06T17:49:19Z</time></trkpt><trkpt lat="40.8322413990104" lon="9.341715575443146"><ele>250.0</ele><time>2026-04-06T17:49:20Z</time></trkpt><trkpt lat="40.83227184665275" lon="9.342041860553973"><ele>250.0</ele><time>2026-04-06T17:49:21Z</time></trkpt><trkpt lat="40.83229656167545" lon="9.34236147279627"><ele>248.5</ele><time>2026-04-06T17:49:22Z</time></trkpt><trkpt lat="40.83232005582247" lon="9.342692398043345"><ele>247.0</ele><time>2026-04-06T17:49:23Z</time></trkpt><trkpt lat="40.83234149724542" lon="9.34302805571435"><ele>243.5</ele><time>2026-04-06T17:49:24Z</time></trkpt><trkpt lat="40.83235906273404" lon="9.343365190123915"><ele>240.0</ele><time>2026-04-06T17:49:25Z</time></trkpt><trkpt lat="40.832373582136995" lon="9.3437032531384"><ele>238.5</ele><time>2026-04-06T17:49:26Z</time></trkpt><trkpt lat="40.83238264530458" lon="9.344045368081678"><ele>237.0</ele><time>2026-04-06T17:49:27Z</time></trkpt><trkpt lat="40.83238864302937" lon="9.344389235460175"><ele>235.0</ele><time>2026-04-06T17:49:28Z</time></trkpt><trkpt lat="40.83239073955995" lon="9.344722941234261"><ele>233.0</ele><time>2026-04-06T17:49:29Z</time></trkpt><trkpt lat="40.832389285667524" lon="9.345054037475569"><ele>233.0</ele><time>2026-04-06T17:49:30Z</time></trkpt><trkpt lat="40.83238172653112" lon="9.34538973990899"><ele>233.0</ele><time>2026-04-06T17:49:31Z</time></trkpt><trkpt lat="40.83237287699121" lon="9.345729630238697"><ele>231.5</ele><time>2026-04-06T17:49:32Z</time></trkpt><trkpt lat="40.83236057288694" lon="9.346068835125491"><ele>230.0</ele><time>2026-04-06T17:49:33Z</time></trkpt><trkpt lat="40.83234472153369" lon="9.346397319846071"><ele>230.0</ele><time>2026-04-06T17:49:34Z</time></trkpt><trkpt lat="40.83232727727214" lon="9.346721870785743"><ele>230.0</ele><time>2026-04-06T17:49:35Z</time></trkpt><trkpt lat="40.832308572291524" lon="9.3470492583217"><ele>231.0</ele><time>2026-04-06T17:49:36Z</time></trkpt><trkpt lat="40.83228929991489" lon="9.34737539631893"><ele>232.0</ele><time>2026-04-06T17:49:37Z</time></trkpt><trkpt lat="40.832268631580774" lon="9.3476966208221"><ele>232.0</ele><time>2026-04-06T17:49:38Z</time></trkpt><trkpt lat="40.832248181647756" lon="9.348025333839507"><ele>232.0</ele><time>2026-04-06T17:49:39Z</time></trkpt><trkpt lat="40.832228735426746" lon="9.348351664303074"><ele>231.0</ele><time>2026-04-06T17:49:40Z</time></trkpt><trkpt lat="40.832209090687996" lon="9.348687119945666"><ele>230.0</ele><time>2026-04-06T17:49:41Z</time></trkpt><trkpt lat="40.832189647038604" lon="9.349017630005367"><ele>229.5</ele><time>2026-04-06T17:49:42Z</time></trkpt><trkpt lat="40.83217002660496" lon="9.349354898038422"><ele>229.0</ele><time>2026-04-06T17:49:43Z</time></trkpt><trkpt lat="40.83214837890997" lon="9.349689659295057"><ele>226.0</ele><time>2026-04-06T17:49:44Z</time></trkpt><trkpt lat="40.83212636053611" lon="9.350026671422569"><ele>223.0</ele><time>2026-04-06T17:49:45Z</time></trkpt><trkpt lat="40.83210360132692" lon="9.350362789011038"><ele>221.5</ele><time>2026-04-06T17:49:46Z</time></trkpt><trkpt lat="40.832084045892955" lon="9.350693239457357"><ele>220.0</ele><time>2026-04-06T17:49:47Z</time></trkpt><trkpt lat="40.83206538889931" lon="9.351012062034833"><ele>220.0</ele><time>2026-04-06T17:49:48Z</time></trkpt><trkpt lat="40.83204712948126" lon="9.35132914977008"><ele>220.0</ele><time>2026-04-06T17:49:48.999Z</time></trkpt><trkpt lat="40.83202731000247" lon="9.351652474215406"><ele>218.0</ele><time>2026-04-06T17:49:49.999Z</time></trkpt><trkpt lat="40.83200649968185" lon="9.35198386933795"><ele>216.0</ele><time>2026-04-06T17:49:50.999Z</time></trkpt><trkpt lat="40.831984719535974" lon="9.352312475905615"><ele>214.0</ele><time>2026-04-06T17:49:51.999Z</time></trkpt><trkpt lat="40.831966594092236" lon="9.352640760430353"><ele>212.0</ele><time>2026-04-06T17:49:52.999Z</time></trkpt><trkpt lat="40.831954449891455" lon="9.352958378631525"><ele>209.0</ele><time>2026-04-06T17:49:53.999Z</time></trkpt><trkpt lat="40.83194874508761" lon="9.353281912386063"><ele>206.0</ele><time>2026-04-06T17:49:54.999Z</time></trkpt><trkpt lat="40.831949010425696" lon="9.353612677577267"><ele>199.5</ele><time>2026-04-06T17:49:55.999Z</time></trkpt><trkpt lat="40.8319556978872" lon="9.353941140299671"><ele>193.0</ele><time>2026-04-06T17:49:56.999Z</time></trkpt><trkpt lat="40.83196774105942" lon="9.354273026562034"><ele>193.0</ele><time>2026-04-06T17:49:57.999Z</time></trkpt><trkpt lat="40.83198947210149" lon="9.354605431832692"><ele>193.0</ele><time>2026-04-06T17:49:58.999Z</time></trkpt><trkpt lat="40.83201814447202" lon="9.35493709944444"><ele>186.5</ele><time>2026-04-06T17:49:59.999Z</time></trkpt><trkpt lat="40.832053899360275" lon="9.355272558184517"><ele>180.0</ele><time>2026-04-06T17:50:00.999Z</time></trkpt><trkpt lat="40.83209653814131" lon="9.355611009642068"><ele>175.5</ele><time>2026-04-06T17:50:01.999Z</time></trkpt><trkpt lat="40.83214741074898" lon="9.35594127825952"><ele>171.0</ele><time>2026-04-06T17:50:02.999Z</time></trkpt><trkpt lat="40.8322027413601" lon="9.356263081328485"><ele>173.5</ele><time>2026-04-06T17:50:03.999Z</time></trkpt><trkpt lat="40.832265277971686" lon="9.356590661147697"><ele>176.0</ele><time>2026-04-06T17:50:04.999Z</time></trkpt><trkpt lat="40.83234164304419" lon="9.35693387620399"><ele>181.5</ele><time>2026-04-06T17:50:06Z</time></trkpt><trkpt lat="40.8324316760013" lon="9.357292781074422"><ele>187.0</ele><time>2026-04-06T17:50:07Z</time></trkpt><trkpt lat="40.83254004534498" lon="9.357657856075456"><ele>180.0</ele><time>2026-04-06T17:50:08Z</time></trkpt><trkpt lat="40.83266222565005" lon="9.358038571504968"><ele>173.0</ele><time>2026-04-06T17:50:09Z</time></trkpt><trkpt lat="40.83278361309473" lon="9.358436698566884"><ele>173.0</ele><time>2026-04-06T17:50:10Z</time></trkpt><trkpt lat="40.83289370756843" lon="9.358850839661601"><ele>173.0</ele><time>2026-04-06T17:50:11Z</time></trkpt><trkpt lat="40.83298869121966" lon="9.359252592272394"><ele>173.5</ele><time>2026-04-06T17:50:12Z</time></trkpt><trkpt lat="40.833067826239485" lon="9.359637896404594"><ele>174.0</ele><time>2026-04-06T17:50:13Z</time></trkpt><trkpt lat="40.8331364680424" lon="9.360018949670065"><ele>176.0</ele><time>2026-04-06T17:50:14Z</time></trkpt><trkpt lat="40.83319861959596" lon="9.360387197984156"><ele>178.0</ele><time>2026-04-06T17:50:15Z</time></trkpt><trkpt lat="40.83325437321992" lon="9.360744132140727"><ele>178.0</ele><time>2026-04-06T17:50:16Z</time></trkpt><trkpt lat="40.83329887724733" lon="9.361093867817145"><ele>178.0</ele><time>2026-04-06T17:50:17Z</time></trkpt><trkpt lat="40.83332842537959" lon="9.361442508520893"><ele>176.0</ele><time>2026-04-06T17:50:18Z</time></trkpt><trkpt lat="40.83334703743554" lon="9.36180175529702"><ele>174.0</ele><time>2026-04-06T17:50:19Z</time></trkpt><trkpt lat="40.83335758107025" lon="9.362163324411213"><ele>172.0</ele><time>2026-04-06T17:50:20Z</time></trkpt><trkpt lat="40.833359993845484" lon="9.362524406110163"><ele>170.0</ele><time>2026-04-06T17:50:21Z</time></trkpt><trkpt lat="40.83335686911358" lon="9.362885923015732"><ele>168.0</ele><time>2026-04-06T17:50:22Z</time></trkpt><trkpt lat="40.83334737089255" lon="9.363229107480095"><ele>166.0</ele><time>2026-04-06T17:50:23Z</time></trkpt><trkpt lat="40.83333277507739" lon="9.363565969933436"><ele>164.0</ele><time>2026-04-06T17:50:24Z</time></trkpt><trkpt lat="40.83331992539273" lon="9.363907344777054"><ele>162.0</ele><time>2026-04-06T17:50:25Z</time></trkpt><trkpt lat="40.83330810082284" lon="9.36425485632804"><ele>162.0</ele><time>2026-04-06T17:50:26Z</time></trkpt><trkpt lat="40.83329774077287" lon="9.364595710589239"><ele>162.0</ele><time>2026-04-06T17:50:27Z</time></trkpt><trkpt lat="40.83329496933022" lon="9.364937105532988"><ele>160.5</ele><time>2026-04-06T17:50:28Z</time></trkpt><trkpt lat="40.83329756355884" lon="9.365276936475635"><ele>159.0</ele><time>2026-04-06T17:50:29Z</time></trkpt><trkpt lat="40.833311052152524" lon="9.365620623768216"><ele>158.5</ele><time>2026-04-06T17:50:30Z</time></trkpt><trkpt lat="40.833330358432946" lon="9.3659728172339"><ele>158.0</ele><time>2026-04-06T17:50:31Z</time></trkpt><trkpt lat="40.83335623348912" lon="9.366322864549826"><ele>156.0</ele><time>2026-04-06T17:50:32Z</time></trkpt><trkpt lat="40.83339014866092" lon="9.366674172323734"><ele>154.0</ele><time>2026-04-06T17:50:33Z</time></trkpt><trkpt lat="40.83342950757754" lon="9.36700838669744"><ele>150.0</ele><time>2026-04-06T17:50:34Z</time></trkpt><trkpt lat="40.833479549289244" lon="9.36734224122458"><ele>146.0</ele><time>2026-04-06T17:50:35Z</time></trkpt><trkpt lat="40.833535220725864" lon="9.367669726623868"><ele>146.0</ele><time>2026-04-06T17:50:36Z</time></trkpt><trkpt lat="40.83360188031031" lon="9.368003302123691"><ele>146.0</ele><time>2026-04-06T17:50:37Z</time></trkpt><trkpt lat="40.83367575944185" lon="9.368335061907835"><ele>146.5</ele><time>2026-04-06T17:50:38Z</time></trkpt><trkpt lat="40.83375896368115" lon="9.368660939499602"><ele>147.0</ele><time>2026-04-06T17:50:39Z</time></trkpt><trkpt lat="40.83385340785626" lon="9.368990764533491"><ele>146.0</ele><time>2026-04-06T17:50:40Z</time></trkpt><trkpt lat="40.83395593343609" lon="9.369320617925817"><ele>145.0</ele><time>2026-04-06T17:50:41Z</time></trkpt><trkpt lat="40.83406505381866" lon="9.369644179661991"><ele>143.5</ele><time>2026-04-06T17:50:42Z</time></trkpt><trkpt lat="40.83418156816817" lon="9.369961132336222"><ele>142.0</ele><time>2026-04-06T17:50:43Z</time></trkpt><trkpt lat="40.83430363249003" lon="9.370275371248747"><ele>141.0</ele><time>2026-04-06T17:50:44Z</time></trkpt><trkpt lat="40.83443495419402" lon="9.370585744965654"><ele>140.0</ele><time>2026-04-06T17:50:45Z</time></trkpt><trkpt lat="40.83456985406104" lon="9.370892776790924"><ele>140.0</ele><time>2026-04-06T17:50:46Z</time></trkpt><trkpt lat="40.83471136223356" lon="9.37119351584613"><ele>140.0</ele><time>2026-04-06T17:50:47Z</time></trkpt><trkpt lat="40.8348631660689" lon="9.371488480040657"><ele>140.0</ele><time>2026-04-06T17:50:48Z</time></trkpt><trkpt lat="40.83502122617677" lon="9.371778281754947"><ele>140.0</ele><time>2026-04-06T17:50:49Z</time></trkpt><trkpt lat="40.83517989503783" lon="9.37206637317775"><ele>139.5</ele><time>2026-04-06T17:50:50Z</time></trkpt><trkpt lat="40.835335149498825" lon="9.372354474385485"><ele>139.0</ele><time>2026-04-06T17:50:51Z</time></trkpt><trkpt lat="40.835487242923556" lon="9.372646579394353"><ele>139.0</ele><time>2026-04-06T17:50:52Z</time></trkpt><trkpt lat="40.83563623384123" lon="9.37294433403437"><ele>139.0</ele><time>2026-04-06T17:50:53Z</time></trkpt><trkpt lat="40.835779522084636" lon="9.373253112831023"><ele>136.0</ele><time>2026-04-06T17:50:54Z</time></trkpt><trkpt lat="40.83591614494622" lon="9.373567069858721"><ele>133.0</ele><time>2026-04-06T17:50:55Z</time></trkpt><trkpt lat="40.83604592264955" lon="9.37388930782963"><ele>129.0</ele><time>2026-04-06T17:50:56Z</time></trkpt><trkpt lat="40.83616734276648" lon="9.374211631086592"><ele>125.0</ele><time>2026-04-06T17:50:57Z</time></trkpt><trkpt lat="40.83628233984556" lon="9.374541566347757"><ele>123.5</ele><time>2026-04-06T17:50:58Z</time></trkpt><trkpt lat="40.83638984827771" lon="9.374874275055143"><ele>122.0</ele><time>2026-04-06T17:50:59Z</time></trkpt><trkpt lat="40.83649259876713" lon="9.375208025613249"><ele>122.0</ele><time>2026-04-06T17:51:00Z</time></trkpt><trkpt lat="40.836587281004604" lon="9.375548522563653"><ele>122.0</ele><time>2026-04-06T17:51:01Z</time></trkpt><trkpt lat="40.83667314560608" lon="9.375889511949136"><ele>122.0</ele><time>2026-04-06T17:51:02Z</time></trkpt><trkpt lat="40.83674947031984" lon="9.37624176868875"><ele>122.0</ele><time>2026-04-06T17:51:03Z</time></trkpt><trkpt lat="40.83681818453282" lon="9.376596883788174"><ele>119.5</ele><time>2026-04-06T17:51:04Z</time></trkpt><trkpt lat="40.83688038901102" lon="9.376957521296456"><ele>117.0</ele><time>2026-04-06T17:51:05Z</time></trkpt><trkpt lat="40.836934839943844" lon="9.377323149063397"><ele>116.0</ele><time>2026-04-06T17:51:06Z</time></trkpt><trkpt lat="40.83697910613519" lon="9.37767501479129"><ele>115.0</ele><time>2026-04-06T17:51:07Z</time></trkpt><trkpt lat="40.83701381395432" lon="9.378022851187053"><ele>114.5</ele><time>2026-04-06T17:51:08Z</time></trkpt><trkpt lat="40.83704153516453" lon="9.378375330352418"><ele>114.0</ele><time>2026-04-06T17:51:09Z</time></trkpt><trkpt lat="40.837072620573814" lon="9.378734255148768"><ele>113.0</ele><time>2026-04-06T17:51:10Z</time></trkpt><trkpt lat="40.83710529937493" lon="9.379092944837835"><ele>112.0</ele><time>2026-04-06T17:51:11Z</time></trkpt><trkpt lat="40.83713996160814" lon="9.37945097678015"><ele>112.5</ele><time>2026-04-06T17:51:12Z</time></trkpt><trkpt lat="40.837174373969" lon="9.37980193367947"><ele>113.0</ele><time>2026-04-06T17:51:13Z</time></trkpt><trkpt lat="40.8372052302349" lon="9.380137002744505"><ele>113.0</ele><time>2026-04-06T17:51:14Z</time></trkpt><trkpt lat="40.83723392852503" lon="9.380462193551814"><ele>113.0</ele><time>2026-04-06T17:51:15Z</time></trkpt><trkpt lat="40.837263794746676" lon="9.38079298792518"><ele>113.0</ele><time>2026-04-06T17:51:16Z</time></trkpt><trkpt lat="40.837293852964976" lon="9.381117304362709"><ele>113.0</ele><time>2026-04-06T17:51:17Z</time></trkpt><trkpt lat="40.837324000977" lon="9.381448152221177"><ele>113.0</ele><time>2026-04-06T17:51:18Z</time></trkpt><trkpt lat="40.83735392788233" lon="9.381775476971288"><ele>113.0</ele><time>2026-04-06T17:51:19Z</time></trkpt><trkpt lat="40.837412017324" lon="9.382438836010756"><ele>112.5</ele><time>2026-04-06T17:51:21Z</time></trkpt><trkpt lat="40.837440355445864" lon="9.382769985304368"><ele>112.0</ele><time>2026-04-06T17:51:22Z</time></trkpt><trkpt lat="40.83746989696215" lon="9.383101473197405"><ele>111.5</ele><time>2026-04-06T17:51:23Z</time></trkpt><trkpt lat="40.83749896424728" lon="9.38343148361621"><ele>111.0</ele><time>2026-04-06T17:51:24Z</time></trkpt><trkpt lat="40.83752716738056" lon="9.38376288185048"><ele>110.0</ele><time>2026-04-06T17:51:25Z</time></trkpt><trkpt lat="40.837552864437306" lon="9.38409293844044"><ele>109.0</ele><time>2026-04-06T17:51:26Z</time></trkpt><trkpt lat="40.83757889560952" lon="9.384424288485908"><ele>110.0</ele><time>2026-04-06T17:51:27Z</time></trkpt><trkpt lat="40.83760768085047" lon="9.384748246954222"><ele>111.0</ele><time>2026-04-06T17:51:28Z</time></trkpt><trkpt lat="40.83763613333955" lon="9.385077638629063"><ele>113.0</ele><time>2026-04-06T17:51:29Z</time></trkpt><trkpt lat="40.83766807842241" lon="9.385406919005773"><ele>115.0</ele><time>2026-04-06T17:51:30Z</time></trkpt><trkpt lat="40.837701102930446" lon="9.38573981143325"><ele>116.0</ele><time>2026-04-06T17:51:31Z</time></trkpt><trkpt lat="40.83773262036432" lon="9.386077454030492"><ele>117.0</ele><time>2026-04-06T17:51:32Z</time></trkpt><trkpt lat="40.8377608327528" lon="9.38640806631825"><ele>117.0</ele><time>2026-04-06T17:51:33Z</time></trkpt><trkpt lat="40.837788742252314" lon="9.386747331037547"><ele>117.0</ele><time>2026-04-06T17:51:34Z</time></trkpt><trkpt lat="40.83781666072423" lon="9.387083349314262"><ele>116.0</ele><time>2026-04-06T17:51:35Z</time></trkpt><trkpt lat="40.83783957349163" lon="9.387409772368741"><ele>115.0</ele><time>2026-04-06T17:51:36Z</time></trkpt><trkpt lat="40.83787853082939" lon="9.387762490511413"><ele>114.0</ele><time>2026-04-06T17:51:37Z</time></trkpt><trkpt lat="40.83790932227642" lon="9.388106245676363"><ele>113.0</ele><time>2026-04-06T17:51:38Z</time></trkpt><trkpt lat="40.83794136144537" lon="9.388452485055693"><ele>113.0</ele><time>2026-04-06T17:51:39Z</time></trkpt><trkpt lat="40.83797226998284" lon="9.38878626128372"><ele>113.0</ele><time>2026-04-06T17:51:40Z</time></trkpt><trkpt lat="40.83801057900474" lon="9.389133630293884"><ele>113.0</ele><time>2026-04-06T17:51:41Z</time></trkpt><trkpt lat="40.83804680820399" lon="9.389467096191991"><ele>113.0</ele><time>2026-04-06T17:51:41.999Z</time></trkpt><trkpt lat="40.83808609500267" lon="9.389804756915254"><ele>113.0</ele><time>2026-04-06T17:51:42.999Z</time></trkpt><trkpt lat="40.83812496229329" lon="9.390141753270658"><ele>113.0</ele><time>2026-04-06T17:51:43.999Z</time></trkpt><trkpt lat="40.83816402929018" lon="9.390473023544654"><ele>113.5</ele><time>2026-04-06T17:51:44.999Z</time></trkpt><trkpt lat="40.838201983039184" lon="9.390802748724871"><ele>114.0</ele><time>2026-04-06T17:51:45.999Z</time></trkpt><trkpt lat="40.838242612620675" lon="9.391135114778168"><ele>113.5</ele><time>2026-04-06T17:51:46.999Z</time></trkpt><trkpt lat="40.83828402573404" lon="9.39146044946198"><ele>113.0</ele><time>2026-04-06T17:51:47.999Z</time></trkpt><trkpt lat="40.83832882314466" lon="9.391786236341632"><ele>113.0</ele><time>2026-04-06T17:51:48.999Z</time></trkpt><trkpt lat="40.83837444746022" lon="9.392115622301326"><ele>113.0</ele><time>2026-04-06T17:51:49.999Z</time></trkpt><trkpt lat="40.838422441606546" lon="9.392443965790248"><ele>110.5</ele><time>2026-04-06T17:51:50.999Z</time></trkpt><trkpt lat="40.83847149128834" lon="9.392776437087907"><ele>108.0</ele><time>2026-04-06T17:51:51.999Z</time></trkpt><trkpt lat="40.83852034915227" lon="9.393105665643626"><ele>107.0</ele><time>2026-04-06T17:51:52.999Z</time></trkpt><trkpt lat="40.8385713484427" lon="9.393440248234777"><ele>106.0</ele><time>2026-04-06T17:51:53.999Z</time></trkpt><trkpt lat="40.838622690681774" lon="9.393774811602881"><ele>104.0</ele><time>2026-04-06T17:51:54.999Z</time></trkpt><trkpt lat="40.83867413929958" lon="9.394112981545995"><ele>102.0</ele><time>2026-04-06T17:51:55.999Z</time></trkpt><trkpt lat="40.83872356443205" lon="9.394452206186777"><ele>101.0</ele><time>2026-04-06T17:51:56.999Z</time></trkpt><trkpt lat="40.838773085928445" lon="9.394784815291402"><ele>100.0</ele><time>2026-04-06T17:51:57.999Z</time></trkpt><trkpt lat="40.838821170085765" lon="9.395101154468339"><ele>100.0</ele><time>2026-04-06T17:51:58.999Z</time></trkpt><trkpt lat="40.83886879257514" lon="9.395417393190556"><ele>100.0</ele><time>2026-04-06T17:51:59.999Z</time></trkpt><trkpt lat="40.83891625997189" lon="9.395742825270448"><ele>99.0</ele><time>2026-04-06T17:52:00.999Z</time></trkpt><trkpt lat="40.8389635249705" lon="9.39606731510469"><ele>98.0</ele><time>2026-04-06T17:52:01.999Z</time></trkpt><trkpt lat="40.839014304218104" lon="9.396396008892358"><ele>97.5</ele><time>2026-04-06T17:52:02.999Z</time></trkpt><trkpt lat="40.83906440335371" lon="9.396719804521165"><ele>97.0</ele><time>2026-04-06T17:52:03.999Z</time></trkpt><trkpt lat="40.83911747157151" lon="9.397047705106832"><ele>95.0</ele><time>2026-04-06T17:52:04.999Z</time></trkpt><trkpt lat="40.839175642446946" lon="9.397379530360341"><ele>93.0</ele><time>2026-04-06T17:52:05.999Z</time></trkpt><trkpt lat="40.83924300509856" lon="9.397720675208713"><ele>93.5</ele><time>2026-04-06T17:52:06.999Z</time></trkpt><trkpt lat="40.8393191792981" lon="9.398068736423168"><ele>94.0</ele><time>2026-04-06T17:52:07.999Z</time></trkpt><trkpt lat="40.839399474801866" lon="9.398415530076647"><ele>94.0</ele><time>2026-04-06T17:52:08.999Z</time></trkpt><trkpt lat="40.83947922529763" lon="9.3987547467158"><ele>94.0</ele><time>2026-04-06T17:52:09.999Z</time></trkpt><trkpt lat="40.83955872596242" lon="9.399082608810067"><ele>93.5</ele><time>2026-04-06T17:52:10.999Z</time></trkpt><trkpt lat="40.839646265793206" lon="9.399419095577224"><ele>93.0</ele><time>2026-04-06T17:52:12Z</time></trkpt><trkpt lat="40.83973431136118" lon="9.399737252010333"><ele>91.0</ele><time>2026-04-06T17:52:13Z</time></trkpt><trkpt lat="40.83982388162211" lon="9.400044946597383"><ele>89.0</ele><time>2026-04-06T17:52:14Z</time></trkpt><trkpt lat="40.8399183163912" lon="9.400352680427005"><ele>86.5</ele><time>2026-04-06T17:52:15Z</time></trkpt><trkpt lat="40.840019934049195" lon="9.400660502160363"><ele>84.0</ele><time>2026-04-06T17:52:16Z</time></trkpt><trkpt lat="40.84012455549967" lon="9.400968336645583"><ele>86.0</ele><time>2026-04-06T17:52:17Z</time></trkpt><trkpt lat="40.840232344447735" lon="9.401277266747089"><ele>88.0</ele><time>2026-04-06T17:52:18Z</time></trkpt><trkpt lat="40.840344468394015" lon="9.401586624071868"><ele>84.0</ele><time>2026-04-06T17:52:19Z</time></trkpt><trkpt lat="40.84045835514918" lon="9.401897286234322"><ele>80.0</ele><time>2026-04-06T17:52:20Z</time></trkpt><trkpt lat="40.84057463123807" lon="9.402211007630324"><ele>78.5</ele><time>2026-04-06T17:52:21Z</time></trkpt><trkpt lat="40.84069662891101" lon="9.402538003420757"><ele>77.0</ele><time>2026-04-06T17:52:22Z</time></trkpt><trkpt lat="40.84081941383502" lon="9.4028745960865"><ele>79.0</ele><time>2026-04-06T17:52:23Z</time></trkpt><trkpt lat="40.84093947993955" lon="9.403209181940465"><ele>81.0</ele><time>2026-04-06T17:52:24Z</time></trkpt><trkpt lat="40.841059012421006" lon="9.403538958969873"><ele>81.0</ele><time>2026-04-06T17:52:25Z</time></trkpt><trkpt lat="40.841181943244884" lon="9.40387081795803"><ele>81.0</ele><time>2026-04-06T17:52:26Z</time></trkpt><trkpt lat="40.84130483337266" lon="9.404200650341245"><ele>81.0</ele><time>2026-04-06T17:52:27Z</time></trkpt><trkpt lat="40.84142607311279" lon="9.404527659722115"><ele>81.0</ele><time>2026-04-06T17:52:28Z</time></trkpt><trkpt lat="40.84154910264925" lon="9.404857308271444"><ele>82.0</ele><time>2026-04-06T17:52:29Z</time></trkpt><trkpt lat="40.84166724370135" lon="9.405180850489007"><ele>83.0</ele><time>2026-04-06T17:52:30Z</time></trkpt><trkpt lat="40.84178220177506" lon="9.405496992447492"><ele>82.5</ele><time>2026-04-06T17:52:31Z</time></trkpt><trkpt lat="40.841896414901804" lon="9.405811413495028"><ele>82.0</ele><time>2026-04-06T17:52:32Z</time></trkpt><trkpt lat="40.84201348234628" lon="9.406124782692988"><ele>82.5</ele><time>2026-04-06T17:52:33Z</time></trkpt><trkpt lat="40.84213118405129" lon="9.406441593282036"><ele>83.0</ele><time>2026-04-06T17:52:34Z</time></trkpt><trkpt lat="40.84224948464958" lon="9.406758661899193"><ele>83.0</ele><time>2026-04-06T17:52:35Z</time></trkpt><trkpt lat="40.84236911963502" lon="9.407084911610081"><ele>83.0</ele><time>2026-04-06T17:52:36Z</time></trkpt><trkpt lat="40.84249397784313" lon="9.407429357515433"><ele>83.5</ele><time>2026-04-06T17:52:37Z</time></trkpt><trkpt lat="40.84262180996441" lon="9.407777910446647"><ele>84.0</ele><time>2026-04-06T17:52:38Z</time></trkpt><trkpt lat="40.842750623503285" lon="9.408133226827308"><ele>82.0</ele><time>2026-04-06T17:52:39Z</time></trkpt><trkpt lat="40.84287962059237" lon="9.408483562941543"><ele>80.0</ele><time>2026-04-06T17:52:40Z</time></trkpt><trkpt lat="40.84300812361195" lon="9.408830901704611"><ele>79.0</ele><time>2026-04-06T17:52:41Z</time></trkpt><trkpt lat="40.843135775643205" lon="9.40917817991193"><ele>78.0</ele><time>2026-04-06T17:52:42Z</time></trkpt><trkpt lat="40.84325910441171" lon="9.409521648809548"><ele>79.0</ele><time>2026-04-06T17:52:43Z</time></trkpt><trkpt lat="40.84338219313655" lon="9.409864987865324"><ele>80.0</ele><time>2026-04-06T17:52:44Z</time></trkpt><trkpt lat="40.84350330160646" lon="9.410205127526034"><ele>79.0</ele><time>2026-04-06T17:52:45Z</time></trkpt><trkpt lat="40.84362207942452" lon="9.410542672818789"><ele>78.0</ele><time>2026-04-06T17:52:46Z</time></trkpt><trkpt lat="40.843739581505865" lon="9.410878499961942"><ele>78.0</ele><time>2026-04-06T17:52:47Z</time></trkpt><trkpt lat="40.843857870752295" lon="9.411213268892368"><ele>78.0</ele><time>2026-04-06T17:52:48Z</time></trkpt><trkpt lat="40.84397617352341" lon="9.411540545739127"><ele>78.0</ele><time>2026-04-06T17:52:49Z</time></trkpt><trkpt lat="40.84409575013355" lon="9.411866922051294"><ele>78.0</ele><time>2026-04-06T17:52:50Z</time></trkpt><trkpt lat="40.844214690101055" lon="9.412191688369973"><ele>80.5</ele><time>2026-04-06T17:52:51Z</time></trkpt><trkpt lat="40.84433430884775" lon="9.412520632383776"><ele>83.0</ele><time>2026-04-06T17:52:52Z</time></trkpt><trkpt lat="40.84445214770918" lon="9.412842880281497"><ele>81.5</ele><time>2026-04-06T17:52:53Z</time></trkpt><trkpt lat="40.84457170248792" lon="9.413165920541363"><ele>80.0</ele><time>2026-04-06T17:52:54Z</time></trkpt><trkpt lat="40.84469057257916" lon="9.413488448781479"><ele>80.0</ele><time>2026-04-06T17:52:55Z</time></trkpt><trkpt lat="40.844808994556644" lon="9.413812237457268"><ele>80.0</ele><time>2026-04-06T17:52:56Z</time></trkpt><trkpt lat="40.84492719786232" lon="9.414136176761245"><ele>78.5</ele><time>2026-04-06T17:52:57Z</time></trkpt><trkpt lat="40.845045629569" lon="9.414456319566224"><ele>77.0</ele><time>2026-04-06T17:52:58Z</time></trkpt><trkpt lat="40.84516352760346" lon="9.41477830865365"><ele>74.0</ele><time>2026-04-06T17:52:59Z</time></trkpt><trkpt lat="40.845279865692206" lon="9.415099821406436"><ele>71.0</ele><time>2026-04-06T17:53:00Z</time></trkpt><trkpt lat="40.84539851371946" lon="9.415426367938126"><ele>71.0</ele><time>2026-04-06T17:53:01Z</time></trkpt><trkpt lat="40.84551739205762" lon="9.415750145075258"><ele>71.0</ele><time>2026-04-06T17:53:02Z</time></trkpt><trkpt lat="40.84563687520682" lon="9.416076690729595"><ele>70.5</ele><time>2026-04-06T17:53:03Z</time></trkpt><trkpt lat="40.845757593354655" lon="9.416404606652884"><ele>70.0</ele><time>2026-04-06T17:53:04Z</time></trkpt><trkpt lat="40.84587800876808" lon="9.416729923140378"><ele>67.5</ele><time>2026-04-06T17:53:05Z</time></trkpt><trkpt lat="40.8459987460758" lon="9.41705907629752"><ele>65.0</ele><time>2026-04-06T17:53:06Z</time></trkpt><trkpt lat="40.846119688356325" lon="9.417391693396764"><ele>65.0</ele><time>2026-04-06T17:53:07Z</time></trkpt><trkpt lat="40.846242167561115" lon="9.41772713192897"><ele>65.0</ele><time>2026-04-06T17:53:08Z</time></trkpt><trkpt lat="40.84636608688528" lon="9.418061295034853"><ele>66.5</ele><time>2026-04-06T17:53:09Z</time></trkpt><trkpt lat="40.846489595918364" lon="9.418396848562558"><ele>68.0</ele><time>2026-04-06T17:53:10Z</time></trkpt><trkpt lat="40.84661526293987" lon="9.418734535243496"><ele>69.0</ele><time>2026-04-06T17:53:11Z</time></trkpt><trkpt lat="40.84674109343425" lon="9.419075373478945"><ele>70.0</ele><time>2026-04-06T17:53:12Z</time></trkpt><trkpt lat="40.84686640064017" lon="9.41941777596193"><ele>67.0</ele><time>2026-04-06T17:53:13Z</time></trkpt><trkpt lat="40.846995890797" lon="9.419753736905973"><ele>64.0</ele><time>2026-04-06T17:53:14Z</time></trkpt><trkpt lat="40.847135795432045" lon="9.420085778297697"><ele>64.0</ele><time>2026-04-06T17:53:15Z</time></trkpt><trkpt lat="40.84728232839541" lon="9.420410405643029"><ele>64.0</ele><time>2026-04-06T17:53:16Z</time></trkpt><trkpt lat="40.847442046798264" lon="9.42072834516945"><ele>64.5</ele><time>2026-04-06T17:53:17Z</time></trkpt><trkpt lat="40.847609399343" lon="9.421036210635128"><ele>65.0</ele><time>2026-04-06T17:53:18Z</time></trkpt><trkpt lat="40.847784443615666" lon="9.421342216308602"><ele>63.0</ele><time>2026-04-06T17:53:19Z</time></trkpt><trkpt lat="40.84796414348054" lon="9.421634778239788"><ele>61.0</ele><time>2026-04-06T17:53:20Z</time></trkpt><trkpt lat="40.848152708929696" lon="9.421921166799141"><ele>60.5</ele><time>2026-04-06T17:53:21Z</time></trkpt><trkpt lat="40.84834449455073" lon="9.422192031459579"><ele>60.0</ele><time>2026-04-06T17:53:22Z</time></trkpt><trkpt lat="40.84854396915795" lon="9.422451141384984"><ele>60.0</ele><time>2026-04-06T17:53:23Z</time></trkpt><trkpt lat="40.84875438293229" lon="9.422704462935133"><ele>60.0</ele><time>2026-04-06T17:53:24Z</time></trkpt><trkpt lat="40.848967632522225" lon="9.422941435681986"><ele>60.0</ele><time>2026-04-06T17:53:25Z</time></trkpt><trkpt lat="40.84918577709808" lon="9.423170305406243"><ele>60.0</ele><time>2026-04-06T17:53:26Z</time></trkpt><trkpt lat="40.84940922652681" lon="9.42339181809214"><ele>60.0</ele><time>2026-04-06T17:53:27Z</time></trkpt><trkpt lat="40.84963732430821" lon="9.42361138308428"><ele>60.0</ele><time>2026-04-06T17:53:28Z</time></trkpt><trkpt lat="40.8498629110575" lon="9.42382474370241"><ele>59.5</ele><time>2026-04-06T17:53:29Z</time></trkpt><trkpt lat="40.85008727561794" lon="9.424035856614868"><ele>59.0</ele><time>2026-04-06T17:53:30Z</time></trkpt><trkpt lat="40.8503064045199" lon="9.424245620912759"><ele>59.0</ele><time>2026-04-06T17:53:31Z</time></trkpt><trkpt lat="40.85052251646646" lon="9.424455177683251"><ele>59.0</ele><time>2026-04-06T17:53:32Z</time></trkpt><trkpt lat="40.8507354239796" lon="9.424669823404002"><ele>59.0</ele><time>2026-04-06T17:53:33Z</time></trkpt><trkpt lat="40.85094173220191" lon="9.424891150241915"><ele>59.0</ele><time>2026-04-06T17:53:34Z</time></trkpt><trkpt lat="40.851139712498316" lon="9.425116437015777"><ele>59.0</ele><time>2026-04-06T17:53:35Z</time></trkpt><trkpt lat="40.85132671148131" lon="9.425343699424449"><ele>59.0</ele><time>2026-04-06T17:53:36Z</time></trkpt><trkpt lat="40.851509570187275" lon="9.425577122115127"><ele>58.0</ele><time>2026-04-06T17:53:37Z</time></trkpt><trkpt lat="40.85168782511972" lon="9.42581611738173"><ele>57.0</ele><time>2026-04-06T17:53:38Z</time></trkpt><trkpt lat="40.8518662485844" lon="9.426063670412132"><ele>56.5</ele><time>2026-04-06T17:53:39Z</time></trkpt><trkpt lat="40.85203985326122" lon="9.426314670147892"><ele>56.0</ele><time>2026-04-06T17:53:40Z</time></trkpt><trkpt lat="40.85220926191325" lon="9.4265737504304"><ele>56.0</ele><time>2026-04-06T17:53:41Z</time></trkpt><trkpt lat="40.85237285114737" lon="9.426838533691452"><ele>56.0</ele><time>2026-04-06T17:53:42Z</time></trkpt><trkpt lat="40.852532438289494" lon="9.427113342576403"><ele>59.0</ele><time>2026-04-06T17:53:43Z</time></trkpt><trkpt lat="40.852682574910176" lon="9.427392470456189"><ele>62.0</ele><time>2026-04-06T17:53:44Z</time></trkpt><trkpt lat="40.852830890110496" lon="9.427680117779698"><ele>62.0</ele><time>2026-04-06T17:53:45Z</time></trkpt><trkpt lat="40.85297186054546" lon="9.427968800008735"><ele>62.0</ele><time>2026-04-06T17:53:46Z</time></trkpt><trkpt lat="40.8531095551876" lon="9.428264015038094"><ele>62.5</ele><time>2026-04-06T17:53:47Z</time></trkpt><trkpt lat="40.85324992064741" lon="9.42858164676023"><ele>63.0</ele><time>2026-04-06T17:53:48Z</time></trkpt><trkpt lat="40.853388874353584" lon="9.428917150295627"><ele>61.0</ele><time>2026-04-06T17:53:49Z</time></trkpt><trkpt lat="40.85352215490602" lon="9.429265680884921"><ele>59.0</ele><time>2026-04-06T17:53:50Z</time></trkpt><trkpt lat="40.853652694623555" lon="9.429628416185881"><ele>58.5</ele><time>2026-04-06T17:53:51Z</time></trkpt><trkpt lat="40.853780401644016" lon="9.429996161814532"><ele>58.0</ele><time>2026-04-06T17:53:52Z</time></trkpt><trkpt lat="40.85390908966578" lon="9.430373106656939"><ele>56.5</ele><time>2026-04-06T17:53:53Z</time></trkpt><trkpt lat="40.85403014397502" lon="9.430753214369362"><ele>55.0</ele><time>2026-04-06T17:53:54Z</time></trkpt><trkpt lat="40.854146826345044" lon="9.431134971974025"><ele>55.5</ele><time>2026-04-06T17:53:55Z</time></trkpt><trkpt lat="40.854257571198005" lon="9.431499451939523"><ele>56.0</ele><time>2026-04-06T17:53:56Z</time></trkpt><trkpt lat="40.85436622634573" lon="9.431839796228891"><ele>56.0</ele><time>2026-04-06T17:53:57Z</time></trkpt><trkpt lat="40.854474723328174" lon="9.432174614051556"><ele>56.0</ele><time>2026-04-06T17:53:57.999Z</time></trkpt><trkpt lat="40.854581330380405" lon="9.432508337968393"><ele>56.0</ele><time>2026-04-06T17:53:58.999Z</time></trkpt><trkpt lat="40.85468538582189" lon="9.43283973449124"><ele>56.0</ele><time>2026-04-06T17:53:59.999Z</time></trkpt><trkpt lat="40.85478343229276" lon="9.433166457339704"><ele>55.5</ele><time>2026-04-06T17:54:00.999Z</time></trkpt><trkpt lat="40.85487576002819" lon="9.433489409305144"><ele>55.0</ele><time>2026-04-06T17:54:01.999Z</time></trkpt><trkpt lat="40.85496887355303" lon="9.433814376258415"><ele>56.0</ele><time>2026-04-06T17:54:02.999Z</time></trkpt><trkpt lat="40.85506217458992" lon="9.434143933855811"><ele>57.0</ele><time>2026-04-06T17:54:03.999Z</time></trkpt><trkpt lat="40.85515884340367" lon="9.434473506994655"><ele>53.0</ele><time>2026-04-06T17:54:04.999Z</time></trkpt><trkpt lat="40.85526219312454" lon="9.434796064516334"><ele>49.0</ele><time>2026-04-06T17:54:05.999Z</time></trkpt><trkpt lat="40.85537296139482" lon="9.435116828034968"><ele>49.0</ele><time>2026-04-06T17:54:06.999Z</time></trkpt><trkpt lat="40.85548695860586" lon="9.435435179332059"><ele>49.0</ele><time>2026-04-06T17:54:07.999Z</time></trkpt><trkpt lat="40.855601846097095" lon="9.43574927313245"><ele>50.5</ele><time>2026-04-06T17:54:08.999Z</time></trkpt><trkpt lat="40.85572279313384" lon="9.436061015922352"><ele>52.0</ele><time>2026-04-06T17:54:09.999Z</time></trkpt><trkpt lat="40.85585233506985" lon="9.436371654511795"><ele>50.5</ele><time>2026-04-06T17:54:10.999Z</time></trkpt><trkpt lat="40.85598732431839" lon="9.436696862577943"><ele>49.0</ele><time>2026-04-06T17:54:11.999Z</time></trkpt><trkpt lat="40.856119829143886" lon="9.437026205038308"><ele>50.0</ele><time>2026-04-06T17:54:12.999Z</time></trkpt><trkpt lat="40.85625640777554" lon="9.43735945284699"><ele>51.0</ele><time>2026-04-06T17:54:13.999Z</time></trkpt><trkpt lat="40.85639249099925" lon="9.437690219140933"><ele>50.5</ele><time>2026-04-06T17:54:14.999Z</time></trkpt><trkpt lat="40.856526178073096" lon="9.438015309703598"><ele>50.0</ele><time>2026-04-06T17:54:15.999Z</time></trkpt><trkpt lat="40.856656674328775" lon="9.438332582796075"><ele>50.0</ele><time>2026-04-06T17:54:16.999Z</time></trkpt><trkpt lat="40.85678575628795" lon="9.438648689502577"><ele>50.0</ele><time>2026-04-06T17:54:18Z</time></trkpt><trkpt lat="40.85691409238258" lon="9.43896710732704"><ele>50.0</ele><time>2026-04-06T17:54:19Z</time></trkpt><trkpt lat="40.85703885662724" lon="9.43928157140831"><ele>50.0</ele><time>2026-04-06T17:54:20Z</time></trkpt><trkpt lat="40.8571685616808" lon="9.43959757701507"><ele>50.5</ele><time>2026-04-06T17:54:21Z</time></trkpt><trkpt lat="40.85730190248204" lon="9.43991491817522"><ele>51.0</ele><time>2026-04-06T17:54:22Z</time></trkpt><trkpt lat="40.85743637204425" lon="9.440229498000244"><ele>51.5</ele><time>2026-04-06T17:54:23Z</time></trkpt><trkpt lat="40.85757024580237" lon="9.440543021984674"><ele>52.0</ele><time>2026-04-06T17:54:24Z</time></trkpt><trkpt lat="40.8577025795902" lon="9.440855651417445"><ele>51.5</ele><time>2026-04-06T17:54:25Z</time></trkpt><trkpt lat="40.85783433337701" lon="9.441167330812712"><ele>51.0</ele><time>2026-04-06T17:54:26Z</time></trkpt><trkpt lat="40.85796715687328" lon="9.441480409594092"><ele>51.0</ele><time>2026-04-06T17:54:27Z</time></trkpt><trkpt lat="40.85809823406242" lon="9.441785818287496"><ele>51.0</ele><time>2026-04-06T17:54:28Z</time></trkpt><trkpt lat="40.85822545374557" lon="9.442075580900665"><ele>51.5</ele><time>2026-04-06T17:54:29Z</time></trkpt><trkpt lat="40.858352422161126" lon="9.442361786740438"><ele>52.0</ele><time>2026-04-06T17:54:30Z</time></trkpt><trkpt lat="40.85847925496251" lon="9.4426504656374"><ele>50.0</ele><time>2026-04-06T17:54:31Z</time></trkpt><trkpt lat="40.85861033972312" lon="9.442941979636403"><ele>48.0</ele><time>2026-04-06T17:54:32Z</time></trkpt><trkpt lat="40.85874924369217" lon="9.443248828546478"><ele>48.0</ele><time>2026-04-06T17:54:33Z</time></trkpt><trkpt lat="40.85888783799243" lon="9.44356360184676"><ele>48.0</ele><time>2026-04-06T17:54:34Z</time></trkpt><trkpt lat="40.859024995340334" lon="9.443883844228331"><ele>48.0</ele><time>2026-04-06T17:54:35Z</time></trkpt><trkpt lat="40.859163708602736" lon="9.444214939702093"><ele>48.0</ele><time>2026-04-06T17:54:36Z</time></trkpt><trkpt lat="40.859300135899716" lon="9.444525538096752"><ele>47.5</ele><time>2026-04-06T17:54:37Z</time></trkpt><trkpt lat="40.859441963084144" lon="9.444840764958364"><ele>47.0</ele><time>2026-04-06T17:54:38Z</time></trkpt><trkpt lat="40.85958603959192" lon="9.445151685665149"><ele>47.0</ele><time>2026-04-06T17:54:39Z</time></trkpt><trkpt lat="40.85973243095389" lon="9.445468015020587"><ele>47.0</ele><time>2026-04-06T17:54:40Z</time></trkpt><trkpt lat="40.85987700334118" lon="9.445777820259915"><ele>47.0</ele><time>2026-04-06T17:54:41Z</time></trkpt><trkpt lat="40.860024676306935" lon="9.446092040113577"><ele>47.0</ele><time>2026-04-06T17:54:42Z</time></trkpt><trkpt lat="40.860173771637555" lon="9.44639854578938"><ele>45.5</ele><time>2026-04-06T17:54:43Z</time></trkpt><trkpt lat="40.86032576756404" lon="9.446707908937205"><ele>44.0</ele><time>2026-04-06T17:54:44Z</time></trkpt><trkpt lat="40.86048118678317" lon="9.447015664676508"><ele>44.0</ele><time>2026-04-06T17:54:45Z</time></trkpt><trkpt lat="40.860640374160326" lon="9.447317293774471"><ele>44.0</ele><time>2026-04-06T17:54:46Z</time></trkpt><trkpt lat="40.86080288958443" lon="9.447612825450785"><ele>42.5</ele><time>2026-04-06T17:54:47Z</time></trkpt><trkpt lat="40.86096988590817" lon="9.447901590818496"><ele>41.0</ele><time>2026-04-06T17:54:48Z</time></trkpt><trkpt lat="40.861143452523336" lon="9.448188647782876"><ele>41.0</ele><time>2026-04-06T17:54:49Z</time></trkpt><trkpt lat="40.86131974093753" lon="9.44846958377498"><ele>41.0</ele><time>2026-04-06T17:54:50Z</time></trkpt><trkpt lat="40.86150143605072" lon="9.448751045551644"><ele>41.0</ele><time>2026-04-06T17:54:51Z</time></trkpt><trkpt lat="40.86168506814154" lon="9.449024606621002"><ele>41.0</ele><time>2026-04-06T17:54:52Z</time></trkpt><trkpt lat="40.8618728816982" lon="9.449295865888118"><ele>41.0</ele><time>2026-04-06T17:54:53Z</time></trkpt><trkpt lat="40.86206469207283" lon="9.44956480892814"><ele>41.0</ele><time>2026-04-06T17:54:54Z</time></trkpt><trkpt lat="40.86225851921467" lon="9.449828870819132"><ele>41.0</ele><time>2026-04-06T17:54:55Z</time></trkpt><trkpt lat="40.86245541597167" lon="9.45008874101378"><ele>41.0</ele><time>2026-04-06T17:54:56Z</time></trkpt><trkpt lat="40.8626533307327" lon="9.450345566188876"><ele>41.0</ele><time>2026-04-06T17:54:57Z</time></trkpt><trkpt lat="40.86285462609436" lon="9.450594658880012"><ele>41.0</ele><time>2026-04-06T17:54:58Z</time></trkpt><trkpt lat="40.863058530205244" lon="9.450843543357287"><ele>41.0</ele><time>2026-04-06T17:54:59Z</time></trkpt><trkpt lat="40.86326611278796" lon="9.45108501715053"><ele>41.0</ele><time>2026-04-06T17:55:00Z</time></trkpt><trkpt lat="40.8634753355832" lon="9.45132079836498"><ele>40.5</ele><time>2026-04-06T17:55:01Z</time></trkpt><trkpt lat="40.86368808055756" lon="9.451554326691527"><ele>40.0</ele><time>2026-04-06T17:55:02Z</time></trkpt><trkpt lat="40.86390133834104" lon="9.451777853180706"><ele>40.0</ele><time>2026-04-06T17:55:03Z</time></trkpt><trkpt lat="40.86411799761415" lon="9.45199973065455"><ele>40.0</ele><time>2026-04-06T17:55:04Z</time></trkpt><trkpt lat="40.86433740112929" lon="9.452215817609229"><ele>40.0</ele><time>2026-04-06T17:55:05Z</time></trkpt><trkpt lat="40.86455990222249" lon="9.452430642072926"><ele>40.0</ele><time>2026-04-06T17:55:06Z</time></trkpt><trkpt lat="40.86478887545112" lon="9.452646079150817"><ele>40.0</ele><time>2026-04-06T17:55:07Z</time></trkpt><trkpt lat="40.865030801773315" lon="9.452862557576596"><ele>40.0</ele><time>2026-04-06T17:55:08Z</time></trkpt><trkpt lat="40.86528645448683" lon="9.453083594403768"><ele>40.5</ele><time>2026-04-06T17:55:09Z</time></trkpt><trkpt lat="40.865543999782474" lon="9.45331028258174"><ele>41.0</ele><time>2026-04-06T17:55:10Z</time></trkpt><trkpt lat="40.86580704449058" lon="9.453547441539937"><ele>40.5</ele><time>2026-04-06T17:55:11Z</time></trkpt><trkpt lat="40.86607283355675" lon="9.453790252694427"><ele>40.0</ele><time>2026-04-06T17:55:12Z</time></trkpt><trkpt lat="40.866345078840325" lon="9.454040058164505"><ele>40.0</ele><time>2026-04-06T17:55:13Z</time></trkpt><trkpt lat="40.866615081425024" lon="9.454291332906768"><ele>40.0</ele><time>2026-04-06T17:55:14Z</time></trkpt><trkpt lat="40.86687926550344" lon="9.454543603589666"><ele>39.5</ele><time>2026-04-06T17:55:15Z</time></trkpt><trkpt lat="40.86713109176848" lon="9.454786593831527"><ele>39.0</ele><time>2026-04-06T17:55:16Z</time></trkpt><trkpt lat="40.86737829119507" lon="9.455023800433805"><ele>38.5</ele><time>2026-04-06T17:55:17Z</time></trkpt><trkpt lat="40.86761481167018" lon="9.455244312134678"><ele>38.0</ele><time>2026-04-06T17:55:18Z</time></trkpt><trkpt lat="40.86784380598348" lon="9.455453318598012"><ele>38.0</ele><time>2026-04-06T17:55:19Z</time></trkpt><trkpt lat="40.868065863600826" lon="9.45565578907604"><ele>38.0</ele><time>2026-04-06T17:55:20Z</time></trkpt><trkpt lat="40.868288927785265" lon="9.455861222904359"><ele>38.5</ele><time>2026-04-06T17:55:21Z</time></trkpt><trkpt lat="40.86850523328259" lon="9.456061374380571"><ele>39.0</ele><time>2026-04-06T17:55:22Z</time></trkpt><trkpt lat="40.8687212170856" lon="9.45625917228295"><ele>38.5</ele><time>2026-04-06T17:55:23Z</time></trkpt><trkpt lat="40.868939444329555" lon="9.456458429540747"><ele>38.0</ele><time>2026-04-06T17:55:24Z</time></trkpt><trkpt lat="40.869150032428564" lon="9.456649082409331"><ele>37.0</ele><time>2026-04-06T17:55:25Z</time></trkpt><trkpt lat="40.86936714324437" lon="9.456844801321978"><ele>36.0</ele><time>2026-04-06T17:55:26Z</time></trkpt><trkpt lat="40.86957889818297" lon="9.457037971658366"><ele>37.5</ele><time>2026-04-06T17:55:27Z</time></trkpt><trkpt lat="40.869793897058955" lon="9.457235454111848"><ele>39.0</ele><time>2026-04-06T17:55:28Z</time></trkpt><trkpt lat="40.87000600008688" lon="9.457429198499748"><ele>38.0</ele><time>2026-04-06T17:55:29Z</time></trkpt><trkpt lat="40.87021642702863" lon="9.457620346777107"><ele>37.0</ele><time>2026-04-06T17:55:30Z</time></trkpt><trkpt lat="40.87042681490544" lon="9.457813291923715"><ele>37.0</ele><time>2026-04-06T17:55:31Z</time></trkpt><trkpt lat="40.870639140522634" lon="9.45800780167202"><ele>37.0</ele><time>2026-04-06T17:55:32Z</time></trkpt><trkpt lat="40.87085270212846" lon="9.45820319123363"><ele>36.5</ele><time>2026-04-06T17:55:33Z</time></trkpt><trkpt lat="40.87106541537588" lon="9.458398251972534"><ele>36.0</ele><time>2026-04-06T17:55:34Z</time></trkpt><trkpt lat="40.871279378496446" lon="9.458590031789917"><ele>36.0</ele><time>2026-04-06T17:55:35Z</time></trkpt><trkpt lat="40.871494311298534" lon="9.458784033210216"><ele>36.0</ele><time>2026-04-06T17:55:36Z</time></trkpt><trkpt lat="40.87170529777776" lon="9.45897300545768"><ele>33.5</ele><time>2026-04-06T17:55:37Z</time></trkpt><trkpt lat="40.871917621637515" lon="9.459165331772212"><ele>31.0</ele><time>2026-04-06T17:55:38Z</time></trkpt><trkpt lat="40.8721256974605" lon="9.459356505812746"><ele>31.0</ele><time>2026-04-06T17:55:39Z</time></trkpt><trkpt lat="40.87233684722933" lon="9.459549722192703"><ele>31.0</ele><time>2026-04-06T17:55:40Z</time></trkpt><trkpt lat="40.87254736179007" lon="9.459742004704895"><ele>31.0</ele><time>2026-04-06T17:55:40.999Z</time></trkpt><trkpt lat="40.87275534213284" lon="9.459934573253259"><ele>31.0</ele><time>2026-04-06T17:55:41.999Z</time></trkpt><trkpt lat="40.87296396868962" lon="9.460127072096945"><ele>31.0</ele><time>2026-04-06T17:55:42.999Z</time></trkpt><trkpt lat="40.87317711189265" lon="9.460320918930524"><ele>31.0</ele><time>2026-04-06T17:55:43.999Z</time></trkpt><trkpt lat="40.873388462049526" lon="9.460513572040306"><ele>31.5</ele><time>2026-04-06T17:55:44.999Z</time></trkpt><trkpt lat="40.873599991726586" lon="9.460705734968855"><ele>32.0</ele><time>2026-04-06T17:55:45.999Z</time></trkpt><trkpt lat="40.873812027290136" lon="9.460897680740958"><ele>32.0</ele><time>2026-04-06T17:55:46.999Z</time></trkpt><trkpt lat="40.87402495558291" lon="9.461089959465363"><ele>32.0</ele><time>2026-04-06T17:55:47.999Z</time></trkpt><trkpt lat="40.8742371567236" lon="9.461283621759012"><ele>31.0</ele><time>2026-04-06T17:55:48.999Z</time></trkpt><trkpt lat="40.87445032078942" lon="9.461478038902934"><ele>30.0</ele><time>2026-04-06T17:55:49.999Z</time></trkpt><trkpt lat="40.87466208685848" lon="9.461671816913052"><ele>30.0</ele><time>2026-04-06T17:55:50.999Z</time></trkpt><trkpt lat="40.87487692657529" lon="9.461867706826453"><ele>30.0</ele><time>2026-04-06T17:55:51.999Z</time></trkpt><trkpt lat="40.87509298289844" lon="9.462063269655323"><ele>30.0</ele><time>2026-04-06T17:55:52.999Z</time></trkpt><trkpt lat="40.875306159681394" lon="9.462258644975135"><ele>30.0</ele><time>2026-04-06T17:55:53.999Z</time></trkpt><trkpt lat="40.87552337398502" lon="9.462457588565618"><ele>30.0</ele><time>2026-04-06T17:55:54.999Z</time></trkpt><trkpt lat="40.87573735223406" lon="9.462653254357106"><ele>30.0</ele><time>2026-04-06T17:55:55.999Z</time></trkpt><trkpt lat="40.875956429877974" lon="9.462850619489737"><ele>29.5</ele><time>2026-04-06T17:55:56.999Z</time></trkpt><trkpt lat="40.87617369880945" lon="9.463049678488915"><ele>29.0</ele><time>2026-04-06T17:55:57.999Z</time></trkpt><trkpt lat="40.87639428086916" lon="9.4632516180906"><ele>29.0</ele><time>2026-04-06T17:55:58.999Z</time></trkpt><trkpt lat="40.876612016849535" lon="9.463450512993594"><ele>29.0</ele><time>2026-04-06T17:55:59.999Z</time></trkpt><trkpt lat="40.87683229362954" lon="9.463650864942032"><ele>28.0</ele><time>2026-04-06T17:56:00.999Z</time></trkpt><trkpt lat="40.87705462454202" lon="9.463851132312113"><ele>27.0</ele><time>2026-04-06T17:56:01.999Z</time></trkpt><trkpt lat="40.877279622669874" lon="9.464054655914406"><ele>27.0</ele><time>2026-04-06T17:56:02.999Z</time></trkpt><trkpt lat="40.87750346981188" lon="9.464259460698381"><ele>27.0</ele><time>2026-04-06T17:56:03.999Z</time></trkpt><trkpt lat="40.8777314249521" lon="9.464466225067849"><ele>27.5</ele><time>2026-04-06T17:56:04.999Z</time></trkpt><trkpt lat="40.8779553028752" lon="9.46467213007035"><ele>28.0</ele><time>2026-04-06T17:56:05.999Z</time></trkpt><trkpt lat="40.87818275693796" lon="9.464882350321913"><ele>28.0</ele><time>2026-04-06T17:56:06.999Z</time></trkpt><trkpt lat="40.87840662294284" lon="9.465091342851451"><ele>28.0</ele><time>2026-04-06T17:56:07.999Z</time></trkpt><trkpt lat="40.87863177074494" lon="9.46529932866462"><ele>27.0</ele><time>2026-04-06T17:56:08.999Z</time></trkpt><trkpt lat="40.87885927226326" lon="9.465507389735125"><ele>26.0</ele><time>2026-04-06T17:56:09.999Z</time></trkpt><trkpt lat="40.87908515737084" lon="9.465714323735861"><ele>25.5</ele><time>2026-04-06T17:56:10.999Z</time></trkpt><trkpt lat="40.879312239440395" lon="9.465923466439188"><ele>25.0</ele><time>2026-04-06T17:56:11.999Z</time></trkpt><trkpt lat="40.87953904867587" lon="9.466135791608655"><ele>25.5</ele><time>2026-04-06T17:56:12.999Z</time></trkpt><trkpt lat="40.87976145780405" lon="9.46635212714502"><ele>26.0</ele><time>2026-04-06T17:56:13.999Z</time></trkpt><trkpt lat="40.87997897012441" lon="9.46657155437566"><ele>26.5</ele><time>2026-04-06T17:56:14.999Z</time></trkpt><trkpt lat="40.88019236467175" lon="9.466802852734137"><ele>27.0</ele><time>2026-04-06T17:56:15.999Z</time></trkpt><trkpt lat="40.88040013437715" lon="9.467043037828791"><ele>27.0</ele><time>2026-04-06T17:56:16.999Z</time></trkpt><trkpt lat="40.88060252898336" lon="9.46729073111105"><ele>27.0</ele><time>2026-04-06T17:56:17.999Z</time></trkpt><trkpt lat="40.880795520927286" lon="9.46753768875245"><ele>27.5</ele><time>2026-04-06T17:56:18.999Z</time></trkpt><trkpt lat="40.8809888619697" lon="9.46779747206361"><ele>28.0</ele><time>2026-04-06T17:56:19.999Z</time></trkpt><trkpt lat="40.88117771820956" lon="9.468060136775732"><ele>27.0</ele><time>2026-04-06T17:56:20.999Z</time></trkpt><trkpt lat="40.88136004650427" lon="9.468326033038815"><ele>26.0</ele><time>2026-04-06T17:56:21.999Z</time></trkpt><trkpt lat="40.8815375526137" lon="9.468594325897639"><ele>24.0</ele><time>2026-04-06T17:56:22.999Z</time></trkpt><trkpt lat="40.88171277092694" lon="9.468863684901214"><ele>22.0</ele><time>2026-04-06T17:56:24Z</time></trkpt><trkpt lat="40.881889649176564" lon="9.469133235234299"><ele>21.5</ele><time>2026-04-06T17:56:25Z</time></trkpt><trkpt lat="40.882063302823845" lon="9.469401838633212"><ele>21.0</ele><time>2026-04-06T17:56:26Z</time></trkpt><trkpt lat="40.8822367374422" lon="9.469672573159412"><ele>21.0</ele><time>2026-04-06T17:56:27Z</time></trkpt><trkpt lat="40.88241046086345" lon="9.469943235620072"><ele>21.0</ele><time>2026-04-06T17:56:28Z</time></trkpt><trkpt lat="40.88258529137184" lon="9.470213870556186"><ele>24.0</ele><time>2026-04-06T17:56:29Z</time></trkpt><trkpt lat="40.88275980626154" lon="9.470482913697541"><ele>27.0</ele><time>2026-04-06T17:56:30Z</time></trkpt><trkpt lat="40.882934139693944" lon="9.470752143847026"><ele>27.0</ele><time>2026-04-06T17:56:31Z</time></trkpt><trkpt lat="40.88311001122348" lon="9.471022007904445"><ele>27.0</ele><time>2026-04-06T17:56:32Z</time></trkpt><trkpt lat="40.88328322560286" lon="9.471288938073842"><ele>29.0</ele><time>2026-04-06T17:56:33Z</time></trkpt><trkpt lat="40.88345912324561" lon="9.471557259660914"><ele>31.0</ele><time>2026-04-06T17:56:34Z</time></trkpt><trkpt lat="40.8836365016465" lon="9.471826904236883"><ele>31.0</ele><time>2026-04-06T17:56:35Z</time></trkpt><trkpt lat="40.88381229754185" lon="9.472094901340139"><ele>31.0</ele><time>2026-04-06T17:56:36Z</time></trkpt><trkpt lat="40.88398843677835" lon="9.472364005813748"><ele>30.5</ele><time>2026-04-06T17:56:37Z</time></trkpt><trkpt lat="40.88416158121734" lon="9.47263120193377"><ele>30.0</ele><time>2026-04-06T17:56:38Z</time></trkpt><trkpt lat="40.88433311424396" lon="9.4728962884496"><ele>29.5</ele><time>2026-04-06T17:56:39Z</time></trkpt><trkpt lat="40.884507598654515" lon="9.473162384385086"><ele>29.0</ele><time>2026-04-06T17:56:40Z</time></trkpt><trkpt lat="40.88468017157013" lon="9.473425109590698"><ele>29.0</ele><time>2026-04-06T17:56:41Z</time></trkpt><trkpt lat="40.884850925441675" lon="9.473686518791792"><ele>29.0</ele><time>2026-04-06T17:56:42Z</time></trkpt><trkpt lat="40.88502500242922" lon="9.47395226977596"><ele>28.5</ele><time>2026-04-06T17:56:43Z</time></trkpt><trkpt lat="40.885193014706466" lon="9.47421276336914"><ele>28.0</ele><time>2026-04-06T17:56:44Z</time></trkpt><trkpt lat="40.8853690236269" lon="9.474482462941939"><ele>28.0</ele><time>2026-04-06T17:56:45Z</time></trkpt><trkpt lat="40.885538667692565" lon="9.474749187915092"><ele>28.0</ele><time>2026-04-06T17:56:46Z</time></trkpt><trkpt lat="40.88570920068909" lon="9.475020402065821"><ele>29.0</ele><time>2026-04-06T17:56:47Z</time></trkpt><trkpt lat="40.88605449938036" lon="9.475558115600274"><ele>29.0</ele><time>2026-04-06T17:56:49Z</time></trkpt><trkpt lat="40.88622797547213" lon="9.475829004511455"><ele>29.0</ele><time>2026-04-06T17:56:50Z</time></trkpt><trkpt lat="40.88640210938125" lon="9.476102934322466"><ele>29.5</ele><time>2026-04-06T17:56:51Z</time></trkpt><trkpt lat="40.8865782669467" lon="9.476376468378882"><ele>30.0</ele><time>2026-04-06T17:56:52Z</time></trkpt><trkpt lat="40.886754977240585" lon="9.476649526416082"><ele>30.0</ele><time>2026-04-06T17:56:53Z</time></trkpt><trkpt lat="40.88693384159194" lon="9.476923560282522"><ele>30.0</ele><time>2026-04-06T17:56:54Z</time></trkpt><trkpt lat="40.8871141739448" lon="9.477198593156587"><ele>29.0</ele><time>2026-04-06T17:56:55Z</time></trkpt><trkpt lat="40.88729514144771" lon="9.477477657941426"><ele>28.0</ele><time>2026-04-06T17:56:56Z</time></trkpt><trkpt lat="40.8874718606056" lon="9.47776049050819"><ele>27.5</ele><time>2026-04-06T17:56:57Z</time></trkpt><trkpt lat="40.88764460690885" lon="9.478039350037637"><ele>27.0</ele><time>2026-04-06T17:56:58Z</time></trkpt><trkpt lat="40.88781236168173" lon="9.47830750249312"><ele>27.0</ele><time>2026-04-06T17:56:59Z</time></trkpt><trkpt lat="40.887974269095956" lon="9.47856688075476"><ele>27.0</ele><time>2026-04-06T17:57:00Z</time></trkpt><trkpt lat="40.88814185301361" lon="9.478828736977443"><ele>25.5</ele><time>2026-04-06T17:57:01Z</time></trkpt><trkpt lat="40.888307113934964" lon="9.479086982913783"><ele>24.0</ele><time>2026-04-06T17:57:02Z</time></trkpt><trkpt lat="40.88847052439108" lon="9.479345611036806"><ele>25.0</ele><time>2026-04-06T17:57:03Z</time></trkpt><trkpt lat="40.88863550902742" lon="9.479608182434257"><ele>26.0</ele><time>2026-04-06T17:57:04Z</time></trkpt><trkpt lat="40.88879792336948" lon="9.47986627780754"><ele>26.0</ele><time>2026-04-06T17:57:05Z</time></trkpt><trkpt lat="40.88896406010025" lon="9.480127678954151"><ele>26.0</ele><time>2026-04-06T17:57:06Z</time></trkpt><trkpt lat="40.88912953150264" lon="9.480386943883515"><ele>26.5</ele><time>2026-04-06T17:57:07Z</time></trkpt><trkpt lat="40.889298504257646" lon="9.480648024232222"><ele>27.0</ele><time>2026-04-06T17:57:08Z</time></trkpt><trkpt lat="40.88947352791286" lon="9.480912128186187"><ele>27.0</ele><time>2026-04-06T17:57:09Z</time></trkpt><trkpt lat="40.8896469791242" lon="9.48117092253591"><ele>27.0</ele><time>2026-04-06T17:57:10Z</time></trkpt><trkpt lat="40.889822681557085" lon="9.481436509054161"><ele>26.0</ele><time>2026-04-06T17:57:11Z</time></trkpt><trkpt lat="40.889996966050845" lon="9.481708126322786"><ele>25.0</ele><time>2026-04-06T17:57:12Z</time></trkpt><trkpt lat="40.89017173922989" lon="9.481981018307987"><ele>24.5</ele><time>2026-04-06T17:57:13Z</time></trkpt><trkpt lat="40.890344721597124" lon="9.482242977807632"><ele>24.0</ele><time>2026-04-06T17:57:14Z</time></trkpt><trkpt lat="40.890520782480856" lon="9.482506410973032"><ele>24.0</ele><time>2026-04-06T17:57:15Z</time></trkpt><trkpt lat="40.89069199937738" lon="9.482765330993574"><ele>24.0</ele><time>2026-04-06T17:57:16Z</time></trkpt><trkpt lat="40.890867373069526" lon="9.483030233611258"><ele>25.0</ele><time>2026-04-06T17:57:17Z</time></trkpt><trkpt lat="40.89103944950623" lon="9.483293557605457"><ele>26.0</ele><time>2026-04-06T17:57:18Z</time></trkpt><trkpt lat="40.89120642522474" lon="9.483548307948524"><ele>24.0</ele><time>2026-04-06T17:57:19Z</time></trkpt><trkpt lat="40.89137604975077" lon="9.483812828416827"><ele>22.0</ele><time>2026-04-06T17:57:20Z</time></trkpt><trkpt lat="40.89154440284683" lon="9.484073557791168"><ele>22.0</ele><time>2026-04-06T17:57:21Z</time></trkpt><trkpt lat="40.89171400169954" lon="9.484330889188307"><ele>22.0</ele><time>2026-04-06T17:57:22Z</time></trkpt><trkpt lat="40.89188909948252" lon="9.484592279215411"><ele>22.5</ele><time>2026-04-06T17:57:23Z</time></trkpt><trkpt lat="40.89206610692721" lon="9.48484681675858"><ele>23.0</ele><time>2026-04-06T17:57:24Z</time></trkpt><trkpt lat="40.892248072002126" lon="9.485103870724895"><ele>23.0</ele><time>2026-04-06T17:57:25Z</time></trkpt><trkpt lat="40.89243013084917" lon="9.485349613143164"><ele>23.0</ele><time>2026-04-06T17:57:26Z</time></trkpt><trkpt lat="40.89261603031324" lon="9.48559210576222"><ele>22.0</ele><time>2026-04-06T17:57:26.999Z</time></trkpt><trkpt lat="40.8928022323676" lon="9.485827920433847"><ele>21.0</ele><time>2026-04-06T17:57:27.999Z</time></trkpt><trkpt lat="40.89299154541744" lon="9.486062509943931"><ele>21.0</ele><time>2026-04-06T17:57:28.999Z</time></trkpt><trkpt lat="40.89318043306127" lon="9.486290025749998"><ele>21.0</ele><time>2026-04-06T17:57:29.999Z</time></trkpt><trkpt lat="40.8933714579039" lon="9.486525295289715"><ele>21.5</ele><time>2026-04-06T17:57:30.999Z</time></trkpt><trkpt lat="40.893564359703184" lon="9.486765269869323"><ele>22.0</ele><time>2026-04-06T17:57:31.999Z</time></trkpt><trkpt lat="40.893754357052956" lon="9.487000154897622"><ele>20.5</ele><time>2026-04-06T17:57:32.999Z</time></trkpt><trkpt lat="40.89394011461922" lon="9.487232594351509"><ele>19.0</ele><time>2026-04-06T17:57:33.999Z</time></trkpt><trkpt lat="40.894125982921615" lon="9.48744862324493"><ele>21.0</ele><time>2026-04-06T17:57:34.999Z</time></trkpt><trkpt lat="40.89430869228255" lon="9.487667508916559"><ele>23.0</ele><time>2026-04-06T17:57:35.999Z</time></trkpt><trkpt lat="40.89449498908505" lon="9.487893499896606"><ele>21.0</ele><time>2026-04-06T17:57:36.999Z</time></trkpt><trkpt lat="40.89467767648053" lon="9.488110261674837"><ele>19.0</ele><time>2026-04-06T17:57:37.999Z</time></trkpt><trkpt lat="40.89487153095059" lon="9.48833135509102"><ele>19.0</ele><time>2026-04-06T17:57:38.999Z</time></trkpt><trkpt lat="40.895072001484436" lon="9.488548851616274"><ele>19.0</ele><time>2026-04-06T17:57:39.999Z</time></trkpt><trkpt lat="40.8952743210993" lon="9.488770539483587"><ele>18.5</ele><time>2026-04-06T17:57:40.999Z</time></trkpt><trkpt lat="40.89546972071876" lon="9.488994419382154"><ele>18.0</ele><time>2026-04-06T17:57:41.999Z</time></trkpt><trkpt lat="40.895647602293096" lon="9.48920677687344"><ele>18.0</ele><time>2026-04-06T17:57:42.999Z</time></trkpt><trkpt lat="40.895804375570975" lon="9.489395260101174"><ele>18.0</ele><time>2026-04-06T17:57:43.999Z</time></trkpt><trkpt lat="40.89595781034626" lon="9.489573499219647"><ele>18.0</ele><time>2026-04-06T17:57:44.999Z</time></trkpt><trkpt lat="40.89612149886935" lon="9.489763482641003"><ele>18.0</ele><time>2026-04-06T17:57:45.999Z</time></trkpt><trkpt lat="40.89629492599054" lon="9.489966824713791"><ele>18.0</ele><time>2026-04-06T17:57:46.999Z</time></trkpt><trkpt lat="40.89647884868733" lon="9.490185875937346"><ele>18.0</ele><time>2026-04-06T17:57:47.999Z</time></trkpt><trkpt lat="40.89666986587921" lon="9.490410082809683"><ele>18.0</ele><time>2026-04-06T17:57:48.999Z</time></trkpt><trkpt lat="40.89686368240269" lon="9.490646932781729"><ele>20.5</ele><time>2026-04-06T17:57:49.999Z</time></trkpt><trkpt lat="40.89705810435794" lon="9.49088413320234"><ele>23.0</ele><time>2026-04-06T17:57:50.999Z</time></trkpt><trkpt lat="40.8972630627527" lon="9.491130263853831"><ele>23.0</ele><time>2026-04-06T17:57:51.999Z</time></trkpt><trkpt lat="40.89746569598418" lon="9.491378691760277"><ele>23.0</ele><time>2026-04-06T17:57:52.999Z</time></trkpt><trkpt lat="40.89766906604662" lon="9.491633024816032"><ele>23.0</ele><time>2026-04-06T17:57:53.999Z</time></trkpt><trkpt lat="40.897872366404286" lon="9.491889327347684"><ele>23.0</ele><time>2026-04-06T17:57:54.999Z</time></trkpt><trkpt lat="40.89807422565568" lon="9.492137968180046"><ele>22.5</ele><time>2026-04-06T17:57:55.999Z</time></trkpt><trkpt lat="40.89826975659837" lon="9.492378468879998"><ele>22.0</ele><time>2026-04-06T17:57:56.999Z</time></trkpt><trkpt lat="40.89845917083444" lon="9.49260550222053"><ele>22.0</ele><time>2026-04-06T17:57:57.999Z</time></trkpt><trkpt lat="40.89864959609745" lon="9.492833853993469"><ele>22.0</ele><time>2026-04-06T17:57:58.999Z</time></trkpt><trkpt lat="40.898835828595175" lon="9.493059432018134"><ele>21.0</ele><time>2026-04-06T17:57:59.999Z</time></trkpt><trkpt lat="40.89901835269654" lon="9.493282351370992"><ele>20.0</ele><time>2026-04-06T17:58:00.999Z</time></trkpt><trkpt lat="40.89920415910909" lon="9.493509303003224"><ele>20.0</ele><time>2026-04-06T17:58:01.999Z</time></trkpt><trkpt lat="40.89938759223073" lon="9.493734118290968"><ele>20.0</ele><time>2026-04-06T17:58:02.999Z</time></trkpt><trkpt lat="40.89957294278845" lon="9.493958003830931"><ele>19.5</ele><time>2026-04-06T17:58:03.999Z</time></trkpt><trkpt lat="40.899760991462344" lon="9.494184930447396"><ele>19.0</ele><time>2026-04-06T17:58:04.999Z</time></trkpt><trkpt lat="40.89994699013727" lon="9.494410639525084"><ele>20.0</ele><time>2026-04-06T17:58:05.999Z</time></trkpt><trkpt lat="40.9001361918879" lon="9.494638482757427"><ele>21.0</ele><time>2026-04-06T17:58:06.999Z</time></trkpt><trkpt lat="40.90032336766503" lon="9.494865680123889"><ele>21.0</ele><time>2026-04-06T17:58:07.999Z</time></trkpt><trkpt lat="40.90051102725943" lon="9.495093740627201"><ele>21.0</ele><time>2026-04-06T17:58:08.999Z</time></trkpt><trkpt lat="40.90070054284157" lon="9.495323241082337"><ele>21.5</ele><time>2026-04-06T17:58:09.999Z</time></trkpt><trkpt lat="40.900887945286534" lon="9.495550742610982"><ele>22.0</ele><time>2026-04-06T17:58:10.999Z</time></trkpt><trkpt lat="40.9010779336202" lon="9.49578124423242"><ele>22.0</ele><time>2026-04-06T17:58:11.999Z</time></trkpt><trkpt lat="40.901263856566395" lon="9.49600802728758"><ele>22.0</ele><time>2026-04-06T17:58:12.999Z</time></trkpt><trkpt lat="40.90145176039693" lon="9.49623533116521"><ele>20.5</ele><time>2026-04-06T17:58:13.999Z</time></trkpt><trkpt lat="40.901638614167645" lon="9.496462550508069"><ele>19.0</ele><time>2026-04-06T17:58:14.999Z</time></trkpt><trkpt lat="40.9018259974982" lon="9.496689696439084"><ele>20.5</ele><time>2026-04-06T17:58:15.999Z</time></trkpt><trkpt lat="40.90200952421036" lon="9.496913140956998"><ele>22.0</ele><time>2026-04-06T17:58:16.999Z</time></trkpt><trkpt lat="40.90219641382493" lon="9.497135462476344"><ele>22.0</ele><time>2026-04-06T17:58:17.999Z</time></trkpt><trkpt lat="40.90238088186733" lon="9.497355009738236"><ele>22.0</ele><time>2026-04-06T17:58:18.999Z</time></trkpt><trkpt lat="40.90256407572779" lon="9.49757643079283"><ele>22.0</ele><time>2026-04-06T17:58:19.999Z</time></trkpt><trkpt lat="40.9027419158639" lon="9.497795626848"><ele>22.0</ele><time>2026-04-06T17:58:20.999Z</time></trkpt><trkpt lat="40.902922123184" lon="9.498018712137085"><ele>22.0</ele><time>2026-04-06T17:58:21.999Z</time></trkpt><trkpt lat="40.903103048163906" lon="9.498242256260122"><ele>22.0</ele><time>2026-04-06T17:58:22.999Z</time></trkpt><trkpt lat="40.90328267937383" lon="9.498466491070655"><ele>21.5</ele><time>2026-04-06T17:58:23.999Z</time></trkpt><trkpt lat="40.90346102442187" lon="9.49869417878901"><ele>21.0</ele><time>2026-04-06T17:58:24.999Z</time></trkpt><trkpt lat="40.90363906407003" lon="9.498926436140621"><ele>21.0</ele><time>2026-04-06T17:58:25.999Z</time></trkpt><trkpt lat="40.90381178535383" lon="9.499163485525154"><ele>21.0</ele><time>2026-04-06T17:58:26.999Z</time></trkpt><trkpt lat="40.9039792746557" lon="9.499404645151726"><ele>22.5</ele><time>2026-04-06T17:58:27.999Z</time></trkpt><trkpt lat="40.90414252613437" lon="9.499650819293137"><ele>24.0</ele><time>2026-04-06T17:58:28.999Z</time></trkpt><trkpt lat="40.90430309343474" lon="9.499909308706673"><ele>24.0</ele><time>2026-04-06T17:58:30Z</time></trkpt><trkpt lat="40.904454900116" lon="9.5001648069529"><ele>24.0</ele><time>2026-04-06T17:58:31Z</time></trkpt><trkpt lat="40.90460285581893" lon="9.500428344529919"><ele>22.0</ele><time>2026-04-06T17:58:32Z</time></trkpt><trkpt lat="40.90475021863299" lon="9.500695114411082"><ele>20.0</ele><time>2026-04-06T17:58:33Z</time></trkpt><trkpt lat="40.90489154006641" lon="9.500962028074417"><ele>20.0</ele><time>2026-04-06T17:58:34Z</time></trkpt><trkpt lat="40.90502901536372" lon="9.501232712077847"><ele>20.0</ele><time>2026-04-06T17:58:35Z</time></trkpt><trkpt lat="40.905163178395796" lon="9.501506358588882"><ele>19.5</ele><time>2026-04-06T17:58:36Z</time></trkpt><trkpt lat="40.90529478419039" lon="9.501781287694754"><ele>19.0</ele><time>2026-04-06T17:58:37Z</time></trkpt><trkpt lat="40.90542052397602" lon="9.502055633659825"><ele>21.0</ele><time>2026-04-06T17:58:38Z</time></trkpt><trkpt lat="40.905548225819885" lon="9.502330816887035"><ele>23.0</ele><time>2026-04-06T17:58:39Z</time></trkpt><trkpt lat="40.905677771743505" lon="9.502606996211423"><ele>23.0</ele><time>2026-04-06T17:58:40Z</time></trkpt><trkpt lat="40.90580095873731" lon="9.502876329881987"><ele>23.0</ele><time>2026-04-06T17:58:41Z</time></trkpt><trkpt lat="40.90591959756338" lon="9.503135302724417"><ele>24.0</ele><time>2026-04-06T17:58:42Z</time></trkpt><trkpt lat="40.90603426169975" lon="9.503381109055097"><ele>25.0</ele><time>2026-04-06T17:58:43Z</time></trkpt><trkpt lat="40.9061454255678" lon="9.503618622470462"><ele>26.0</ele><time>2026-04-06T17:58:44Z</time></trkpt><trkpt lat="40.906248786140615" lon="9.50384291223378"><ele>26.0</ele><time>2026-04-06T17:58:45Z</time></trkpt><trkpt lat="40.90634771935829" lon="9.504061787368956"><ele>26.0</ele><time>2026-04-06T17:58:46Z</time></trkpt><trkpt lat="40.90644458426734" lon="9.504278975268212"><ele>26.0</ele><time>2026-04-06T17:58:47Z</time></trkpt><trkpt lat="40.90654230394104" lon="9.50449173006437"><ele>25.0</ele><time>2026-04-06T17:58:48Z</time></trkpt><trkpt lat="40.90663821102803" lon="9.504694450760358"><ele>24.0</ele><time>2026-04-06T17:58:49Z</time></trkpt><trkpt lat="40.90673934913259" lon="9.504905430606101"><ele>23.0</ele><time>2026-04-06T17:58:50Z</time></trkpt><trkpt lat="40.90684323163143" lon="9.505120214172276"><ele>23.0</ele><time>2026-04-06T17:58:51Z</time></trkpt><trkpt lat="40.906943994626026" lon="9.50532792026633"><ele>23.0</ele><time>2026-04-06T17:58:52Z</time></trkpt><trkpt lat="40.90704231455094" lon="9.505521705530297"><ele>23.0</ele><time>2026-04-06T17:58:53Z</time></trkpt><trkpt lat="40.90714373443328" lon="9.505717577558842"><ele>21.666666666666668</ele><time>2026-04-06T17:58:54Z</time></trkpt><trkpt lat="40.90724984632054" lon="9.505917267072084"><ele>20.333333333333332</ele><time>2026-04-06T17:58:55Z</time></trkpt><trkpt lat="40.907355882380855" lon="9.506110470760447"><ele>19.0</ele><time>2026-04-06T17:58:56Z</time></trkpt><trkpt lat="40.90746280121918" lon="9.506291939157933"><ele>18.0</ele><time>2026-04-06T17:58:57Z</time></trkpt><trkpt lat="40.90756876991298" lon="9.506456685473838"><ele>17.0</ele><time>2026-04-06T17:58:58Z</time></trkpt><trkpt lat="40.90768724649008" lon="9.506608660609093"><ele>16.0</ele><time>2026-04-06T17:58:59Z</time></trkpt><trkpt lat="40.90781552187393" lon="9.506748998260132"><ele>16.0</ele><time>2026-04-06T17:59:00Z</time></trkpt><trkpt lat="40.90794936149061" lon="9.50687236296256"><ele>16.0</ele><time>2026-04-06T17:59:01Z</time></trkpt><trkpt lat="40.90808295727241" lon="9.506969687579"><ele>16.0</ele><time>2026-04-06T17:59:02Z</time></trkpt><trkpt lat="40.90822405001838" lon="9.507053025610622"><ele>16.0</ele><time>2026-04-06T17:59:03Z</time></trkpt><trkpt lat="40.90836569495915" lon="9.507114845381029"><ele>16.0</ele><time>2026-04-06T17:59:04Z</time></trkpt><trkpt lat="40.90852302619496" lon="9.507166954290783"><ele>16.0</ele><time>2026-04-06T17:59:05Z</time></trkpt><trkpt lat="40.90867949268633" lon="9.507204220863425"><ele>16.666666666666664</ele><time>2026-04-06T17:59:06Z</time></trkpt><trkpt lat="40.90883427531105" lon="9.50722296507998"><ele>17.333333333333332</ele><time>2026-04-06T17:59:07Z</time></trkpt><trkpt lat="40.90898957679186" lon="9.507225658883442"><ele>18.0</ele><time>2026-04-06T17:59:08Z</time></trkpt><trkpt lat="40.909135019832775" lon="9.507208357453479"><ele>16.0</ele><time>2026-04-06T17:59:09Z</time></trkpt><trkpt lat="40.909279829902225" lon="9.507178737019032"><ele>14.0</ele><time>2026-04-06T17:59:10Z</time></trkpt><trkpt lat="40.909420926452206" lon="9.507136431303428"><ele>12.0</ele><time>2026-04-06T17:59:11Z</time></trkpt><trkpt lat="40.90956566022931" lon="9.507085497429934"><ele>10.0</ele><time>2026-04-06T17:59:12Z</time></trkpt><trkpt lat="40.909686472331515" lon="9.507013408877835"><ele>8.666666666666668</ele><time>2026-04-06T17:59:13Z</time></trkpt><trkpt lat="40.90981926584192" lon="9.50692595812363"><ele>7.333333333333334</ele><time>2026-04-06T17:59:14Z</time></trkpt><trkpt lat="40.90995735730233" lon="9.506799038027397"><ele>6.0</ele><time>2026-04-06T17:59:15Z</time></trkpt><trkpt lat="40.910087826705634" lon="9.506654873959885"><ele>5.666666666666667</ele><time>2026-04-06T17:59:16Z</time></trkpt><trkpt lat="40.91020615853979" lon="9.506507130068602"><ele>5.333333333333334</ele><time>2026-04-06T17:59:17Z</time></trkpt><trkpt lat="40.91031448103578" lon="9.50635287041256"><ele>5.0</ele><time>2026-04-06T17:59:18Z</time></trkpt><trkpt lat="40.91041385404529" lon="9.506182174297926"><ele>5.0</ele><time>2026-04-06T17:59:19Z</time></trkpt><trkpt lat="40.91049580762464" lon="9.505997007218223"><ele>5.0</ele><time>2026-04-06T17:59:20Z</time></trkpt><trkpt lat="40.910571079361354" lon="9.50579662694468"><ele>5.0</ele><time>2026-04-06T17:59:21Z</time></trkpt><trkpt lat="40.91062885936462" lon="9.505588846430669"><ele>5.0</ele><time>2026-04-06T17:59:22Z</time></trkpt><trkpt lat="40.9106776391417" lon="9.505369154185964"><ele>5.0</ele><time>2026-04-06T17:59:23Z</time></trkpt><trkpt lat="40.91072599249748" lon="9.505151483525305"><ele>5.0</ele><time>2026-04-06T17:59:23.999Z</time></trkpt><trkpt lat="40.91077572690671" lon="9.504934302131286"><ele>5.0</ele><time>2026-04-06T17:59:24.999Z</time></trkpt><trkpt lat="40.910828538929486" lon="9.504729698888248"><ele>5.0</ele><time>2026-04-06T17:59:25.999Z</time></trkpt><trkpt lat="40.910880700827754" lon="9.504542295178956"><ele>5.0</ele><time>2026-04-06T17:59:26.999Z</time></trkpt><trkpt lat="40.910936336405214" lon="9.504370602880561"><ele>4.333333333333334</ele><time>2026-04-06T17:59:27.999Z</time></trkpt><trkpt lat="40.911001813907426" lon="9.504198080957392"><ele>3.666666666666667</ele><time>2026-04-06T17:59:28.999Z</time></trkpt><trkpt lat="40.91108381050509" lon="9.504018711368749"><ele>3.0</ele><time>2026-04-06T17:59:29.999Z</time></trkpt><trkpt lat="40.91118425663717" lon="9.503835272777462"><ele>3.666666666666667</ele><time>2026-04-06T17:59:30.999Z</time></trkpt><trkpt lat="40.911294823183034" lon="9.503656655692609"><ele>4.333333333333334</ele><time>2026-04-06T17:59:31.999Z</time></trkpt><trkpt lat="40.91140651894192" lon="9.50349701559272"><ele>5.0</ele><time>2026-04-06T17:59:32.999Z</time></trkpt><trkpt lat="40.91152336568024" lon="9.503344622348793"><ele>5.0</ele><time>2026-04-06T17:59:33.999Z</time></trkpt><trkpt lat="40.91164901418089" lon="9.503189944729101"><ele>5.0</ele><time>2026-04-06T17:59:34.999Z</time></trkpt><trkpt lat="40.9117782513214" lon="9.503039502686795"><ele>5.0</ele><time>2026-04-06T17:59:35.999Z</time></trkpt><trkpt lat="40.91191060614342" lon="9.502896291319717"><ele>4.25</ele><time>2026-04-06T17:59:36.999Z</time></trkpt><trkpt lat="40.91203213846873" lon="9.502776252596355"><ele>3.5</ele><time>2026-04-06T17:59:37.999Z</time></trkpt><trkpt lat="40.91216094403701" lon="9.502682956696152"><ele>2.75</ele><time>2026-04-06T17:59:38.999Z</time></trkpt><trkpt lat="40.91227994143347" lon="9.502583735782203"><ele>2.0</ele><time>2026-04-06T17:59:39.999Z</time></trkpt><trkpt lat="40.91239394147082" lon="9.502494388288746"><ele>2.0</ele><time>2026-04-06T17:59:40.999Z</time></trkpt><trkpt lat="40.91249677149895" lon="9.502394760064314"><ele>2.0</ele><time>2026-04-06T17:59:41.999Z</time></trkpt><trkpt lat="40.91261528978926" lon="9.502315219248151"><ele>2.0</ele><time>2026-04-06T17:59:42.999Z</time></trkpt><trkpt lat="40.912742095130454" lon="9.502260163160486"><ele>2.0</ele><time>2026-04-06T17:59:43.999Z</time></trkpt><trkpt lat="40.91285750336528" lon="9.502192793437047"><ele>1.75</ele><time>2026-04-06T17:59:44.999Z</time></trkpt><trkpt lat="40.91296962792617" lon="9.502130364568844"><ele>1.5</ele><time>2026-04-06T17:59:45.999Z</time></trkpt><trkpt lat="40.913077145113526" lon="9.502050156802758"><ele>1.25</ele><time>2026-04-06T17:59:46.999Z</time></trkpt><trkpt lat="40.913202589032934" lon="9.501995254350714"><ele>1.0</ele><time>2026-04-06T17:59:47.999Z</time></trkpt><trkpt lat="40.91333798021034" lon="9.501940647361513"><ele>2.0</ele><time>2026-04-06T17:59:48.999Z</time></trkpt><trkpt lat="40.91346876164104" lon="9.501892188427176"><ele>3.0</ele><time>2026-04-06T17:59:49.999Z</time></trkpt><trkpt lat="40.91361306160957" lon="9.501843360750366"><ele>4.0</ele><time>2026-04-06T17:59:50.999Z</time></trkpt><trkpt lat="40.91375526846029" lon="9.501801940904057"><ele>5.0</ele><time>2026-04-06T17:59:51.999Z</time></trkpt><trkpt lat="40.913883079670676" lon="9.501768972464294"><ele>5.0</ele><time>2026-04-06T17:59:52.999Z</time></trkpt><trkpt lat="40.91401033976095" lon="9.50173818159437"><ele>5.0</ele><time>2026-04-06T17:59:53.999Z</time></trkpt><trkpt lat="40.9141354391083" lon="9.50171126235474"><ele>5.0</ele><time>2026-04-06T17:59:54.999Z</time></trkpt><trkpt lat="40.91425829537253" lon="9.501691998738087"><ele>5.0</ele><time>2026-04-06T17:59:55.999Z</time></trkpt><trkpt lat="40.91437650627836" lon="9.50167952342971"><ele>4.8</ele><time>2026-04-06T17:59:56.999Z</time></trkpt><trkpt lat="40.91448592478643" lon="9.501669399457425"><ele>4.6</ele><time>2026-04-06T17:59:57.999Z</time></trkpt><trkpt lat="40.91459930312566" lon="9.501660035883342"><ele>4.4</ele><time>2026-04-06T17:59:58.999Z</time></trkpt><trkpt lat="40.914708017620605" lon="9.501656719800273"><ele>4.2</ele><time>2026-04-06T17:59:59.999Z</time></trkpt><trkpt lat="40.91481373575147" lon="9.501654473114291"><ele>4.0</ele><time>2026-04-06T18:00:00.999Z</time></trkpt><trkpt lat="40.9149201192567" lon="9.501651196754542"><ele>4.0</ele><time>2026-04-06T18:00:01.999Z</time></trkpt><trkpt lat="40.91502152364769" lon="9.501649680708498"><ele>4.0</ele><time>2026-04-06T18:00:02.999Z</time></trkpt><trkpt lat="40.915118087204014" lon="9.501645702280848"><ele>4.0</ele><time>2026-04-06T18:00:03.999Z</time></trkpt><trkpt lat="40.91521713671179" lon="9.50163826538626"><ele>4.0</ele><time>2026-04-06T18:00:04.999Z</time></trkpt><trkpt lat="40.91531973363419" lon="9.501631430212287"><ele>4.0</ele><time>2026-04-06T18:00:05.999Z</time></trkpt><trkpt lat="40.915425871348795" lon="9.501625021096414"><ele>3.4000000000000004</ele><time>2026-04-06T18:00:06.999Z</time></trkpt><trkpt lat="40.915539176869395" lon="9.501618056765912"><ele>2.8000000000000003</ele><time>2026-04-06T18:00:07.999Z</time></trkpt><trkpt lat="40.9156533495447" lon="9.501612097965216"><ele>2.2</ele><time>2026-04-06T18:00:08.999Z</time></trkpt><trkpt lat="40.91576460414977" lon="9.501605740922756"><ele>1.6</ele><time>2026-04-06T18:00:09.999Z</time></trkpt><trkpt lat="40.91586996575386" lon="9.501598555580003"><ele>1.0</ele><time>2026-04-06T18:00:10.999Z</time></trkpt><trkpt lat="40.91597750818548" lon="9.501592795628444"><ele>1.0</ele><time>2026-04-06T18:00:11.999Z</time></trkpt><trkpt lat="40.91609236845992" lon="9.50158674209179"><ele>1.0</ele><time>2026-04-06T18:00:12.999Z</time></trkpt><trkpt lat="40.91621282255972" lon="9.501578548395058"><ele>1.0</ele><time>2026-04-06T18:00:13.999Z</time></trkpt><trkpt lat="40.9163378084877" lon="9.501572052051724"><ele>1.0</ele><time>2026-04-06T18:00:14.999Z</time></trkpt><trkpt lat="40.91645888278073" lon="9.501567635872831"><ele>1.0</ele><time>2026-04-06T18:00:15.999Z</time></trkpt><trkpt lat="40.916577420152635" lon="9.501562945006281"><ele>1.0</ele><time>2026-04-06T18:00:16.999Z</time></trkpt><trkpt lat="40.91669782438341" lon="9.5015571420128"><ele>1.0</ele><time>2026-04-06T18:00:17.999Z</time></trkpt><trkpt lat="40.916817730520144" lon="9.501551514853594"><ele>1.0</ele><time>2026-04-06T18:00:18.999Z</time></trkpt><trkpt lat="40.91693933705383" lon="9.50154624589313"><ele>0.75</ele><time>2026-04-06T18:00:19.999Z</time></trkpt><trkpt lat="40.91706061362334" lon="9.501541282432264"><ele>0.5</ele><time>2026-04-06T18:00:20.999Z</time></trkpt><trkpt lat="40.91718286133811" lon="9.50153461544631"><ele>0.25</ele><time>2026-04-06T18:00:21.999Z</time></trkpt><trkpt lat="40.917306205218345" lon="9.501527715444267"><ele>0.0</ele><time>2026-04-06T18:00:22.999Z</time></trkpt><trkpt lat="40.91742994116267" lon="9.501521314825899"><ele>0.0</ele><time>2026-04-06T18:00:23.999Z</time></trkpt><trkpt lat="40.91755241839896" lon="9.501514628044582"><ele>0.0</ele><time>2026-04-06T18:00:24.999Z</time></trkpt><trkpt lat="40.91767525834301" lon="9.501508025397689"><ele>0.0</ele><time>2026-04-06T18:00:25.999Z</time></trkpt><trkpt lat="40.91780174520821" lon="9.501501785107497"><ele>0.0</ele><time>2026-04-06T18:00:26.999Z</time></trkpt><trkpt lat="40.91792237814913" lon="9.501497110814622"><ele>0.0</ele><time>2026-04-06T18:00:27.999Z</time></trkpt><trkpt lat="40.91804256543174" lon="9.501492486999362"><ele>0.0</ele><time>2026-04-06T18:00:28.999Z</time></trkpt><trkpt lat="40.918162119564734" lon="9.501486877587153"><ele>0.0</ele><time>2026-04-06T18:00:29.999Z</time></trkpt><trkpt lat="40.91828409807904" lon="9.501481897103757"><ele>0.0</ele><time>2026-04-06T18:00:30.999Z</time></trkpt><trkpt lat="40.91840622660986" lon="9.501476743588277"><ele>0.0</ele><time>2026-04-06T18:00:31.999Z</time></trkpt><trkpt lat="40.91852465593051" lon="9.501471716753535"><ele>0.0</ele><time>2026-04-06T18:00:32.999Z</time></trkpt><trkpt lat="40.91864457840763" lon="9.501465933156322"><ele>0.0</ele><time>2026-04-06T18:00:33.999Z</time></trkpt><trkpt lat="40.91875760004205" lon="9.501461435289077"><ele>0.0</ele><time>2026-04-06T18:00:35Z</time></trkpt><trkpt lat="40.91886879008877" lon="9.501456518247029"><ele>0.0</ele><time>2026-04-06T18:00:36Z</time></trkpt><trkpt lat="40.9189743174652" lon="9.501452216842457"><ele>0.0</ele><time>2026-04-06T18:00:37Z</time></trkpt><trkpt lat="40.91907376638048" lon="9.501448342624506"><ele>0.0</ele><time>2026-04-06T18:00:38Z</time></trkpt><trkpt lat="40.919167037400534" lon="9.501446584221712"><ele>0.0</ele><time>2026-04-06T18:00:39Z</time></trkpt><trkpt lat="40.91926347717141" lon="9.501443940590553"><ele>0.0</ele><time>2026-04-06T18:00:40Z</time></trkpt><trkpt lat="40.91936083200892" lon="9.501441910746639"><ele>0.0</ele><time>2026-04-06T18:00:41Z</time></trkpt><trkpt lat="40.919460742148864" lon="9.50144616396707"><ele>0.0</ele><time>2026-04-06T18:00:42Z</time></trkpt><trkpt lat="40.919562709186636" lon="9.501454957211008"><ele>0.0</ele><time>2026-04-06T18:00:43Z</time></trkpt><trkpt lat="40.919668234644796" lon="9.501471439222733"><ele>0.0</ele><time>2026-04-06T18:00:44Z</time></trkpt><trkpt lat="40.91977579159299" lon="9.501494911371918"><ele>0.0</ele><time>2026-04-06T18:00:45Z</time></trkpt><trkpt lat="40.91988668201048" lon="9.50152381413971"><ele>0.0</ele><time>2026-04-06T18:00:46Z</time></trkpt><trkpt lat="40.91999934701033" lon="9.501560158281386"><ele>0.0</ele><time>2026-04-06T18:00:47Z</time></trkpt><trkpt lat="40.92010269826946" lon="9.501600195151376"><ele>0.0</ele><time>2026-04-06T18:00:48Z</time></trkpt><trkpt lat="40.92020103146295" lon="9.501643786516823"><ele>0.0</ele><time>2026-04-06T18:00:49Z</time></trkpt><trkpt lat="40.92029514597234" lon="9.501690176482603"><ele>0.0</ele><time>2026-04-06T18:00:50Z</time></trkpt><trkpt lat="40.92038482718307" lon="9.501741446696077"><ele>0.4</ele><time>2026-04-06T18:00:51Z</time></trkpt><trkpt lat="40.920478229052485" lon="9.501802600552784"><ele>0.8</ele><time>2026-04-06T18:00:52Z</time></trkpt><trkpt lat="40.92057317267847" lon="9.50186834137038"><ele>1.2000000000000002</ele><time>2026-04-06T18:00:53Z</time></trkpt><trkpt lat="40.920670716517186" lon="9.501941182162017"><ele>1.6</ele><time>2026-04-06T18:00:54Z</time></trkpt><trkpt lat="40.920772935969225" lon="9.502026998086864"><ele>2.0</ele><time>2026-04-06T18:00:55Z</time></trkpt><trkpt lat="40.92087934037719" lon="9.502126583870178"><ele>3.5</ele><time>2026-04-06T18:00:56Z</time></trkpt><trkpt lat="40.920986581968485" lon="9.502239885963148"><ele>5.0</ele><time>2026-04-06T18:00:57Z</time></trkpt><trkpt lat="40.92109037961904" lon="9.502357693904564"><ele>6.5</ele><time>2026-04-06T18:00:58Z</time></trkpt><trkpt lat="40.9211900779919" lon="9.502480355047668"><ele>8.0</ele><time>2026-04-06T18:00:59Z</time></trkpt><trkpt lat="40.92128648348338" lon="9.502613614356168"><ele>8.0</ele><time>2026-04-06T18:01:00Z</time></trkpt><trkpt lat="40.92137084885719" lon="9.502753799386067"><ele>8.0</ele><time>2026-04-06T18:01:01Z</time></trkpt><trkpt lat="40.92144083086153" lon="9.502905090603734"><ele>8.0</ele><time>2026-04-06T18:01:02Z</time></trkpt><trkpt lat="40.92150023863616" lon="9.503063612686455"><ele>8.0</ele><time>2026-04-06T18:01:03Z</time></trkpt><trkpt lat="40.921555292592316" lon="9.503218569983666"><ele>6.0</ele><time>2026-04-06T18:01:04Z</time></trkpt><trkpt lat="40.92166449179745" lon="9.503438729950854"><ele>4.0</ele><time>2026-04-06T18:01:05Z</time></trkpt><trkpt lat="40.92172639910054" lon="9.503615026473236"><ele>2.0</ele><time>2026-04-06T18:01:06Z</time></trkpt><trkpt lat="40.92179769515856" lon="9.50381036738567"><ele>2.0</ele><time>2026-04-06T18:01:07Z</time></trkpt><trkpt lat="40.92185419752002" lon="9.503996691905037"><ele>2.0</ele><time>2026-04-06T18:01:08Z</time></trkpt><trkpt lat="40.92192361170025" lon="9.504207017986204"><ele>2.0</ele><time>2026-04-06T18:01:09Z</time></trkpt><trkpt lat="40.92198843853029" lon="9.504413467177834"><ele>1.3333333333333333</ele><time>2026-04-06T18:01:10Z</time></trkpt><trkpt lat="40.9220601821345" lon="9.504615370374752"><ele>0.6666666666666666</ele><time>2026-04-06T18:01:11Z</time></trkpt><trkpt lat="40.92213374488989" lon="9.504820991067378"><ele>0.0</ele><time>2026-04-06T18:01:12Z</time></trkpt><trkpt lat="40.92220440855841" lon="9.505028640517242"><ele>0.0</ele><time>2026-04-06T18:01:13Z</time></trkpt><trkpt lat="40.92227921647285" lon="9.505246255769018"><ele>0.0</ele><time>2026-04-06T18:01:14.064Z</time></trkpt><trkpt lat="40.92476385074411" lon="9.507728692367895"><ele>0.3333333333333333</ele><time>2026-04-06T18:01:34.999Z</time></trkpt><trkpt lat="40.924916508667344" lon="9.50769471259208"><ele>0.6666666666666666</ele><time>2026-04-06T18:01:35.999Z</time></trkpt><trkpt lat="40.92484517645362" lon="9.507909384636026"><ele>1.0</ele><time>2026-04-06T18:01:36.999Z</time></trkpt><trkpt lat="40.92483671347868" lon="9.508141167502432"><ele>1.0</ele><time>2026-04-06T18:01:37.999Z</time></trkpt><trkpt lat="40.92480850127712" lon="9.508348132911513"><ele>1.0</ele><time>2026-04-06T18:01:38.999Z</time></trkpt><trkpt lat="40.924793672086786" lon="9.508540855116214"><ele>1.0</ele><time>2026-04-06T18:01:39.999Z</time></trkpt><trkpt lat="40.924779998346175" lon="9.508712189828087"><ele>1.0</ele><time>2026-04-06T18:01:40.999Z</time></trkpt><trkpt lat="40.924768030633004" lon="9.50888013436232"><ele>1.0</ele><time>2026-04-06T18:01:41.999Z</time></trkpt><trkpt lat="40.92476305936049" lon="9.509028453841378"><ele>1.0</ele><time>2026-04-06T18:01:42.999Z</time></trkpt><trkpt lat="40.92475966502558" lon="9.509165781532776"><ele>1.0</ele><time>2026-04-06T18:01:43.999Z</time></trkpt><trkpt lat="40.9247639694641" lon="9.509315415523911"><ele>1.0</ele><time>2026-04-06T18:01:44.999Z</time></trkpt><trkpt lat="40.92476214235514" lon="9.509471823464182"><ele>1.0</ele><time>2026-04-06T18:01:45.999Z</time></trkpt><trkpt lat="40.92475520214914" lon="9.509612274177002"><ele>0.8</ele><time>2026-04-06T18:01:46.999Z</time></trkpt><trkpt lat="40.92474310462792" lon="9.50974813779372"><ele>0.6000000000000001</ele><time>2026-04-06T18:01:47.999Z</time></trkpt><trkpt lat="40.92472964051503" lon="9.50988255653848"><ele>0.4</ele><time>2026-04-06T18:01:48.999Z</time></trkpt><trkpt lat="40.92471517873947" lon="9.510016703894262"><ele>0.2</ele><time>2026-04-06T18:01:49.999Z</time></trkpt><trkpt lat="40.924698210469614" lon="9.51014948927176"><ele>0.0</ele><time>2026-04-06T18:01:50.999Z</time></trkpt><trkpt lat="40.92468095267792" lon="9.510290027320703"><ele>0.0</ele><time>2026-04-06T18:01:51.999Z</time></trkpt><trkpt lat="40.924663092911864" lon="9.510435492239766"><ele>0.0</ele><time>2026-04-06T18:01:52.999Z</time></trkpt><trkpt lat="40.92464220789029" lon="9.510581964444048"><ele>0.0</ele><time>2026-04-06T18:01:53.999Z</time></trkpt><trkpt lat="40.924618343559196" lon="9.510734362812963"><ele>0.0</ele><time>2026-04-06T18:01:54.999Z</time></trkpt><trkpt lat="40.92459510254716" lon="9.510887334889109"><ele>0.0</ele><time>2026-04-06T18:01:55.999Z</time></trkpt><trkpt lat="40.924571954841866" lon="9.511038875421823"><ele>0.0</ele><time>2026-04-06T18:01:56.999Z</time></trkpt><trkpt lat="40.924549709373935" lon="9.511198013912354"><ele>0.0</ele><time>2026-04-06T18:01:57.999Z</time></trkpt><trkpt lat="40.92452557314307" lon="9.511353538114099"><ele>0.0</ele><time>2026-04-06T18:01:58.999Z</time></trkpt><trkpt lat="40.9245013721441" lon="9.511507812620415"><ele>0.0</ele><time>2026-04-06T18:01:59.999Z</time></trkpt><trkpt lat="40.92447920068265" lon="9.511661857886558"><ele>0.0</ele><time>2026-04-06T18:02:00.999Z</time></trkpt><trkpt lat="40.92445519043563" lon="9.51181032562696"><ele>0.0</ele><time>2026-04-06T18:02:01.999Z</time></trkpt><trkpt lat="40.924433147250404" lon="9.511945565322339"><ele>0.0</ele><time>2026-04-06T18:02:02.999Z</time></trkpt><trkpt lat="40.92441252540624" lon="9.51207851387397"><ele>0.0</ele><time>2026-04-06T18:02:03.999Z</time></trkpt><trkpt lat="40.924391562607816" lon="9.512220388040392"><ele>0.0</ele><time>2026-04-06T18:02:04.999Z</time></trkpt><trkpt lat="40.92437139530125" lon="9.51236262362826"><ele>0.0</ele><time>2026-04-06T18:02:05.999Z</time></trkpt><trkpt lat="40.924346949096105" lon="9.512511890162948"><ele>0.0</ele><time>2026-04-06T18:02:06.999Z</time></trkpt><trkpt lat="40.92432602696472" lon="9.512651396612982"><ele>0.0</ele><time>2026-04-06T18:02:07.999Z</time></trkpt><trkpt lat="40.92430475509063" lon="9.512778481780565"><ele>0.0</ele><time>2026-04-06T18:02:08.999Z</time></trkpt><trkpt lat="40.92428381193969" lon="9.512902601656775"><ele>0.0</ele><time>2026-04-06T18:02:09.999Z</time></trkpt><trkpt lat="40.92426050449558" lon="9.51304925885533"><ele>0.0</ele><time>2026-04-06T18:02:10.999Z</time></trkpt><trkpt lat="40.92423825199782" lon="9.513188985825067"><ele>0.0</ele><time>2026-04-06T18:02:11.999Z</time></trkpt><trkpt lat="40.92421695041247" lon="9.513328184787357"><ele>0.0</ele><time>2026-04-06T18:02:12.999Z</time></trkpt><trkpt lat="40.924195455017255" lon="9.51346425456272"><ele>0.0</ele><time>2026-04-06T18:02:13.999Z</time></trkpt><trkpt lat="40.92417370314156" lon="9.513600593239088"><ele>0.2</ele><time>2026-04-06T18:02:14.999Z</time></trkpt><trkpt lat="40.92415237756095" lon="9.51373350437472"><ele>0.4</ele><time>2026-04-06T18:02:15.999Z</time></trkpt><trkpt lat="40.924132194162624" lon="9.513862177744889"><ele>0.6000000000000001</ele><time>2026-04-06T18:02:16.999Z</time></trkpt><trkpt lat="40.92411343742703" lon="9.513987893691278"><ele>0.8</ele><time>2026-04-06T18:02:17.999Z</time></trkpt><trkpt lat="40.9240932534799" lon="9.514115940322688"><ele>1.0</ele><time>2026-04-06T18:02:18.999Z</time></trkpt><trkpt lat="40.92407479147989" lon="9.514245376800602"><ele>0.9999999999999999</ele><time>2026-04-06T18:02:19.999Z</time></trkpt><trkpt lat="40.92405567918744" lon="9.514363270011998"><ele>1.0</ele><time>2026-04-06T18:02:20.999Z</time></trkpt><trkpt lat="40.92403574571666" lon="9.514464129888136"><ele>1.0</ele><time>2026-04-06T18:02:21.999Z</time></trkpt><trkpt lat="40.92401337016181" lon="9.514561009570844"><ele>1.0</ele><time>2026-04-06T18:02:22.999Z</time></trkpt><trkpt lat="40.923994811678085" lon="9.514659166587872"><ele>0.9999999999999999</ele><time>2026-04-06T18:02:23.999Z</time></trkpt><trkpt lat="40.92397814661194" lon="9.514773856318998"><ele>1.0</ele><time>2026-04-06T18:02:24.999Z</time></trkpt><trkpt lat="40.923943816172084" lon="9.514893821543183"><ele>1.0</ele><time>2026-04-06T18:02:25.999Z</time></trkpt><trkpt lat="40.92395022083102" lon="9.515031695950572"><ele>1.0</ele><time>2026-04-06T18:02:26.999Z</time></trkpt><trkpt lat="40.92393631613396" lon="9.515170876308504"><ele>1.0</ele><time>2026-04-06T18:02:27.999Z</time></trkpt><trkpt lat="40.92392309405406" lon="9.515316955211699"><ele>1.0</ele><time>2026-04-06T18:02:28.999Z</time></trkpt><trkpt lat="40.923910275068835" lon="9.515455073666775"><ele>1.0</ele><time>2026-04-06T18:02:29.999Z</time></trkpt><trkpt lat="40.92389511341562" lon="9.51558738163521"><ele>1.0</ele><time>2026-04-06T18:02:30.999Z</time></trkpt><trkpt lat="40.92387784405982" lon="9.515707997100922"><ele>1.0</ele><time>2026-04-06T18:02:31.999Z</time></trkpt><trkpt lat="40.9238597559282" lon="9.515837862570347"><ele>1.0</ele><time>2026-04-06T18:02:32.999Z</time></trkpt><trkpt lat="40.92384322512719" lon="9.515975733018491"><ele>1.0</ele><time>2026-04-06T18:02:33.999Z</time></trkpt><trkpt lat="40.923829101831" lon="9.516123096423266"><ele>1.0</ele><time>2026-04-06T18:02:34.999Z</time></trkpt><trkpt lat="40.92381852017621" lon="9.516265774954523"><ele>0.9999999999999999</ele><time>2026-04-06T18:02:35.999Z</time></trkpt><trkpt lat="40.923807937635175" lon="9.51638647724596"><ele>1.0</ele><time>2026-04-06T18:02:36.999Z</time></trkpt><trkpt lat="40.923797295596366" lon="9.516504743964846"><ele>1.0</ele><time>2026-04-06T18:02:37.999Z</time></trkpt><trkpt lat="40.923788543404065" lon="9.516613490972162"><ele>1.0</ele><time>2026-04-06T18:02:38.999Z</time></trkpt><trkpt lat="40.92378038015213" lon="9.516710637525659"><ele>0.9999999999999999</ele><time>2026-04-06T18:02:39.999Z</time></trkpt><trkpt lat="40.92377017657016" lon="9.516798040548895"><ele>1.0</ele><time>2026-04-06T18:02:41Z</time></trkpt><trkpt lat="40.92375822218745" lon="9.516896997031099"><ele>0.9999999999999999</ele><time>2026-04-06T18:02:42Z</time></trkpt><trkpt lat="40.923750467164645" lon="9.516992638542765"><ele>1.0</ele><time>2026-04-06T18:02:43Z</time></trkpt><trkpt lat="40.92374155963767" lon="9.517095314885552"><ele>1.0</ele><time>2026-04-06T18:02:44Z</time></trkpt><trkpt lat="40.923731513177074" lon="9.517200064077324"><ele>1.0</ele><time>2026-04-06T18:02:45Z</time></trkpt><trkpt lat="40.92372287814164" lon="9.51730816948437"><ele>0.9999999999999999</ele><time>2026-04-06T18:02:46Z</time></trkpt><trkpt lat="40.92371407105489" lon="9.517415463220125"><ele>1.0</ele><time>2026-04-06T18:02:47Z</time></trkpt><trkpt lat="40.92370449813485" lon="9.517520983425547"><ele>1.1666666666666665</ele><time>2026-04-06T18:02:48Z</time></trkpt><trkpt lat="40.92369310741296" lon="9.517610468011592"><ele>1.3333333333333333</ele><time>2026-04-06T18:02:49Z</time></trkpt><trkpt lat="40.92367593016612" lon="9.51770915994064"><ele>1.5</ele><time>2026-04-06T18:02:50Z</time></trkpt><trkpt lat="40.92365903242762" lon="9.517793011997147"><ele>1.6666666666666665</ele><time>2026-04-06T18:02:51Z</time></trkpt><trkpt lat="40.92365850643339" lon="9.517877864223625"><ele>1.8333333333333333</ele><time>2026-04-06T18:02:52Z</time></trkpt><trkpt lat="40.923622952057855" lon="9.518028964912752"><ele>2.0</ele><time>2026-04-06T18:02:54Z</time></trkpt><trkpt lat="40.92359496521849" lon="9.518118723615453"><ele>2.0</ele><time>2026-04-06T18:02:55Z</time></trkpt><trkpt lat="40.92356511870758" lon="9.518212430648417"><ele>1.9999999999999998</ele><time>2026-04-06T18:02:56Z</time></trkpt><trkpt lat="40.923535278924454" lon="9.518303817770752"><ele>2.0</ele><time>2026-04-06T18:02:57Z</time></trkpt><trkpt lat="40.923494221316055" lon="9.518373817723678"><ele>2.0</ele><time>2026-04-06T18:02:58Z</time></trkpt><trkpt lat="40.923470179801" lon="9.518464412404567"><ele>1.9999999999999998</ele><time>2026-04-06T18:02:59Z</time></trkpt><trkpt lat="40.92344491014116" lon="9.518549918644966"><ele>2.0</ele><time>2026-04-06T18:03:00Z</time></trkpt><trkpt lat="40.923422652583874" lon="9.518628957980615"><ele>2.0</ele><time>2026-04-06T18:03:01Z</time></trkpt><trkpt lat="40.923387359885034" lon="9.518761379121322"><ele>1.6666666666666665</ele><time>2026-04-06T18:03:03Z</time></trkpt><trkpt lat="40.923359910767786" lon="9.518876198490192"><ele>1.3333333333333333</ele><time>2026-04-06T18:03:05Z</time></trkpt><trkpt lat="40.92334032986867" lon="9.518968582795171"><ele>1.0</ele><time>2026-04-06T18:03:07Z</time></trkpt><trkpt lat="40.92332233700075" lon="9.519069690428433"><ele>0.6666666666666666</ele><time>2026-04-06T18:03:20.999Z</time></trkpt><trkpt lat="40.92330833062462" lon="9.519156989612789"><ele>0.3333333333333333</ele><time>2026-04-06T18:03:30.999Z</time></trkpt><trkpt lat="40.92328812919948" lon="9.519257421299171"><ele>0.0</ele><time>2026-04-06T18:03:33.999Z</time></trkpt><trkpt lat="40.923270034566215" lon="9.51934385156115"><ele>0.0</ele><time>2026-04-06T18:03:36.999Z</time></trkpt><trkpt lat="40.92325599183316" lon="9.519436496614288"><ele>0.0</ele><time>2026-04-06T18:03:40.999Z</time></trkpt><trkpt lat="40.92323830264627" lon="9.519535791434791"><ele>0.0</ele><time>2026-04-06T18:03:45.999Z</time></trkpt><trkpt lat="40.923227681156405" lon="9.519623251304004"><ele>0.0</ele><time>2026-04-06T18:03:48.999Z</time></trkpt><trkpt lat="40.92321841256423" lon="9.51970780483319"><ele>0.0</ele><time>2026-04-06T18:03:50.999Z</time></trkpt><trkpt lat="40.923218402540805" lon="9.519826636231597"><ele>0.0</ele><time>2026-04-06T18:03:53.999Z</time></trkpt><trkpt lat="40.92319864024175" lon="9.519923700317351"><ele>0.0</ele><time>2026-04-06T18:03:56.999Z</time></trkpt><trkpt lat="40.92319024418815" lon="9.520014888683022"><ele>0.0</ele><time>2026-04-06T18:04:00.999Z</time></trkpt><trkpt lat="40.923182813251216" lon="9.52009887149991"><ele>0.0</ele><time>2026-04-06T18:04:05.999Z</time></trkpt><trkpt lat="40.92317628954353" lon="9.52018708395627"><ele>0.0</ele><time>2026-04-06T18:06:06.999Z</time></trkpt><trkpt lat="40.923168698636246" lon="9.520281495013842"><ele>0.0</ele><time>2026-04-06T18:06:24.999Z</time></trkpt><trkpt lat="40.923165496813" lon="9.520393901620615"><ele>0.0</ele><time>2026-04-06T18:07:22.999Z</time></trkpt><trkpt lat="40.92315638099955" lon="9.520484679454428"><ele>0.0</ele><time>2026-04-06T18:07:26.999Z</time></trkpt><trkpt lat="40.923153472651514" lon="9.520568550535103"><ele>0.0</ele><time>2026-04-06T18:08:09Z</time></trkpt><trkpt lat="40.923147647033204" lon="9.520667194511745"><ele>0.7142857142857143</ele><time>2026-04-06T18:08:57Z</time></trkpt><trkpt lat="40.92314238644699" lon="9.520756960900016"><ele>1.4285714285714286</ele><time>2026-04-06T18:09:26Z</time></trkpt><trkpt lat="40.92313841784536" lon="9.520842759062361"><ele>2.142857142857143</ele><time>2026-04-06T18:09:52Z</time></trkpt><trkpt lat="40.92314064543903" lon="9.520928667374317"><ele>2.857142857142857</ele><time>2026-04-06T18:10:35Z</time></trkpt><trkpt lat="40.92313693881021" lon="9.52101385705013"><ele>3.5714285714285716</ele><time>2026-04-06T18:11:20Z</time></trkpt><trkpt lat="40.92315190429887" lon="9.521109272512744"><ele>4.285714285714286</ele><time>2026-04-06T18:11:23Z</time></trkpt><trkpt lat="40.923180432990215" lon="9.521186071185163"><ele>5.0</ele><time>2026-04-06T18:11:26Z</time></trkpt><trkpt lat="40.92324914393429" lon="9.521408314540036"><ele>5.0</ele><time>2026-04-06T18:11:42Z</time></trkpt><trkpt lat="40.92330589822644" lon="9.521527706158066"><ele>5.0</ele><time>2026-04-06T18:11:47Z</time></trkpt><trkpt lat="40.92336884061833" lon="9.521523549044867"><ele>5.0</ele><time>2026-04-06T18:11:53Z</time></trkpt><trkpt lat="40.92345406596957" lon="9.521524028035532"><ele>5.0</ele><time>2026-04-06T18:11:58Z</time></trkpt><trkpt lat="40.92352081270694" lon="9.521513512397474"><ele>5.0</ele><time>2026-04-06T18:12:00Z</time></trkpt><trkpt lat="40.92358853027044" lon="9.5215090402129"><ele>5.0</ele><time>2026-04-06T18:12:02Z</time></trkpt><trkpt lat="40.923660586877155" lon="9.521769841245"><ele>5.0</ele><time>2026-04-06T18:12:04Z</time></trkpt><trkpt lat="40.923718598786046" lon="9.521810745191287"><ele>5.0</ele><time>2026-04-06T18:12:06Z</time></trkpt><trkpt lat="40.92371609405501" lon="9.521987222938016"><ele>5.0</ele><time>2026-04-06T18:12:07Z</time></trkpt><trkpt lat="40.92378400753767" lon="9.522001705641618"><ele>5.0</ele><time>2026-04-06T18:12:09Z</time></trkpt><trkpt lat="40.9238712731916" lon="9.522016544088235"><ele>5.0</ele><time>2026-04-06T18:12:12Z</time></trkpt><trkpt lat="40.92394424192765" lon="9.522027984946794"><ele>5.0</ele><time>2026-04-06T18:12:16Z</time></trkpt><trkpt lat="40.924012572502896" lon="9.522037872624017"><ele>5.0</ele><time>2026-04-06T18:12:24Z</time></trkpt><trkpt lat="40.92409080121836" lon="9.52204942870118"><ele>5.0</ele><time>2026-04-06T18:12:27Z</time></trkpt><trkpt lat="40.92416852123755" lon="9.522062115273028"><ele>5.0</ele><time>2026-04-06T18:12:31Z</time></trkpt><trkpt lat="40.92423153175726" lon="9.522075800339863"><ele>5.0</ele><time>2026-04-06T18:12:37Z</time></trkpt><trkpt lat="40.924297228642345" lon="9.522095372610199"><ele>5.0</ele><time>2026-04-06T18:12:49Z</time></trkpt><trkpt lat="40.92436052839593" lon="9.522115045505435"><ele>5.0</ele><time>2026-04-06T18:12:54Z</time></trkpt><trkpt lat="40.924432262280334" lon="9.522136287876636"><ele>5.0</ele><time>2026-04-06T18:13:06.999Z</time></trkpt><trkpt lat="40.92446307464698" lon="9.522227509883274"><ele>4.833333333333334</ele><time>2026-04-06T18:13:13Z</time></trkpt><trkpt lat="40.92446856593747" lon="9.522315824729079"><ele>4.666666666666667</ele><time>2026-04-06T18:13:15Z</time></trkpt><trkpt lat="40.92446668358892" lon="9.522474442469308"><ele>4.5</ele><time>2026-04-06T18:13:17Z</time></trkpt><trkpt lat="40.92446059370905" lon="9.522580911436183"><ele>4.333333333333333</ele><time>2026-04-06T18:13:18Z</time></trkpt><trkpt lat="40.92445633001615" lon="9.52269115549238"><ele>4.166666666666666</ele><time>2026-04-06T18:13:19Z</time></trkpt><trkpt lat="40.92445448281409" lon="9.522780754096711"><ele>4.0</ele><time>2026-04-06T18:13:20Z</time></trkpt><trkpt lat="40.924442645731354" lon="9.522953688783325"><ele>3.9999999999999996</ele><time>2026-04-06T18:13:22Z</time></trkpt><trkpt lat="40.92443753207975" lon="9.52305745139742"><ele>4.0</ele><time>2026-04-06T18:13:23Z</time></trkpt><trkpt lat="40.92443308860636" lon="9.523163283273421"><ele>4.0</ele><time>2026-04-06T18:13:24Z</time></trkpt><trkpt lat="40.924427504707936" lon="9.523271593617864"><ele>4.0</ele><time>2026-04-06T18:13:25Z</time></trkpt><trkpt lat="40.92442269720256" lon="9.523377990142142"><ele>3.9999999999999996</ele><time>2026-04-06T18:13:26Z</time></trkpt><trkpt lat="40.92441828819088" lon="9.523482021402378"><ele>4.0</ele><time>2026-04-06T18:13:27Z</time></trkpt><trkpt lat="40.924418244941215" lon="9.52357031409278"><ele>4.0</ele><time>2026-04-06T18:13:28Z</time></trkpt><trkpt lat="40.924410807760026" lon="9.523713410075537"><ele>4.0</ele><time>2026-04-06T18:13:30Z</time></trkpt><trkpt lat="40.92440679785546" lon="9.523867082267051"><ele>4.0</ele><time>2026-04-06T18:13:32Z</time></trkpt><trkpt lat="40.92439955010302" lon="9.524020733552337"><ele>4.0</ele><time>2026-04-06T18:13:34Z</time></trkpt><trkpt lat="40.92440099960363" lon="9.524115126272672"><ele>4.0</ele><time>2026-04-06T18:13:36Z</time></trkpt><trkpt lat="40.92453321147334" lon="9.524112978415543"><ele>4.0</ele><time>2026-04-06T18:13:38Z</time></trkpt><trkpt lat="40.92457264208864" lon="9.524020274029358"><ele>4.0</ele><time>2026-04-06T18:13:40Z</time></trkpt><trkpt lat="40.92462469327587" lon="9.523885893414324"><ele>4.0</ele><time>2026-04-06T18:13:42Z</time></trkpt><trkpt lat="40.92463366306868" lon="9.523743095382043"><ele>4.0</ele><time>2026-04-06T18:13:44Z</time></trkpt><trkpt lat="40.92464165334156" lon="9.52361589069448"><ele>4.0</ele><time>2026-04-06T18:13:46Z</time></trkpt><trkpt lat="40.924647035682376" lon="9.523511339037524"><ele>4.0</ele><time>2026-04-06T18:13:48Z</time></trkpt><trkpt lat="40.924650672714726" lon="9.523410813594772"><ele>3.9999999999999996</ele><time>2026-04-06T18:13:52Z</time></trkpt><trkpt lat="40.924653923953144" lon="9.523320951228703"><ele>4.0</ele><time>2026-04-06T18:13:56Z</time></trkpt><trkpt lat="40.92465722895485" lon="9.523229602621676"><ele>4.0</ele><time>2026-04-06T18:14:00Z</time></trkpt><trkpt lat="40.92466089140724" lon="9.523128374368461"><ele>3.9999999999999996</ele><time>2026-04-06T18:15:26Z</time></trkpt><trkpt lat="40.92466439968909" lon="9.523031407332988"><ele>4.0</ele><time>2026-04-06T18:15:29Z</time></trkpt><trkpt lat="40.92466777910934" lon="9.522938002043677"><ele>4.0</ele><time>2026-04-06T18:15:43Z</time></trkpt><trkpt lat="40.92467126700319" lon="9.522841598337266"><ele>3.833333333333333</ele><time>2026-04-06T18:15:57Z</time></trkpt><trkpt lat="40.924626764632535" lon="9.522758757575295"><ele>3.6666666666666665</ele><time>2026-04-06T18:16:11Z</time></trkpt><trkpt lat="40.92461383875688" lon="9.522661148374276"><ele>3.5</ele><time>2026-04-06T18:16:59.999Z</time></trkpt><trkpt lat="40.924620206844544" lon="9.522560394435535"><ele>3.333333333333333</ele><time>2026-04-06T18:17:23Z</time></trkpt><trkpt lat="40.924628061147885" lon="9.522456245094586"><ele>3.1666666666666665</ele><time>2026-04-06T18:17:43Z</time></trkpt><trkpt lat="40.9246252758211" lon="9.522363698659415"><ele>3.0</ele><time>2026-04-06T18:18:01Z</time></trkpt><trkpt lat="40.92467801079581" lon="9.522282107557002"><ele>3.0</ele><time>2026-04-06T18:18:52.999Z</time></trkpt><trkpt lat="40.92475413241368" lon="9.522310284800849"><ele>3.0</ele><time>2026-04-06T18:24:59.999Z</time></trkpt><trkpt lat="40.924819490357585" lon="9.522342749996055"><ele>3.0</ele><time>2026-04-06T18:25:04.999Z</time></trkpt><trkpt lat="40.92482807148058" lon="9.522474130378706"><ele>3.0</ele><time>2026-04-06T18:25:07.999Z</time></trkpt><trkpt lat="40.92490319782988" lon="9.52252597153716"><ele>3.0</ele><time>2026-04-06T18:25:28.999Z</time></trkpt><trkpt lat="40.924924711705536" lon="9.522687897558695"><ele>3.0</ele><time>2026-04-06T18:25:30.999Z</time></trkpt><trkpt lat="40.92491627000137" lon="9.52280327853067"><ele>3.0</ele><time>2026-04-06T18:25:32.999Z</time></trkpt><trkpt lat="40.92492826379072" lon="9.522900674849307"><ele>3.0</ele><time>2026-04-06T18:25:34.999Z</time></trkpt><trkpt lat="40.92492344644568" lon="9.523010287686906"><ele>3.0</ele><time>2026-04-06T18:25:35.999Z</time></trkpt><trkpt lat="40.924919472869306" lon="9.523151579842436"><ele>3.0</ele><time>2026-04-06T18:25:36.999Z</time></trkpt><trkpt lat="40.92497108199068" lon="9.522765270358184"><ele>3.0</ele><time>2026-04-06T18:25:38.999Z</time></trkpt><trkpt lat="40.92496366580168" lon="9.522565024519285"><ele>3.0</ele><time>2026-04-06T18:25:40.999Z</time></trkpt><trkpt lat="40.92493432905733" lon="9.522469503263201"><ele>3.0</ele><time>2026-04-06T18:25:53Z</time></trkpt><trkpt lat="40.9249799424467" lon="9.52238615486657"><ele>3.0</ele><time>2026-04-06T18:26:13Z</time></trkpt><trkpt lat="40.925023050702656" lon="9.522458586820646"><ele>3.0</ele><time>2026-04-06T18:26:29Z</time></trkpt><trkpt lat="40.925038424868" lon="9.52254605917146"><ele>3.0</ele><time>2026-04-06T18:26:32Z</time></trkpt><trkpt lat="40.92504534566913" lon="9.522635843631093"><ele>3.0</ele><time>2026-04-06T18:26:33Z</time></trkpt><trkpt lat="40.92503274419455" lon="9.522778613857582"><ele>3.0</ele><time>2026-04-06T18:26:35Z</time></trkpt><trkpt lat="40.92508947074168" lon="9.52292279860038"><ele>3.0</ele><time>2026-04-06T18:26:37Z</time></trkpt><trkpt lat="40.92513391123654" lon="9.522989065869586"><ele>3.0</ele><time>2026-04-06T18:26:38Z</time></trkpt><trkpt lat="40.92516066817449" lon="9.523067176401488"><ele>3.0</ele><time>2026-04-06T18:26:39Z</time></trkpt><trkpt lat="40.92521209469565" lon="9.523158229859181"><ele>3.0</ele><time>2026-04-06T18:26:41Z</time></trkpt><trkpt lat="40.925247891796126" lon="9.52326366530372"><ele>3.0</ele><time>2026-04-06T18:26:42Z</time></trkpt><trkpt lat="40.92529101619169" lon="9.523393812998696"><ele>3.0</ele><time>2026-04-06T18:26:42.999Z</time></trkpt><trkpt lat="40.92502982089401" lon="9.522620942238584"><ele>3.0</ele><time>2026-04-06T18:27:00.999Z</time></trkpt><trkpt lat="40.9250502630225" lon="9.52282399035438"><ele>3.0</ele><time>2026-04-06T18:27:19.999Z</time></trkpt><trkpt lat="40.92502185428301" lon="9.52290580307101"><ele>3.0</ele><time>2026-04-06T18:27:27.999Z</time></trkpt><trkpt lat="40.92495687993351" lon="9.522937409364657"><ele>3.0</ele><time>2026-04-06T18:27:31.999Z</time></trkpt><trkpt lat="40.92490121195363" lon="9.522880172513183"><ele>3.0</ele><time>2026-04-06T18:27:33.999Z</time></trkpt><trkpt lat="40.92483422399594" lon="9.522811458466279"><ele>3.0</ele><time>2026-04-06T18:27:35.999Z</time></trkpt><trkpt lat="40.924787181750325" lon="9.52266101660394"><ele>3.0</ele><time>2026-04-06T18:27:37.999Z</time></trkpt><trkpt lat="40.92477265932611" lon="9.52257109939913"><ele>3.0</ele><time>2026-04-06T18:27:38.999Z</time></trkpt><trkpt lat="40.924705865283165" lon="9.522625645923826"><ele>3.0</ele><time>2026-04-06T18:27:40.999Z</time></trkpt><trkpt lat="40.924719223403855" lon="9.522889100998778"><ele>3.0</ele><time>2026-04-06T18:27:43.999Z</time></trkpt><trkpt lat="40.92472848027522" lon="9.522992717482746"><ele>3.0</ele><time>2026-04-06T18:27:44.999Z</time></trkpt><trkpt lat="40.924752282364466" lon="9.523097298675943"><ele>3.0</ele><time>2026-04-06T18:27:46.999Z</time></trkpt><trkpt lat="40.924808211795636" lon="9.523030499129145"><ele>3.0</ele><time>2026-04-06T18:27:55Z</time></trkpt><trkpt lat="40.924826230038995" lon="9.522950405127602"><ele>3.0</ele><time>2026-04-06T18:27:56Z</time></trkpt><trkpt lat="40.92480482752752" lon="9.522403398512377"><ele>3.0</ele><time>2026-04-06T18:28:26Z</time></trkpt><trkpt lat="40.92478732247169" lon="9.522318809557078"><ele>3.0</ele><time>2026-04-06T18:28:28Z</time></trkpt><trkpt lat="40.92464386479239" lon="9.522677053164344"><ele>3.0</ele><time>2026-04-06T18:28:37Z</time></trkpt><trkpt lat="40.924640438834714" lon="9.522771744948836"><ele>3.0</ele><time>2026-04-06T18:28:38.999Z</time></trkpt><trkpt lat="40.92463656571523" lon="9.522878796087307"><ele>3.0</ele><time>2026-04-06T18:28:39.999Z</time></trkpt><trkpt lat="40.92464066469314" lon="9.522765502259423"><ele>3.0</ele><time>2026-04-06T18:28:44.999Z</time></trkpt><trkpt lat="40.924674672019286" lon="9.522626880278013"><ele>3.0</ele><time>2026-04-06T18:28:45.999Z</time></trkpt><trkpt lat="40.924673355648316" lon="9.522733288178848"><ele>3.0</ele><time>2026-04-06T18:28:46.999Z</time></trkpt><trkpt lat="40.92463552462309" lon="9.522907571523394"><ele>3.0</ele><time>2026-04-06T18:28:47.999Z</time></trkpt><trkpt lat="40.924666335747865" lon="9.523005655231348"><ele>3.333333333333333</ele><time>2026-04-06T18:28:49.999Z</time></trkpt><trkpt lat="40.924628148404864" lon="9.523111446280458"><ele>3.6666666666666665</ele><time>2026-04-06T18:28:50.999Z</time></trkpt><trkpt lat="40.924621198696286" lon="9.523303532258252"><ele>4.0</ele><time>2026-04-06T18:28:52.999Z</time></trkpt><trkpt lat="40.924589530331" lon="9.523913454726443"><ele>4.0</ele><time>2026-04-06T18:29:24.034Z</time></trkpt><trkpt lat="40.924603640369334" lon="9.523688826116876"><ele>4.0</ele><time>2026-04-06T18:29:26.032Z</time></trkpt><trkpt lat="40.92507010557272" lon="9.522148114129266"><ele>4.666666666666666</ele><time>2026-04-06T18:29:28.031Z</time></trkpt><trkpt lat="40.92509033920696" lon="9.522237105277645"><ele>5.333333333333333</ele><time>2026-04-06T18:29:30.031Z</time></trkpt><trkpt lat="40.925156138140196" lon="9.522280281925191"><ele>6.0</ele><time>2026-04-06T18:29:37.027Z</time></trkpt><trkpt lat="40.92498753479967" lon="9.524001050467806"><ele>6.0</ele><time>2026-04-06T18:29:38.025Z</time></trkpt></trkseg></trk></gpx>